<?xml version="1.0" encoding="UTF-8" standalone="no" ?>
<gpx xmlns="http://www.topografix.com/GPX/1/1" xmlns:xsi="http://www.w3.org/2001/XMLSchema-instance" xsi:schemaLocation="http://www.topografix.com/GPX/1/1 http://www.topografix.com/GPX/1/1/gpx.xsd" version="1.1" creator="VisuGPX - https://www.visugpx.com">
  <metadata>
    <name>2017-03-25 Bike ride-Chatillon-Limas</name>
    <desc><![CDATA[2017-03-25 Bike ride-Chatillon-Limas]]></desc>
  </metadata>
  <wpt lat="45.92459" lon="4.73711">
    <ele>174</ele>
    <name><![CDATA[2017-03-25 10:14 (Start)]]></name>
  </wpt>
  <wpt lat="45.92458" lon="4.73712">
    <ele>174</ele>
    <name><![CDATA[2017-03-25 10:14 (End)]]></name>
    <desc><![CDATA[Created by Google My Tracks on Android  Name: 2017-03-25 10:14 Activity type: biking Description: - Total distance: 38.35 km (23.8 mi) Total time: 1:57:13 Moving time: 1:55:12 Average speed: 19.63 km/h (12.2 mi/h) Average moving speed: 19.97 km/h (12.4 mi/h) Max speed: 44.67 km/h (27.8 mi/h) Average pace: 3:03 min/km (4:55 min/mi) Average moving pace: 3:00 min/km (4:50 min/mi) Fastest pace: 1:21 min/km (2:10 min/mi) Max elevation: 422 m (1384 ft) Min elevation: 163 m (536 ft) Elevation gain: 672 m (2204 ft) Max grade: 23 % Min grade: -20 % Recorded: 25/03/2017 10:14]]></desc>
  </wpt>
  <trk>
    <name><![CDATA[2017-03-25 10:14]]></name>
    <trkseg>
      <trkpt lat="45.92459" lon="4.73711">
        <ele>174</ele>
        <time>2017-03-25T09:14:37.415Z</time>
      </trkpt>
      <trkpt lat="45.92457" lon="4.73711">
        <ele>174</ele>
        <time>2017-03-25T09:15:34Z</time>
      </trkpt>
      <trkpt lat="45.92458" lon="4.7371">
        <ele>174</ele>
        <time>2017-03-25T09:15:57Z</time>
      </trkpt>
      <trkpt lat="45.92461" lon="4.73712">
        <ele>174</ele>
        <time>2017-03-25T09:15:58Z</time>
      </trkpt>
      <trkpt lat="45.92468" lon="4.73706">
        <ele>174</ele>
        <time>2017-03-25T09:16:04Z</time>
      </trkpt>
      <trkpt lat="45.92469" lon="4.73704">
        <ele>174</ele>
        <time>2017-03-25T09:16:05Z</time>
      </trkpt>
      <trkpt lat="45.9247" lon="4.73694">
        <ele>174</ele>
        <time>2017-03-25T09:16:09Z</time>
      </trkpt>
      <trkpt lat="45.9247" lon="4.73689">
        <ele>174</ele>
        <time>2017-03-25T09:16:10Z</time>
      </trkpt>
      <trkpt lat="45.92471" lon="4.7368">
        <ele>174</ele>
        <time>2017-03-25T09:16:12Z</time>
      </trkpt>
      <trkpt lat="45.92472" lon="4.73676">
        <ele>174</ele>
        <time>2017-03-25T09:16:13Z</time>
      </trkpt>
      <trkpt lat="45.92474" lon="4.73668">
        <ele>174</ele>
        <time>2017-03-25T09:16:15Z</time>
      </trkpt>
      <trkpt lat="45.92475" lon="4.73662">
        <ele>174</ele>
        <time>2017-03-25T09:16:16Z</time>
      </trkpt>
      <trkpt lat="45.92475" lon="4.7365">
        <ele>174</ele>
        <time>2017-03-25T09:16:18Z</time>
      </trkpt>
      <trkpt lat="45.92475" lon="4.73644">
        <ele>174</ele>
        <time>2017-03-25T09:16:19Z</time>
      </trkpt>
      <trkpt lat="45.92475" lon="4.73637">
        <ele>174</ele>
        <time>2017-03-25T09:16:20Z</time>
      </trkpt>
      <trkpt lat="45.92474" lon="4.7363">
        <ele>174</ele>
        <time>2017-03-25T09:16:21Z</time>
      </trkpt>
      <trkpt lat="45.92474" lon="4.73618">
        <ele>174</ele>
        <time>2017-03-25T09:16:23Z</time>
      </trkpt>
      <trkpt lat="45.92474" lon="4.73611">
        <ele>174</ele>
        <time>2017-03-25T09:16:24Z</time>
      </trkpt>
      <trkpt lat="45.92474" lon="4.73604">
        <ele>174</ele>
        <time>2017-03-25T09:16:25Z</time>
      </trkpt>
      <trkpt lat="45.92473" lon="4.73596">
        <ele>174</ele>
        <time>2017-03-25T09:16:26Z</time>
      </trkpt>
      <trkpt lat="45.92473" lon="4.73589">
        <ele>174</ele>
        <time>2017-03-25T09:16:27Z</time>
      </trkpt>
      <trkpt lat="45.92472" lon="4.73581">
        <ele>173</ele>
        <time>2017-03-25T09:16:28Z</time>
      </trkpt>
      <trkpt lat="45.92472" lon="4.73575">
        <ele>173</ele>
        <time>2017-03-25T09:16:29Z</time>
      </trkpt>
      <trkpt lat="45.92471" lon="4.73568">
        <ele>173</ele>
        <time>2017-03-25T09:16:30Z</time>
      </trkpt>
      <trkpt lat="45.9247" lon="4.73561">
        <ele>173</ele>
        <time>2017-03-25T09:16:31Z</time>
      </trkpt>
      <trkpt lat="45.92467" lon="4.73554">
        <ele>173</ele>
        <time>2017-03-25T09:16:32Z</time>
      </trkpt>
      <trkpt lat="45.9246" lon="4.73547">
        <ele>173</ele>
        <time>2017-03-25T09:16:34Z</time>
      </trkpt>
      <trkpt lat="45.92456" lon="4.73546">
        <ele>174</ele>
        <time>2017-03-25T09:16:35Z</time>
      </trkpt>
      <trkpt lat="45.92447" lon="4.73549">
        <ele>174</ele>
        <time>2017-03-25T09:16:37Z</time>
      </trkpt>
      <trkpt lat="45.92443" lon="4.73551">
        <ele>174</ele>
        <time>2017-03-25T09:16:38Z</time>
      </trkpt>
      <trkpt lat="45.9244" lon="4.73553">
        <ele>174</ele>
        <time>2017-03-25T09:16:39Z</time>
      </trkpt>
      <trkpt lat="45.92435" lon="4.73555">
        <ele>174</ele>
        <time>2017-03-25T09:16:40Z</time>
      </trkpt>
      <trkpt lat="45.9243" lon="4.73557">
        <ele>174</ele>
        <time>2017-03-25T09:16:41Z</time>
      </trkpt>
      <trkpt lat="45.92426" lon="4.7356">
        <ele>174</ele>
        <time>2017-03-25T09:16:42Z</time>
      </trkpt>
      <trkpt lat="45.92421" lon="4.73562">
        <ele>174</ele>
        <time>2017-03-25T09:16:43Z</time>
      </trkpt>
      <trkpt lat="45.92417" lon="4.73564">
        <ele>174</ele>
        <time>2017-03-25T09:16:44Z</time>
      </trkpt>
      <trkpt lat="45.92412" lon="4.73566">
        <ele>173</ele>
        <time>2017-03-25T09:16:45Z</time>
      </trkpt>
      <trkpt lat="45.92407" lon="4.73569">
        <ele>173</ele>
        <time>2017-03-25T09:16:46Z</time>
      </trkpt>
      <trkpt lat="45.92403" lon="4.73571">
        <ele>173</ele>
        <time>2017-03-25T09:16:47Z</time>
      </trkpt>
      <trkpt lat="45.92398" lon="4.73574">
        <ele>173</ele>
        <time>2017-03-25T09:16:48Z</time>
      </trkpt>
      <trkpt lat="45.92393" lon="4.73576">
        <ele>173</ele>
        <time>2017-03-25T09:16:49Z</time>
      </trkpt>
      <trkpt lat="45.92388" lon="4.73579">
        <ele>173</ele>
        <time>2017-03-25T09:16:50Z</time>
      </trkpt>
      <trkpt lat="45.92384" lon="4.73581">
        <ele>173</ele>
        <time>2017-03-25T09:16:51Z</time>
      </trkpt>
      <trkpt lat="45.92379" lon="4.73584">
        <ele>173</ele>
        <time>2017-03-25T09:16:52Z</time>
      </trkpt>
      <trkpt lat="45.92374" lon="4.73586">
        <ele>173</ele>
        <time>2017-03-25T09:16:53Z</time>
      </trkpt>
      <trkpt lat="45.92369" lon="4.73589">
        <ele>173</ele>
        <time>2017-03-25T09:16:54Z</time>
      </trkpt>
      <trkpt lat="45.92364" lon="4.73592">
        <ele>173</ele>
        <time>2017-03-25T09:16:55Z</time>
      </trkpt>
      <trkpt lat="45.92359" lon="4.73595">
        <ele>173</ele>
        <time>2017-03-25T09:16:56Z</time>
      </trkpt>
      <trkpt lat="45.92354" lon="4.73597">
        <ele>173</ele>
        <time>2017-03-25T09:16:57Z</time>
      </trkpt>
      <trkpt lat="45.92349" lon="4.736">
        <ele>173</ele>
        <time>2017-03-25T09:16:58Z</time>
      </trkpt>
      <trkpt lat="45.92344" lon="4.73603">
        <ele>173</ele>
        <time>2017-03-25T09:16:59Z</time>
      </trkpt>
      <trkpt lat="45.92339" lon="4.73605">
        <ele>173</ele>
        <time>2017-03-25T09:17:00Z</time>
      </trkpt>
      <trkpt lat="45.92334" lon="4.73608">
        <ele>173</ele>
        <time>2017-03-25T09:17:01Z</time>
      </trkpt>
      <trkpt lat="45.92329" lon="4.73611">
        <ele>172</ele>
        <time>2017-03-25T09:17:02Z</time>
      </trkpt>
      <trkpt lat="45.92324" lon="4.73613">
        <ele>172</ele>
        <time>2017-03-25T09:17:03Z</time>
      </trkpt>
      <trkpt lat="45.92319" lon="4.73616">
        <ele>172</ele>
        <time>2017-03-25T09:17:04Z</time>
      </trkpt>
      <trkpt lat="45.92314" lon="4.73619">
        <ele>172</ele>
        <time>2017-03-25T09:17:05Z</time>
      </trkpt>
      <trkpt lat="45.92309" lon="4.73622">
        <ele>172</ele>
        <time>2017-03-25T09:17:06Z</time>
      </trkpt>
      <trkpt lat="45.92304" lon="4.73625">
        <ele>172</ele>
        <time>2017-03-25T09:17:07Z</time>
      </trkpt>
      <trkpt lat="45.92299" lon="4.73628">
        <ele>172</ele>
        <time>2017-03-25T09:17:08Z</time>
      </trkpt>
      <trkpt lat="45.92294" lon="4.73631">
        <ele>172</ele>
        <time>2017-03-25T09:17:09Z</time>
      </trkpt>
      <trkpt lat="45.92288" lon="4.73633">
        <ele>172</ele>
        <time>2017-03-25T09:17:10Z</time>
      </trkpt>
      <trkpt lat="45.92283" lon="4.73636">
        <ele>172</ele>
        <time>2017-03-25T09:17:11Z</time>
      </trkpt>
      <trkpt lat="45.92278" lon="4.73638">
        <ele>172</ele>
        <time>2017-03-25T09:17:12Z</time>
      </trkpt>
      <trkpt lat="45.92272" lon="4.73641">
        <ele>172</ele>
        <time>2017-03-25T09:17:13Z</time>
      </trkpt>
      <trkpt lat="45.92268" lon="4.73645">
        <ele>172</ele>
        <time>2017-03-25T09:17:14Z</time>
      </trkpt>
      <trkpt lat="45.92262" lon="4.73648">
        <ele>171</ele>
        <time>2017-03-25T09:17:15Z</time>
      </trkpt>
      <trkpt lat="45.92257" lon="4.73651">
        <ele>171</ele>
        <time>2017-03-25T09:17:16Z</time>
      </trkpt>
      <trkpt lat="45.92252" lon="4.73654">
        <ele>171</ele>
        <time>2017-03-25T09:17:17Z</time>
      </trkpt>
      <trkpt lat="45.92247" lon="4.73657">
        <ele>171</ele>
        <time>2017-03-25T09:17:18Z</time>
      </trkpt>
      <trkpt lat="45.92241" lon="4.7366">
        <ele>171</ele>
        <time>2017-03-25T09:17:19Z</time>
      </trkpt>
      <trkpt lat="45.92236" lon="4.73662">
        <ele>171</ele>
        <time>2017-03-25T09:17:20Z</time>
      </trkpt>
      <trkpt lat="45.9223" lon="4.73665">
        <ele>171</ele>
        <time>2017-03-25T09:17:21Z</time>
      </trkpt>
      <trkpt lat="45.92225" lon="4.73668">
        <ele>171</ele>
        <time>2017-03-25T09:17:22Z</time>
      </trkpt>
      <trkpt lat="45.9222" lon="4.73671">
        <ele>171</ele>
        <time>2017-03-25T09:17:23Z</time>
      </trkpt>
      <trkpt lat="45.92214" lon="4.73674">
        <ele>171</ele>
        <time>2017-03-25T09:17:24Z</time>
      </trkpt>
      <trkpt lat="45.92209" lon="4.73677">
        <ele>171</ele>
        <time>2017-03-25T09:17:25Z</time>
      </trkpt>
      <trkpt lat="45.92203" lon="4.7368">
        <ele>171</ele>
        <time>2017-03-25T09:17:26Z</time>
      </trkpt>
      <trkpt lat="45.92197" lon="4.73682">
        <ele>171</ele>
        <time>2017-03-25T09:17:27Z</time>
      </trkpt>
      <trkpt lat="45.92192" lon="4.73685">
        <ele>171</ele>
        <time>2017-03-25T09:17:28Z</time>
      </trkpt>
      <trkpt lat="45.92187" lon="4.73688">
        <ele>171</ele>
        <time>2017-03-25T09:17:29Z</time>
      </trkpt>
      <trkpt lat="45.92181" lon="4.73691">
        <ele>171</ele>
        <time>2017-03-25T09:17:30Z</time>
      </trkpt>
      <trkpt lat="45.92176" lon="4.73694">
        <ele>171</ele>
        <time>2017-03-25T09:17:31Z</time>
      </trkpt>
      <trkpt lat="45.92171" lon="4.73696">
        <ele>171</ele>
        <time>2017-03-25T09:17:32Z</time>
      </trkpt>
      <trkpt lat="45.92166" lon="4.73699">
        <ele>171</ele>
        <time>2017-03-25T09:17:33Z</time>
      </trkpt>
      <trkpt lat="45.9216" lon="4.73701">
        <ele>171</ele>
        <time>2017-03-25T09:17:34Z</time>
      </trkpt>
      <trkpt lat="45.92155" lon="4.73703">
        <ele>171</ele>
        <time>2017-03-25T09:17:35Z</time>
      </trkpt>
      <trkpt lat="45.9215" lon="4.73705">
        <ele>171</ele>
        <time>2017-03-25T09:17:36Z</time>
      </trkpt>
      <trkpt lat="45.92145" lon="4.73708">
        <ele>171</ele>
        <time>2017-03-25T09:17:37Z</time>
      </trkpt>
      <trkpt lat="45.92139" lon="4.7371">
        <ele>171</ele>
        <time>2017-03-25T09:17:38Z</time>
      </trkpt>
      <trkpt lat="45.92134" lon="4.73712">
        <ele>171</ele>
        <time>2017-03-25T09:17:39Z</time>
      </trkpt>
      <trkpt lat="45.92128" lon="4.73714">
        <ele>171</ele>
        <time>2017-03-25T09:17:40Z</time>
      </trkpt>
      <trkpt lat="45.92123" lon="4.73716">
        <ele>171</ele>
        <time>2017-03-25T09:17:41Z</time>
      </trkpt>
      <trkpt lat="45.92117" lon="4.73717">
        <ele>171</ele>
        <time>2017-03-25T09:17:42Z</time>
      </trkpt>
      <trkpt lat="45.92112" lon="4.73719">
        <ele>171</ele>
        <time>2017-03-25T09:17:43Z</time>
      </trkpt>
      <trkpt lat="45.92106" lon="4.7372">
        <ele>171</ele>
        <time>2017-03-25T09:17:44Z</time>
      </trkpt>
      <trkpt lat="45.921" lon="4.73721">
        <ele>171</ele>
        <time>2017-03-25T09:17:45Z</time>
      </trkpt>
      <trkpt lat="45.92094" lon="4.73722">
        <ele>171</ele>
        <time>2017-03-25T09:17:46Z</time>
      </trkpt>
      <trkpt lat="45.92089" lon="4.73723">
        <ele>171</ele>
        <time>2017-03-25T09:17:47Z</time>
      </trkpt>
      <trkpt lat="45.92083" lon="4.73724">
        <ele>171</ele>
        <time>2017-03-25T09:17:48Z</time>
      </trkpt>
      <trkpt lat="45.92078" lon="4.73725">
        <ele>171</ele>
        <time>2017-03-25T09:17:49Z</time>
      </trkpt>
      <trkpt lat="45.92072" lon="4.73725">
        <ele>171</ele>
        <time>2017-03-25T09:17:50Z</time>
      </trkpt>
      <trkpt lat="45.92066" lon="4.73726">
        <ele>171</ele>
        <time>2017-03-25T09:17:51Z</time>
      </trkpt>
      <trkpt lat="45.92061" lon="4.73726">
        <ele>171</ele>
        <time>2017-03-25T09:17:52Z</time>
      </trkpt>
      <trkpt lat="45.92055" lon="4.73726">
        <ele>171</ele>
        <time>2017-03-25T09:17:53Z</time>
      </trkpt>
      <trkpt lat="45.9205" lon="4.73727">
        <ele>171</ele>
        <time>2017-03-25T09:17:54Z</time>
      </trkpt>
      <trkpt lat="45.92044" lon="4.73727">
        <ele>171</ele>
        <time>2017-03-25T09:17:55Z</time>
      </trkpt>
      <trkpt lat="45.92038" lon="4.73727">
        <ele>171</ele>
        <time>2017-03-25T09:17:56Z</time>
      </trkpt>
      <trkpt lat="45.92033" lon="4.73728">
        <ele>171</ele>
        <time>2017-03-25T09:17:57Z</time>
      </trkpt>
      <trkpt lat="45.92027" lon="4.73728">
        <ele>171</ele>
        <time>2017-03-25T09:17:58Z</time>
      </trkpt>
      <trkpt lat="45.92022" lon="4.73728">
        <ele>171</ele>
        <time>2017-03-25T09:17:59Z</time>
      </trkpt>
      <trkpt lat="45.92016" lon="4.73728">
        <ele>171</ele>
        <time>2017-03-25T09:18:00Z</time>
      </trkpt>
      <trkpt lat="45.9201" lon="4.73727">
        <ele>171</ele>
        <time>2017-03-25T09:18:01Z</time>
      </trkpt>
      <trkpt lat="45.92004" lon="4.73727">
        <ele>171</ele>
        <time>2017-03-25T09:18:02Z</time>
      </trkpt>
      <trkpt lat="45.91999" lon="4.73727">
        <ele>171</ele>
        <time>2017-03-25T09:18:03Z</time>
      </trkpt>
      <trkpt lat="45.91993" lon="4.73727">
        <ele>171</ele>
        <time>2017-03-25T09:18:04Z</time>
      </trkpt>
      <trkpt lat="45.91987" lon="4.73727">
        <ele>171</ele>
        <time>2017-03-25T09:18:05Z</time>
      </trkpt>
      <trkpt lat="45.91982" lon="4.73727">
        <ele>171</ele>
        <time>2017-03-25T09:18:06Z</time>
      </trkpt>
      <trkpt lat="45.91976" lon="4.73727">
        <ele>171</ele>
        <time>2017-03-25T09:18:07Z</time>
      </trkpt>
      <trkpt lat="45.9197" lon="4.73727">
        <ele>171</ele>
        <time>2017-03-25T09:18:08Z</time>
      </trkpt>
      <trkpt lat="45.91965" lon="4.73727">
        <ele>171</ele>
        <time>2017-03-25T09:18:09Z</time>
      </trkpt>
      <trkpt lat="45.91959" lon="4.73727">
        <ele>171</ele>
        <time>2017-03-25T09:18:10Z</time>
      </trkpt>
      <trkpt lat="45.91953" lon="4.73728">
        <ele>170</ele>
        <time>2017-03-25T09:18:11Z</time>
      </trkpt>
      <trkpt lat="45.91948" lon="4.73728">
        <ele>170</ele>
        <time>2017-03-25T09:18:12Z</time>
      </trkpt>
      <trkpt lat="45.91942" lon="4.73728">
        <ele>170</ele>
        <time>2017-03-25T09:18:13Z</time>
      </trkpt>
      <trkpt lat="45.91936" lon="4.73727">
        <ele>170</ele>
        <time>2017-03-25T09:18:14Z</time>
      </trkpt>
      <trkpt lat="45.9193" lon="4.73727">
        <ele>170</ele>
        <time>2017-03-25T09:18:15Z</time>
      </trkpt>
      <trkpt lat="45.91924" lon="4.73727">
        <ele>170</ele>
        <time>2017-03-25T09:18:16Z</time>
      </trkpt>
      <trkpt lat="45.91918" lon="4.73728">
        <ele>170</ele>
        <time>2017-03-25T09:18:17Z</time>
      </trkpt>
      <trkpt lat="45.91913" lon="4.73728">
        <ele>171</ele>
        <time>2017-03-25T09:18:18Z</time>
      </trkpt>
      <trkpt lat="45.91906" lon="4.73728">
        <ele>171</ele>
        <time>2017-03-25T09:18:19Z</time>
      </trkpt>
      <trkpt lat="45.919" lon="4.73728">
        <ele>171</ele>
        <time>2017-03-25T09:18:20Z</time>
      </trkpt>
      <trkpt lat="45.91894" lon="4.73729">
        <ele>171</ele>
        <time>2017-03-25T09:18:21Z</time>
      </trkpt>
      <trkpt lat="45.91888" lon="4.73729">
        <ele>171</ele>
        <time>2017-03-25T09:18:22Z</time>
      </trkpt>
      <trkpt lat="45.91882" lon="4.73729">
        <ele>171</ele>
        <time>2017-03-25T09:18:23Z</time>
      </trkpt>
      <trkpt lat="45.91876" lon="4.73729">
        <ele>171</ele>
        <time>2017-03-25T09:18:24Z</time>
      </trkpt>
      <trkpt lat="45.9187" lon="4.73729">
        <ele>171</ele>
        <time>2017-03-25T09:18:25Z</time>
      </trkpt>
      <trkpt lat="45.91864" lon="4.73729">
        <ele>171</ele>
        <time>2017-03-25T09:18:26Z</time>
      </trkpt>
      <trkpt lat="45.91858" lon="4.73729">
        <ele>171</ele>
        <time>2017-03-25T09:18:27Z</time>
      </trkpt>
      <trkpt lat="45.91851" lon="4.73729">
        <ele>171</ele>
        <time>2017-03-25T09:18:28Z</time>
      </trkpt>
      <trkpt lat="45.91845" lon="4.73729">
        <ele>172</ele>
        <time>2017-03-25T09:18:29Z</time>
      </trkpt>
      <trkpt lat="45.91839" lon="4.73729">
        <ele>172</ele>
        <time>2017-03-25T09:18:30Z</time>
      </trkpt>
      <trkpt lat="45.91832" lon="4.73729">
        <ele>172</ele>
        <time>2017-03-25T09:18:31Z</time>
      </trkpt>
      <trkpt lat="45.91826" lon="4.73729">
        <ele>172</ele>
        <time>2017-03-25T09:18:32Z</time>
      </trkpt>
      <trkpt lat="45.9182" lon="4.73729">
        <ele>172</ele>
        <time>2017-03-25T09:18:33Z</time>
      </trkpt>
      <trkpt lat="45.91814" lon="4.73729">
        <ele>172</ele>
        <time>2017-03-25T09:18:34Z</time>
      </trkpt>
      <trkpt lat="45.91809" lon="4.73729">
        <ele>172</ele>
        <time>2017-03-25T09:18:35Z</time>
      </trkpt>
      <trkpt lat="45.91803" lon="4.73729">
        <ele>172</ele>
        <time>2017-03-25T09:18:36Z</time>
      </trkpt>
      <trkpt lat="45.91798" lon="4.7373">
        <ele>172</ele>
        <time>2017-03-25T09:18:37Z</time>
      </trkpt>
      <trkpt lat="45.91792" lon="4.7373">
        <ele>173</ele>
        <time>2017-03-25T09:18:38Z</time>
      </trkpt>
      <trkpt lat="45.91786" lon="4.7373">
        <ele>173</ele>
        <time>2017-03-25T09:18:39Z</time>
      </trkpt>
      <trkpt lat="45.9178" lon="4.7373">
        <ele>173</ele>
        <time>2017-03-25T09:18:40Z</time>
      </trkpt>
      <trkpt lat="45.91774" lon="4.7373">
        <ele>173</ele>
        <time>2017-03-25T09:18:41Z</time>
      </trkpt>
      <trkpt lat="45.91768" lon="4.7373">
        <ele>173</ele>
        <time>2017-03-25T09:18:42Z</time>
      </trkpt>
      <trkpt lat="45.91762" lon="4.7373">
        <ele>173</ele>
        <time>2017-03-25T09:18:43Z</time>
      </trkpt>
      <trkpt lat="45.91757" lon="4.7373">
        <ele>173</ele>
        <time>2017-03-25T09:18:44Z</time>
      </trkpt>
      <trkpt lat="45.91751" lon="4.7373">
        <ele>173</ele>
        <time>2017-03-25T09:18:45Z</time>
      </trkpt>
      <trkpt lat="45.91745" lon="4.7373">
        <ele>173</ele>
        <time>2017-03-25T09:18:46Z</time>
      </trkpt>
      <trkpt lat="45.9174" lon="4.7373">
        <ele>173</ele>
        <time>2017-03-25T09:18:47Z</time>
      </trkpt>
      <trkpt lat="45.91734" lon="4.7373">
        <ele>173</ele>
        <time>2017-03-25T09:18:48Z</time>
      </trkpt>
      <trkpt lat="45.91728" lon="4.7373">
        <ele>173</ele>
        <time>2017-03-25T09:18:49Z</time>
      </trkpt>
      <trkpt lat="45.91723" lon="4.7373">
        <ele>173</ele>
        <time>2017-03-25T09:18:50Z</time>
      </trkpt>
      <trkpt lat="45.91717" lon="4.7373">
        <ele>173</ele>
        <time>2017-03-25T09:18:51Z</time>
      </trkpt>
      <trkpt lat="45.91711" lon="4.7373">
        <ele>173</ele>
        <time>2017-03-25T09:18:52Z</time>
      </trkpt>
      <trkpt lat="45.91705" lon="4.7373">
        <ele>172</ele>
        <time>2017-03-25T09:18:53Z</time>
      </trkpt>
      <trkpt lat="45.91699" lon="4.7373">
        <ele>172</ele>
        <time>2017-03-25T09:18:54Z</time>
      </trkpt>
      <trkpt lat="45.91694" lon="4.7373">
        <ele>172</ele>
        <time>2017-03-25T09:18:55Z</time>
      </trkpt>
      <trkpt lat="45.91688" lon="4.7373">
        <ele>172</ele>
        <time>2017-03-25T09:18:56Z</time>
      </trkpt>
      <trkpt lat="45.91682" lon="4.73731">
        <ele>172</ele>
        <time>2017-03-25T09:18:57Z</time>
      </trkpt>
      <trkpt lat="45.91676" lon="4.73731">
        <ele>172</ele>
        <time>2017-03-25T09:18:58Z</time>
      </trkpt>
      <trkpt lat="45.9167" lon="4.73731">
        <ele>172</ele>
        <time>2017-03-25T09:18:59Z</time>
      </trkpt>
      <trkpt lat="45.91664" lon="4.73731">
        <ele>172</ele>
        <time>2017-03-25T09:19:00Z</time>
      </trkpt>
      <trkpt lat="45.91659" lon="4.73731">
        <ele>172</ele>
        <time>2017-03-25T09:19:01Z</time>
      </trkpt>
      <trkpt lat="45.91653" lon="4.73731">
        <ele>172</ele>
        <time>2017-03-25T09:19:02Z</time>
      </trkpt>
      <trkpt lat="45.91647" lon="4.73731">
        <ele>172</ele>
        <time>2017-03-25T09:19:03Z</time>
      </trkpt>
      <trkpt lat="45.91641" lon="4.73731">
        <ele>172</ele>
        <time>2017-03-25T09:19:04Z</time>
      </trkpt>
      <trkpt lat="45.91636" lon="4.73731">
        <ele>172</ele>
        <time>2017-03-25T09:19:05Z</time>
      </trkpt>
      <trkpt lat="45.9163" lon="4.73732">
        <ele>172</ele>
        <time>2017-03-25T09:19:06Z</time>
      </trkpt>
      <trkpt lat="45.91624" lon="4.73732">
        <ele>173</ele>
        <time>2017-03-25T09:19:07Z</time>
      </trkpt>
      <trkpt lat="45.91618" lon="4.73732">
        <ele>173</ele>
        <time>2017-03-25T09:19:08Z</time>
      </trkpt>
      <trkpt lat="45.91612" lon="4.73732">
        <ele>173</ele>
        <time>2017-03-25T09:19:09Z</time>
      </trkpt>
      <trkpt lat="45.91607" lon="4.73732">
        <ele>173</ele>
        <time>2017-03-25T09:19:10Z</time>
      </trkpt>
      <trkpt lat="45.91601" lon="4.73732">
        <ele>173</ele>
        <time>2017-03-25T09:19:11Z</time>
      </trkpt>
      <trkpt lat="45.91595" lon="4.73732">
        <ele>173</ele>
        <time>2017-03-25T09:19:12Z</time>
      </trkpt>
      <trkpt lat="45.91589" lon="4.73732">
        <ele>173</ele>
        <time>2017-03-25T09:19:13Z</time>
      </trkpt>
      <trkpt lat="45.91583" lon="4.73732">
        <ele>173</ele>
        <time>2017-03-25T09:19:14Z</time>
      </trkpt>
      <trkpt lat="45.91577" lon="4.73732">
        <ele>173</ele>
        <time>2017-03-25T09:19:15Z</time>
      </trkpt>
      <trkpt lat="45.91571" lon="4.73732">
        <ele>173</ele>
        <time>2017-03-25T09:19:16Z</time>
      </trkpt>
      <trkpt lat="45.91565" lon="4.73732">
        <ele>173</ele>
        <time>2017-03-25T09:19:17Z</time>
      </trkpt>
      <trkpt lat="45.91559" lon="4.73732">
        <ele>174</ele>
        <time>2017-03-25T09:19:18Z</time>
      </trkpt>
      <trkpt lat="45.91553" lon="4.73732">
        <ele>174</ele>
        <time>2017-03-25T09:19:19Z</time>
      </trkpt>
      <trkpt lat="45.91547" lon="4.73733">
        <ele>174</ele>
        <time>2017-03-25T09:19:20Z</time>
      </trkpt>
      <trkpt lat="45.91541" lon="4.73733">
        <ele>174</ele>
        <time>2017-03-25T09:19:21Z</time>
      </trkpt>
      <trkpt lat="45.91535" lon="4.73733">
        <ele>174</ele>
        <time>2017-03-25T09:19:22Z</time>
      </trkpt>
      <trkpt lat="45.9153" lon="4.73733">
        <ele>174</ele>
        <time>2017-03-25T09:19:23Z</time>
      </trkpt>
      <trkpt lat="45.91524" lon="4.73733">
        <ele>174</ele>
        <time>2017-03-25T09:19:24Z</time>
      </trkpt>
      <trkpt lat="45.91518" lon="4.73733">
        <ele>174</ele>
        <time>2017-03-25T09:19:25Z</time>
      </trkpt>
      <trkpt lat="45.91512" lon="4.73733">
        <ele>174</ele>
        <time>2017-03-25T09:19:26Z</time>
      </trkpt>
      <trkpt lat="45.91507" lon="4.73732">
        <ele>174</ele>
        <time>2017-03-25T09:19:27Z</time>
      </trkpt>
      <trkpt lat="45.91501" lon="4.73733">
        <ele>174</ele>
        <time>2017-03-25T09:19:28Z</time>
      </trkpt>
      <trkpt lat="45.91495" lon="4.73733">
        <ele>174</ele>
        <time>2017-03-25T09:19:29Z</time>
      </trkpt>
      <trkpt lat="45.9149" lon="4.73733">
        <ele>174</ele>
        <time>2017-03-25T09:19:30Z</time>
      </trkpt>
      <trkpt lat="45.91484" lon="4.73734">
        <ele>174</ele>
        <time>2017-03-25T09:19:31Z</time>
      </trkpt>
      <trkpt lat="45.91479" lon="4.73734">
        <ele>174</ele>
        <time>2017-03-25T09:19:32Z</time>
      </trkpt>
      <trkpt lat="45.91473" lon="4.73734">
        <ele>174</ele>
        <time>2017-03-25T09:19:33Z</time>
      </trkpt>
      <trkpt lat="45.91467" lon="4.73734">
        <ele>174</ele>
        <time>2017-03-25T09:19:34Z</time>
      </trkpt>
      <trkpt lat="45.91462" lon="4.73734">
        <ele>174</ele>
        <time>2017-03-25T09:19:35Z</time>
      </trkpt>
      <trkpt lat="45.91456" lon="4.73734">
        <ele>174</ele>
        <time>2017-03-25T09:19:36Z</time>
      </trkpt>
      <trkpt lat="45.9145" lon="4.73734">
        <ele>173</ele>
        <time>2017-03-25T09:19:37Z</time>
      </trkpt>
      <trkpt lat="45.91444" lon="4.73734">
        <ele>173</ele>
        <time>2017-03-25T09:19:38Z</time>
      </trkpt>
      <trkpt lat="45.91438" lon="4.73734">
        <ele>173</ele>
        <time>2017-03-25T09:19:39Z</time>
      </trkpt>
      <trkpt lat="45.91432" lon="4.73735">
        <ele>173</ele>
        <time>2017-03-25T09:19:40Z</time>
      </trkpt>
      <trkpt lat="45.91426" lon="4.73735">
        <ele>173</ele>
        <time>2017-03-25T09:19:41Z</time>
      </trkpt>
      <trkpt lat="45.91421" lon="4.73735">
        <ele>173</ele>
        <time>2017-03-25T09:19:42Z</time>
      </trkpt>
      <trkpt lat="45.91415" lon="4.73735">
        <ele>173</ele>
        <time>2017-03-25T09:19:43Z</time>
      </trkpt>
      <trkpt lat="45.91409" lon="4.73735">
        <ele>173</ele>
        <time>2017-03-25T09:19:44Z</time>
      </trkpt>
      <trkpt lat="45.91403" lon="4.73735">
        <ele>173</ele>
        <time>2017-03-25T09:19:45Z</time>
      </trkpt>
      <trkpt lat="45.91397" lon="4.73735">
        <ele>173</ele>
        <time>2017-03-25T09:19:46Z</time>
      </trkpt>
      <trkpt lat="45.91391" lon="4.73735">
        <ele>173</ele>
        <time>2017-03-25T09:19:47Z</time>
      </trkpt>
      <trkpt lat="45.91385" lon="4.73735">
        <ele>173</ele>
        <time>2017-03-25T09:19:48Z</time>
      </trkpt>
      <trkpt lat="45.91379" lon="4.73735">
        <ele>173</ele>
        <time>2017-03-25T09:19:49Z</time>
      </trkpt>
      <trkpt lat="45.91373" lon="4.73735">
        <ele>173</ele>
        <time>2017-03-25T09:19:50Z</time>
      </trkpt>
      <trkpt lat="45.91367" lon="4.73735">
        <ele>173</ele>
        <time>2017-03-25T09:19:51Z</time>
      </trkpt>
      <trkpt lat="45.91361" lon="4.73734">
        <ele>173</ele>
        <time>2017-03-25T09:19:52Z</time>
      </trkpt>
      <trkpt lat="45.91355" lon="4.73734">
        <ele>173</ele>
        <time>2017-03-25T09:19:53Z</time>
      </trkpt>
      <trkpt lat="45.9135" lon="4.73734">
        <ele>173</ele>
        <time>2017-03-25T09:19:54Z</time>
      </trkpt>
      <trkpt lat="45.91344" lon="4.73735">
        <ele>173</ele>
        <time>2017-03-25T09:19:55Z</time>
      </trkpt>
      <trkpt lat="45.91338" lon="4.73735">
        <ele>173</ele>
        <time>2017-03-25T09:19:56Z</time>
      </trkpt>
      <trkpt lat="45.91332" lon="4.73735">
        <ele>173</ele>
        <time>2017-03-25T09:19:57Z</time>
      </trkpt>
      <trkpt lat="45.91326" lon="4.73736">
        <ele>174</ele>
        <time>2017-03-25T09:19:58Z</time>
      </trkpt>
      <trkpt lat="45.9132" lon="4.73736">
        <ele>174</ele>
        <time>2017-03-25T09:19:59Z</time>
      </trkpt>
      <trkpt lat="45.91313" lon="4.73736">
        <ele>174</ele>
        <time>2017-03-25T09:20:00Z</time>
      </trkpt>
      <trkpt lat="45.91307" lon="4.73736">
        <ele>174</ele>
        <time>2017-03-25T09:20:01Z</time>
      </trkpt>
      <trkpt lat="45.91301" lon="4.73736">
        <ele>174</ele>
        <time>2017-03-25T09:20:02Z</time>
      </trkpt>
      <trkpt lat="45.91295" lon="4.73736">
        <ele>174</ele>
        <time>2017-03-25T09:20:03Z</time>
      </trkpt>
      <trkpt lat="45.91288" lon="4.73736">
        <ele>174</ele>
        <time>2017-03-25T09:20:04Z</time>
      </trkpt>
      <trkpt lat="45.91282" lon="4.73737">
        <ele>174</ele>
        <time>2017-03-25T09:20:05Z</time>
      </trkpt>
      <trkpt lat="45.91276" lon="4.73737">
        <ele>174</ele>
        <time>2017-03-25T09:20:06Z</time>
      </trkpt>
      <trkpt lat="45.9127" lon="4.73737">
        <ele>174</ele>
        <time>2017-03-25T09:20:07Z</time>
      </trkpt>
      <trkpt lat="45.91264" lon="4.73737">
        <ele>174</ele>
        <time>2017-03-25T09:20:08Z</time>
      </trkpt>
      <trkpt lat="45.91259" lon="4.73737">
        <ele>175</ele>
        <time>2017-03-25T09:20:09Z</time>
      </trkpt>
      <trkpt lat="45.91253" lon="4.73737">
        <ele>175</ele>
        <time>2017-03-25T09:20:10Z</time>
      </trkpt>
      <trkpt lat="45.91247" lon="4.73737">
        <ele>175</ele>
        <time>2017-03-25T09:20:11Z</time>
      </trkpt>
      <trkpt lat="45.91242" lon="4.73738">
        <ele>175</ele>
        <time>2017-03-25T09:20:12Z</time>
      </trkpt>
      <trkpt lat="45.91236" lon="4.73738">
        <ele>175</ele>
        <time>2017-03-25T09:20:13Z</time>
      </trkpt>
      <trkpt lat="45.91231" lon="4.73738">
        <ele>175</ele>
        <time>2017-03-25T09:20:14Z</time>
      </trkpt>
      <trkpt lat="45.91225" lon="4.73738">
        <ele>175</ele>
        <time>2017-03-25T09:20:15Z</time>
      </trkpt>
      <trkpt lat="45.91219" lon="4.73739">
        <ele>175</ele>
        <time>2017-03-25T09:20:16Z</time>
      </trkpt>
      <trkpt lat="45.91213" lon="4.73739">
        <ele>175</ele>
        <time>2017-03-25T09:20:17Z</time>
      </trkpt>
      <trkpt lat="45.91207" lon="4.73739">
        <ele>175</ele>
        <time>2017-03-25T09:20:18Z</time>
      </trkpt>
      <trkpt lat="45.91202" lon="4.73738">
        <ele>175</ele>
        <time>2017-03-25T09:20:19Z</time>
      </trkpt>
      <trkpt lat="45.91196" lon="4.73737">
        <ele>175</ele>
        <time>2017-03-25T09:20:20Z</time>
      </trkpt>
      <trkpt lat="45.9119" lon="4.73736">
        <ele>175</ele>
        <time>2017-03-25T09:20:21Z</time>
      </trkpt>
      <trkpt lat="45.91184" lon="4.73734">
        <ele>175</ele>
        <time>2017-03-25T09:20:22Z</time>
      </trkpt>
      <trkpt lat="45.91179" lon="4.73733">
        <ele>175</ele>
        <time>2017-03-25T09:20:23Z</time>
      </trkpt>
      <trkpt lat="45.91174" lon="4.73731">
        <ele>175</ele>
        <time>2017-03-25T09:20:24Z</time>
      </trkpt>
      <trkpt lat="45.91168" lon="4.73729">
        <ele>175</ele>
        <time>2017-03-25T09:20:25Z</time>
      </trkpt>
      <trkpt lat="45.91162" lon="4.73728">
        <ele>175</ele>
        <time>2017-03-25T09:20:26Z</time>
      </trkpt>
      <trkpt lat="45.91156" lon="4.73726">
        <ele>175</ele>
        <time>2017-03-25T09:20:27Z</time>
      </trkpt>
      <trkpt lat="45.91151" lon="4.73725">
        <ele>175</ele>
        <time>2017-03-25T09:20:28Z</time>
      </trkpt>
      <trkpt lat="45.91147" lon="4.73721">
        <ele>174</ele>
        <time>2017-03-25T09:20:29Z</time>
      </trkpt>
      <trkpt lat="45.91144" lon="4.73716">
        <ele>174</ele>
        <time>2017-03-25T09:20:30Z</time>
      </trkpt>
      <trkpt lat="45.91141" lon="4.7371">
        <ele>174</ele>
        <time>2017-03-25T09:20:31Z</time>
      </trkpt>
      <trkpt lat="45.91139" lon="4.73704">
        <ele>174</ele>
        <time>2017-03-25T09:20:32Z</time>
      </trkpt>
      <trkpt lat="45.91136" lon="4.73698">
        <ele>174</ele>
        <time>2017-03-25T09:20:33Z</time>
      </trkpt>
      <trkpt lat="45.91134" lon="4.73691">
        <ele>174</ele>
        <time>2017-03-25T09:20:34Z</time>
      </trkpt>
      <trkpt lat="45.91131" lon="4.73685">
        <ele>174</ele>
        <time>2017-03-25T09:20:35Z</time>
      </trkpt>
      <trkpt lat="45.91129" lon="4.73678">
        <ele>174</ele>
        <time>2017-03-25T09:20:36Z</time>
      </trkpt>
      <trkpt lat="45.91126" lon="4.73672">
        <ele>174</ele>
        <time>2017-03-25T09:20:37Z</time>
      </trkpt>
      <trkpt lat="45.91123" lon="4.73665">
        <ele>174</ele>
        <time>2017-03-25T09:20:38Z</time>
      </trkpt>
      <trkpt lat="45.9112" lon="4.73658">
        <ele>174</ele>
        <time>2017-03-25T09:20:39Z</time>
      </trkpt>
      <trkpt lat="45.91117" lon="4.73651">
        <ele>174</ele>
        <time>2017-03-25T09:20:40Z</time>
      </trkpt>
      <trkpt lat="45.91114" lon="4.73644">
        <ele>174</ele>
        <time>2017-03-25T09:20:41Z</time>
      </trkpt>
      <trkpt lat="45.91111" lon="4.73638">
        <ele>174</ele>
        <time>2017-03-25T09:20:42Z</time>
      </trkpt>
      <trkpt lat="45.91108" lon="4.73631">
        <ele>174</ele>
        <time>2017-03-25T09:20:43Z</time>
      </trkpt>
      <trkpt lat="45.91105" lon="4.73624">
        <ele>174</ele>
        <time>2017-03-25T09:20:44Z</time>
      </trkpt>
      <trkpt lat="45.91102" lon="4.73618">
        <ele>174</ele>
        <time>2017-03-25T09:20:45Z</time>
      </trkpt>
      <trkpt lat="45.91099" lon="4.73611">
        <ele>174</ele>
        <time>2017-03-25T09:20:46Z</time>
      </trkpt>
      <trkpt lat="45.91096" lon="4.73604">
        <ele>174</ele>
        <time>2017-03-25T09:20:47Z</time>
      </trkpt>
      <trkpt lat="45.91093" lon="4.73597">
        <ele>174</ele>
        <time>2017-03-25T09:20:48Z</time>
      </trkpt>
      <trkpt lat="45.9109" lon="4.7359">
        <ele>174</ele>
        <time>2017-03-25T09:20:49Z</time>
      </trkpt>
      <trkpt lat="45.91087" lon="4.73584">
        <ele>174</ele>
        <time>2017-03-25T09:20:50Z</time>
      </trkpt>
      <trkpt lat="45.91084" lon="4.73577">
        <ele>174</ele>
        <time>2017-03-25T09:20:51Z</time>
      </trkpt>
      <trkpt lat="45.91081" lon="4.73571">
        <ele>174</ele>
        <time>2017-03-25T09:20:52Z</time>
      </trkpt>
      <trkpt lat="45.91079" lon="4.73564">
        <ele>174</ele>
        <time>2017-03-25T09:20:53Z</time>
      </trkpt>
      <trkpt lat="45.91076" lon="4.73558">
        <ele>174</ele>
        <time>2017-03-25T09:20:54Z</time>
      </trkpt>
      <trkpt lat="45.91073" lon="4.73551">
        <ele>174</ele>
        <time>2017-03-25T09:20:55Z</time>
      </trkpt>
      <trkpt lat="45.9107" lon="4.73545">
        <ele>174</ele>
        <time>2017-03-25T09:20:56Z</time>
      </trkpt>
      <trkpt lat="45.91067" lon="4.73538">
        <ele>175</ele>
        <time>2017-03-25T09:20:57Z</time>
      </trkpt>
      <trkpt lat="45.91064" lon="4.73531">
        <ele>175</ele>
        <time>2017-03-25T09:20:58Z</time>
      </trkpt>
      <trkpt lat="45.91061" lon="4.73525">
        <ele>175</ele>
        <time>2017-03-25T09:20:59Z</time>
      </trkpt>
      <trkpt lat="45.91058" lon="4.73518">
        <ele>175</ele>
        <time>2017-03-25T09:21:00Z</time>
      </trkpt>
      <trkpt lat="45.91055" lon="4.73511">
        <ele>175</ele>
        <time>2017-03-25T09:21:01Z</time>
      </trkpt>
      <trkpt lat="45.91052" lon="4.73504">
        <ele>175</ele>
        <time>2017-03-25T09:21:02Z</time>
      </trkpt>
      <trkpt lat="45.91049" lon="4.73497">
        <ele>175</ele>
        <time>2017-03-25T09:21:03Z</time>
      </trkpt>
      <trkpt lat="45.91046" lon="4.7349">
        <ele>175</ele>
        <time>2017-03-25T09:21:04Z</time>
      </trkpt>
      <trkpt lat="45.91042" lon="4.73484">
        <ele>175</ele>
        <time>2017-03-25T09:21:05Z</time>
      </trkpt>
      <trkpt lat="45.91039" lon="4.73477">
        <ele>175</ele>
        <time>2017-03-25T09:21:06Z</time>
      </trkpt>
      <trkpt lat="45.91037" lon="4.7347">
        <ele>175</ele>
        <time>2017-03-25T09:21:07Z</time>
      </trkpt>
      <trkpt lat="45.91035" lon="4.73463">
        <ele>175</ele>
        <time>2017-03-25T09:21:08Z</time>
      </trkpt>
      <trkpt lat="45.91034" lon="4.73456">
        <ele>175</ele>
        <time>2017-03-25T09:21:09Z</time>
      </trkpt>
      <trkpt lat="45.91033" lon="4.73449">
        <ele>175</ele>
        <time>2017-03-25T09:21:10Z</time>
      </trkpt>
      <trkpt lat="45.91033" lon="4.73442">
        <ele>175</ele>
        <time>2017-03-25T09:21:11Z</time>
      </trkpt>
      <trkpt lat="45.91033" lon="4.73435">
        <ele>175</ele>
        <time>2017-03-25T09:21:12Z</time>
      </trkpt>
      <trkpt lat="45.91031" lon="4.73428">
        <ele>175</ele>
        <time>2017-03-25T09:21:13Z</time>
      </trkpt>
      <trkpt lat="45.91029" lon="4.73421">
        <ele>175</ele>
        <time>2017-03-25T09:21:14Z</time>
      </trkpt>
      <trkpt lat="45.91025" lon="4.73416">
        <ele>174</ele>
        <time>2017-03-25T09:21:15Z</time>
      </trkpt>
      <trkpt lat="45.9102" lon="4.73413">
        <ele>174</ele>
        <time>2017-03-25T09:21:16Z</time>
      </trkpt>
      <trkpt lat="45.91014" lon="4.73414">
        <ele>175</ele>
        <time>2017-03-25T09:21:17Z</time>
      </trkpt>
      <trkpt lat="45.91009" lon="4.73417">
        <ele>175</ele>
        <time>2017-03-25T09:21:18Z</time>
      </trkpt>
      <trkpt lat="45.91004" lon="4.73422">
        <ele>175</ele>
        <time>2017-03-25T09:21:19Z</time>
      </trkpt>
      <trkpt lat="45.91" lon="4.73428">
        <ele>175</ele>
        <time>2017-03-25T09:21:20Z</time>
      </trkpt>
      <trkpt lat="45.90996" lon="4.73433">
        <ele>175</ele>
        <time>2017-03-25T09:21:21Z</time>
      </trkpt>
      <trkpt lat="45.90991" lon="4.73437">
        <ele>175</ele>
        <time>2017-03-25T09:21:22Z</time>
      </trkpt>
      <trkpt lat="45.90986" lon="4.7344">
        <ele>175</ele>
        <time>2017-03-25T09:21:23Z</time>
      </trkpt>
      <trkpt lat="45.9098" lon="4.73443">
        <ele>175</ele>
        <time>2017-03-25T09:21:24Z</time>
      </trkpt>
      <trkpt lat="45.90975" lon="4.73446">
        <ele>175</ele>
        <time>2017-03-25T09:21:25Z</time>
      </trkpt>
      <trkpt lat="45.9097" lon="4.73448">
        <ele>175</ele>
        <time>2017-03-25T09:21:26Z</time>
      </trkpt>
      <trkpt lat="45.90965" lon="4.73451">
        <ele>175</ele>
        <time>2017-03-25T09:21:27Z</time>
      </trkpt>
      <trkpt lat="45.9096" lon="4.73453">
        <ele>175</ele>
        <time>2017-03-25T09:21:28Z</time>
      </trkpt>
      <trkpt lat="45.90955" lon="4.73455">
        <ele>175</ele>
        <time>2017-03-25T09:21:29Z</time>
      </trkpt>
      <trkpt lat="45.9095" lon="4.73458">
        <ele>175</ele>
        <time>2017-03-25T09:21:30Z</time>
      </trkpt>
      <trkpt lat="45.90945" lon="4.7346">
        <ele>175</ele>
        <time>2017-03-25T09:21:31Z</time>
      </trkpt>
      <trkpt lat="45.90939" lon="4.73462">
        <ele>175</ele>
        <time>2017-03-25T09:21:32Z</time>
      </trkpt>
      <trkpt lat="45.90934" lon="4.73463">
        <ele>175</ele>
        <time>2017-03-25T09:21:33Z</time>
      </trkpt>
      <trkpt lat="45.90928" lon="4.73465">
        <ele>175</ele>
        <time>2017-03-25T09:21:34Z</time>
      </trkpt>
      <trkpt lat="45.90923" lon="4.73467">
        <ele>175</ele>
        <time>2017-03-25T09:21:35Z</time>
      </trkpt>
      <trkpt lat="45.90918" lon="4.7347">
        <ele>175</ele>
        <time>2017-03-25T09:21:36Z</time>
      </trkpt>
      <trkpt lat="45.90912" lon="4.73473">
        <ele>175</ele>
        <time>2017-03-25T09:21:37Z</time>
      </trkpt>
      <trkpt lat="45.90907" lon="4.73475">
        <ele>175</ele>
        <time>2017-03-25T09:21:38Z</time>
      </trkpt>
      <trkpt lat="45.90901" lon="4.73478">
        <ele>175</ele>
        <time>2017-03-25T09:21:39Z</time>
      </trkpt>
      <trkpt lat="45.90896" lon="4.7348">
        <ele>175</ele>
        <time>2017-03-25T09:21:40Z</time>
      </trkpt>
      <trkpt lat="45.9089" lon="4.73482">
        <ele>175</ele>
        <time>2017-03-25T09:21:41Z</time>
      </trkpt>
      <trkpt lat="45.90884" lon="4.73484">
        <ele>175</ele>
        <time>2017-03-25T09:21:42Z</time>
      </trkpt>
      <trkpt lat="45.90878" lon="4.73486">
        <ele>175</ele>
        <time>2017-03-25T09:21:43Z</time>
      </trkpt>
      <trkpt lat="45.90872" lon="4.73489">
        <ele>175</ele>
        <time>2017-03-25T09:21:44Z</time>
      </trkpt>
      <trkpt lat="45.90866" lon="4.73491">
        <ele>175</ele>
        <time>2017-03-25T09:21:45Z</time>
      </trkpt>
      <trkpt lat="45.9086" lon="4.73493">
        <ele>175</ele>
        <time>2017-03-25T09:21:46Z</time>
      </trkpt>
      <trkpt lat="45.90855" lon="4.73496">
        <ele>174</ele>
        <time>2017-03-25T09:21:47Z</time>
      </trkpt>
      <trkpt lat="45.9085" lon="4.73498">
        <ele>174</ele>
        <time>2017-03-25T09:21:48Z</time>
      </trkpt>
      <trkpt lat="45.90845" lon="4.735">
        <ele>174</ele>
        <time>2017-03-25T09:21:49Z</time>
      </trkpt>
      <trkpt lat="45.90839" lon="4.73502">
        <ele>174</ele>
        <time>2017-03-25T09:21:50Z</time>
      </trkpt>
      <trkpt lat="45.90833" lon="4.73505">
        <ele>174</ele>
        <time>2017-03-25T09:21:51Z</time>
      </trkpt>
      <trkpt lat="45.90827" lon="4.73507">
        <ele>175</ele>
        <time>2017-03-25T09:21:52Z</time>
      </trkpt>
      <trkpt lat="45.90822" lon="4.7351">
        <ele>175</ele>
        <time>2017-03-25T09:21:53Z</time>
      </trkpt>
      <trkpt lat="45.90816" lon="4.73513">
        <ele>175</ele>
        <time>2017-03-25T09:21:54Z</time>
      </trkpt>
      <trkpt lat="45.9081" lon="4.73515">
        <ele>175</ele>
        <time>2017-03-25T09:21:55Z</time>
      </trkpt>
      <trkpt lat="45.90804" lon="4.73518">
        <ele>175</ele>
        <time>2017-03-25T09:21:56Z</time>
      </trkpt>
      <trkpt lat="45.90798" lon="4.73521">
        <ele>175</ele>
        <time>2017-03-25T09:21:57Z</time>
      </trkpt>
      <trkpt lat="45.90793" lon="4.73523">
        <ele>175</ele>
        <time>2017-03-25T09:21:58Z</time>
      </trkpt>
      <trkpt lat="45.90787" lon="4.73525">
        <ele>176</ele>
        <time>2017-03-25T09:21:59Z</time>
      </trkpt>
      <trkpt lat="45.90781" lon="4.73528">
        <ele>176</ele>
        <time>2017-03-25T09:22:00Z</time>
      </trkpt>
      <trkpt lat="45.90776" lon="4.7353">
        <ele>176</ele>
        <time>2017-03-25T09:22:01Z</time>
      </trkpt>
      <trkpt lat="45.9077" lon="4.73533">
        <ele>176</ele>
        <time>2017-03-25T09:22:02Z</time>
      </trkpt>
      <trkpt lat="45.90764" lon="4.73535">
        <ele>176</ele>
        <time>2017-03-25T09:22:03Z</time>
      </trkpt>
      <trkpt lat="45.90759" lon="4.73538">
        <ele>176</ele>
        <time>2017-03-25T09:22:04Z</time>
      </trkpt>
      <trkpt lat="45.90753" lon="4.73541">
        <ele>176</ele>
        <time>2017-03-25T09:22:05Z</time>
      </trkpt>
      <trkpt lat="45.90748" lon="4.73543">
        <ele>177</ele>
        <time>2017-03-25T09:22:06Z</time>
      </trkpt>
      <trkpt lat="45.90742" lon="4.73546">
        <ele>177</ele>
        <time>2017-03-25T09:22:07Z</time>
      </trkpt>
      <trkpt lat="45.90737" lon="4.73548">
        <ele>178</ele>
        <time>2017-03-25T09:22:08Z</time>
      </trkpt>
      <trkpt lat="45.90731" lon="4.73551">
        <ele>178</ele>
        <time>2017-03-25T09:22:09Z</time>
      </trkpt>
      <trkpt lat="45.90725" lon="4.73553">
        <ele>178</ele>
        <time>2017-03-25T09:22:10Z</time>
      </trkpt>
      <trkpt lat="45.9072" lon="4.73555">
        <ele>178</ele>
        <time>2017-03-25T09:22:11Z</time>
      </trkpt>
      <trkpt lat="45.90715" lon="4.73558">
        <ele>178</ele>
        <time>2017-03-25T09:22:12Z</time>
      </trkpt>
      <trkpt lat="45.9071" lon="4.7356">
        <ele>178</ele>
        <time>2017-03-25T09:22:13Z</time>
      </trkpt>
      <trkpt lat="45.90705" lon="4.73563">
        <ele>178</ele>
        <time>2017-03-25T09:22:14Z</time>
      </trkpt>
      <trkpt lat="45.907" lon="4.73565">
        <ele>178</ele>
        <time>2017-03-25T09:22:15Z</time>
      </trkpt>
      <trkpt lat="45.90695" lon="4.73567">
        <ele>178</ele>
        <time>2017-03-25T09:22:16Z</time>
      </trkpt>
      <trkpt lat="45.9069" lon="4.73569">
        <ele>178</ele>
        <time>2017-03-25T09:22:17Z</time>
      </trkpt>
      <trkpt lat="45.90685" lon="4.73571">
        <ele>179</ele>
        <time>2017-03-25T09:22:18Z</time>
      </trkpt>
      <trkpt lat="45.9068" lon="4.73573">
        <ele>179</ele>
        <time>2017-03-25T09:22:19Z</time>
      </trkpt>
      <trkpt lat="45.90675" lon="4.73576">
        <ele>179</ele>
        <time>2017-03-25T09:22:20Z</time>
      </trkpt>
      <trkpt lat="45.9067" lon="4.73578">
        <ele>179</ele>
        <time>2017-03-25T09:22:21Z</time>
      </trkpt>
      <trkpt lat="45.90665" lon="4.7358">
        <ele>180</ele>
        <time>2017-03-25T09:22:22Z</time>
      </trkpt>
      <trkpt lat="45.9066" lon="4.73582">
        <ele>179</ele>
        <time>2017-03-25T09:22:23Z</time>
      </trkpt>
      <trkpt lat="45.90656" lon="4.73584">
        <ele>180</ele>
        <time>2017-03-25T09:22:24Z</time>
      </trkpt>
      <trkpt lat="45.90651" lon="4.73586">
        <ele>181</ele>
        <time>2017-03-25T09:22:25Z</time>
      </trkpt>
      <trkpt lat="45.90647" lon="4.73588">
        <ele>181</ele>
        <time>2017-03-25T09:22:26Z</time>
      </trkpt>
      <trkpt lat="45.90642" lon="4.7359">
        <ele>181</ele>
        <time>2017-03-25T09:22:27Z</time>
      </trkpt>
      <trkpt lat="45.90638" lon="4.73592">
        <ele>181</ele>
        <time>2017-03-25T09:22:28Z</time>
      </trkpt>
      <trkpt lat="45.90633" lon="4.73594">
        <ele>181</ele>
        <time>2017-03-25T09:22:29Z</time>
      </trkpt>
      <trkpt lat="45.90629" lon="4.73596">
        <ele>181</ele>
        <time>2017-03-25T09:22:30Z</time>
      </trkpt>
      <trkpt lat="45.90624" lon="4.73597">
        <ele>181</ele>
        <time>2017-03-25T09:22:31Z</time>
      </trkpt>
      <trkpt lat="45.90619" lon="4.73599">
        <ele>180</ele>
        <time>2017-03-25T09:22:32Z</time>
      </trkpt>
      <trkpt lat="45.90614" lon="4.736">
        <ele>180</ele>
        <time>2017-03-25T09:22:33Z</time>
      </trkpt>
      <trkpt lat="45.9061" lon="4.73602">
        <ele>180</ele>
        <time>2017-03-25T09:22:34Z</time>
      </trkpt>
      <trkpt lat="45.90605" lon="4.73604">
        <ele>180</ele>
        <time>2017-03-25T09:22:35Z</time>
      </trkpt>
      <trkpt lat="45.90601" lon="4.73606">
        <ele>180</ele>
        <time>2017-03-25T09:22:36Z</time>
      </trkpt>
      <trkpt lat="45.90596" lon="4.73608">
        <ele>180</ele>
        <time>2017-03-25T09:22:37Z</time>
      </trkpt>
      <trkpt lat="45.90592" lon="4.7361">
        <ele>180</ele>
        <time>2017-03-25T09:22:38Z</time>
      </trkpt>
      <trkpt lat="45.90587" lon="4.73612">
        <ele>180</ele>
        <time>2017-03-25T09:22:39Z</time>
      </trkpt>
      <trkpt lat="45.90583" lon="4.73614">
        <ele>178</ele>
        <time>2017-03-25T09:22:40Z</time>
      </trkpt>
      <trkpt lat="45.90578" lon="4.73616">
        <ele>178</ele>
        <time>2017-03-25T09:22:41Z</time>
      </trkpt>
      <trkpt lat="45.90574" lon="4.73617">
        <ele>179</ele>
        <time>2017-03-25T09:22:42Z</time>
      </trkpt>
      <trkpt lat="45.90569" lon="4.73619">
        <ele>179</ele>
        <time>2017-03-25T09:22:43Z</time>
      </trkpt>
      <trkpt lat="45.90565" lon="4.73621">
        <ele>178</ele>
        <time>2017-03-25T09:22:44Z</time>
      </trkpt>
      <trkpt lat="45.9056" lon="4.73623">
        <ele>178</ele>
        <time>2017-03-25T09:22:45Z</time>
      </trkpt>
      <trkpt lat="45.90555" lon="4.73625">
        <ele>178</ele>
        <time>2017-03-25T09:22:46Z</time>
      </trkpt>
      <trkpt lat="45.90551" lon="4.73627">
        <ele>178</ele>
        <time>2017-03-25T09:22:47Z</time>
      </trkpt>
      <trkpt lat="45.90546" lon="4.73629">
        <ele>178</ele>
        <time>2017-03-25T09:22:48Z</time>
      </trkpt>
      <trkpt lat="45.90542" lon="4.73631">
        <ele>178</ele>
        <time>2017-03-25T09:22:49Z</time>
      </trkpt>
      <trkpt lat="45.90537" lon="4.73633">
        <ele>178</ele>
        <time>2017-03-25T09:22:50Z</time>
      </trkpt>
      <trkpt lat="45.90532" lon="4.73636">
        <ele>178</ele>
        <time>2017-03-25T09:22:51Z</time>
      </trkpt>
      <trkpt lat="45.90527" lon="4.73638">
        <ele>178</ele>
        <time>2017-03-25T09:22:52Z</time>
      </trkpt>
      <trkpt lat="45.90522" lon="4.7364">
        <ele>178</ele>
        <time>2017-03-25T09:22:53Z</time>
      </trkpt>
      <trkpt lat="45.90517" lon="4.73642">
        <ele>178</ele>
        <time>2017-03-25T09:22:54Z</time>
      </trkpt>
      <trkpt lat="45.90512" lon="4.73644">
        <ele>178</ele>
        <time>2017-03-25T09:22:55Z</time>
      </trkpt>
      <trkpt lat="45.90507" lon="4.73646">
        <ele>178</ele>
        <time>2017-03-25T09:22:56Z</time>
      </trkpt>
      <trkpt lat="45.90502" lon="4.73648">
        <ele>178</ele>
        <time>2017-03-25T09:22:57Z</time>
      </trkpt>
      <trkpt lat="45.90497" lon="4.7365">
        <ele>177</ele>
        <time>2017-03-25T09:22:58Z</time>
      </trkpt>
      <trkpt lat="45.90492" lon="4.73652">
        <ele>177</ele>
        <time>2017-03-25T09:22:59Z</time>
      </trkpt>
      <trkpt lat="45.90487" lon="4.73654">
        <ele>177</ele>
        <time>2017-03-25T09:23:00Z</time>
      </trkpt>
      <trkpt lat="45.90482" lon="4.73656">
        <ele>177</ele>
        <time>2017-03-25T09:23:01Z</time>
      </trkpt>
      <trkpt lat="45.90477" lon="4.73658">
        <ele>177</ele>
        <time>2017-03-25T09:23:02Z</time>
      </trkpt>
      <trkpt lat="45.90472" lon="4.7366">
        <ele>177</ele>
        <time>2017-03-25T09:23:03Z</time>
      </trkpt>
      <trkpt lat="45.90467" lon="4.73662">
        <ele>177</ele>
        <time>2017-03-25T09:23:04Z</time>
      </trkpt>
      <trkpt lat="45.90462" lon="4.73664">
        <ele>177</ele>
        <time>2017-03-25T09:23:05Z</time>
      </trkpt>
      <trkpt lat="45.90456" lon="4.73666">
        <ele>177</ele>
        <time>2017-03-25T09:23:06Z</time>
      </trkpt>
      <trkpt lat="45.90451" lon="4.73668">
        <ele>176</ele>
        <time>2017-03-25T09:23:07Z</time>
      </trkpt>
      <trkpt lat="45.90445" lon="4.73671">
        <ele>176</ele>
        <time>2017-03-25T09:23:08Z</time>
      </trkpt>
      <trkpt lat="45.9044" lon="4.73673">
        <ele>176</ele>
        <time>2017-03-25T09:23:09Z</time>
      </trkpt>
      <trkpt lat="45.90434" lon="4.73676">
        <ele>177</ele>
        <time>2017-03-25T09:23:10Z</time>
      </trkpt>
      <trkpt lat="45.90428" lon="4.73678">
        <ele>177</ele>
        <time>2017-03-25T09:23:11Z</time>
      </trkpt>
      <trkpt lat="45.90422" lon="4.73681">
        <ele>177</ele>
        <time>2017-03-25T09:23:12Z</time>
      </trkpt>
      <trkpt lat="45.90416" lon="4.73683">
        <ele>177</ele>
        <time>2017-03-25T09:23:13Z</time>
      </trkpt>
      <trkpt lat="45.9041" lon="4.73686">
        <ele>177</ele>
        <time>2017-03-25T09:23:14Z</time>
      </trkpt>
      <trkpt lat="45.90404" lon="4.73688">
        <ele>177</ele>
        <time>2017-03-25T09:23:15Z</time>
      </trkpt>
      <trkpt lat="45.90397" lon="4.73691">
        <ele>177</ele>
        <time>2017-03-25T09:23:16Z</time>
      </trkpt>
      <trkpt lat="45.90391" lon="4.73694">
        <ele>177</ele>
        <time>2017-03-25T09:23:17Z</time>
      </trkpt>
      <trkpt lat="45.90384" lon="4.73697">
        <ele>177</ele>
        <time>2017-03-25T09:23:18Z</time>
      </trkpt>
      <trkpt lat="45.90377" lon="4.737">
        <ele>177</ele>
        <time>2017-03-25T09:23:19Z</time>
      </trkpt>
      <trkpt lat="45.9037" lon="4.73703">
        <ele>177</ele>
        <time>2017-03-25T09:23:20Z</time>
      </trkpt>
      <trkpt lat="45.90363" lon="4.73706">
        <ele>177</ele>
        <time>2017-03-25T09:23:21Z</time>
      </trkpt>
      <trkpt lat="45.90356" lon="4.73709">
        <ele>177</ele>
        <time>2017-03-25T09:23:22Z</time>
      </trkpt>
      <trkpt lat="45.90348" lon="4.73712">
        <ele>177</ele>
        <time>2017-03-25T09:23:23Z</time>
      </trkpt>
      <trkpt lat="45.90341" lon="4.73716">
        <ele>177</ele>
        <time>2017-03-25T09:23:24Z</time>
      </trkpt>
      <trkpt lat="45.90333" lon="4.73719">
        <ele>177</ele>
        <time>2017-03-25T09:23:25Z</time>
      </trkpt>
      <trkpt lat="45.90325" lon="4.73722">
        <ele>177</ele>
        <time>2017-03-25T09:23:26Z</time>
      </trkpt>
      <trkpt lat="45.90317" lon="4.73726">
        <ele>177</ele>
        <time>2017-03-25T09:23:27Z</time>
      </trkpt>
      <trkpt lat="45.90309" lon="4.73729">
        <ele>177</ele>
        <time>2017-03-25T09:23:28Z</time>
      </trkpt>
      <trkpt lat="45.90301" lon="4.73732">
        <ele>177</ele>
        <time>2017-03-25T09:23:29Z</time>
      </trkpt>
      <trkpt lat="45.90294" lon="4.73735">
        <ele>177</ele>
        <time>2017-03-25T09:23:30Z</time>
      </trkpt>
      <trkpt lat="45.90286" lon="4.73739">
        <ele>177</ele>
        <time>2017-03-25T09:23:31Z</time>
      </trkpt>
      <trkpt lat="45.90279" lon="4.73742">
        <ele>177</ele>
        <time>2017-03-25T09:23:32Z</time>
      </trkpt>
      <trkpt lat="45.90271" lon="4.73745">
        <ele>177</ele>
        <time>2017-03-25T09:23:33Z</time>
      </trkpt>
      <trkpt lat="45.90264" lon="4.73747">
        <ele>178</ele>
        <time>2017-03-25T09:23:34Z</time>
      </trkpt>
      <trkpt lat="45.90258" lon="4.7375">
        <ele>178</ele>
        <time>2017-03-25T09:23:35Z</time>
      </trkpt>
      <trkpt lat="45.90251" lon="4.73753">
        <ele>178</ele>
        <time>2017-03-25T09:23:36Z</time>
      </trkpt>
      <trkpt lat="45.90245" lon="4.73756">
        <ele>178</ele>
        <time>2017-03-25T09:23:37Z</time>
      </trkpt>
      <trkpt lat="45.90239" lon="4.73758">
        <ele>178</ele>
        <time>2017-03-25T09:23:38Z</time>
      </trkpt>
      <trkpt lat="45.90233" lon="4.73761">
        <ele>177</ele>
        <time>2017-03-25T09:23:39Z</time>
      </trkpt>
      <trkpt lat="45.90227" lon="4.73764">
        <ele>177</ele>
        <time>2017-03-25T09:23:40Z</time>
      </trkpt>
      <trkpt lat="45.90221" lon="4.73767">
        <ele>177</ele>
        <time>2017-03-25T09:23:41Z</time>
      </trkpt>
      <trkpt lat="45.90215" lon="4.73769">
        <ele>177</ele>
        <time>2017-03-25T09:23:42Z</time>
      </trkpt>
      <trkpt lat="45.90209" lon="4.73772">
        <ele>177</ele>
        <time>2017-03-25T09:23:43Z</time>
      </trkpt>
      <trkpt lat="45.90202" lon="4.73774">
        <ele>177</ele>
        <time>2017-03-25T09:23:44Z</time>
      </trkpt>
      <trkpt lat="45.90196" lon="4.73776">
        <ele>177</ele>
        <time>2017-03-25T09:23:45Z</time>
      </trkpt>
      <trkpt lat="45.9019" lon="4.73779">
        <ele>177</ele>
        <time>2017-03-25T09:23:46Z</time>
      </trkpt>
      <trkpt lat="45.90184" lon="4.73781">
        <ele>177</ele>
        <time>2017-03-25T09:23:47Z</time>
      </trkpt>
      <trkpt lat="45.90178" lon="4.73783">
        <ele>177</ele>
        <time>2017-03-25T09:23:48Z</time>
      </trkpt>
      <trkpt lat="45.90172" lon="4.73786">
        <ele>177</ele>
        <time>2017-03-25T09:23:49Z</time>
      </trkpt>
      <trkpt lat="45.90166" lon="4.73789">
        <ele>176</ele>
        <time>2017-03-25T09:23:50Z</time>
      </trkpt>
      <trkpt lat="45.9016" lon="4.73791">
        <ele>176</ele>
        <time>2017-03-25T09:23:51Z</time>
      </trkpt>
      <trkpt lat="45.90154" lon="4.73794">
        <ele>177</ele>
        <time>2017-03-25T09:23:52Z</time>
      </trkpt>
      <trkpt lat="45.90147" lon="4.73797">
        <ele>177</ele>
        <time>2017-03-25T09:23:53Z</time>
      </trkpt>
      <trkpt lat="45.90141" lon="4.738">
        <ele>177</ele>
        <time>2017-03-25T09:23:54Z</time>
      </trkpt>
      <trkpt lat="45.90135" lon="4.73802">
        <ele>177</ele>
        <time>2017-03-25T09:23:55Z</time>
      </trkpt>
      <trkpt lat="45.90129" lon="4.73805">
        <ele>177</ele>
        <time>2017-03-25T09:23:56Z</time>
      </trkpt>
      <trkpt lat="45.90123" lon="4.73808">
        <ele>177</ele>
        <time>2017-03-25T09:23:57Z</time>
      </trkpt>
      <trkpt lat="45.90116" lon="4.73811">
        <ele>177</ele>
        <time>2017-03-25T09:23:58Z</time>
      </trkpt>
      <trkpt lat="45.9011" lon="4.73814">
        <ele>177</ele>
        <time>2017-03-25T09:23:59Z</time>
      </trkpt>
      <trkpt lat="45.90104" lon="4.73816">
        <ele>177</ele>
        <time>2017-03-25T09:24:00Z</time>
      </trkpt>
      <trkpt lat="45.90098" lon="4.73819">
        <ele>177</ele>
        <time>2017-03-25T09:24:01Z</time>
      </trkpt>
      <trkpt lat="45.90092" lon="4.73822">
        <ele>177</ele>
        <time>2017-03-25T09:24:02Z</time>
      </trkpt>
      <trkpt lat="45.90086" lon="4.73825">
        <ele>178</ele>
        <time>2017-03-25T09:24:03Z</time>
      </trkpt>
      <trkpt lat="45.9008" lon="4.73827">
        <ele>178</ele>
        <time>2017-03-25T09:24:04Z</time>
      </trkpt>
      <trkpt lat="45.90074" lon="4.7383">
        <ele>178</ele>
        <time>2017-03-25T09:24:05Z</time>
      </trkpt>
      <trkpt lat="45.90068" lon="4.73832">
        <ele>178</ele>
        <time>2017-03-25T09:24:06Z</time>
      </trkpt>
      <trkpt lat="45.90062" lon="4.73835">
        <ele>178</ele>
        <time>2017-03-25T09:24:07Z</time>
      </trkpt>
      <trkpt lat="45.90056" lon="4.73837">
        <ele>178</ele>
        <time>2017-03-25T09:24:08Z</time>
      </trkpt>
      <trkpt lat="45.90051" lon="4.7384">
        <ele>178</ele>
        <time>2017-03-25T09:24:09Z</time>
      </trkpt>
      <trkpt lat="45.90045" lon="4.73842">
        <ele>178</ele>
        <time>2017-03-25T09:24:10Z</time>
      </trkpt>
      <trkpt lat="45.90039" lon="4.73844">
        <ele>178</ele>
        <time>2017-03-25T09:24:11Z</time>
      </trkpt>
      <trkpt lat="45.90034" lon="4.73846">
        <ele>178</ele>
        <time>2017-03-25T09:24:12Z</time>
      </trkpt>
      <trkpt lat="45.90028" lon="4.73848">
        <ele>178</ele>
        <time>2017-03-25T09:24:13Z</time>
      </trkpt>
      <trkpt lat="45.90023" lon="4.7385">
        <ele>178</ele>
        <time>2017-03-25T09:24:14Z</time>
      </trkpt>
      <trkpt lat="45.90017" lon="4.73853">
        <ele>178</ele>
        <time>2017-03-25T09:24:15Z</time>
      </trkpt>
      <trkpt lat="45.90011" lon="4.73855">
        <ele>178</ele>
        <time>2017-03-25T09:24:16Z</time>
      </trkpt>
      <trkpt lat="45.90006" lon="4.73857">
        <ele>178</ele>
        <time>2017-03-25T09:24:17Z</time>
      </trkpt>
      <trkpt lat="45.9" lon="4.73859">
        <ele>178</ele>
        <time>2017-03-25T09:24:18Z</time>
      </trkpt>
      <trkpt lat="45.89994" lon="4.73862">
        <ele>178</ele>
        <time>2017-03-25T09:24:19Z</time>
      </trkpt>
      <trkpt lat="45.89989" lon="4.73864">
        <ele>178</ele>
        <time>2017-03-25T09:24:20Z</time>
      </trkpt>
      <trkpt lat="45.89983" lon="4.73867">
        <ele>178</ele>
        <time>2017-03-25T09:24:21Z</time>
      </trkpt>
      <trkpt lat="45.89978" lon="4.73869">
        <ele>178</ele>
        <time>2017-03-25T09:24:22Z</time>
      </trkpt>
      <trkpt lat="45.89972" lon="4.73871">
        <ele>178</ele>
        <time>2017-03-25T09:24:23Z</time>
      </trkpt>
      <trkpt lat="45.89966" lon="4.73874">
        <ele>178</ele>
        <time>2017-03-25T09:24:24Z</time>
      </trkpt>
      <trkpt lat="45.8996" lon="4.73877">
        <ele>178</ele>
        <time>2017-03-25T09:24:25Z</time>
      </trkpt>
      <trkpt lat="45.89955" lon="4.73879">
        <ele>178</ele>
        <time>2017-03-25T09:24:26Z</time>
      </trkpt>
      <trkpt lat="45.89949" lon="4.73882">
        <ele>178</ele>
        <time>2017-03-25T09:24:27Z</time>
      </trkpt>
      <trkpt lat="45.89943" lon="4.73884">
        <ele>178</ele>
        <time>2017-03-25T09:24:28Z</time>
      </trkpt>
      <trkpt lat="45.89937" lon="4.73886">
        <ele>178</ele>
        <time>2017-03-25T09:24:29Z</time>
      </trkpt>
      <trkpt lat="45.89932" lon="4.73888">
        <ele>178</ele>
        <time>2017-03-25T09:24:30Z</time>
      </trkpt>
      <trkpt lat="45.89926" lon="4.7389">
        <ele>178</ele>
        <time>2017-03-25T09:24:31Z</time>
      </trkpt>
      <trkpt lat="45.89921" lon="4.73893">
        <ele>178</ele>
        <time>2017-03-25T09:24:32Z</time>
      </trkpt>
      <trkpt lat="45.89915" lon="4.73896">
        <ele>178</ele>
        <time>2017-03-25T09:24:33Z</time>
      </trkpt>
      <trkpt lat="45.8991" lon="4.73898">
        <ele>178</ele>
        <time>2017-03-25T09:24:34Z</time>
      </trkpt>
      <trkpt lat="45.89904" lon="4.73901">
        <ele>178</ele>
        <time>2017-03-25T09:24:35Z</time>
      </trkpt>
      <trkpt lat="45.89899" lon="4.73903">
        <ele>178</ele>
        <time>2017-03-25T09:24:36Z</time>
      </trkpt>
      <trkpt lat="45.89893" lon="4.73906">
        <ele>179</ele>
        <time>2017-03-25T09:24:37Z</time>
      </trkpt>
      <trkpt lat="45.89888" lon="4.73909">
        <ele>179</ele>
        <time>2017-03-25T09:24:38Z</time>
      </trkpt>
      <trkpt lat="45.89882" lon="4.73911">
        <ele>179</ele>
        <time>2017-03-25T09:24:39Z</time>
      </trkpt>
      <trkpt lat="45.89876" lon="4.73914">
        <ele>179</ele>
        <time>2017-03-25T09:24:40Z</time>
      </trkpt>
      <trkpt lat="45.89871" lon="4.73917">
        <ele>179</ele>
        <time>2017-03-25T09:24:41Z</time>
      </trkpt>
      <trkpt lat="45.89865" lon="4.73919">
        <ele>179</ele>
        <time>2017-03-25T09:24:42Z</time>
      </trkpt>
      <trkpt lat="45.8986" lon="4.73921">
        <ele>179</ele>
        <time>2017-03-25T09:24:43Z</time>
      </trkpt>
      <trkpt lat="45.89855" lon="4.73924">
        <ele>179</ele>
        <time>2017-03-25T09:24:44Z</time>
      </trkpt>
      <trkpt lat="45.8985" lon="4.73926">
        <ele>179</ele>
        <time>2017-03-25T09:24:45Z</time>
      </trkpt>
      <trkpt lat="45.89844" lon="4.73929">
        <ele>179</ele>
        <time>2017-03-25T09:24:46Z</time>
      </trkpt>
      <trkpt lat="45.89839" lon="4.73931">
        <ele>179</ele>
        <time>2017-03-25T09:24:47Z</time>
      </trkpt>
      <trkpt lat="45.89833" lon="4.73933">
        <ele>179</ele>
        <time>2017-03-25T09:24:48Z</time>
      </trkpt>
      <trkpt lat="45.89827" lon="4.73934">
        <ele>179</ele>
        <time>2017-03-25T09:24:49Z</time>
      </trkpt>
      <trkpt lat="45.89821" lon="4.73937">
        <ele>179</ele>
        <time>2017-03-25T09:24:50Z</time>
      </trkpt>
      <trkpt lat="45.89815" lon="4.73939">
        <ele>179</ele>
        <time>2017-03-25T09:24:51Z</time>
      </trkpt>
      <trkpt lat="45.89808" lon="4.73942">
        <ele>179</ele>
        <time>2017-03-25T09:24:52Z</time>
      </trkpt>
      <trkpt lat="45.89803" lon="4.73944">
        <ele>179</ele>
        <time>2017-03-25T09:24:53Z</time>
      </trkpt>
      <trkpt lat="45.89797" lon="4.73947">
        <ele>179</ele>
        <time>2017-03-25T09:24:54Z</time>
      </trkpt>
      <trkpt lat="45.89791" lon="4.7395">
        <ele>179</ele>
        <time>2017-03-25T09:24:55Z</time>
      </trkpt>
      <trkpt lat="45.89785" lon="4.73953">
        <ele>179</ele>
        <time>2017-03-25T09:24:56Z</time>
      </trkpt>
      <trkpt lat="45.8978" lon="4.73955">
        <ele>179</ele>
        <time>2017-03-25T09:24:57Z</time>
      </trkpt>
      <trkpt lat="45.89774" lon="4.73958">
        <ele>179</ele>
        <time>2017-03-25T09:24:58Z</time>
      </trkpt>
      <trkpt lat="45.89768" lon="4.7396">
        <ele>179</ele>
        <time>2017-03-25T09:24:59Z</time>
      </trkpt>
      <trkpt lat="45.89762" lon="4.73963">
        <ele>179</ele>
        <time>2017-03-25T09:25:00Z</time>
      </trkpt>
      <trkpt lat="45.89757" lon="4.73965">
        <ele>178</ele>
        <time>2017-03-25T09:25:01Z</time>
      </trkpt>
      <trkpt lat="45.89751" lon="4.73968">
        <ele>178</ele>
        <time>2017-03-25T09:25:02Z</time>
      </trkpt>
      <trkpt lat="45.89745" lon="4.7397">
        <ele>178</ele>
        <time>2017-03-25T09:25:03Z</time>
      </trkpt>
      <trkpt lat="45.8974" lon="4.73973">
        <ele>178</ele>
        <time>2017-03-25T09:25:04Z</time>
      </trkpt>
      <trkpt lat="45.89734" lon="4.73976">
        <ele>178</ele>
        <time>2017-03-25T09:25:05Z</time>
      </trkpt>
      <trkpt lat="45.89728" lon="4.73978">
        <ele>178</ele>
        <time>2017-03-25T09:25:06Z</time>
      </trkpt>
      <trkpt lat="45.89722" lon="4.7398">
        <ele>178</ele>
        <time>2017-03-25T09:25:07Z</time>
      </trkpt>
      <trkpt lat="45.89717" lon="4.73983">
        <ele>178</ele>
        <time>2017-03-25T09:25:08Z</time>
      </trkpt>
      <trkpt lat="45.89712" lon="4.73985">
        <ele>178</ele>
        <time>2017-03-25T09:25:09Z</time>
      </trkpt>
      <trkpt lat="45.89706" lon="4.73987">
        <ele>178</ele>
        <time>2017-03-25T09:25:10Z</time>
      </trkpt>
      <trkpt lat="45.897" lon="4.7399">
        <ele>178</ele>
        <time>2017-03-25T09:25:11Z</time>
      </trkpt>
      <trkpt lat="45.89695" lon="4.73992">
        <ele>178</ele>
        <time>2017-03-25T09:25:12Z</time>
      </trkpt>
      <trkpt lat="45.89689" lon="4.73994">
        <ele>179</ele>
        <time>2017-03-25T09:25:13Z</time>
      </trkpt>
      <trkpt lat="45.89683" lon="4.73997">
        <ele>179</ele>
        <time>2017-03-25T09:25:14Z</time>
      </trkpt>
      <trkpt lat="45.89677" lon="4.73999">
        <ele>179</ele>
        <time>2017-03-25T09:25:15Z</time>
      </trkpt>
      <trkpt lat="45.89671" lon="4.74001">
        <ele>179</ele>
        <time>2017-03-25T09:25:16Z</time>
      </trkpt>
      <trkpt lat="45.89666" lon="4.74003">
        <ele>179</ele>
        <time>2017-03-25T09:25:17Z</time>
      </trkpt>
      <trkpt lat="45.8966" lon="4.74005">
        <ele>179</ele>
        <time>2017-03-25T09:25:18Z</time>
      </trkpt>
      <trkpt lat="45.89655" lon="4.74007">
        <ele>179</ele>
        <time>2017-03-25T09:25:19Z</time>
      </trkpt>
      <trkpt lat="45.8965" lon="4.74009">
        <ele>180</ele>
        <time>2017-03-25T09:25:20Z</time>
      </trkpt>
      <trkpt lat="45.89645" lon="4.74011">
        <ele>180</ele>
        <time>2017-03-25T09:25:21Z</time>
      </trkpt>
      <trkpt lat="45.8964" lon="4.74014">
        <ele>180</ele>
        <time>2017-03-25T09:25:22Z</time>
      </trkpt>
      <trkpt lat="45.89634" lon="4.74015">
        <ele>180</ele>
        <time>2017-03-25T09:25:23Z</time>
      </trkpt>
      <trkpt lat="45.89629" lon="4.74018">
        <ele>180</ele>
        <time>2017-03-25T09:25:24Z</time>
      </trkpt>
      <trkpt lat="45.89624" lon="4.7402">
        <ele>180</ele>
        <time>2017-03-25T09:25:25Z</time>
      </trkpt>
      <trkpt lat="45.89618" lon="4.74023">
        <ele>180</ele>
        <time>2017-03-25T09:25:26Z</time>
      </trkpt>
      <trkpt lat="45.89613" lon="4.74024">
        <ele>180</ele>
        <time>2017-03-25T09:25:27Z</time>
      </trkpt>
      <trkpt lat="45.89607" lon="4.74026">
        <ele>180</ele>
        <time>2017-03-25T09:25:28Z</time>
      </trkpt>
      <trkpt lat="45.89602" lon="4.74028">
        <ele>180</ele>
        <time>2017-03-25T09:25:29Z</time>
      </trkpt>
      <trkpt lat="45.89598" lon="4.7403">
        <ele>180</ele>
        <time>2017-03-25T09:25:30Z</time>
      </trkpt>
      <trkpt lat="45.89592" lon="4.74032">
        <ele>180</ele>
        <time>2017-03-25T09:25:31Z</time>
      </trkpt>
      <trkpt lat="45.89587" lon="4.74035">
        <ele>180</ele>
        <time>2017-03-25T09:25:32Z</time>
      </trkpt>
      <trkpt lat="45.89581" lon="4.74037">
        <ele>181</ele>
        <time>2017-03-25T09:25:33Z</time>
      </trkpt>
      <trkpt lat="45.89575" lon="4.7404">
        <ele>181</ele>
        <time>2017-03-25T09:25:34Z</time>
      </trkpt>
      <trkpt lat="45.89569" lon="4.74042">
        <ele>181</ele>
        <time>2017-03-25T09:25:35Z</time>
      </trkpt>
      <trkpt lat="45.89563" lon="4.74044">
        <ele>181</ele>
        <time>2017-03-25T09:25:36Z</time>
      </trkpt>
      <trkpt lat="45.89558" lon="4.74046">
        <ele>181</ele>
        <time>2017-03-25T09:25:37Z</time>
      </trkpt>
      <trkpt lat="45.89552" lon="4.74049">
        <ele>181</ele>
        <time>2017-03-25T09:25:38Z</time>
      </trkpt>
      <trkpt lat="45.89546" lon="4.74051">
        <ele>181</ele>
        <time>2017-03-25T09:25:39Z</time>
      </trkpt>
      <trkpt lat="45.89541" lon="4.74054">
        <ele>181</ele>
        <time>2017-03-25T09:25:40Z</time>
      </trkpt>
      <trkpt lat="45.89536" lon="4.74056">
        <ele>181</ele>
        <time>2017-03-25T09:25:41Z</time>
      </trkpt>
      <trkpt lat="45.8953" lon="4.74059">
        <ele>181</ele>
        <time>2017-03-25T09:25:42Z</time>
      </trkpt>
      <trkpt lat="45.89525" lon="4.74062">
        <ele>181</ele>
        <time>2017-03-25T09:25:43Z</time>
      </trkpt>
      <trkpt lat="45.89519" lon="4.74065">
        <ele>181</ele>
        <time>2017-03-25T09:25:44Z</time>
      </trkpt>
      <trkpt lat="45.89514" lon="4.74067">
        <ele>181</ele>
        <time>2017-03-25T09:25:45Z</time>
      </trkpt>
      <trkpt lat="45.89509" lon="4.7407">
        <ele>181</ele>
        <time>2017-03-25T09:25:46Z</time>
      </trkpt>
      <trkpt lat="45.89503" lon="4.74072">
        <ele>181</ele>
        <time>2017-03-25T09:25:47Z</time>
      </trkpt>
      <trkpt lat="45.89498" lon="4.74075">
        <ele>181</ele>
        <time>2017-03-25T09:25:48Z</time>
      </trkpt>
      <trkpt lat="45.89493" lon="4.74077">
        <ele>181</ele>
        <time>2017-03-25T09:25:49Z</time>
      </trkpt>
      <trkpt lat="45.89487" lon="4.74079">
        <ele>181</ele>
        <time>2017-03-25T09:25:50Z</time>
      </trkpt>
      <trkpt lat="45.89482" lon="4.74082">
        <ele>181</ele>
        <time>2017-03-25T09:25:51Z</time>
      </trkpt>
      <trkpt lat="45.89476" lon="4.74084">
        <ele>182</ele>
        <time>2017-03-25T09:25:52Z</time>
      </trkpt>
      <trkpt lat="45.89471" lon="4.74086">
        <ele>182</ele>
        <time>2017-03-25T09:25:53Z</time>
      </trkpt>
      <trkpt lat="45.89466" lon="4.74089">
        <ele>182</ele>
        <time>2017-03-25T09:25:54Z</time>
      </trkpt>
      <trkpt lat="45.8946" lon="4.74091">
        <ele>182</ele>
        <time>2017-03-25T09:25:55Z</time>
      </trkpt>
      <trkpt lat="45.89455" lon="4.74093">
        <ele>182</ele>
        <time>2017-03-25T09:25:56Z</time>
      </trkpt>
      <trkpt lat="45.89449" lon="4.74095">
        <ele>182</ele>
        <time>2017-03-25T09:25:57Z</time>
      </trkpt>
      <trkpt lat="45.89444" lon="4.74097">
        <ele>182</ele>
        <time>2017-03-25T09:25:58Z</time>
      </trkpt>
      <trkpt lat="45.89438" lon="4.74099">
        <ele>182</ele>
        <time>2017-03-25T09:25:59Z</time>
      </trkpt>
      <trkpt lat="45.89433" lon="4.74101">
        <ele>182</ele>
        <time>2017-03-25T09:26:00Z</time>
      </trkpt>
      <trkpt lat="45.89428" lon="4.74103">
        <ele>182</ele>
        <time>2017-03-25T09:26:01Z</time>
      </trkpt>
      <trkpt lat="45.89423" lon="4.74106">
        <ele>182</ele>
        <time>2017-03-25T09:26:02Z</time>
      </trkpt>
      <trkpt lat="45.89418" lon="4.74108">
        <ele>183</ele>
        <time>2017-03-25T09:26:03Z</time>
      </trkpt>
      <trkpt lat="45.89412" lon="4.74111">
        <ele>183</ele>
        <time>2017-03-25T09:26:04Z</time>
      </trkpt>
      <trkpt lat="45.89407" lon="4.74113">
        <ele>183</ele>
        <time>2017-03-25T09:26:05Z</time>
      </trkpt>
      <trkpt lat="45.89402" lon="4.74115">
        <ele>184</ele>
        <time>2017-03-25T09:26:06Z</time>
      </trkpt>
      <trkpt lat="45.89397" lon="4.74117">
        <ele>184</ele>
        <time>2017-03-25T09:26:07Z</time>
      </trkpt>
      <trkpt lat="45.89392" lon="4.7412">
        <ele>184</ele>
        <time>2017-03-25T09:26:08Z</time>
      </trkpt>
      <trkpt lat="45.89387" lon="4.74123">
        <ele>184</ele>
        <time>2017-03-25T09:26:09Z</time>
      </trkpt>
      <trkpt lat="45.89382" lon="4.74125">
        <ele>184</ele>
        <time>2017-03-25T09:26:10Z</time>
      </trkpt>
      <trkpt lat="45.89377" lon="4.74128">
        <ele>184</ele>
        <time>2017-03-25T09:26:11Z</time>
      </trkpt>
      <trkpt lat="45.89372" lon="4.7413">
        <ele>184</ele>
        <time>2017-03-25T09:26:12Z</time>
      </trkpt>
      <trkpt lat="45.89367" lon="4.74132">
        <ele>184</ele>
        <time>2017-03-25T09:26:13Z</time>
      </trkpt>
      <trkpt lat="45.89362" lon="4.74135">
        <ele>184</ele>
        <time>2017-03-25T09:26:14Z</time>
      </trkpt>
      <trkpt lat="45.89358" lon="4.74137">
        <ele>184</ele>
        <time>2017-03-25T09:26:15Z</time>
      </trkpt>
      <trkpt lat="45.89352" lon="4.74139">
        <ele>184</ele>
        <time>2017-03-25T09:26:16Z</time>
      </trkpt>
      <trkpt lat="45.89347" lon="4.74141">
        <ele>185</ele>
        <time>2017-03-25T09:26:17Z</time>
      </trkpt>
      <trkpt lat="45.89342" lon="4.74144">
        <ele>185</ele>
        <time>2017-03-25T09:26:18Z</time>
      </trkpt>
      <trkpt lat="45.89338" lon="4.74146">
        <ele>185</ele>
        <time>2017-03-25T09:26:19Z</time>
      </trkpt>
      <trkpt lat="45.89333" lon="4.74148">
        <ele>185</ele>
        <time>2017-03-25T09:26:20Z</time>
      </trkpt>
      <trkpt lat="45.89327" lon="4.7415">
        <ele>185</ele>
        <time>2017-03-25T09:26:21Z</time>
      </trkpt>
      <trkpt lat="45.89323" lon="4.74152">
        <ele>185</ele>
        <time>2017-03-25T09:26:22Z</time>
      </trkpt>
      <trkpt lat="45.89317" lon="4.74154">
        <ele>185</ele>
        <time>2017-03-25T09:26:23Z</time>
      </trkpt>
      <trkpt lat="45.89313" lon="4.74157">
        <ele>185</ele>
        <time>2017-03-25T09:26:24Z</time>
      </trkpt>
      <trkpt lat="45.89307" lon="4.74159">
        <ele>185</ele>
        <time>2017-03-25T09:26:25Z</time>
      </trkpt>
      <trkpt lat="45.89302" lon="4.74161">
        <ele>185</ele>
        <time>2017-03-25T09:26:26Z</time>
      </trkpt>
      <trkpt lat="45.89297" lon="4.74163">
        <ele>185</ele>
        <time>2017-03-25T09:26:27Z</time>
      </trkpt>
      <trkpt lat="45.89291" lon="4.74166">
        <ele>185</ele>
        <time>2017-03-25T09:26:28Z</time>
      </trkpt>
      <trkpt lat="45.89286" lon="4.74169">
        <ele>186</ele>
        <time>2017-03-25T09:26:29Z</time>
      </trkpt>
      <trkpt lat="45.8928" lon="4.74171">
        <ele>186</ele>
        <time>2017-03-25T09:26:30Z</time>
      </trkpt>
      <trkpt lat="45.89275" lon="4.74174">
        <ele>186</ele>
        <time>2017-03-25T09:26:31Z</time>
      </trkpt>
      <trkpt lat="45.8927" lon="4.74176">
        <ele>186</ele>
        <time>2017-03-25T09:26:32Z</time>
      </trkpt>
      <trkpt lat="45.89265" lon="4.74178">
        <ele>186</ele>
        <time>2017-03-25T09:26:33Z</time>
      </trkpt>
      <trkpt lat="45.8926" lon="4.7418">
        <ele>186</ele>
        <time>2017-03-25T09:26:34Z</time>
      </trkpt>
      <trkpt lat="45.89255" lon="4.74181">
        <ele>186</ele>
        <time>2017-03-25T09:26:35Z</time>
      </trkpt>
      <trkpt lat="45.8925" lon="4.74183">
        <ele>186</ele>
        <time>2017-03-25T09:26:36Z</time>
      </trkpt>
      <trkpt lat="45.89245" lon="4.74185">
        <ele>186</ele>
        <time>2017-03-25T09:26:37Z</time>
      </trkpt>
      <trkpt lat="45.89239" lon="4.74187">
        <ele>186</ele>
        <time>2017-03-25T09:26:38Z</time>
      </trkpt>
      <trkpt lat="45.89234" lon="4.74189">
        <ele>186</ele>
        <time>2017-03-25T09:26:39Z</time>
      </trkpt>
      <trkpt lat="45.89229" lon="4.74191">
        <ele>186</ele>
        <time>2017-03-25T09:26:40Z</time>
      </trkpt>
      <trkpt lat="45.89224" lon="4.74193">
        <ele>186</ele>
        <time>2017-03-25T09:26:41Z</time>
      </trkpt>
      <trkpt lat="45.89219" lon="4.74195">
        <ele>186</ele>
        <time>2017-03-25T09:26:42Z</time>
      </trkpt>
      <trkpt lat="45.89214" lon="4.74197">
        <ele>186</ele>
        <time>2017-03-25T09:26:43Z</time>
      </trkpt>
      <trkpt lat="45.89209" lon="4.742">
        <ele>186</ele>
        <time>2017-03-25T09:26:44Z</time>
      </trkpt>
      <trkpt lat="45.89204" lon="4.74202">
        <ele>186</ele>
        <time>2017-03-25T09:26:45Z</time>
      </trkpt>
      <trkpt lat="45.89198" lon="4.74204">
        <ele>186</ele>
        <time>2017-03-25T09:26:46Z</time>
      </trkpt>
      <trkpt lat="45.89193" lon="4.74207">
        <ele>186</ele>
        <time>2017-03-25T09:26:47Z</time>
      </trkpt>
      <trkpt lat="45.89188" lon="4.7421">
        <ele>186</ele>
        <time>2017-03-25T09:26:48Z</time>
      </trkpt>
      <trkpt lat="45.89183" lon="4.74212">
        <ele>186</ele>
        <time>2017-03-25T09:26:49Z</time>
      </trkpt>
      <trkpt lat="45.89177" lon="4.74214">
        <ele>186</ele>
        <time>2017-03-25T09:26:50Z</time>
      </trkpt>
      <trkpt lat="45.89172" lon="4.74216">
        <ele>186</ele>
        <time>2017-03-25T09:26:51Z</time>
      </trkpt>
      <trkpt lat="45.89166" lon="4.74219">
        <ele>186</ele>
        <time>2017-03-25T09:26:52Z</time>
      </trkpt>
      <trkpt lat="45.8916" lon="4.7422">
        <ele>186</ele>
        <time>2017-03-25T09:26:53Z</time>
      </trkpt>
      <trkpt lat="45.89155" lon="4.74222">
        <ele>186</ele>
        <time>2017-03-25T09:26:54Z</time>
      </trkpt>
      <trkpt lat="45.8915" lon="4.74225">
        <ele>186</ele>
        <time>2017-03-25T09:26:55Z</time>
      </trkpt>
      <trkpt lat="45.89144" lon="4.74227">
        <ele>186</ele>
        <time>2017-03-25T09:26:56Z</time>
      </trkpt>
      <trkpt lat="45.89139" lon="4.74229">
        <ele>186</ele>
        <time>2017-03-25T09:26:57Z</time>
      </trkpt>
      <trkpt lat="45.89134" lon="4.74232">
        <ele>186</ele>
        <time>2017-03-25T09:26:58Z</time>
      </trkpt>
      <trkpt lat="45.89129" lon="4.74234">
        <ele>186</ele>
        <time>2017-03-25T09:26:59Z</time>
      </trkpt>
      <trkpt lat="45.89124" lon="4.74236">
        <ele>186</ele>
        <time>2017-03-25T09:27:00Z</time>
      </trkpt>
      <trkpt lat="45.89118" lon="4.74238">
        <ele>186</ele>
        <time>2017-03-25T09:27:01Z</time>
      </trkpt>
      <trkpt lat="45.89112" lon="4.74239">
        <ele>186</ele>
        <time>2017-03-25T09:27:02Z</time>
      </trkpt>
      <trkpt lat="45.89106" lon="4.74241">
        <ele>186</ele>
        <time>2017-03-25T09:27:03Z</time>
      </trkpt>
      <trkpt lat="45.891" lon="4.74242">
        <ele>186</ele>
        <time>2017-03-25T09:27:04Z</time>
      </trkpt>
      <trkpt lat="45.89093" lon="4.74244">
        <ele>186</ele>
        <time>2017-03-25T09:27:05Z</time>
      </trkpt>
      <trkpt lat="45.89087" lon="4.74246">
        <ele>186</ele>
        <time>2017-03-25T09:27:06Z</time>
      </trkpt>
      <trkpt lat="45.89082" lon="4.74248">
        <ele>186</ele>
        <time>2017-03-25T09:27:07Z</time>
      </trkpt>
      <trkpt lat="45.89076" lon="4.7425">
        <ele>186</ele>
        <time>2017-03-25T09:27:08Z</time>
      </trkpt>
      <trkpt lat="45.8907" lon="4.74252">
        <ele>186</ele>
        <time>2017-03-25T09:27:09Z</time>
      </trkpt>
      <trkpt lat="45.89065" lon="4.74254">
        <ele>186</ele>
        <time>2017-03-25T09:27:10Z</time>
      </trkpt>
      <trkpt lat="45.8906" lon="4.74256">
        <ele>186</ele>
        <time>2017-03-25T09:27:11Z</time>
      </trkpt>
      <trkpt lat="45.89054" lon="4.74258">
        <ele>187</ele>
        <time>2017-03-25T09:27:12Z</time>
      </trkpt>
      <trkpt lat="45.89049" lon="4.7426">
        <ele>187</ele>
        <time>2017-03-25T09:27:13Z</time>
      </trkpt>
      <trkpt lat="45.89044" lon="4.74262">
        <ele>187</ele>
        <time>2017-03-25T09:27:14Z</time>
      </trkpt>
      <trkpt lat="45.89039" lon="4.74264">
        <ele>187</ele>
        <time>2017-03-25T09:27:15Z</time>
      </trkpt>
      <trkpt lat="45.89034" lon="4.74265">
        <ele>187</ele>
        <time>2017-03-25T09:27:16Z</time>
      </trkpt>
      <trkpt lat="45.89029" lon="4.74267">
        <ele>187</ele>
        <time>2017-03-25T09:27:17Z</time>
      </trkpt>
      <trkpt lat="45.89024" lon="4.74268">
        <ele>187</ele>
        <time>2017-03-25T09:27:18Z</time>
      </trkpt>
      <trkpt lat="45.8902" lon="4.7427">
        <ele>187</ele>
        <time>2017-03-25T09:27:19Z</time>
      </trkpt>
      <trkpt lat="45.89015" lon="4.74271">
        <ele>187</ele>
        <time>2017-03-25T09:27:20Z</time>
      </trkpt>
      <trkpt lat="45.89011" lon="4.74273">
        <ele>187</ele>
        <time>2017-03-25T09:27:21Z</time>
      </trkpt>
      <trkpt lat="45.89006" lon="4.74274">
        <ele>187</ele>
        <time>2017-03-25T09:27:22Z</time>
      </trkpt>
      <trkpt lat="45.88998" lon="4.74277">
        <ele>187</ele>
        <time>2017-03-25T09:27:24Z</time>
      </trkpt>
      <trkpt lat="45.88994" lon="4.74278">
        <ele>187</ele>
        <time>2017-03-25T09:27:25Z</time>
      </trkpt>
      <trkpt lat="45.88986" lon="4.74278">
        <ele>187</ele>
        <time>2017-03-25T09:27:27Z</time>
      </trkpt>
      <trkpt lat="45.88982" lon="4.74278">
        <ele>187</ele>
        <time>2017-03-25T09:27:28Z</time>
      </trkpt>
      <trkpt lat="45.88978" lon="4.74278">
        <ele>187</ele>
        <time>2017-03-25T09:27:29Z</time>
      </trkpt>
      <trkpt lat="45.88972" lon="4.74278">
        <ele>187</ele>
        <time>2017-03-25T09:27:30Z</time>
      </trkpt>
      <trkpt lat="45.88967" lon="4.74278">
        <ele>187</ele>
        <time>2017-03-25T09:27:31Z</time>
      </trkpt>
      <trkpt lat="45.88963" lon="4.74278">
        <ele>187</ele>
        <time>2017-03-25T09:27:32Z</time>
      </trkpt>
      <trkpt lat="45.88958" lon="4.74276">
        <ele>187</ele>
        <time>2017-03-25T09:27:33Z</time>
      </trkpt>
      <trkpt lat="45.88953" lon="4.74275">
        <ele>187</ele>
        <time>2017-03-25T09:27:34Z</time>
      </trkpt>
      <trkpt lat="45.88945" lon="4.74272">
        <ele>187</ele>
        <time>2017-03-25T09:27:36Z</time>
      </trkpt>
      <trkpt lat="45.8894" lon="4.74271">
        <ele>187</ele>
        <time>2017-03-25T09:27:37Z</time>
      </trkpt>
      <trkpt lat="45.88935" lon="4.74269">
        <ele>187</ele>
        <time>2017-03-25T09:27:38Z</time>
      </trkpt>
      <trkpt lat="45.88931" lon="4.74268">
        <ele>187</ele>
        <time>2017-03-25T09:27:39Z</time>
      </trkpt>
      <trkpt lat="45.88923" lon="4.74265">
        <ele>187</ele>
        <time>2017-03-25T09:27:41Z</time>
      </trkpt>
      <trkpt lat="45.88919" lon="4.74263">
        <ele>187</ele>
        <time>2017-03-25T09:27:42Z</time>
      </trkpt>
      <trkpt lat="45.88914" lon="4.7426">
        <ele>187</ele>
        <time>2017-03-25T09:27:43Z</time>
      </trkpt>
      <trkpt lat="45.8891" lon="4.74257">
        <ele>187</ele>
        <time>2017-03-25T09:27:44Z</time>
      </trkpt>
      <trkpt lat="45.88904" lon="4.74255">
        <ele>187</ele>
        <time>2017-03-25T09:27:45Z</time>
      </trkpt>
      <trkpt lat="45.88899" lon="4.74252">
        <ele>187</ele>
        <time>2017-03-25T09:27:46Z</time>
      </trkpt>
      <trkpt lat="45.88895" lon="4.74248">
        <ele>187</ele>
        <time>2017-03-25T09:27:47Z</time>
      </trkpt>
      <trkpt lat="45.8889" lon="4.74243">
        <ele>187</ele>
        <time>2017-03-25T09:27:48Z</time>
      </trkpt>
      <trkpt lat="45.88886" lon="4.7424">
        <ele>187</ele>
        <time>2017-03-25T09:27:49Z</time>
      </trkpt>
      <trkpt lat="45.88881" lon="4.74236">
        <ele>187</ele>
        <time>2017-03-25T09:27:50Z</time>
      </trkpt>
      <trkpt lat="45.88876" lon="4.74232">
        <ele>187</ele>
        <time>2017-03-25T09:27:51Z</time>
      </trkpt>
      <trkpt lat="45.88871" lon="4.74229">
        <ele>187</ele>
        <time>2017-03-25T09:27:52Z</time>
      </trkpt>
      <trkpt lat="45.88865" lon="4.74225">
        <ele>187</ele>
        <time>2017-03-25T09:27:53Z</time>
      </trkpt>
      <trkpt lat="45.8886" lon="4.74222">
        <ele>187</ele>
        <time>2017-03-25T09:27:54Z</time>
      </trkpt>
      <trkpt lat="45.88855" lon="4.74218">
        <ele>187</ele>
        <time>2017-03-25T09:27:55Z</time>
      </trkpt>
      <trkpt lat="45.88849" lon="4.74215">
        <ele>187</ele>
        <time>2017-03-25T09:27:56Z</time>
      </trkpt>
      <trkpt lat="45.88844" lon="4.74211">
        <ele>187</ele>
        <time>2017-03-25T09:27:57Z</time>
      </trkpt>
      <trkpt lat="45.88838" lon="4.74208">
        <ele>187</ele>
        <time>2017-03-25T09:27:58Z</time>
      </trkpt>
      <trkpt lat="45.88833" lon="4.74205">
        <ele>187</ele>
        <time>2017-03-25T09:27:59Z</time>
      </trkpt>
      <trkpt lat="45.88828" lon="4.74202">
        <ele>187</ele>
        <time>2017-03-25T09:28:00Z</time>
      </trkpt>
      <trkpt lat="45.88823" lon="4.74198">
        <ele>187</ele>
        <time>2017-03-25T09:28:01Z</time>
      </trkpt>
      <trkpt lat="45.88819" lon="4.74195">
        <ele>187</ele>
        <time>2017-03-25T09:28:02Z</time>
      </trkpt>
      <trkpt lat="45.88813" lon="4.74192">
        <ele>187</ele>
        <time>2017-03-25T09:28:03Z</time>
      </trkpt>
      <trkpt lat="45.88808" lon="4.74189">
        <ele>187</ele>
        <time>2017-03-25T09:28:04Z</time>
      </trkpt>
      <trkpt lat="45.88803" lon="4.74186">
        <ele>187</ele>
        <time>2017-03-25T09:28:05Z</time>
      </trkpt>
      <trkpt lat="45.88797" lon="4.74184">
        <ele>187</ele>
        <time>2017-03-25T09:28:06Z</time>
      </trkpt>
      <trkpt lat="45.88792" lon="4.74181">
        <ele>188</ele>
        <time>2017-03-25T09:28:07Z</time>
      </trkpt>
      <trkpt lat="45.88787" lon="4.74178">
        <ele>188</ele>
        <time>2017-03-25T09:28:08Z</time>
      </trkpt>
      <trkpt lat="45.88782" lon="4.74176">
        <ele>188</ele>
        <time>2017-03-25T09:28:09Z</time>
      </trkpt>
      <trkpt lat="45.88777" lon="4.74173">
        <ele>188</ele>
        <time>2017-03-25T09:28:10Z</time>
      </trkpt>
      <trkpt lat="45.88772" lon="4.7417">
        <ele>188</ele>
        <time>2017-03-25T09:28:11Z</time>
      </trkpt>
      <trkpt lat="45.88767" lon="4.74167">
        <ele>187</ele>
        <time>2017-03-25T09:28:12Z</time>
      </trkpt>
      <trkpt lat="45.88762" lon="4.74164">
        <ele>187</ele>
        <time>2017-03-25T09:28:13Z</time>
      </trkpt>
      <trkpt lat="45.88758" lon="4.74161">
        <ele>188</ele>
        <time>2017-03-25T09:28:14Z</time>
      </trkpt>
      <trkpt lat="45.88754" lon="4.74157">
        <ele>188</ele>
        <time>2017-03-25T09:28:15Z</time>
      </trkpt>
      <trkpt lat="45.88749" lon="4.74154">
        <ele>188</ele>
        <time>2017-03-25T09:28:16Z</time>
      </trkpt>
      <trkpt lat="45.88745" lon="4.7415">
        <ele>188</ele>
        <time>2017-03-25T09:28:17Z</time>
      </trkpt>
      <trkpt lat="45.8874" lon="4.74147">
        <ele>188</ele>
        <time>2017-03-25T09:28:18Z</time>
      </trkpt>
      <trkpt lat="45.88735" lon="4.74143">
        <ele>188</ele>
        <time>2017-03-25T09:28:19Z</time>
      </trkpt>
      <trkpt lat="45.8873" lon="4.74139">
        <ele>188</ele>
        <time>2017-03-25T09:28:20Z</time>
      </trkpt>
      <trkpt lat="45.88725" lon="4.74135">
        <ele>188</ele>
        <time>2017-03-25T09:28:21Z</time>
      </trkpt>
      <trkpt lat="45.88721" lon="4.74131">
        <ele>188</ele>
        <time>2017-03-25T09:28:22Z</time>
      </trkpt>
      <trkpt lat="45.88716" lon="4.74126">
        <ele>188</ele>
        <time>2017-03-25T09:28:23Z</time>
      </trkpt>
      <trkpt lat="45.88711" lon="4.74122">
        <ele>188</ele>
        <time>2017-03-25T09:28:24Z</time>
      </trkpt>
      <trkpt lat="45.88707" lon="4.74117">
        <ele>188</ele>
        <time>2017-03-25T09:28:25Z</time>
      </trkpt>
      <trkpt lat="45.88702" lon="4.74113">
        <ele>188</ele>
        <time>2017-03-25T09:28:26Z</time>
      </trkpt>
      <trkpt lat="45.88697" lon="4.7411">
        <ele>188</ele>
        <time>2017-03-25T09:28:27Z</time>
      </trkpt>
      <trkpt lat="45.88692" lon="4.74108">
        <ele>188</ele>
        <time>2017-03-25T09:28:28Z</time>
      </trkpt>
      <trkpt lat="45.88687" lon="4.74106">
        <ele>188</ele>
        <time>2017-03-25T09:28:29Z</time>
      </trkpt>
      <trkpt lat="45.88682" lon="4.74104">
        <ele>188</ele>
        <time>2017-03-25T09:28:30Z</time>
      </trkpt>
      <trkpt lat="45.88677" lon="4.74101">
        <ele>188</ele>
        <time>2017-03-25T09:28:31Z</time>
      </trkpt>
      <trkpt lat="45.88673" lon="4.74096">
        <ele>188</ele>
        <time>2017-03-25T09:28:32Z</time>
      </trkpt>
      <trkpt lat="45.88671" lon="4.7409">
        <ele>188</ele>
        <time>2017-03-25T09:28:33Z</time>
      </trkpt>
      <trkpt lat="45.88668" lon="4.74083">
        <ele>188</ele>
        <time>2017-03-25T09:28:34Z</time>
      </trkpt>
      <trkpt lat="45.88666" lon="4.74075">
        <ele>188</ele>
        <time>2017-03-25T09:28:35Z</time>
      </trkpt>
      <trkpt lat="45.88664" lon="4.74068">
        <ele>188</ele>
        <time>2017-03-25T09:28:36Z</time>
      </trkpt>
      <trkpt lat="45.88661" lon="4.7406">
        <ele>187</ele>
        <time>2017-03-25T09:28:37Z</time>
      </trkpt>
      <trkpt lat="45.88658" lon="4.74053">
        <ele>187</ele>
        <time>2017-03-25T09:28:38Z</time>
      </trkpt>
      <trkpt lat="45.88656" lon="4.74045">
        <ele>187</ele>
        <time>2017-03-25T09:28:39Z</time>
      </trkpt>
      <trkpt lat="45.88654" lon="4.74037">
        <ele>187</ele>
        <time>2017-03-25T09:28:40Z</time>
      </trkpt>
      <trkpt lat="45.88652" lon="4.74029">
        <ele>187</ele>
        <time>2017-03-25T09:28:41Z</time>
      </trkpt>
      <trkpt lat="45.88651" lon="4.7402">
        <ele>187</ele>
        <time>2017-03-25T09:28:42Z</time>
      </trkpt>
      <trkpt lat="45.8865" lon="4.7401">
        <ele>187</ele>
        <time>2017-03-25T09:28:43Z</time>
      </trkpt>
      <trkpt lat="45.88649" lon="4.74001">
        <ele>187</ele>
        <time>2017-03-25T09:28:44Z</time>
      </trkpt>
      <trkpt lat="45.88648" lon="4.73991">
        <ele>186</ele>
        <time>2017-03-25T09:28:45Z</time>
      </trkpt>
      <trkpt lat="45.88647" lon="4.73981">
        <ele>187</ele>
        <time>2017-03-25T09:28:46Z</time>
      </trkpt>
      <trkpt lat="45.88646" lon="4.73972">
        <ele>187</ele>
        <time>2017-03-25T09:28:47Z</time>
      </trkpt>
      <trkpt lat="45.88645" lon="4.73962">
        <ele>187</ele>
        <time>2017-03-25T09:28:48Z</time>
      </trkpt>
      <trkpt lat="45.88645" lon="4.73953">
        <ele>187</ele>
        <time>2017-03-25T09:28:49Z</time>
      </trkpt>
      <trkpt lat="45.88645" lon="4.73944">
        <ele>187</ele>
        <time>2017-03-25T09:28:50Z</time>
      </trkpt>
      <trkpt lat="45.88644" lon="4.73935">
        <ele>187</ele>
        <time>2017-03-25T09:28:51Z</time>
      </trkpt>
      <trkpt lat="45.88644" lon="4.73926">
        <ele>187</ele>
        <time>2017-03-25T09:28:52Z</time>
      </trkpt>
      <trkpt lat="45.88645" lon="4.73917">
        <ele>187</ele>
        <time>2017-03-25T09:28:53Z</time>
      </trkpt>
      <trkpt lat="45.88644" lon="4.73909">
        <ele>187</ele>
        <time>2017-03-25T09:28:54Z</time>
      </trkpt>
      <trkpt lat="45.88644" lon="4.739">
        <ele>187</ele>
        <time>2017-03-25T09:28:55Z</time>
      </trkpt>
      <trkpt lat="45.88644" lon="4.73891">
        <ele>187</ele>
        <time>2017-03-25T09:28:56Z</time>
      </trkpt>
      <trkpt lat="45.88644" lon="4.73882">
        <ele>187</ele>
        <time>2017-03-25T09:28:57Z</time>
      </trkpt>
      <trkpt lat="45.88644" lon="4.73873">
        <ele>187</ele>
        <time>2017-03-25T09:28:58Z</time>
      </trkpt>
      <trkpt lat="45.88644" lon="4.73863">
        <ele>187</ele>
        <time>2017-03-25T09:28:59Z</time>
      </trkpt>
      <trkpt lat="45.88645" lon="4.73854">
        <ele>187</ele>
        <time>2017-03-25T09:29:00Z</time>
      </trkpt>
      <trkpt lat="45.88645" lon="4.73846">
        <ele>187</ele>
        <time>2017-03-25T09:29:01Z</time>
      </trkpt>
      <trkpt lat="45.88645" lon="4.73837">
        <ele>187</ele>
        <time>2017-03-25T09:29:02Z</time>
      </trkpt>
      <trkpt lat="45.88646" lon="4.73829">
        <ele>187</ele>
        <time>2017-03-25T09:29:03Z</time>
      </trkpt>
      <trkpt lat="45.88646" lon="4.7382">
        <ele>187</ele>
        <time>2017-03-25T09:29:04Z</time>
      </trkpt>
      <trkpt lat="45.88646" lon="4.73813">
        <ele>187</ele>
        <time>2017-03-25T09:29:05Z</time>
      </trkpt>
      <trkpt lat="45.88647" lon="4.73805">
        <ele>187</ele>
        <time>2017-03-25T09:29:06Z</time>
      </trkpt>
      <trkpt lat="45.88647" lon="4.73798">
        <ele>187</ele>
        <time>2017-03-25T09:29:07Z</time>
      </trkpt>
      <trkpt lat="45.88647" lon="4.7379">
        <ele>187</ele>
        <time>2017-03-25T09:29:08Z</time>
      </trkpt>
      <trkpt lat="45.88647" lon="4.73783">
        <ele>187</ele>
        <time>2017-03-25T09:29:09Z</time>
      </trkpt>
      <trkpt lat="45.88647" lon="4.73775">
        <ele>187</ele>
        <time>2017-03-25T09:29:10Z</time>
      </trkpt>
      <trkpt lat="45.88647" lon="4.73768">
        <ele>187</ele>
        <time>2017-03-25T09:29:11Z</time>
      </trkpt>
      <trkpt lat="45.88648" lon="4.73761">
        <ele>187</ele>
        <time>2017-03-25T09:29:12Z</time>
      </trkpt>
      <trkpt lat="45.88647" lon="4.73754">
        <ele>187</ele>
        <time>2017-03-25T09:29:13Z</time>
      </trkpt>
      <trkpt lat="45.88647" lon="4.73747">
        <ele>187</ele>
        <time>2017-03-25T09:29:14Z</time>
      </trkpt>
      <trkpt lat="45.88648" lon="4.7374">
        <ele>187</ele>
        <time>2017-03-25T09:29:15Z</time>
      </trkpt>
      <trkpt lat="45.88648" lon="4.73734">
        <ele>187</ele>
        <time>2017-03-25T09:29:16Z</time>
      </trkpt>
      <trkpt lat="45.88648" lon="4.73721">
        <ele>186</ele>
        <time>2017-03-25T09:29:18Z</time>
      </trkpt>
      <trkpt lat="45.88649" lon="4.73715">
        <ele>186</ele>
        <time>2017-03-25T09:29:19Z</time>
      </trkpt>
      <trkpt lat="45.88649" lon="4.73703">
        <ele>186</ele>
        <time>2017-03-25T09:29:21Z</time>
      </trkpt>
      <trkpt lat="45.88649" lon="4.73698">
        <ele>186</ele>
        <time>2017-03-25T09:29:22Z</time>
      </trkpt>
      <trkpt lat="45.88649" lon="4.73686">
        <ele>186</ele>
        <time>2017-03-25T09:29:24Z</time>
      </trkpt>
      <trkpt lat="45.88649" lon="4.7368">
        <ele>186</ele>
        <time>2017-03-25T09:29:25Z</time>
      </trkpt>
      <trkpt lat="45.88649" lon="4.73668">
        <ele>186</ele>
        <time>2017-03-25T09:29:27Z</time>
      </trkpt>
      <trkpt lat="45.88649" lon="4.73662">
        <ele>186</ele>
        <time>2017-03-25T09:29:28Z</time>
      </trkpt>
      <trkpt lat="45.88649" lon="4.73649">
        <ele>186</ele>
        <time>2017-03-25T09:29:30Z</time>
      </trkpt>
      <trkpt lat="45.88649" lon="4.73642">
        <ele>186</ele>
        <time>2017-03-25T09:29:31Z</time>
      </trkpt>
      <trkpt lat="45.88649" lon="4.73635">
        <ele>186</ele>
        <time>2017-03-25T09:29:32Z</time>
      </trkpt>
      <trkpt lat="45.88649" lon="4.73628">
        <ele>186</ele>
        <time>2017-03-25T09:29:33Z</time>
      </trkpt>
      <trkpt lat="45.88649" lon="4.7362">
        <ele>186</ele>
        <time>2017-03-25T09:29:34Z</time>
      </trkpt>
      <trkpt lat="45.8865" lon="4.73613">
        <ele>186</ele>
        <time>2017-03-25T09:29:35Z</time>
      </trkpt>
      <trkpt lat="45.8865" lon="4.73605">
        <ele>186</ele>
        <time>2017-03-25T09:29:36Z</time>
      </trkpt>
      <trkpt lat="45.8865" lon="4.73597">
        <ele>185</ele>
        <time>2017-03-25T09:29:37Z</time>
      </trkpt>
      <trkpt lat="45.8865" lon="4.73588">
        <ele>185</ele>
        <time>2017-03-25T09:29:38Z</time>
      </trkpt>
      <trkpt lat="45.8865" lon="4.73579">
        <ele>185</ele>
        <time>2017-03-25T09:29:39Z</time>
      </trkpt>
      <trkpt lat="45.8865" lon="4.73569">
        <ele>185</ele>
        <time>2017-03-25T09:29:40Z</time>
      </trkpt>
      <trkpt lat="45.8865" lon="4.73559">
        <ele>185</ele>
        <time>2017-03-25T09:29:41Z</time>
      </trkpt>
      <trkpt lat="45.8865" lon="4.73549">
        <ele>185</ele>
        <time>2017-03-25T09:29:42Z</time>
      </trkpt>
      <trkpt lat="45.8865" lon="4.73538">
        <ele>185</ele>
        <time>2017-03-25T09:29:43Z</time>
      </trkpt>
      <trkpt lat="45.88651" lon="4.73528">
        <ele>185</ele>
        <time>2017-03-25T09:29:44Z</time>
      </trkpt>
      <trkpt lat="45.88653" lon="4.73517">
        <ele>185</ele>
        <time>2017-03-25T09:29:45Z</time>
      </trkpt>
      <trkpt lat="45.88656" lon="4.73506">
        <ele>184</ele>
        <time>2017-03-25T09:29:46Z</time>
      </trkpt>
      <trkpt lat="45.88658" lon="4.73494">
        <ele>184</ele>
        <time>2017-03-25T09:29:47Z</time>
      </trkpt>
      <trkpt lat="45.8866" lon="4.73482">
        <ele>184</ele>
        <time>2017-03-25T09:29:48Z</time>
      </trkpt>
      <trkpt lat="45.8866" lon="4.7347">
        <ele>184</ele>
        <time>2017-03-25T09:29:49Z</time>
      </trkpt>
      <trkpt lat="45.8866" lon="4.73459">
        <ele>184</ele>
        <time>2017-03-25T09:29:50Z</time>
      </trkpt>
      <trkpt lat="45.88659" lon="4.73447">
        <ele>184</ele>
        <time>2017-03-25T09:29:51Z</time>
      </trkpt>
      <trkpt lat="45.88657" lon="4.73436">
        <ele>184</ele>
        <time>2017-03-25T09:29:52Z</time>
      </trkpt>
      <trkpt lat="45.88655" lon="4.73425">
        <ele>184</ele>
        <time>2017-03-25T09:29:53Z</time>
      </trkpt>
      <trkpt lat="45.88652" lon="4.73414">
        <ele>184</ele>
        <time>2017-03-25T09:29:54Z</time>
      </trkpt>
      <trkpt lat="45.88649" lon="4.73404">
        <ele>184</ele>
        <time>2017-03-25T09:29:55Z</time>
      </trkpt>
      <trkpt lat="45.88645" lon="4.73396">
        <ele>184</ele>
        <time>2017-03-25T09:29:56Z</time>
      </trkpt>
      <trkpt lat="45.8864" lon="4.73388">
        <ele>184</ele>
        <time>2017-03-25T09:29:57Z</time>
      </trkpt>
      <trkpt lat="45.88634" lon="4.73384">
        <ele>184</ele>
        <time>2017-03-25T09:29:58Z</time>
      </trkpt>
      <trkpt lat="45.88627" lon="4.73382">
        <ele>183</ele>
        <time>2017-03-25T09:29:59Z</time>
      </trkpt>
      <trkpt lat="45.88621" lon="4.73383">
        <ele>183</ele>
        <time>2017-03-25T09:30:00Z</time>
      </trkpt>
      <trkpt lat="45.88615" lon="4.73385">
        <ele>183</ele>
        <time>2017-03-25T09:30:01Z</time>
      </trkpt>
      <trkpt lat="45.88608" lon="4.73387">
        <ele>183</ele>
        <time>2017-03-25T09:30:02Z</time>
      </trkpt>
      <trkpt lat="45.88602" lon="4.73389">
        <ele>183</ele>
        <time>2017-03-25T09:30:03Z</time>
      </trkpt>
      <trkpt lat="45.88596" lon="4.7339">
        <ele>183</ele>
        <time>2017-03-25T09:30:04Z</time>
      </trkpt>
      <trkpt lat="45.8859" lon="4.73391">
        <ele>183</ele>
        <time>2017-03-25T09:30:05Z</time>
      </trkpt>
      <trkpt lat="45.88584" lon="4.73392">
        <ele>183</ele>
        <time>2017-03-25T09:30:06Z</time>
      </trkpt>
      <trkpt lat="45.88577" lon="4.73393">
        <ele>183</ele>
        <time>2017-03-25T09:30:07Z</time>
      </trkpt>
      <trkpt lat="45.88571" lon="4.73395">
        <ele>183</ele>
        <time>2017-03-25T09:30:08Z</time>
      </trkpt>
      <trkpt lat="45.88565" lon="4.73397">
        <ele>183</ele>
        <time>2017-03-25T09:30:09Z</time>
      </trkpt>
      <trkpt lat="45.88558" lon="4.73398">
        <ele>183</ele>
        <time>2017-03-25T09:30:10Z</time>
      </trkpt>
      <trkpt lat="45.88552" lon="4.73401">
        <ele>183</ele>
        <time>2017-03-25T09:30:11Z</time>
      </trkpt>
      <trkpt lat="45.88546" lon="4.73403">
        <ele>183</ele>
        <time>2017-03-25T09:30:12Z</time>
      </trkpt>
      <trkpt lat="45.8854" lon="4.73405">
        <ele>183</ele>
        <time>2017-03-25T09:30:13Z</time>
      </trkpt>
      <trkpt lat="45.88535" lon="4.73407">
        <ele>183</ele>
        <time>2017-03-25T09:30:14Z</time>
      </trkpt>
      <trkpt lat="45.88529" lon="4.73408">
        <ele>183</ele>
        <time>2017-03-25T09:30:15Z</time>
      </trkpt>
      <trkpt lat="45.88524" lon="4.7341">
        <ele>183</ele>
        <time>2017-03-25T09:30:16Z</time>
      </trkpt>
      <trkpt lat="45.88519" lon="4.73411">
        <ele>184</ele>
        <time>2017-03-25T09:30:17Z</time>
      </trkpt>
      <trkpt lat="45.88514" lon="4.73413">
        <ele>184</ele>
        <time>2017-03-25T09:30:18Z</time>
      </trkpt>
      <trkpt lat="45.88508" lon="4.73415">
        <ele>184</ele>
        <time>2017-03-25T09:30:19Z</time>
      </trkpt>
      <trkpt lat="45.88503" lon="4.73416">
        <ele>184</ele>
        <time>2017-03-25T09:30:20Z</time>
      </trkpt>
      <trkpt lat="45.88498" lon="4.73418">
        <ele>184</ele>
        <time>2017-03-25T09:30:21Z</time>
      </trkpt>
      <trkpt lat="45.88492" lon="4.73419">
        <ele>184</ele>
        <time>2017-03-25T09:30:22Z</time>
      </trkpt>
      <trkpt lat="45.88487" lon="4.7342">
        <ele>184</ele>
        <time>2017-03-25T09:30:23Z</time>
      </trkpt>
      <trkpt lat="45.88481" lon="4.73422">
        <ele>184</ele>
        <time>2017-03-25T09:30:24Z</time>
      </trkpt>
      <trkpt lat="45.88476" lon="4.73423">
        <ele>184</ele>
        <time>2017-03-25T09:30:25Z</time>
      </trkpt>
      <trkpt lat="45.8847" lon="4.73425">
        <ele>184</ele>
        <time>2017-03-25T09:30:26Z</time>
      </trkpt>
      <trkpt lat="45.88465" lon="4.73427">
        <ele>184</ele>
        <time>2017-03-25T09:30:27Z</time>
      </trkpt>
      <trkpt lat="45.8846" lon="4.73428">
        <ele>184</ele>
        <time>2017-03-25T09:30:28Z</time>
      </trkpt>
      <trkpt lat="45.88454" lon="4.7343">
        <ele>184</ele>
        <time>2017-03-25T09:30:29Z</time>
      </trkpt>
      <trkpt lat="45.88449" lon="4.73431">
        <ele>184</ele>
        <time>2017-03-25T09:30:30Z</time>
      </trkpt>
      <trkpt lat="45.88444" lon="4.73433">
        <ele>184</ele>
        <time>2017-03-25T09:30:31Z</time>
      </trkpt>
      <trkpt lat="45.88439" lon="4.73434">
        <ele>184</ele>
        <time>2017-03-25T09:30:32Z</time>
      </trkpt>
      <trkpt lat="45.88434" lon="4.73436">
        <ele>184</ele>
        <time>2017-03-25T09:30:33Z</time>
      </trkpt>
      <trkpt lat="45.88429" lon="4.73438">
        <ele>184</ele>
        <time>2017-03-25T09:30:34Z</time>
      </trkpt>
      <trkpt lat="45.88423" lon="4.73439">
        <ele>184</ele>
        <time>2017-03-25T09:30:35Z</time>
      </trkpt>
      <trkpt lat="45.88418" lon="4.73441">
        <ele>184</ele>
        <time>2017-03-25T09:30:36Z</time>
      </trkpt>
      <trkpt lat="45.88412" lon="4.73442">
        <ele>184</ele>
        <time>2017-03-25T09:30:37Z</time>
      </trkpt>
      <trkpt lat="45.88406" lon="4.73444">
        <ele>184</ele>
        <time>2017-03-25T09:30:38Z</time>
      </trkpt>
      <trkpt lat="45.88401" lon="4.73445">
        <ele>184</ele>
        <time>2017-03-25T09:30:39Z</time>
      </trkpt>
      <trkpt lat="45.88395" lon="4.73447">
        <ele>184</ele>
        <time>2017-03-25T09:30:40Z</time>
      </trkpt>
      <trkpt lat="45.8839" lon="4.73449">
        <ele>184</ele>
        <time>2017-03-25T09:30:41Z</time>
      </trkpt>
      <trkpt lat="45.88384" lon="4.73451">
        <ele>184</ele>
        <time>2017-03-25T09:30:42Z</time>
      </trkpt>
      <trkpt lat="45.88379" lon="4.73452">
        <ele>184</ele>
        <time>2017-03-25T09:30:43Z</time>
      </trkpt>
      <trkpt lat="45.88374" lon="4.73453">
        <ele>184</ele>
        <time>2017-03-25T09:30:44Z</time>
      </trkpt>
      <trkpt lat="45.88369" lon="4.73455">
        <ele>184</ele>
        <time>2017-03-25T09:30:45Z</time>
      </trkpt>
      <trkpt lat="45.88364" lon="4.73456">
        <ele>184</ele>
        <time>2017-03-25T09:30:46Z</time>
      </trkpt>
      <trkpt lat="45.88359" lon="4.73458">
        <ele>184</ele>
        <time>2017-03-25T09:30:47Z</time>
      </trkpt>
      <trkpt lat="45.88353" lon="4.73459">
        <ele>184</ele>
        <time>2017-03-25T09:30:48Z</time>
      </trkpt>
      <trkpt lat="45.88348" lon="4.7346">
        <ele>184</ele>
        <time>2017-03-25T09:30:49Z</time>
      </trkpt>
      <trkpt lat="45.88343" lon="4.73462">
        <ele>184</ele>
        <time>2017-03-25T09:30:50Z</time>
      </trkpt>
      <trkpt lat="45.88338" lon="4.73463">
        <ele>184</ele>
        <time>2017-03-25T09:30:51Z</time>
      </trkpt>
      <trkpt lat="45.88333" lon="4.73465">
        <ele>184</ele>
        <time>2017-03-25T09:30:52Z</time>
      </trkpt>
      <trkpt lat="45.88327" lon="4.73466">
        <ele>184</ele>
        <time>2017-03-25T09:30:53Z</time>
      </trkpt>
      <trkpt lat="45.88322" lon="4.73468">
        <ele>184</ele>
        <time>2017-03-25T09:30:54Z</time>
      </trkpt>
      <trkpt lat="45.88317" lon="4.7347">
        <ele>184</ele>
        <time>2017-03-25T09:30:55Z</time>
      </trkpt>
      <trkpt lat="45.88312" lon="4.73472">
        <ele>184</ele>
        <time>2017-03-25T09:30:56Z</time>
      </trkpt>
      <trkpt lat="45.88307" lon="4.73474">
        <ele>184</ele>
        <time>2017-03-25T09:30:57Z</time>
      </trkpt>
      <trkpt lat="45.88301" lon="4.73476">
        <ele>184</ele>
        <time>2017-03-25T09:30:58Z</time>
      </trkpt>
      <trkpt lat="45.88296" lon="4.73478">
        <ele>184</ele>
        <time>2017-03-25T09:30:59Z</time>
      </trkpt>
      <trkpt lat="45.88291" lon="4.73481">
        <ele>184</ele>
        <time>2017-03-25T09:31:00Z</time>
      </trkpt>
      <trkpt lat="45.88285" lon="4.73484">
        <ele>184</ele>
        <time>2017-03-25T09:31:01Z</time>
      </trkpt>
      <trkpt lat="45.8828" lon="4.73487">
        <ele>184</ele>
        <time>2017-03-25T09:31:02Z</time>
      </trkpt>
      <trkpt lat="45.88275" lon="4.73491">
        <ele>184</ele>
        <time>2017-03-25T09:31:03Z</time>
      </trkpt>
      <trkpt lat="45.8827" lon="4.73494">
        <ele>184</ele>
        <time>2017-03-25T09:31:04Z</time>
      </trkpt>
      <trkpt lat="45.88265" lon="4.73497">
        <ele>185</ele>
        <time>2017-03-25T09:31:05Z</time>
      </trkpt>
      <trkpt lat="45.88261" lon="4.735">
        <ele>185</ele>
        <time>2017-03-25T09:31:06Z</time>
      </trkpt>
      <trkpt lat="45.88256" lon="4.73504">
        <ele>185</ele>
        <time>2017-03-25T09:31:07Z</time>
      </trkpt>
      <trkpt lat="45.88251" lon="4.73507">
        <ele>185</ele>
        <time>2017-03-25T09:31:08Z</time>
      </trkpt>
      <trkpt lat="45.88246" lon="4.7351">
        <ele>185</ele>
        <time>2017-03-25T09:31:09Z</time>
      </trkpt>
      <trkpt lat="45.88241" lon="4.73514">
        <ele>185</ele>
        <time>2017-03-25T09:31:10Z</time>
      </trkpt>
      <trkpt lat="45.88237" lon="4.73517">
        <ele>185</ele>
        <time>2017-03-25T09:31:11Z</time>
      </trkpt>
      <trkpt lat="45.88232" lon="4.7352">
        <ele>185</ele>
        <time>2017-03-25T09:31:12Z</time>
      </trkpt>
      <trkpt lat="45.88227" lon="4.73523">
        <ele>185</ele>
        <time>2017-03-25T09:31:13Z</time>
      </trkpt>
      <trkpt lat="45.88222" lon="4.73526">
        <ele>185</ele>
        <time>2017-03-25T09:31:14Z</time>
      </trkpt>
      <trkpt lat="45.88218" lon="4.73529">
        <ele>185</ele>
        <time>2017-03-25T09:31:15Z</time>
      </trkpt>
      <trkpt lat="45.88214" lon="4.73532">
        <ele>185</ele>
        <time>2017-03-25T09:31:16Z</time>
      </trkpt>
      <trkpt lat="45.88209" lon="4.73534">
        <ele>185</ele>
        <time>2017-03-25T09:31:17Z</time>
      </trkpt>
      <trkpt lat="45.88204" lon="4.73538">
        <ele>186</ele>
        <time>2017-03-25T09:31:18Z</time>
      </trkpt>
      <trkpt lat="45.88199" lon="4.73541">
        <ele>186</ele>
        <time>2017-03-25T09:31:19Z</time>
      </trkpt>
      <trkpt lat="45.88195" lon="4.73544">
        <ele>186</ele>
        <time>2017-03-25T09:31:20Z</time>
      </trkpt>
      <trkpt lat="45.8819" lon="4.73547">
        <ele>186</ele>
        <time>2017-03-25T09:31:21Z</time>
      </trkpt>
      <trkpt lat="45.88185" lon="4.7355">
        <ele>186</ele>
        <time>2017-03-25T09:31:22Z</time>
      </trkpt>
      <trkpt lat="45.8818" lon="4.73553">
        <ele>186</ele>
        <time>2017-03-25T09:31:23Z</time>
      </trkpt>
      <trkpt lat="45.88176" lon="4.73556">
        <ele>186</ele>
        <time>2017-03-25T09:31:24Z</time>
      </trkpt>
      <trkpt lat="45.88171" lon="4.73559">
        <ele>186</ele>
        <time>2017-03-25T09:31:25Z</time>
      </trkpt>
      <trkpt lat="45.88166" lon="4.73562">
        <ele>186</ele>
        <time>2017-03-25T09:31:26Z</time>
      </trkpt>
      <trkpt lat="45.88162" lon="4.73565">
        <ele>186</ele>
        <time>2017-03-25T09:31:27Z</time>
      </trkpt>
      <trkpt lat="45.88157" lon="4.73568">
        <ele>186</ele>
        <time>2017-03-25T09:31:28Z</time>
      </trkpt>
      <trkpt lat="45.88153" lon="4.73571">
        <ele>186</ele>
        <time>2017-03-25T09:31:29Z</time>
      </trkpt>
      <trkpt lat="45.88148" lon="4.73575">
        <ele>186</ele>
        <time>2017-03-25T09:31:30Z</time>
      </trkpt>
      <trkpt lat="45.88144" lon="4.73578">
        <ele>186</ele>
        <time>2017-03-25T09:31:31Z</time>
      </trkpt>
      <trkpt lat="45.8814" lon="4.73581">
        <ele>186</ele>
        <time>2017-03-25T09:31:32Z</time>
      </trkpt>
      <trkpt lat="45.88135" lon="4.73584">
        <ele>187</ele>
        <time>2017-03-25T09:31:33Z</time>
      </trkpt>
      <trkpt lat="45.88127" lon="4.73589">
        <ele>187</ele>
        <time>2017-03-25T09:31:35Z</time>
      </trkpt>
      <trkpt lat="45.88123" lon="4.73591">
        <ele>187</ele>
        <time>2017-03-25T09:31:36Z</time>
      </trkpt>
      <trkpt lat="45.88119" lon="4.73594">
        <ele>187</ele>
        <time>2017-03-25T09:31:37Z</time>
      </trkpt>
      <trkpt lat="45.88114" lon="4.73597">
        <ele>187</ele>
        <time>2017-03-25T09:31:38Z</time>
      </trkpt>
      <trkpt lat="45.88109" lon="4.73599">
        <ele>187</ele>
        <time>2017-03-25T09:31:39Z</time>
      </trkpt>
      <trkpt lat="45.88104" lon="4.73602">
        <ele>188</ele>
        <time>2017-03-25T09:31:40Z</time>
      </trkpt>
      <trkpt lat="45.88099" lon="4.73606">
        <ele>188</ele>
        <time>2017-03-25T09:31:41Z</time>
      </trkpt>
      <trkpt lat="45.88094" lon="4.73609">
        <ele>188</ele>
        <time>2017-03-25T09:31:42Z</time>
      </trkpt>
      <trkpt lat="45.8809" lon="4.73612">
        <ele>188</ele>
        <time>2017-03-25T09:31:43Z</time>
      </trkpt>
      <trkpt lat="45.88085" lon="4.73615">
        <ele>188</ele>
        <time>2017-03-25T09:31:44Z</time>
      </trkpt>
      <trkpt lat="45.8808" lon="4.73618">
        <ele>188</ele>
        <time>2017-03-25T09:31:45Z</time>
      </trkpt>
      <trkpt lat="45.88075" lon="4.73621">
        <ele>189</ele>
        <time>2017-03-25T09:31:46Z</time>
      </trkpt>
      <trkpt lat="45.8807" lon="4.73624">
        <ele>189</ele>
        <time>2017-03-25T09:31:47Z</time>
      </trkpt>
      <trkpt lat="45.88066" lon="4.73627">
        <ele>189</ele>
        <time>2017-03-25T09:31:48Z</time>
      </trkpt>
      <trkpt lat="45.88061" lon="4.73631">
        <ele>189</ele>
        <time>2017-03-25T09:31:49Z</time>
      </trkpt>
      <trkpt lat="45.88056" lon="4.73634">
        <ele>189</ele>
        <time>2017-03-25T09:31:50Z</time>
      </trkpt>
      <trkpt lat="45.88052" lon="4.73637">
        <ele>189</ele>
        <time>2017-03-25T09:31:51Z</time>
      </trkpt>
      <trkpt lat="45.88047" lon="4.7364">
        <ele>189</ele>
        <time>2017-03-25T09:31:52Z</time>
      </trkpt>
      <trkpt lat="45.88043" lon="4.73643">
        <ele>189</ele>
        <time>2017-03-25T09:31:53Z</time>
      </trkpt>
      <trkpt lat="45.88038" lon="4.73647">
        <ele>189</ele>
        <time>2017-03-25T09:31:54Z</time>
      </trkpt>
      <trkpt lat="45.88033" lon="4.73649">
        <ele>189</ele>
        <time>2017-03-25T09:31:55Z</time>
      </trkpt>
      <trkpt lat="45.88028" lon="4.73652">
        <ele>189</ele>
        <time>2017-03-25T09:31:56Z</time>
      </trkpt>
      <trkpt lat="45.88023" lon="4.73654">
        <ele>189</ele>
        <time>2017-03-25T09:31:57Z</time>
      </trkpt>
      <trkpt lat="45.88018" lon="4.73655">
        <ele>189</ele>
        <time>2017-03-25T09:31:58Z</time>
      </trkpt>
      <trkpt lat="45.88013" lon="4.73656">
        <ele>189</ele>
        <time>2017-03-25T09:31:59Z</time>
      </trkpt>
      <trkpt lat="45.88007" lon="4.73655">
        <ele>189</ele>
        <time>2017-03-25T09:32:00Z</time>
      </trkpt>
      <trkpt lat="45.88002" lon="4.73653">
        <ele>189</ele>
        <time>2017-03-25T09:32:01Z</time>
      </trkpt>
      <trkpt lat="45.87996" lon="4.73652">
        <ele>190</ele>
        <time>2017-03-25T09:32:02Z</time>
      </trkpt>
      <trkpt lat="45.87991" lon="4.7365">
        <ele>190</ele>
        <time>2017-03-25T09:32:03Z</time>
      </trkpt>
      <trkpt lat="45.87985" lon="4.73648">
        <ele>190</ele>
        <time>2017-03-25T09:32:04Z</time>
      </trkpt>
      <trkpt lat="45.8798" lon="4.73647">
        <ele>190</ele>
        <time>2017-03-25T09:32:05Z</time>
      </trkpt>
      <trkpt lat="45.87974" lon="4.73645">
        <ele>189</ele>
        <time>2017-03-25T09:32:06Z</time>
      </trkpt>
      <trkpt lat="45.87968" lon="4.73643">
        <ele>189</ele>
        <time>2017-03-25T09:32:07Z</time>
      </trkpt>
      <trkpt lat="45.87962" lon="4.73641">
        <ele>189</ele>
        <time>2017-03-25T09:32:08Z</time>
      </trkpt>
      <trkpt lat="45.87956" lon="4.73639">
        <ele>189</ele>
        <time>2017-03-25T09:32:09Z</time>
      </trkpt>
      <trkpt lat="45.87951" lon="4.73638">
        <ele>189</ele>
        <time>2017-03-25T09:32:10Z</time>
      </trkpt>
      <trkpt lat="45.87945" lon="4.73636">
        <ele>189</ele>
        <time>2017-03-25T09:32:11Z</time>
      </trkpt>
      <trkpt lat="45.87939" lon="4.73634">
        <ele>189</ele>
        <time>2017-03-25T09:32:12Z</time>
      </trkpt>
      <trkpt lat="45.87933" lon="4.73632">
        <ele>189</ele>
        <time>2017-03-25T09:32:13Z</time>
      </trkpt>
      <trkpt lat="45.87928" lon="4.73631">
        <ele>189</ele>
        <time>2017-03-25T09:32:14Z</time>
      </trkpt>
      <trkpt lat="45.87922" lon="4.73629">
        <ele>189</ele>
        <time>2017-03-25T09:32:15Z</time>
      </trkpt>
      <trkpt lat="45.87917" lon="4.73628">
        <ele>190</ele>
        <time>2017-03-25T09:32:16Z</time>
      </trkpt>
      <trkpt lat="45.87911" lon="4.73626">
        <ele>190</ele>
        <time>2017-03-25T09:32:17Z</time>
      </trkpt>
      <trkpt lat="45.87906" lon="4.73625">
        <ele>190</ele>
        <time>2017-03-25T09:32:18Z</time>
      </trkpt>
      <trkpt lat="45.87901" lon="4.73623">
        <ele>190</ele>
        <time>2017-03-25T09:32:19Z</time>
      </trkpt>
      <trkpt lat="45.87896" lon="4.73622">
        <ele>190</ele>
        <time>2017-03-25T09:32:20Z</time>
      </trkpt>
      <trkpt lat="45.87891" lon="4.7362">
        <ele>190</ele>
        <time>2017-03-25T09:32:21Z</time>
      </trkpt>
      <trkpt lat="45.87886" lon="4.73619">
        <ele>190</ele>
        <time>2017-03-25T09:32:22Z</time>
      </trkpt>
      <trkpt lat="45.87881" lon="4.73617">
        <ele>190</ele>
        <time>2017-03-25T09:32:23Z</time>
      </trkpt>
      <trkpt lat="45.87876" lon="4.73616">
        <ele>190</ele>
        <time>2017-03-25T09:32:24Z</time>
      </trkpt>
      <trkpt lat="45.87871" lon="4.73615">
        <ele>190</ele>
        <time>2017-03-25T09:32:25Z</time>
      </trkpt>
      <trkpt lat="45.87866" lon="4.73616">
        <ele>190</ele>
        <time>2017-03-25T09:32:26Z</time>
      </trkpt>
      <trkpt lat="45.8786" lon="4.73619">
        <ele>190</ele>
        <time>2017-03-25T09:32:27Z</time>
      </trkpt>
      <trkpt lat="45.87855" lon="4.73623">
        <ele>190</ele>
        <time>2017-03-25T09:32:28Z</time>
      </trkpt>
      <trkpt lat="45.87851" lon="4.73627">
        <ele>190</ele>
        <time>2017-03-25T09:32:29Z</time>
      </trkpt>
      <trkpt lat="45.87846" lon="4.73631">
        <ele>191</ele>
        <time>2017-03-25T09:32:30Z</time>
      </trkpt>
      <trkpt lat="45.87842" lon="4.73634">
        <ele>191</ele>
        <time>2017-03-25T09:32:31Z</time>
      </trkpt>
      <trkpt lat="45.87837" lon="4.73633">
        <ele>191</ele>
        <time>2017-03-25T09:32:32Z</time>
      </trkpt>
      <trkpt lat="45.87831" lon="4.73625">
        <ele>190</ele>
        <time>2017-03-25T09:32:34Z</time>
      </trkpt>
      <trkpt lat="45.87829" lon="4.73619">
        <ele>190</ele>
        <time>2017-03-25T09:32:35Z</time>
      </trkpt>
      <trkpt lat="45.87826" lon="4.73612">
        <ele>190</ele>
        <time>2017-03-25T09:32:36Z</time>
      </trkpt>
      <trkpt lat="45.87824" lon="4.73605">
        <ele>190</ele>
        <time>2017-03-25T09:32:37Z</time>
      </trkpt>
      <trkpt lat="45.87821" lon="4.73598">
        <ele>190</ele>
        <time>2017-03-25T09:32:38Z</time>
      </trkpt>
      <trkpt lat="45.87818" lon="4.7359">
        <ele>190</ele>
        <time>2017-03-25T09:32:39Z</time>
      </trkpt>
      <trkpt lat="45.87814" lon="4.73583">
        <ele>189</ele>
        <time>2017-03-25T09:32:40Z</time>
      </trkpt>
      <trkpt lat="45.87811" lon="4.73577">
        <ele>189</ele>
        <time>2017-03-25T09:32:41Z</time>
      </trkpt>
      <trkpt lat="45.87808" lon="4.7357">
        <ele>189</ele>
        <time>2017-03-25T09:32:42Z</time>
      </trkpt>
      <trkpt lat="45.87804" lon="4.73563">
        <ele>189</ele>
        <time>2017-03-25T09:32:43Z</time>
      </trkpt>
      <trkpt lat="45.87801" lon="4.73556">
        <ele>189</ele>
        <time>2017-03-25T09:32:44Z</time>
      </trkpt>
      <trkpt lat="45.87797" lon="4.73549">
        <ele>189</ele>
        <time>2017-03-25T09:32:45Z</time>
      </trkpt>
      <trkpt lat="45.87794" lon="4.73542">
        <ele>189</ele>
        <time>2017-03-25T09:32:46Z</time>
      </trkpt>
      <trkpt lat="45.8779" lon="4.73535">
        <ele>189</ele>
        <time>2017-03-25T09:32:47Z</time>
      </trkpt>
      <trkpt lat="45.87787" lon="4.73528">
        <ele>189</ele>
        <time>2017-03-25T09:32:48Z</time>
      </trkpt>
      <trkpt lat="45.87783" lon="4.73522">
        <ele>189</ele>
        <time>2017-03-25T09:32:49Z</time>
      </trkpt>
      <trkpt lat="45.8778" lon="4.73515">
        <ele>189</ele>
        <time>2017-03-25T09:32:50Z</time>
      </trkpt>
      <trkpt lat="45.87777" lon="4.73509">
        <ele>189</ele>
        <time>2017-03-25T09:32:51Z</time>
      </trkpt>
      <trkpt lat="45.87775" lon="4.73503">
        <ele>189</ele>
        <time>2017-03-25T09:32:52Z</time>
      </trkpt>
      <trkpt lat="45.87772" lon="4.73496">
        <ele>189</ele>
        <time>2017-03-25T09:32:53Z</time>
      </trkpt>
      <trkpt lat="45.87768" lon="4.7349">
        <ele>189</ele>
        <time>2017-03-25T09:32:54Z</time>
      </trkpt>
      <trkpt lat="45.87765" lon="4.73483">
        <ele>189</ele>
        <time>2017-03-25T09:32:55Z</time>
      </trkpt>
      <trkpt lat="45.87762" lon="4.73477">
        <ele>188</ele>
        <time>2017-03-25T09:32:56Z</time>
      </trkpt>
      <trkpt lat="45.87759" lon="4.7347">
        <ele>188</ele>
        <time>2017-03-25T09:32:57Z</time>
      </trkpt>
      <trkpt lat="45.87755" lon="4.73463">
        <ele>188</ele>
        <time>2017-03-25T09:32:58Z</time>
      </trkpt>
      <trkpt lat="45.87752" lon="4.73456">
        <ele>188</ele>
        <time>2017-03-25T09:32:59Z</time>
      </trkpt>
      <trkpt lat="45.87749" lon="4.7345">
        <ele>189</ele>
        <time>2017-03-25T09:33:00Z</time>
      </trkpt>
      <trkpt lat="45.87746" lon="4.73443">
        <ele>189</ele>
        <time>2017-03-25T09:33:01Z</time>
      </trkpt>
      <trkpt lat="45.87742" lon="4.73437">
        <ele>188</ele>
        <time>2017-03-25T09:33:02Z</time>
      </trkpt>
      <trkpt lat="45.87738" lon="4.7343">
        <ele>188</ele>
        <time>2017-03-25T09:33:03Z</time>
      </trkpt>
      <trkpt lat="45.87735" lon="4.73422">
        <ele>188</ele>
        <time>2017-03-25T09:33:04Z</time>
      </trkpt>
      <trkpt lat="45.87732" lon="4.73415">
        <ele>188</ele>
        <time>2017-03-25T09:33:05Z</time>
      </trkpt>
      <trkpt lat="45.87729" lon="4.73408">
        <ele>188</ele>
        <time>2017-03-25T09:33:06Z</time>
      </trkpt>
      <trkpt lat="45.87725" lon="4.73401">
        <ele>188</ele>
        <time>2017-03-25T09:33:07Z</time>
      </trkpt>
      <trkpt lat="45.87722" lon="4.73393">
        <ele>188</ele>
        <time>2017-03-25T09:33:08Z</time>
      </trkpt>
      <trkpt lat="45.87718" lon="4.73386">
        <ele>188</ele>
        <time>2017-03-25T09:33:09Z</time>
      </trkpt>
      <trkpt lat="45.87715" lon="4.73379">
        <ele>187</ele>
        <time>2017-03-25T09:33:10Z</time>
      </trkpt>
      <trkpt lat="45.87712" lon="4.73371">
        <ele>187</ele>
        <time>2017-03-25T09:33:11Z</time>
      </trkpt>
      <trkpt lat="45.87708" lon="4.73364">
        <ele>187</ele>
        <time>2017-03-25T09:33:12Z</time>
      </trkpt>
      <trkpt lat="45.87705" lon="4.73357">
        <ele>187</ele>
        <time>2017-03-25T09:33:13Z</time>
      </trkpt>
      <trkpt lat="45.87702" lon="4.7335">
        <ele>187</ele>
        <time>2017-03-25T09:33:14Z</time>
      </trkpt>
      <trkpt lat="45.87699" lon="4.73344">
        <ele>187</ele>
        <time>2017-03-25T09:33:15Z</time>
      </trkpt>
      <trkpt lat="45.87696" lon="4.73337">
        <ele>188</ele>
        <time>2017-03-25T09:33:16Z</time>
      </trkpt>
      <trkpt lat="45.87693" lon="4.7333">
        <ele>188</ele>
        <time>2017-03-25T09:33:17Z</time>
      </trkpt>
      <trkpt lat="45.8769" lon="4.73324">
        <ele>188</ele>
        <time>2017-03-25T09:33:18Z</time>
      </trkpt>
      <trkpt lat="45.87686" lon="4.73318">
        <ele>188</ele>
        <time>2017-03-25T09:33:19Z</time>
      </trkpt>
      <trkpt lat="45.87683" lon="4.73311">
        <ele>188</ele>
        <time>2017-03-25T09:33:20Z</time>
      </trkpt>
      <trkpt lat="45.87679" lon="4.73305">
        <ele>188</ele>
        <time>2017-03-25T09:33:21Z</time>
      </trkpt>
      <trkpt lat="45.87676" lon="4.73299">
        <ele>188</ele>
        <time>2017-03-25T09:33:22Z</time>
      </trkpt>
      <trkpt lat="45.87673" lon="4.73292">
        <ele>188</ele>
        <time>2017-03-25T09:33:23Z</time>
      </trkpt>
      <trkpt lat="45.8767" lon="4.73285">
        <ele>188</ele>
        <time>2017-03-25T09:33:24Z</time>
      </trkpt>
      <trkpt lat="45.87667" lon="4.73279">
        <ele>188</ele>
        <time>2017-03-25T09:33:25Z</time>
      </trkpt>
      <trkpt lat="45.87664" lon="4.73272">
        <ele>189</ele>
        <time>2017-03-25T09:33:26Z</time>
      </trkpt>
      <trkpt lat="45.87661" lon="4.73265">
        <ele>189</ele>
        <time>2017-03-25T09:33:27Z</time>
      </trkpt>
      <trkpt lat="45.87658" lon="4.73258">
        <ele>189</ele>
        <time>2017-03-25T09:33:28Z</time>
      </trkpt>
      <trkpt lat="45.87654" lon="4.73251">
        <ele>189</ele>
        <time>2017-03-25T09:33:29Z</time>
      </trkpt>
      <trkpt lat="45.87651" lon="4.73245">
        <ele>188</ele>
        <time>2017-03-25T09:33:30Z</time>
      </trkpt>
      <trkpt lat="45.87648" lon="4.73238">
        <ele>188</ele>
        <time>2017-03-25T09:33:31Z</time>
      </trkpt>
      <trkpt lat="45.87645" lon="4.73231">
        <ele>188</ele>
        <time>2017-03-25T09:33:32Z</time>
      </trkpt>
      <trkpt lat="45.87641" lon="4.73224">
        <ele>188</ele>
        <time>2017-03-25T09:33:33Z</time>
      </trkpt>
      <trkpt lat="45.87637" lon="4.73217">
        <ele>188</ele>
        <time>2017-03-25T09:33:34Z</time>
      </trkpt>
      <trkpt lat="45.87634" lon="4.7321">
        <ele>188</ele>
        <time>2017-03-25T09:33:35Z</time>
      </trkpt>
      <trkpt lat="45.8763" lon="4.73202">
        <ele>188</ele>
        <time>2017-03-25T09:33:36Z</time>
      </trkpt>
      <trkpt lat="45.87626" lon="4.73195">
        <ele>188</ele>
        <time>2017-03-25T09:33:37Z</time>
      </trkpt>
      <trkpt lat="45.87623" lon="4.73187">
        <ele>188</ele>
        <time>2017-03-25T09:33:38Z</time>
      </trkpt>
      <trkpt lat="45.8762" lon="4.7318">
        <ele>188</ele>
        <time>2017-03-25T09:33:39Z</time>
      </trkpt>
      <trkpt lat="45.87616" lon="4.73172">
        <ele>187</ele>
        <time>2017-03-25T09:33:40Z</time>
      </trkpt>
      <trkpt lat="45.87613" lon="4.73165">
        <ele>187</ele>
        <time>2017-03-25T09:33:41Z</time>
      </trkpt>
      <trkpt lat="45.8761" lon="4.73157">
        <ele>187</ele>
        <time>2017-03-25T09:33:42Z</time>
      </trkpt>
      <trkpt lat="45.87606" lon="4.7315">
        <ele>187</ele>
        <time>2017-03-25T09:33:43Z</time>
      </trkpt>
      <trkpt lat="45.87602" lon="4.73143">
        <ele>187</ele>
        <time>2017-03-25T09:33:44Z</time>
      </trkpt>
      <trkpt lat="45.87598" lon="4.73135">
        <ele>187</ele>
        <time>2017-03-25T09:33:45Z</time>
      </trkpt>
      <trkpt lat="45.87594" lon="4.73127">
        <ele>187</ele>
        <time>2017-03-25T09:33:46Z</time>
      </trkpt>
      <trkpt lat="45.8759" lon="4.73119">
        <ele>188</ele>
        <time>2017-03-25T09:33:47Z</time>
      </trkpt>
      <trkpt lat="45.87586" lon="4.73111">
        <ele>188</ele>
        <time>2017-03-25T09:33:48Z</time>
      </trkpt>
      <trkpt lat="45.87581" lon="4.73103">
        <ele>188</ele>
        <time>2017-03-25T09:33:49Z</time>
      </trkpt>
      <trkpt lat="45.87577" lon="4.73094">
        <ele>188</ele>
        <time>2017-03-25T09:33:50Z</time>
      </trkpt>
      <trkpt lat="45.87573" lon="4.73086">
        <ele>188</ele>
        <time>2017-03-25T09:33:51Z</time>
      </trkpt>
      <trkpt lat="45.87569" lon="4.73078">
        <ele>188</ele>
        <time>2017-03-25T09:33:52Z</time>
      </trkpt>
      <trkpt lat="45.87565" lon="4.7307">
        <ele>188</ele>
        <time>2017-03-25T09:33:53Z</time>
      </trkpt>
      <trkpt lat="45.87561" lon="4.73062">
        <ele>188</ele>
        <time>2017-03-25T09:33:54Z</time>
      </trkpt>
      <trkpt lat="45.87557" lon="4.73054">
        <ele>188</ele>
        <time>2017-03-25T09:33:55Z</time>
      </trkpt>
      <trkpt lat="45.87553" lon="4.73047">
        <ele>188</ele>
        <time>2017-03-25T09:33:56Z</time>
      </trkpt>
      <trkpt lat="45.87549" lon="4.7304">
        <ele>188</ele>
        <time>2017-03-25T09:33:57Z</time>
      </trkpt>
      <trkpt lat="45.87546" lon="4.73033">
        <ele>188</ele>
        <time>2017-03-25T09:33:58Z</time>
      </trkpt>
      <trkpt lat="45.87542" lon="4.73025">
        <ele>188</ele>
        <time>2017-03-25T09:33:59Z</time>
      </trkpt>
      <trkpt lat="45.87539" lon="4.73018">
        <ele>187</ele>
        <time>2017-03-25T09:34:00Z</time>
      </trkpt>
      <trkpt lat="45.87537" lon="4.73012">
        <ele>187</ele>
        <time>2017-03-25T09:34:01Z</time>
      </trkpt>
      <trkpt lat="45.87534" lon="4.73005">
        <ele>187</ele>
        <time>2017-03-25T09:34:02Z</time>
      </trkpt>
      <trkpt lat="45.8753" lon="4.72998">
        <ele>187</ele>
        <time>2017-03-25T09:34:03Z</time>
      </trkpt>
      <trkpt lat="45.87527" lon="4.72991">
        <ele>187</ele>
        <time>2017-03-25T09:34:04Z</time>
      </trkpt>
      <trkpt lat="45.87523" lon="4.72984">
        <ele>187</ele>
        <time>2017-03-25T09:34:05Z</time>
      </trkpt>
      <trkpt lat="45.8752" lon="4.72976">
        <ele>187</ele>
        <time>2017-03-25T09:34:06Z</time>
      </trkpt>
      <trkpt lat="45.87516" lon="4.7297">
        <ele>187</ele>
        <time>2017-03-25T09:34:07Z</time>
      </trkpt>
      <trkpt lat="45.87512" lon="4.72963">
        <ele>187</ele>
        <time>2017-03-25T09:34:08Z</time>
      </trkpt>
      <trkpt lat="45.87508" lon="4.72957">
        <ele>187</ele>
        <time>2017-03-25T09:34:09Z</time>
      </trkpt>
      <trkpt lat="45.87504" lon="4.72951">
        <ele>187</ele>
        <time>2017-03-25T09:34:10Z</time>
      </trkpt>
      <trkpt lat="45.87499" lon="4.72946">
        <ele>188</ele>
        <time>2017-03-25T09:34:11Z</time>
      </trkpt>
      <trkpt lat="45.87494" lon="4.72942">
        <ele>188</ele>
        <time>2017-03-25T09:34:12Z</time>
      </trkpt>
      <trkpt lat="45.87489" lon="4.72938">
        <ele>188</ele>
        <time>2017-03-25T09:34:13Z</time>
      </trkpt>
      <trkpt lat="45.87484" lon="4.72935">
        <ele>188</ele>
        <time>2017-03-25T09:34:14Z</time>
      </trkpt>
      <trkpt lat="45.87479" lon="4.72932">
        <ele>188</ele>
        <time>2017-03-25T09:34:15Z</time>
      </trkpt>
      <trkpt lat="45.87474" lon="4.72928">
        <ele>188</ele>
        <time>2017-03-25T09:34:16Z</time>
      </trkpt>
      <trkpt lat="45.8747" lon="4.72923">
        <ele>188</ele>
        <time>2017-03-25T09:34:17Z</time>
      </trkpt>
      <trkpt lat="45.87466" lon="4.72916">
        <ele>188</ele>
        <time>2017-03-25T09:34:18Z</time>
      </trkpt>
      <trkpt lat="45.87464" lon="4.72909">
        <ele>188</ele>
        <time>2017-03-25T09:34:19Z</time>
      </trkpt>
      <trkpt lat="45.87462" lon="4.72903">
        <ele>188</ele>
        <time>2017-03-25T09:34:20Z</time>
      </trkpt>
      <trkpt lat="45.8746" lon="4.72897">
        <ele>188</ele>
        <time>2017-03-25T09:34:21Z</time>
      </trkpt>
      <trkpt lat="45.87457" lon="4.72886">
        <ele>188</ele>
        <time>2017-03-25T09:34:23Z</time>
      </trkpt>
      <trkpt lat="45.87456" lon="4.7288">
        <ele>188</ele>
        <time>2017-03-25T09:34:24Z</time>
      </trkpt>
      <trkpt lat="45.87454" lon="4.72874">
        <ele>188</ele>
        <time>2017-03-25T09:34:25Z</time>
      </trkpt>
      <trkpt lat="45.87452" lon="4.72867">
        <ele>188</ele>
        <time>2017-03-25T09:34:26Z</time>
      </trkpt>
      <trkpt lat="45.8745" lon="4.7286">
        <ele>188</ele>
        <time>2017-03-25T09:34:27Z</time>
      </trkpt>
      <trkpt lat="45.87447" lon="4.72853">
        <ele>188</ele>
        <time>2017-03-25T09:34:28Z</time>
      </trkpt>
      <trkpt lat="45.87444" lon="4.72846">
        <ele>188</ele>
        <time>2017-03-25T09:34:29Z</time>
      </trkpt>
      <trkpt lat="45.87442" lon="4.7284">
        <ele>188</ele>
        <time>2017-03-25T09:34:30Z</time>
      </trkpt>
      <trkpt lat="45.87439" lon="4.72833">
        <ele>189</ele>
        <time>2017-03-25T09:34:31Z</time>
      </trkpt>
      <trkpt lat="45.87436" lon="4.72826">
        <ele>189</ele>
        <time>2017-03-25T09:34:32Z</time>
      </trkpt>
      <trkpt lat="45.87433" lon="4.72819">
        <ele>189</ele>
        <time>2017-03-25T09:34:33Z</time>
      </trkpt>
      <trkpt lat="45.87431" lon="4.72812">
        <ele>189</ele>
        <time>2017-03-25T09:34:34Z</time>
      </trkpt>
      <trkpt lat="45.87428" lon="4.72805">
        <ele>189</ele>
        <time>2017-03-25T09:34:35Z</time>
      </trkpt>
      <trkpt lat="45.87425" lon="4.72798">
        <ele>189</ele>
        <time>2017-03-25T09:34:36Z</time>
      </trkpt>
      <trkpt lat="45.87422" lon="4.72792">
        <ele>189</ele>
        <time>2017-03-25T09:34:37Z</time>
      </trkpt>
      <trkpt lat="45.87419" lon="4.72785">
        <ele>189</ele>
        <time>2017-03-25T09:34:38Z</time>
      </trkpt>
      <trkpt lat="45.87416" lon="4.72778">
        <ele>189</ele>
        <time>2017-03-25T09:34:39Z</time>
      </trkpt>
      <trkpt lat="45.87413" lon="4.72772">
        <ele>189</ele>
        <time>2017-03-25T09:34:40Z</time>
      </trkpt>
      <trkpt lat="45.8741" lon="4.72765">
        <ele>189</ele>
        <time>2017-03-25T09:34:41Z</time>
      </trkpt>
      <trkpt lat="45.87406" lon="4.72759">
        <ele>189</ele>
        <time>2017-03-25T09:34:42Z</time>
      </trkpt>
      <trkpt lat="45.87403" lon="4.72754">
        <ele>189</ele>
        <time>2017-03-25T09:34:43Z</time>
      </trkpt>
      <trkpt lat="45.874" lon="4.72749">
        <ele>189</ele>
        <time>2017-03-25T09:34:44Z</time>
      </trkpt>
      <trkpt lat="45.87394" lon="4.72739">
        <ele>189</ele>
        <time>2017-03-25T09:34:46Z</time>
      </trkpt>
      <trkpt lat="45.87391" lon="4.72735">
        <ele>190</ele>
        <time>2017-03-25T09:34:47Z</time>
      </trkpt>
      <trkpt lat="45.87387" lon="4.7273">
        <ele>190</ele>
        <time>2017-03-25T09:34:48Z</time>
      </trkpt>
      <trkpt lat="45.87384" lon="4.72724">
        <ele>190</ele>
        <time>2017-03-25T09:34:49Z</time>
      </trkpt>
      <trkpt lat="45.87382" lon="4.72716">
        <ele>190</ele>
        <time>2017-03-25T09:34:50Z</time>
      </trkpt>
      <trkpt lat="45.87379" lon="4.72709">
        <ele>190</ele>
        <time>2017-03-25T09:34:51Z</time>
      </trkpt>
      <trkpt lat="45.87376" lon="4.72702">
        <ele>190</ele>
        <time>2017-03-25T09:34:52Z</time>
      </trkpt>
      <trkpt lat="45.87372" lon="4.72696">
        <ele>190</ele>
        <time>2017-03-25T09:34:53Z</time>
      </trkpt>
      <trkpt lat="45.87368" lon="4.7269">
        <ele>190</ele>
        <time>2017-03-25T09:34:54Z</time>
      </trkpt>
      <trkpt lat="45.87363" lon="4.72684">
        <ele>190</ele>
        <time>2017-03-25T09:34:55Z</time>
      </trkpt>
      <trkpt lat="45.87359" lon="4.72679">
        <ele>190</ele>
        <time>2017-03-25T09:34:56Z</time>
      </trkpt>
      <trkpt lat="45.87355" lon="4.72674">
        <ele>190</ele>
        <time>2017-03-25T09:34:57Z</time>
      </trkpt>
      <trkpt lat="45.8735" lon="4.72669">
        <ele>190</ele>
        <time>2017-03-25T09:34:58Z</time>
      </trkpt>
      <trkpt lat="45.87345" lon="4.72665">
        <ele>190</ele>
        <time>2017-03-25T09:34:59Z</time>
      </trkpt>
      <trkpt lat="45.8734" lon="4.72662">
        <ele>190</ele>
        <time>2017-03-25T09:35:00Z</time>
      </trkpt>
      <trkpt lat="45.87336" lon="4.72657">
        <ele>190</ele>
        <time>2017-03-25T09:35:01Z</time>
      </trkpt>
      <trkpt lat="45.87332" lon="4.72653">
        <ele>192</ele>
        <time>2017-03-25T09:35:02Z</time>
      </trkpt>
      <trkpt lat="45.87328" lon="4.72649">
        <ele>192</ele>
        <time>2017-03-25T09:35:03Z</time>
      </trkpt>
      <trkpt lat="45.87323" lon="4.72645">
        <ele>192</ele>
        <time>2017-03-25T09:35:04Z</time>
      </trkpt>
      <trkpt lat="45.8732" lon="4.7264">
        <ele>193</ele>
        <time>2017-03-25T09:35:05Z</time>
      </trkpt>
      <trkpt lat="45.87316" lon="4.72636">
        <ele>193</ele>
        <time>2017-03-25T09:35:06Z</time>
      </trkpt>
      <trkpt lat="45.87312" lon="4.72631">
        <ele>193</ele>
        <time>2017-03-25T09:35:07Z</time>
      </trkpt>
      <trkpt lat="45.87308" lon="4.72626">
        <ele>193</ele>
        <time>2017-03-25T09:35:08Z</time>
      </trkpt>
      <trkpt lat="45.87305" lon="4.72621">
        <ele>193</ele>
        <time>2017-03-25T09:35:09Z</time>
      </trkpt>
      <trkpt lat="45.87301" lon="4.72616">
        <ele>194</ele>
        <time>2017-03-25T09:35:10Z</time>
      </trkpt>
      <trkpt lat="45.87297" lon="4.72612">
        <ele>194</ele>
        <time>2017-03-25T09:35:11Z</time>
      </trkpt>
      <trkpt lat="45.87292" lon="4.72608">
        <ele>194</ele>
        <time>2017-03-25T09:35:12Z</time>
      </trkpt>
      <trkpt lat="45.87289" lon="4.72602">
        <ele>194</ele>
        <time>2017-03-25T09:35:13Z</time>
      </trkpt>
      <trkpt lat="45.87285" lon="4.72596">
        <ele>194</ele>
        <time>2017-03-25T09:35:14Z</time>
      </trkpt>
      <trkpt lat="45.87281" lon="4.72591">
        <ele>195</ele>
        <time>2017-03-25T09:35:15Z</time>
      </trkpt>
      <trkpt lat="45.87276" lon="4.72586">
        <ele>195</ele>
        <time>2017-03-25T09:35:16Z</time>
      </trkpt>
      <trkpt lat="45.87272" lon="4.72581">
        <ele>195</ele>
        <time>2017-03-25T09:35:17Z</time>
      </trkpt>
      <trkpt lat="45.87269" lon="4.72576">
        <ele>195</ele>
        <time>2017-03-25T09:35:18Z</time>
      </trkpt>
      <trkpt lat="45.87265" lon="4.72571">
        <ele>195</ele>
        <time>2017-03-25T09:35:19Z</time>
      </trkpt>
      <trkpt lat="45.87259" lon="4.72563">
        <ele>195</ele>
        <time>2017-03-25T09:35:21Z</time>
      </trkpt>
      <trkpt lat="45.87256" lon="4.72559">
        <ele>194</ele>
        <time>2017-03-25T09:35:22Z</time>
      </trkpt>
      <trkpt lat="45.87251" lon="4.72551">
        <ele>194</ele>
        <time>2017-03-25T09:35:24Z</time>
      </trkpt>
      <trkpt lat="45.87249" lon="4.72546">
        <ele>197</ele>
        <time>2017-03-25T09:35:25Z</time>
      </trkpt>
      <trkpt lat="45.87246" lon="4.72538">
        <ele>197</ele>
        <time>2017-03-25T09:35:27Z</time>
      </trkpt>
      <trkpt lat="45.87243" lon="4.72533">
        <ele>197</ele>
        <time>2017-03-25T09:35:28Z</time>
      </trkpt>
      <trkpt lat="45.87239" lon="4.72523">
        <ele>196</ele>
        <time>2017-03-25T09:35:30Z</time>
      </trkpt>
      <trkpt lat="45.87237" lon="4.72517">
        <ele>196</ele>
        <time>2017-03-25T09:35:31Z</time>
      </trkpt>
      <trkpt lat="45.87234" lon="4.72511">
        <ele>196</ele>
        <time>2017-03-25T09:35:32Z</time>
      </trkpt>
      <trkpt lat="45.87231" lon="4.72505">
        <ele>196</ele>
        <time>2017-03-25T09:35:33Z</time>
      </trkpt>
      <trkpt lat="45.87228" lon="4.725">
        <ele>196</ele>
        <time>2017-03-25T09:35:34Z</time>
      </trkpt>
      <trkpt lat="45.87224" lon="4.72495">
        <ele>194</ele>
        <time>2017-03-25T09:35:35Z</time>
      </trkpt>
      <trkpt lat="45.87221" lon="4.7249">
        <ele>194</ele>
        <time>2017-03-25T09:35:36Z</time>
      </trkpt>
      <trkpt lat="45.87218" lon="4.72485">
        <ele>194</ele>
        <time>2017-03-25T09:35:37Z</time>
      </trkpt>
      <trkpt lat="45.87213" lon="4.72476">
        <ele>194</ele>
        <time>2017-03-25T09:35:39Z</time>
      </trkpt>
      <trkpt lat="45.87211" lon="4.72472">
        <ele>194</ele>
        <time>2017-03-25T09:35:40Z</time>
      </trkpt>
      <trkpt lat="45.87205" lon="4.72462">
        <ele>194</ele>
        <time>2017-03-25T09:35:42Z</time>
      </trkpt>
      <trkpt lat="45.87202" lon="4.72458">
        <ele>194</ele>
        <time>2017-03-25T09:35:43Z</time>
      </trkpt>
      <trkpt lat="45.87195" lon="4.7245">
        <ele>194</ele>
        <time>2017-03-25T09:35:45Z</time>
      </trkpt>
      <trkpt lat="45.87192" lon="4.72445">
        <ele>194</ele>
        <time>2017-03-25T09:35:46Z</time>
      </trkpt>
      <trkpt lat="45.87189" lon="4.7244">
        <ele>194</ele>
        <time>2017-03-25T09:35:47Z</time>
      </trkpt>
      <trkpt lat="45.87186" lon="4.72436">
        <ele>194</ele>
        <time>2017-03-25T09:35:48Z</time>
      </trkpt>
      <trkpt lat="45.87179" lon="4.72428">
        <ele>194</ele>
        <time>2017-03-25T09:35:50Z</time>
      </trkpt>
      <trkpt lat="45.87176" lon="4.72424">
        <ele>194</ele>
        <time>2017-03-25T09:35:51Z</time>
      </trkpt>
      <trkpt lat="45.8717" lon="4.72415">
        <ele>193</ele>
        <time>2017-03-25T09:35:53Z</time>
      </trkpt>
      <trkpt lat="45.87168" lon="4.72409">
        <ele>193</ele>
        <time>2017-03-25T09:35:54Z</time>
      </trkpt>
      <trkpt lat="45.87165" lon="4.72403">
        <ele>196</ele>
        <time>2017-03-25T09:35:55Z</time>
      </trkpt>
      <trkpt lat="45.87163" lon="4.72397">
        <ele>197</ele>
        <time>2017-03-25T09:35:56Z</time>
      </trkpt>
      <trkpt lat="45.8716" lon="4.72391">
        <ele>197</ele>
        <time>2017-03-25T09:35:57Z</time>
      </trkpt>
      <trkpt lat="45.87158" lon="4.72385">
        <ele>197</ele>
        <time>2017-03-25T09:35:58Z</time>
      </trkpt>
      <trkpt lat="45.87155" lon="4.72378">
        <ele>197</ele>
        <time>2017-03-25T09:35:59Z</time>
      </trkpt>
      <trkpt lat="45.87152" lon="4.72372">
        <ele>197</ele>
        <time>2017-03-25T09:36:00Z</time>
      </trkpt>
      <trkpt lat="45.8715" lon="4.72366">
        <ele>197</ele>
        <time>2017-03-25T09:36:01Z</time>
      </trkpt>
      <trkpt lat="45.87147" lon="4.72359">
        <ele>197</ele>
        <time>2017-03-25T09:36:02Z</time>
      </trkpt>
      <trkpt lat="45.87145" lon="4.72353">
        <ele>197</ele>
        <time>2017-03-25T09:36:03Z</time>
      </trkpt>
      <trkpt lat="45.87142" lon="4.72346">
        <ele>196</ele>
        <time>2017-03-25T09:36:04Z</time>
      </trkpt>
      <trkpt lat="45.87139" lon="4.72339">
        <ele>197</ele>
        <time>2017-03-25T09:36:05Z</time>
      </trkpt>
      <trkpt lat="45.87136" lon="4.72332">
        <ele>195</ele>
        <time>2017-03-25T09:36:06Z</time>
      </trkpt>
      <trkpt lat="45.87133" lon="4.72326">
        <ele>195</ele>
        <time>2017-03-25T09:36:07Z</time>
      </trkpt>
      <trkpt lat="45.8713" lon="4.72319">
        <ele>196</ele>
        <time>2017-03-25T09:36:08Z</time>
      </trkpt>
      <trkpt lat="45.87127" lon="4.72312">
        <ele>196</ele>
        <time>2017-03-25T09:36:09Z</time>
      </trkpt>
      <trkpt lat="45.87123" lon="4.72305">
        <ele>196</ele>
        <time>2017-03-25T09:36:10Z</time>
      </trkpt>
      <trkpt lat="45.8712" lon="4.72299">
        <ele>197</ele>
        <time>2017-03-25T09:36:11Z</time>
      </trkpt>
      <trkpt lat="45.87117" lon="4.72292">
        <ele>197</ele>
        <time>2017-03-25T09:36:12Z</time>
      </trkpt>
      <trkpt lat="45.87113" lon="4.72286">
        <ele>197</ele>
        <time>2017-03-25T09:36:13Z</time>
      </trkpt>
      <trkpt lat="45.8711" lon="4.7228">
        <ele>197</ele>
        <time>2017-03-25T09:36:14Z</time>
      </trkpt>
      <trkpt lat="45.87106" lon="4.72275">
        <ele>197</ele>
        <time>2017-03-25T09:36:15Z</time>
      </trkpt>
      <trkpt lat="45.87101" lon="4.7227">
        <ele>197</ele>
        <time>2017-03-25T09:36:16Z</time>
      </trkpt>
      <trkpt lat="45.87097" lon="4.72265">
        <ele>198</ele>
        <time>2017-03-25T09:36:17Z</time>
      </trkpt>
      <trkpt lat="45.87092" lon="4.7226">
        <ele>198</ele>
        <time>2017-03-25T09:36:18Z</time>
      </trkpt>
      <trkpt lat="45.87088" lon="4.72255">
        <ele>198</ele>
        <time>2017-03-25T09:36:19Z</time>
      </trkpt>
      <trkpt lat="45.87084" lon="4.7225">
        <ele>199</ele>
        <time>2017-03-25T09:36:20Z</time>
      </trkpt>
      <trkpt lat="45.8708" lon="4.72245">
        <ele>199</ele>
        <time>2017-03-25T09:36:21Z</time>
      </trkpt>
      <trkpt lat="45.87076" lon="4.7224">
        <ele>200</ele>
        <time>2017-03-25T09:36:22Z</time>
      </trkpt>
      <trkpt lat="45.87071" lon="4.72234">
        <ele>200</ele>
        <time>2017-03-25T09:36:23Z</time>
      </trkpt>
      <trkpt lat="45.87066" lon="4.72229">
        <ele>200</ele>
        <time>2017-03-25T09:36:24Z</time>
      </trkpt>
      <trkpt lat="45.87061" lon="4.72224">
        <ele>200</ele>
        <time>2017-03-25T09:36:25Z</time>
      </trkpt>
      <trkpt lat="45.87056" lon="4.7222">
        <ele>200</ele>
        <time>2017-03-25T09:36:26Z</time>
      </trkpt>
      <trkpt lat="45.87051" lon="4.72215">
        <ele>200</ele>
        <time>2017-03-25T09:36:27Z</time>
      </trkpt>
      <trkpt lat="45.87046" lon="4.72211">
        <ele>201</ele>
        <time>2017-03-25T09:36:28Z</time>
      </trkpt>
      <trkpt lat="45.87041" lon="4.72207">
        <ele>201</ele>
        <time>2017-03-25T09:36:29Z</time>
      </trkpt>
      <trkpt lat="45.87035" lon="4.72203">
        <ele>201</ele>
        <time>2017-03-25T09:36:30Z</time>
      </trkpt>
      <trkpt lat="45.8703" lon="4.72199">
        <ele>201</ele>
        <time>2017-03-25T09:36:31Z</time>
      </trkpt>
      <trkpt lat="45.87024" lon="4.72195">
        <ele>201</ele>
        <time>2017-03-25T09:36:32Z</time>
      </trkpt>
      <trkpt lat="45.87018" lon="4.72191">
        <ele>201</ele>
        <time>2017-03-25T09:36:33Z</time>
      </trkpt>
      <trkpt lat="45.87013" lon="4.72187">
        <ele>201</ele>
        <time>2017-03-25T09:36:34Z</time>
      </trkpt>
      <trkpt lat="45.87008" lon="4.72183">
        <ele>201</ele>
        <time>2017-03-25T09:36:35Z</time>
      </trkpt>
      <trkpt lat="45.87002" lon="4.7218">
        <ele>201</ele>
        <time>2017-03-25T09:36:36Z</time>
      </trkpt>
      <trkpt lat="45.86997" lon="4.72176">
        <ele>205</ele>
        <time>2017-03-25T09:36:37Z</time>
      </trkpt>
      <trkpt lat="45.86992" lon="4.72172">
        <ele>205</ele>
        <time>2017-03-25T09:36:38Z</time>
      </trkpt>
      <trkpt lat="45.86986" lon="4.72169">
        <ele>206</ele>
        <time>2017-03-25T09:36:39Z</time>
      </trkpt>
      <trkpt lat="45.86981" lon="4.72165">
        <ele>201</ele>
        <time>2017-03-25T09:36:40Z</time>
      </trkpt>
      <trkpt lat="45.86976" lon="4.72161">
        <ele>201</ele>
        <time>2017-03-25T09:36:41Z</time>
      </trkpt>
      <trkpt lat="45.8697" lon="4.72158">
        <ele>201</ele>
        <time>2017-03-25T09:36:42Z</time>
      </trkpt>
      <trkpt lat="45.86965" lon="4.72154">
        <ele>201</ele>
        <time>2017-03-25T09:36:43Z</time>
      </trkpt>
      <trkpt lat="45.86959" lon="4.7215">
        <ele>201</ele>
        <time>2017-03-25T09:36:44Z</time>
      </trkpt>
      <trkpt lat="45.86954" lon="4.72146">
        <ele>201</ele>
        <time>2017-03-25T09:36:45Z</time>
      </trkpt>
      <trkpt lat="45.86949" lon="4.72143">
        <ele>201</ele>
        <time>2017-03-25T09:36:46Z</time>
      </trkpt>
      <trkpt lat="45.86943" lon="4.72139">
        <ele>201</ele>
        <time>2017-03-25T09:36:47Z</time>
      </trkpt>
      <trkpt lat="45.86937" lon="4.72135">
        <ele>201</ele>
        <time>2017-03-25T09:36:48Z</time>
      </trkpt>
      <trkpt lat="45.86931" lon="4.72132">
        <ele>201</ele>
        <time>2017-03-25T09:36:49Z</time>
      </trkpt>
      <trkpt lat="45.86925" lon="4.72129">
        <ele>200</ele>
        <time>2017-03-25T09:36:50Z</time>
      </trkpt>
      <trkpt lat="45.86919" lon="4.72126">
        <ele>200</ele>
        <time>2017-03-25T09:36:51Z</time>
      </trkpt>
      <trkpt lat="45.86913" lon="4.72123">
        <ele>202</ele>
        <time>2017-03-25T09:36:52Z</time>
      </trkpt>
      <trkpt lat="45.86906" lon="4.72121">
        <ele>202</ele>
        <time>2017-03-25T09:36:53Z</time>
      </trkpt>
      <trkpt lat="45.869" lon="4.72118">
        <ele>201</ele>
        <time>2017-03-25T09:36:54Z</time>
      </trkpt>
      <trkpt lat="45.86893" lon="4.72115">
        <ele>201</ele>
        <time>2017-03-25T09:36:55Z</time>
      </trkpt>
      <trkpt lat="45.86887" lon="4.72112">
        <ele>201</ele>
        <time>2017-03-25T09:36:56Z</time>
      </trkpt>
      <trkpt lat="45.86881" lon="4.72109">
        <ele>201</ele>
        <time>2017-03-25T09:36:57Z</time>
      </trkpt>
      <trkpt lat="45.86875" lon="4.72106">
        <ele>200</ele>
        <time>2017-03-25T09:36:58Z</time>
      </trkpt>
      <trkpt lat="45.86869" lon="4.72104">
        <ele>200</ele>
        <time>2017-03-25T09:36:59Z</time>
      </trkpt>
      <trkpt lat="45.86864" lon="4.72101">
        <ele>200</ele>
        <time>2017-03-25T09:37:00Z</time>
      </trkpt>
      <trkpt lat="45.86858" lon="4.72099">
        <ele>199</ele>
        <time>2017-03-25T09:37:01Z</time>
      </trkpt>
      <trkpt lat="45.86852" lon="4.72097">
        <ele>199</ele>
        <time>2017-03-25T09:37:02Z</time>
      </trkpt>
      <trkpt lat="45.86846" lon="4.72094">
        <ele>198</ele>
        <time>2017-03-25T09:37:03Z</time>
      </trkpt>
      <trkpt lat="45.86841" lon="4.72091">
        <ele>196</ele>
        <time>2017-03-25T09:37:04Z</time>
      </trkpt>
      <trkpt lat="45.86835" lon="4.72089">
        <ele>195</ele>
        <time>2017-03-25T09:37:05Z</time>
      </trkpt>
      <trkpt lat="45.8683" lon="4.72087">
        <ele>195</ele>
        <time>2017-03-25T09:37:06Z</time>
      </trkpt>
      <trkpt lat="45.86824" lon="4.72084">
        <ele>197</ele>
        <time>2017-03-25T09:37:07Z</time>
      </trkpt>
      <trkpt lat="45.86818" lon="4.72082">
        <ele>194</ele>
        <time>2017-03-25T09:37:08Z</time>
      </trkpt>
      <trkpt lat="45.86812" lon="4.72079">
        <ele>194</ele>
        <time>2017-03-25T09:37:09Z</time>
      </trkpt>
      <trkpt lat="45.86807" lon="4.72077">
        <ele>194</ele>
        <time>2017-03-25T09:37:10Z</time>
      </trkpt>
      <trkpt lat="45.86802" lon="4.72076">
        <ele>194</ele>
        <time>2017-03-25T09:37:11Z</time>
      </trkpt>
      <trkpt lat="45.86796" lon="4.72074">
        <ele>194</ele>
        <time>2017-03-25T09:37:12Z</time>
      </trkpt>
      <trkpt lat="45.8679" lon="4.72072">
        <ele>194</ele>
        <time>2017-03-25T09:37:13Z</time>
      </trkpt>
      <trkpt lat="45.86785" lon="4.72069">
        <ele>194</ele>
        <time>2017-03-25T09:37:14Z</time>
      </trkpt>
      <trkpt lat="45.86779" lon="4.72067">
        <ele>194</ele>
        <time>2017-03-25T09:37:15Z</time>
      </trkpt>
      <trkpt lat="45.86773" lon="4.72064">
        <ele>195</ele>
        <time>2017-03-25T09:37:16Z</time>
      </trkpt>
      <trkpt lat="45.86767" lon="4.72061">
        <ele>195</ele>
        <time>2017-03-25T09:37:17Z</time>
      </trkpt>
      <trkpt lat="45.86761" lon="4.72058">
        <ele>195</ele>
        <time>2017-03-25T09:37:18Z</time>
      </trkpt>
      <trkpt lat="45.86754" lon="4.72056">
        <ele>195</ele>
        <time>2017-03-25T09:37:19Z</time>
      </trkpt>
      <trkpt lat="45.86749" lon="4.72053">
        <ele>197</ele>
        <time>2017-03-25T09:37:20Z</time>
      </trkpt>
      <trkpt lat="45.86743" lon="4.72051">
        <ele>197</ele>
        <time>2017-03-25T09:37:21Z</time>
      </trkpt>
      <trkpt lat="45.86737" lon="4.72048">
        <ele>197</ele>
        <time>2017-03-25T09:37:22Z</time>
      </trkpt>
      <trkpt lat="45.86732" lon="4.72045">
        <ele>197</ele>
        <time>2017-03-25T09:37:23Z</time>
      </trkpt>
      <trkpt lat="45.86727" lon="4.72043">
        <ele>197</ele>
        <time>2017-03-25T09:37:24Z</time>
      </trkpt>
      <trkpt lat="45.86722" lon="4.7204">
        <ele>197</ele>
        <time>2017-03-25T09:37:25Z</time>
      </trkpt>
      <trkpt lat="45.86717" lon="4.72037">
        <ele>197</ele>
        <time>2017-03-25T09:37:26Z</time>
      </trkpt>
      <trkpt lat="45.86712" lon="4.72034">
        <ele>197</ele>
        <time>2017-03-25T09:37:27Z</time>
      </trkpt>
      <trkpt lat="45.86707" lon="4.72031">
        <ele>197</ele>
        <time>2017-03-25T09:37:28Z</time>
      </trkpt>
      <trkpt lat="45.86702" lon="4.72027">
        <ele>197</ele>
        <time>2017-03-25T09:37:29Z</time>
      </trkpt>
      <trkpt lat="45.86697" lon="4.72023">
        <ele>197</ele>
        <time>2017-03-25T09:37:30Z</time>
      </trkpt>
      <trkpt lat="45.86692" lon="4.7202">
        <ele>197</ele>
        <time>2017-03-25T09:37:31Z</time>
      </trkpt>
      <trkpt lat="45.86687" lon="4.72016">
        <ele>196</ele>
        <time>2017-03-25T09:37:32Z</time>
      </trkpt>
      <trkpt lat="45.86682" lon="4.72012">
        <ele>196</ele>
        <time>2017-03-25T09:37:33Z</time>
      </trkpt>
      <trkpt lat="45.86677" lon="4.72009">
        <ele>196</ele>
        <time>2017-03-25T09:37:34Z</time>
      </trkpt>
      <trkpt lat="45.86672" lon="4.72005">
        <ele>196</ele>
        <time>2017-03-25T09:37:35Z</time>
      </trkpt>
      <trkpt lat="45.86667" lon="4.72001">
        <ele>195</ele>
        <time>2017-03-25T09:37:36Z</time>
      </trkpt>
      <trkpt lat="45.86662" lon="4.71997">
        <ele>195</ele>
        <time>2017-03-25T09:37:37Z</time>
      </trkpt>
      <trkpt lat="45.86657" lon="4.71994">
        <ele>195</ele>
        <time>2017-03-25T09:37:38Z</time>
      </trkpt>
      <trkpt lat="45.86652" lon="4.7199">
        <ele>195</ele>
        <time>2017-03-25T09:37:39Z</time>
      </trkpt>
      <trkpt lat="45.86646" lon="4.71985">
        <ele>195</ele>
        <time>2017-03-25T09:37:40Z</time>
      </trkpt>
      <trkpt lat="45.86641" lon="4.71981">
        <ele>195</ele>
        <time>2017-03-25T09:37:41Z</time>
      </trkpt>
      <trkpt lat="45.86636" lon="4.71976">
        <ele>195</ele>
        <time>2017-03-25T09:37:42Z</time>
      </trkpt>
      <trkpt lat="45.8663" lon="4.71972">
        <ele>195</ele>
        <time>2017-03-25T09:37:43Z</time>
      </trkpt>
      <trkpt lat="45.86625" lon="4.71968">
        <ele>195</ele>
        <time>2017-03-25T09:37:44Z</time>
      </trkpt>
      <trkpt lat="45.86619" lon="4.71964">
        <ele>195</ele>
        <time>2017-03-25T09:37:45Z</time>
      </trkpt>
      <trkpt lat="45.86614" lon="4.71959">
        <ele>195</ele>
        <time>2017-03-25T09:37:46Z</time>
      </trkpt>
      <trkpt lat="45.86609" lon="4.71955">
        <ele>194</ele>
        <time>2017-03-25T09:37:47Z</time>
      </trkpt>
      <trkpt lat="45.86603" lon="4.7195">
        <ele>194</ele>
        <time>2017-03-25T09:37:48Z</time>
      </trkpt>
      <trkpt lat="45.86598" lon="4.71946">
        <ele>194</ele>
        <time>2017-03-25T09:37:49Z</time>
      </trkpt>
      <trkpt lat="45.86592" lon="4.71942">
        <ele>194</ele>
        <time>2017-03-25T09:37:50Z</time>
      </trkpt>
      <trkpt lat="45.86587" lon="4.71938">
        <ele>194</ele>
        <time>2017-03-25T09:37:51Z</time>
      </trkpt>
      <trkpt lat="45.86582" lon="4.71935">
        <ele>195</ele>
        <time>2017-03-25T09:37:52Z</time>
      </trkpt>
      <trkpt lat="45.86578" lon="4.71931">
        <ele>195</ele>
        <time>2017-03-25T09:37:53Z</time>
      </trkpt>
      <trkpt lat="45.86573" lon="4.71927">
        <ele>195</ele>
        <time>2017-03-25T09:37:54Z</time>
      </trkpt>
      <trkpt lat="45.86568" lon="4.71923">
        <ele>195</ele>
        <time>2017-03-25T09:37:55Z</time>
      </trkpt>
      <trkpt lat="45.86563" lon="4.71919">
        <ele>195</ele>
        <time>2017-03-25T09:37:56Z</time>
      </trkpt>
      <trkpt lat="45.86558" lon="4.71915">
        <ele>195</ele>
        <time>2017-03-25T09:37:57Z</time>
      </trkpt>
      <trkpt lat="45.86553" lon="4.71911">
        <ele>195</ele>
        <time>2017-03-25T09:37:58Z</time>
      </trkpt>
      <trkpt lat="45.86548" lon="4.71907">
        <ele>195</ele>
        <time>2017-03-25T09:37:59Z</time>
      </trkpt>
      <trkpt lat="45.86543" lon="4.71903">
        <ele>195</ele>
        <time>2017-03-25T09:38:00Z</time>
      </trkpt>
      <trkpt lat="45.86539" lon="4.71899">
        <ele>195</ele>
        <time>2017-03-25T09:38:01Z</time>
      </trkpt>
      <trkpt lat="45.86534" lon="4.71895">
        <ele>195</ele>
        <time>2017-03-25T09:38:02Z</time>
      </trkpt>
      <trkpt lat="45.86529" lon="4.71891">
        <ele>195</ele>
        <time>2017-03-25T09:38:03Z</time>
      </trkpt>
      <trkpt lat="45.86524" lon="4.71887">
        <ele>195</ele>
        <time>2017-03-25T09:38:04Z</time>
      </trkpt>
      <trkpt lat="45.86519" lon="4.71883">
        <ele>195</ele>
        <time>2017-03-25T09:38:05Z</time>
      </trkpt>
      <trkpt lat="45.86514" lon="4.71879">
        <ele>195</ele>
        <time>2017-03-25T09:38:06Z</time>
      </trkpt>
      <trkpt lat="45.86509" lon="4.71875">
        <ele>195</ele>
        <time>2017-03-25T09:38:07Z</time>
      </trkpt>
      <trkpt lat="45.86504" lon="4.71871">
        <ele>195</ele>
        <time>2017-03-25T09:38:08Z</time>
      </trkpt>
      <trkpt lat="45.86498" lon="4.71867">
        <ele>198</ele>
        <time>2017-03-25T09:38:09Z</time>
      </trkpt>
      <trkpt lat="45.86493" lon="4.71863">
        <ele>198</ele>
        <time>2017-03-25T09:38:10Z</time>
      </trkpt>
      <trkpt lat="45.86487" lon="4.71859">
        <ele>198</ele>
        <time>2017-03-25T09:38:11Z</time>
      </trkpt>
      <trkpt lat="45.86482" lon="4.71855">
        <ele>198</ele>
        <time>2017-03-25T09:38:12Z</time>
      </trkpt>
      <trkpt lat="45.86476" lon="4.71851">
        <ele>198</ele>
        <time>2017-03-25T09:38:13Z</time>
      </trkpt>
      <trkpt lat="45.86471" lon="4.71847">
        <ele>199</ele>
        <time>2017-03-25T09:38:14Z</time>
      </trkpt>
      <trkpt lat="45.86465" lon="4.71843">
        <ele>199</ele>
        <time>2017-03-25T09:38:15Z</time>
      </trkpt>
      <trkpt lat="45.8646" lon="4.71838">
        <ele>199</ele>
        <time>2017-03-25T09:38:16Z</time>
      </trkpt>
      <trkpt lat="45.86456" lon="4.71834">
        <ele>200</ele>
        <time>2017-03-25T09:38:17Z</time>
      </trkpt>
      <trkpt lat="45.86451" lon="4.7183">
        <ele>197</ele>
        <time>2017-03-25T09:38:18Z</time>
      </trkpt>
      <trkpt lat="45.86445" lon="4.71826">
        <ele>197</ele>
        <time>2017-03-25T09:38:19Z</time>
      </trkpt>
      <trkpt lat="45.8644" lon="4.71822">
        <ele>198</ele>
        <time>2017-03-25T09:38:20Z</time>
      </trkpt>
      <trkpt lat="45.86435" lon="4.71818">
        <ele>198</ele>
        <time>2017-03-25T09:38:21Z</time>
      </trkpt>
      <trkpt lat="45.86431" lon="4.71813">
        <ele>198</ele>
        <time>2017-03-25T09:38:22Z</time>
      </trkpt>
      <trkpt lat="45.86426" lon="4.7181">
        <ele>198</ele>
        <time>2017-03-25T09:38:23Z</time>
      </trkpt>
      <trkpt lat="45.86421" lon="4.71806">
        <ele>197</ele>
        <time>2017-03-25T09:38:24Z</time>
      </trkpt>
      <trkpt lat="45.86416" lon="4.71802">
        <ele>199</ele>
        <time>2017-03-25T09:38:25Z</time>
      </trkpt>
      <trkpt lat="45.86411" lon="4.71798">
        <ele>199</ele>
        <time>2017-03-25T09:38:26Z</time>
      </trkpt>
      <trkpt lat="45.86407" lon="4.71794">
        <ele>199</ele>
        <time>2017-03-25T09:38:27Z</time>
      </trkpt>
      <trkpt lat="45.86402" lon="4.7179">
        <ele>198</ele>
        <time>2017-03-25T09:38:28Z</time>
      </trkpt>
      <trkpt lat="45.86397" lon="4.71786">
        <ele>198</ele>
        <time>2017-03-25T09:38:29Z</time>
      </trkpt>
      <trkpt lat="45.86392" lon="4.71782">
        <ele>198</ele>
        <time>2017-03-25T09:38:30Z</time>
      </trkpt>
      <trkpt lat="45.86387" lon="4.71778">
        <ele>198</ele>
        <time>2017-03-25T09:38:31Z</time>
      </trkpt>
      <trkpt lat="45.86381" lon="4.71774">
        <ele>198</ele>
        <time>2017-03-25T09:38:32Z</time>
      </trkpt>
      <trkpt lat="45.86376" lon="4.7177">
        <ele>198</ele>
        <time>2017-03-25T09:38:33Z</time>
      </trkpt>
      <trkpt lat="45.8637" lon="4.71766">
        <ele>198</ele>
        <time>2017-03-25T09:38:34Z</time>
      </trkpt>
      <trkpt lat="45.86365" lon="4.71762">
        <ele>198</ele>
        <time>2017-03-25T09:38:35Z</time>
      </trkpt>
      <trkpt lat="45.8636" lon="4.71758">
        <ele>198</ele>
        <time>2017-03-25T09:38:36Z</time>
      </trkpt>
      <trkpt lat="45.86355" lon="4.71754">
        <ele>197</ele>
        <time>2017-03-25T09:38:37Z</time>
      </trkpt>
      <trkpt lat="45.86349" lon="4.71749">
        <ele>195</ele>
        <time>2017-03-25T09:38:38Z</time>
      </trkpt>
      <trkpt lat="45.86344" lon="4.71745">
        <ele>195</ele>
        <time>2017-03-25T09:38:39Z</time>
      </trkpt>
      <trkpt lat="45.86339" lon="4.71741">
        <ele>195</ele>
        <time>2017-03-25T09:38:40Z</time>
      </trkpt>
      <trkpt lat="45.86334" lon="4.71737">
        <ele>195</ele>
        <time>2017-03-25T09:38:41Z</time>
      </trkpt>
      <trkpt lat="45.86329" lon="4.71734">
        <ele>196</ele>
        <time>2017-03-25T09:38:42Z</time>
      </trkpt>
      <trkpt lat="45.86324" lon="4.7173">
        <ele>196</ele>
        <time>2017-03-25T09:38:43Z</time>
      </trkpt>
      <trkpt lat="45.86319" lon="4.71726">
        <ele>196</ele>
        <time>2017-03-25T09:38:44Z</time>
      </trkpt>
      <trkpt lat="45.86314" lon="4.71722">
        <ele>196</ele>
        <time>2017-03-25T09:38:45Z</time>
      </trkpt>
      <trkpt lat="45.86308" lon="4.71718">
        <ele>196</ele>
        <time>2017-03-25T09:38:46Z</time>
      </trkpt>
      <trkpt lat="45.86302" lon="4.71714">
        <ele>196</ele>
        <time>2017-03-25T09:38:47Z</time>
      </trkpt>
      <trkpt lat="45.86297" lon="4.7171">
        <ele>195</ele>
        <time>2017-03-25T09:38:48Z</time>
      </trkpt>
      <trkpt lat="45.86292" lon="4.71705">
        <ele>195</ele>
        <time>2017-03-25T09:38:49Z</time>
      </trkpt>
      <trkpt lat="45.86286" lon="4.71701">
        <ele>195</ele>
        <time>2017-03-25T09:38:50Z</time>
      </trkpt>
      <trkpt lat="45.86281" lon="4.71696">
        <ele>195</ele>
        <time>2017-03-25T09:38:51Z</time>
      </trkpt>
      <trkpt lat="45.86275" lon="4.71692">
        <ele>195</ele>
        <time>2017-03-25T09:38:52Z</time>
      </trkpt>
      <trkpt lat="45.86269" lon="4.71687">
        <ele>195</ele>
        <time>2017-03-25T09:38:53Z</time>
      </trkpt>
      <trkpt lat="45.86265" lon="4.71684">
        <ele>195</ele>
        <time>2017-03-25T09:38:54Z</time>
      </trkpt>
      <trkpt lat="45.86259" lon="4.7168">
        <ele>195</ele>
        <time>2017-03-25T09:38:55Z</time>
      </trkpt>
      <trkpt lat="45.86254" lon="4.71676">
        <ele>195</ele>
        <time>2017-03-25T09:38:56Z</time>
      </trkpt>
      <trkpt lat="45.86249" lon="4.71672">
        <ele>195</ele>
        <time>2017-03-25T09:38:57Z</time>
      </trkpt>
      <trkpt lat="45.86244" lon="4.71668">
        <ele>195</ele>
        <time>2017-03-25T09:38:58Z</time>
      </trkpt>
      <trkpt lat="45.86239" lon="4.71664">
        <ele>195</ele>
        <time>2017-03-25T09:38:59Z</time>
      </trkpt>
      <trkpt lat="45.86235" lon="4.7166">
        <ele>195</ele>
        <time>2017-03-25T09:39:00Z</time>
      </trkpt>
      <trkpt lat="45.8623" lon="4.71656">
        <ele>195</ele>
        <time>2017-03-25T09:39:01Z</time>
      </trkpt>
      <trkpt lat="45.86225" lon="4.71653">
        <ele>195</ele>
        <time>2017-03-25T09:39:02Z</time>
      </trkpt>
      <trkpt lat="45.8622" lon="4.71649">
        <ele>195</ele>
        <time>2017-03-25T09:39:03Z</time>
      </trkpt>
      <trkpt lat="45.86215" lon="4.71644">
        <ele>195</ele>
        <time>2017-03-25T09:39:04Z</time>
      </trkpt>
      <trkpt lat="45.86212" lon="4.71639">
        <ele>195</ele>
        <time>2017-03-25T09:39:05Z</time>
      </trkpt>
      <trkpt lat="45.86209" lon="4.71633">
        <ele>195</ele>
        <time>2017-03-25T09:39:06Z</time>
      </trkpt>
      <trkpt lat="45.86208" lon="4.71626">
        <ele>195</ele>
        <time>2017-03-25T09:39:07Z</time>
      </trkpt>
      <trkpt lat="45.86207" lon="4.71619">
        <ele>195</ele>
        <time>2017-03-25T09:39:08Z</time>
      </trkpt>
      <trkpt lat="45.86205" lon="4.71612">
        <ele>195</ele>
        <time>2017-03-25T09:39:09Z</time>
      </trkpt>
      <trkpt lat="45.86203" lon="4.71606">
        <ele>195</ele>
        <time>2017-03-25T09:39:10Z</time>
      </trkpt>
      <trkpt lat="45.862" lon="4.716">
        <ele>195</ele>
        <time>2017-03-25T09:39:11Z</time>
      </trkpt>
      <trkpt lat="45.86195" lon="4.71595">
        <ele>195</ele>
        <time>2017-03-25T09:39:12Z</time>
      </trkpt>
      <trkpt lat="45.86191" lon="4.71591">
        <ele>195</ele>
        <time>2017-03-25T09:39:13Z</time>
      </trkpt>
      <trkpt lat="45.86187" lon="4.71585">
        <ele>196</ele>
        <time>2017-03-25T09:39:14Z</time>
      </trkpt>
      <trkpt lat="45.86183" lon="4.71579">
        <ele>195</ele>
        <time>2017-03-25T09:39:15Z</time>
      </trkpt>
      <trkpt lat="45.86179" lon="4.71573">
        <ele>195</ele>
        <time>2017-03-25T09:39:16Z</time>
      </trkpt>
      <trkpt lat="45.86175" lon="4.71567">
        <ele>195</ele>
        <time>2017-03-25T09:39:17Z</time>
      </trkpt>
      <trkpt lat="45.86172" lon="4.7156">
        <ele>195</ele>
        <time>2017-03-25T09:39:18Z</time>
      </trkpt>
      <trkpt lat="45.86168" lon="4.71554">
        <ele>195</ele>
        <time>2017-03-25T09:39:19Z</time>
      </trkpt>
      <trkpt lat="45.86165" lon="4.71547">
        <ele>196</ele>
        <time>2017-03-25T09:39:20Z</time>
      </trkpt>
      <trkpt lat="45.86162" lon="4.71541">
        <ele>195</ele>
        <time>2017-03-25T09:39:21Z</time>
      </trkpt>
      <trkpt lat="45.86158" lon="4.71534">
        <ele>195</ele>
        <time>2017-03-25T09:39:22Z</time>
      </trkpt>
      <trkpt lat="45.86154" lon="4.71528">
        <ele>195</ele>
        <time>2017-03-25T09:39:23Z</time>
      </trkpt>
      <trkpt lat="45.86151" lon="4.71522">
        <ele>195</ele>
        <time>2017-03-25T09:39:24Z</time>
      </trkpt>
      <trkpt lat="45.86147" lon="4.71517">
        <ele>195</ele>
        <time>2017-03-25T09:39:25Z</time>
      </trkpt>
      <trkpt lat="45.86144" lon="4.71511">
        <ele>195</ele>
        <time>2017-03-25T09:39:26Z</time>
      </trkpt>
      <trkpt lat="45.86141" lon="4.71506">
        <ele>195</ele>
        <time>2017-03-25T09:39:27Z</time>
      </trkpt>
      <trkpt lat="45.86137" lon="4.71499">
        <ele>195</ele>
        <time>2017-03-25T09:39:28Z</time>
      </trkpt>
      <trkpt lat="45.86135" lon="4.71492">
        <ele>195</ele>
        <time>2017-03-25T09:39:29Z</time>
      </trkpt>
      <trkpt lat="45.86132" lon="4.71484">
        <ele>195</ele>
        <time>2017-03-25T09:39:30Z</time>
      </trkpt>
      <trkpt lat="45.86129" lon="4.71477">
        <ele>195</ele>
        <time>2017-03-25T09:39:31Z</time>
      </trkpt>
      <trkpt lat="45.86126" lon="4.71469">
        <ele>195</ele>
        <time>2017-03-25T09:39:32Z</time>
      </trkpt>
      <trkpt lat="45.86124" lon="4.71462">
        <ele>195</ele>
        <time>2017-03-25T09:39:33Z</time>
      </trkpt>
      <trkpt lat="45.86122" lon="4.71455">
        <ele>195</ele>
        <time>2017-03-25T09:39:34Z</time>
      </trkpt>
      <trkpt lat="45.8612" lon="4.71447">
        <ele>195</ele>
        <time>2017-03-25T09:39:35Z</time>
      </trkpt>
      <trkpt lat="45.86119" lon="4.7144">
        <ele>195</ele>
        <time>2017-03-25T09:39:36Z</time>
      </trkpt>
      <trkpt lat="45.86117" lon="4.71432">
        <ele>195</ele>
        <time>2017-03-25T09:39:37Z</time>
      </trkpt>
      <trkpt lat="45.86116" lon="4.71424">
        <ele>195</ele>
        <time>2017-03-25T09:39:38Z</time>
      </trkpt>
      <trkpt lat="45.86115" lon="4.71417">
        <ele>196</ele>
        <time>2017-03-25T09:39:39Z</time>
      </trkpt>
      <trkpt lat="45.86114" lon="4.71409">
        <ele>196</ele>
        <time>2017-03-25T09:39:40Z</time>
      </trkpt>
      <trkpt lat="45.86114" lon="4.71402">
        <ele>196</ele>
        <time>2017-03-25T09:39:41Z</time>
      </trkpt>
      <trkpt lat="45.86113" lon="4.71394">
        <ele>196</ele>
        <time>2017-03-25T09:39:42Z</time>
      </trkpt>
      <trkpt lat="45.86113" lon="4.71387">
        <ele>196</ele>
        <time>2017-03-25T09:39:43Z</time>
      </trkpt>
      <trkpt lat="45.86112" lon="4.71379">
        <ele>196</ele>
        <time>2017-03-25T09:39:44Z</time>
      </trkpt>
      <trkpt lat="45.86112" lon="4.71371">
        <ele>196</ele>
        <time>2017-03-25T09:39:45Z</time>
      </trkpt>
      <trkpt lat="45.86111" lon="4.71364">
        <ele>196</ele>
        <time>2017-03-25T09:39:46Z</time>
      </trkpt>
      <trkpt lat="45.8611" lon="4.71355">
        <ele>196</ele>
        <time>2017-03-25T09:39:47Z</time>
      </trkpt>
      <trkpt lat="45.86109" lon="4.71347">
        <ele>196</ele>
        <time>2017-03-25T09:39:48Z</time>
      </trkpt>
      <trkpt lat="45.86107" lon="4.71339">
        <ele>196</ele>
        <time>2017-03-25T09:39:49Z</time>
      </trkpt>
      <trkpt lat="45.86105" lon="4.7133">
        <ele>197</ele>
        <time>2017-03-25T09:39:50Z</time>
      </trkpt>
      <trkpt lat="45.86104" lon="4.71322">
        <ele>197</ele>
        <time>2017-03-25T09:39:51Z</time>
      </trkpt>
      <trkpt lat="45.86103" lon="4.71314">
        <ele>197</ele>
        <time>2017-03-25T09:39:52Z</time>
      </trkpt>
      <trkpt lat="45.86102" lon="4.71306">
        <ele>197</ele>
        <time>2017-03-25T09:39:53Z</time>
      </trkpt>
      <trkpt lat="45.86102" lon="4.71298">
        <ele>197</ele>
        <time>2017-03-25T09:39:54Z</time>
      </trkpt>
      <trkpt lat="45.861" lon="4.7129">
        <ele>197</ele>
        <time>2017-03-25T09:39:55Z</time>
      </trkpt>
      <trkpt lat="45.86098" lon="4.71283">
        <ele>197</ele>
        <time>2017-03-25T09:39:56Z</time>
      </trkpt>
      <trkpt lat="45.86097" lon="4.71277">
        <ele>197</ele>
        <time>2017-03-25T09:39:57Z</time>
      </trkpt>
      <trkpt lat="45.86094" lon="4.71271">
        <ele>197</ele>
        <time>2017-03-25T09:39:58Z</time>
      </trkpt>
      <trkpt lat="45.86089" lon="4.71262">
        <ele>197</ele>
        <time>2017-03-25T09:40:00Z</time>
      </trkpt>
      <trkpt lat="45.86086" lon="4.71257">
        <ele>198</ele>
        <time>2017-03-25T09:40:01Z</time>
      </trkpt>
      <trkpt lat="45.86084" lon="4.71252">
        <ele>198</ele>
        <time>2017-03-25T09:40:02Z</time>
      </trkpt>
      <trkpt lat="45.86082" lon="4.71245">
        <ele>198</ele>
        <time>2017-03-25T09:40:03Z</time>
      </trkpt>
      <trkpt lat="45.86081" lon="4.71238">
        <ele>198</ele>
        <time>2017-03-25T09:40:04Z</time>
      </trkpt>
      <trkpt lat="45.86081" lon="4.7123">
        <ele>198</ele>
        <time>2017-03-25T09:40:05Z</time>
      </trkpt>
      <trkpt lat="45.86082" lon="4.71223">
        <ele>198</ele>
        <time>2017-03-25T09:40:06Z</time>
      </trkpt>
      <trkpt lat="45.86082" lon="4.71216">
        <ele>198</ele>
        <time>2017-03-25T09:40:07Z</time>
      </trkpt>
      <trkpt lat="45.86083" lon="4.71209">
        <ele>198</ele>
        <time>2017-03-25T09:40:08Z</time>
      </trkpt>
      <trkpt lat="45.86084" lon="4.71203">
        <ele>197</ele>
        <time>2017-03-25T09:40:09Z</time>
      </trkpt>
      <trkpt lat="45.86085" lon="4.71196">
        <ele>197</ele>
        <time>2017-03-25T09:40:10Z</time>
      </trkpt>
      <trkpt lat="45.86086" lon="4.71189">
        <ele>197</ele>
        <time>2017-03-25T09:40:11Z</time>
      </trkpt>
      <trkpt lat="45.86087" lon="4.71182">
        <ele>197</ele>
        <time>2017-03-25T09:40:12Z</time>
      </trkpt>
      <trkpt lat="45.86088" lon="4.71174">
        <ele>198</ele>
        <time>2017-03-25T09:40:13Z</time>
      </trkpt>
      <trkpt lat="45.86088" lon="4.71166">
        <ele>198</ele>
        <time>2017-03-25T09:40:14Z</time>
      </trkpt>
      <trkpt lat="45.86088" lon="4.71158">
        <ele>197</ele>
        <time>2017-03-25T09:40:15Z</time>
      </trkpt>
      <trkpt lat="45.86087" lon="4.71151">
        <ele>197</ele>
        <time>2017-03-25T09:40:16Z</time>
      </trkpt>
      <trkpt lat="45.86084" lon="4.71144">
        <ele>197</ele>
        <time>2017-03-25T09:40:17Z</time>
      </trkpt>
      <trkpt lat="45.86081" lon="4.71139">
        <ele>197</ele>
        <time>2017-03-25T09:40:18Z</time>
      </trkpt>
      <trkpt lat="45.86076" lon="4.71134">
        <ele>197</ele>
        <time>2017-03-25T09:40:19Z</time>
      </trkpt>
      <trkpt lat="45.86071" lon="4.71131">
        <ele>197</ele>
        <time>2017-03-25T09:40:20Z</time>
      </trkpt>
      <trkpt lat="45.86066" lon="4.71129">
        <ele>197</ele>
        <time>2017-03-25T09:40:21Z</time>
      </trkpt>
      <trkpt lat="45.86061" lon="4.71125">
        <ele>197</ele>
        <time>2017-03-25T09:40:22Z</time>
      </trkpt>
      <trkpt lat="45.86057" lon="4.71121">
        <ele>197</ele>
        <time>2017-03-25T09:40:23Z</time>
      </trkpt>
      <trkpt lat="45.86053" lon="4.71116">
        <ele>197</ele>
        <time>2017-03-25T09:40:24Z</time>
      </trkpt>
      <trkpt lat="45.8605" lon="4.7111">
        <ele>197</ele>
        <time>2017-03-25T09:40:25Z</time>
      </trkpt>
      <trkpt lat="45.86047" lon="4.71103">
        <ele>197</ele>
        <time>2017-03-25T09:40:26Z</time>
      </trkpt>
      <trkpt lat="45.86045" lon="4.71096">
        <ele>197</ele>
        <time>2017-03-25T09:40:27Z</time>
      </trkpt>
      <trkpt lat="45.86042" lon="4.71089">
        <ele>197</ele>
        <time>2017-03-25T09:40:28Z</time>
      </trkpt>
      <trkpt lat="45.86039" lon="4.71082">
        <ele>197</ele>
        <time>2017-03-25T09:40:29Z</time>
      </trkpt>
      <trkpt lat="45.86037" lon="4.71075">
        <ele>197</ele>
        <time>2017-03-25T09:40:30Z</time>
      </trkpt>
      <trkpt lat="45.86035" lon="4.71067">
        <ele>197</ele>
        <time>2017-03-25T09:40:31Z</time>
      </trkpt>
      <trkpt lat="45.86034" lon="4.71059">
        <ele>197</ele>
        <time>2017-03-25T09:40:32Z</time>
      </trkpt>
      <trkpt lat="45.86032" lon="4.71051">
        <ele>197</ele>
        <time>2017-03-25T09:40:33Z</time>
      </trkpt>
      <trkpt lat="45.8603" lon="4.71042">
        <ele>197</ele>
        <time>2017-03-25T09:40:34Z</time>
      </trkpt>
      <trkpt lat="45.86028" lon="4.71034">
        <ele>197</ele>
        <time>2017-03-25T09:40:35Z</time>
      </trkpt>
      <trkpt lat="45.86025" lon="4.71027">
        <ele>197</ele>
        <time>2017-03-25T09:40:36Z</time>
      </trkpt>
      <trkpt lat="45.86022" lon="4.71021">
        <ele>197</ele>
        <time>2017-03-25T09:40:37Z</time>
      </trkpt>
      <trkpt lat="45.86019" lon="4.71015">
        <ele>197</ele>
        <time>2017-03-25T09:40:38Z</time>
      </trkpt>
      <trkpt lat="45.86016" lon="4.7101">
        <ele>197</ele>
        <time>2017-03-25T09:40:39Z</time>
      </trkpt>
      <trkpt lat="45.86012" lon="4.71004">
        <ele>197</ele>
        <time>2017-03-25T09:40:40Z</time>
      </trkpt>
      <trkpt lat="45.86009" lon="4.70999">
        <ele>197</ele>
        <time>2017-03-25T09:40:41Z</time>
      </trkpt>
      <trkpt lat="45.86005" lon="4.70994">
        <ele>197</ele>
        <time>2017-03-25T09:40:42Z</time>
      </trkpt>
      <trkpt lat="45.86" lon="4.70989">
        <ele>197</ele>
        <time>2017-03-25T09:40:43Z</time>
      </trkpt>
      <trkpt lat="45.85995" lon="4.70985">
        <ele>197</ele>
        <time>2017-03-25T09:40:44Z</time>
      </trkpt>
      <trkpt lat="45.85991" lon="4.70981">
        <ele>197</ele>
        <time>2017-03-25T09:40:45Z</time>
      </trkpt>
      <trkpt lat="45.85986" lon="4.70978">
        <ele>197</ele>
        <time>2017-03-25T09:40:46Z</time>
      </trkpt>
      <trkpt lat="45.85981" lon="4.70976">
        <ele>197</ele>
        <time>2017-03-25T09:40:47Z</time>
      </trkpt>
      <trkpt lat="45.85975" lon="4.70974">
        <ele>197</ele>
        <time>2017-03-25T09:40:48Z</time>
      </trkpt>
      <trkpt lat="45.8597" lon="4.70972">
        <ele>197</ele>
        <time>2017-03-25T09:40:49Z</time>
      </trkpt>
      <trkpt lat="45.85965" lon="4.7097">
        <ele>197</ele>
        <time>2017-03-25T09:40:50Z</time>
      </trkpt>
      <trkpt lat="45.85959" lon="4.7097">
        <ele>197</ele>
        <time>2017-03-25T09:40:51Z</time>
      </trkpt>
      <trkpt lat="45.85955" lon="4.7097">
        <ele>197</ele>
        <time>2017-03-25T09:40:52Z</time>
      </trkpt>
      <trkpt lat="45.8595" lon="4.70971">
        <ele>197</ele>
        <time>2017-03-25T09:40:53Z</time>
      </trkpt>
      <trkpt lat="45.85945" lon="4.7097">
        <ele>197</ele>
        <time>2017-03-25T09:40:54Z</time>
      </trkpt>
      <trkpt lat="45.8594" lon="4.70968">
        <ele>197</ele>
        <time>2017-03-25T09:40:55Z</time>
      </trkpt>
      <trkpt lat="45.85936" lon="4.70959">
        <ele>197</ele>
        <time>2017-03-25T09:40:57Z</time>
      </trkpt>
      <trkpt lat="45.85935" lon="4.70953">
        <ele>197</ele>
        <time>2017-03-25T09:40:58Z</time>
      </trkpt>
      <trkpt lat="45.85935" lon="4.70946">
        <ele>197</ele>
        <time>2017-03-25T09:40:59Z</time>
      </trkpt>
      <trkpt lat="45.85936" lon="4.70939">
        <ele>197</ele>
        <time>2017-03-25T09:41:00Z</time>
      </trkpt>
      <trkpt lat="45.85937" lon="4.70932">
        <ele>197</ele>
        <time>2017-03-25T09:41:01Z</time>
      </trkpt>
      <trkpt lat="45.8594" lon="4.70924">
        <ele>197</ele>
        <time>2017-03-25T09:41:02Z</time>
      </trkpt>
      <trkpt lat="45.85943" lon="4.70915">
        <ele>197</ele>
        <time>2017-03-25T09:41:03Z</time>
      </trkpt>
      <trkpt lat="45.85945" lon="4.70906">
        <ele>197</ele>
        <time>2017-03-25T09:41:04Z</time>
      </trkpt>
      <trkpt lat="45.85947" lon="4.70898">
        <ele>197</ele>
        <time>2017-03-25T09:41:05Z</time>
      </trkpt>
      <trkpt lat="45.85948" lon="4.7089">
        <ele>197</ele>
        <time>2017-03-25T09:41:06Z</time>
      </trkpt>
      <trkpt lat="45.8595" lon="4.70882">
        <ele>197</ele>
        <time>2017-03-25T09:41:07Z</time>
      </trkpt>
      <trkpt lat="45.85952" lon="4.70874">
        <ele>196</ele>
        <time>2017-03-25T09:41:08Z</time>
      </trkpt>
      <trkpt lat="45.85953" lon="4.70866">
        <ele>196</ele>
        <time>2017-03-25T09:41:09Z</time>
      </trkpt>
      <trkpt lat="45.85954" lon="4.70858">
        <ele>196</ele>
        <time>2017-03-25T09:41:10Z</time>
      </trkpt>
      <trkpt lat="45.85955" lon="4.7085">
        <ele>196</ele>
        <time>2017-03-25T09:41:11Z</time>
      </trkpt>
      <trkpt lat="45.85955" lon="4.70842">
        <ele>196</ele>
        <time>2017-03-25T09:41:12Z</time>
      </trkpt>
      <trkpt lat="45.85954" lon="4.70834">
        <ele>196</ele>
        <time>2017-03-25T09:41:13Z</time>
      </trkpt>
      <trkpt lat="45.85954" lon="4.70827">
        <ele>196</ele>
        <time>2017-03-25T09:41:14Z</time>
      </trkpt>
      <trkpt lat="45.85953" lon="4.70819">
        <ele>195</ele>
        <time>2017-03-25T09:41:15Z</time>
      </trkpt>
      <trkpt lat="45.85952" lon="4.70812">
        <ele>195</ele>
        <time>2017-03-25T09:41:16Z</time>
      </trkpt>
      <trkpt lat="45.85951" lon="4.70805">
        <ele>195</ele>
        <time>2017-03-25T09:41:17Z</time>
      </trkpt>
      <trkpt lat="45.8595" lon="4.70798">
        <ele>195</ele>
        <time>2017-03-25T09:41:18Z</time>
      </trkpt>
      <trkpt lat="45.8595" lon="4.70791">
        <ele>195</ele>
        <time>2017-03-25T09:41:19Z</time>
      </trkpt>
      <trkpt lat="45.8595" lon="4.70784">
        <ele>195</ele>
        <time>2017-03-25T09:41:20Z</time>
      </trkpt>
      <trkpt lat="45.85951" lon="4.70776">
        <ele>195</ele>
        <time>2017-03-25T09:41:21Z</time>
      </trkpt>
      <trkpt lat="45.85951" lon="4.70768">
        <ele>195</ele>
        <time>2017-03-25T09:41:22Z</time>
      </trkpt>
      <trkpt lat="45.85952" lon="4.7076">
        <ele>195</ele>
        <time>2017-03-25T09:41:23Z</time>
      </trkpt>
      <trkpt lat="45.85953" lon="4.70753">
        <ele>195</ele>
        <time>2017-03-25T09:41:24Z</time>
      </trkpt>
      <trkpt lat="45.85953" lon="4.70745">
        <ele>194</ele>
        <time>2017-03-25T09:41:25Z</time>
      </trkpt>
      <trkpt lat="45.85955" lon="4.70738">
        <ele>194</ele>
        <time>2017-03-25T09:41:26Z</time>
      </trkpt>
      <trkpt lat="45.85956" lon="4.70731">
        <ele>194</ele>
        <time>2017-03-25T09:41:27Z</time>
      </trkpt>
      <trkpt lat="45.85956" lon="4.70724">
        <ele>194</ele>
        <time>2017-03-25T09:41:28Z</time>
      </trkpt>
      <trkpt lat="45.85957" lon="4.70716">
        <ele>194</ele>
        <time>2017-03-25T09:41:29Z</time>
      </trkpt>
      <trkpt lat="45.85957" lon="4.70708">
        <ele>194</ele>
        <time>2017-03-25T09:41:30Z</time>
      </trkpt>
      <trkpt lat="45.85957" lon="4.707">
        <ele>194</ele>
        <time>2017-03-25T09:41:31Z</time>
      </trkpt>
      <trkpt lat="45.85956" lon="4.70692">
        <ele>194</ele>
        <time>2017-03-25T09:41:32Z</time>
      </trkpt>
      <trkpt lat="45.85955" lon="4.70684">
        <ele>194</ele>
        <time>2017-03-25T09:41:33Z</time>
      </trkpt>
      <trkpt lat="45.85952" lon="4.70676">
        <ele>194</ele>
        <time>2017-03-25T09:41:34Z</time>
      </trkpt>
      <trkpt lat="45.85949" lon="4.70669">
        <ele>194</ele>
        <time>2017-03-25T09:41:35Z</time>
      </trkpt>
      <trkpt lat="45.85946" lon="4.70662">
        <ele>194</ele>
        <time>2017-03-25T09:41:36Z</time>
      </trkpt>
      <trkpt lat="45.85942" lon="4.70655">
        <ele>194</ele>
        <time>2017-03-25T09:41:37Z</time>
      </trkpt>
      <trkpt lat="45.85938" lon="4.70649">
        <ele>194</ele>
        <time>2017-03-25T09:41:38Z</time>
      </trkpt>
      <trkpt lat="45.85935" lon="4.70643">
        <ele>194</ele>
        <time>2017-03-25T09:41:39Z</time>
      </trkpt>
      <trkpt lat="45.85931" lon="4.70637">
        <ele>194</ele>
        <time>2017-03-25T09:41:40Z</time>
      </trkpt>
      <trkpt lat="45.85928" lon="4.70631">
        <ele>194</ele>
        <time>2017-03-25T09:41:41Z</time>
      </trkpt>
      <trkpt lat="45.85925" lon="4.70626">
        <ele>194</ele>
        <time>2017-03-25T09:41:42Z</time>
      </trkpt>
      <trkpt lat="45.85922" lon="4.7062">
        <ele>194</ele>
        <time>2017-03-25T09:41:43Z</time>
      </trkpt>
      <trkpt lat="45.85918" lon="4.70613">
        <ele>194</ele>
        <time>2017-03-25T09:41:44Z</time>
      </trkpt>
      <trkpt lat="45.85915" lon="4.70607">
        <ele>195</ele>
        <time>2017-03-25T09:41:45Z</time>
      </trkpt>
      <trkpt lat="45.85911" lon="4.70601">
        <ele>195</ele>
        <time>2017-03-25T09:41:46Z</time>
      </trkpt>
      <trkpt lat="45.85907" lon="4.70595">
        <ele>195</ele>
        <time>2017-03-25T09:41:47Z</time>
      </trkpt>
      <trkpt lat="45.85902" lon="4.70589">
        <ele>195</ele>
        <time>2017-03-25T09:41:48Z</time>
      </trkpt>
      <trkpt lat="45.85897" lon="4.70585">
        <ele>195</ele>
        <time>2017-03-25T09:41:49Z</time>
      </trkpt>
      <trkpt lat="45.85892" lon="4.70581">
        <ele>195</ele>
        <time>2017-03-25T09:41:50Z</time>
      </trkpt>
      <trkpt lat="45.85887" lon="4.70579">
        <ele>195</ele>
        <time>2017-03-25T09:41:51Z</time>
      </trkpt>
      <trkpt lat="45.85882" lon="4.70577">
        <ele>195</ele>
        <time>2017-03-25T09:41:52Z</time>
      </trkpt>
      <trkpt lat="45.85877" lon="4.70575">
        <ele>195</ele>
        <time>2017-03-25T09:41:53Z</time>
      </trkpt>
      <trkpt lat="45.85872" lon="4.70574">
        <ele>195</ele>
        <time>2017-03-25T09:41:54Z</time>
      </trkpt>
      <trkpt lat="45.85867" lon="4.70572">
        <ele>195</ele>
        <time>2017-03-25T09:41:55Z</time>
      </trkpt>
      <trkpt lat="45.85861" lon="4.70571">
        <ele>195</ele>
        <time>2017-03-25T09:41:56Z</time>
      </trkpt>
      <trkpt lat="45.85856" lon="4.70569">
        <ele>195</ele>
        <time>2017-03-25T09:41:57Z</time>
      </trkpt>
      <trkpt lat="45.85851" lon="4.70568">
        <ele>195</ele>
        <time>2017-03-25T09:41:58Z</time>
      </trkpt>
      <trkpt lat="45.85846" lon="4.70566">
        <ele>195</ele>
        <time>2017-03-25T09:41:59Z</time>
      </trkpt>
      <trkpt lat="45.85841" lon="4.70564">
        <ele>195</ele>
        <time>2017-03-25T09:42:00Z</time>
      </trkpt>
      <trkpt lat="45.85836" lon="4.70561">
        <ele>195</ele>
        <time>2017-03-25T09:42:01Z</time>
      </trkpt>
      <trkpt lat="45.85831" lon="4.70559">
        <ele>195</ele>
        <time>2017-03-25T09:42:02Z</time>
      </trkpt>
      <trkpt lat="45.85826" lon="4.70556">
        <ele>195</ele>
        <time>2017-03-25T09:42:03Z</time>
      </trkpt>
      <trkpt lat="45.8582" lon="4.70553">
        <ele>195</ele>
        <time>2017-03-25T09:42:04Z</time>
      </trkpt>
      <trkpt lat="45.85814" lon="4.7055">
        <ele>195</ele>
        <time>2017-03-25T09:42:05Z</time>
      </trkpt>
      <trkpt lat="45.85808" lon="4.70548">
        <ele>195</ele>
        <time>2017-03-25T09:42:06Z</time>
      </trkpt>
      <trkpt lat="45.85802" lon="4.70546">
        <ele>195</ele>
        <time>2017-03-25T09:42:07Z</time>
      </trkpt>
      <trkpt lat="45.85797" lon="4.70544">
        <ele>195</ele>
        <time>2017-03-25T09:42:08Z</time>
      </trkpt>
      <trkpt lat="45.85792" lon="4.70541">
        <ele>196</ele>
        <time>2017-03-25T09:42:09Z</time>
      </trkpt>
      <trkpt lat="45.85787" lon="4.70539">
        <ele>196</ele>
        <time>2017-03-25T09:42:10Z</time>
      </trkpt>
      <trkpt lat="45.85781" lon="4.70535">
        <ele>196</ele>
        <time>2017-03-25T09:42:11Z</time>
      </trkpt>
      <trkpt lat="45.85776" lon="4.70532">
        <ele>196</ele>
        <time>2017-03-25T09:42:12Z</time>
      </trkpt>
      <trkpt lat="45.85771" lon="4.70529">
        <ele>196</ele>
        <time>2017-03-25T09:42:13Z</time>
      </trkpt>
      <trkpt lat="45.85767" lon="4.70526">
        <ele>196</ele>
        <time>2017-03-25T09:42:14Z</time>
      </trkpt>
      <trkpt lat="45.85762" lon="4.70522">
        <ele>196</ele>
        <time>2017-03-25T09:42:15Z</time>
      </trkpt>
      <trkpt lat="45.85758" lon="4.70518">
        <ele>196</ele>
        <time>2017-03-25T09:42:16Z</time>
      </trkpt>
      <trkpt lat="45.85754" lon="4.70514">
        <ele>196</ele>
        <time>2017-03-25T09:42:17Z</time>
      </trkpt>
      <trkpt lat="45.8575" lon="4.70512">
        <ele>196</ele>
        <time>2017-03-25T09:42:18Z</time>
      </trkpt>
      <trkpt lat="45.85746" lon="4.70509">
        <ele>196</ele>
        <time>2017-03-25T09:42:19Z</time>
      </trkpt>
      <trkpt lat="45.85742" lon="4.70506">
        <ele>196</ele>
        <time>2017-03-25T09:42:20Z</time>
      </trkpt>
      <trkpt lat="45.85735" lon="4.705">
        <ele>196</ele>
        <time>2017-03-25T09:42:22Z</time>
      </trkpt>
      <trkpt lat="45.85732" lon="4.70497">
        <ele>196</ele>
        <time>2017-03-25T09:42:23Z</time>
      </trkpt>
      <trkpt lat="45.85726" lon="4.70488">
        <ele>196</ele>
        <time>2017-03-25T09:42:25Z</time>
      </trkpt>
      <trkpt lat="45.85723" lon="4.70482">
        <ele>196</ele>
        <time>2017-03-25T09:42:26Z</time>
      </trkpt>
      <trkpt lat="45.85721" lon="4.70475">
        <ele>196</ele>
        <time>2017-03-25T09:42:27Z</time>
      </trkpt>
      <trkpt lat="45.85719" lon="4.70469">
        <ele>196</ele>
        <time>2017-03-25T09:42:28Z</time>
      </trkpt>
      <trkpt lat="45.85718" lon="4.70461">
        <ele>196</ele>
        <time>2017-03-25T09:42:29Z</time>
      </trkpt>
      <trkpt lat="45.85717" lon="4.70454">
        <ele>196</ele>
        <time>2017-03-25T09:42:30Z</time>
      </trkpt>
      <trkpt lat="45.85716" lon="4.70446">
        <ele>196</ele>
        <time>2017-03-25T09:42:31Z</time>
      </trkpt>
      <trkpt lat="45.85715" lon="4.70439">
        <ele>196</ele>
        <time>2017-03-25T09:42:32Z</time>
      </trkpt>
      <trkpt lat="45.85714" lon="4.70431">
        <ele>196</ele>
        <time>2017-03-25T09:42:33Z</time>
      </trkpt>
      <trkpt lat="45.85713" lon="4.70422">
        <ele>196</ele>
        <time>2017-03-25T09:42:34Z</time>
      </trkpt>
      <trkpt lat="45.85712" lon="4.70414">
        <ele>196</ele>
        <time>2017-03-25T09:42:35Z</time>
      </trkpt>
      <trkpt lat="45.85711" lon="4.70405">
        <ele>196</ele>
        <time>2017-03-25T09:42:36Z</time>
      </trkpt>
      <trkpt lat="45.85709" lon="4.70397">
        <ele>196</ele>
        <time>2017-03-25T09:42:37Z</time>
      </trkpt>
      <trkpt lat="45.85708" lon="4.70389">
        <ele>196</ele>
        <time>2017-03-25T09:42:38Z</time>
      </trkpt>
      <trkpt lat="45.85707" lon="4.7038">
        <ele>196</ele>
        <time>2017-03-25T09:42:39Z</time>
      </trkpt>
      <trkpt lat="45.85706" lon="4.70372">
        <ele>196</ele>
        <time>2017-03-25T09:42:40Z</time>
      </trkpt>
      <trkpt lat="45.85705" lon="4.70363">
        <ele>196</ele>
        <time>2017-03-25T09:42:41Z</time>
      </trkpt>
      <trkpt lat="45.85705" lon="4.70355">
        <ele>196</ele>
        <time>2017-03-25T09:42:42Z</time>
      </trkpt>
      <trkpt lat="45.85703" lon="4.70346">
        <ele>196</ele>
        <time>2017-03-25T09:42:43Z</time>
      </trkpt>
      <trkpt lat="45.85702" lon="4.70337">
        <ele>196</ele>
        <time>2017-03-25T09:42:44Z</time>
      </trkpt>
      <trkpt lat="45.85701" lon="4.70329">
        <ele>197</ele>
        <time>2017-03-25T09:42:45Z</time>
      </trkpt>
      <trkpt lat="45.85701" lon="4.7032">
        <ele>197</ele>
        <time>2017-03-25T09:42:46Z</time>
      </trkpt>
      <trkpt lat="45.857" lon="4.70312">
        <ele>197</ele>
        <time>2017-03-25T09:42:47Z</time>
      </trkpt>
      <trkpt lat="45.85699" lon="4.70303">
        <ele>197</ele>
        <time>2017-03-25T09:42:48Z</time>
      </trkpt>
      <trkpt lat="45.85698" lon="4.70294">
        <ele>197</ele>
        <time>2017-03-25T09:42:49Z</time>
      </trkpt>
      <trkpt lat="45.85697" lon="4.70285">
        <ele>197</ele>
        <time>2017-03-25T09:42:50Z</time>
      </trkpt>
      <trkpt lat="45.85696" lon="4.70276">
        <ele>197</ele>
        <time>2017-03-25T09:42:51Z</time>
      </trkpt>
      <trkpt lat="45.85696" lon="4.70267">
        <ele>197</ele>
        <time>2017-03-25T09:42:52Z</time>
      </trkpt>
      <trkpt lat="45.85695" lon="4.70258">
        <ele>197</ele>
        <time>2017-03-25T09:42:53Z</time>
      </trkpt>
      <trkpt lat="45.85694" lon="4.70249">
        <ele>197</ele>
        <time>2017-03-25T09:42:54Z</time>
      </trkpt>
      <trkpt lat="45.85693" lon="4.7024">
        <ele>197</ele>
        <time>2017-03-25T09:42:55Z</time>
      </trkpt>
      <trkpt lat="45.85692" lon="4.70232">
        <ele>197</ele>
        <time>2017-03-25T09:42:56Z</time>
      </trkpt>
      <trkpt lat="45.85691" lon="4.70223">
        <ele>197</ele>
        <time>2017-03-25T09:42:57Z</time>
      </trkpt>
      <trkpt lat="45.8569" lon="4.70215">
        <ele>197</ele>
        <time>2017-03-25T09:42:58Z</time>
      </trkpt>
      <trkpt lat="45.85689" lon="4.70207">
        <ele>197</ele>
        <time>2017-03-25T09:42:59Z</time>
      </trkpt>
      <trkpt lat="45.85686" lon="4.70198">
        <ele>197</ele>
        <time>2017-03-25T09:43:00Z</time>
      </trkpt>
      <trkpt lat="45.85684" lon="4.7019">
        <ele>197</ele>
        <time>2017-03-25T09:43:01Z</time>
      </trkpt>
      <trkpt lat="45.85683" lon="4.70183">
        <ele>197</ele>
        <time>2017-03-25T09:43:02Z</time>
      </trkpt>
      <trkpt lat="45.8568" lon="4.70174">
        <ele>197</ele>
        <time>2017-03-25T09:43:03Z</time>
      </trkpt>
      <trkpt lat="45.85678" lon="4.70166">
        <ele>197</ele>
        <time>2017-03-25T09:43:04Z</time>
      </trkpt>
      <trkpt lat="45.85677" lon="4.70158">
        <ele>197</ele>
        <time>2017-03-25T09:43:05Z</time>
      </trkpt>
      <trkpt lat="45.85675" lon="4.7015">
        <ele>197</ele>
        <time>2017-03-25T09:43:06Z</time>
      </trkpt>
      <trkpt lat="45.85673" lon="4.70142">
        <ele>197</ele>
        <time>2017-03-25T09:43:07Z</time>
      </trkpt>
      <trkpt lat="45.85671" lon="4.70133">
        <ele>197</ele>
        <time>2017-03-25T09:43:08Z</time>
      </trkpt>
      <trkpt lat="45.8567" lon="4.70124">
        <ele>197</ele>
        <time>2017-03-25T09:43:09Z</time>
      </trkpt>
      <trkpt lat="45.8567" lon="4.70115">
        <ele>197</ele>
        <time>2017-03-25T09:43:10Z</time>
      </trkpt>
      <trkpt lat="45.85671" lon="4.70106">
        <ele>196</ele>
        <time>2017-03-25T09:43:11Z</time>
      </trkpt>
      <trkpt lat="45.85672" lon="4.70097">
        <ele>196</ele>
        <time>2017-03-25T09:43:12Z</time>
      </trkpt>
      <trkpt lat="45.85673" lon="4.70089">
        <ele>196</ele>
        <time>2017-03-25T09:43:13Z</time>
      </trkpt>
      <trkpt lat="45.85674" lon="4.70081">
        <ele>196</ele>
        <time>2017-03-25T09:43:14Z</time>
      </trkpt>
      <trkpt lat="45.85675" lon="4.70075">
        <ele>196</ele>
        <time>2017-03-25T09:43:15Z</time>
      </trkpt>
      <trkpt lat="45.85677" lon="4.70068">
        <ele>196</ele>
        <time>2017-03-25T09:43:16Z</time>
      </trkpt>
      <trkpt lat="45.8568" lon="4.70057">
        <ele>195</ele>
        <time>2017-03-25T09:43:18Z</time>
      </trkpt>
      <trkpt lat="45.85681" lon="4.70051">
        <ele>195</ele>
        <time>2017-03-25T09:43:19Z</time>
      </trkpt>
      <trkpt lat="45.85684" lon="4.70039">
        <ele>195</ele>
        <time>2017-03-25T09:43:21Z</time>
      </trkpt>
      <trkpt lat="45.85685" lon="4.70033">
        <ele>195</ele>
        <time>2017-03-25T09:43:22Z</time>
      </trkpt>
      <trkpt lat="45.85687" lon="4.70025">
        <ele>195</ele>
        <time>2017-03-25T09:43:23Z</time>
      </trkpt>
      <trkpt lat="45.85688" lon="4.70017">
        <ele>195</ele>
        <time>2017-03-25T09:43:24Z</time>
      </trkpt>
      <trkpt lat="45.85688" lon="4.70009">
        <ele>195</ele>
        <time>2017-03-25T09:43:25Z</time>
      </trkpt>
      <trkpt lat="45.85688" lon="4.70001">
        <ele>195</ele>
        <time>2017-03-25T09:43:26Z</time>
      </trkpt>
      <trkpt lat="45.85688" lon="4.69992">
        <ele>195</ele>
        <time>2017-03-25T09:43:27Z</time>
      </trkpt>
      <trkpt lat="45.85687" lon="4.69984">
        <ele>195</ele>
        <time>2017-03-25T09:43:28Z</time>
      </trkpt>
      <trkpt lat="45.85686" lon="4.69976">
        <ele>195</ele>
        <time>2017-03-25T09:43:29Z</time>
      </trkpt>
      <trkpt lat="45.85685" lon="4.69968">
        <ele>195</ele>
        <time>2017-03-25T09:43:30Z</time>
      </trkpt>
      <trkpt lat="45.85685" lon="4.6996">
        <ele>195</ele>
        <time>2017-03-25T09:43:31Z</time>
      </trkpt>
      <trkpt lat="45.85682" lon="4.69952">
        <ele>195</ele>
        <time>2017-03-25T09:43:32Z</time>
      </trkpt>
      <trkpt lat="45.8568" lon="4.69944">
        <ele>195</ele>
        <time>2017-03-25T09:43:33Z</time>
      </trkpt>
      <trkpt lat="45.85676" lon="4.69936">
        <ele>195</ele>
        <time>2017-03-25T09:43:34Z</time>
      </trkpt>
      <trkpt lat="45.85674" lon="4.69928">
        <ele>195</ele>
        <time>2017-03-25T09:43:35Z</time>
      </trkpt>
      <trkpt lat="45.85672" lon="4.69919">
        <ele>195</ele>
        <time>2017-03-25T09:43:36Z</time>
      </trkpt>
      <trkpt lat="45.8567" lon="4.69911">
        <ele>195</ele>
        <time>2017-03-25T09:43:37Z</time>
      </trkpt>
      <trkpt lat="45.85668" lon="4.69903">
        <ele>195</ele>
        <time>2017-03-25T09:43:38Z</time>
      </trkpt>
      <trkpt lat="45.85666" lon="4.69894">
        <ele>195</ele>
        <time>2017-03-25T09:43:39Z</time>
      </trkpt>
      <trkpt lat="45.85665" lon="4.69886">
        <ele>195</ele>
        <time>2017-03-25T09:43:40Z</time>
      </trkpt>
      <trkpt lat="45.85664" lon="4.69877">
        <ele>195</ele>
        <time>2017-03-25T09:43:41Z</time>
      </trkpt>
      <trkpt lat="45.85663" lon="4.69868">
        <ele>195</ele>
        <time>2017-03-25T09:43:42Z</time>
      </trkpt>
      <trkpt lat="45.85662" lon="4.6986">
        <ele>195</ele>
        <time>2017-03-25T09:43:43Z</time>
      </trkpt>
      <trkpt lat="45.85661" lon="4.69851">
        <ele>195</ele>
        <time>2017-03-25T09:43:44Z</time>
      </trkpt>
      <trkpt lat="45.85661" lon="4.69843">
        <ele>195</ele>
        <time>2017-03-25T09:43:45Z</time>
      </trkpt>
      <trkpt lat="45.8566" lon="4.69835">
        <ele>195</ele>
        <time>2017-03-25T09:43:46Z</time>
      </trkpt>
      <trkpt lat="45.8566" lon="4.69828">
        <ele>195</ele>
        <time>2017-03-25T09:43:47Z</time>
      </trkpt>
      <trkpt lat="45.85659" lon="4.6982">
        <ele>195</ele>
        <time>2017-03-25T09:43:48Z</time>
      </trkpt>
      <trkpt lat="45.85658" lon="4.69812">
        <ele>195</ele>
        <time>2017-03-25T09:43:49Z</time>
      </trkpt>
      <trkpt lat="45.85657" lon="4.69804">
        <ele>195</ele>
        <time>2017-03-25T09:43:50Z</time>
      </trkpt>
      <trkpt lat="45.85656" lon="4.69796">
        <ele>195</ele>
        <time>2017-03-25T09:43:51Z</time>
      </trkpt>
      <trkpt lat="45.85655" lon="4.69788">
        <ele>195</ele>
        <time>2017-03-25T09:43:52Z</time>
      </trkpt>
      <trkpt lat="45.85654" lon="4.69779">
        <ele>195</ele>
        <time>2017-03-25T09:43:53Z</time>
      </trkpt>
      <trkpt lat="45.85653" lon="4.6977">
        <ele>195</ele>
        <time>2017-03-25T09:43:54Z</time>
      </trkpt>
      <trkpt lat="45.85652" lon="4.69762">
        <ele>195</ele>
        <time>2017-03-25T09:43:55Z</time>
      </trkpt>
      <trkpt lat="45.85652" lon="4.69754">
        <ele>195</ele>
        <time>2017-03-25T09:43:56Z</time>
      </trkpt>
      <trkpt lat="45.85651" lon="4.69746">
        <ele>195</ele>
        <time>2017-03-25T09:43:57Z</time>
      </trkpt>
      <trkpt lat="45.85651" lon="4.69738">
        <ele>195</ele>
        <time>2017-03-25T09:43:58Z</time>
      </trkpt>
      <trkpt lat="45.8565" lon="4.69731">
        <ele>195</ele>
        <time>2017-03-25T09:43:59Z</time>
      </trkpt>
      <trkpt lat="45.85649" lon="4.69723">
        <ele>196</ele>
        <time>2017-03-25T09:44:00Z</time>
      </trkpt>
      <trkpt lat="45.85648" lon="4.69715">
        <ele>196</ele>
        <time>2017-03-25T09:44:01Z</time>
      </trkpt>
      <trkpt lat="45.85647" lon="4.69708">
        <ele>196</ele>
        <time>2017-03-25T09:44:02Z</time>
      </trkpt>
      <trkpt lat="45.85646" lon="4.697">
        <ele>196</ele>
        <time>2017-03-25T09:44:03Z</time>
      </trkpt>
      <trkpt lat="45.85645" lon="4.69692">
        <ele>196</ele>
        <time>2017-03-25T09:44:04Z</time>
      </trkpt>
      <trkpt lat="45.85645" lon="4.69684">
        <ele>196</ele>
        <time>2017-03-25T09:44:05Z</time>
      </trkpt>
      <trkpt lat="45.85644" lon="4.69676">
        <ele>196</ele>
        <time>2017-03-25T09:44:06Z</time>
      </trkpt>
      <trkpt lat="45.85643" lon="4.69668">
        <ele>196</ele>
        <time>2017-03-25T09:44:07Z</time>
      </trkpt>
      <trkpt lat="45.85642" lon="4.6966">
        <ele>197</ele>
        <time>2017-03-25T09:44:08Z</time>
      </trkpt>
      <trkpt lat="45.85642" lon="4.69651">
        <ele>197</ele>
        <time>2017-03-25T09:44:09Z</time>
      </trkpt>
      <trkpt lat="45.85641" lon="4.69643">
        <ele>197</ele>
        <time>2017-03-25T09:44:10Z</time>
      </trkpt>
      <trkpt lat="45.85641" lon="4.69634">
        <ele>197</ele>
        <time>2017-03-25T09:44:11Z</time>
      </trkpt>
      <trkpt lat="45.8564" lon="4.69626">
        <ele>197</ele>
        <time>2017-03-25T09:44:12Z</time>
      </trkpt>
      <trkpt lat="45.8564" lon="4.69618">
        <ele>197</ele>
        <time>2017-03-25T09:44:13Z</time>
      </trkpt>
      <trkpt lat="45.85639" lon="4.69611">
        <ele>197</ele>
        <time>2017-03-25T09:44:14Z</time>
      </trkpt>
      <trkpt lat="45.85638" lon="4.69603">
        <ele>197</ele>
        <time>2017-03-25T09:44:15Z</time>
      </trkpt>
      <trkpt lat="45.85637" lon="4.69595">
        <ele>197</ele>
        <time>2017-03-25T09:44:16Z</time>
      </trkpt>
      <trkpt lat="45.85636" lon="4.69587">
        <ele>197</ele>
        <time>2017-03-25T09:44:17Z</time>
      </trkpt>
      <trkpt lat="45.85636" lon="4.69579">
        <ele>198</ele>
        <time>2017-03-25T09:44:18Z</time>
      </trkpt>
      <trkpt lat="45.85635" lon="4.69571">
        <ele>198</ele>
        <time>2017-03-25T09:44:19Z</time>
      </trkpt>
      <trkpt lat="45.85634" lon="4.69563">
        <ele>198</ele>
        <time>2017-03-25T09:44:20Z</time>
      </trkpt>
      <trkpt lat="45.85633" lon="4.69556">
        <ele>198</ele>
        <time>2017-03-25T09:44:21Z</time>
      </trkpt>
      <trkpt lat="45.85632" lon="4.69548">
        <ele>198</ele>
        <time>2017-03-25T09:44:22Z</time>
      </trkpt>
      <trkpt lat="45.85631" lon="4.69539">
        <ele>198</ele>
        <time>2017-03-25T09:44:23Z</time>
      </trkpt>
      <trkpt lat="45.85631" lon="4.69531">
        <ele>198</ele>
        <time>2017-03-25T09:44:24Z</time>
      </trkpt>
      <trkpt lat="45.8563" lon="4.69523">
        <ele>198</ele>
        <time>2017-03-25T09:44:25Z</time>
      </trkpt>
      <trkpt lat="45.85628" lon="4.69515">
        <ele>198</ele>
        <time>2017-03-25T09:44:26Z</time>
      </trkpt>
      <trkpt lat="45.85627" lon="4.69507">
        <ele>198</ele>
        <time>2017-03-25T09:44:27Z</time>
      </trkpt>
      <trkpt lat="45.85627" lon="4.69499">
        <ele>198</ele>
        <time>2017-03-25T09:44:28Z</time>
      </trkpt>
      <trkpt lat="45.85626" lon="4.69491">
        <ele>198</ele>
        <time>2017-03-25T09:44:29Z</time>
      </trkpt>
      <trkpt lat="45.85625" lon="4.69482">
        <ele>198</ele>
        <time>2017-03-25T09:44:30Z</time>
      </trkpt>
      <trkpt lat="45.85625" lon="4.69474">
        <ele>198</ele>
        <time>2017-03-25T09:44:31Z</time>
      </trkpt>
      <trkpt lat="45.85624" lon="4.69466">
        <ele>198</ele>
        <time>2017-03-25T09:44:32Z</time>
      </trkpt>
      <trkpt lat="45.85623" lon="4.69457">
        <ele>198</ele>
        <time>2017-03-25T09:44:33Z</time>
      </trkpt>
      <trkpt lat="45.85623" lon="4.69449">
        <ele>198</ele>
        <time>2017-03-25T09:44:34Z</time>
      </trkpt>
      <trkpt lat="45.85622" lon="4.69441">
        <ele>198</ele>
        <time>2017-03-25T09:44:35Z</time>
      </trkpt>
      <trkpt lat="45.85622" lon="4.69434">
        <ele>198</ele>
        <time>2017-03-25T09:44:36Z</time>
      </trkpt>
      <trkpt lat="45.85621" lon="4.69427">
        <ele>198</ele>
        <time>2017-03-25T09:44:37Z</time>
      </trkpt>
      <trkpt lat="45.85621" lon="4.69419">
        <ele>198</ele>
        <time>2017-03-25T09:44:38Z</time>
      </trkpt>
      <trkpt lat="45.8562" lon="4.69412">
        <ele>198</ele>
        <time>2017-03-25T09:44:39Z</time>
      </trkpt>
      <trkpt lat="45.85619" lon="4.69404">
        <ele>198</ele>
        <time>2017-03-25T09:44:40Z</time>
      </trkpt>
      <trkpt lat="45.85619" lon="4.69395">
        <ele>198</ele>
        <time>2017-03-25T09:44:41Z</time>
      </trkpt>
      <trkpt lat="45.85618" lon="4.69387">
        <ele>198</ele>
        <time>2017-03-25T09:44:42Z</time>
      </trkpt>
      <trkpt lat="45.85617" lon="4.69378">
        <ele>198</ele>
        <time>2017-03-25T09:44:43Z</time>
      </trkpt>
      <trkpt lat="45.85617" lon="4.69369">
        <ele>198</ele>
        <time>2017-03-25T09:44:44Z</time>
      </trkpt>
      <trkpt lat="45.85616" lon="4.6936">
        <ele>198</ele>
        <time>2017-03-25T09:44:45Z</time>
      </trkpt>
      <trkpt lat="45.85615" lon="4.69352">
        <ele>198</ele>
        <time>2017-03-25T09:44:46Z</time>
      </trkpt>
      <trkpt lat="45.85614" lon="4.69344">
        <ele>198</ele>
        <time>2017-03-25T09:44:47Z</time>
      </trkpt>
      <trkpt lat="45.85613" lon="4.69336">
        <ele>198</ele>
        <time>2017-03-25T09:44:48Z</time>
      </trkpt>
      <trkpt lat="45.85612" lon="4.69328">
        <ele>198</ele>
        <time>2017-03-25T09:44:49Z</time>
      </trkpt>
      <trkpt lat="45.85612" lon="4.6932">
        <ele>198</ele>
        <time>2017-03-25T09:44:50Z</time>
      </trkpt>
      <trkpt lat="45.8561" lon="4.69313">
        <ele>198</ele>
        <time>2017-03-25T09:44:51Z</time>
      </trkpt>
      <trkpt lat="45.85609" lon="4.69305">
        <ele>198</ele>
        <time>2017-03-25T09:44:52Z</time>
      </trkpt>
      <trkpt lat="45.85609" lon="4.69297">
        <ele>198</ele>
        <time>2017-03-25T09:44:53Z</time>
      </trkpt>
      <trkpt lat="45.85608" lon="4.69289">
        <ele>198</ele>
        <time>2017-03-25T09:44:54Z</time>
      </trkpt>
      <trkpt lat="45.85608" lon="4.69282">
        <ele>198</ele>
        <time>2017-03-25T09:44:55Z</time>
      </trkpt>
      <trkpt lat="45.85609" lon="4.69273">
        <ele>198</ele>
        <time>2017-03-25T09:44:56Z</time>
      </trkpt>
      <trkpt lat="45.85609" lon="4.69265">
        <ele>198</ele>
        <time>2017-03-25T09:44:57Z</time>
      </trkpt>
      <trkpt lat="45.85608" lon="4.69257">
        <ele>198</ele>
        <time>2017-03-25T09:44:58Z</time>
      </trkpt>
      <trkpt lat="45.85607" lon="4.69249">
        <ele>199</ele>
        <time>2017-03-25T09:44:59Z</time>
      </trkpt>
      <trkpt lat="45.85605" lon="4.69241">
        <ele>199</ele>
        <time>2017-03-25T09:45:00Z</time>
      </trkpt>
      <trkpt lat="45.85603" lon="4.69233">
        <ele>199</ele>
        <time>2017-03-25T09:45:01Z</time>
      </trkpt>
      <trkpt lat="45.85602" lon="4.69224">
        <ele>199</ele>
        <time>2017-03-25T09:45:02Z</time>
      </trkpt>
      <trkpt lat="45.85601" lon="4.69216">
        <ele>199</ele>
        <time>2017-03-25T09:45:03Z</time>
      </trkpt>
      <trkpt lat="45.856" lon="4.69207">
        <ele>199</ele>
        <time>2017-03-25T09:45:04Z</time>
      </trkpt>
      <trkpt lat="45.85599" lon="4.69198">
        <ele>199</ele>
        <time>2017-03-25T09:45:05Z</time>
      </trkpt>
      <trkpt lat="45.85599" lon="4.69189">
        <ele>199</ele>
        <time>2017-03-25T09:45:06Z</time>
      </trkpt>
      <trkpt lat="45.85598" lon="4.69181">
        <ele>199</ele>
        <time>2017-03-25T09:45:07Z</time>
      </trkpt>
      <trkpt lat="45.85597" lon="4.69173">
        <ele>199</ele>
        <time>2017-03-25T09:45:08Z</time>
      </trkpt>
      <trkpt lat="45.85597" lon="4.69165">
        <ele>199</ele>
        <time>2017-03-25T09:45:09Z</time>
      </trkpt>
      <trkpt lat="45.85596" lon="4.69157">
        <ele>199</ele>
        <time>2017-03-25T09:45:10Z</time>
      </trkpt>
      <trkpt lat="45.85596" lon="4.69149">
        <ele>199</ele>
        <time>2017-03-25T09:45:11Z</time>
      </trkpt>
      <trkpt lat="45.85595" lon="4.69141">
        <ele>199</ele>
        <time>2017-03-25T09:45:12Z</time>
      </trkpt>
      <trkpt lat="45.85594" lon="4.69133">
        <ele>199</ele>
        <time>2017-03-25T09:45:13Z</time>
      </trkpt>
      <trkpt lat="45.85593" lon="4.69124">
        <ele>198</ele>
        <time>2017-03-25T09:45:14Z</time>
      </trkpt>
      <trkpt lat="45.85592" lon="4.69115">
        <ele>199</ele>
        <time>2017-03-25T09:45:15Z</time>
      </trkpt>
      <trkpt lat="45.85591" lon="4.69106">
        <ele>199</ele>
        <time>2017-03-25T09:45:16Z</time>
      </trkpt>
      <trkpt lat="45.85591" lon="4.69096">
        <ele>199</ele>
        <time>2017-03-25T09:45:17Z</time>
      </trkpt>
      <trkpt lat="45.8559" lon="4.69087">
        <ele>199</ele>
        <time>2017-03-25T09:45:18Z</time>
      </trkpt>
      <trkpt lat="45.85589" lon="4.69078">
        <ele>199</ele>
        <time>2017-03-25T09:45:19Z</time>
      </trkpt>
      <trkpt lat="45.85588" lon="4.69069">
        <ele>199</ele>
        <time>2017-03-25T09:45:20Z</time>
      </trkpt>
      <trkpt lat="45.85587" lon="4.6906">
        <ele>199</ele>
        <time>2017-03-25T09:45:21Z</time>
      </trkpt>
      <trkpt lat="45.85586" lon="4.69052">
        <ele>199</ele>
        <time>2017-03-25T09:45:22Z</time>
      </trkpt>
      <trkpt lat="45.85586" lon="4.69043">
        <ele>199</ele>
        <time>2017-03-25T09:45:23Z</time>
      </trkpt>
      <trkpt lat="45.85585" lon="4.69034">
        <ele>199</ele>
        <time>2017-03-25T09:45:24Z</time>
      </trkpt>
      <trkpt lat="45.85584" lon="4.69025">
        <ele>199</ele>
        <time>2017-03-25T09:45:25Z</time>
      </trkpt>
      <trkpt lat="45.85583" lon="4.69016">
        <ele>200</ele>
        <time>2017-03-25T09:45:26Z</time>
      </trkpt>
      <trkpt lat="45.85583" lon="4.69008">
        <ele>200</ele>
        <time>2017-03-25T09:45:27Z</time>
      </trkpt>
      <trkpt lat="45.85582" lon="4.68999">
        <ele>200</ele>
        <time>2017-03-25T09:45:28Z</time>
      </trkpt>
      <trkpt lat="45.85581" lon="4.6899">
        <ele>200</ele>
        <time>2017-03-25T09:45:29Z</time>
      </trkpt>
      <trkpt lat="45.8558" lon="4.68981">
        <ele>200</ele>
        <time>2017-03-25T09:45:30Z</time>
      </trkpt>
      <trkpt lat="45.85578" lon="4.68972">
        <ele>200</ele>
        <time>2017-03-25T09:45:31Z</time>
      </trkpt>
      <trkpt lat="45.85578" lon="4.68963">
        <ele>200</ele>
        <time>2017-03-25T09:45:32Z</time>
      </trkpt>
      <trkpt lat="45.85577" lon="4.68955">
        <ele>200</ele>
        <time>2017-03-25T09:45:33Z</time>
      </trkpt>
      <trkpt lat="45.85577" lon="4.68947">
        <ele>200</ele>
        <time>2017-03-25T09:45:34Z</time>
      </trkpt>
      <trkpt lat="45.85576" lon="4.68939">
        <ele>200</ele>
        <time>2017-03-25T09:45:35Z</time>
      </trkpt>
      <trkpt lat="45.85575" lon="4.68931">
        <ele>200</ele>
        <time>2017-03-25T09:45:36Z</time>
      </trkpt>
      <trkpt lat="45.85574" lon="4.68923">
        <ele>200</ele>
        <time>2017-03-25T09:45:37Z</time>
      </trkpt>
      <trkpt lat="45.85573" lon="4.68916">
        <ele>200</ele>
        <time>2017-03-25T09:45:38Z</time>
      </trkpt>
      <trkpt lat="45.85573" lon="4.68909">
        <ele>200</ele>
        <time>2017-03-25T09:45:39Z</time>
      </trkpt>
      <trkpt lat="45.85572" lon="4.68901">
        <ele>200</ele>
        <time>2017-03-25T09:45:40Z</time>
      </trkpt>
      <trkpt lat="45.85571" lon="4.68894">
        <ele>200</ele>
        <time>2017-03-25T09:45:41Z</time>
      </trkpt>
      <trkpt lat="45.8557" lon="4.68887">
        <ele>200</ele>
        <time>2017-03-25T09:45:42Z</time>
      </trkpt>
      <trkpt lat="45.8557" lon="4.6888">
        <ele>200</ele>
        <time>2017-03-25T09:45:43Z</time>
      </trkpt>
      <trkpt lat="45.85569" lon="4.68874">
        <ele>200</ele>
        <time>2017-03-25T09:45:44Z</time>
      </trkpt>
      <trkpt lat="45.85568" lon="4.68867">
        <ele>200</ele>
        <time>2017-03-25T09:45:45Z</time>
      </trkpt>
      <trkpt lat="45.85567" lon="4.6886">
        <ele>200</ele>
        <time>2017-03-25T09:45:46Z</time>
      </trkpt>
      <trkpt lat="45.85565" lon="4.68848">
        <ele>200</ele>
        <time>2017-03-25T09:45:48Z</time>
      </trkpt>
      <trkpt lat="45.85564" lon="4.68842">
        <ele>200</ele>
        <time>2017-03-25T09:45:49Z</time>
      </trkpt>
      <trkpt lat="45.85563" lon="4.6883">
        <ele>200</ele>
        <time>2017-03-25T09:45:51Z</time>
      </trkpt>
      <trkpt lat="45.85562" lon="4.68825">
        <ele>200</ele>
        <time>2017-03-25T09:45:52Z</time>
      </trkpt>
      <trkpt lat="45.85561" lon="4.68816">
        <ele>200</ele>
        <time>2017-03-25T09:45:54Z</time>
      </trkpt>
      <trkpt lat="45.85561" lon="4.68812">
        <ele>200</ele>
        <time>2017-03-25T09:45:55Z</time>
      </trkpt>
      <trkpt lat="45.85561" lon="4.68801">
        <ele>200</ele>
        <time>2017-03-25T09:45:58Z</time>
      </trkpt>
      <trkpt lat="45.85561" lon="4.68797">
        <ele>200</ele>
        <time>2017-03-25T09:45:59Z</time>
      </trkpt>
      <trkpt lat="45.85561" lon="4.68785">
        <ele>200</ele>
        <time>2017-03-25T09:46:02Z</time>
      </trkpt>
      <trkpt lat="45.8556" lon="4.68781">
        <ele>200</ele>
        <time>2017-03-25T09:46:03Z</time>
      </trkpt>
      <trkpt lat="45.8556" lon="4.68772">
        <ele>200</ele>
        <time>2017-03-25T09:46:05Z</time>
      </trkpt>
      <trkpt lat="45.85561" lon="4.68767">
        <ele>200</ele>
        <time>2017-03-25T09:46:06Z</time>
      </trkpt>
      <trkpt lat="45.85562" lon="4.68758">
        <ele>200</ele>
        <time>2017-03-25T09:46:08Z</time>
      </trkpt>
      <trkpt lat="45.85561" lon="4.68753">
        <ele>200</ele>
        <time>2017-03-25T09:46:09Z</time>
      </trkpt>
      <trkpt lat="45.85559" lon="4.68743">
        <ele>200</ele>
        <time>2017-03-25T09:46:11Z</time>
      </trkpt>
      <trkpt lat="45.85558" lon="4.68737">
        <ele>200</ele>
        <time>2017-03-25T09:46:12Z</time>
      </trkpt>
      <trkpt lat="45.85557" lon="4.68731">
        <ele>200</ele>
        <time>2017-03-25T09:46:13Z</time>
      </trkpt>
      <trkpt lat="45.85556" lon="4.68724">
        <ele>200</ele>
        <time>2017-03-25T09:46:14Z</time>
      </trkpt>
      <trkpt lat="45.85556" lon="4.68717">
        <ele>200</ele>
        <time>2017-03-25T09:46:15Z</time>
      </trkpt>
      <trkpt lat="45.85555" lon="4.6871">
        <ele>200</ele>
        <time>2017-03-25T09:46:16Z</time>
      </trkpt>
      <trkpt lat="45.85554" lon="4.68702">
        <ele>200</ele>
        <time>2017-03-25T09:46:17Z</time>
      </trkpt>
      <trkpt lat="45.85553" lon="4.68695">
        <ele>200</ele>
        <time>2017-03-25T09:46:18Z</time>
      </trkpt>
      <trkpt lat="45.85552" lon="4.68687">
        <ele>200</ele>
        <time>2017-03-25T09:46:19Z</time>
      </trkpt>
      <trkpt lat="45.85552" lon="4.68679">
        <ele>200</ele>
        <time>2017-03-25T09:46:20Z</time>
      </trkpt>
      <trkpt lat="45.85551" lon="4.68671">
        <ele>200</ele>
        <time>2017-03-25T09:46:21Z</time>
      </trkpt>
      <trkpt lat="45.8555" lon="4.68663">
        <ele>200</ele>
        <time>2017-03-25T09:46:22Z</time>
      </trkpt>
      <trkpt lat="45.85549" lon="4.68656">
        <ele>201</ele>
        <time>2017-03-25T09:46:23Z</time>
      </trkpt>
      <trkpt lat="45.85548" lon="4.68649">
        <ele>201</ele>
        <time>2017-03-25T09:46:24Z</time>
      </trkpt>
      <trkpt lat="45.85546" lon="4.68642">
        <ele>201</ele>
        <time>2017-03-25T09:46:25Z</time>
      </trkpt>
      <trkpt lat="45.85545" lon="4.68634">
        <ele>201</ele>
        <time>2017-03-25T09:46:26Z</time>
      </trkpt>
      <trkpt lat="45.85544" lon="4.68627">
        <ele>201</ele>
        <time>2017-03-25T09:46:27Z</time>
      </trkpt>
      <trkpt lat="45.85543" lon="4.6862">
        <ele>201</ele>
        <time>2017-03-25T09:46:28Z</time>
      </trkpt>
      <trkpt lat="45.85542" lon="4.68613">
        <ele>201</ele>
        <time>2017-03-25T09:46:29Z</time>
      </trkpt>
      <trkpt lat="45.85541" lon="4.68607">
        <ele>201</ele>
        <time>2017-03-25T09:46:30Z</time>
      </trkpt>
      <trkpt lat="45.8554" lon="4.68601">
        <ele>201</ele>
        <time>2017-03-25T09:46:31Z</time>
      </trkpt>
      <trkpt lat="45.85539" lon="4.68594">
        <ele>201</ele>
        <time>2017-03-25T09:46:32Z</time>
      </trkpt>
      <trkpt lat="45.85539" lon="4.68586">
        <ele>201</ele>
        <time>2017-03-25T09:46:33Z</time>
      </trkpt>
      <trkpt lat="45.85537" lon="4.68578">
        <ele>201</ele>
        <time>2017-03-25T09:46:34Z</time>
      </trkpt>
      <trkpt lat="45.85537" lon="4.6857">
        <ele>201</ele>
        <time>2017-03-25T09:46:35Z</time>
      </trkpt>
      <trkpt lat="45.85537" lon="4.68562">
        <ele>201</ele>
        <time>2017-03-25T09:46:36Z</time>
      </trkpt>
      <trkpt lat="45.85538" lon="4.68552">
        <ele>201</ele>
        <time>2017-03-25T09:46:37Z</time>
      </trkpt>
      <trkpt lat="45.85538" lon="4.68542">
        <ele>201</ele>
        <time>2017-03-25T09:46:38Z</time>
      </trkpt>
      <trkpt lat="45.85538" lon="4.68533">
        <ele>201</ele>
        <time>2017-03-25T09:46:39Z</time>
      </trkpt>
      <trkpt lat="45.85537" lon="4.68524">
        <ele>201</ele>
        <time>2017-03-25T09:46:40Z</time>
      </trkpt>
      <trkpt lat="45.85536" lon="4.68515">
        <ele>201</ele>
        <time>2017-03-25T09:46:41Z</time>
      </trkpt>
      <trkpt lat="45.85535" lon="4.68507">
        <ele>201</ele>
        <time>2017-03-25T09:46:42Z</time>
      </trkpt>
      <trkpt lat="45.85535" lon="4.68499">
        <ele>200</ele>
        <time>2017-03-25T09:46:43Z</time>
      </trkpt>
      <trkpt lat="45.85534" lon="4.68491">
        <ele>200</ele>
        <time>2017-03-25T09:46:44Z</time>
      </trkpt>
      <trkpt lat="45.85534" lon="4.68483">
        <ele>200</ele>
        <time>2017-03-25T09:46:45Z</time>
      </trkpt>
      <trkpt lat="45.85532" lon="4.68475">
        <ele>200</ele>
        <time>2017-03-25T09:46:46Z</time>
      </trkpt>
      <trkpt lat="45.85531" lon="4.68467">
        <ele>200</ele>
        <time>2017-03-25T09:46:47Z</time>
      </trkpt>
      <trkpt lat="45.8553" lon="4.68459">
        <ele>200</ele>
        <time>2017-03-25T09:46:48Z</time>
      </trkpt>
      <trkpt lat="45.85529" lon="4.68451">
        <ele>200</ele>
        <time>2017-03-25T09:46:49Z</time>
      </trkpt>
      <trkpt lat="45.85528" lon="4.68443">
        <ele>200</ele>
        <time>2017-03-25T09:46:50Z</time>
      </trkpt>
      <trkpt lat="45.85527" lon="4.68436">
        <ele>200</ele>
        <time>2017-03-25T09:46:51Z</time>
      </trkpt>
      <trkpt lat="45.85526" lon="4.68429">
        <ele>200</ele>
        <time>2017-03-25T09:46:52Z</time>
      </trkpt>
      <trkpt lat="45.85526" lon="4.68423">
        <ele>200</ele>
        <time>2017-03-25T09:46:53Z</time>
      </trkpt>
      <trkpt lat="45.85525" lon="4.68416">
        <ele>200</ele>
        <time>2017-03-25T09:46:54Z</time>
      </trkpt>
      <trkpt lat="45.85524" lon="4.6841">
        <ele>200</ele>
        <time>2017-03-25T09:46:55Z</time>
      </trkpt>
      <trkpt lat="45.85523" lon="4.68403">
        <ele>200</ele>
        <time>2017-03-25T09:46:56Z</time>
      </trkpt>
      <trkpt lat="45.85523" lon="4.68397">
        <ele>200</ele>
        <time>2017-03-25T09:46:57Z</time>
      </trkpt>
      <trkpt lat="45.85523" lon="4.6839">
        <ele>200</ele>
        <time>2017-03-25T09:46:58Z</time>
      </trkpt>
      <trkpt lat="45.85521" lon="4.68383">
        <ele>201</ele>
        <time>2017-03-25T09:46:59Z</time>
      </trkpt>
      <trkpt lat="45.85521" lon="4.68374">
        <ele>201</ele>
        <time>2017-03-25T09:47:00Z</time>
      </trkpt>
      <trkpt lat="45.8552" lon="4.68366">
        <ele>201</ele>
        <time>2017-03-25T09:47:01Z</time>
      </trkpt>
      <trkpt lat="45.85519" lon="4.68357">
        <ele>201</ele>
        <time>2017-03-25T09:47:02Z</time>
      </trkpt>
      <trkpt lat="45.85518" lon="4.68349">
        <ele>201</ele>
        <time>2017-03-25T09:47:03Z</time>
      </trkpt>
      <trkpt lat="45.85518" lon="4.68341">
        <ele>201</ele>
        <time>2017-03-25T09:47:04Z</time>
      </trkpt>
      <trkpt lat="45.85517" lon="4.68333">
        <ele>202</ele>
        <time>2017-03-25T09:47:05Z</time>
      </trkpt>
      <trkpt lat="45.85517" lon="4.68324">
        <ele>202</ele>
        <time>2017-03-25T09:47:06Z</time>
      </trkpt>
      <trkpt lat="45.85516" lon="4.68316">
        <ele>202</ele>
        <time>2017-03-25T09:47:07Z</time>
      </trkpt>
      <trkpt lat="45.85516" lon="4.68307">
        <ele>202</ele>
        <time>2017-03-25T09:47:08Z</time>
      </trkpt>
      <trkpt lat="45.85515" lon="4.683">
        <ele>202</ele>
        <time>2017-03-25T09:47:09Z</time>
      </trkpt>
      <trkpt lat="45.85515" lon="4.68292">
        <ele>202</ele>
        <time>2017-03-25T09:47:10Z</time>
      </trkpt>
      <trkpt lat="45.85514" lon="4.68284">
        <ele>202</ele>
        <time>2017-03-25T09:47:11Z</time>
      </trkpt>
      <trkpt lat="45.85513" lon="4.68276">
        <ele>202</ele>
        <time>2017-03-25T09:47:12Z</time>
      </trkpt>
      <trkpt lat="45.85513" lon="4.68269">
        <ele>202</ele>
        <time>2017-03-25T09:47:13Z</time>
      </trkpt>
      <trkpt lat="45.85512" lon="4.68262">
        <ele>203</ele>
        <time>2017-03-25T09:47:14Z</time>
      </trkpt>
      <trkpt lat="45.85511" lon="4.68255">
        <ele>203</ele>
        <time>2017-03-25T09:47:15Z</time>
      </trkpt>
      <trkpt lat="45.8551" lon="4.68248">
        <ele>203</ele>
        <time>2017-03-25T09:47:16Z</time>
      </trkpt>
      <trkpt lat="45.85509" lon="4.6824">
        <ele>203</ele>
        <time>2017-03-25T09:47:17Z</time>
      </trkpt>
      <trkpt lat="45.85509" lon="4.68232">
        <ele>203</ele>
        <time>2017-03-25T09:47:18Z</time>
      </trkpt>
      <trkpt lat="45.85508" lon="4.68223">
        <ele>203</ele>
        <time>2017-03-25T09:47:19Z</time>
      </trkpt>
      <trkpt lat="45.85507" lon="4.68215">
        <ele>203</ele>
        <time>2017-03-25T09:47:20Z</time>
      </trkpt>
      <trkpt lat="45.85507" lon="4.68207">
        <ele>203</ele>
        <time>2017-03-25T09:47:21Z</time>
      </trkpt>
      <trkpt lat="45.85506" lon="4.68199">
        <ele>203</ele>
        <time>2017-03-25T09:47:22Z</time>
      </trkpt>
      <trkpt lat="45.85505" lon="4.68191">
        <ele>203</ele>
        <time>2017-03-25T09:47:23Z</time>
      </trkpt>
      <trkpt lat="45.85504" lon="4.68183">
        <ele>204</ele>
        <time>2017-03-25T09:47:24Z</time>
      </trkpt>
      <trkpt lat="45.85504" lon="4.68175">
        <ele>204</ele>
        <time>2017-03-25T09:47:25Z</time>
      </trkpt>
      <trkpt lat="45.85503" lon="4.68167">
        <ele>204</ele>
        <time>2017-03-25T09:47:26Z</time>
      </trkpt>
      <trkpt lat="45.85502" lon="4.68159">
        <ele>204</ele>
        <time>2017-03-25T09:47:27Z</time>
      </trkpt>
      <trkpt lat="45.85502" lon="4.68151">
        <ele>203</ele>
        <time>2017-03-25T09:47:28Z</time>
      </trkpt>
      <trkpt lat="45.85501" lon="4.68143">
        <ele>203</ele>
        <time>2017-03-25T09:47:29Z</time>
      </trkpt>
      <trkpt lat="45.855" lon="4.68136">
        <ele>204</ele>
        <time>2017-03-25T09:47:30Z</time>
      </trkpt>
      <trkpt lat="45.85498" lon="4.68126">
        <ele>204</ele>
        <time>2017-03-25T09:47:32Z</time>
      </trkpt>
      <trkpt lat="45.85497" lon="4.68122">
        <ele>204</ele>
        <time>2017-03-25T09:47:33Z</time>
      </trkpt>
      <trkpt lat="45.85498" lon="4.68113">
        <ele>204</ele>
        <time>2017-03-25T09:47:35Z</time>
      </trkpt>
      <trkpt lat="45.85498" lon="4.68107">
        <ele>204</ele>
        <time>2017-03-25T09:47:36Z</time>
      </trkpt>
      <trkpt lat="45.85498" lon="4.68098">
        <ele>204</ele>
        <time>2017-03-25T09:47:38Z</time>
      </trkpt>
      <trkpt lat="45.85498" lon="4.68094">
        <ele>204</ele>
        <time>2017-03-25T09:47:39Z</time>
      </trkpt>
      <trkpt lat="45.85497" lon="4.68082">
        <ele>204</ele>
        <time>2017-03-25T09:47:43Z</time>
      </trkpt>
      <trkpt lat="45.85496" lon="4.68079">
        <ele>205</ele>
        <time>2017-03-25T09:47:44Z</time>
      </trkpt>
      <trkpt lat="45.85496" lon="4.68066">
        <ele>206</ele>
        <time>2017-03-25T09:47:47Z</time>
      </trkpt>
      <trkpt lat="45.85495" lon="4.68062">
        <ele>206</ele>
        <time>2017-03-25T09:47:48Z</time>
      </trkpt>
      <trkpt lat="45.85495" lon="4.68051">
        <ele>206</ele>
        <time>2017-03-25T09:47:50Z</time>
      </trkpt>
      <trkpt lat="45.85494" lon="4.68046">
        <ele>206</ele>
        <time>2017-03-25T09:47:51Z</time>
      </trkpt>
      <trkpt lat="45.85493" lon="4.68036">
        <ele>207</ele>
        <time>2017-03-25T09:47:53Z</time>
      </trkpt>
      <trkpt lat="45.85493" lon="4.6803">
        <ele>207</ele>
        <time>2017-03-25T09:47:54Z</time>
      </trkpt>
      <trkpt lat="45.85493" lon="4.68023">
        <ele>207</ele>
        <time>2017-03-25T09:47:55Z</time>
      </trkpt>
      <trkpt lat="45.85493" lon="4.68016">
        <ele>207</ele>
        <time>2017-03-25T09:47:56Z</time>
      </trkpt>
      <trkpt lat="45.85495" lon="4.68009">
        <ele>206</ele>
        <time>2017-03-25T09:47:57Z</time>
      </trkpt>
      <trkpt lat="45.85496" lon="4.68002">
        <ele>206</ele>
        <time>2017-03-25T09:47:58Z</time>
      </trkpt>
      <trkpt lat="45.85499" lon="4.67996">
        <ele>207</ele>
        <time>2017-03-25T09:47:59Z</time>
      </trkpt>
      <trkpt lat="45.85504" lon="4.6799">
        <ele>206</ele>
        <time>2017-03-25T09:48:00Z</time>
      </trkpt>
      <trkpt lat="45.85508" lon="4.67985">
        <ele>206</ele>
        <time>2017-03-25T09:48:01Z</time>
      </trkpt>
      <trkpt lat="45.85513" lon="4.6798">
        <ele>206</ele>
        <time>2017-03-25T09:48:02Z</time>
      </trkpt>
      <trkpt lat="45.85518" lon="4.67975">
        <ele>206</ele>
        <time>2017-03-25T09:48:03Z</time>
      </trkpt>
      <trkpt lat="45.85522" lon="4.6797">
        <ele>206</ele>
        <time>2017-03-25T09:48:04Z</time>
      </trkpt>
      <trkpt lat="45.85526" lon="4.67964">
        <ele>206</ele>
        <time>2017-03-25T09:48:05Z</time>
      </trkpt>
      <trkpt lat="45.8553" lon="4.67959">
        <ele>206</ele>
        <time>2017-03-25T09:48:06Z</time>
      </trkpt>
      <trkpt lat="45.85534" lon="4.67955">
        <ele>206</ele>
        <time>2017-03-25T09:48:07Z</time>
      </trkpt>
      <trkpt lat="45.85538" lon="4.67951">
        <ele>206</ele>
        <time>2017-03-25T09:48:08Z</time>
      </trkpt>
      <trkpt lat="45.85542" lon="4.67948">
        <ele>205</ele>
        <time>2017-03-25T09:48:09Z</time>
      </trkpt>
      <trkpt lat="45.85546" lon="4.67944">
        <ele>205</ele>
        <time>2017-03-25T09:48:10Z</time>
      </trkpt>
      <trkpt lat="45.8555" lon="4.67941">
        <ele>205</ele>
        <time>2017-03-25T09:48:11Z</time>
      </trkpt>
      <trkpt lat="45.85554" lon="4.67938">
        <ele>205</ele>
        <time>2017-03-25T09:48:12Z</time>
      </trkpt>
      <trkpt lat="45.85562" lon="4.67933">
        <ele>205</ele>
        <time>2017-03-25T09:48:14Z</time>
      </trkpt>
      <trkpt lat="45.85565" lon="4.67931">
        <ele>205</ele>
        <time>2017-03-25T09:48:15Z</time>
      </trkpt>
      <trkpt lat="45.85571" lon="4.67926">
        <ele>205</ele>
        <time>2017-03-25T09:48:17Z</time>
      </trkpt>
      <trkpt lat="45.85574" lon="4.67922">
        <ele>204</ele>
        <time>2017-03-25T09:48:18Z</time>
      </trkpt>
      <trkpt lat="45.85575" lon="4.6791">
        <ele>205</ele>
        <time>2017-03-25T09:48:20Z</time>
      </trkpt>
      <trkpt lat="45.85575" lon="4.67903">
        <ele>206</ele>
        <time>2017-03-25T09:48:21Z</time>
      </trkpt>
      <trkpt lat="45.85574" lon="4.67895">
        <ele>206</ele>
        <time>2017-03-25T09:48:22Z</time>
      </trkpt>
      <trkpt lat="45.85574" lon="4.67889">
        <ele>206</ele>
        <time>2017-03-25T09:48:23Z</time>
      </trkpt>
      <trkpt lat="45.85573" lon="4.67882">
        <ele>206</ele>
        <time>2017-03-25T09:48:24Z</time>
      </trkpt>
      <trkpt lat="45.85573" lon="4.67874">
        <ele>207</ele>
        <time>2017-03-25T09:48:25Z</time>
      </trkpt>
      <trkpt lat="45.85574" lon="4.67864">
        <ele>207</ele>
        <time>2017-03-25T09:48:26Z</time>
      </trkpt>
      <trkpt lat="45.85575" lon="4.67856">
        <ele>206</ele>
        <time>2017-03-25T09:48:27Z</time>
      </trkpt>
      <trkpt lat="45.85576" lon="4.67847">
        <ele>206</ele>
        <time>2017-03-25T09:48:28Z</time>
      </trkpt>
      <trkpt lat="45.85577" lon="4.67839">
        <ele>206</ele>
        <time>2017-03-25T09:48:29Z</time>
      </trkpt>
      <trkpt lat="45.85579" lon="4.67831">
        <ele>205</ele>
        <time>2017-03-25T09:48:30Z</time>
      </trkpt>
      <trkpt lat="45.8558" lon="4.67823">
        <ele>206</ele>
        <time>2017-03-25T09:48:31Z</time>
      </trkpt>
      <trkpt lat="45.85581" lon="4.67815">
        <ele>206</ele>
        <time>2017-03-25T09:48:32Z</time>
      </trkpt>
      <trkpt lat="45.85583" lon="4.67807">
        <ele>206</ele>
        <time>2017-03-25T09:48:33Z</time>
      </trkpt>
      <trkpt lat="45.85584" lon="4.67799">
        <ele>209</ele>
        <time>2017-03-25T09:48:34Z</time>
      </trkpt>
      <trkpt lat="45.85586" lon="4.67791">
        <ele>210</ele>
        <time>2017-03-25T09:48:35Z</time>
      </trkpt>
      <trkpt lat="45.85589" lon="4.67784">
        <ele>209</ele>
        <time>2017-03-25T09:48:36Z</time>
      </trkpt>
      <trkpt lat="45.85591" lon="4.67776">
        <ele>209</ele>
        <time>2017-03-25T09:48:37Z</time>
      </trkpt>
      <trkpt lat="45.85594" lon="4.67769">
        <ele>209</ele>
        <time>2017-03-25T09:48:38Z</time>
      </trkpt>
      <trkpt lat="45.85597" lon="4.67762">
        <ele>208</ele>
        <time>2017-03-25T09:48:39Z</time>
      </trkpt>
      <trkpt lat="45.856" lon="4.67755">
        <ele>208</ele>
        <time>2017-03-25T09:48:40Z</time>
      </trkpt>
      <trkpt lat="45.85603" lon="4.67747">
        <ele>207</ele>
        <time>2017-03-25T09:48:41Z</time>
      </trkpt>
      <trkpt lat="45.85607" lon="4.67739">
        <ele>208</ele>
        <time>2017-03-25T09:48:42Z</time>
      </trkpt>
      <trkpt lat="45.85611" lon="4.67732">
        <ele>208</ele>
        <time>2017-03-25T09:48:43Z</time>
      </trkpt>
      <trkpt lat="45.85614" lon="4.67726">
        <ele>209</ele>
        <time>2017-03-25T09:48:44Z</time>
      </trkpt>
      <trkpt lat="45.85619" lon="4.67719">
        <ele>209</ele>
        <time>2017-03-25T09:48:45Z</time>
      </trkpt>
      <trkpt lat="45.85623" lon="4.67712">
        <ele>209</ele>
        <time>2017-03-25T09:48:46Z</time>
      </trkpt>
      <trkpt lat="45.85627" lon="4.67706">
        <ele>209</ele>
        <time>2017-03-25T09:48:47Z</time>
      </trkpt>
      <trkpt lat="45.85631" lon="4.677">
        <ele>209</ele>
        <time>2017-03-25T09:48:48Z</time>
      </trkpt>
      <trkpt lat="45.85636" lon="4.67694">
        <ele>209</ele>
        <time>2017-03-25T09:48:49Z</time>
      </trkpt>
      <trkpt lat="45.8564" lon="4.67689">
        <ele>209</ele>
        <time>2017-03-25T09:48:50Z</time>
      </trkpt>
      <trkpt lat="45.85645" lon="4.67684">
        <ele>209</ele>
        <time>2017-03-25T09:48:51Z</time>
      </trkpt>
      <trkpt lat="45.85649" lon="4.6768">
        <ele>209</ele>
        <time>2017-03-25T09:48:52Z</time>
      </trkpt>
      <trkpt lat="45.85655" lon="4.67677">
        <ele>209</ele>
        <time>2017-03-25T09:48:53Z</time>
      </trkpt>
      <trkpt lat="45.8566" lon="4.67673">
        <ele>209</ele>
        <time>2017-03-25T09:48:54Z</time>
      </trkpt>
      <trkpt lat="45.85665" lon="4.6767">
        <ele>209</ele>
        <time>2017-03-25T09:48:55Z</time>
      </trkpt>
      <trkpt lat="45.8567" lon="4.67667">
        <ele>209</ele>
        <time>2017-03-25T09:48:56Z</time>
      </trkpt>
      <trkpt lat="45.85675" lon="4.67664">
        <ele>210</ele>
        <time>2017-03-25T09:48:57Z</time>
      </trkpt>
      <trkpt lat="45.8568" lon="4.6766">
        <ele>210</ele>
        <time>2017-03-25T09:48:58Z</time>
      </trkpt>
      <trkpt lat="45.85685" lon="4.67657">
        <ele>210</ele>
        <time>2017-03-25T09:48:59Z</time>
      </trkpt>
      <trkpt lat="45.8569" lon="4.67654">
        <ele>210</ele>
        <time>2017-03-25T09:49:00Z</time>
      </trkpt>
      <trkpt lat="45.85696" lon="4.67651">
        <ele>211</ele>
        <time>2017-03-25T09:49:01Z</time>
      </trkpt>
      <trkpt lat="45.85701" lon="4.67648">
        <ele>211</ele>
        <time>2017-03-25T09:49:02Z</time>
      </trkpt>
      <trkpt lat="45.85706" lon="4.67644">
        <ele>211</ele>
        <time>2017-03-25T09:49:03Z</time>
      </trkpt>
      <trkpt lat="45.85711" lon="4.67641">
        <ele>211</ele>
        <time>2017-03-25T09:49:04Z</time>
      </trkpt>
      <trkpt lat="45.85716" lon="4.67638">
        <ele>212</ele>
        <time>2017-03-25T09:49:05Z</time>
      </trkpt>
      <trkpt lat="45.85721" lon="4.67635">
        <ele>212</ele>
        <time>2017-03-25T09:49:06Z</time>
      </trkpt>
      <trkpt lat="45.85727" lon="4.67633">
        <ele>212</ele>
        <time>2017-03-25T09:49:07Z</time>
      </trkpt>
      <trkpt lat="45.85732" lon="4.67629">
        <ele>212</ele>
        <time>2017-03-25T09:49:08Z</time>
      </trkpt>
      <trkpt lat="45.85737" lon="4.67626">
        <ele>212</ele>
        <time>2017-03-25T09:49:09Z</time>
      </trkpt>
      <trkpt lat="45.85742" lon="4.67623">
        <ele>211</ele>
        <time>2017-03-25T09:49:10Z</time>
      </trkpt>
      <trkpt lat="45.85747" lon="4.6762">
        <ele>211</ele>
        <time>2017-03-25T09:49:11Z</time>
      </trkpt>
      <trkpt lat="45.85752" lon="4.67616">
        <ele>218</ele>
        <time>2017-03-25T09:49:12Z</time>
      </trkpt>
      <trkpt lat="45.85757" lon="4.67613">
        <ele>218</ele>
        <time>2017-03-25T09:49:13Z</time>
      </trkpt>
      <trkpt lat="45.85761" lon="4.6761">
        <ele>217</ele>
        <time>2017-03-25T09:49:14Z</time>
      </trkpt>
      <trkpt lat="45.85765" lon="4.67607">
        <ele>217</ele>
        <time>2017-03-25T09:49:15Z</time>
      </trkpt>
      <trkpt lat="45.8577" lon="4.67604">
        <ele>217</ele>
        <time>2017-03-25T09:49:16Z</time>
      </trkpt>
      <trkpt lat="45.85775" lon="4.676">
        <ele>218</ele>
        <time>2017-03-25T09:49:17Z</time>
      </trkpt>
      <trkpt lat="45.85781" lon="4.67595">
        <ele>218</ele>
        <time>2017-03-25T09:49:18Z</time>
      </trkpt>
      <trkpt lat="45.85786" lon="4.6759">
        <ele>219</ele>
        <time>2017-03-25T09:49:19Z</time>
      </trkpt>
      <trkpt lat="45.85791" lon="4.67585">
        <ele>219</ele>
        <time>2017-03-25T09:49:20Z</time>
      </trkpt>
      <trkpt lat="45.85796" lon="4.67579">
        <ele>212</ele>
        <time>2017-03-25T09:49:21Z</time>
      </trkpt>
      <trkpt lat="45.858" lon="4.67574">
        <ele>212</ele>
        <time>2017-03-25T09:49:22Z</time>
      </trkpt>
      <trkpt lat="45.85805" lon="4.67568">
        <ele>212</ele>
        <time>2017-03-25T09:49:23Z</time>
      </trkpt>
      <trkpt lat="45.85809" lon="4.67562">
        <ele>212</ele>
        <time>2017-03-25T09:49:24Z</time>
      </trkpt>
      <trkpt lat="45.85812" lon="4.67557">
        <ele>212</ele>
        <time>2017-03-25T09:49:25Z</time>
      </trkpt>
      <trkpt lat="45.85817" lon="4.67552">
        <ele>212</ele>
        <time>2017-03-25T09:49:26Z</time>
      </trkpt>
      <trkpt lat="45.8582" lon="4.67546">
        <ele>211</ele>
        <time>2017-03-25T09:49:27Z</time>
      </trkpt>
      <trkpt lat="45.85824" lon="4.6754">
        <ele>211</ele>
        <time>2017-03-25T09:49:28Z</time>
      </trkpt>
      <trkpt lat="45.85827" lon="4.67534">
        <ele>210</ele>
        <time>2017-03-25T09:49:29Z</time>
      </trkpt>
      <trkpt lat="45.85831" lon="4.67528">
        <ele>209</ele>
        <time>2017-03-25T09:49:30Z</time>
      </trkpt>
      <trkpt lat="45.85834" lon="4.67522">
        <ele>217</ele>
        <time>2017-03-25T09:49:31Z</time>
      </trkpt>
      <trkpt lat="45.85837" lon="4.67515">
        <ele>215</ele>
        <time>2017-03-25T09:49:32Z</time>
      </trkpt>
      <trkpt lat="45.8584" lon="4.67509">
        <ele>213</ele>
        <time>2017-03-25T09:49:33Z</time>
      </trkpt>
      <trkpt lat="45.85843" lon="4.67502">
        <ele>212</ele>
        <time>2017-03-25T09:49:34Z</time>
      </trkpt>
      <trkpt lat="45.85845" lon="4.67495">
        <ele>210</ele>
        <time>2017-03-25T09:49:35Z</time>
      </trkpt>
      <trkpt lat="45.85848" lon="4.67489">
        <ele>211</ele>
        <time>2017-03-25T09:49:36Z</time>
      </trkpt>
      <trkpt lat="45.8585" lon="4.67482">
        <ele>212</ele>
        <time>2017-03-25T09:49:37Z</time>
      </trkpt>
      <trkpt lat="45.85852" lon="4.67475">
        <ele>212</ele>
        <time>2017-03-25T09:49:38Z</time>
      </trkpt>
      <trkpt lat="45.85854" lon="4.67467">
        <ele>213</ele>
        <time>2017-03-25T09:49:39Z</time>
      </trkpt>
      <trkpt lat="45.85856" lon="4.67459">
        <ele>213</ele>
        <time>2017-03-25T09:49:40Z</time>
      </trkpt>
      <trkpt lat="45.85858" lon="4.67451">
        <ele>213</ele>
        <time>2017-03-25T09:49:41Z</time>
      </trkpt>
      <trkpt lat="45.8586" lon="4.67443">
        <ele>212</ele>
        <time>2017-03-25T09:49:42Z</time>
      </trkpt>
      <trkpt lat="45.85862" lon="4.67434">
        <ele>212</ele>
        <time>2017-03-25T09:49:43Z</time>
      </trkpt>
      <trkpt lat="45.85862" lon="4.67425">
        <ele>212</ele>
        <time>2017-03-25T09:49:44Z</time>
      </trkpt>
      <trkpt lat="45.85863" lon="4.67417">
        <ele>208</ele>
        <time>2017-03-25T09:49:45Z</time>
      </trkpt>
      <trkpt lat="45.85864" lon="4.67408">
        <ele>208</ele>
        <time>2017-03-25T09:49:46Z</time>
      </trkpt>
      <trkpt lat="45.85865" lon="4.67399">
        <ele>209</ele>
        <time>2017-03-25T09:49:47Z</time>
      </trkpt>
      <trkpt lat="45.85866" lon="4.67391">
        <ele>209</ele>
        <time>2017-03-25T09:49:48Z</time>
      </trkpt>
      <trkpt lat="45.85867" lon="4.67383">
        <ele>209</ele>
        <time>2017-03-25T09:49:49Z</time>
      </trkpt>
      <trkpt lat="45.85868" lon="4.67375">
        <ele>209</ele>
        <time>2017-03-25T09:49:50Z</time>
      </trkpt>
      <trkpt lat="45.85868" lon="4.67367">
        <ele>208</ele>
        <time>2017-03-25T09:49:51Z</time>
      </trkpt>
      <trkpt lat="45.85869" lon="4.6736">
        <ele>208</ele>
        <time>2017-03-25T09:49:52Z</time>
      </trkpt>
      <trkpt lat="45.8587" lon="4.67353">
        <ele>208</ele>
        <time>2017-03-25T09:49:53Z</time>
      </trkpt>
      <trkpt lat="45.85871" lon="4.67345">
        <ele>208</ele>
        <time>2017-03-25T09:49:54Z</time>
      </trkpt>
      <trkpt lat="45.85872" lon="4.67339">
        <ele>208</ele>
        <time>2017-03-25T09:49:55Z</time>
      </trkpt>
      <trkpt lat="45.85873" lon="4.67332">
        <ele>206</ele>
        <time>2017-03-25T09:49:56Z</time>
      </trkpt>
      <trkpt lat="45.85874" lon="4.67324">
        <ele>206</ele>
        <time>2017-03-25T09:49:57Z</time>
      </trkpt>
      <trkpt lat="45.85875" lon="4.67317">
        <ele>206</ele>
        <time>2017-03-25T09:49:58Z</time>
      </trkpt>
      <trkpt lat="45.85876" lon="4.6731">
        <ele>206</ele>
        <time>2017-03-25T09:49:59Z</time>
      </trkpt>
      <trkpt lat="45.85877" lon="4.67303">
        <ele>206</ele>
        <time>2017-03-25T09:50:00Z</time>
      </trkpt>
      <trkpt lat="45.85878" lon="4.67295">
        <ele>205</ele>
        <time>2017-03-25T09:50:01Z</time>
      </trkpt>
      <trkpt lat="45.85879" lon="4.67288">
        <ele>205</ele>
        <time>2017-03-25T09:50:02Z</time>
      </trkpt>
      <trkpt lat="45.8588" lon="4.6728">
        <ele>205</ele>
        <time>2017-03-25T09:50:03Z</time>
      </trkpt>
      <trkpt lat="45.85881" lon="4.67271">
        <ele>205</ele>
        <time>2017-03-25T09:50:04Z</time>
      </trkpt>
      <trkpt lat="45.85881" lon="4.67262">
        <ele>205</ele>
        <time>2017-03-25T09:50:05Z</time>
      </trkpt>
      <trkpt lat="45.85882" lon="4.67253">
        <ele>205</ele>
        <time>2017-03-25T09:50:06Z</time>
      </trkpt>
      <trkpt lat="45.85883" lon="4.67245">
        <ele>204</ele>
        <time>2017-03-25T09:50:07Z</time>
      </trkpt>
      <trkpt lat="45.85883" lon="4.67235">
        <ele>204</ele>
        <time>2017-03-25T09:50:08Z</time>
      </trkpt>
      <trkpt lat="45.85884" lon="4.67226">
        <ele>204</ele>
        <time>2017-03-25T09:50:09Z</time>
      </trkpt>
      <trkpt lat="45.85884" lon="4.67217">
        <ele>204</ele>
        <time>2017-03-25T09:50:10Z</time>
      </trkpt>
      <trkpt lat="45.85885" lon="4.67208">
        <ele>204</ele>
        <time>2017-03-25T09:50:11Z</time>
      </trkpt>
      <trkpt lat="45.85885" lon="4.672">
        <ele>204</ele>
        <time>2017-03-25T09:50:12Z</time>
      </trkpt>
      <trkpt lat="45.85886" lon="4.67192">
        <ele>204</ele>
        <time>2017-03-25T09:50:13Z</time>
      </trkpt>
      <trkpt lat="45.85887" lon="4.67185">
        <ele>204</ele>
        <time>2017-03-25T09:50:14Z</time>
      </trkpt>
      <trkpt lat="45.85889" lon="4.67178">
        <ele>204</ele>
        <time>2017-03-25T09:50:15Z</time>
      </trkpt>
      <trkpt lat="45.8589" lon="4.6717">
        <ele>205</ele>
        <time>2017-03-25T09:50:16Z</time>
      </trkpt>
      <trkpt lat="45.85891" lon="4.67162">
        <ele>204</ele>
        <time>2017-03-25T09:50:17Z</time>
      </trkpt>
      <trkpt lat="45.85892" lon="4.67155">
        <ele>204</ele>
        <time>2017-03-25T09:50:18Z</time>
      </trkpt>
      <trkpt lat="45.85893" lon="4.67147">
        <ele>204</ele>
        <time>2017-03-25T09:50:19Z</time>
      </trkpt>
      <trkpt lat="45.85893" lon="4.6714">
        <ele>204</ele>
        <time>2017-03-25T09:50:20Z</time>
      </trkpt>
      <trkpt lat="45.85894" lon="4.67132">
        <ele>204</ele>
        <time>2017-03-25T09:50:21Z</time>
      </trkpt>
      <trkpt lat="45.85895" lon="4.67125">
        <ele>204</ele>
        <time>2017-03-25T09:50:22Z</time>
      </trkpt>
      <trkpt lat="45.85896" lon="4.67117">
        <ele>204</ele>
        <time>2017-03-25T09:50:23Z</time>
      </trkpt>
      <trkpt lat="45.85897" lon="4.67109">
        <ele>204</ele>
        <time>2017-03-25T09:50:24Z</time>
      </trkpt>
      <trkpt lat="45.85898" lon="4.67102">
        <ele>204</ele>
        <time>2017-03-25T09:50:25Z</time>
      </trkpt>
      <trkpt lat="45.85899" lon="4.67094">
        <ele>204</ele>
        <time>2017-03-25T09:50:26Z</time>
      </trkpt>
      <trkpt lat="45.859" lon="4.67086">
        <ele>204</ele>
        <time>2017-03-25T09:50:27Z</time>
      </trkpt>
      <trkpt lat="45.85901" lon="4.67079">
        <ele>204</ele>
        <time>2017-03-25T09:50:28Z</time>
      </trkpt>
      <trkpt lat="45.85902" lon="4.67071">
        <ele>205</ele>
        <time>2017-03-25T09:50:29Z</time>
      </trkpt>
      <trkpt lat="45.85903" lon="4.67064">
        <ele>205</ele>
        <time>2017-03-25T09:50:30Z</time>
      </trkpt>
      <trkpt lat="45.85904" lon="4.67056">
        <ele>205</ele>
        <time>2017-03-25T09:50:31Z</time>
      </trkpt>
      <trkpt lat="45.85905" lon="4.67048">
        <ele>205</ele>
        <time>2017-03-25T09:50:32Z</time>
      </trkpt>
      <trkpt lat="45.85906" lon="4.67041">
        <ele>205</ele>
        <time>2017-03-25T09:50:33Z</time>
      </trkpt>
      <trkpt lat="45.85907" lon="4.67033">
        <ele>205</ele>
        <time>2017-03-25T09:50:34Z</time>
      </trkpt>
      <trkpt lat="45.85908" lon="4.67026">
        <ele>205</ele>
        <time>2017-03-25T09:50:35Z</time>
      </trkpt>
      <trkpt lat="45.8591" lon="4.67019">
        <ele>205</ele>
        <time>2017-03-25T09:50:36Z</time>
      </trkpt>
      <trkpt lat="45.85911" lon="4.67013">
        <ele>206</ele>
        <time>2017-03-25T09:50:37Z</time>
      </trkpt>
      <trkpt lat="45.85915" lon="4.67002">
        <ele>206</ele>
        <time>2017-03-25T09:50:39Z</time>
      </trkpt>
      <trkpt lat="45.85918" lon="4.66996">
        <ele>207</ele>
        <time>2017-03-25T09:50:40Z</time>
      </trkpt>
      <trkpt lat="45.85921" lon="4.66991">
        <ele>207</ele>
        <time>2017-03-25T09:50:41Z</time>
      </trkpt>
      <trkpt lat="45.85924" lon="4.66986">
        <ele>208</ele>
        <time>2017-03-25T09:50:42Z</time>
      </trkpt>
      <trkpt lat="45.85926" lon="4.6698">
        <ele>208</ele>
        <time>2017-03-25T09:50:43Z</time>
      </trkpt>
      <trkpt lat="45.85928" lon="4.66973">
        <ele>208</ele>
        <time>2017-03-25T09:50:44Z</time>
      </trkpt>
      <trkpt lat="45.85927" lon="4.66966">
        <ele>209</ele>
        <time>2017-03-25T09:50:45Z</time>
      </trkpt>
      <trkpt lat="45.85926" lon="4.66958">
        <ele>209</ele>
        <time>2017-03-25T09:50:46Z</time>
      </trkpt>
      <trkpt lat="45.85924" lon="4.66951">
        <ele>209</ele>
        <time>2017-03-25T09:50:47Z</time>
      </trkpt>
      <trkpt lat="45.85923" lon="4.66944">
        <ele>209</ele>
        <time>2017-03-25T09:50:48Z</time>
      </trkpt>
      <trkpt lat="45.85922" lon="4.66936">
        <ele>208</ele>
        <time>2017-03-25T09:50:49Z</time>
      </trkpt>
      <trkpt lat="45.85924" lon="4.66928">
        <ele>208</ele>
        <time>2017-03-25T09:50:50Z</time>
      </trkpt>
      <trkpt lat="45.85925" lon="4.66921">
        <ele>208</ele>
        <time>2017-03-25T09:50:51Z</time>
      </trkpt>
      <trkpt lat="45.85927" lon="4.66914">
        <ele>208</ele>
        <time>2017-03-25T09:50:52Z</time>
      </trkpt>
      <trkpt lat="45.85928" lon="4.66906">
        <ele>209</ele>
        <time>2017-03-25T09:50:53Z</time>
      </trkpt>
      <trkpt lat="45.8593" lon="4.66899">
        <ele>209</ele>
        <time>2017-03-25T09:50:54Z</time>
      </trkpt>
      <trkpt lat="45.85932" lon="4.66892">
        <ele>210</ele>
        <time>2017-03-25T09:50:55Z</time>
      </trkpt>
      <trkpt lat="45.85933" lon="4.66885">
        <ele>210</ele>
        <time>2017-03-25T09:50:56Z</time>
      </trkpt>
      <trkpt lat="45.85935" lon="4.66878">
        <ele>210</ele>
        <time>2017-03-25T09:50:57Z</time>
      </trkpt>
      <trkpt lat="45.85937" lon="4.66871">
        <ele>210</ele>
        <time>2017-03-25T09:50:58Z</time>
      </trkpt>
      <trkpt lat="45.85939" lon="4.66864">
        <ele>210</ele>
        <time>2017-03-25T09:50:59Z</time>
      </trkpt>
      <trkpt lat="45.85941" lon="4.66857">
        <ele>210</ele>
        <time>2017-03-25T09:51:00Z</time>
      </trkpt>
      <trkpt lat="45.85943" lon="4.66849">
        <ele>210</ele>
        <time>2017-03-25T09:51:01Z</time>
      </trkpt>
      <trkpt lat="45.85945" lon="4.66842">
        <ele>210</ele>
        <time>2017-03-25T09:51:02Z</time>
      </trkpt>
      <trkpt lat="45.85947" lon="4.66835">
        <ele>211</ele>
        <time>2017-03-25T09:51:03Z</time>
      </trkpt>
      <trkpt lat="45.85949" lon="4.66827">
        <ele>212</ele>
        <time>2017-03-25T09:51:04Z</time>
      </trkpt>
      <trkpt lat="45.85952" lon="4.6682">
        <ele>212</ele>
        <time>2017-03-25T09:51:05Z</time>
      </trkpt>
      <trkpt lat="45.85954" lon="4.66812">
        <ele>213</ele>
        <time>2017-03-25T09:51:06Z</time>
      </trkpt>
      <trkpt lat="45.85957" lon="4.66804">
        <ele>213</ele>
        <time>2017-03-25T09:51:07Z</time>
      </trkpt>
      <trkpt lat="45.85959" lon="4.66796">
        <ele>213</ele>
        <time>2017-03-25T09:51:08Z</time>
      </trkpt>
      <trkpt lat="45.85961" lon="4.66789">
        <ele>213</ele>
        <time>2017-03-25T09:51:09Z</time>
      </trkpt>
      <trkpt lat="45.85964" lon="4.66782">
        <ele>214</ele>
        <time>2017-03-25T09:51:10Z</time>
      </trkpt>
      <trkpt lat="45.85966" lon="4.66775">
        <ele>214</ele>
        <time>2017-03-25T09:51:11Z</time>
      </trkpt>
      <trkpt lat="45.85968" lon="4.66768">
        <ele>214</ele>
        <time>2017-03-25T09:51:12Z</time>
      </trkpt>
      <trkpt lat="45.85971" lon="4.66761">
        <ele>214</ele>
        <time>2017-03-25T09:51:13Z</time>
      </trkpt>
      <trkpt lat="45.85973" lon="4.66755">
        <ele>214</ele>
        <time>2017-03-25T09:51:14Z</time>
      </trkpt>
      <trkpt lat="45.85976" lon="4.66743">
        <ele>216</ele>
        <time>2017-03-25T09:51:16Z</time>
      </trkpt>
      <trkpt lat="45.85978" lon="4.66737">
        <ele>216</ele>
        <time>2017-03-25T09:51:17Z</time>
      </trkpt>
      <trkpt lat="45.8598" lon="4.66731">
        <ele>216</ele>
        <time>2017-03-25T09:51:18Z</time>
      </trkpt>
      <trkpt lat="45.85983" lon="4.66725">
        <ele>216</ele>
        <time>2017-03-25T09:51:19Z</time>
      </trkpt>
      <trkpt lat="45.85986" lon="4.66719">
        <ele>215</ele>
        <time>2017-03-25T09:51:20Z</time>
      </trkpt>
      <trkpt lat="45.85988" lon="4.66712">
        <ele>215</ele>
        <time>2017-03-25T09:51:21Z</time>
      </trkpt>
      <trkpt lat="45.85991" lon="4.66706">
        <ele>215</ele>
        <time>2017-03-25T09:51:22Z</time>
      </trkpt>
      <trkpt lat="45.85995" lon="4.66699">
        <ele>215</ele>
        <time>2017-03-25T09:51:23Z</time>
      </trkpt>
      <trkpt lat="45.85999" lon="4.66693">
        <ele>214</ele>
        <time>2017-03-25T09:51:24Z</time>
      </trkpt>
      <trkpt lat="45.86002" lon="4.66686">
        <ele>217</ele>
        <time>2017-03-25T09:51:25Z</time>
      </trkpt>
      <trkpt lat="45.86006" lon="4.6668">
        <ele>216</ele>
        <time>2017-03-25T09:51:26Z</time>
      </trkpt>
      <trkpt lat="45.8601" lon="4.66674">
        <ele>215</ele>
        <time>2017-03-25T09:51:27Z</time>
      </trkpt>
      <trkpt lat="45.86014" lon="4.66669">
        <ele>216</ele>
        <time>2017-03-25T09:51:28Z</time>
      </trkpt>
      <trkpt lat="45.86018" lon="4.66665">
        <ele>213</ele>
        <time>2017-03-25T09:51:29Z</time>
      </trkpt>
      <trkpt lat="45.86022" lon="4.6666">
        <ele>213</ele>
        <time>2017-03-25T09:51:30Z</time>
      </trkpt>
      <trkpt lat="45.86026" lon="4.66655">
        <ele>213</ele>
        <time>2017-03-25T09:51:31Z</time>
      </trkpt>
      <trkpt lat="45.8603" lon="4.66651">
        <ele>214</ele>
        <time>2017-03-25T09:51:32Z</time>
      </trkpt>
      <trkpt lat="45.86034" lon="4.66647">
        <ele>214</ele>
        <time>2017-03-25T09:51:33Z</time>
      </trkpt>
      <trkpt lat="45.86039" lon="4.66643">
        <ele>214</ele>
        <time>2017-03-25T09:51:34Z</time>
      </trkpt>
      <trkpt lat="45.86044" lon="4.66639">
        <ele>214</ele>
        <time>2017-03-25T09:51:35Z</time>
      </trkpt>
      <trkpt lat="45.86049" lon="4.66634">
        <ele>214</ele>
        <time>2017-03-25T09:51:36Z</time>
      </trkpt>
      <trkpt lat="45.86055" lon="4.6663">
        <ele>214</ele>
        <time>2017-03-25T09:51:37Z</time>
      </trkpt>
      <trkpt lat="45.8606" lon="4.66625">
        <ele>214</ele>
        <time>2017-03-25T09:51:38Z</time>
      </trkpt>
      <trkpt lat="45.86065" lon="4.66621">
        <ele>214</ele>
        <time>2017-03-25T09:51:39Z</time>
      </trkpt>
      <trkpt lat="45.86071" lon="4.66617">
        <ele>214</ele>
        <time>2017-03-25T09:51:40Z</time>
      </trkpt>
      <trkpt lat="45.86076" lon="4.66614">
        <ele>213</ele>
        <time>2017-03-25T09:51:41Z</time>
      </trkpt>
      <trkpt lat="45.86081" lon="4.6661">
        <ele>213</ele>
        <time>2017-03-25T09:51:42Z</time>
      </trkpt>
      <trkpt lat="45.86086" lon="4.66607">
        <ele>218</ele>
        <time>2017-03-25T09:51:43Z</time>
      </trkpt>
      <trkpt lat="45.86091" lon="4.66604">
        <ele>218</ele>
        <time>2017-03-25T09:51:44Z</time>
      </trkpt>
      <trkpt lat="45.86095" lon="4.66601">
        <ele>218</ele>
        <time>2017-03-25T09:51:45Z</time>
      </trkpt>
      <trkpt lat="45.861" lon="4.66598">
        <ele>218</ele>
        <time>2017-03-25T09:51:46Z</time>
      </trkpt>
      <trkpt lat="45.86105" lon="4.66595">
        <ele>219</ele>
        <time>2017-03-25T09:51:47Z</time>
      </trkpt>
      <trkpt lat="45.8611" lon="4.66592">
        <ele>219</ele>
        <time>2017-03-25T09:51:48Z</time>
      </trkpt>
      <trkpt lat="45.86115" lon="4.66589">
        <ele>220</ele>
        <time>2017-03-25T09:51:49Z</time>
      </trkpt>
      <trkpt lat="45.8612" lon="4.66585">
        <ele>221</ele>
        <time>2017-03-25T09:51:50Z</time>
      </trkpt>
      <trkpt lat="45.86126" lon="4.66581">
        <ele>214</ele>
        <time>2017-03-25T09:51:51Z</time>
      </trkpt>
      <trkpt lat="45.86131" lon="4.66577">
        <ele>214</ele>
        <time>2017-03-25T09:51:52Z</time>
      </trkpt>
      <trkpt lat="45.86136" lon="4.66572">
        <ele>215</ele>
        <time>2017-03-25T09:51:53Z</time>
      </trkpt>
      <trkpt lat="45.86142" lon="4.66566">
        <ele>215</ele>
        <time>2017-03-25T09:51:54Z</time>
      </trkpt>
      <trkpt lat="45.86147" lon="4.66561">
        <ele>215</ele>
        <time>2017-03-25T09:51:55Z</time>
      </trkpt>
      <trkpt lat="45.86151" lon="4.66554">
        <ele>215</ele>
        <time>2017-03-25T09:51:56Z</time>
      </trkpt>
      <trkpt lat="45.86156" lon="4.66548">
        <ele>214</ele>
        <time>2017-03-25T09:51:57Z</time>
      </trkpt>
      <trkpt lat="45.8616" lon="4.66541">
        <ele>214</ele>
        <time>2017-03-25T09:51:58Z</time>
      </trkpt>
      <trkpt lat="45.86165" lon="4.66534">
        <ele>213</ele>
        <time>2017-03-25T09:51:59Z</time>
      </trkpt>
      <trkpt lat="45.86169" lon="4.66528">
        <ele>218</ele>
        <time>2017-03-25T09:52:00Z</time>
      </trkpt>
      <trkpt lat="45.86174" lon="4.6652">
        <ele>217</ele>
        <time>2017-03-25T09:52:01Z</time>
      </trkpt>
      <trkpt lat="45.86178" lon="4.66513">
        <ele>216</ele>
        <time>2017-03-25T09:52:02Z</time>
      </trkpt>
      <trkpt lat="45.86182" lon="4.66506">
        <ele>215</ele>
        <time>2017-03-25T09:52:03Z</time>
      </trkpt>
      <trkpt lat="45.86186" lon="4.66499">
        <ele>212</ele>
        <time>2017-03-25T09:52:04Z</time>
      </trkpt>
      <trkpt lat="45.8619" lon="4.66492">
        <ele>212</ele>
        <time>2017-03-25T09:52:05Z</time>
      </trkpt>
      <trkpt lat="45.86193" lon="4.66484">
        <ele>213</ele>
        <time>2017-03-25T09:52:06Z</time>
      </trkpt>
      <trkpt lat="45.86197" lon="4.66477">
        <ele>213</ele>
        <time>2017-03-25T09:52:07Z</time>
      </trkpt>
      <trkpt lat="45.86201" lon="4.6647">
        <ele>213</ele>
        <time>2017-03-25T09:52:08Z</time>
      </trkpt>
      <trkpt lat="45.86204" lon="4.66462">
        <ele>213</ele>
        <time>2017-03-25T09:52:09Z</time>
      </trkpt>
      <trkpt lat="45.86208" lon="4.66455">
        <ele>213</ele>
        <time>2017-03-25T09:52:10Z</time>
      </trkpt>
      <trkpt lat="45.86212" lon="4.66447">
        <ele>213</ele>
        <time>2017-03-25T09:52:11Z</time>
      </trkpt>
      <trkpt lat="45.86216" lon="4.6644">
        <ele>213</ele>
        <time>2017-03-25T09:52:12Z</time>
      </trkpt>
      <trkpt lat="45.86219" lon="4.66433">
        <ele>213</ele>
        <time>2017-03-25T09:52:13Z</time>
      </trkpt>
      <trkpt lat="45.86223" lon="4.66426">
        <ele>213</ele>
        <time>2017-03-25T09:52:14Z</time>
      </trkpt>
      <trkpt lat="45.86227" lon="4.6642">
        <ele>213</ele>
        <time>2017-03-25T09:52:15Z</time>
      </trkpt>
      <trkpt lat="45.86231" lon="4.66413">
        <ele>213</ele>
        <time>2017-03-25T09:52:16Z</time>
      </trkpt>
      <trkpt lat="45.86235" lon="4.66406">
        <ele>213</ele>
        <time>2017-03-25T09:52:17Z</time>
      </trkpt>
      <trkpt lat="45.86239" lon="4.664">
        <ele>213</ele>
        <time>2017-03-25T09:52:18Z</time>
      </trkpt>
      <trkpt lat="45.86243" lon="4.66394">
        <ele>212</ele>
        <time>2017-03-25T09:52:19Z</time>
      </trkpt>
      <trkpt lat="45.86247" lon="4.66387">
        <ele>212</ele>
        <time>2017-03-25T09:52:20Z</time>
      </trkpt>
      <trkpt lat="45.8625" lon="4.66381">
        <ele>212</ele>
        <time>2017-03-25T09:52:21Z</time>
      </trkpt>
      <trkpt lat="45.86253" lon="4.66375">
        <ele>216</ele>
        <time>2017-03-25T09:52:22Z</time>
      </trkpt>
      <trkpt lat="45.86256" lon="4.66368">
        <ele>216</ele>
        <time>2017-03-25T09:52:23Z</time>
      </trkpt>
      <trkpt lat="45.86259" lon="4.66361">
        <ele>216</ele>
        <time>2017-03-25T09:52:24Z</time>
      </trkpt>
      <trkpt lat="45.86263" lon="4.66354">
        <ele>215</ele>
        <time>2017-03-25T09:52:25Z</time>
      </trkpt>
      <trkpt lat="45.86267" lon="4.66348">
        <ele>215</ele>
        <time>2017-03-25T09:52:26Z</time>
      </trkpt>
      <trkpt lat="45.86272" lon="4.66341">
        <ele>215</ele>
        <time>2017-03-25T09:52:27Z</time>
      </trkpt>
      <trkpt lat="45.86276" lon="4.66334">
        <ele>216</ele>
        <time>2017-03-25T09:52:28Z</time>
      </trkpt>
      <trkpt lat="45.86279" lon="4.66327">
        <ele>214</ele>
        <time>2017-03-25T09:52:29Z</time>
      </trkpt>
      <trkpt lat="45.86284" lon="4.66321">
        <ele>214</ele>
        <time>2017-03-25T09:52:30Z</time>
      </trkpt>
      <trkpt lat="45.86288" lon="4.66315">
        <ele>214</ele>
        <time>2017-03-25T09:52:31Z</time>
      </trkpt>
      <trkpt lat="45.86292" lon="4.6631">
        <ele>214</ele>
        <time>2017-03-25T09:52:32Z</time>
      </trkpt>
      <trkpt lat="45.86296" lon="4.66305">
        <ele>214</ele>
        <time>2017-03-25T09:52:33Z</time>
      </trkpt>
      <trkpt lat="45.863" lon="4.663">
        <ele>214</ele>
        <time>2017-03-25T09:52:34Z</time>
      </trkpt>
      <trkpt lat="45.86304" lon="4.66295">
        <ele>214</ele>
        <time>2017-03-25T09:52:35Z</time>
      </trkpt>
      <trkpt lat="45.86307" lon="4.66291">
        <ele>214</ele>
        <time>2017-03-25T09:52:36Z</time>
      </trkpt>
      <trkpt lat="45.86311" lon="4.66287">
        <ele>214</ele>
        <time>2017-03-25T09:52:37Z</time>
      </trkpt>
      <trkpt lat="45.86314" lon="4.66282">
        <ele>214</ele>
        <time>2017-03-25T09:52:38Z</time>
      </trkpt>
      <trkpt lat="45.86319" lon="4.66278">
        <ele>214</ele>
        <time>2017-03-25T09:52:39Z</time>
      </trkpt>
      <trkpt lat="45.86323" lon="4.66274">
        <ele>214</ele>
        <time>2017-03-25T09:52:40Z</time>
      </trkpt>
      <trkpt lat="45.86327" lon="4.6627">
        <ele>214</ele>
        <time>2017-03-25T09:52:41Z</time>
      </trkpt>
      <trkpt lat="45.86332" lon="4.66266">
        <ele>214</ele>
        <time>2017-03-25T09:52:42Z</time>
      </trkpt>
      <trkpt lat="45.86336" lon="4.66262">
        <ele>216</ele>
        <time>2017-03-25T09:52:43Z</time>
      </trkpt>
      <trkpt lat="45.8634" lon="4.66259">
        <ele>216</ele>
        <time>2017-03-25T09:52:44Z</time>
      </trkpt>
      <trkpt lat="45.86345" lon="4.66256">
        <ele>216</ele>
        <time>2017-03-25T09:52:45Z</time>
      </trkpt>
      <trkpt lat="45.86349" lon="4.66253">
        <ele>217</ele>
        <time>2017-03-25T09:52:46Z</time>
      </trkpt>
      <trkpt lat="45.86354" lon="4.66249">
        <ele>213</ele>
        <time>2017-03-25T09:52:47Z</time>
      </trkpt>
      <trkpt lat="45.86359" lon="4.66246">
        <ele>213</ele>
        <time>2017-03-25T09:52:48Z</time>
      </trkpt>
      <trkpt lat="45.86365" lon="4.66243">
        <ele>213</ele>
        <time>2017-03-25T09:52:49Z</time>
      </trkpt>
      <trkpt lat="45.86371" lon="4.66241">
        <ele>213</ele>
        <time>2017-03-25T09:52:50Z</time>
      </trkpt>
      <trkpt lat="45.86376" lon="4.66238">
        <ele>214</ele>
        <time>2017-03-25T09:52:51Z</time>
      </trkpt>
      <trkpt lat="45.86383" lon="4.66236">
        <ele>214</ele>
        <time>2017-03-25T09:52:52Z</time>
      </trkpt>
      <trkpt lat="45.86389" lon="4.66233">
        <ele>214</ele>
        <time>2017-03-25T09:52:53Z</time>
      </trkpt>
      <trkpt lat="45.86395" lon="4.66231">
        <ele>215</ele>
        <time>2017-03-25T09:52:54Z</time>
      </trkpt>
      <trkpt lat="45.86401" lon="4.66228">
        <ele>215</ele>
        <time>2017-03-25T09:52:55Z</time>
      </trkpt>
      <trkpt lat="45.86406" lon="4.66226">
        <ele>215</ele>
        <time>2017-03-25T09:52:56Z</time>
      </trkpt>
      <trkpt lat="45.86412" lon="4.66223">
        <ele>215</ele>
        <time>2017-03-25T09:52:57Z</time>
      </trkpt>
      <trkpt lat="45.86417" lon="4.66221">
        <ele>218</ele>
        <time>2017-03-25T09:52:58Z</time>
      </trkpt>
      <trkpt lat="45.86422" lon="4.66219">
        <ele>218</ele>
        <time>2017-03-25T09:52:59Z</time>
      </trkpt>
      <trkpt lat="45.86427" lon="4.66217">
        <ele>217</ele>
        <time>2017-03-25T09:53:00Z</time>
      </trkpt>
      <trkpt lat="45.86432" lon="4.66216">
        <ele>217</ele>
        <time>2017-03-25T09:53:01Z</time>
      </trkpt>
      <trkpt lat="45.86437" lon="4.66214">
        <ele>217</ele>
        <time>2017-03-25T09:53:02Z</time>
      </trkpt>
      <trkpt lat="45.86442" lon="4.66212">
        <ele>217</ele>
        <time>2017-03-25T09:53:03Z</time>
      </trkpt>
      <trkpt lat="45.86448" lon="4.66211">
        <ele>217</ele>
        <time>2017-03-25T09:53:04Z</time>
      </trkpt>
      <trkpt lat="45.86453" lon="4.66209">
        <ele>217</ele>
        <time>2017-03-25T09:53:05Z</time>
      </trkpt>
      <trkpt lat="45.86458" lon="4.66207">
        <ele>217</ele>
        <time>2017-03-25T09:53:06Z</time>
      </trkpt>
      <trkpt lat="45.86463" lon="4.66205">
        <ele>217</ele>
        <time>2017-03-25T09:53:07Z</time>
      </trkpt>
      <trkpt lat="45.86468" lon="4.66203">
        <ele>217</ele>
        <time>2017-03-25T09:53:08Z</time>
      </trkpt>
      <trkpt lat="45.86472" lon="4.66202">
        <ele>217</ele>
        <time>2017-03-25T09:53:09Z</time>
      </trkpt>
      <trkpt lat="45.86477" lon="4.662">
        <ele>217</ele>
        <time>2017-03-25T09:53:10Z</time>
      </trkpt>
      <trkpt lat="45.86482" lon="4.66198">
        <ele>217</ele>
        <time>2017-03-25T09:53:11Z</time>
      </trkpt>
      <trkpt lat="45.86487" lon="4.66196">
        <ele>217</ele>
        <time>2017-03-25T09:53:12Z</time>
      </trkpt>
      <trkpt lat="45.86492" lon="4.66194">
        <ele>217</ele>
        <time>2017-03-25T09:53:13Z</time>
      </trkpt>
      <trkpt lat="45.86498" lon="4.66192">
        <ele>217</ele>
        <time>2017-03-25T09:53:14Z</time>
      </trkpt>
      <trkpt lat="45.86503" lon="4.66189">
        <ele>222</ele>
        <time>2017-03-25T09:53:15Z</time>
      </trkpt>
      <trkpt lat="45.86508" lon="4.66186">
        <ele>222</ele>
        <time>2017-03-25T09:53:16Z</time>
      </trkpt>
      <trkpt lat="45.86513" lon="4.66183">
        <ele>222</ele>
        <time>2017-03-25T09:53:17Z</time>
      </trkpt>
      <trkpt lat="45.86518" lon="4.6618">
        <ele>222</ele>
        <time>2017-03-25T09:53:18Z</time>
      </trkpt>
      <trkpt lat="45.86524" lon="4.66177">
        <ele>223</ele>
        <time>2017-03-25T09:53:19Z</time>
      </trkpt>
      <trkpt lat="45.86529" lon="4.66173">
        <ele>223</ele>
        <time>2017-03-25T09:53:20Z</time>
      </trkpt>
      <trkpt lat="45.86534" lon="4.66168">
        <ele>224</ele>
        <time>2017-03-25T09:53:21Z</time>
      </trkpt>
      <trkpt lat="45.86539" lon="4.66165">
        <ele>217</ele>
        <time>2017-03-25T09:53:22Z</time>
      </trkpt>
      <trkpt lat="45.86543" lon="4.66161">
        <ele>217</ele>
        <time>2017-03-25T09:53:23Z</time>
      </trkpt>
      <trkpt lat="45.86548" lon="4.66157">
        <ele>218</ele>
        <time>2017-03-25T09:53:24Z</time>
      </trkpt>
      <trkpt lat="45.86552" lon="4.66154">
        <ele>218</ele>
        <time>2017-03-25T09:53:25Z</time>
      </trkpt>
      <trkpt lat="45.86556" lon="4.6615">
        <ele>218</ele>
        <time>2017-03-25T09:53:26Z</time>
      </trkpt>
      <trkpt lat="45.8656" lon="4.66146">
        <ele>218</ele>
        <time>2017-03-25T09:53:27Z</time>
      </trkpt>
      <trkpt lat="45.86565" lon="4.66142">
        <ele>218</ele>
        <time>2017-03-25T09:53:28Z</time>
      </trkpt>
      <trkpt lat="45.86569" lon="4.66139">
        <ele>218</ele>
        <time>2017-03-25T09:53:29Z</time>
      </trkpt>
      <trkpt lat="45.86574" lon="4.66135">
        <ele>218</ele>
        <time>2017-03-25T09:53:30Z</time>
      </trkpt>
      <trkpt lat="45.86579" lon="4.66131">
        <ele>217</ele>
        <time>2017-03-25T09:53:31Z</time>
      </trkpt>
      <trkpt lat="45.86583" lon="4.66127">
        <ele>217</ele>
        <time>2017-03-25T09:53:32Z</time>
      </trkpt>
      <trkpt lat="45.86588" lon="4.66123">
        <ele>223</ele>
        <time>2017-03-25T09:53:33Z</time>
      </trkpt>
      <trkpt lat="45.86593" lon="4.6612">
        <ele>223</ele>
        <time>2017-03-25T09:53:34Z</time>
      </trkpt>
      <trkpt lat="45.86598" lon="4.66117">
        <ele>223</ele>
        <time>2017-03-25T09:53:35Z</time>
      </trkpt>
      <trkpt lat="45.86602" lon="4.66113">
        <ele>222</ele>
        <time>2017-03-25T09:53:36Z</time>
      </trkpt>
      <trkpt lat="45.86607" lon="4.6611">
        <ele>222</ele>
        <time>2017-03-25T09:53:37Z</time>
      </trkpt>
      <trkpt lat="45.86612" lon="4.66107">
        <ele>222</ele>
        <time>2017-03-25T09:53:38Z</time>
      </trkpt>
      <trkpt lat="45.86617" lon="4.66105">
        <ele>223</ele>
        <time>2017-03-25T09:53:39Z</time>
      </trkpt>
      <trkpt lat="45.86621" lon="4.66102">
        <ele>223</ele>
        <time>2017-03-25T09:53:40Z</time>
      </trkpt>
      <trkpt lat="45.86626" lon="4.661">
        <ele>223</ele>
        <time>2017-03-25T09:53:41Z</time>
      </trkpt>
      <trkpt lat="45.86631" lon="4.66098">
        <ele>223</ele>
        <time>2017-03-25T09:53:42Z</time>
      </trkpt>
      <trkpt lat="45.86635" lon="4.66096">
        <ele>223</ele>
        <time>2017-03-25T09:53:43Z</time>
      </trkpt>
      <trkpt lat="45.8664" lon="4.66094">
        <ele>223</ele>
        <time>2017-03-25T09:53:44Z</time>
      </trkpt>
      <trkpt lat="45.86645" lon="4.66091">
        <ele>223</ele>
        <time>2017-03-25T09:53:45Z</time>
      </trkpt>
      <trkpt lat="45.8665" lon="4.66089">
        <ele>222</ele>
        <time>2017-03-25T09:53:46Z</time>
      </trkpt>
      <trkpt lat="45.86654" lon="4.66088">
        <ele>222</ele>
        <time>2017-03-25T09:53:47Z</time>
      </trkpt>
      <trkpt lat="45.86659" lon="4.66086">
        <ele>221</ele>
        <time>2017-03-25T09:53:48Z</time>
      </trkpt>
      <trkpt lat="45.86664" lon="4.66084">
        <ele>220</ele>
        <time>2017-03-25T09:53:49Z</time>
      </trkpt>
      <trkpt lat="45.86669" lon="4.66082">
        <ele>219</ele>
        <time>2017-03-25T09:53:50Z</time>
      </trkpt>
      <trkpt lat="45.86674" lon="4.66079">
        <ele>220</ele>
        <time>2017-03-25T09:53:51Z</time>
      </trkpt>
      <trkpt lat="45.86679" lon="4.66076">
        <ele>220</ele>
        <time>2017-03-25T09:53:52Z</time>
      </trkpt>
      <trkpt lat="45.86683" lon="4.66074">
        <ele>221</ele>
        <time>2017-03-25T09:53:53Z</time>
      </trkpt>
      <trkpt lat="45.86688" lon="4.66071">
        <ele>221</ele>
        <time>2017-03-25T09:53:54Z</time>
      </trkpt>
      <trkpt lat="45.86693" lon="4.66069">
        <ele>222</ele>
        <time>2017-03-25T09:53:55Z</time>
      </trkpt>
      <trkpt lat="45.86698" lon="4.66066">
        <ele>222</ele>
        <time>2017-03-25T09:53:56Z</time>
      </trkpt>
      <trkpt lat="45.86703" lon="4.66063">
        <ele>222</ele>
        <time>2017-03-25T09:53:57Z</time>
      </trkpt>
      <trkpt lat="45.86708" lon="4.66061">
        <ele>223</ele>
        <time>2017-03-25T09:53:58Z</time>
      </trkpt>
      <trkpt lat="45.86713" lon="4.66057">
        <ele>223</ele>
        <time>2017-03-25T09:53:59Z</time>
      </trkpt>
      <trkpt lat="45.86718" lon="4.66055">
        <ele>224</ele>
        <time>2017-03-25T09:54:00Z</time>
      </trkpt>
      <trkpt lat="45.86723" lon="4.66051">
        <ele>224</ele>
        <time>2017-03-25T09:54:01Z</time>
      </trkpt>
      <trkpt lat="45.86728" lon="4.66047">
        <ele>224</ele>
        <time>2017-03-25T09:54:02Z</time>
      </trkpt>
      <trkpt lat="45.86733" lon="4.66043">
        <ele>223</ele>
        <time>2017-03-25T09:54:03Z</time>
      </trkpt>
      <trkpt lat="45.86737" lon="4.66039">
        <ele>223</ele>
        <time>2017-03-25T09:54:04Z</time>
      </trkpt>
      <trkpt lat="45.86742" lon="4.66035">
        <ele>222</ele>
        <time>2017-03-25T09:54:05Z</time>
      </trkpt>
      <trkpt lat="45.86747" lon="4.6603">
        <ele>222</ele>
        <time>2017-03-25T09:54:06Z</time>
      </trkpt>
      <trkpt lat="45.86752" lon="4.66026">
        <ele>230</ele>
        <time>2017-03-25T09:54:07Z</time>
      </trkpt>
      <trkpt lat="45.86756" lon="4.66021">
        <ele>228</ele>
        <time>2017-03-25T09:54:08Z</time>
      </trkpt>
      <trkpt lat="45.86761" lon="4.66016">
        <ele>228</ele>
        <time>2017-03-25T09:54:09Z</time>
      </trkpt>
      <trkpt lat="45.86765" lon="4.66011">
        <ele>227</ele>
        <time>2017-03-25T09:54:10Z</time>
      </trkpt>
      <trkpt lat="45.8677" lon="4.66006">
        <ele>228</ele>
        <time>2017-03-25T09:54:11Z</time>
      </trkpt>
      <trkpt lat="45.86775" lon="4.66001">
        <ele>229</ele>
        <time>2017-03-25T09:54:12Z</time>
      </trkpt>
      <trkpt lat="45.86779" lon="4.65997">
        <ele>221</ele>
        <time>2017-03-25T09:54:13Z</time>
      </trkpt>
      <trkpt lat="45.86783" lon="4.65992">
        <ele>222</ele>
        <time>2017-03-25T09:54:14Z</time>
      </trkpt>
      <trkpt lat="45.86787" lon="4.65986">
        <ele>222</ele>
        <time>2017-03-25T09:54:15Z</time>
      </trkpt>
      <trkpt lat="45.86791" lon="4.65981">
        <ele>222</ele>
        <time>2017-03-25T09:54:16Z</time>
      </trkpt>
      <trkpt lat="45.86795" lon="4.65975">
        <ele>223</ele>
        <time>2017-03-25T09:54:17Z</time>
      </trkpt>
      <trkpt lat="45.86799" lon="4.65969">
        <ele>223</ele>
        <time>2017-03-25T09:54:18Z</time>
      </trkpt>
      <trkpt lat="45.86802" lon="4.65963">
        <ele>222</ele>
        <time>2017-03-25T09:54:19Z</time>
      </trkpt>
      <trkpt lat="45.86806" lon="4.65957">
        <ele>222</ele>
        <time>2017-03-25T09:54:20Z</time>
      </trkpt>
      <trkpt lat="45.86809" lon="4.65951">
        <ele>222</ele>
        <time>2017-03-25T09:54:21Z</time>
      </trkpt>
      <trkpt lat="45.86812" lon="4.65945">
        <ele>222</ele>
        <time>2017-03-25T09:54:22Z</time>
      </trkpt>
      <trkpt lat="45.86815" lon="4.65938">
        <ele>222</ele>
        <time>2017-03-25T09:54:23Z</time>
      </trkpt>
      <trkpt lat="45.86818" lon="4.65932">
        <ele>221</ele>
        <time>2017-03-25T09:54:24Z</time>
      </trkpt>
      <trkpt lat="45.86821" lon="4.65926">
        <ele>221</ele>
        <time>2017-03-25T09:54:25Z</time>
      </trkpt>
      <trkpt lat="45.86824" lon="4.6592">
        <ele>221</ele>
        <time>2017-03-25T09:54:26Z</time>
      </trkpt>
      <trkpt lat="45.86827" lon="4.65914">
        <ele>219</ele>
        <time>2017-03-25T09:54:27Z</time>
      </trkpt>
      <trkpt lat="45.8683" lon="4.65908">
        <ele>219</ele>
        <time>2017-03-25T09:54:28Z</time>
      </trkpt>
      <trkpt lat="45.86833" lon="4.65902">
        <ele>218</ele>
        <time>2017-03-25T09:54:29Z</time>
      </trkpt>
      <trkpt lat="45.86837" lon="4.65896">
        <ele>225</ele>
        <time>2017-03-25T09:54:30Z</time>
      </trkpt>
      <trkpt lat="45.8684" lon="4.65891">
        <ele>226</ele>
        <time>2017-03-25T09:54:31Z</time>
      </trkpt>
      <trkpt lat="45.86843" lon="4.65885">
        <ele>226</ele>
        <time>2017-03-25T09:54:32Z</time>
      </trkpt>
      <trkpt lat="45.86846" lon="4.65879">
        <ele>226</ele>
        <time>2017-03-25T09:54:33Z</time>
      </trkpt>
      <trkpt lat="45.8685" lon="4.65872">
        <ele>226</ele>
        <time>2017-03-25T09:54:34Z</time>
      </trkpt>
      <trkpt lat="45.86852" lon="4.65866">
        <ele>225</ele>
        <time>2017-03-25T09:54:35Z</time>
      </trkpt>
      <trkpt lat="45.86855" lon="4.65859">
        <ele>225</ele>
        <time>2017-03-25T09:54:36Z</time>
      </trkpt>
      <trkpt lat="45.86858" lon="4.65853">
        <ele>225</ele>
        <time>2017-03-25T09:54:37Z</time>
      </trkpt>
      <trkpt lat="45.8686" lon="4.65846">
        <ele>224</ele>
        <time>2017-03-25T09:54:38Z</time>
      </trkpt>
      <trkpt lat="45.86862" lon="4.65839">
        <ele>224</ele>
        <time>2017-03-25T09:54:39Z</time>
      </trkpt>
      <trkpt lat="45.86865" lon="4.65833">
        <ele>220</ele>
        <time>2017-03-25T09:54:40Z</time>
      </trkpt>
      <trkpt lat="45.86868" lon="4.65825">
        <ele>221</ele>
        <time>2017-03-25T09:54:41Z</time>
      </trkpt>
      <trkpt lat="45.8687" lon="4.65818">
        <ele>221</ele>
        <time>2017-03-25T09:54:42Z</time>
      </trkpt>
      <trkpt lat="45.86872" lon="4.65811">
        <ele>222</ele>
        <time>2017-03-25T09:54:43Z</time>
      </trkpt>
      <trkpt lat="45.86873" lon="4.65803">
        <ele>222</ele>
        <time>2017-03-25T09:54:44Z</time>
      </trkpt>
      <trkpt lat="45.86875" lon="4.65796">
        <ele>222</ele>
        <time>2017-03-25T09:54:45Z</time>
      </trkpt>
      <trkpt lat="45.86877" lon="4.65788">
        <ele>222</ele>
        <time>2017-03-25T09:54:46Z</time>
      </trkpt>
      <trkpt lat="45.86879" lon="4.65781">
        <ele>222</ele>
        <time>2017-03-25T09:54:47Z</time>
      </trkpt>
      <trkpt lat="45.86881" lon="4.65774">
        <ele>222</ele>
        <time>2017-03-25T09:54:48Z</time>
      </trkpt>
      <trkpt lat="45.86882" lon="4.65766">
        <ele>223</ele>
        <time>2017-03-25T09:54:49Z</time>
      </trkpt>
      <trkpt lat="45.86883" lon="4.65759">
        <ele>223</ele>
        <time>2017-03-25T09:54:50Z</time>
      </trkpt>
      <trkpt lat="45.86884" lon="4.65752">
        <ele>223</ele>
        <time>2017-03-25T09:54:51Z</time>
      </trkpt>
      <trkpt lat="45.86885" lon="4.65744">
        <ele>223</ele>
        <time>2017-03-25T09:54:52Z</time>
      </trkpt>
      <trkpt lat="45.86887" lon="4.65736">
        <ele>223</ele>
        <time>2017-03-25T09:54:53Z</time>
      </trkpt>
      <trkpt lat="45.86887" lon="4.65727">
        <ele>223</ele>
        <time>2017-03-25T09:54:54Z</time>
      </trkpt>
      <trkpt lat="45.86888" lon="4.65719">
        <ele>222</ele>
        <time>2017-03-25T09:54:55Z</time>
      </trkpt>
      <trkpt lat="45.86889" lon="4.6571">
        <ele>222</ele>
        <time>2017-03-25T09:54:56Z</time>
      </trkpt>
      <trkpt lat="45.86889" lon="4.65702">
        <ele>223</ele>
        <time>2017-03-25T09:54:57Z</time>
      </trkpt>
      <trkpt lat="45.8689" lon="4.65694">
        <ele>223</ele>
        <time>2017-03-25T09:54:58Z</time>
      </trkpt>
      <trkpt lat="45.86891" lon="4.65685">
        <ele>223</ele>
        <time>2017-03-25T09:54:59Z</time>
      </trkpt>
      <trkpt lat="45.86891" lon="4.65676">
        <ele>224</ele>
        <time>2017-03-25T09:55:00Z</time>
      </trkpt>
      <trkpt lat="45.86892" lon="4.65668">
        <ele>224</ele>
        <time>2017-03-25T09:55:01Z</time>
      </trkpt>
      <trkpt lat="45.86892" lon="4.65659">
        <ele>224</ele>
        <time>2017-03-25T09:55:02Z</time>
      </trkpt>
      <trkpt lat="45.86893" lon="4.6565">
        <ele>224</ele>
        <time>2017-03-25T09:55:03Z</time>
      </trkpt>
      <trkpt lat="45.86894" lon="4.65642">
        <ele>223</ele>
        <time>2017-03-25T09:55:04Z</time>
      </trkpt>
      <trkpt lat="45.86895" lon="4.65633">
        <ele>223</ele>
        <time>2017-03-25T09:55:05Z</time>
      </trkpt>
      <trkpt lat="45.86896" lon="4.65625">
        <ele>223</ele>
        <time>2017-03-25T09:55:06Z</time>
      </trkpt>
      <trkpt lat="45.86897" lon="4.65616">
        <ele>223</ele>
        <time>2017-03-25T09:55:07Z</time>
      </trkpt>
      <trkpt lat="45.86899" lon="4.65606">
        <ele>223</ele>
        <time>2017-03-25T09:55:08Z</time>
      </trkpt>
      <trkpt lat="45.869" lon="4.65597">
        <ele>223</ele>
        <time>2017-03-25T09:55:09Z</time>
      </trkpt>
      <trkpt lat="45.86902" lon="4.65587">
        <ele>224</ele>
        <time>2017-03-25T09:55:10Z</time>
      </trkpt>
      <trkpt lat="45.86904" lon="4.65578">
        <ele>222</ele>
        <time>2017-03-25T09:55:11Z</time>
      </trkpt>
      <trkpt lat="45.86907" lon="4.65569">
        <ele>221</ele>
        <time>2017-03-25T09:55:12Z</time>
      </trkpt>
      <trkpt lat="45.8691" lon="4.65559">
        <ele>220</ele>
        <time>2017-03-25T09:55:13Z</time>
      </trkpt>
      <trkpt lat="45.86912" lon="4.6555">
        <ele>219</ele>
        <time>2017-03-25T09:55:14Z</time>
      </trkpt>
      <trkpt lat="45.86916" lon="4.65541">
        <ele>219</ele>
        <time>2017-03-25T09:55:15Z</time>
      </trkpt>
      <trkpt lat="45.86919" lon="4.65532">
        <ele>228</ele>
        <time>2017-03-25T09:55:16Z</time>
      </trkpt>
      <trkpt lat="45.86923" lon="4.65523">
        <ele>227</ele>
        <time>2017-03-25T09:55:17Z</time>
      </trkpt>
      <trkpt lat="45.86927" lon="4.65514">
        <ele>226</ele>
        <time>2017-03-25T09:55:18Z</time>
      </trkpt>
      <trkpt lat="45.86931" lon="4.65505">
        <ele>225</ele>
        <time>2017-03-25T09:55:19Z</time>
      </trkpt>
      <trkpt lat="45.86936" lon="4.65497">
        <ele>221</ele>
        <time>2017-03-25T09:55:20Z</time>
      </trkpt>
      <trkpt lat="45.8694" lon="4.65489">
        <ele>221</ele>
        <time>2017-03-25T09:55:21Z</time>
      </trkpt>
      <trkpt lat="45.86945" lon="4.65482">
        <ele>222</ele>
        <time>2017-03-25T09:55:22Z</time>
      </trkpt>
      <trkpt lat="45.86949" lon="4.65474">
        <ele>222</ele>
        <time>2017-03-25T09:55:23Z</time>
      </trkpt>
      <trkpt lat="45.86954" lon="4.65467">
        <ele>222</ele>
        <time>2017-03-25T09:55:24Z</time>
      </trkpt>
      <trkpt lat="45.86959" lon="4.6546">
        <ele>222</ele>
        <time>2017-03-25T09:55:25Z</time>
      </trkpt>
      <trkpt lat="45.86965" lon="4.65454">
        <ele>222</ele>
        <time>2017-03-25T09:55:26Z</time>
      </trkpt>
      <trkpt lat="45.8697" lon="4.65447">
        <ele>222</ele>
        <time>2017-03-25T09:55:27Z</time>
      </trkpt>
      <trkpt lat="45.86975" lon="4.6544">
        <ele>222</ele>
        <time>2017-03-25T09:55:28Z</time>
      </trkpt>
      <trkpt lat="45.86981" lon="4.65433">
        <ele>222</ele>
        <time>2017-03-25T09:55:29Z</time>
      </trkpt>
      <trkpt lat="45.86986" lon="4.65427">
        <ele>222</ele>
        <time>2017-03-25T09:55:30Z</time>
      </trkpt>
      <trkpt lat="45.86992" lon="4.65422">
        <ele>221</ele>
        <time>2017-03-25T09:55:31Z</time>
      </trkpt>
      <trkpt lat="45.86997" lon="4.65416">
        <ele>220</ele>
        <time>2017-03-25T09:55:32Z</time>
      </trkpt>
      <trkpt lat="45.87002" lon="4.6541">
        <ele>222</ele>
        <time>2017-03-25T09:55:33Z</time>
      </trkpt>
      <trkpt lat="45.87007" lon="4.65404">
        <ele>223</ele>
        <time>2017-03-25T09:55:34Z</time>
      </trkpt>
      <trkpt lat="45.87012" lon="4.65399">
        <ele>223</ele>
        <time>2017-03-25T09:55:35Z</time>
      </trkpt>
      <trkpt lat="45.87017" lon="4.65393">
        <ele>223</ele>
        <time>2017-03-25T09:55:36Z</time>
      </trkpt>
      <trkpt lat="45.87022" lon="4.65386">
        <ele>223</ele>
        <time>2017-03-25T09:55:37Z</time>
      </trkpt>
      <trkpt lat="45.87026" lon="4.6538">
        <ele>223</ele>
        <time>2017-03-25T09:55:38Z</time>
      </trkpt>
      <trkpt lat="45.8703" lon="4.65373">
        <ele>223</ele>
        <time>2017-03-25T09:55:39Z</time>
      </trkpt>
      <trkpt lat="45.87034" lon="4.65367">
        <ele>223</ele>
        <time>2017-03-25T09:55:40Z</time>
      </trkpt>
      <trkpt lat="45.87038" lon="4.65361">
        <ele>223</ele>
        <time>2017-03-25T09:55:41Z</time>
      </trkpt>
      <trkpt lat="45.87042" lon="4.65355">
        <ele>223</ele>
        <time>2017-03-25T09:55:42Z</time>
      </trkpt>
      <trkpt lat="45.87046" lon="4.65349">
        <ele>223</ele>
        <time>2017-03-25T09:55:43Z</time>
      </trkpt>
      <trkpt lat="45.87049" lon="4.65343">
        <ele>223</ele>
        <time>2017-03-25T09:55:44Z</time>
      </trkpt>
      <trkpt lat="45.87052" lon="4.65337">
        <ele>223</ele>
        <time>2017-03-25T09:55:45Z</time>
      </trkpt>
      <trkpt lat="45.87055" lon="4.6533">
        <ele>218</ele>
        <time>2017-03-25T09:55:46Z</time>
      </trkpt>
      <trkpt lat="45.87059" lon="4.65323">
        <ele>218</ele>
        <time>2017-03-25T09:55:47Z</time>
      </trkpt>
      <trkpt lat="45.87062" lon="4.65316">
        <ele>218</ele>
        <time>2017-03-25T09:55:48Z</time>
      </trkpt>
      <trkpt lat="45.87066" lon="4.65309">
        <ele>218</ele>
        <time>2017-03-25T09:55:49Z</time>
      </trkpt>
      <trkpt lat="45.87069" lon="4.65301">
        <ele>217</ele>
        <time>2017-03-25T09:55:50Z</time>
      </trkpt>
      <trkpt lat="45.87072" lon="4.65293">
        <ele>216</ele>
        <time>2017-03-25T09:55:51Z</time>
      </trkpt>
      <trkpt lat="45.87076" lon="4.65285">
        <ele>216</ele>
        <time>2017-03-25T09:55:52Z</time>
      </trkpt>
      <trkpt lat="45.87079" lon="4.65278">
        <ele>215</ele>
        <time>2017-03-25T09:55:53Z</time>
      </trkpt>
      <trkpt lat="45.87082" lon="4.6527">
        <ele>215</ele>
        <time>2017-03-25T09:55:54Z</time>
      </trkpt>
      <trkpt lat="45.87085" lon="4.65262">
        <ele>220</ele>
        <time>2017-03-25T09:55:55Z</time>
      </trkpt>
      <trkpt lat="45.87088" lon="4.65255">
        <ele>218</ele>
        <time>2017-03-25T09:55:56Z</time>
      </trkpt>
      <trkpt lat="45.87091" lon="4.65248">
        <ele>215</ele>
        <time>2017-03-25T09:55:57Z</time>
      </trkpt>
      <trkpt lat="45.87093" lon="4.65243">
        <ele>216</ele>
        <time>2017-03-25T09:55:58Z</time>
      </trkpt>
      <trkpt lat="45.87097" lon="4.65237">
        <ele>217</ele>
        <time>2017-03-25T09:55:59Z</time>
      </trkpt>
      <trkpt lat="45.871" lon="4.65231">
        <ele>218</ele>
        <time>2017-03-25T09:56:00Z</time>
      </trkpt>
      <trkpt lat="45.87104" lon="4.65226">
        <ele>218</ele>
        <time>2017-03-25T09:56:01Z</time>
      </trkpt>
      <trkpt lat="45.87107" lon="4.6522">
        <ele>219</ele>
        <time>2017-03-25T09:56:02Z</time>
      </trkpt>
      <trkpt lat="45.87111" lon="4.65214">
        <ele>219</ele>
        <time>2017-03-25T09:56:03Z</time>
      </trkpt>
      <trkpt lat="45.87116" lon="4.65209">
        <ele>219</ele>
        <time>2017-03-25T09:56:04Z</time>
      </trkpt>
      <trkpt lat="45.8712" lon="4.65203">
        <ele>219</ele>
        <time>2017-03-25T09:56:05Z</time>
      </trkpt>
      <trkpt lat="45.87124" lon="4.65198">
        <ele>220</ele>
        <time>2017-03-25T09:56:06Z</time>
      </trkpt>
      <trkpt lat="45.87128" lon="4.65193">
        <ele>220</ele>
        <time>2017-03-25T09:56:07Z</time>
      </trkpt>
      <trkpt lat="45.87132" lon="4.65189">
        <ele>220</ele>
        <time>2017-03-25T09:56:08Z</time>
      </trkpt>
      <trkpt lat="45.87136" lon="4.65184">
        <ele>220</ele>
        <time>2017-03-25T09:56:09Z</time>
      </trkpt>
      <trkpt lat="45.87141" lon="4.6518">
        <ele>220</ele>
        <time>2017-03-25T09:56:10Z</time>
      </trkpt>
      <trkpt lat="45.87146" lon="4.65176">
        <ele>220</ele>
        <time>2017-03-25T09:56:11Z</time>
      </trkpt>
      <trkpt lat="45.8715" lon="4.65172">
        <ele>220</ele>
        <time>2017-03-25T09:56:12Z</time>
      </trkpt>
      <trkpt lat="45.87155" lon="4.65168">
        <ele>220</ele>
        <time>2017-03-25T09:56:13Z</time>
      </trkpt>
      <trkpt lat="45.87159" lon="4.65163">
        <ele>218</ele>
        <time>2017-03-25T09:56:14Z</time>
      </trkpt>
      <trkpt lat="45.87164" lon="4.65158">
        <ele>218</ele>
        <time>2017-03-25T09:56:15Z</time>
      </trkpt>
      <trkpt lat="45.87169" lon="4.65154">
        <ele>221</ele>
        <time>2017-03-25T09:56:16Z</time>
      </trkpt>
      <trkpt lat="45.87174" lon="4.65149">
        <ele>221</ele>
        <time>2017-03-25T09:56:17Z</time>
      </trkpt>
      <trkpt lat="45.87179" lon="4.65144">
        <ele>221</ele>
        <time>2017-03-25T09:56:18Z</time>
      </trkpt>
      <trkpt lat="45.87184" lon="4.6514">
        <ele>221</ele>
        <time>2017-03-25T09:56:19Z</time>
      </trkpt>
      <trkpt lat="45.87189" lon="4.65135">
        <ele>221</ele>
        <time>2017-03-25T09:56:20Z</time>
      </trkpt>
      <trkpt lat="45.87194" lon="4.65131">
        <ele>221</ele>
        <time>2017-03-25T09:56:21Z</time>
      </trkpt>
      <trkpt lat="45.87199" lon="4.65126">
        <ele>221</ele>
        <time>2017-03-25T09:56:22Z</time>
      </trkpt>
      <trkpt lat="45.87204" lon="4.65121">
        <ele>221</ele>
        <time>2017-03-25T09:56:23Z</time>
      </trkpt>
      <trkpt lat="45.87209" lon="4.65117">
        <ele>221</ele>
        <time>2017-03-25T09:56:24Z</time>
      </trkpt>
      <trkpt lat="45.87214" lon="4.65113">
        <ele>221</ele>
        <time>2017-03-25T09:56:25Z</time>
      </trkpt>
      <trkpt lat="45.8722" lon="4.65109">
        <ele>221</ele>
        <time>2017-03-25T09:56:26Z</time>
      </trkpt>
      <trkpt lat="45.87224" lon="4.65105">
        <ele>221</ele>
        <time>2017-03-25T09:56:27Z</time>
      </trkpt>
      <trkpt lat="45.87229" lon="4.65101">
        <ele>221</ele>
        <time>2017-03-25T09:56:28Z</time>
      </trkpt>
      <trkpt lat="45.87233" lon="4.65097">
        <ele>220</ele>
        <time>2017-03-25T09:56:29Z</time>
      </trkpt>
      <trkpt lat="45.87237" lon="4.65093">
        <ele>220</ele>
        <time>2017-03-25T09:56:30Z</time>
      </trkpt>
      <trkpt lat="45.87242" lon="4.6509">
        <ele>220</ele>
        <time>2017-03-25T09:56:31Z</time>
      </trkpt>
      <trkpt lat="45.87246" lon="4.65087">
        <ele>219</ele>
        <time>2017-03-25T09:56:32Z</time>
      </trkpt>
      <trkpt lat="45.8725" lon="4.65082">
        <ele>218</ele>
        <time>2017-03-25T09:56:33Z</time>
      </trkpt>
      <trkpt lat="45.87254" lon="4.65078">
        <ele>219</ele>
        <time>2017-03-25T09:56:34Z</time>
      </trkpt>
      <trkpt lat="45.87259" lon="4.65073">
        <ele>219</ele>
        <time>2017-03-25T09:56:35Z</time>
      </trkpt>
      <trkpt lat="45.87263" lon="4.6507">
        <ele>219</ele>
        <time>2017-03-25T09:56:36Z</time>
      </trkpt>
      <trkpt lat="45.87267" lon="4.65066">
        <ele>219</ele>
        <time>2017-03-25T09:56:37Z</time>
      </trkpt>
      <trkpt lat="45.87271" lon="4.65061">
        <ele>219</ele>
        <time>2017-03-25T09:56:38Z</time>
      </trkpt>
      <trkpt lat="45.87274" lon="4.65057">
        <ele>219</ele>
        <time>2017-03-25T09:56:39Z</time>
      </trkpt>
      <trkpt lat="45.87278" lon="4.65053">
        <ele>219</ele>
        <time>2017-03-25T09:56:40Z</time>
      </trkpt>
      <trkpt lat="45.87282" lon="4.65048">
        <ele>219</ele>
        <time>2017-03-25T09:56:41Z</time>
      </trkpt>
      <trkpt lat="45.87286" lon="4.65043">
        <ele>219</ele>
        <time>2017-03-25T09:56:42Z</time>
      </trkpt>
      <trkpt lat="45.87289" lon="4.65038">
        <ele>219</ele>
        <time>2017-03-25T09:56:43Z</time>
      </trkpt>
      <trkpt lat="45.87293" lon="4.65032">
        <ele>219</ele>
        <time>2017-03-25T09:56:44Z</time>
      </trkpt>
      <trkpt lat="45.87296" lon="4.65026">
        <ele>219</ele>
        <time>2017-03-25T09:56:45Z</time>
      </trkpt>
      <trkpt lat="45.873" lon="4.6502">
        <ele>219</ele>
        <time>2017-03-25T09:56:46Z</time>
      </trkpt>
      <trkpt lat="45.87303" lon="4.65015">
        <ele>219</ele>
        <time>2017-03-25T09:56:47Z</time>
      </trkpt>
      <trkpt lat="45.87307" lon="4.65009">
        <ele>219</ele>
        <time>2017-03-25T09:56:48Z</time>
      </trkpt>
      <trkpt lat="45.87309" lon="4.65004">
        <ele>219</ele>
        <time>2017-03-25T09:56:49Z</time>
      </trkpt>
      <trkpt lat="45.87312" lon="4.64997">
        <ele>215</ele>
        <time>2017-03-25T09:56:50Z</time>
      </trkpt>
      <trkpt lat="45.87315" lon="4.64991">
        <ele>215</ele>
        <time>2017-03-25T09:56:51Z</time>
      </trkpt>
      <trkpt lat="45.87318" lon="4.64985">
        <ele>215</ele>
        <time>2017-03-25T09:56:52Z</time>
      </trkpt>
      <trkpt lat="45.87321" lon="4.64979">
        <ele>215</ele>
        <time>2017-03-25T09:56:53Z</time>
      </trkpt>
      <trkpt lat="45.87324" lon="4.64974">
        <ele>214</ele>
        <time>2017-03-25T09:56:54Z</time>
      </trkpt>
      <trkpt lat="45.87328" lon="4.64967">
        <ele>214</ele>
        <time>2017-03-25T09:56:55Z</time>
      </trkpt>
      <trkpt lat="45.87331" lon="4.64961">
        <ele>214</ele>
        <time>2017-03-25T09:56:56Z</time>
      </trkpt>
      <trkpt lat="45.87334" lon="4.64954">
        <ele>218</ele>
        <time>2017-03-25T09:56:57Z</time>
      </trkpt>
      <trkpt lat="45.87338" lon="4.64947">
        <ele>217</ele>
        <time>2017-03-25T09:56:58Z</time>
      </trkpt>
      <trkpt lat="45.87341" lon="4.64941">
        <ele>217</ele>
        <time>2017-03-25T09:56:59Z</time>
      </trkpt>
      <trkpt lat="45.87345" lon="4.64935">
        <ele>216</ele>
        <time>2017-03-25T09:57:00Z</time>
      </trkpt>
      <trkpt lat="45.87348" lon="4.64928">
        <ele>216</ele>
        <time>2017-03-25T09:57:01Z</time>
      </trkpt>
      <trkpt lat="45.87352" lon="4.64923">
        <ele>216</ele>
        <time>2017-03-25T09:57:02Z</time>
      </trkpt>
      <trkpt lat="45.87356" lon="4.64918">
        <ele>216</ele>
        <time>2017-03-25T09:57:03Z</time>
      </trkpt>
      <trkpt lat="45.8736" lon="4.64912">
        <ele>214</ele>
        <time>2017-03-25T09:57:04Z</time>
      </trkpt>
      <trkpt lat="45.87364" lon="4.64907">
        <ele>214</ele>
        <time>2017-03-25T09:57:05Z</time>
      </trkpt>
      <trkpt lat="45.87367" lon="4.64902">
        <ele>214</ele>
        <time>2017-03-25T09:57:06Z</time>
      </trkpt>
      <trkpt lat="45.87371" lon="4.64897">
        <ele>215</ele>
        <time>2017-03-25T09:57:07Z</time>
      </trkpt>
      <trkpt lat="45.87374" lon="4.64893">
        <ele>215</ele>
        <time>2017-03-25T09:57:08Z</time>
      </trkpt>
      <trkpt lat="45.87378" lon="4.64888">
        <ele>215</ele>
        <time>2017-03-25T09:57:09Z</time>
      </trkpt>
      <trkpt lat="45.87382" lon="4.64883">
        <ele>215</ele>
        <time>2017-03-25T09:57:10Z</time>
      </trkpt>
      <trkpt lat="45.87386" lon="4.64878">
        <ele>215</ele>
        <time>2017-03-25T09:57:11Z</time>
      </trkpt>
      <trkpt lat="45.87391" lon="4.64873">
        <ele>215</ele>
        <time>2017-03-25T09:57:12Z</time>
      </trkpt>
      <trkpt lat="45.87395" lon="4.64868">
        <ele>215</ele>
        <time>2017-03-25T09:57:13Z</time>
      </trkpt>
      <trkpt lat="45.874" lon="4.64862">
        <ele>215</ele>
        <time>2017-03-25T09:57:14Z</time>
      </trkpt>
      <trkpt lat="45.87405" lon="4.64857">
        <ele>215</ele>
        <time>2017-03-25T09:57:15Z</time>
      </trkpt>
      <trkpt lat="45.87409" lon="4.64852">
        <ele>215</ele>
        <time>2017-03-25T09:57:16Z</time>
      </trkpt>
      <trkpt lat="45.87414" lon="4.64846">
        <ele>215</ele>
        <time>2017-03-25T09:57:17Z</time>
      </trkpt>
      <trkpt lat="45.87418" lon="4.64841">
        <ele>217</ele>
        <time>2017-03-25T09:57:18Z</time>
      </trkpt>
      <trkpt lat="45.87422" lon="4.64836">
        <ele>216</ele>
        <time>2017-03-25T09:57:19Z</time>
      </trkpt>
      <trkpt lat="45.87426" lon="4.64831">
        <ele>215</ele>
        <time>2017-03-25T09:57:20Z</time>
      </trkpt>
      <trkpt lat="45.8743" lon="4.64825">
        <ele>215</ele>
        <time>2017-03-25T09:57:21Z</time>
      </trkpt>
      <trkpt lat="45.87434" lon="4.64821">
        <ele>215</ele>
        <time>2017-03-25T09:57:22Z</time>
      </trkpt>
      <trkpt lat="45.87438" lon="4.64816">
        <ele>215</ele>
        <time>2017-03-25T09:57:23Z</time>
      </trkpt>
      <trkpt lat="45.87441" lon="4.64811">
        <ele>214</ele>
        <time>2017-03-25T09:57:24Z</time>
      </trkpt>
      <trkpt lat="45.87445" lon="4.64806">
        <ele>214</ele>
        <time>2017-03-25T09:57:25Z</time>
      </trkpt>
      <trkpt lat="45.87448" lon="4.64802">
        <ele>214</ele>
        <time>2017-03-25T09:57:26Z</time>
      </trkpt>
      <trkpt lat="45.87452" lon="4.64797">
        <ele>214</ele>
        <time>2017-03-25T09:57:27Z</time>
      </trkpt>
      <trkpt lat="45.87457" lon="4.64792">
        <ele>214</ele>
        <time>2017-03-25T09:57:28Z</time>
      </trkpt>
      <trkpt lat="45.8746" lon="4.64786">
        <ele>214</ele>
        <time>2017-03-25T09:57:29Z</time>
      </trkpt>
      <trkpt lat="45.87463" lon="4.6478">
        <ele>214</ele>
        <time>2017-03-25T09:57:30Z</time>
      </trkpt>
      <trkpt lat="45.87467" lon="4.64774">
        <ele>214</ele>
        <time>2017-03-25T09:57:31Z</time>
      </trkpt>
      <trkpt lat="45.87471" lon="4.64769">
        <ele>214</ele>
        <time>2017-03-25T09:57:32Z</time>
      </trkpt>
      <trkpt lat="45.87475" lon="4.64764">
        <ele>214</ele>
        <time>2017-03-25T09:57:33Z</time>
      </trkpt>
      <trkpt lat="45.8748" lon="4.64759">
        <ele>214</ele>
        <time>2017-03-25T09:57:34Z</time>
      </trkpt>
      <trkpt lat="45.87484" lon="4.64755">
        <ele>214</ele>
        <time>2017-03-25T09:57:35Z</time>
      </trkpt>
      <trkpt lat="45.87488" lon="4.64751">
        <ele>213</ele>
        <time>2017-03-25T09:57:36Z</time>
      </trkpt>
      <trkpt lat="45.87492" lon="4.64747">
        <ele>213</ele>
        <time>2017-03-25T09:57:37Z</time>
      </trkpt>
      <trkpt lat="45.87495" lon="4.64742">
        <ele>213</ele>
        <time>2017-03-25T09:57:38Z</time>
      </trkpt>
      <trkpt lat="45.87498" lon="4.64737">
        <ele>213</ele>
        <time>2017-03-25T09:57:39Z</time>
      </trkpt>
      <trkpt lat="45.87501" lon="4.64732">
        <ele>213</ele>
        <time>2017-03-25T09:57:40Z</time>
      </trkpt>
      <trkpt lat="45.87505" lon="4.64727">
        <ele>213</ele>
        <time>2017-03-25T09:57:41Z</time>
      </trkpt>
      <trkpt lat="45.87508" lon="4.64722">
        <ele>213</ele>
        <time>2017-03-25T09:57:42Z</time>
      </trkpt>
      <trkpt lat="45.87512" lon="4.64717">
        <ele>213</ele>
        <time>2017-03-25T09:57:43Z</time>
      </trkpt>
      <trkpt lat="45.87516" lon="4.64712">
        <ele>212</ele>
        <time>2017-03-25T09:57:44Z</time>
      </trkpt>
      <trkpt lat="45.87519" lon="4.64707">
        <ele>212</ele>
        <time>2017-03-25T09:57:45Z</time>
      </trkpt>
      <trkpt lat="45.87522" lon="4.64703">
        <ele>212</ele>
        <time>2017-03-25T09:57:46Z</time>
      </trkpt>
      <trkpt lat="45.87526" lon="4.64698">
        <ele>212</ele>
        <time>2017-03-25T09:57:47Z</time>
      </trkpt>
      <trkpt lat="45.87529" lon="4.64693">
        <ele>212</ele>
        <time>2017-03-25T09:57:48Z</time>
      </trkpt>
      <trkpt lat="45.87533" lon="4.64688">
        <ele>212</ele>
        <time>2017-03-25T09:57:49Z</time>
      </trkpt>
      <trkpt lat="45.87536" lon="4.64684">
        <ele>212</ele>
        <time>2017-03-25T09:57:50Z</time>
      </trkpt>
      <trkpt lat="45.8754" lon="4.64679">
        <ele>212</ele>
        <time>2017-03-25T09:57:51Z</time>
      </trkpt>
      <trkpt lat="45.87544" lon="4.64674">
        <ele>212</ele>
        <time>2017-03-25T09:57:52Z</time>
      </trkpt>
      <trkpt lat="45.87548" lon="4.64669">
        <ele>212</ele>
        <time>2017-03-25T09:57:53Z</time>
      </trkpt>
      <trkpt lat="45.87551" lon="4.64664">
        <ele>212</ele>
        <time>2017-03-25T09:57:54Z</time>
      </trkpt>
      <trkpt lat="45.87555" lon="4.64659">
        <ele>212</ele>
        <time>2017-03-25T09:57:55Z</time>
      </trkpt>
      <trkpt lat="45.87561" lon="4.64651">
        <ele>212</ele>
        <time>2017-03-25T09:57:57Z</time>
      </trkpt>
      <trkpt lat="45.87564" lon="4.64647">
        <ele>212</ele>
        <time>2017-03-25T09:57:58Z</time>
      </trkpt>
      <trkpt lat="45.87568" lon="4.64643">
        <ele>212</ele>
        <time>2017-03-25T09:57:59Z</time>
      </trkpt>
      <trkpt lat="45.87572" lon="4.64638">
        <ele>212</ele>
        <time>2017-03-25T09:58:00Z</time>
      </trkpt>
      <trkpt lat="45.87577" lon="4.64633">
        <ele>212</ele>
        <time>2017-03-25T09:58:01Z</time>
      </trkpt>
      <trkpt lat="45.87581" lon="4.64628">
        <ele>212</ele>
        <time>2017-03-25T09:58:02Z</time>
      </trkpt>
      <trkpt lat="45.87585" lon="4.64622">
        <ele>212</ele>
        <time>2017-03-25T09:58:03Z</time>
      </trkpt>
      <trkpt lat="45.8759" lon="4.64617">
        <ele>212</ele>
        <time>2017-03-25T09:58:04Z</time>
      </trkpt>
      <trkpt lat="45.87595" lon="4.64611">
        <ele>212</ele>
        <time>2017-03-25T09:58:05Z</time>
      </trkpt>
      <trkpt lat="45.87599" lon="4.64605">
        <ele>212</ele>
        <time>2017-03-25T09:58:06Z</time>
      </trkpt>
      <trkpt lat="45.87604" lon="4.64599">
        <ele>212</ele>
        <time>2017-03-25T09:58:07Z</time>
      </trkpt>
      <trkpt lat="45.87608" lon="4.64594">
        <ele>212</ele>
        <time>2017-03-25T09:58:08Z</time>
      </trkpt>
      <trkpt lat="45.87612" lon="4.64588">
        <ele>212</ele>
        <time>2017-03-25T09:58:09Z</time>
      </trkpt>
      <trkpt lat="45.87617" lon="4.64583">
        <ele>212</ele>
        <time>2017-03-25T09:58:10Z</time>
      </trkpt>
      <trkpt lat="45.87621" lon="4.64578">
        <ele>212</ele>
        <time>2017-03-25T09:58:11Z</time>
      </trkpt>
      <trkpt lat="45.87625" lon="4.64573">
        <ele>212</ele>
        <time>2017-03-25T09:58:12Z</time>
      </trkpt>
      <trkpt lat="45.87629" lon="4.64568">
        <ele>212</ele>
        <time>2017-03-25T09:58:13Z</time>
      </trkpt>
      <trkpt lat="45.87632" lon="4.64563">
        <ele>212</ele>
        <time>2017-03-25T09:58:14Z</time>
      </trkpt>
      <trkpt lat="45.87636" lon="4.64558">
        <ele>212</ele>
        <time>2017-03-25T09:58:15Z</time>
      </trkpt>
      <trkpt lat="45.87639" lon="4.64553">
        <ele>212</ele>
        <time>2017-03-25T09:58:16Z</time>
      </trkpt>
      <trkpt lat="45.87643" lon="4.64549">
        <ele>212</ele>
        <time>2017-03-25T09:58:17Z</time>
      </trkpt>
      <trkpt lat="45.87647" lon="4.64543">
        <ele>213</ele>
        <time>2017-03-25T09:58:18Z</time>
      </trkpt>
      <trkpt lat="45.87651" lon="4.64538">
        <ele>213</ele>
        <time>2017-03-25T09:58:19Z</time>
      </trkpt>
      <trkpt lat="45.87655" lon="4.64533">
        <ele>213</ele>
        <time>2017-03-25T09:58:20Z</time>
      </trkpt>
      <trkpt lat="45.87658" lon="4.64527">
        <ele>213</ele>
        <time>2017-03-25T09:58:21Z</time>
      </trkpt>
      <trkpt lat="45.87662" lon="4.64522">
        <ele>213</ele>
        <time>2017-03-25T09:58:22Z</time>
      </trkpt>
      <trkpt lat="45.87665" lon="4.64518">
        <ele>213</ele>
        <time>2017-03-25T09:58:23Z</time>
      </trkpt>
      <trkpt lat="45.87669" lon="4.64513">
        <ele>215</ele>
        <time>2017-03-25T09:58:24Z</time>
      </trkpt>
      <trkpt lat="45.87675" lon="4.64505">
        <ele>214</ele>
        <time>2017-03-25T09:58:26Z</time>
      </trkpt>
      <trkpt lat="45.87678" lon="4.64502">
        <ele>215</ele>
        <time>2017-03-25T09:58:27Z</time>
      </trkpt>
      <trkpt lat="45.87684" lon="4.64498">
        <ele>214</ele>
        <time>2017-03-25T09:58:29Z</time>
      </trkpt>
      <trkpt lat="45.87687" lon="4.64498">
        <ele>214</ele>
        <time>2017-03-25T09:58:30Z</time>
      </trkpt>
      <trkpt lat="45.87692" lon="4.64505">
        <ele>215</ele>
        <time>2017-03-25T09:58:32Z</time>
      </trkpt>
      <trkpt lat="45.87695" lon="4.64509">
        <ele>215</ele>
        <time>2017-03-25T09:58:33Z</time>
      </trkpt>
      <trkpt lat="45.87699" lon="4.64518">
        <ele>215</ele>
        <time>2017-03-25T09:58:35Z</time>
      </trkpt>
      <trkpt lat="45.87702" lon="4.64522">
        <ele>215</ele>
        <time>2017-03-25T09:58:36Z</time>
      </trkpt>
      <trkpt lat="45.87707" lon="4.64533">
        <ele>216</ele>
        <time>2017-03-25T09:58:38Z</time>
      </trkpt>
      <trkpt lat="45.87709" lon="4.64538">
        <ele>216</ele>
        <time>2017-03-25T09:58:39Z</time>
      </trkpt>
      <trkpt lat="45.87715" lon="4.64547">
        <ele>216</ele>
        <time>2017-03-25T09:58:41Z</time>
      </trkpt>
      <trkpt lat="45.87718" lon="4.64551">
        <ele>216</ele>
        <time>2017-03-25T09:58:42Z</time>
      </trkpt>
      <trkpt lat="45.87721" lon="4.64562">
        <ele>216</ele>
        <time>2017-03-25T09:58:44Z</time>
      </trkpt>
      <trkpt lat="45.87721" lon="4.64568">
        <ele>217</ele>
        <time>2017-03-25T09:58:45Z</time>
      </trkpt>
      <trkpt lat="45.87719" lon="4.6458">
        <ele>217</ele>
        <time>2017-03-25T09:58:47Z</time>
      </trkpt>
      <trkpt lat="45.87719" lon="4.64585">
        <ele>217</ele>
        <time>2017-03-25T09:58:48Z</time>
      </trkpt>
      <trkpt lat="45.8772" lon="4.64597">
        <ele>217</ele>
        <time>2017-03-25T09:58:50Z</time>
      </trkpt>
      <trkpt lat="45.87721" lon="4.64602">
        <ele>217</ele>
        <time>2017-03-25T09:58:51Z</time>
      </trkpt>
      <trkpt lat="45.87722" lon="4.64614">
        <ele>217</ele>
        <time>2017-03-25T09:58:53Z</time>
      </trkpt>
      <trkpt lat="45.87724" lon="4.6462">
        <ele>217</ele>
        <time>2017-03-25T09:58:54Z</time>
      </trkpt>
      <trkpt lat="45.87726" lon="4.64633">
        <ele>217</ele>
        <time>2017-03-25T09:58:56Z</time>
      </trkpt>
      <trkpt lat="45.87726" lon="4.64639">
        <ele>217</ele>
        <time>2017-03-25T09:58:57Z</time>
      </trkpt>
      <trkpt lat="45.87726" lon="4.64651">
        <ele>217</ele>
        <time>2017-03-25T09:58:59Z</time>
      </trkpt>
      <trkpt lat="45.87724" lon="4.64657">
        <ele>217</ele>
        <time>2017-03-25T09:59:00Z</time>
      </trkpt>
      <trkpt lat="45.87722" lon="4.64669">
        <ele>216</ele>
        <time>2017-03-25T09:59:02Z</time>
      </trkpt>
      <trkpt lat="45.87721" lon="4.64676">
        <ele>216</ele>
        <time>2017-03-25T09:59:03Z</time>
      </trkpt>
      <trkpt lat="45.8772" lon="4.64688">
        <ele>216</ele>
        <time>2017-03-25T09:59:05Z</time>
      </trkpt>
      <trkpt lat="45.8772" lon="4.64695">
        <ele>215</ele>
        <time>2017-03-25T09:59:06Z</time>
      </trkpt>
      <trkpt lat="45.87719" lon="4.64708">
        <ele>215</ele>
        <time>2017-03-25T09:59:08Z</time>
      </trkpt>
      <trkpt lat="45.8772" lon="4.64715">
        <ele>215</ele>
        <time>2017-03-25T09:59:09Z</time>
      </trkpt>
      <trkpt lat="45.87722" lon="4.64727">
        <ele>215</ele>
        <time>2017-03-25T09:59:11Z</time>
      </trkpt>
      <trkpt lat="45.87723" lon="4.64733">
        <ele>214</ele>
        <time>2017-03-25T09:59:12Z</time>
      </trkpt>
      <trkpt lat="45.87726" lon="4.64745">
        <ele>214</ele>
        <time>2017-03-25T09:59:14Z</time>
      </trkpt>
      <trkpt lat="45.87727" lon="4.64751">
        <ele>213</ele>
        <time>2017-03-25T09:59:15Z</time>
      </trkpt>
      <trkpt lat="45.8773" lon="4.64763">
        <ele>213</ele>
        <time>2017-03-25T09:59:17Z</time>
      </trkpt>
      <trkpt lat="45.87732" lon="4.64768">
        <ele>213</ele>
        <time>2017-03-25T09:59:18Z</time>
      </trkpt>
      <trkpt lat="45.87735" lon="4.64779">
        <ele>213</ele>
        <time>2017-03-25T09:59:20Z</time>
      </trkpt>
      <trkpt lat="45.87737" lon="4.64784">
        <ele>213</ele>
        <time>2017-03-25T09:59:21Z</time>
      </trkpt>
      <trkpt lat="45.87742" lon="4.64793">
        <ele>214</ele>
        <time>2017-03-25T09:59:23Z</time>
      </trkpt>
      <trkpt lat="45.87744" lon="4.64797">
        <ele>214</ele>
        <time>2017-03-25T09:59:24Z</time>
      </trkpt>
      <trkpt lat="45.87747" lon="4.64805">
        <ele>214</ele>
        <time>2017-03-25T09:59:26Z</time>
      </trkpt>
      <trkpt lat="45.87749" lon="4.64809">
        <ele>214</ele>
        <time>2017-03-25T09:59:27Z</time>
      </trkpt>
      <trkpt lat="45.87754" lon="4.64816">
        <ele>214</ele>
        <time>2017-03-25T09:59:29Z</time>
      </trkpt>
      <trkpt lat="45.87755" lon="4.6482">
        <ele>214</ele>
        <time>2017-03-25T09:59:30Z</time>
      </trkpt>
      <trkpt lat="45.87759" lon="4.64827">
        <ele>214</ele>
        <time>2017-03-25T09:59:32Z</time>
      </trkpt>
      <trkpt lat="45.87761" lon="4.64831">
        <ele>214</ele>
        <time>2017-03-25T09:59:33Z</time>
      </trkpt>
      <trkpt lat="45.87766" lon="4.64837">
        <ele>216</ele>
        <time>2017-03-25T09:59:35Z</time>
      </trkpt>
      <trkpt lat="45.87768" lon="4.6484">
        <ele>216</ele>
        <time>2017-03-25T09:59:36Z</time>
      </trkpt>
      <trkpt lat="45.87772" lon="4.64846">
        <ele>217</ele>
        <time>2017-03-25T09:59:38Z</time>
      </trkpt>
      <trkpt lat="45.87774" lon="4.6485">
        <ele>217</ele>
        <time>2017-03-25T09:59:39Z</time>
      </trkpt>
      <trkpt lat="45.8778" lon="4.64859">
        <ele>218</ele>
        <time>2017-03-25T09:59:42Z</time>
      </trkpt>
      <trkpt lat="45.87782" lon="4.64862">
        <ele>218</ele>
        <time>2017-03-25T09:59:43Z</time>
      </trkpt>
      <trkpt lat="45.87787" lon="4.6487">
        <ele>218</ele>
        <time>2017-03-25T09:59:46Z</time>
      </trkpt>
      <trkpt lat="45.87788" lon="4.64872">
        <ele>218</ele>
        <time>2017-03-25T09:59:47Z</time>
      </trkpt>
      <trkpt lat="45.87793" lon="4.64884">
        <ele>219</ele>
        <time>2017-03-25T09:59:51Z</time>
      </trkpt>
      <trkpt lat="45.87793" lon="4.64886">
        <ele>219</ele>
        <time>2017-03-25T09:59:52Z</time>
      </trkpt>
      <trkpt lat="45.87797" lon="4.64894">
        <ele>219</ele>
        <time>2017-03-25T09:59:55Z</time>
      </trkpt>
      <trkpt lat="45.87799" lon="4.64897">
        <ele>219</ele>
        <time>2017-03-25T09:59:56Z</time>
      </trkpt>
      <trkpt lat="45.87804" lon="4.64907">
        <ele>220</ele>
        <time>2017-03-25T10:00:00Z</time>
      </trkpt>
      <trkpt lat="45.87805" lon="4.6491">
        <ele>220</ele>
        <time>2017-03-25T10:00:01Z</time>
      </trkpt>
      <trkpt lat="45.87809" lon="4.64921">
        <ele>224</ele>
        <time>2017-03-25T10:00:05Z</time>
      </trkpt>
      <trkpt lat="45.8781" lon="4.64924">
        <ele>224</ele>
        <time>2017-03-25T10:00:06Z</time>
      </trkpt>
      <trkpt lat="45.87815" lon="4.64934">
        <ele>225</ele>
        <time>2017-03-25T10:00:10Z</time>
      </trkpt>
      <trkpt lat="45.87816" lon="4.64936">
        <ele>225</ele>
        <time>2017-03-25T10:00:11Z</time>
      </trkpt>
      <trkpt lat="45.87821" lon="4.64945">
        <ele>225</ele>
        <time>2017-03-25T10:00:15Z</time>
      </trkpt>
      <trkpt lat="45.87822" lon="4.64946">
        <ele>225</ele>
        <time>2017-03-25T10:00:16Z</time>
      </trkpt>
      <trkpt lat="45.87829" lon="4.64952">
        <ele>226</ele>
        <time>2017-03-25T10:00:20Z</time>
      </trkpt>
      <trkpt lat="45.87831" lon="4.64953">
        <ele>226</ele>
        <time>2017-03-25T10:00:21Z</time>
      </trkpt>
      <trkpt lat="45.87837" lon="4.6496">
        <ele>228</ele>
        <time>2017-03-25T10:00:26Z</time>
      </trkpt>
      <trkpt lat="45.87839" lon="4.64961">
        <ele>228</ele>
        <time>2017-03-25T10:00:27Z</time>
      </trkpt>
      <trkpt lat="45.87845" lon="4.64966">
        <ele>229</ele>
        <time>2017-03-25T10:00:31Z</time>
      </trkpt>
      <trkpt lat="45.87847" lon="4.64966">
        <ele>229</ele>
        <time>2017-03-25T10:00:32Z</time>
      </trkpt>
      <trkpt lat="45.87853" lon="4.64969">
        <ele>229</ele>
        <time>2017-03-25T10:00:35Z</time>
      </trkpt>
      <trkpt lat="45.87856" lon="4.6497">
        <ele>229</ele>
        <time>2017-03-25T10:00:36Z</time>
      </trkpt>
      <trkpt lat="45.87862" lon="4.64972">
        <ele>229</ele>
        <time>2017-03-25T10:00:39Z</time>
      </trkpt>
      <trkpt lat="45.87865" lon="4.64973">
        <ele>229</ele>
        <time>2017-03-25T10:00:40Z</time>
      </trkpt>
      <trkpt lat="45.87873" lon="4.64975">
        <ele>230</ele>
        <time>2017-03-25T10:00:44Z</time>
      </trkpt>
      <trkpt lat="45.87875" lon="4.64975">
        <ele>230</ele>
        <time>2017-03-25T10:00:45Z</time>
      </trkpt>
      <trkpt lat="45.87882" lon="4.64981">
        <ele>231</ele>
        <time>2017-03-25T10:00:49Z</time>
      </trkpt>
      <trkpt lat="45.87885" lon="4.64981">
        <ele>231</ele>
        <time>2017-03-25T10:00:50Z</time>
      </trkpt>
      <trkpt lat="45.87893" lon="4.64982">
        <ele>231</ele>
        <time>2017-03-25T10:00:54Z</time>
      </trkpt>
      <trkpt lat="45.87895" lon="4.64982">
        <ele>232</ele>
        <time>2017-03-25T10:00:55Z</time>
      </trkpt>
      <trkpt lat="45.87903" lon="4.64982">
        <ele>232</ele>
        <time>2017-03-25T10:00:59Z</time>
      </trkpt>
      <trkpt lat="45.87905" lon="4.64982">
        <ele>232</ele>
        <time>2017-03-25T10:01:00Z</time>
      </trkpt>
      <trkpt lat="45.87913" lon="4.6498">
        <ele>233</ele>
        <time>2017-03-25T10:01:04Z</time>
      </trkpt>
      <trkpt lat="45.87915" lon="4.6498">
        <ele>233</ele>
        <time>2017-03-25T10:01:05Z</time>
      </trkpt>
      <trkpt lat="45.87921" lon="4.6498">
        <ele>237</ele>
        <time>2017-03-25T10:01:08Z</time>
      </trkpt>
      <trkpt lat="45.87924" lon="4.6498">
        <ele>237</ele>
        <time>2017-03-25T10:01:09Z</time>
      </trkpt>
      <trkpt lat="45.87932" lon="4.64977">
        <ele>237</ele>
        <time>2017-03-25T10:01:13Z</time>
      </trkpt>
      <trkpt lat="45.87934" lon="4.64976">
        <ele>237</ele>
        <time>2017-03-25T10:01:14Z</time>
      </trkpt>
      <trkpt lat="45.87942" lon="4.64973">
        <ele>237</ele>
        <time>2017-03-25T10:01:18Z</time>
      </trkpt>
      <trkpt lat="45.87944" lon="4.64972">
        <ele>237</ele>
        <time>2017-03-25T10:01:19Z</time>
      </trkpt>
      <trkpt lat="45.87952" lon="4.64967">
        <ele>237</ele>
        <time>2017-03-25T10:01:23Z</time>
      </trkpt>
      <trkpt lat="45.87954" lon="4.64966">
        <ele>237</ele>
        <time>2017-03-25T10:01:24Z</time>
      </trkpt>
      <trkpt lat="45.87961" lon="4.6496">
        <ele>237</ele>
        <time>2017-03-25T10:01:28Z</time>
      </trkpt>
      <trkpt lat="45.87962" lon="4.64959">
        <ele>237</ele>
        <time>2017-03-25T10:01:29Z</time>
      </trkpt>
      <trkpt lat="45.87969" lon="4.64953">
        <ele>237</ele>
        <time>2017-03-25T10:01:33Z</time>
      </trkpt>
      <trkpt lat="45.87971" lon="4.64951">
        <ele>237</ele>
        <time>2017-03-25T10:01:34Z</time>
      </trkpt>
      <trkpt lat="45.87977" lon="4.64943">
        <ele>237</ele>
        <time>2017-03-25T10:01:38Z</time>
      </trkpt>
      <trkpt lat="45.8798" lon="4.64941">
        <ele>237</ele>
        <time>2017-03-25T10:01:39Z</time>
      </trkpt>
      <trkpt lat="45.87987" lon="4.64936">
        <ele>237</ele>
        <time>2017-03-25T10:01:43Z</time>
      </trkpt>
      <trkpt lat="45.87989" lon="4.64935">
        <ele>236</ele>
        <time>2017-03-25T10:01:44Z</time>
      </trkpt>
      <trkpt lat="45.87996" lon="4.6493">
        <ele>236</ele>
        <time>2017-03-25T10:01:48Z</time>
      </trkpt>
      <trkpt lat="45.87997" lon="4.64928">
        <ele>236</ele>
        <time>2017-03-25T10:01:49Z</time>
      </trkpt>
      <trkpt lat="45.88003" lon="4.6492">
        <ele>238</ele>
        <time>2017-03-25T10:01:53Z</time>
      </trkpt>
      <trkpt lat="45.88005" lon="4.64919">
        <ele>239</ele>
        <time>2017-03-25T10:01:54Z</time>
      </trkpt>
      <trkpt lat="45.88013" lon="4.64915">
        <ele>236</ele>
        <time>2017-03-25T10:01:58Z</time>
      </trkpt>
      <trkpt lat="45.88015" lon="4.64914">
        <ele>237</ele>
        <time>2017-03-25T10:01:59Z</time>
      </trkpt>
      <trkpt lat="45.88021" lon="4.64907">
        <ele>237</ele>
        <time>2017-03-25T10:02:03Z</time>
      </trkpt>
      <trkpt lat="45.88022" lon="4.64905">
        <ele>237</ele>
        <time>2017-03-25T10:02:04Z</time>
      </trkpt>
      <trkpt lat="45.88029" lon="4.64898">
        <ele>238</ele>
        <time>2017-03-25T10:02:08Z</time>
      </trkpt>
      <trkpt lat="45.88031" lon="4.64897">
        <ele>238</ele>
        <time>2017-03-25T10:02:09Z</time>
      </trkpt>
      <trkpt lat="45.88037" lon="4.64892">
        <ele>238</ele>
        <time>2017-03-25T10:02:12Z</time>
      </trkpt>
      <trkpt lat="45.88038" lon="4.6489">
        <ele>238</ele>
        <time>2017-03-25T10:02:13Z</time>
      </trkpt>
      <trkpt lat="45.88044" lon="4.64884">
        <ele>239</ele>
        <time>2017-03-25T10:02:16Z</time>
      </trkpt>
      <trkpt lat="45.88046" lon="4.64882">
        <ele>239</ele>
        <time>2017-03-25T10:02:17Z</time>
      </trkpt>
      <trkpt lat="45.88053" lon="4.64878">
        <ele>239</ele>
        <time>2017-03-25T10:02:21Z</time>
      </trkpt>
      <trkpt lat="45.88055" lon="4.64877">
        <ele>239</ele>
        <time>2017-03-25T10:02:22Z</time>
      </trkpt>
      <trkpt lat="45.88062" lon="4.64872">
        <ele>239</ele>
        <time>2017-03-25T10:02:26Z</time>
      </trkpt>
      <trkpt lat="45.88063" lon="4.64871">
        <ele>239</ele>
        <time>2017-03-25T10:02:27Z</time>
      </trkpt>
      <trkpt lat="45.88072" lon="4.64866">
        <ele>239</ele>
        <time>2017-03-25T10:02:32Z</time>
      </trkpt>
      <trkpt lat="45.88073" lon="4.64866">
        <ele>239</ele>
        <time>2017-03-25T10:02:33Z</time>
      </trkpt>
      <trkpt lat="45.88081" lon="4.64862">
        <ele>239</ele>
        <time>2017-03-25T10:02:38Z</time>
      </trkpt>
      <trkpt lat="45.88083" lon="4.64861">
        <ele>239</ele>
        <time>2017-03-25T10:02:39Z</time>
      </trkpt>
      <trkpt lat="45.88091" lon="4.64856">
        <ele>245</ele>
        <time>2017-03-25T10:02:43Z</time>
      </trkpt>
      <trkpt lat="45.88093" lon="4.64856">
        <ele>245</ele>
        <time>2017-03-25T10:02:44Z</time>
      </trkpt>
      <trkpt lat="45.88101" lon="4.64853">
        <ele>245</ele>
        <time>2017-03-25T10:02:48Z</time>
      </trkpt>
      <trkpt lat="45.88103" lon="4.64852">
        <ele>245</ele>
        <time>2017-03-25T10:02:49Z</time>
      </trkpt>
      <trkpt lat="45.88111" lon="4.64851">
        <ele>246</ele>
        <time>2017-03-25T10:02:53Z</time>
      </trkpt>
      <trkpt lat="45.88113" lon="4.64851">
        <ele>246</ele>
        <time>2017-03-25T10:02:54Z</time>
      </trkpt>
      <trkpt lat="45.88121" lon="4.64849">
        <ele>247</ele>
        <time>2017-03-25T10:02:58Z</time>
      </trkpt>
      <trkpt lat="45.88123" lon="4.64848">
        <ele>247</ele>
        <time>2017-03-25T10:02:59Z</time>
      </trkpt>
      <trkpt lat="45.88131" lon="4.64845">
        <ele>247</ele>
        <time>2017-03-25T10:03:03Z</time>
      </trkpt>
      <trkpt lat="45.88133" lon="4.64844">
        <ele>247</ele>
        <time>2017-03-25T10:03:04Z</time>
      </trkpt>
      <trkpt lat="45.8814" lon="4.64843">
        <ele>247</ele>
        <time>2017-03-25T10:03:07Z</time>
      </trkpt>
      <trkpt lat="45.88142" lon="4.64842">
        <ele>247</ele>
        <time>2017-03-25T10:03:08Z</time>
      </trkpt>
      <trkpt lat="45.88151" lon="4.6484">
        <ele>247</ele>
        <time>2017-03-25T10:03:11Z</time>
      </trkpt>
      <trkpt lat="45.88153" lon="4.64839">
        <ele>247</ele>
        <time>2017-03-25T10:03:12Z</time>
      </trkpt>
      <trkpt lat="45.88161" lon="4.64837">
        <ele>246</ele>
        <time>2017-03-25T10:03:16Z</time>
      </trkpt>
      <trkpt lat="45.88163" lon="4.64837">
        <ele>246</ele>
        <time>2017-03-25T10:03:17Z</time>
      </trkpt>
      <trkpt lat="45.8817" lon="4.64835">
        <ele>247</ele>
        <time>2017-03-25T10:03:20Z</time>
      </trkpt>
      <trkpt lat="45.88172" lon="4.64834">
        <ele>248</ele>
        <time>2017-03-25T10:03:21Z</time>
      </trkpt>
      <trkpt lat="45.88179" lon="4.64832">
        <ele>245</ele>
        <time>2017-03-25T10:03:25Z</time>
      </trkpt>
      <trkpt lat="45.88181" lon="4.64831">
        <ele>245</ele>
        <time>2017-03-25T10:03:26Z</time>
      </trkpt>
      <trkpt lat="45.88189" lon="4.64829">
        <ele>245</ele>
        <time>2017-03-25T10:03:29Z</time>
      </trkpt>
      <trkpt lat="45.88191" lon="4.64829">
        <ele>245</ele>
        <time>2017-03-25T10:03:30Z</time>
      </trkpt>
      <trkpt lat="45.88199" lon="4.64827">
        <ele>245</ele>
        <time>2017-03-25T10:03:33Z</time>
      </trkpt>
      <trkpt lat="45.88201" lon="4.64827">
        <ele>245</ele>
        <time>2017-03-25T10:03:34Z</time>
      </trkpt>
      <trkpt lat="45.88209" lon="4.64827">
        <ele>246</ele>
        <time>2017-03-25T10:03:38Z</time>
      </trkpt>
      <trkpt lat="45.88211" lon="4.64826">
        <ele>246</ele>
        <time>2017-03-25T10:03:39Z</time>
      </trkpt>
      <trkpt lat="45.8822" lon="4.64824">
        <ele>247</ele>
        <time>2017-03-25T10:03:43Z</time>
      </trkpt>
      <trkpt lat="45.88222" lon="4.64823">
        <ele>247</ele>
        <time>2017-03-25T10:03:44Z</time>
      </trkpt>
      <trkpt lat="45.8823" lon="4.64821">
        <ele>249</ele>
        <time>2017-03-25T10:03:48Z</time>
      </trkpt>
      <trkpt lat="45.88232" lon="4.6482">
        <ele>249</ele>
        <time>2017-03-25T10:03:49Z</time>
      </trkpt>
      <trkpt lat="45.88239" lon="4.64816">
        <ele>249</ele>
        <time>2017-03-25T10:03:53Z</time>
      </trkpt>
      <trkpt lat="45.88241" lon="4.64816">
        <ele>250</ele>
        <time>2017-03-25T10:03:54Z</time>
      </trkpt>
      <trkpt lat="45.88248" lon="4.64815">
        <ele>250</ele>
        <time>2017-03-25T10:03:58Z</time>
      </trkpt>
      <trkpt lat="45.8825" lon="4.64815">
        <ele>257</ele>
        <time>2017-03-25T10:03:59Z</time>
      </trkpt>
      <trkpt lat="45.88258" lon="4.64813">
        <ele>257</ele>
        <time>2017-03-25T10:04:03Z</time>
      </trkpt>
      <trkpt lat="45.88261" lon="4.64812">
        <ele>257</ele>
        <time>2017-03-25T10:04:04Z</time>
      </trkpt>
      <trkpt lat="45.88269" lon="4.64809">
        <ele>257</ele>
        <time>2017-03-25T10:04:08Z</time>
      </trkpt>
      <trkpt lat="45.88271" lon="4.64808">
        <ele>257</ele>
        <time>2017-03-25T10:04:09Z</time>
      </trkpt>
      <trkpt lat="45.88278" lon="4.64807">
        <ele>257</ele>
        <time>2017-03-25T10:04:12Z</time>
      </trkpt>
      <trkpt lat="45.8828" lon="4.64807">
        <ele>258</ele>
        <time>2017-03-25T10:04:13Z</time>
      </trkpt>
      <trkpt lat="45.88288" lon="4.64806">
        <ele>258</ele>
        <time>2017-03-25T10:04:16Z</time>
      </trkpt>
      <trkpt lat="45.88291" lon="4.64806">
        <ele>258</ele>
        <time>2017-03-25T10:04:17Z</time>
      </trkpt>
      <trkpt lat="45.88298" lon="4.64802">
        <ele>259</ele>
        <time>2017-03-25T10:04:20Z</time>
      </trkpt>
      <trkpt lat="45.883" lon="4.64802">
        <ele>259</ele>
        <time>2017-03-25T10:04:21Z</time>
      </trkpt>
      <trkpt lat="45.88309" lon="4.648">
        <ele>260</ele>
        <time>2017-03-25T10:04:25Z</time>
      </trkpt>
      <trkpt lat="45.88311" lon="4.64798">
        <ele>260</ele>
        <time>2017-03-25T10:04:26Z</time>
      </trkpt>
      <trkpt lat="45.88318" lon="4.64795">
        <ele>260</ele>
        <time>2017-03-25T10:04:30Z</time>
      </trkpt>
      <trkpt lat="45.8832" lon="4.64795">
        <ele>260</ele>
        <time>2017-03-25T10:04:31Z</time>
      </trkpt>
      <trkpt lat="45.88329" lon="4.64794">
        <ele>260</ele>
        <time>2017-03-25T10:04:35Z</time>
      </trkpt>
      <trkpt lat="45.88331" lon="4.64794">
        <ele>260</ele>
        <time>2017-03-25T10:04:36Z</time>
      </trkpt>
      <trkpt lat="45.88338" lon="4.6479">
        <ele>266</ele>
        <time>2017-03-25T10:04:40Z</time>
      </trkpt>
      <trkpt lat="45.8834" lon="4.6479">
        <ele>266</ele>
        <time>2017-03-25T10:04:41Z</time>
      </trkpt>
      <trkpt lat="45.88347" lon="4.64787">
        <ele>266</ele>
        <time>2017-03-25T10:04:44Z</time>
      </trkpt>
      <trkpt lat="45.8835" lon="4.64787">
        <ele>266</ele>
        <time>2017-03-25T10:04:45Z</time>
      </trkpt>
      <trkpt lat="45.88358" lon="4.64787">
        <ele>266</ele>
        <time>2017-03-25T10:04:48Z</time>
      </trkpt>
      <trkpt lat="45.8836" lon="4.64786">
        <ele>266</ele>
        <time>2017-03-25T10:04:49Z</time>
      </trkpt>
      <trkpt lat="45.88367" lon="4.64783">
        <ele>266</ele>
        <time>2017-03-25T10:04:52Z</time>
      </trkpt>
      <trkpt lat="45.88369" lon="4.64783">
        <ele>266</ele>
        <time>2017-03-25T10:04:53Z</time>
      </trkpt>
      <trkpt lat="45.88376" lon="4.64782">
        <ele>267</ele>
        <time>2017-03-25T10:04:57Z</time>
      </trkpt>
      <trkpt lat="45.88378" lon="4.64782">
        <ele>267</ele>
        <time>2017-03-25T10:04:58Z</time>
      </trkpt>
      <trkpt lat="45.88387" lon="4.64782">
        <ele>267</ele>
        <time>2017-03-25T10:05:02Z</time>
      </trkpt>
      <trkpt lat="45.88388" lon="4.64782">
        <ele>267</ele>
        <time>2017-03-25T10:05:03Z</time>
      </trkpt>
      <trkpt lat="45.88396" lon="4.6478">
        <ele>267</ele>
        <time>2017-03-25T10:05:07Z</time>
      </trkpt>
      <trkpt lat="45.88398" lon="4.64781">
        <ele>267</ele>
        <time>2017-03-25T10:05:08Z</time>
      </trkpt>
      <trkpt lat="45.88407" lon="4.64782">
        <ele>267</ele>
        <time>2017-03-25T10:05:12Z</time>
      </trkpt>
      <trkpt lat="45.88409" lon="4.64781">
        <ele>267</ele>
        <time>2017-03-25T10:05:13Z</time>
      </trkpt>
      <trkpt lat="45.88416" lon="4.64777">
        <ele>267</ele>
        <time>2017-03-25T10:05:16Z</time>
      </trkpt>
      <trkpt lat="45.88419" lon="4.64776">
        <ele>269</ele>
        <time>2017-03-25T10:05:17Z</time>
      </trkpt>
      <trkpt lat="45.88427" lon="4.64775">
        <ele>269</ele>
        <time>2017-03-25T10:05:21Z</time>
      </trkpt>
      <trkpt lat="45.88429" lon="4.64776">
        <ele>270</ele>
        <time>2017-03-25T10:05:22Z</time>
      </trkpt>
      <trkpt lat="45.88436" lon="4.64774">
        <ele>270</ele>
        <time>2017-03-25T10:05:26Z</time>
      </trkpt>
      <trkpt lat="45.88438" lon="4.64773">
        <ele>270</ele>
        <time>2017-03-25T10:05:27Z</time>
      </trkpt>
      <trkpt lat="45.88446" lon="4.64773">
        <ele>270</ele>
        <time>2017-03-25T10:05:31Z</time>
      </trkpt>
      <trkpt lat="45.88448" lon="4.64773">
        <ele>270</ele>
        <time>2017-03-25T10:05:32Z</time>
      </trkpt>
      <trkpt lat="45.88457" lon="4.64774">
        <ele>271</ele>
        <time>2017-03-25T10:05:36Z</time>
      </trkpt>
      <trkpt lat="45.88459" lon="4.64774">
        <ele>271</ele>
        <time>2017-03-25T10:05:37Z</time>
      </trkpt>
      <trkpt lat="45.88466" lon="4.64773">
        <ele>271</ele>
        <time>2017-03-25T10:05:40Z</time>
      </trkpt>
      <trkpt lat="45.88468" lon="4.64773">
        <ele>271</ele>
        <time>2017-03-25T10:05:41Z</time>
      </trkpt>
      <trkpt lat="45.88476" lon="4.64774">
        <ele>271</ele>
        <time>2017-03-25T10:05:44Z</time>
      </trkpt>
      <trkpt lat="45.88479" lon="4.64775">
        <ele>271</ele>
        <time>2017-03-25T10:05:45Z</time>
      </trkpt>
      <trkpt lat="45.88488" lon="4.64773">
        <ele>271</ele>
        <time>2017-03-25T10:05:49Z</time>
      </trkpt>
      <trkpt lat="45.8849" lon="4.64772">
        <ele>271</ele>
        <time>2017-03-25T10:05:50Z</time>
      </trkpt>
      <trkpt lat="45.88499" lon="4.64772">
        <ele>270</ele>
        <time>2017-03-25T10:05:54Z</time>
      </trkpt>
      <trkpt lat="45.88501" lon="4.64772">
        <ele>270</ele>
        <time>2017-03-25T10:05:55Z</time>
      </trkpt>
      <trkpt lat="45.88509" lon="4.6477">
        <ele>270</ele>
        <time>2017-03-25T10:05:59Z</time>
      </trkpt>
      <trkpt lat="45.88511" lon="4.6477">
        <ele>270</ele>
        <time>2017-03-25T10:06:00Z</time>
      </trkpt>
      <trkpt lat="45.88518" lon="4.64771">
        <ele>271</ele>
        <time>2017-03-25T10:06:03Z</time>
      </trkpt>
      <trkpt lat="45.8852" lon="4.64772">
        <ele>271</ele>
        <time>2017-03-25T10:06:04Z</time>
      </trkpt>
      <trkpt lat="45.88526" lon="4.64776">
        <ele>271</ele>
        <time>2017-03-25T10:06:07Z</time>
      </trkpt>
      <trkpt lat="45.88528" lon="4.64778">
        <ele>271</ele>
        <time>2017-03-25T10:06:08Z</time>
      </trkpt>
      <trkpt lat="45.88535" lon="4.64783">
        <ele>271</ele>
        <time>2017-03-25T10:06:11Z</time>
      </trkpt>
      <trkpt lat="45.88536" lon="4.64786">
        <ele>272</ele>
        <time>2017-03-25T10:06:12Z</time>
      </trkpt>
      <trkpt lat="45.88542" lon="4.64794">
        <ele>272</ele>
        <time>2017-03-25T10:06:16Z</time>
      </trkpt>
      <trkpt lat="45.88544" lon="4.64796">
        <ele>272</ele>
        <time>2017-03-25T10:06:17Z</time>
      </trkpt>
      <trkpt lat="45.88546" lon="4.64807">
        <ele>272</ele>
        <time>2017-03-25T10:06:21Z</time>
      </trkpt>
      <trkpt lat="45.88546" lon="4.6481">
        <ele>273</ele>
        <time>2017-03-25T10:06:22Z</time>
      </trkpt>
      <trkpt lat="45.88546" lon="4.64819">
        <ele>273</ele>
        <time>2017-03-25T10:06:25Z</time>
      </trkpt>
      <trkpt lat="45.88546" lon="4.64823">
        <ele>273</ele>
        <time>2017-03-25T10:06:26Z</time>
      </trkpt>
      <trkpt lat="45.88547" lon="4.64832">
        <ele>273</ele>
        <time>2017-03-25T10:06:29Z</time>
      </trkpt>
      <trkpt lat="45.88546" lon="4.64836">
        <ele>277</ele>
        <time>2017-03-25T10:06:30Z</time>
      </trkpt>
      <trkpt lat="45.88545" lon="4.64846">
        <ele>277</ele>
        <time>2017-03-25T10:06:33Z</time>
      </trkpt>
      <trkpt lat="45.88544" lon="4.64849">
        <ele>277</ele>
        <time>2017-03-25T10:06:34Z</time>
      </trkpt>
      <trkpt lat="45.88543" lon="4.64859">
        <ele>277</ele>
        <time>2017-03-25T10:06:37Z</time>
      </trkpt>
      <trkpt lat="45.88543" lon="4.64863">
        <ele>277</ele>
        <time>2017-03-25T10:06:38Z</time>
      </trkpt>
      <trkpt lat="45.88542" lon="4.64872">
        <ele>277</ele>
        <time>2017-03-25T10:06:41Z</time>
      </trkpt>
      <trkpt lat="45.88542" lon="4.64876">
        <ele>277</ele>
        <time>2017-03-25T10:06:42Z</time>
      </trkpt>
      <trkpt lat="45.88541" lon="4.64886">
        <ele>277</ele>
        <time>2017-03-25T10:06:45Z</time>
      </trkpt>
      <trkpt lat="45.88541" lon="4.64889">
        <ele>277</ele>
        <time>2017-03-25T10:06:46Z</time>
      </trkpt>
      <trkpt lat="45.8854" lon="4.64899">
        <ele>278</ele>
        <time>2017-03-25T10:06:49Z</time>
      </trkpt>
      <trkpt lat="45.88539" lon="4.64902">
        <ele>278</ele>
        <time>2017-03-25T10:06:50Z</time>
      </trkpt>
      <trkpt lat="45.88534" lon="4.64912">
        <ele>279</ele>
        <time>2017-03-25T10:06:54Z</time>
      </trkpt>
      <trkpt lat="45.88534" lon="4.64915">
        <ele>279</ele>
        <time>2017-03-25T10:06:55Z</time>
      </trkpt>
      <trkpt lat="45.88532" lon="4.64925">
        <ele>281</ele>
        <time>2017-03-25T10:06:58Z</time>
      </trkpt>
      <trkpt lat="45.88532" lon="4.64928">
        <ele>281</ele>
        <time>2017-03-25T10:06:59Z</time>
      </trkpt>
      <trkpt lat="45.88531" lon="4.64938">
        <ele>281</ele>
        <time>2017-03-25T10:07:02Z</time>
      </trkpt>
      <trkpt lat="45.88531" lon="4.64941">
        <ele>281</ele>
        <time>2017-03-25T10:07:03Z</time>
      </trkpt>
      <trkpt lat="45.88529" lon="4.64953">
        <ele>281</ele>
        <time>2017-03-25T10:07:07Z</time>
      </trkpt>
      <trkpt lat="45.88528" lon="4.64956">
        <ele>281</ele>
        <time>2017-03-25T10:07:08Z</time>
      </trkpt>
      <trkpt lat="45.88527" lon="4.64965">
        <ele>282</ele>
        <time>2017-03-25T10:07:11Z</time>
      </trkpt>
      <trkpt lat="45.88526" lon="4.64969">
        <ele>282</ele>
        <time>2017-03-25T10:07:12Z</time>
      </trkpt>
      <trkpt lat="45.88524" lon="4.6498">
        <ele>283</ele>
        <time>2017-03-25T10:07:16Z</time>
      </trkpt>
      <trkpt lat="45.88523" lon="4.64983">
        <ele>283</ele>
        <time>2017-03-25T10:07:17Z</time>
      </trkpt>
      <trkpt lat="45.88523" lon="4.64995">
        <ele>284</ele>
        <time>2017-03-25T10:07:21Z</time>
      </trkpt>
      <trkpt lat="45.88523" lon="4.64999">
        <ele>284</ele>
        <time>2017-03-25T10:07:22Z</time>
      </trkpt>
      <trkpt lat="45.88521" lon="4.65008">
        <ele>286</ele>
        <time>2017-03-25T10:07:25Z</time>
      </trkpt>
      <trkpt lat="45.8852" lon="4.65012">
        <ele>286</ele>
        <time>2017-03-25T10:07:26Z</time>
      </trkpt>
      <trkpt lat="45.88518" lon="4.65023">
        <ele>285</ele>
        <time>2017-03-25T10:07:30Z</time>
      </trkpt>
      <trkpt lat="45.88517" lon="4.65025">
        <ele>285</ele>
        <time>2017-03-25T10:07:31Z</time>
      </trkpt>
      <trkpt lat="45.88514" lon="4.65036">
        <ele>285</ele>
        <time>2017-03-25T10:07:35Z</time>
      </trkpt>
      <trkpt lat="45.88513" lon="4.65039">
        <ele>285</ele>
        <time>2017-03-25T10:07:36Z</time>
      </trkpt>
      <trkpt lat="45.88511" lon="4.65048">
        <ele>286</ele>
        <time>2017-03-25T10:07:39Z</time>
      </trkpt>
      <trkpt lat="45.8851" lon="4.65051">
        <ele>286</ele>
        <time>2017-03-25T10:07:40Z</time>
      </trkpt>
      <trkpt lat="45.88506" lon="4.65061">
        <ele>287</ele>
        <time>2017-03-25T10:07:44Z</time>
      </trkpt>
      <trkpt lat="45.88504" lon="4.65063">
        <ele>287</ele>
        <time>2017-03-25T10:07:45Z</time>
      </trkpt>
      <trkpt lat="45.88502" lon="4.65074">
        <ele>288</ele>
        <time>2017-03-25T10:07:49Z</time>
      </trkpt>
      <trkpt lat="45.88501" lon="4.65077">
        <ele>289</ele>
        <time>2017-03-25T10:07:50Z</time>
      </trkpt>
      <trkpt lat="45.88498" lon="4.65087">
        <ele>291</ele>
        <time>2017-03-25T10:07:54Z</time>
      </trkpt>
      <trkpt lat="45.88497" lon="4.65089">
        <ele>291</ele>
        <time>2017-03-25T10:07:55Z</time>
      </trkpt>
      <trkpt lat="45.88491" lon="4.65097">
        <ele>292</ele>
        <time>2017-03-25T10:07:59Z</time>
      </trkpt>
      <trkpt lat="45.88489" lon="4.65099">
        <ele>292</ele>
        <time>2017-03-25T10:08:00Z</time>
      </trkpt>
      <trkpt lat="45.88484" lon="4.65109">
        <ele>293</ele>
        <time>2017-03-25T10:08:04Z</time>
      </trkpt>
      <trkpt lat="45.88483" lon="4.65111">
        <ele>293</ele>
        <time>2017-03-25T10:08:05Z</time>
      </trkpt>
      <trkpt lat="45.88477" lon="4.6512">
        <ele>293</ele>
        <time>2017-03-25T10:08:09Z</time>
      </trkpt>
      <trkpt lat="45.88476" lon="4.65122">
        <ele>293</ele>
        <time>2017-03-25T10:08:10Z</time>
      </trkpt>
      <trkpt lat="45.88469" lon="4.65128">
        <ele>294</ele>
        <time>2017-03-25T10:08:14Z</time>
      </trkpt>
      <trkpt lat="45.88468" lon="4.6513">
        <ele>294</ele>
        <time>2017-03-25T10:08:15Z</time>
      </trkpt>
      <trkpt lat="45.88463" lon="4.65137">
        <ele>294</ele>
        <time>2017-03-25T10:08:18Z</time>
      </trkpt>
      <trkpt lat="45.8846" lon="4.65139">
        <ele>294</ele>
        <time>2017-03-25T10:08:19Z</time>
      </trkpt>
      <trkpt lat="45.88455" lon="4.65144">
        <ele>295</ele>
        <time>2017-03-25T10:08:22Z</time>
      </trkpt>
      <trkpt lat="45.88453" lon="4.65146">
        <ele>295</ele>
        <time>2017-03-25T10:08:23Z</time>
      </trkpt>
      <trkpt lat="45.88446" lon="4.65154">
        <ele>295</ele>
        <time>2017-03-25T10:08:27Z</time>
      </trkpt>
      <trkpt lat="45.88444" lon="4.65156">
        <ele>295</ele>
        <time>2017-03-25T10:08:28Z</time>
      </trkpt>
      <trkpt lat="45.88438" lon="4.65163">
        <ele>296</ele>
        <time>2017-03-25T10:08:32Z</time>
      </trkpt>
      <trkpt lat="45.88437" lon="4.65165">
        <ele>296</ele>
        <time>2017-03-25T10:08:33Z</time>
      </trkpt>
      <trkpt lat="45.8843" lon="4.65172">
        <ele>298</ele>
        <time>2017-03-25T10:08:37Z</time>
      </trkpt>
      <trkpt lat="45.88428" lon="4.65173">
        <ele>298</ele>
        <time>2017-03-25T10:08:38Z</time>
      </trkpt>
      <trkpt lat="45.88421" lon="4.65181">
        <ele>298</ele>
        <time>2017-03-25T10:08:42Z</time>
      </trkpt>
      <trkpt lat="45.8842" lon="4.65183">
        <ele>298</ele>
        <time>2017-03-25T10:08:43Z</time>
      </trkpt>
      <trkpt lat="45.88413" lon="4.65191">
        <ele>299</ele>
        <time>2017-03-25T10:08:47Z</time>
      </trkpt>
      <trkpt lat="45.88411" lon="4.65193">
        <ele>299</ele>
        <time>2017-03-25T10:08:48Z</time>
      </trkpt>
      <trkpt lat="45.88404" lon="4.65197">
        <ele>299</ele>
        <time>2017-03-25T10:08:51Z</time>
      </trkpt>
      <trkpt lat="45.88402" lon="4.65199">
        <ele>300</ele>
        <time>2017-03-25T10:08:52Z</time>
      </trkpt>
      <trkpt lat="45.88396" lon="4.65206">
        <ele>300</ele>
        <time>2017-03-25T10:08:56Z</time>
      </trkpt>
      <trkpt lat="45.88393" lon="4.65208">
        <ele>300</ele>
        <time>2017-03-25T10:08:57Z</time>
      </trkpt>
      <trkpt lat="45.88387" lon="4.65214">
        <ele>300</ele>
        <time>2017-03-25T10:09:00Z</time>
      </trkpt>
      <trkpt lat="45.88385" lon="4.65216">
        <ele>300</ele>
        <time>2017-03-25T10:09:01Z</time>
      </trkpt>
      <trkpt lat="45.88379" lon="4.65221">
        <ele>300</ele>
        <time>2017-03-25T10:09:04Z</time>
      </trkpt>
      <trkpt lat="45.88377" lon="4.65223">
        <ele>300</ele>
        <time>2017-03-25T10:09:05Z</time>
      </trkpt>
      <trkpt lat="45.8837" lon="4.65231">
        <ele>300</ele>
        <time>2017-03-25T10:09:09Z</time>
      </trkpt>
      <trkpt lat="45.88369" lon="4.65233">
        <ele>300</ele>
        <time>2017-03-25T10:09:10Z</time>
      </trkpt>
      <trkpt lat="45.88363" lon="4.65239">
        <ele>300</ele>
        <time>2017-03-25T10:09:13Z</time>
      </trkpt>
      <trkpt lat="45.88361" lon="4.65241">
        <ele>300</ele>
        <time>2017-03-25T10:09:14Z</time>
      </trkpt>
      <trkpt lat="45.88355" lon="4.65248">
        <ele>300</ele>
        <time>2017-03-25T10:09:17Z</time>
      </trkpt>
      <trkpt lat="45.88354" lon="4.65249">
        <ele>300</ele>
        <time>2017-03-25T10:09:18Z</time>
      </trkpt>
      <trkpt lat="45.88348" lon="4.65256">
        <ele>301</ele>
        <time>2017-03-25T10:09:21Z</time>
      </trkpt>
      <trkpt lat="45.88347" lon="4.65259">
        <ele>301</ele>
        <time>2017-03-25T10:09:22Z</time>
      </trkpt>
      <trkpt lat="45.8834" lon="4.65266">
        <ele>301</ele>
        <time>2017-03-25T10:09:26Z</time>
      </trkpt>
      <trkpt lat="45.88338" lon="4.65268">
        <ele>301</ele>
        <time>2017-03-25T10:09:27Z</time>
      </trkpt>
      <trkpt lat="45.88331" lon="4.65275">
        <ele>303</ele>
        <time>2017-03-25T10:09:31Z</time>
      </trkpt>
      <trkpt lat="45.88329" lon="4.65277">
        <ele>303</ele>
        <time>2017-03-25T10:09:32Z</time>
      </trkpt>
      <trkpt lat="45.88323" lon="4.65285">
        <ele>304</ele>
        <time>2017-03-25T10:09:36Z</time>
      </trkpt>
      <trkpt lat="45.88321" lon="4.65287">
        <ele>304</ele>
        <time>2017-03-25T10:09:37Z</time>
      </trkpt>
      <trkpt lat="45.88316" lon="4.65296">
        <ele>304</ele>
        <time>2017-03-25T10:09:41Z</time>
      </trkpt>
      <trkpt lat="45.88314" lon="4.65299">
        <ele>305</ele>
        <time>2017-03-25T10:09:42Z</time>
      </trkpt>
      <trkpt lat="45.88309" lon="4.65308">
        <ele>305</ele>
        <time>2017-03-25T10:09:46Z</time>
      </trkpt>
      <trkpt lat="45.88307" lon="4.6531">
        <ele>305</ele>
        <time>2017-03-25T10:09:47Z</time>
      </trkpt>
      <trkpt lat="45.88302" lon="4.6532">
        <ele>305</ele>
        <time>2017-03-25T10:09:51Z</time>
      </trkpt>
      <trkpt lat="45.88301" lon="4.65323">
        <ele>305</ele>
        <time>2017-03-25T10:09:52Z</time>
      </trkpt>
      <trkpt lat="45.88296" lon="4.65333">
        <ele>305</ele>
        <time>2017-03-25T10:09:56Z</time>
      </trkpt>
      <trkpt lat="45.88296" lon="4.65335">
        <ele>307</ele>
        <time>2017-03-25T10:09:57Z</time>
      </trkpt>
      <trkpt lat="45.88292" lon="4.65344">
        <ele>307</ele>
        <time>2017-03-25T10:10:01Z</time>
      </trkpt>
      <trkpt lat="45.88291" lon="4.65347">
        <ele>307</ele>
        <time>2017-03-25T10:10:02Z</time>
      </trkpt>
      <trkpt lat="45.88287" lon="4.65355">
        <ele>308</ele>
        <time>2017-03-25T10:10:05Z</time>
      </trkpt>
      <trkpt lat="45.88286" lon="4.65358">
        <ele>308</ele>
        <time>2017-03-25T10:10:06Z</time>
      </trkpt>
      <trkpt lat="45.88282" lon="4.65369">
        <ele>308</ele>
        <time>2017-03-25T10:10:10Z</time>
      </trkpt>
      <trkpt lat="45.88281" lon="4.65372">
        <ele>308</ele>
        <time>2017-03-25T10:10:11Z</time>
      </trkpt>
      <trkpt lat="45.88278" lon="4.65383">
        <ele>308</ele>
        <time>2017-03-25T10:10:15Z</time>
      </trkpt>
      <trkpt lat="45.88277" lon="4.65387">
        <ele>308</ele>
        <time>2017-03-25T10:10:16Z</time>
      </trkpt>
      <trkpt lat="45.88273" lon="4.65397">
        <ele>309</ele>
        <time>2017-03-25T10:10:20Z</time>
      </trkpt>
      <trkpt lat="45.88272" lon="4.654">
        <ele>309</ele>
        <time>2017-03-25T10:10:21Z</time>
      </trkpt>
      <trkpt lat="45.88269" lon="4.65409">
        <ele>309</ele>
        <time>2017-03-25T10:10:24Z</time>
      </trkpt>
      <trkpt lat="45.88268" lon="4.65412">
        <ele>309</ele>
        <time>2017-03-25T10:10:25Z</time>
      </trkpt>
      <trkpt lat="45.88265" lon="4.65423">
        <ele>311</ele>
        <time>2017-03-25T10:10:29Z</time>
      </trkpt>
      <trkpt lat="45.88264" lon="4.65426">
        <ele>311</ele>
        <time>2017-03-25T10:10:30Z</time>
      </trkpt>
      <trkpt lat="45.88261" lon="4.65437">
        <ele>311</ele>
        <time>2017-03-25T10:10:34Z</time>
      </trkpt>
      <trkpt lat="45.8826" lon="4.6544">
        <ele>311</ele>
        <time>2017-03-25T10:10:35Z</time>
      </trkpt>
      <trkpt lat="45.88256" lon="4.65451">
        <ele>311</ele>
        <time>2017-03-25T10:10:39Z</time>
      </trkpt>
      <trkpt lat="45.88255" lon="4.65454">
        <ele>311</ele>
        <time>2017-03-25T10:10:40Z</time>
      </trkpt>
      <trkpt lat="45.88252" lon="4.65465">
        <ele>312</ele>
        <time>2017-03-25T10:10:44Z</time>
      </trkpt>
      <trkpt lat="45.88251" lon="4.65468">
        <ele>312</ele>
        <time>2017-03-25T10:10:45Z</time>
      </trkpt>
      <trkpt lat="45.88248" lon="4.65479">
        <ele>316</ele>
        <time>2017-03-25T10:10:49Z</time>
      </trkpt>
      <trkpt lat="45.88247" lon="4.65482">
        <ele>316</ele>
        <time>2017-03-25T10:10:50Z</time>
      </trkpt>
      <trkpt lat="45.88243" lon="4.65493">
        <ele>316</ele>
        <time>2017-03-25T10:10:54Z</time>
      </trkpt>
      <trkpt lat="45.88243" lon="4.65496">
        <ele>316</ele>
        <time>2017-03-25T10:10:55Z</time>
      </trkpt>
      <trkpt lat="45.88238" lon="4.65506">
        <ele>317</ele>
        <time>2017-03-25T10:10:59Z</time>
      </trkpt>
      <trkpt lat="45.88238" lon="4.65508">
        <ele>318</ele>
        <time>2017-03-25T10:11:00Z</time>
      </trkpt>
      <trkpt lat="45.88236" lon="4.65519">
        <ele>319</ele>
        <time>2017-03-25T10:11:04Z</time>
      </trkpt>
      <trkpt lat="45.88235" lon="4.65522">
        <ele>319</ele>
        <time>2017-03-25T10:11:05Z</time>
      </trkpt>
      <trkpt lat="45.88232" lon="4.65531">
        <ele>319</ele>
        <time>2017-03-25T10:11:08Z</time>
      </trkpt>
      <trkpt lat="45.8823" lon="4.65533">
        <ele>319</ele>
        <time>2017-03-25T10:11:09Z</time>
      </trkpt>
      <trkpt lat="45.88226" lon="4.65543">
        <ele>320</ele>
        <time>2017-03-25T10:11:13Z</time>
      </trkpt>
      <trkpt lat="45.88226" lon="4.65546">
        <ele>320</ele>
        <time>2017-03-25T10:11:14Z</time>
      </trkpt>
      <trkpt lat="45.88222" lon="4.65557">
        <ele>320</ele>
        <time>2017-03-25T10:11:18Z</time>
      </trkpt>
      <trkpt lat="45.88221" lon="4.65559">
        <ele>320</ele>
        <time>2017-03-25T10:11:19Z</time>
      </trkpt>
      <trkpt lat="45.88218" lon="4.6557">
        <ele>321</ele>
        <time>2017-03-25T10:11:23Z</time>
      </trkpt>
      <trkpt lat="45.88216" lon="4.65573">
        <ele>321</ele>
        <time>2017-03-25T10:11:24Z</time>
      </trkpt>
      <trkpt lat="45.88213" lon="4.65582">
        <ele>321</ele>
        <time>2017-03-25T10:11:27Z</time>
      </trkpt>
      <trkpt lat="45.88212" lon="4.65584">
        <ele>321</ele>
        <time>2017-03-25T10:11:28Z</time>
      </trkpt>
      <trkpt lat="45.8821" lon="4.65593">
        <ele>321</ele>
        <time>2017-03-25T10:11:31Z</time>
      </trkpt>
      <trkpt lat="45.88208" lon="4.65596">
        <ele>321</ele>
        <time>2017-03-25T10:11:32Z</time>
      </trkpt>
      <trkpt lat="45.88205" lon="4.65607">
        <ele>321</ele>
        <time>2017-03-25T10:11:36Z</time>
      </trkpt>
      <trkpt lat="45.88204" lon="4.6561">
        <ele>321</ele>
        <time>2017-03-25T10:11:37Z</time>
      </trkpt>
      <trkpt lat="45.882" lon="4.65621">
        <ele>321</ele>
        <time>2017-03-25T10:11:41Z</time>
      </trkpt>
      <trkpt lat="45.88199" lon="4.65623">
        <ele>322</ele>
        <time>2017-03-25T10:11:42Z</time>
      </trkpt>
      <trkpt lat="45.88195" lon="4.65634">
        <ele>322</ele>
        <time>2017-03-25T10:11:46Z</time>
      </trkpt>
      <trkpt lat="45.88194" lon="4.65637">
        <ele>322</ele>
        <time>2017-03-25T10:11:47Z</time>
      </trkpt>
      <trkpt lat="45.88191" lon="4.65647">
        <ele>322</ele>
        <time>2017-03-25T10:11:51Z</time>
      </trkpt>
      <trkpt lat="45.8819" lon="4.6565">
        <ele>322</ele>
        <time>2017-03-25T10:11:52Z</time>
      </trkpt>
      <trkpt lat="45.88186" lon="4.65659">
        <ele>323</ele>
        <time>2017-03-25T10:11:55Z</time>
      </trkpt>
      <trkpt lat="45.88185" lon="4.65661">
        <ele>323</ele>
        <time>2017-03-25T10:11:56Z</time>
      </trkpt>
      <trkpt lat="45.88181" lon="4.65671">
        <ele>323</ele>
        <time>2017-03-25T10:11:59Z</time>
      </trkpt>
      <trkpt lat="45.8818" lon="4.65673">
        <ele>323</ele>
        <time>2017-03-25T10:12:00Z</time>
      </trkpt>
      <trkpt lat="45.88175" lon="4.65682">
        <ele>323</ele>
        <time>2017-03-25T10:12:04Z</time>
      </trkpt>
      <trkpt lat="45.88174" lon="4.65685">
        <ele>322</ele>
        <time>2017-03-25T10:12:05Z</time>
      </trkpt>
      <trkpt lat="45.88169" lon="4.65694">
        <ele>322</ele>
        <time>2017-03-25T10:12:09Z</time>
      </trkpt>
      <trkpt lat="45.88167" lon="4.65696">
        <ele>322</ele>
        <time>2017-03-25T10:12:10Z</time>
      </trkpt>
      <trkpt lat="45.88162" lon="4.65706">
        <ele>331</ele>
        <time>2017-03-25T10:12:14Z</time>
      </trkpt>
      <trkpt lat="45.88161" lon="4.65708">
        <ele>331</ele>
        <time>2017-03-25T10:12:15Z</time>
      </trkpt>
      <trkpt lat="45.88155" lon="4.65717">
        <ele>331</ele>
        <time>2017-03-25T10:12:19Z</time>
      </trkpt>
      <trkpt lat="45.88154" lon="4.65719">
        <ele>331</ele>
        <time>2017-03-25T10:12:20Z</time>
      </trkpt>
      <trkpt lat="45.88148" lon="4.65728">
        <ele>331</ele>
        <time>2017-03-25T10:12:24Z</time>
      </trkpt>
      <trkpt lat="45.88147" lon="4.6573">
        <ele>331</ele>
        <time>2017-03-25T10:12:25Z</time>
      </trkpt>
      <trkpt lat="45.88141" lon="4.65737">
        <ele>332</ele>
        <time>2017-03-25T10:12:29Z</time>
      </trkpt>
      <trkpt lat="45.88139" lon="4.65738">
        <ele>332</ele>
        <time>2017-03-25T10:12:30Z</time>
      </trkpt>
      <trkpt lat="45.88133" lon="4.65744">
        <ele>333</ele>
        <time>2017-03-25T10:12:33Z</time>
      </trkpt>
      <trkpt lat="45.88132" lon="4.65747">
        <ele>333</ele>
        <time>2017-03-25T10:12:34Z</time>
      </trkpt>
      <trkpt lat="45.88127" lon="4.65755">
        <ele>333</ele>
        <time>2017-03-25T10:12:38Z</time>
      </trkpt>
      <trkpt lat="45.88125" lon="4.65758">
        <ele>333</ele>
        <time>2017-03-25T10:12:39Z</time>
      </trkpt>
      <trkpt lat="45.88118" lon="4.65765">
        <ele>334</ele>
        <time>2017-03-25T10:12:43Z</time>
      </trkpt>
      <trkpt lat="45.88116" lon="4.65767">
        <ele>334</ele>
        <time>2017-03-25T10:12:44Z</time>
      </trkpt>
      <trkpt lat="45.88109" lon="4.65774">
        <ele>334</ele>
        <time>2017-03-25T10:12:48Z</time>
      </trkpt>
      <trkpt lat="45.88107" lon="4.65776">
        <ele>335</ele>
        <time>2017-03-25T10:12:49Z</time>
      </trkpt>
      <trkpt lat="45.881" lon="4.65783">
        <ele>335</ele>
        <time>2017-03-25T10:12:53Z</time>
      </trkpt>
      <trkpt lat="45.88098" lon="4.65785">
        <ele>335</ele>
        <time>2017-03-25T10:12:54Z</time>
      </trkpt>
      <trkpt lat="45.8809" lon="4.65792">
        <ele>334</ele>
        <time>2017-03-25T10:12:58Z</time>
      </trkpt>
      <trkpt lat="45.88089" lon="4.65794">
        <ele>334</ele>
        <time>2017-03-25T10:12:59Z</time>
      </trkpt>
      <trkpt lat="45.88082" lon="4.65801">
        <ele>341</ele>
        <time>2017-03-25T10:13:02Z</time>
      </trkpt>
      <trkpt lat="45.8808" lon="4.65803">
        <ele>341</ele>
        <time>2017-03-25T10:13:03Z</time>
      </trkpt>
      <trkpt lat="45.88073" lon="4.65808">
        <ele>341</ele>
        <time>2017-03-25T10:13:06Z</time>
      </trkpt>
      <trkpt lat="45.88071" lon="4.65809">
        <ele>341</ele>
        <time>2017-03-25T10:13:07Z</time>
      </trkpt>
      <trkpt lat="45.88064" lon="4.65814">
        <ele>341</ele>
        <time>2017-03-25T10:13:10Z</time>
      </trkpt>
      <trkpt lat="45.88062" lon="4.65816">
        <ele>341</ele>
        <time>2017-03-25T10:13:11Z</time>
      </trkpt>
      <trkpt lat="45.88055" lon="4.6582">
        <ele>341</ele>
        <time>2017-03-25T10:13:14Z</time>
      </trkpt>
      <trkpt lat="45.88053" lon="4.65821">
        <ele>342</ele>
        <time>2017-03-25T10:13:15Z</time>
      </trkpt>
      <trkpt lat="45.88045" lon="4.65826">
        <ele>342</ele>
        <time>2017-03-25T10:13:19Z</time>
      </trkpt>
      <trkpt lat="45.88043" lon="4.65828">
        <ele>342</ele>
        <time>2017-03-25T10:13:20Z</time>
      </trkpt>
      <trkpt lat="45.88037" lon="4.65833">
        <ele>343</ele>
        <time>2017-03-25T10:13:23Z</time>
      </trkpt>
      <trkpt lat="45.88034" lon="4.65834">
        <ele>338</ele>
        <time>2017-03-25T10:13:24Z</time>
      </trkpt>
      <trkpt lat="45.88027" lon="4.65838">
        <ele>339</ele>
        <time>2017-03-25T10:13:27Z</time>
      </trkpt>
      <trkpt lat="45.88025" lon="4.65839">
        <ele>339</ele>
        <time>2017-03-25T10:13:28Z</time>
      </trkpt>
      <trkpt lat="45.88017" lon="4.65844">
        <ele>340</ele>
        <time>2017-03-25T10:13:31Z</time>
      </trkpt>
      <trkpt lat="45.88015" lon="4.65845">
        <ele>340</ele>
        <time>2017-03-25T10:13:32Z</time>
      </trkpt>
      <trkpt lat="45.88009" lon="4.6585">
        <ele>340</ele>
        <time>2017-03-25T10:13:35Z</time>
      </trkpt>
      <trkpt lat="45.88006" lon="4.65852">
        <ele>340</ele>
        <time>2017-03-25T10:13:36Z</time>
      </trkpt>
      <trkpt lat="45.87999" lon="4.65856">
        <ele>344</ele>
        <time>2017-03-25T10:13:39Z</time>
      </trkpt>
      <trkpt lat="45.87997" lon="4.65858">
        <ele>344</ele>
        <time>2017-03-25T10:13:40Z</time>
      </trkpt>
      <trkpt lat="45.87989" lon="4.65865">
        <ele>344</ele>
        <time>2017-03-25T10:13:43Z</time>
      </trkpt>
      <trkpt lat="45.87987" lon="4.65868">
        <ele>343</ele>
        <time>2017-03-25T10:13:44Z</time>
      </trkpt>
      <trkpt lat="45.8798" lon="4.65876">
        <ele>343</ele>
        <time>2017-03-25T10:13:47Z</time>
      </trkpt>
      <trkpt lat="45.87978" lon="4.65878">
        <ele>343</ele>
        <time>2017-03-25T10:13:48Z</time>
      </trkpt>
      <trkpt lat="45.87972" lon="4.65886">
        <ele>343</ele>
        <time>2017-03-25T10:13:51Z</time>
      </trkpt>
      <trkpt lat="45.8797" lon="4.65889">
        <ele>343</ele>
        <time>2017-03-25T10:13:52Z</time>
      </trkpt>
      <trkpt lat="45.87964" lon="4.65897">
        <ele>343</ele>
        <time>2017-03-25T10:13:55Z</time>
      </trkpt>
      <trkpt lat="45.87961" lon="4.659">
        <ele>343</ele>
        <time>2017-03-25T10:13:56Z</time>
      </trkpt>
      <trkpt lat="45.87957" lon="4.65906">
        <ele>343</ele>
        <time>2017-03-25T10:13:58Z</time>
      </trkpt>
      <trkpt lat="45.87955" lon="4.65909">
        <ele>343</ele>
        <time>2017-03-25T10:13:59Z</time>
      </trkpt>
      <trkpt lat="45.8795" lon="4.65915">
        <ele>343</ele>
        <time>2017-03-25T10:14:01Z</time>
      </trkpt>
      <trkpt lat="45.87948" lon="4.65919">
        <ele>341</ele>
        <time>2017-03-25T10:14:02Z</time>
      </trkpt>
      <trkpt lat="45.87942" lon="4.65928">
        <ele>341</ele>
        <time>2017-03-25T10:14:05Z</time>
      </trkpt>
      <trkpt lat="45.8794" lon="4.6593">
        <ele>341</ele>
        <time>2017-03-25T10:14:06Z</time>
      </trkpt>
      <trkpt lat="45.87936" lon="4.65939">
        <ele>341</ele>
        <time>2017-03-25T10:14:09Z</time>
      </trkpt>
      <trkpt lat="45.87934" lon="4.65941">
        <ele>341</ele>
        <time>2017-03-25T10:14:10Z</time>
      </trkpt>
      <trkpt lat="45.8793" lon="4.65951">
        <ele>341</ele>
        <time>2017-03-25T10:14:13Z</time>
      </trkpt>
      <trkpt lat="45.87928" lon="4.65954">
        <ele>341</ele>
        <time>2017-03-25T10:14:14Z</time>
      </trkpt>
      <trkpt lat="45.87925" lon="4.65966">
        <ele>341</ele>
        <time>2017-03-25T10:14:17Z</time>
      </trkpt>
      <trkpt lat="45.87925" lon="4.6597">
        <ele>341</ele>
        <time>2017-03-25T10:14:18Z</time>
      </trkpt>
      <trkpt lat="45.87925" lon="4.65981">
        <ele>341</ele>
        <time>2017-03-25T10:14:21Z</time>
      </trkpt>
      <trkpt lat="45.87925" lon="4.65984">
        <ele>342</ele>
        <time>2017-03-25T10:14:22Z</time>
      </trkpt>
      <trkpt lat="45.87923" lon="4.65994">
        <ele>342</ele>
        <time>2017-03-25T10:14:25Z</time>
      </trkpt>
      <trkpt lat="45.87923" lon="4.65998">
        <ele>342</ele>
        <time>2017-03-25T10:14:26Z</time>
      </trkpt>
      <trkpt lat="45.87922" lon="4.66008">
        <ele>342</ele>
        <time>2017-03-25T10:14:29Z</time>
      </trkpt>
      <trkpt lat="45.87921" lon="4.66012">
        <ele>342</ele>
        <time>2017-03-25T10:14:30Z</time>
      </trkpt>
      <trkpt lat="45.87922" lon="4.66023">
        <ele>342</ele>
        <time>2017-03-25T10:14:34Z</time>
      </trkpt>
      <trkpt lat="45.87922" lon="4.66027">
        <ele>342</ele>
        <time>2017-03-25T10:14:35Z</time>
      </trkpt>
      <trkpt lat="45.87921" lon="4.66039">
        <ele>342</ele>
        <time>2017-03-25T10:14:38Z</time>
      </trkpt>
      <trkpt lat="45.87921" lon="4.66043">
        <ele>342</ele>
        <time>2017-03-25T10:14:39Z</time>
      </trkpt>
      <trkpt lat="45.8792" lon="4.66054">
        <ele>342</ele>
        <time>2017-03-25T10:14:42Z</time>
      </trkpt>
      <trkpt lat="45.87921" lon="4.66058">
        <ele>342</ele>
        <time>2017-03-25T10:14:43Z</time>
      </trkpt>
      <trkpt lat="45.87921" lon="4.66069">
        <ele>343</ele>
        <time>2017-03-25T10:14:46Z</time>
      </trkpt>
      <trkpt lat="45.87921" lon="4.66072">
        <ele>343</ele>
        <time>2017-03-25T10:14:47Z</time>
      </trkpt>
      <trkpt lat="45.87921" lon="4.66084">
        <ele>344</ele>
        <time>2017-03-25T10:14:50Z</time>
      </trkpt>
      <trkpt lat="45.87921" lon="4.66088">
        <ele>345</ele>
        <time>2017-03-25T10:14:51Z</time>
      </trkpt>
      <trkpt lat="45.87921" lon="4.66098">
        <ele>346</ele>
        <time>2017-03-25T10:14:54Z</time>
      </trkpt>
      <trkpt lat="45.87922" lon="4.66101">
        <ele>346</ele>
        <time>2017-03-25T10:14:55Z</time>
      </trkpt>
      <trkpt lat="45.87923" lon="4.66112">
        <ele>347</ele>
        <time>2017-03-25T10:14:58Z</time>
      </trkpt>
      <trkpt lat="45.87922" lon="4.66115">
        <ele>347</ele>
        <time>2017-03-25T10:14:59Z</time>
      </trkpt>
      <trkpt lat="45.87923" lon="4.66126">
        <ele>348</ele>
        <time>2017-03-25T10:15:02Z</time>
      </trkpt>
      <trkpt lat="45.87924" lon="4.66129">
        <ele>348</ele>
        <time>2017-03-25T10:15:03Z</time>
      </trkpt>
      <trkpt lat="45.87931" lon="4.66134">
        <ele>348</ele>
        <time>2017-03-25T10:15:06Z</time>
      </trkpt>
      <trkpt lat="45.87933" lon="4.66134">
        <ele>348</ele>
        <time>2017-03-25T10:15:07Z</time>
      </trkpt>
      <trkpt lat="45.87942" lon="4.66135">
        <ele>348</ele>
        <time>2017-03-25T10:15:10Z</time>
      </trkpt>
      <trkpt lat="45.87945" lon="4.66135">
        <ele>348</ele>
        <time>2017-03-25T10:15:11Z</time>
      </trkpt>
      <trkpt lat="45.87951" lon="4.66136">
        <ele>348</ele>
        <time>2017-03-25T10:15:13Z</time>
      </trkpt>
      <trkpt lat="45.87954" lon="4.66137">
        <ele>348</ele>
        <time>2017-03-25T10:15:14Z</time>
      </trkpt>
      <trkpt lat="45.87962" lon="4.66139">
        <ele>348</ele>
        <time>2017-03-25T10:15:17Z</time>
      </trkpt>
      <trkpt lat="45.87964" lon="4.66139">
        <ele>348</ele>
        <time>2017-03-25T10:15:18Z</time>
      </trkpt>
      <trkpt lat="45.87972" lon="4.66138">
        <ele>348</ele>
        <time>2017-03-25T10:15:21Z</time>
      </trkpt>
      <trkpt lat="45.87976" lon="4.66139">
        <ele>348</ele>
        <time>2017-03-25T10:15:22Z</time>
      </trkpt>
      <trkpt lat="45.87984" lon="4.6614">
        <ele>348</ele>
        <time>2017-03-25T10:15:25Z</time>
      </trkpt>
      <trkpt lat="45.87987" lon="4.6614">
        <ele>348</ele>
        <time>2017-03-25T10:15:26Z</time>
      </trkpt>
      <trkpt lat="45.87993" lon="4.6614">
        <ele>348</ele>
        <time>2017-03-25T10:15:28Z</time>
      </trkpt>
      <trkpt lat="45.87996" lon="4.6614">
        <ele>348</ele>
        <time>2017-03-25T10:15:29Z</time>
      </trkpt>
      <trkpt lat="45.88003" lon="4.66139">
        <ele>348</ele>
        <time>2017-03-25T10:15:31Z</time>
      </trkpt>
      <trkpt lat="45.88006" lon="4.66139">
        <ele>348</ele>
        <time>2017-03-25T10:15:32Z</time>
      </trkpt>
      <trkpt lat="45.88012" lon="4.66139">
        <ele>348</ele>
        <time>2017-03-25T10:15:34Z</time>
      </trkpt>
      <trkpt lat="45.88015" lon="4.66139">
        <ele>348</ele>
        <time>2017-03-25T10:15:35Z</time>
      </trkpt>
      <trkpt lat="45.88022" lon="4.66139">
        <ele>348</ele>
        <time>2017-03-25T10:15:37Z</time>
      </trkpt>
      <trkpt lat="45.88026" lon="4.66139">
        <ele>348</ele>
        <time>2017-03-25T10:15:38Z</time>
      </trkpt>
      <trkpt lat="45.88034" lon="4.66138">
        <ele>347</ele>
        <time>2017-03-25T10:15:40Z</time>
      </trkpt>
      <trkpt lat="45.88038" lon="4.66138">
        <ele>347</ele>
        <time>2017-03-25T10:15:41Z</time>
      </trkpt>
      <trkpt lat="45.88046" lon="4.66136">
        <ele>347</ele>
        <time>2017-03-25T10:15:43Z</time>
      </trkpt>
      <trkpt lat="45.8805" lon="4.66136">
        <ele>347</ele>
        <time>2017-03-25T10:15:44Z</time>
      </trkpt>
      <trkpt lat="45.88058" lon="4.66135">
        <ele>347</ele>
        <time>2017-03-25T10:15:46Z</time>
      </trkpt>
      <trkpt lat="45.88062" lon="4.66135">
        <ele>347</ele>
        <time>2017-03-25T10:15:47Z</time>
      </trkpt>
      <trkpt lat="45.8807" lon="4.66135">
        <ele>348</ele>
        <time>2017-03-25T10:15:49Z</time>
      </trkpt>
      <trkpt lat="45.88073" lon="4.66135">
        <ele>348</ele>
        <time>2017-03-25T10:15:50Z</time>
      </trkpt>
      <trkpt lat="45.88081" lon="4.66135">
        <ele>348</ele>
        <time>2017-03-25T10:15:52Z</time>
      </trkpt>
      <trkpt lat="45.88085" lon="4.66134">
        <ele>349</ele>
        <time>2017-03-25T10:15:53Z</time>
      </trkpt>
      <trkpt lat="45.88092" lon="4.66133">
        <ele>349</ele>
        <time>2017-03-25T10:15:55Z</time>
      </trkpt>
      <trkpt lat="45.88096" lon="4.66133">
        <ele>348</ele>
        <time>2017-03-25T10:15:56Z</time>
      </trkpt>
      <trkpt lat="45.88103" lon="4.66131">
        <ele>348</ele>
        <time>2017-03-25T10:15:58Z</time>
      </trkpt>
      <trkpt lat="45.88107" lon="4.66131">
        <ele>348</ele>
        <time>2017-03-25T10:15:59Z</time>
      </trkpt>
      <trkpt lat="45.88115" lon="4.6613">
        <ele>348</ele>
        <time>2017-03-25T10:16:01Z</time>
      </trkpt>
      <trkpt lat="45.88119" lon="4.6613">
        <ele>348</ele>
        <time>2017-03-25T10:16:02Z</time>
      </trkpt>
      <trkpt lat="45.88127" lon="4.66128">
        <ele>348</ele>
        <time>2017-03-25T10:16:04Z</time>
      </trkpt>
      <trkpt lat="45.88132" lon="4.66127">
        <ele>348</ele>
        <time>2017-03-25T10:16:05Z</time>
      </trkpt>
      <trkpt lat="45.88139" lon="4.66127">
        <ele>349</ele>
        <time>2017-03-25T10:16:07Z</time>
      </trkpt>
      <trkpt lat="45.88143" lon="4.66125">
        <ele>349</ele>
        <time>2017-03-25T10:16:08Z</time>
      </trkpt>
      <trkpt lat="45.8815" lon="4.66124">
        <ele>348</ele>
        <time>2017-03-25T10:16:10Z</time>
      </trkpt>
      <trkpt lat="45.88154" lon="4.66124">
        <ele>349</ele>
        <time>2017-03-25T10:16:11Z</time>
      </trkpt>
      <trkpt lat="45.88162" lon="4.66124">
        <ele>349</ele>
        <time>2017-03-25T10:16:13Z</time>
      </trkpt>
      <trkpt lat="45.88167" lon="4.66123">
        <ele>349</ele>
        <time>2017-03-25T10:16:14Z</time>
      </trkpt>
      <trkpt lat="45.88171" lon="4.66123">
        <ele>349</ele>
        <time>2017-03-25T10:16:15Z</time>
      </trkpt>
      <trkpt lat="45.88176" lon="4.66123">
        <ele>349</ele>
        <time>2017-03-25T10:16:16Z</time>
      </trkpt>
      <trkpt lat="45.88184" lon="4.66123">
        <ele>349</ele>
        <time>2017-03-25T10:16:18Z</time>
      </trkpt>
      <trkpt lat="45.88188" lon="4.66124">
        <ele>349</ele>
        <time>2017-03-25T10:16:19Z</time>
      </trkpt>
      <trkpt lat="45.88195" lon="4.66125">
        <ele>349</ele>
        <time>2017-03-25T10:16:21Z</time>
      </trkpt>
      <trkpt lat="45.88198" lon="4.66126">
        <ele>349</ele>
        <time>2017-03-25T10:16:22Z</time>
      </trkpt>
      <trkpt lat="45.88204" lon="4.66127">
        <ele>349</ele>
        <time>2017-03-25T10:16:24Z</time>
      </trkpt>
      <trkpt lat="45.88208" lon="4.66128">
        <ele>349</ele>
        <time>2017-03-25T10:16:25Z</time>
      </trkpt>
      <trkpt lat="45.88215" lon="4.66127">
        <ele>349</ele>
        <time>2017-03-25T10:16:27Z</time>
      </trkpt>
      <trkpt lat="45.88218" lon="4.66127">
        <ele>349</ele>
        <time>2017-03-25T10:16:28Z</time>
      </trkpt>
      <trkpt lat="45.88226" lon="4.66128">
        <ele>349</ele>
        <time>2017-03-25T10:16:30Z</time>
      </trkpt>
      <trkpt lat="45.8823" lon="4.66128">
        <ele>349</ele>
        <time>2017-03-25T10:16:31Z</time>
      </trkpt>
      <trkpt lat="45.88239" lon="4.6613">
        <ele>350</ele>
        <time>2017-03-25T10:16:33Z</time>
      </trkpt>
      <trkpt lat="45.88242" lon="4.6613">
        <ele>350</ele>
        <time>2017-03-25T10:16:34Z</time>
      </trkpt>
      <trkpt lat="45.88249" lon="4.66131">
        <ele>350</ele>
        <time>2017-03-25T10:16:37Z</time>
      </trkpt>
      <trkpt lat="45.88252" lon="4.66131">
        <ele>351</ele>
        <time>2017-03-25T10:16:38Z</time>
      </trkpt>
      <trkpt lat="45.8826" lon="4.66133">
        <ele>351</ele>
        <time>2017-03-25T10:16:41Z</time>
      </trkpt>
      <trkpt lat="45.88263" lon="4.66133">
        <ele>351</ele>
        <time>2017-03-25T10:16:42Z</time>
      </trkpt>
      <trkpt lat="45.88271" lon="4.66133">
        <ele>352</ele>
        <time>2017-03-25T10:16:45Z</time>
      </trkpt>
      <trkpt lat="45.88273" lon="4.66133">
        <ele>352</ele>
        <time>2017-03-25T10:16:46Z</time>
      </trkpt>
      <trkpt lat="45.88282" lon="4.66134">
        <ele>352</ele>
        <time>2017-03-25T10:16:49Z</time>
      </trkpt>
      <trkpt lat="45.88285" lon="4.66134">
        <ele>352</ele>
        <time>2017-03-25T10:16:50Z</time>
      </trkpt>
      <trkpt lat="45.88291" lon="4.66134">
        <ele>352</ele>
        <time>2017-03-25T10:16:52Z</time>
      </trkpt>
      <trkpt lat="45.88294" lon="4.66134">
        <ele>352</ele>
        <time>2017-03-25T10:16:53Z</time>
      </trkpt>
      <trkpt lat="45.88303" lon="4.66135">
        <ele>353</ele>
        <time>2017-03-25T10:16:56Z</time>
      </trkpt>
      <trkpt lat="45.88306" lon="4.66136">
        <ele>353</ele>
        <time>2017-03-25T10:16:57Z</time>
      </trkpt>
      <trkpt lat="45.88313" lon="4.66136">
        <ele>353</ele>
        <time>2017-03-25T10:17:00Z</time>
      </trkpt>
      <trkpt lat="45.88316" lon="4.66136">
        <ele>353</ele>
        <time>2017-03-25T10:17:01Z</time>
      </trkpt>
      <trkpt lat="45.88323" lon="4.66137">
        <ele>354</ele>
        <time>2017-03-25T10:17:04Z</time>
      </trkpt>
      <trkpt lat="45.88325" lon="4.66138">
        <ele>354</ele>
        <time>2017-03-25T10:17:05Z</time>
      </trkpt>
      <trkpt lat="45.88334" lon="4.66139">
        <ele>357</ele>
        <time>2017-03-25T10:17:08Z</time>
      </trkpt>
      <trkpt lat="45.88336" lon="4.66139">
        <ele>357</ele>
        <time>2017-03-25T10:17:09Z</time>
      </trkpt>
      <trkpt lat="45.88344" lon="4.66139">
        <ele>357</ele>
        <time>2017-03-25T10:17:12Z</time>
      </trkpt>
      <trkpt lat="45.88346" lon="4.66139">
        <ele>357</ele>
        <time>2017-03-25T10:17:13Z</time>
      </trkpt>
      <trkpt lat="45.88354" lon="4.66139">
        <ele>357</ele>
        <time>2017-03-25T10:17:16Z</time>
      </trkpt>
      <trkpt lat="45.88356" lon="4.6614">
        <ele>357</ele>
        <time>2017-03-25T10:17:17Z</time>
      </trkpt>
      <trkpt lat="45.88363" lon="4.6614">
        <ele>357</ele>
        <time>2017-03-25T10:17:20Z</time>
      </trkpt>
      <trkpt lat="45.88365" lon="4.6614">
        <ele>357</ele>
        <time>2017-03-25T10:17:21Z</time>
      </trkpt>
      <trkpt lat="45.88374" lon="4.66141">
        <ele>357</ele>
        <time>2017-03-25T10:17:25Z</time>
      </trkpt>
      <trkpt lat="45.88376" lon="4.66141">
        <ele>357</ele>
        <time>2017-03-25T10:17:26Z</time>
      </trkpt>
      <trkpt lat="45.88385" lon="4.66141">
        <ele>357</ele>
        <time>2017-03-25T10:17:30Z</time>
      </trkpt>
      <trkpt lat="45.88387" lon="4.66141">
        <ele>357</ele>
        <time>2017-03-25T10:17:31Z</time>
      </trkpt>
      <trkpt lat="45.88396" lon="4.66141">
        <ele>358</ele>
        <time>2017-03-25T10:17:35Z</time>
      </trkpt>
      <trkpt lat="45.88398" lon="4.66141">
        <ele>358</ele>
        <time>2017-03-25T10:17:36Z</time>
      </trkpt>
      <trkpt lat="45.88406" lon="4.66142">
        <ele>358</ele>
        <time>2017-03-25T10:17:40Z</time>
      </trkpt>
      <trkpt lat="45.88409" lon="4.66142">
        <ele>358</ele>
        <time>2017-03-25T10:17:41Z</time>
      </trkpt>
      <trkpt lat="45.88418" lon="4.66141">
        <ele>361</ele>
        <time>2017-03-25T10:17:45Z</time>
      </trkpt>
      <trkpt lat="45.88419" lon="4.66141">
        <ele>361</ele>
        <time>2017-03-25T10:17:46Z</time>
      </trkpt>
      <trkpt lat="45.88428" lon="4.66142">
        <ele>361</ele>
        <time>2017-03-25T10:17:50Z</time>
      </trkpt>
      <trkpt lat="45.8843" lon="4.66142">
        <ele>361</ele>
        <time>2017-03-25T10:17:51Z</time>
      </trkpt>
      <trkpt lat="45.88438" lon="4.66143">
        <ele>361</ele>
        <time>2017-03-25T10:17:55Z</time>
      </trkpt>
      <trkpt lat="45.88439" lon="4.66144">
        <ele>361</ele>
        <time>2017-03-25T10:17:56Z</time>
      </trkpt>
      <trkpt lat="45.88448" lon="4.66144">
        <ele>361</ele>
        <time>2017-03-25T10:18:00Z</time>
      </trkpt>
      <trkpt lat="45.8845" lon="4.66145">
        <ele>361</ele>
        <time>2017-03-25T10:18:01Z</time>
      </trkpt>
      <trkpt lat="45.88456" lon="4.66146">
        <ele>361</ele>
        <time>2017-03-25T10:18:04Z</time>
      </trkpt>
      <trkpt lat="45.88459" lon="4.66147">
        <ele>361</ele>
        <time>2017-03-25T10:18:05Z</time>
      </trkpt>
      <trkpt lat="45.88467" lon="4.66149">
        <ele>362</ele>
        <time>2017-03-25T10:18:08Z</time>
      </trkpt>
      <trkpt lat="45.88468" lon="4.6615">
        <ele>362</ele>
        <time>2017-03-25T10:18:09Z</time>
      </trkpt>
      <trkpt lat="45.88476" lon="4.66151">
        <ele>362</ele>
        <time>2017-03-25T10:18:13Z</time>
      </trkpt>
      <trkpt lat="45.88477" lon="4.66152">
        <ele>362</ele>
        <time>2017-03-25T10:18:14Z</time>
      </trkpt>
      <trkpt lat="45.88484" lon="4.66157">
        <ele>363</ele>
        <time>2017-03-25T10:18:18Z</time>
      </trkpt>
      <trkpt lat="45.88485" lon="4.66159">
        <ele>364</ele>
        <time>2017-03-25T10:18:19Z</time>
      </trkpt>
      <trkpt lat="45.88492" lon="4.66164">
        <ele>365</ele>
        <time>2017-03-25T10:18:23Z</time>
      </trkpt>
      <trkpt lat="45.88494" lon="4.66166">
        <ele>365</ele>
        <time>2017-03-25T10:18:24Z</time>
      </trkpt>
      <trkpt lat="45.88501" lon="4.66173">
        <ele>368</ele>
        <time>2017-03-25T10:18:28Z</time>
      </trkpt>
      <trkpt lat="45.88503" lon="4.66175">
        <ele>368</ele>
        <time>2017-03-25T10:18:29Z</time>
      </trkpt>
      <trkpt lat="45.8851" lon="4.66181">
        <ele>369</ele>
        <time>2017-03-25T10:18:33Z</time>
      </trkpt>
      <trkpt lat="45.88512" lon="4.66182">
        <ele>369</ele>
        <time>2017-03-25T10:18:34Z</time>
      </trkpt>
      <trkpt lat="45.88519" lon="4.66188">
        <ele>369</ele>
        <time>2017-03-25T10:18:38Z</time>
      </trkpt>
      <trkpt lat="45.88521" lon="4.66189">
        <ele>369</ele>
        <time>2017-03-25T10:18:39Z</time>
      </trkpt>
      <trkpt lat="45.88529" lon="4.66195">
        <ele>370</ele>
        <time>2017-03-25T10:18:43Z</time>
      </trkpt>
      <trkpt lat="45.88531" lon="4.66197">
        <ele>370</ele>
        <time>2017-03-25T10:18:44Z</time>
      </trkpt>
      <trkpt lat="45.88538" lon="4.66203">
        <ele>370</ele>
        <time>2017-03-25T10:18:48Z</time>
      </trkpt>
      <trkpt lat="45.88539" lon="4.66205">
        <ele>370</ele>
        <time>2017-03-25T10:18:49Z</time>
      </trkpt>
      <trkpt lat="45.88547" lon="4.66211">
        <ele>370</ele>
        <time>2017-03-25T10:18:53Z</time>
      </trkpt>
      <trkpt lat="45.88549" lon="4.66213">
        <ele>370</ele>
        <time>2017-03-25T10:18:54Z</time>
      </trkpt>
      <trkpt lat="45.88554" lon="4.66218">
        <ele>370</ele>
        <time>2017-03-25T10:18:57Z</time>
      </trkpt>
      <trkpt lat="45.88556" lon="4.6622">
        <ele>370</ele>
        <time>2017-03-25T10:18:58Z</time>
      </trkpt>
      <trkpt lat="45.88562" lon="4.66226">
        <ele>370</ele>
        <time>2017-03-25T10:19:01Z</time>
      </trkpt>
      <trkpt lat="45.88563" lon="4.66228">
        <ele>370</ele>
        <time>2017-03-25T10:19:02Z</time>
      </trkpt>
      <trkpt lat="45.88569" lon="4.66235">
        <ele>371</ele>
        <time>2017-03-25T10:19:05Z</time>
      </trkpt>
      <trkpt lat="45.88571" lon="4.66237">
        <ele>371</ele>
        <time>2017-03-25T10:19:06Z</time>
      </trkpt>
      <trkpt lat="45.88576" lon="4.66244">
        <ele>371</ele>
        <time>2017-03-25T10:19:09Z</time>
      </trkpt>
      <trkpt lat="45.88579" lon="4.66246">
        <ele>371</ele>
        <time>2017-03-25T10:19:10Z</time>
      </trkpt>
      <trkpt lat="45.88585" lon="4.66253">
        <ele>371</ele>
        <time>2017-03-25T10:19:13Z</time>
      </trkpt>
      <trkpt lat="45.88587" lon="4.66256">
        <ele>371</ele>
        <time>2017-03-25T10:19:14Z</time>
      </trkpt>
      <trkpt lat="45.88592" lon="4.66264">
        <ele>372</ele>
        <time>2017-03-25T10:19:17Z</time>
      </trkpt>
      <trkpt lat="45.88593" lon="4.66267">
        <ele>372</ele>
        <time>2017-03-25T10:19:18Z</time>
      </trkpt>
      <trkpt lat="45.88598" lon="4.66276">
        <ele>372</ele>
        <time>2017-03-25T10:19:21Z</time>
      </trkpt>
      <trkpt lat="45.886" lon="4.66278">
        <ele>372</ele>
        <time>2017-03-25T10:19:22Z</time>
      </trkpt>
      <trkpt lat="45.88605" lon="4.66287">
        <ele>373</ele>
        <time>2017-03-25T10:19:25Z</time>
      </trkpt>
      <trkpt lat="45.88606" lon="4.6629">
        <ele>373</ele>
        <time>2017-03-25T10:19:26Z</time>
      </trkpt>
      <trkpt lat="45.8861" lon="4.66298">
        <ele>373</ele>
        <time>2017-03-25T10:19:29Z</time>
      </trkpt>
      <trkpt lat="45.88612" lon="4.66301">
        <ele>373</ele>
        <time>2017-03-25T10:19:30Z</time>
      </trkpt>
      <trkpt lat="45.88616" lon="4.6631">
        <ele>374</ele>
        <time>2017-03-25T10:19:33Z</time>
      </trkpt>
      <trkpt lat="45.88618" lon="4.66313">
        <ele>374</ele>
        <time>2017-03-25T10:19:34Z</time>
      </trkpt>
      <trkpt lat="45.88623" lon="4.66321">
        <ele>374</ele>
        <time>2017-03-25T10:19:37Z</time>
      </trkpt>
      <trkpt lat="45.88625" lon="4.66324">
        <ele>374</ele>
        <time>2017-03-25T10:19:38Z</time>
      </trkpt>
      <trkpt lat="45.8863" lon="4.66333">
        <ele>374</ele>
        <time>2017-03-25T10:19:41Z</time>
      </trkpt>
      <trkpt lat="45.88631" lon="4.66336">
        <ele>380</ele>
        <time>2017-03-25T10:19:42Z</time>
      </trkpt>
      <trkpt lat="45.88636" lon="4.66345">
        <ele>380</ele>
        <time>2017-03-25T10:19:45Z</time>
      </trkpt>
      <trkpt lat="45.88637" lon="4.66348">
        <ele>380</ele>
        <time>2017-03-25T10:19:46Z</time>
      </trkpt>
      <trkpt lat="45.88642" lon="4.66357">
        <ele>380</ele>
        <time>2017-03-25T10:19:49Z</time>
      </trkpt>
      <trkpt lat="45.88644" lon="4.6636">
        <ele>380</ele>
        <time>2017-03-25T10:19:50Z</time>
      </trkpt>
      <trkpt lat="45.88649" lon="4.66368">
        <ele>380</ele>
        <time>2017-03-25T10:19:53Z</time>
      </trkpt>
      <trkpt lat="45.88651" lon="4.6637">
        <ele>380</ele>
        <time>2017-03-25T10:19:54Z</time>
      </trkpt>
      <trkpt lat="45.88656" lon="4.66378">
        <ele>381</ele>
        <time>2017-03-25T10:19:57Z</time>
      </trkpt>
      <trkpt lat="45.88658" lon="4.6638">
        <ele>381</ele>
        <time>2017-03-25T10:19:58Z</time>
      </trkpt>
      <trkpt lat="45.88664" lon="4.66386">
        <ele>381</ele>
        <time>2017-03-25T10:20:01Z</time>
      </trkpt>
      <trkpt lat="45.88666" lon="4.66388">
        <ele>382</ele>
        <time>2017-03-25T10:20:02Z</time>
      </trkpt>
      <trkpt lat="45.88672" lon="4.66393">
        <ele>378</ele>
        <time>2017-03-25T10:20:05Z</time>
      </trkpt>
      <trkpt lat="45.88675" lon="4.66395">
        <ele>378</ele>
        <time>2017-03-25T10:20:06Z</time>
      </trkpt>
      <trkpt lat="45.88681" lon="4.66402">
        <ele>379</ele>
        <time>2017-03-25T10:20:09Z</time>
      </trkpt>
      <trkpt lat="45.88683" lon="4.66404">
        <ele>379</ele>
        <time>2017-03-25T10:20:10Z</time>
      </trkpt>
      <trkpt lat="45.88689" lon="4.66411">
        <ele>379</ele>
        <time>2017-03-25T10:20:14Z</time>
      </trkpt>
      <trkpt lat="45.88692" lon="4.66413">
        <ele>378</ele>
        <time>2017-03-25T10:20:15Z</time>
      </trkpt>
      <trkpt lat="45.88698" lon="4.66418">
        <ele>384</ele>
        <time>2017-03-25T10:20:18Z</time>
      </trkpt>
      <trkpt lat="45.887" lon="4.6642">
        <ele>383</ele>
        <time>2017-03-25T10:20:19Z</time>
      </trkpt>
      <trkpt lat="45.88707" lon="4.66428">
        <ele>383</ele>
        <time>2017-03-25T10:20:23Z</time>
      </trkpt>
      <trkpt lat="45.88709" lon="4.66429">
        <ele>383</ele>
        <time>2017-03-25T10:20:24Z</time>
      </trkpt>
      <trkpt lat="45.88715" lon="4.66434">
        <ele>383</ele>
        <time>2017-03-25T10:20:27Z</time>
      </trkpt>
      <trkpt lat="45.88717" lon="4.66436">
        <ele>383</ele>
        <time>2017-03-25T10:20:28Z</time>
      </trkpt>
      <trkpt lat="45.88723" lon="4.66443">
        <ele>383</ele>
        <time>2017-03-25T10:20:31Z</time>
      </trkpt>
      <trkpt lat="45.88725" lon="4.66445">
        <ele>384</ele>
        <time>2017-03-25T10:20:32Z</time>
      </trkpt>
      <trkpt lat="45.8873" lon="4.66452">
        <ele>384</ele>
        <time>2017-03-25T10:20:35Z</time>
      </trkpt>
      <trkpt lat="45.88732" lon="4.66454">
        <ele>384</ele>
        <time>2017-03-25T10:20:36Z</time>
      </trkpt>
      <trkpt lat="45.88737" lon="4.66461">
        <ele>384</ele>
        <time>2017-03-25T10:20:39Z</time>
      </trkpt>
      <trkpt lat="45.88739" lon="4.66463">
        <ele>384</ele>
        <time>2017-03-25T10:20:40Z</time>
      </trkpt>
      <trkpt lat="45.88744" lon="4.6647">
        <ele>385</ele>
        <time>2017-03-25T10:20:43Z</time>
      </trkpt>
      <trkpt lat="45.88746" lon="4.66472">
        <ele>385</ele>
        <time>2017-03-25T10:20:44Z</time>
      </trkpt>
      <trkpt lat="45.88751" lon="4.6648">
        <ele>384</ele>
        <time>2017-03-25T10:20:47Z</time>
      </trkpt>
      <trkpt lat="45.88752" lon="4.66482">
        <ele>384</ele>
        <time>2017-03-25T10:20:48Z</time>
      </trkpt>
      <trkpt lat="45.88758" lon="4.66489">
        <ele>384</ele>
        <time>2017-03-25T10:20:52Z</time>
      </trkpt>
      <trkpt lat="45.8876" lon="4.66491">
        <ele>384</ele>
        <time>2017-03-25T10:20:53Z</time>
      </trkpt>
      <trkpt lat="45.88766" lon="4.66497">
        <ele>384</ele>
        <time>2017-03-25T10:20:56Z</time>
      </trkpt>
      <trkpt lat="45.88768" lon="4.665">
        <ele>386</ele>
        <time>2017-03-25T10:20:57Z</time>
      </trkpt>
      <trkpt lat="45.88774" lon="4.66508">
        <ele>390</ele>
        <time>2017-03-25T10:21:00Z</time>
      </trkpt>
      <trkpt lat="45.88775" lon="4.6651">
        <ele>390</ele>
        <time>2017-03-25T10:21:01Z</time>
      </trkpt>
      <trkpt lat="45.88782" lon="4.66518">
        <ele>390</ele>
        <time>2017-03-25T10:21:05Z</time>
      </trkpt>
      <trkpt lat="45.88784" lon="4.66519">
        <ele>390</ele>
        <time>2017-03-25T10:21:06Z</time>
      </trkpt>
      <trkpt lat="45.8879" lon="4.66524">
        <ele>390</ele>
        <time>2017-03-25T10:21:09Z</time>
      </trkpt>
      <trkpt lat="45.88792" lon="4.66527">
        <ele>391</ele>
        <time>2017-03-25T10:21:10Z</time>
      </trkpt>
      <trkpt lat="45.88798" lon="4.66534">
        <ele>391</ele>
        <time>2017-03-25T10:21:13Z</time>
      </trkpt>
      <trkpt lat="45.888" lon="4.66535">
        <ele>391</ele>
        <time>2017-03-25T10:21:14Z</time>
      </trkpt>
      <trkpt lat="45.88807" lon="4.66537">
        <ele>391</ele>
        <time>2017-03-25T10:21:18Z</time>
      </trkpt>
      <trkpt lat="45.88809" lon="4.66538">
        <ele>391</ele>
        <time>2017-03-25T10:21:19Z</time>
      </trkpt>
      <trkpt lat="45.88816" lon="4.66544">
        <ele>392</ele>
        <time>2017-03-25T10:21:23Z</time>
      </trkpt>
      <trkpt lat="45.88818" lon="4.66546">
        <ele>392</ele>
        <time>2017-03-25T10:21:24Z</time>
      </trkpt>
      <trkpt lat="45.88825" lon="4.66549">
        <ele>392</ele>
        <time>2017-03-25T10:21:27Z</time>
      </trkpt>
      <trkpt lat="45.88827" lon="4.66551">
        <ele>392</ele>
        <time>2017-03-25T10:21:28Z</time>
      </trkpt>
      <trkpt lat="45.88834" lon="4.66555">
        <ele>391</ele>
        <time>2017-03-25T10:21:32Z</time>
      </trkpt>
      <trkpt lat="45.88836" lon="4.66556">
        <ele>391</ele>
        <time>2017-03-25T10:21:33Z</time>
      </trkpt>
      <trkpt lat="45.88843" lon="4.6656">
        <ele>392</ele>
        <time>2017-03-25T10:21:37Z</time>
      </trkpt>
      <trkpt lat="45.88845" lon="4.66561">
        <ele>392</ele>
        <time>2017-03-25T10:21:38Z</time>
      </trkpt>
      <trkpt lat="45.88851" lon="4.66565">
        <ele>392</ele>
        <time>2017-03-25T10:21:41Z</time>
      </trkpt>
      <trkpt lat="45.88853" lon="4.66567">
        <ele>392</ele>
        <time>2017-03-25T10:21:42Z</time>
      </trkpt>
      <trkpt lat="45.88859" lon="4.66574">
        <ele>392</ele>
        <time>2017-03-25T10:21:45Z</time>
      </trkpt>
      <trkpt lat="45.88861" lon="4.66576">
        <ele>392</ele>
        <time>2017-03-25T10:21:46Z</time>
      </trkpt>
      <trkpt lat="45.88867" lon="4.66584">
        <ele>399</ele>
        <time>2017-03-25T10:21:50Z</time>
      </trkpt>
      <trkpt lat="45.88869" lon="4.66586">
        <ele>399</ele>
        <time>2017-03-25T10:21:51Z</time>
      </trkpt>
      <trkpt lat="45.88874" lon="4.66594">
        <ele>399</ele>
        <time>2017-03-25T10:21:54Z</time>
      </trkpt>
      <trkpt lat="45.88875" lon="4.66596">
        <ele>399</ele>
        <time>2017-03-25T10:21:55Z</time>
      </trkpt>
      <trkpt lat="45.88882" lon="4.66603">
        <ele>400</ele>
        <time>2017-03-25T10:21:59Z</time>
      </trkpt>
      <trkpt lat="45.88883" lon="4.66606">
        <ele>400</ele>
        <time>2017-03-25T10:22:00Z</time>
      </trkpt>
      <trkpt lat="45.88888" lon="4.66613">
        <ele>400</ele>
        <time>2017-03-25T10:22:04Z</time>
      </trkpt>
      <trkpt lat="45.8889" lon="4.66614">
        <ele>400</ele>
        <time>2017-03-25T10:22:05Z</time>
      </trkpt>
      <trkpt lat="45.88894" lon="4.66623">
        <ele>401</ele>
        <time>2017-03-25T10:22:09Z</time>
      </trkpt>
      <trkpt lat="45.88895" lon="4.66626">
        <ele>401</ele>
        <time>2017-03-25T10:22:10Z</time>
      </trkpt>
      <trkpt lat="45.88899" lon="4.66633">
        <ele>402</ele>
        <time>2017-03-25T10:22:14Z</time>
      </trkpt>
      <trkpt lat="45.88901" lon="4.66636">
        <ele>402</ele>
        <time>2017-03-25T10:22:15Z</time>
      </trkpt>
      <trkpt lat="45.88905" lon="4.66645">
        <ele>403</ele>
        <time>2017-03-25T10:22:19Z</time>
      </trkpt>
      <trkpt lat="45.88906" lon="4.66647">
        <ele>403</ele>
        <time>2017-03-25T10:22:20Z</time>
      </trkpt>
      <trkpt lat="45.88912" lon="4.66653">
        <ele>404</ele>
        <time>2017-03-25T10:22:23Z</time>
      </trkpt>
      <trkpt lat="45.88914" lon="4.66655">
        <ele>404</ele>
        <time>2017-03-25T10:22:24Z</time>
      </trkpt>
      <trkpt lat="45.8892" lon="4.66661">
        <ele>404</ele>
        <time>2017-03-25T10:22:27Z</time>
      </trkpt>
      <trkpt lat="45.88922" lon="4.66662">
        <ele>404</ele>
        <time>2017-03-25T10:22:28Z</time>
      </trkpt>
      <trkpt lat="45.88929" lon="4.66669">
        <ele>407</ele>
        <time>2017-03-25T10:22:32Z</time>
      </trkpt>
      <trkpt lat="45.88931" lon="4.6667">
        <ele>408</ele>
        <time>2017-03-25T10:22:33Z</time>
      </trkpt>
      <trkpt lat="45.88939" lon="4.66677">
        <ele>408</ele>
        <time>2017-03-25T10:22:37Z</time>
      </trkpt>
      <trkpt lat="45.88941" lon="4.66679">
        <ele>408</ele>
        <time>2017-03-25T10:22:38Z</time>
      </trkpt>
      <trkpt lat="45.88947" lon="4.66684">
        <ele>408</ele>
        <time>2017-03-25T10:22:41Z</time>
      </trkpt>
      <trkpt lat="45.88949" lon="4.66685">
        <ele>409</ele>
        <time>2017-03-25T10:22:42Z</time>
      </trkpt>
      <trkpt lat="45.88956" lon="4.6669">
        <ele>409</ele>
        <time>2017-03-25T10:22:45Z</time>
      </trkpt>
      <trkpt lat="45.88959" lon="4.66692">
        <ele>409</ele>
        <time>2017-03-25T10:22:46Z</time>
      </trkpt>
      <trkpt lat="45.88966" lon="4.66695">
        <ele>409</ele>
        <time>2017-03-25T10:22:48Z</time>
      </trkpt>
      <trkpt lat="45.88969" lon="4.66697">
        <ele>409</ele>
        <time>2017-03-25T10:22:49Z</time>
      </trkpt>
      <trkpt lat="45.88977" lon="4.66701">
        <ele>409</ele>
        <time>2017-03-25T10:22:52Z</time>
      </trkpt>
      <trkpt lat="45.88979" lon="4.66702">
        <ele>409</ele>
        <time>2017-03-25T10:22:53Z</time>
      </trkpt>
      <trkpt lat="45.88986" lon="4.66704">
        <ele>409</ele>
        <time>2017-03-25T10:22:56Z</time>
      </trkpt>
      <trkpt lat="45.88988" lon="4.66705">
        <ele>409</ele>
        <time>2017-03-25T10:22:57Z</time>
      </trkpt>
      <trkpt lat="45.88996" lon="4.66709">
        <ele>409</ele>
        <time>2017-03-25T10:23:00Z</time>
      </trkpt>
      <trkpt lat="45.88998" lon="4.66709">
        <ele>409</ele>
        <time>2017-03-25T10:23:01Z</time>
      </trkpt>
      <trkpt lat="45.89006" lon="4.66713">
        <ele>407</ele>
        <time>2017-03-25T10:23:04Z</time>
      </trkpt>
      <trkpt lat="45.89008" lon="4.66715">
        <ele>407</ele>
        <time>2017-03-25T10:23:05Z</time>
      </trkpt>
      <trkpt lat="45.89016" lon="4.66719">
        <ele>407</ele>
        <time>2017-03-25T10:23:08Z</time>
      </trkpt>
      <trkpt lat="45.89018" lon="4.6672">
        <ele>407</ele>
        <time>2017-03-25T10:23:09Z</time>
      </trkpt>
      <trkpt lat="45.89027" lon="4.66723">
        <ele>407</ele>
        <time>2017-03-25T10:23:12Z</time>
      </trkpt>
      <trkpt lat="45.8903" lon="4.66725">
        <ele>407</ele>
        <time>2017-03-25T10:23:13Z</time>
      </trkpt>
      <trkpt lat="45.89037" lon="4.66729">
        <ele>407</ele>
        <time>2017-03-25T10:23:16Z</time>
      </trkpt>
      <trkpt lat="45.8904" lon="4.66731">
        <ele>407</ele>
        <time>2017-03-25T10:23:17Z</time>
      </trkpt>
      <trkpt lat="45.89045" lon="4.66736">
        <ele>407</ele>
        <time>2017-03-25T10:23:20Z</time>
      </trkpt>
      <trkpt lat="45.89048" lon="4.66738">
        <ele>407</ele>
        <time>2017-03-25T10:23:21Z</time>
      </trkpt>
      <trkpt lat="45.89054" lon="4.66743">
        <ele>407</ele>
        <time>2017-03-25T10:23:24Z</time>
      </trkpt>
      <trkpt lat="45.89055" lon="4.66745">
        <ele>407</ele>
        <time>2017-03-25T10:23:25Z</time>
      </trkpt>
      <trkpt lat="45.89059" lon="4.66754">
        <ele>412</ele>
        <time>2017-03-25T10:23:27Z</time>
      </trkpt>
      <trkpt lat="45.89061" lon="4.66755">
        <ele>412</ele>
        <time>2017-03-25T10:23:28Z</time>
      </trkpt>
      <trkpt lat="45.89067" lon="4.66764">
        <ele>412</ele>
        <time>2017-03-25T10:23:31Z</time>
      </trkpt>
      <trkpt lat="45.8907" lon="4.66767">
        <ele>412</ele>
        <time>2017-03-25T10:23:32Z</time>
      </trkpt>
      <trkpt lat="45.89075" lon="4.66771">
        <ele>412</ele>
        <time>2017-03-25T10:23:34Z</time>
      </trkpt>
      <trkpt lat="45.89079" lon="4.66772">
        <ele>412</ele>
        <time>2017-03-25T10:23:35Z</time>
      </trkpt>
      <trkpt lat="45.89086" lon="4.66776">
        <ele>410</ele>
        <time>2017-03-25T10:23:38Z</time>
      </trkpt>
      <trkpt lat="45.89089" lon="4.66779">
        <ele>410</ele>
        <time>2017-03-25T10:23:39Z</time>
      </trkpt>
      <trkpt lat="45.89094" lon="4.66785">
        <ele>410</ele>
        <time>2017-03-25T10:23:41Z</time>
      </trkpt>
      <trkpt lat="45.89096" lon="4.66788">
        <ele>410</ele>
        <time>2017-03-25T10:23:42Z</time>
      </trkpt>
      <trkpt lat="45.89102" lon="4.66793">
        <ele>410</ele>
        <time>2017-03-25T10:23:44Z</time>
      </trkpt>
      <trkpt lat="45.89105" lon="4.66795">
        <ele>410</ele>
        <time>2017-03-25T10:23:45Z</time>
      </trkpt>
      <trkpt lat="45.89111" lon="4.66799">
        <ele>410</ele>
        <time>2017-03-25T10:23:47Z</time>
      </trkpt>
      <trkpt lat="45.89114" lon="4.66801">
        <ele>411</ele>
        <time>2017-03-25T10:23:48Z</time>
      </trkpt>
      <trkpt lat="45.89119" lon="4.66807">
        <ele>411</ele>
        <time>2017-03-25T10:23:50Z</time>
      </trkpt>
      <trkpt lat="45.89122" lon="4.66809">
        <ele>411</ele>
        <time>2017-03-25T10:23:51Z</time>
      </trkpt>
      <trkpt lat="45.8913" lon="4.66811">
        <ele>411</ele>
        <time>2017-03-25T10:23:53Z</time>
      </trkpt>
      <trkpt lat="45.89134" lon="4.66813">
        <ele>411</ele>
        <time>2017-03-25T10:23:54Z</time>
      </trkpt>
      <trkpt lat="45.89141" lon="4.66817">
        <ele>411</ele>
        <time>2017-03-25T10:23:56Z</time>
      </trkpt>
      <trkpt lat="45.89145" lon="4.6682">
        <ele>411</ele>
        <time>2017-03-25T10:23:57Z</time>
      </trkpt>
      <trkpt lat="45.8915" lon="4.66829">
        <ele>412</ele>
        <time>2017-03-25T10:23:59Z</time>
      </trkpt>
      <trkpt lat="45.89151" lon="4.66834">
        <ele>414</ele>
        <time>2017-03-25T10:24:00Z</time>
      </trkpt>
      <trkpt lat="45.8915" lon="4.66843">
        <ele>414</ele>
        <time>2017-03-25T10:24:02Z</time>
      </trkpt>
      <trkpt lat="45.8915" lon="4.66847">
        <ele>414</ele>
        <time>2017-03-25T10:24:03Z</time>
      </trkpt>
      <trkpt lat="45.89149" lon="4.66856">
        <ele>414</ele>
        <time>2017-03-25T10:24:05Z</time>
      </trkpt>
      <trkpt lat="45.89148" lon="4.66861">
        <ele>414</ele>
        <time>2017-03-25T10:24:06Z</time>
      </trkpt>
      <trkpt lat="45.89149" lon="4.66873">
        <ele>414</ele>
        <time>2017-03-25T10:24:08Z</time>
      </trkpt>
      <trkpt lat="45.8915" lon="4.66879">
        <ele>414</ele>
        <time>2017-03-25T10:24:09Z</time>
      </trkpt>
      <trkpt lat="45.89153" lon="4.66891">
        <ele>414</ele>
        <time>2017-03-25T10:24:11Z</time>
      </trkpt>
      <trkpt lat="45.89154" lon="4.66897">
        <ele>414</ele>
        <time>2017-03-25T10:24:12Z</time>
      </trkpt>
      <trkpt lat="45.89156" lon="4.66908">
        <ele>415</ele>
        <time>2017-03-25T10:24:14Z</time>
      </trkpt>
      <trkpt lat="45.89158" lon="4.66913">
        <ele>415</ele>
        <time>2017-03-25T10:24:15Z</time>
      </trkpt>
      <trkpt lat="45.89161" lon="4.66923">
        <ele>414</ele>
        <time>2017-03-25T10:24:17Z</time>
      </trkpt>
      <trkpt lat="45.89162" lon="4.66928">
        <ele>414</ele>
        <time>2017-03-25T10:24:18Z</time>
      </trkpt>
      <trkpt lat="45.89166" lon="4.66939">
        <ele>413</ele>
        <time>2017-03-25T10:24:20Z</time>
      </trkpt>
      <trkpt lat="45.89167" lon="4.66943">
        <ele>415</ele>
        <time>2017-03-25T10:24:21Z</time>
      </trkpt>
      <trkpt lat="45.89169" lon="4.66952">
        <ele>415</ele>
        <time>2017-03-25T10:24:23Z</time>
      </trkpt>
      <trkpt lat="45.89171" lon="4.66957">
        <ele>415</ele>
        <time>2017-03-25T10:24:24Z</time>
      </trkpt>
      <trkpt lat="45.89173" lon="4.66967">
        <ele>415</ele>
        <time>2017-03-25T10:24:26Z</time>
      </trkpt>
      <trkpt lat="45.89175" lon="4.66972">
        <ele>415</ele>
        <time>2017-03-25T10:24:27Z</time>
      </trkpt>
      <trkpt lat="45.89176" lon="4.66978">
        <ele>414</ele>
        <time>2017-03-25T10:24:28Z</time>
      </trkpt>
      <trkpt lat="45.89178" lon="4.66984">
        <ele>414</ele>
        <time>2017-03-25T10:24:29Z</time>
      </trkpt>
      <trkpt lat="45.8918" lon="4.66991">
        <ele>414</ele>
        <time>2017-03-25T10:24:30Z</time>
      </trkpt>
      <trkpt lat="45.89182" lon="4.66998">
        <ele>413</ele>
        <time>2017-03-25T10:24:31Z</time>
      </trkpt>
      <trkpt lat="45.89184" lon="4.67005">
        <ele>412</ele>
        <time>2017-03-25T10:24:32Z</time>
      </trkpt>
      <trkpt lat="45.89185" lon="4.67013">
        <ele>412</ele>
        <time>2017-03-25T10:24:33Z</time>
      </trkpt>
      <trkpt lat="45.89187" lon="4.6702">
        <ele>413</ele>
        <time>2017-03-25T10:24:34Z</time>
      </trkpt>
      <trkpt lat="45.89189" lon="4.67028">
        <ele>413</ele>
        <time>2017-03-25T10:24:35Z</time>
      </trkpt>
      <trkpt lat="45.89192" lon="4.67034">
        <ele>413</ele>
        <time>2017-03-25T10:24:36Z</time>
      </trkpt>
      <trkpt lat="45.89194" lon="4.67041">
        <ele>412</ele>
        <time>2017-03-25T10:24:37Z</time>
      </trkpt>
      <trkpt lat="45.89195" lon="4.67047">
        <ele>412</ele>
        <time>2017-03-25T10:24:38Z</time>
      </trkpt>
      <trkpt lat="45.89197" lon="4.67053">
        <ele>412</ele>
        <time>2017-03-25T10:24:39Z</time>
      </trkpt>
      <trkpt lat="45.89201" lon="4.67064">
        <ele>412</ele>
        <time>2017-03-25T10:24:41Z</time>
      </trkpt>
      <trkpt lat="45.89202" lon="4.67069">
        <ele>412</ele>
        <time>2017-03-25T10:24:42Z</time>
      </trkpt>
      <trkpt lat="45.89206" lon="4.67079">
        <ele>412</ele>
        <time>2017-03-25T10:24:44Z</time>
      </trkpt>
      <trkpt lat="45.89208" lon="4.67084">
        <ele>410</ele>
        <time>2017-03-25T10:24:45Z</time>
      </trkpt>
      <trkpt lat="45.89212" lon="4.67093">
        <ele>410</ele>
        <time>2017-03-25T10:24:47Z</time>
      </trkpt>
      <trkpt lat="45.89214" lon="4.67097">
        <ele>410</ele>
        <time>2017-03-25T10:24:48Z</time>
      </trkpt>
      <trkpt lat="45.89219" lon="4.67106">
        <ele>411</ele>
        <time>2017-03-25T10:24:50Z</time>
      </trkpt>
      <trkpt lat="45.89221" lon="4.67111">
        <ele>411</ele>
        <time>2017-03-25T10:24:51Z</time>
      </trkpt>
      <trkpt lat="45.89225" lon="4.67119">
        <ele>411</ele>
        <time>2017-03-25T10:24:53Z</time>
      </trkpt>
      <trkpt lat="45.89228" lon="4.67123">
        <ele>411</ele>
        <time>2017-03-25T10:24:54Z</time>
      </trkpt>
      <trkpt lat="45.89232" lon="4.67131">
        <ele>411</ele>
        <time>2017-03-25T10:24:56Z</time>
      </trkpt>
      <trkpt lat="45.89234" lon="4.67135">
        <ele>411</ele>
        <time>2017-03-25T10:24:57Z</time>
      </trkpt>
      <trkpt lat="45.89239" lon="4.67144">
        <ele>411</ele>
        <time>2017-03-25T10:24:59Z</time>
      </trkpt>
      <trkpt lat="45.89242" lon="4.67149">
        <ele>411</ele>
        <time>2017-03-25T10:25:00Z</time>
      </trkpt>
      <trkpt lat="45.89248" lon="4.67157">
        <ele>412</ele>
        <time>2017-03-25T10:25:02Z</time>
      </trkpt>
      <trkpt lat="45.89251" lon="4.6716">
        <ele>414</ele>
        <time>2017-03-25T10:25:03Z</time>
      </trkpt>
      <trkpt lat="45.89258" lon="4.67168">
        <ele>413</ele>
        <time>2017-03-25T10:25:05Z</time>
      </trkpt>
      <trkpt lat="45.89262" lon="4.67173">
        <ele>412</ele>
        <time>2017-03-25T10:25:06Z</time>
      </trkpt>
      <trkpt lat="45.89267" lon="4.67177">
        <ele>412</ele>
        <time>2017-03-25T10:25:07Z</time>
      </trkpt>
      <trkpt lat="45.89272" lon="4.6718">
        <ele>412</ele>
        <time>2017-03-25T10:25:08Z</time>
      </trkpt>
      <trkpt lat="45.89276" lon="4.67184">
        <ele>412</ele>
        <time>2017-03-25T10:25:09Z</time>
      </trkpt>
      <trkpt lat="45.89281" lon="4.67187">
        <ele>412</ele>
        <time>2017-03-25T10:25:10Z</time>
      </trkpt>
      <trkpt lat="45.89286" lon="4.6719">
        <ele>412</ele>
        <time>2017-03-25T10:25:11Z</time>
      </trkpt>
      <trkpt lat="45.89291" lon="4.67193">
        <ele>412</ele>
        <time>2017-03-25T10:25:12Z</time>
      </trkpt>
      <trkpt lat="45.89295" lon="4.67197">
        <ele>412</ele>
        <time>2017-03-25T10:25:13Z</time>
      </trkpt>
      <trkpt lat="45.893" lon="4.672">
        <ele>412</ele>
        <time>2017-03-25T10:25:14Z</time>
      </trkpt>
      <trkpt lat="45.89305" lon="4.67202">
        <ele>412</ele>
        <time>2017-03-25T10:25:15Z</time>
      </trkpt>
      <trkpt lat="45.89309" lon="4.67205">
        <ele>412</ele>
        <time>2017-03-25T10:25:16Z</time>
      </trkpt>
      <trkpt lat="45.89314" lon="4.67208">
        <ele>412</ele>
        <time>2017-03-25T10:25:17Z</time>
      </trkpt>
      <trkpt lat="45.89318" lon="4.6721">
        <ele>411</ele>
        <time>2017-03-25T10:25:18Z</time>
      </trkpt>
      <trkpt lat="45.89323" lon="4.67212">
        <ele>411</ele>
        <time>2017-03-25T10:25:19Z</time>
      </trkpt>
      <trkpt lat="45.89328" lon="4.67215">
        <ele>411</ele>
        <time>2017-03-25T10:25:20Z</time>
      </trkpt>
      <trkpt lat="45.89333" lon="4.67217">
        <ele>411</ele>
        <time>2017-03-25T10:25:21Z</time>
      </trkpt>
      <trkpt lat="45.89337" lon="4.6722">
        <ele>415</ele>
        <time>2017-03-25T10:25:22Z</time>
      </trkpt>
      <trkpt lat="45.89342" lon="4.67223">
        <ele>415</ele>
        <time>2017-03-25T10:25:23Z</time>
      </trkpt>
      <trkpt lat="45.89347" lon="4.67227">
        <ele>415</ele>
        <time>2017-03-25T10:25:24Z</time>
      </trkpt>
      <trkpt lat="45.89352" lon="4.67232">
        <ele>414</ele>
        <time>2017-03-25T10:25:25Z</time>
      </trkpt>
      <trkpt lat="45.89356" lon="4.67237">
        <ele>414</ele>
        <time>2017-03-25T10:25:26Z</time>
      </trkpt>
      <trkpt lat="45.8936" lon="4.67243">
        <ele>415</ele>
        <time>2017-03-25T10:25:27Z</time>
      </trkpt>
      <trkpt lat="45.89364" lon="4.67249">
        <ele>415</ele>
        <time>2017-03-25T10:25:28Z</time>
      </trkpt>
      <trkpt lat="45.89368" lon="4.67256">
        <ele>409</ele>
        <time>2017-03-25T10:25:29Z</time>
      </trkpt>
      <trkpt lat="45.89372" lon="4.67263">
        <ele>409</ele>
        <time>2017-03-25T10:25:30Z</time>
      </trkpt>
      <trkpt lat="45.89376" lon="4.6727">
        <ele>409</ele>
        <time>2017-03-25T10:25:31Z</time>
      </trkpt>
      <trkpt lat="45.8938" lon="4.67277">
        <ele>409</ele>
        <time>2017-03-25T10:25:32Z</time>
      </trkpt>
      <trkpt lat="45.89384" lon="4.67284">
        <ele>408</ele>
        <time>2017-03-25T10:25:33Z</time>
      </trkpt>
      <trkpt lat="45.89388" lon="4.67291">
        <ele>408</ele>
        <time>2017-03-25T10:25:34Z</time>
      </trkpt>
      <trkpt lat="45.89392" lon="4.67298">
        <ele>408</ele>
        <time>2017-03-25T10:25:35Z</time>
      </trkpt>
      <trkpt lat="45.89397" lon="4.67303">
        <ele>408</ele>
        <time>2017-03-25T10:25:36Z</time>
      </trkpt>
      <trkpt lat="45.89401" lon="4.67309">
        <ele>408</ele>
        <time>2017-03-25T10:25:37Z</time>
      </trkpt>
      <trkpt lat="45.89405" lon="4.67315">
        <ele>407</ele>
        <time>2017-03-25T10:25:38Z</time>
      </trkpt>
      <trkpt lat="45.8941" lon="4.67321">
        <ele>407</ele>
        <time>2017-03-25T10:25:39Z</time>
      </trkpt>
      <trkpt lat="45.89414" lon="4.67327">
        <ele>407</ele>
        <time>2017-03-25T10:25:40Z</time>
      </trkpt>
      <trkpt lat="45.89419" lon="4.67332">
        <ele>408</ele>
        <time>2017-03-25T10:25:41Z</time>
      </trkpt>
      <trkpt lat="45.89423" lon="4.67338">
        <ele>407</ele>
        <time>2017-03-25T10:25:42Z</time>
      </trkpt>
      <trkpt lat="45.89427" lon="4.67344">
        <ele>407</ele>
        <time>2017-03-25T10:25:43Z</time>
      </trkpt>
      <trkpt lat="45.89432" lon="4.67349">
        <ele>407</ele>
        <time>2017-03-25T10:25:44Z</time>
      </trkpt>
      <trkpt lat="45.89437" lon="4.67355">
        <ele>407</ele>
        <time>2017-03-25T10:25:45Z</time>
      </trkpt>
      <trkpt lat="45.89442" lon="4.6736">
        <ele>407</ele>
        <time>2017-03-25T10:25:46Z</time>
      </trkpt>
      <trkpt lat="45.89448" lon="4.67364">
        <ele>407</ele>
        <time>2017-03-25T10:25:47Z</time>
      </trkpt>
      <trkpt lat="45.89453" lon="4.67369">
        <ele>407</ele>
        <time>2017-03-25T10:25:48Z</time>
      </trkpt>
      <trkpt lat="45.89459" lon="4.67373">
        <ele>407</ele>
        <time>2017-03-25T10:25:49Z</time>
      </trkpt>
      <trkpt lat="45.89464" lon="4.67378">
        <ele>407</ele>
        <time>2017-03-25T10:25:50Z</time>
      </trkpt>
      <trkpt lat="45.8947" lon="4.67382">
        <ele>407</ele>
        <time>2017-03-25T10:25:51Z</time>
      </trkpt>
      <trkpt lat="45.89476" lon="4.67386">
        <ele>407</ele>
        <time>2017-03-25T10:25:52Z</time>
      </trkpt>
      <trkpt lat="45.89481" lon="4.6739">
        <ele>407</ele>
        <time>2017-03-25T10:25:53Z</time>
      </trkpt>
      <trkpt lat="45.89487" lon="4.67395">
        <ele>406</ele>
        <time>2017-03-25T10:25:54Z</time>
      </trkpt>
      <trkpt lat="45.89492" lon="4.67399">
        <ele>406</ele>
        <time>2017-03-25T10:25:55Z</time>
      </trkpt>
      <trkpt lat="45.89498" lon="4.67403">
        <ele>406</ele>
        <time>2017-03-25T10:25:56Z</time>
      </trkpt>
      <trkpt lat="45.89503" lon="4.67407">
        <ele>407</ele>
        <time>2017-03-25T10:25:57Z</time>
      </trkpt>
      <trkpt lat="45.89509" lon="4.67411">
        <ele>407</ele>
        <time>2017-03-25T10:25:58Z</time>
      </trkpt>
      <trkpt lat="45.89514" lon="4.67415">
        <ele>408</ele>
        <time>2017-03-25T10:25:59Z</time>
      </trkpt>
      <trkpt lat="45.8952" lon="4.67418">
        <ele>402</ele>
        <time>2017-03-25T10:26:00Z</time>
      </trkpt>
      <trkpt lat="45.89525" lon="4.67422">
        <ele>402</ele>
        <time>2017-03-25T10:26:01Z</time>
      </trkpt>
      <trkpt lat="45.89531" lon="4.67424">
        <ele>402</ele>
        <time>2017-03-25T10:26:02Z</time>
      </trkpt>
      <trkpt lat="45.89536" lon="4.67427">
        <ele>402</ele>
        <time>2017-03-25T10:26:03Z</time>
      </trkpt>
      <trkpt lat="45.89542" lon="4.67429">
        <ele>402</ele>
        <time>2017-03-25T10:26:04Z</time>
      </trkpt>
      <trkpt lat="45.89548" lon="4.67431">
        <ele>402</ele>
        <time>2017-03-25T10:26:05Z</time>
      </trkpt>
      <trkpt lat="45.89553" lon="4.67433">
        <ele>402</ele>
        <time>2017-03-25T10:26:06Z</time>
      </trkpt>
      <trkpt lat="45.89559" lon="4.67435">
        <ele>403</ele>
        <time>2017-03-25T10:26:07Z</time>
      </trkpt>
      <trkpt lat="45.89565" lon="4.67436">
        <ele>403</ele>
        <time>2017-03-25T10:26:08Z</time>
      </trkpt>
      <trkpt lat="45.89571" lon="4.67438">
        <ele>403</ele>
        <time>2017-03-25T10:26:09Z</time>
      </trkpt>
      <trkpt lat="45.89578" lon="4.67441">
        <ele>403</ele>
        <time>2017-03-25T10:26:10Z</time>
      </trkpt>
      <trkpt lat="45.89585" lon="4.67443">
        <ele>405</ele>
        <time>2017-03-25T10:26:11Z</time>
      </trkpt>
      <trkpt lat="45.89592" lon="4.67445">
        <ele>404</ele>
        <time>2017-03-25T10:26:12Z</time>
      </trkpt>
      <trkpt lat="45.89599" lon="4.67448">
        <ele>404</ele>
        <time>2017-03-25T10:26:13Z</time>
      </trkpt>
      <trkpt lat="45.89607" lon="4.6745">
        <ele>404</ele>
        <time>2017-03-25T10:26:14Z</time>
      </trkpt>
      <trkpt lat="45.89615" lon="4.67453">
        <ele>404</ele>
        <time>2017-03-25T10:26:15Z</time>
      </trkpt>
      <trkpt lat="45.89622" lon="4.67456">
        <ele>403</ele>
        <time>2017-03-25T10:26:16Z</time>
      </trkpt>
      <trkpt lat="45.89629" lon="4.67458">
        <ele>403</ele>
        <time>2017-03-25T10:26:17Z</time>
      </trkpt>
      <trkpt lat="45.89636" lon="4.67461">
        <ele>403</ele>
        <time>2017-03-25T10:26:18Z</time>
      </trkpt>
      <trkpt lat="45.89643" lon="4.67463">
        <ele>403</ele>
        <time>2017-03-25T10:26:19Z</time>
      </trkpt>
      <trkpt lat="45.8965" lon="4.67465">
        <ele>403</ele>
        <time>2017-03-25T10:26:20Z</time>
      </trkpt>
      <trkpt lat="45.89657" lon="4.67468">
        <ele>403</ele>
        <time>2017-03-25T10:26:21Z</time>
      </trkpt>
      <trkpt lat="45.89664" lon="4.6747">
        <ele>403</ele>
        <time>2017-03-25T10:26:22Z</time>
      </trkpt>
      <trkpt lat="45.89671" lon="4.67473">
        <ele>403</ele>
        <time>2017-03-25T10:26:23Z</time>
      </trkpt>
      <trkpt lat="45.89679" lon="4.67476">
        <ele>402</ele>
        <time>2017-03-25T10:26:24Z</time>
      </trkpt>
      <trkpt lat="45.89686" lon="4.67479">
        <ele>402</ele>
        <time>2017-03-25T10:26:25Z</time>
      </trkpt>
      <trkpt lat="45.89694" lon="4.67482">
        <ele>402</ele>
        <time>2017-03-25T10:26:26Z</time>
      </trkpt>
      <trkpt lat="45.89701" lon="4.67484">
        <ele>402</ele>
        <time>2017-03-25T10:26:27Z</time>
      </trkpt>
      <trkpt lat="45.89708" lon="4.67486">
        <ele>402</ele>
        <time>2017-03-25T10:26:28Z</time>
      </trkpt>
      <trkpt lat="45.89716" lon="4.67488">
        <ele>402</ele>
        <time>2017-03-25T10:26:29Z</time>
      </trkpt>
      <trkpt lat="45.89723" lon="4.6749">
        <ele>402</ele>
        <time>2017-03-25T10:26:30Z</time>
      </trkpt>
      <trkpt lat="45.89731" lon="4.67491">
        <ele>402</ele>
        <time>2017-03-25T10:26:31Z</time>
      </trkpt>
      <trkpt lat="45.89738" lon="4.67492">
        <ele>401</ele>
        <time>2017-03-25T10:26:32Z</time>
      </trkpt>
      <trkpt lat="45.89745" lon="4.67493">
        <ele>400</ele>
        <time>2017-03-25T10:26:33Z</time>
      </trkpt>
      <trkpt lat="45.89752" lon="4.67492">
        <ele>399</ele>
        <time>2017-03-25T10:26:34Z</time>
      </trkpt>
      <trkpt lat="45.89759" lon="4.67492">
        <ele>399</ele>
        <time>2017-03-25T10:26:35Z</time>
      </trkpt>
      <trkpt lat="45.89766" lon="4.67492">
        <ele>399</ele>
        <time>2017-03-25T10:26:36Z</time>
      </trkpt>
      <trkpt lat="45.89773" lon="4.67491">
        <ele>399</ele>
        <time>2017-03-25T10:26:37Z</time>
      </trkpt>
      <trkpt lat="45.8978" lon="4.6749">
        <ele>399</ele>
        <time>2017-03-25T10:26:38Z</time>
      </trkpt>
      <trkpt lat="45.89788" lon="4.67487">
        <ele>399</ele>
        <time>2017-03-25T10:26:39Z</time>
      </trkpt>
      <trkpt lat="45.89795" lon="4.67483">
        <ele>399</ele>
        <time>2017-03-25T10:26:40Z</time>
      </trkpt>
      <trkpt lat="45.89801" lon="4.67476">
        <ele>399</ele>
        <time>2017-03-25T10:26:41Z</time>
      </trkpt>
      <trkpt lat="45.89807" lon="4.67467">
        <ele>399</ele>
        <time>2017-03-25T10:26:42Z</time>
      </trkpt>
      <trkpt lat="45.89811" lon="4.67458">
        <ele>399</ele>
        <time>2017-03-25T10:26:43Z</time>
      </trkpt>
      <trkpt lat="45.89814" lon="4.67447">
        <ele>399</ele>
        <time>2017-03-25T10:26:44Z</time>
      </trkpt>
      <trkpt lat="45.89816" lon="4.67436">
        <ele>399</ele>
        <time>2017-03-25T10:26:45Z</time>
      </trkpt>
      <trkpt lat="45.89818" lon="4.67425">
        <ele>398</ele>
        <time>2017-03-25T10:26:46Z</time>
      </trkpt>
      <trkpt lat="45.89821" lon="4.67414">
        <ele>401</ele>
        <time>2017-03-25T10:26:47Z</time>
      </trkpt>
      <trkpt lat="45.89823" lon="4.67404">
        <ele>402</ele>
        <time>2017-03-25T10:26:48Z</time>
      </trkpt>
      <trkpt lat="45.89826" lon="4.67393">
        <ele>403</ele>
        <time>2017-03-25T10:26:49Z</time>
      </trkpt>
      <trkpt lat="45.8983" lon="4.67384">
        <ele>404</ele>
        <time>2017-03-25T10:26:50Z</time>
      </trkpt>
      <trkpt lat="45.89835" lon="4.67376">
        <ele>398</ele>
        <time>2017-03-25T10:26:51Z</time>
      </trkpt>
      <trkpt lat="45.89841" lon="4.67368">
        <ele>399</ele>
        <time>2017-03-25T10:26:52Z</time>
      </trkpt>
      <trkpt lat="45.89846" lon="4.67362">
        <ele>399</ele>
        <time>2017-03-25T10:26:53Z</time>
      </trkpt>
      <trkpt lat="45.89852" lon="4.67355">
        <ele>399</ele>
        <time>2017-03-25T10:26:54Z</time>
      </trkpt>
      <trkpt lat="45.89859" lon="4.67351">
        <ele>399</ele>
        <time>2017-03-25T10:26:55Z</time>
      </trkpt>
      <trkpt lat="45.89866" lon="4.67347">
        <ele>399</ele>
        <time>2017-03-25T10:26:56Z</time>
      </trkpt>
      <trkpt lat="45.89873" lon="4.67345">
        <ele>399</ele>
        <time>2017-03-25T10:26:57Z</time>
      </trkpt>
      <trkpt lat="45.89882" lon="4.67344">
        <ele>399</ele>
        <time>2017-03-25T10:26:58Z</time>
      </trkpt>
      <trkpt lat="45.8989" lon="4.67345">
        <ele>398</ele>
        <time>2017-03-25T10:26:59Z</time>
      </trkpt>
      <trkpt lat="45.89898" lon="4.67346">
        <ele>398</ele>
        <time>2017-03-25T10:27:00Z</time>
      </trkpt>
      <trkpt lat="45.89905" lon="4.67348">
        <ele>398</ele>
        <time>2017-03-25T10:27:01Z</time>
      </trkpt>
      <trkpt lat="45.89913" lon="4.6735">
        <ele>398</ele>
        <time>2017-03-25T10:27:02Z</time>
      </trkpt>
      <trkpt lat="45.89921" lon="4.67353">
        <ele>397</ele>
        <time>2017-03-25T10:27:03Z</time>
      </trkpt>
      <trkpt lat="45.89929" lon="4.67355">
        <ele>396</ele>
        <time>2017-03-25T10:27:04Z</time>
      </trkpt>
      <trkpt lat="45.89936" lon="4.67358">
        <ele>395</ele>
        <time>2017-03-25T10:27:05Z</time>
      </trkpt>
      <trkpt lat="45.89944" lon="4.67361">
        <ele>395</ele>
        <time>2017-03-25T10:27:06Z</time>
      </trkpt>
      <trkpt lat="45.89953" lon="4.67363">
        <ele>395</ele>
        <time>2017-03-25T10:27:07Z</time>
      </trkpt>
      <trkpt lat="45.89961" lon="4.67366">
        <ele>395</ele>
        <time>2017-03-25T10:27:08Z</time>
      </trkpt>
      <trkpt lat="45.89968" lon="4.67369">
        <ele>394</ele>
        <time>2017-03-25T10:27:09Z</time>
      </trkpt>
      <trkpt lat="45.89976" lon="4.67372">
        <ele>394</ele>
        <time>2017-03-25T10:27:10Z</time>
      </trkpt>
      <trkpt lat="45.89984" lon="4.67375">
        <ele>394</ele>
        <time>2017-03-25T10:27:11Z</time>
      </trkpt>
      <trkpt lat="45.89993" lon="4.67378">
        <ele>393</ele>
        <time>2017-03-25T10:27:12Z</time>
      </trkpt>
      <trkpt lat="45.9" lon="4.67384">
        <ele>395</ele>
        <time>2017-03-25T10:27:13Z</time>
      </trkpt>
      <trkpt lat="45.90008" lon="4.6739">
        <ele>394</ele>
        <time>2017-03-25T10:27:14Z</time>
      </trkpt>
      <trkpt lat="45.90016" lon="4.67396">
        <ele>394</ele>
        <time>2017-03-25T10:27:15Z</time>
      </trkpt>
      <trkpt lat="45.90023" lon="4.67402">
        <ele>394</ele>
        <time>2017-03-25T10:27:16Z</time>
      </trkpt>
      <trkpt lat="45.90031" lon="4.67409">
        <ele>394</ele>
        <time>2017-03-25T10:27:17Z</time>
      </trkpt>
      <trkpt lat="45.90038" lon="4.67416">
        <ele>395</ele>
        <time>2017-03-25T10:27:18Z</time>
      </trkpt>
      <trkpt lat="45.90044" lon="4.67424">
        <ele>385</ele>
        <time>2017-03-25T10:27:19Z</time>
      </trkpt>
      <trkpt lat="45.90051" lon="4.67431">
        <ele>385</ele>
        <time>2017-03-25T10:27:20Z</time>
      </trkpt>
      <trkpt lat="45.90058" lon="4.67438">
        <ele>385</ele>
        <time>2017-03-25T10:27:21Z</time>
      </trkpt>
      <trkpt lat="45.90065" lon="4.67445">
        <ele>385</ele>
        <time>2017-03-25T10:27:22Z</time>
      </trkpt>
      <trkpt lat="45.90072" lon="4.67453">
        <ele>384</ele>
        <time>2017-03-25T10:27:23Z</time>
      </trkpt>
      <trkpt lat="45.90078" lon="4.6746">
        <ele>383</ele>
        <time>2017-03-25T10:27:24Z</time>
      </trkpt>
      <trkpt lat="45.90084" lon="4.67468">
        <ele>387</ele>
        <time>2017-03-25T10:27:25Z</time>
      </trkpt>
      <trkpt lat="45.90091" lon="4.67475">
        <ele>385</ele>
        <time>2017-03-25T10:27:26Z</time>
      </trkpt>
      <trkpt lat="45.90098" lon="4.67483">
        <ele>384</ele>
        <time>2017-03-25T10:27:27Z</time>
      </trkpt>
      <trkpt lat="45.90104" lon="4.67491">
        <ele>384</ele>
        <time>2017-03-25T10:27:28Z</time>
      </trkpt>
      <trkpt lat="45.90109" lon="4.675">
        <ele>377</ele>
        <time>2017-03-25T10:27:29Z</time>
      </trkpt>
      <trkpt lat="45.90115" lon="4.67509">
        <ele>377</ele>
        <time>2017-03-25T10:27:30Z</time>
      </trkpt>
      <trkpt lat="45.9012" lon="4.67518">
        <ele>378</ele>
        <time>2017-03-25T10:27:31Z</time>
      </trkpt>
      <trkpt lat="45.90125" lon="4.67527">
        <ele>377</ele>
        <time>2017-03-25T10:27:32Z</time>
      </trkpt>
      <trkpt lat="45.9013" lon="4.67537">
        <ele>377</ele>
        <time>2017-03-25T10:27:33Z</time>
      </trkpt>
      <trkpt lat="45.90134" lon="4.67547">
        <ele>377</ele>
        <time>2017-03-25T10:27:34Z</time>
      </trkpt>
      <trkpt lat="45.90139" lon="4.67557">
        <ele>376</ele>
        <time>2017-03-25T10:27:35Z</time>
      </trkpt>
      <trkpt lat="45.90145" lon="4.67565">
        <ele>376</ele>
        <time>2017-03-25T10:27:36Z</time>
      </trkpt>
      <trkpt lat="45.9015" lon="4.67573">
        <ele>376</ele>
        <time>2017-03-25T10:27:37Z</time>
      </trkpt>
      <trkpt lat="45.90156" lon="4.67581">
        <ele>376</ele>
        <time>2017-03-25T10:27:38Z</time>
      </trkpt>
      <trkpt lat="45.90162" lon="4.67588">
        <ele>374</ele>
        <time>2017-03-25T10:27:39Z</time>
      </trkpt>
      <trkpt lat="45.90168" lon="4.67595">
        <ele>376</ele>
        <time>2017-03-25T10:27:40Z</time>
      </trkpt>
      <trkpt lat="45.90174" lon="4.67602">
        <ele>376</ele>
        <time>2017-03-25T10:27:41Z</time>
      </trkpt>
      <trkpt lat="45.9018" lon="4.67609">
        <ele>376</ele>
        <time>2017-03-25T10:27:42Z</time>
      </trkpt>
      <trkpt lat="45.90187" lon="4.67617">
        <ele>376</ele>
        <time>2017-03-25T10:27:43Z</time>
      </trkpt>
      <trkpt lat="45.90193" lon="4.67624">
        <ele>375</ele>
        <time>2017-03-25T10:27:44Z</time>
      </trkpt>
      <trkpt lat="45.90199" lon="4.67631">
        <ele>375</ele>
        <time>2017-03-25T10:27:45Z</time>
      </trkpt>
      <trkpt lat="45.90206" lon="4.67638">
        <ele>375</ele>
        <time>2017-03-25T10:27:46Z</time>
      </trkpt>
      <trkpt lat="45.90212" lon="4.67645">
        <ele>375</ele>
        <time>2017-03-25T10:27:47Z</time>
      </trkpt>
      <trkpt lat="45.90218" lon="4.67652">
        <ele>375</ele>
        <time>2017-03-25T10:27:48Z</time>
      </trkpt>
      <trkpt lat="45.90224" lon="4.67658">
        <ele>375</ele>
        <time>2017-03-25T10:27:49Z</time>
      </trkpt>
      <trkpt lat="45.9023" lon="4.67664">
        <ele>375</ele>
        <time>2017-03-25T10:27:50Z</time>
      </trkpt>
      <trkpt lat="45.90237" lon="4.67669">
        <ele>373</ele>
        <time>2017-03-25T10:27:51Z</time>
      </trkpt>
      <trkpt lat="45.90243" lon="4.67674">
        <ele>373</ele>
        <time>2017-03-25T10:27:52Z</time>
      </trkpt>
      <trkpt lat="45.90249" lon="4.67678">
        <ele>373</ele>
        <time>2017-03-25T10:27:53Z</time>
      </trkpt>
      <trkpt lat="45.90256" lon="4.67681">
        <ele>374</ele>
        <time>2017-03-25T10:27:54Z</time>
      </trkpt>
      <trkpt lat="45.90262" lon="4.67685">
        <ele>374</ele>
        <time>2017-03-25T10:27:55Z</time>
      </trkpt>
      <trkpt lat="45.90268" lon="4.67688">
        <ele>374</ele>
        <time>2017-03-25T10:27:56Z</time>
      </trkpt>
      <trkpt lat="45.90275" lon="4.6769">
        <ele>374</ele>
        <time>2017-03-25T10:27:57Z</time>
      </trkpt>
      <trkpt lat="45.90282" lon="4.67693">
        <ele>374</ele>
        <time>2017-03-25T10:27:58Z</time>
      </trkpt>
      <trkpt lat="45.90288" lon="4.67695">
        <ele>374</ele>
        <time>2017-03-25T10:27:59Z</time>
      </trkpt>
      <trkpt lat="45.90295" lon="4.67697">
        <ele>374</ele>
        <time>2017-03-25T10:28:00Z</time>
      </trkpt>
      <trkpt lat="45.90302" lon="4.677">
        <ele>374</ele>
        <time>2017-03-25T10:28:01Z</time>
      </trkpt>
      <trkpt lat="45.90309" lon="4.67702">
        <ele>374</ele>
        <time>2017-03-25T10:28:02Z</time>
      </trkpt>
      <trkpt lat="45.90316" lon="4.67705">
        <ele>374</ele>
        <time>2017-03-25T10:28:03Z</time>
      </trkpt>
      <trkpt lat="45.90323" lon="4.67708">
        <ele>374</ele>
        <time>2017-03-25T10:28:04Z</time>
      </trkpt>
      <trkpt lat="45.90331" lon="4.6771">
        <ele>373</ele>
        <time>2017-03-25T10:28:05Z</time>
      </trkpt>
      <trkpt lat="45.90338" lon="4.67712">
        <ele>372</ele>
        <time>2017-03-25T10:28:06Z</time>
      </trkpt>
      <trkpt lat="45.90346" lon="4.67714">
        <ele>372</ele>
        <time>2017-03-25T10:28:07Z</time>
      </trkpt>
      <trkpt lat="45.90353" lon="4.67717">
        <ele>371</ele>
        <time>2017-03-25T10:28:08Z</time>
      </trkpt>
      <trkpt lat="45.9036" lon="4.6772">
        <ele>371</ele>
        <time>2017-03-25T10:28:09Z</time>
      </trkpt>
      <trkpt lat="45.90368" lon="4.67723">
        <ele>371</ele>
        <time>2017-03-25T10:28:10Z</time>
      </trkpt>
      <trkpt lat="45.90376" lon="4.67726">
        <ele>370</ele>
        <time>2017-03-25T10:28:11Z</time>
      </trkpt>
      <trkpt lat="45.90384" lon="4.67729">
        <ele>370</ele>
        <time>2017-03-25T10:28:12Z</time>
      </trkpt>
      <trkpt lat="45.90392" lon="4.67732">
        <ele>369</ele>
        <time>2017-03-25T10:28:13Z</time>
      </trkpt>
      <trkpt lat="45.904" lon="4.67734">
        <ele>369</ele>
        <time>2017-03-25T10:28:14Z</time>
      </trkpt>
      <trkpt lat="45.90408" lon="4.67737">
        <ele>368</ele>
        <time>2017-03-25T10:28:15Z</time>
      </trkpt>
      <trkpt lat="45.90416" lon="4.6774">
        <ele>367</ele>
        <time>2017-03-25T10:28:16Z</time>
      </trkpt>
      <trkpt lat="45.90424" lon="4.67742">
        <ele>366</ele>
        <time>2017-03-25T10:28:17Z</time>
      </trkpt>
      <trkpt lat="45.90433" lon="4.67745">
        <ele>366</ele>
        <time>2017-03-25T10:28:18Z</time>
      </trkpt>
      <trkpt lat="45.90441" lon="4.67748">
        <ele>366</ele>
        <time>2017-03-25T10:28:19Z</time>
      </trkpt>
      <trkpt lat="45.90449" lon="4.67751">
        <ele>364</ele>
        <time>2017-03-25T10:28:20Z</time>
      </trkpt>
      <trkpt lat="45.90456" lon="4.67754">
        <ele>364</ele>
        <time>2017-03-25T10:28:21Z</time>
      </trkpt>
      <trkpt lat="45.90464" lon="4.67758">
        <ele>364</ele>
        <time>2017-03-25T10:28:22Z</time>
      </trkpt>
      <trkpt lat="45.90472" lon="4.67761">
        <ele>364</ele>
        <time>2017-03-25T10:28:23Z</time>
      </trkpt>
      <trkpt lat="45.9048" lon="4.67763">
        <ele>364</ele>
        <time>2017-03-25T10:28:24Z</time>
      </trkpt>
      <trkpt lat="45.90487" lon="4.67766">
        <ele>364</ele>
        <time>2017-03-25T10:28:25Z</time>
      </trkpt>
      <trkpt lat="45.90495" lon="4.67768">
        <ele>364</ele>
        <time>2017-03-25T10:28:26Z</time>
      </trkpt>
      <trkpt lat="45.90502" lon="4.67771">
        <ele>364</ele>
        <time>2017-03-25T10:28:27Z</time>
      </trkpt>
      <trkpt lat="45.90508" lon="4.67774">
        <ele>365</ele>
        <time>2017-03-25T10:28:28Z</time>
      </trkpt>
      <trkpt lat="45.90515" lon="4.67776">
        <ele>365</ele>
        <time>2017-03-25T10:28:29Z</time>
      </trkpt>
      <trkpt lat="45.90521" lon="4.67779">
        <ele>365</ele>
        <time>2017-03-25T10:28:30Z</time>
      </trkpt>
      <trkpt lat="45.90528" lon="4.67781">
        <ele>365</ele>
        <time>2017-03-25T10:28:31Z</time>
      </trkpt>
      <trkpt lat="45.90534" lon="4.67783">
        <ele>365</ele>
        <time>2017-03-25T10:28:32Z</time>
      </trkpt>
      <trkpt lat="45.9054" lon="4.67785">
        <ele>365</ele>
        <time>2017-03-25T10:28:33Z</time>
      </trkpt>
      <trkpt lat="45.90545" lon="4.67787">
        <ele>365</ele>
        <time>2017-03-25T10:28:34Z</time>
      </trkpt>
      <trkpt lat="45.9055" lon="4.67789">
        <ele>365</ele>
        <time>2017-03-25T10:28:35Z</time>
      </trkpt>
      <trkpt lat="45.90557" lon="4.6779">
        <ele>365</ele>
        <time>2017-03-25T10:28:36Z</time>
      </trkpt>
      <trkpt lat="45.90562" lon="4.67791">
        <ele>365</ele>
        <time>2017-03-25T10:28:37Z</time>
      </trkpt>
      <trkpt lat="45.90567" lon="4.67791">
        <ele>365</ele>
        <time>2017-03-25T10:28:38Z</time>
      </trkpt>
      <trkpt lat="45.90573" lon="4.67792">
        <ele>365</ele>
        <time>2017-03-25T10:28:39Z</time>
      </trkpt>
      <trkpt lat="45.90579" lon="4.67794">
        <ele>366</ele>
        <time>2017-03-25T10:28:40Z</time>
      </trkpt>
      <trkpt lat="45.90584" lon="4.67795">
        <ele>367</ele>
        <time>2017-03-25T10:28:41Z</time>
      </trkpt>
      <trkpt lat="45.9059" lon="4.67796">
        <ele>367</ele>
        <time>2017-03-25T10:28:42Z</time>
      </trkpt>
      <trkpt lat="45.90595" lon="4.67796">
        <ele>367</ele>
        <time>2017-03-25T10:28:43Z</time>
      </trkpt>
      <trkpt lat="45.906" lon="4.67796">
        <ele>367</ele>
        <time>2017-03-25T10:28:44Z</time>
      </trkpt>
      <trkpt lat="45.90606" lon="4.67795">
        <ele>367</ele>
        <time>2017-03-25T10:28:45Z</time>
      </trkpt>
      <trkpt lat="45.90611" lon="4.67796">
        <ele>367</ele>
        <time>2017-03-25T10:28:46Z</time>
      </trkpt>
      <trkpt lat="45.90615" lon="4.67797">
        <ele>367</ele>
        <time>2017-03-25T10:28:47Z</time>
      </trkpt>
      <trkpt lat="45.9062" lon="4.67797">
        <ele>367</ele>
        <time>2017-03-25T10:28:48Z</time>
      </trkpt>
      <trkpt lat="45.90625" lon="4.67798">
        <ele>367</ele>
        <time>2017-03-25T10:28:49Z</time>
      </trkpt>
      <trkpt lat="45.90629" lon="4.67798">
        <ele>367</ele>
        <time>2017-03-25T10:28:50Z</time>
      </trkpt>
      <trkpt lat="45.90634" lon="4.67798">
        <ele>367</ele>
        <time>2017-03-25T10:28:51Z</time>
      </trkpt>
      <trkpt lat="45.90639" lon="4.67798">
        <ele>367</ele>
        <time>2017-03-25T10:28:52Z</time>
      </trkpt>
      <trkpt lat="45.90643" lon="4.67798">
        <ele>367</ele>
        <time>2017-03-25T10:28:53Z</time>
      </trkpt>
      <trkpt lat="45.90648" lon="4.67798">
        <ele>368</ele>
        <time>2017-03-25T10:28:54Z</time>
      </trkpt>
      <trkpt lat="45.90652" lon="4.67798">
        <ele>368</ele>
        <time>2017-03-25T10:28:55Z</time>
      </trkpt>
      <trkpt lat="45.90657" lon="4.67799">
        <ele>368</ele>
        <time>2017-03-25T10:28:56Z</time>
      </trkpt>
      <trkpt lat="45.90661" lon="4.678">
        <ele>368</ele>
        <time>2017-03-25T10:28:57Z</time>
      </trkpt>
      <trkpt lat="45.90666" lon="4.678">
        <ele>368</ele>
        <time>2017-03-25T10:28:58Z</time>
      </trkpt>
      <trkpt lat="45.90671" lon="4.67801">
        <ele>368</ele>
        <time>2017-03-25T10:28:59Z</time>
      </trkpt>
      <trkpt lat="45.90676" lon="4.67802">
        <ele>368</ele>
        <time>2017-03-25T10:29:00Z</time>
      </trkpt>
      <trkpt lat="45.90681" lon="4.67803">
        <ele>368</ele>
        <time>2017-03-25T10:29:01Z</time>
      </trkpt>
      <trkpt lat="45.90685" lon="4.67804">
        <ele>368</ele>
        <time>2017-03-25T10:29:02Z</time>
      </trkpt>
      <trkpt lat="45.90694" lon="4.67805">
        <ele>368</ele>
        <time>2017-03-25T10:29:04Z</time>
      </trkpt>
      <trkpt lat="45.90698" lon="4.67807">
        <ele>368</ele>
        <time>2017-03-25T10:29:05Z</time>
      </trkpt>
      <trkpt lat="45.90703" lon="4.67808">
        <ele>368</ele>
        <time>2017-03-25T10:29:06Z</time>
      </trkpt>
      <trkpt lat="45.90707" lon="4.6781">
        <ele>368</ele>
        <time>2017-03-25T10:29:07Z</time>
      </trkpt>
      <trkpt lat="45.90712" lon="4.67812">
        <ele>368</ele>
        <time>2017-03-25T10:29:08Z</time>
      </trkpt>
      <trkpt lat="45.90716" lon="4.67813">
        <ele>369</ele>
        <time>2017-03-25T10:29:09Z</time>
      </trkpt>
      <trkpt lat="45.9072" lon="4.67815">
        <ele>369</ele>
        <time>2017-03-25T10:29:10Z</time>
      </trkpt>
      <trkpt lat="45.90725" lon="4.67817">
        <ele>369</ele>
        <time>2017-03-25T10:29:11Z</time>
      </trkpt>
      <trkpt lat="45.90733" lon="4.67821">
        <ele>369</ele>
        <time>2017-03-25T10:29:13Z</time>
      </trkpt>
      <trkpt lat="45.90737" lon="4.67823">
        <ele>369</ele>
        <time>2017-03-25T10:29:14Z</time>
      </trkpt>
      <trkpt lat="45.90746" lon="4.67827">
        <ele>370</ele>
        <time>2017-03-25T10:29:16Z</time>
      </trkpt>
      <trkpt lat="45.9075" lon="4.67828">
        <ele>370</ele>
        <time>2017-03-25T10:29:17Z</time>
      </trkpt>
      <trkpt lat="45.90758" lon="4.67831">
        <ele>370</ele>
        <time>2017-03-25T10:29:19Z</time>
      </trkpt>
      <trkpt lat="45.90762" lon="4.67833">
        <ele>370</ele>
        <time>2017-03-25T10:29:20Z</time>
      </trkpt>
      <trkpt lat="45.9077" lon="4.67836">
        <ele>371</ele>
        <time>2017-03-25T10:29:22Z</time>
      </trkpt>
      <trkpt lat="45.90773" lon="4.67838">
        <ele>371</ele>
        <time>2017-03-25T10:29:23Z</time>
      </trkpt>
      <trkpt lat="45.9078" lon="4.6784">
        <ele>371</ele>
        <time>2017-03-25T10:29:25Z</time>
      </trkpt>
      <trkpt lat="45.90784" lon="4.67841">
        <ele>371</ele>
        <time>2017-03-25T10:29:26Z</time>
      </trkpt>
      <trkpt lat="45.90792" lon="4.67844">
        <ele>371</ele>
        <time>2017-03-25T10:29:28Z</time>
      </trkpt>
      <trkpt lat="45.90796" lon="4.67845">
        <ele>371</ele>
        <time>2017-03-25T10:29:29Z</time>
      </trkpt>
      <trkpt lat="45.90804" lon="4.67848">
        <ele>371</ele>
        <time>2017-03-25T10:29:31Z</time>
      </trkpt>
      <trkpt lat="45.90807" lon="4.6785">
        <ele>371</ele>
        <time>2017-03-25T10:29:32Z</time>
      </trkpt>
      <trkpt lat="45.90815" lon="4.67852">
        <ele>371</ele>
        <time>2017-03-25T10:29:34Z</time>
      </trkpt>
      <trkpt lat="45.90818" lon="4.67853">
        <ele>371</ele>
        <time>2017-03-25T10:29:35Z</time>
      </trkpt>
      <trkpt lat="45.90825" lon="4.67856">
        <ele>371</ele>
        <time>2017-03-25T10:29:37Z</time>
      </trkpt>
      <trkpt lat="45.90829" lon="4.67857">
        <ele>371</ele>
        <time>2017-03-25T10:29:38Z</time>
      </trkpt>
      <trkpt lat="45.90836" lon="4.67859">
        <ele>370</ele>
        <time>2017-03-25T10:29:40Z</time>
      </trkpt>
      <trkpt lat="45.9084" lon="4.6786">
        <ele>370</ele>
        <time>2017-03-25T10:29:41Z</time>
      </trkpt>
      <trkpt lat="45.90847" lon="4.67862">
        <ele>370</ele>
        <time>2017-03-25T10:29:43Z</time>
      </trkpt>
      <trkpt lat="45.90851" lon="4.67863">
        <ele>370</ele>
        <time>2017-03-25T10:29:44Z</time>
      </trkpt>
      <trkpt lat="45.90858" lon="4.67866">
        <ele>370</ele>
        <time>2017-03-25T10:29:46Z</time>
      </trkpt>
      <trkpt lat="45.90862" lon="4.67867">
        <ele>370</ele>
        <time>2017-03-25T10:29:47Z</time>
      </trkpt>
      <trkpt lat="45.90869" lon="4.67869">
        <ele>370</ele>
        <time>2017-03-25T10:29:49Z</time>
      </trkpt>
      <trkpt lat="45.90873" lon="4.6787">
        <ele>370</ele>
        <time>2017-03-25T10:29:50Z</time>
      </trkpt>
      <trkpt lat="45.90881" lon="4.67873">
        <ele>370</ele>
        <time>2017-03-25T10:29:52Z</time>
      </trkpt>
      <trkpt lat="45.90886" lon="4.67875">
        <ele>370</ele>
        <time>2017-03-25T10:29:53Z</time>
      </trkpt>
      <trkpt lat="45.9089" lon="4.67877">
        <ele>370</ele>
        <time>2017-03-25T10:29:54Z</time>
      </trkpt>
      <trkpt lat="45.90895" lon="4.67879">
        <ele>370</ele>
        <time>2017-03-25T10:29:55Z</time>
      </trkpt>
      <trkpt lat="45.90903" lon="4.67883">
        <ele>370</ele>
        <time>2017-03-25T10:29:57Z</time>
      </trkpt>
      <trkpt lat="45.90907" lon="4.67885">
        <ele>370</ele>
        <time>2017-03-25T10:29:58Z</time>
      </trkpt>
      <trkpt lat="45.90915" lon="4.67888">
        <ele>370</ele>
        <time>2017-03-25T10:30:00Z</time>
      </trkpt>
      <trkpt lat="45.9092" lon="4.6789">
        <ele>370</ele>
        <time>2017-03-25T10:30:01Z</time>
      </trkpt>
      <trkpt lat="45.90927" lon="4.67892">
        <ele>370</ele>
        <time>2017-03-25T10:30:03Z</time>
      </trkpt>
      <trkpt lat="45.90931" lon="4.67894">
        <ele>370</ele>
        <time>2017-03-25T10:30:04Z</time>
      </trkpt>
      <trkpt lat="45.90938" lon="4.67897">
        <ele>370</ele>
        <time>2017-03-25T10:30:06Z</time>
      </trkpt>
      <trkpt lat="45.90942" lon="4.67898">
        <ele>370</ele>
        <time>2017-03-25T10:30:07Z</time>
      </trkpt>
      <trkpt lat="45.90949" lon="4.679">
        <ele>370</ele>
        <time>2017-03-25T10:30:09Z</time>
      </trkpt>
      <trkpt lat="45.90953" lon="4.67902">
        <ele>370</ele>
        <time>2017-03-25T10:30:10Z</time>
      </trkpt>
      <trkpt lat="45.90959" lon="4.67905">
        <ele>370</ele>
        <time>2017-03-25T10:30:12Z</time>
      </trkpt>
      <trkpt lat="45.90962" lon="4.67907">
        <ele>370</ele>
        <time>2017-03-25T10:30:13Z</time>
      </trkpt>
      <trkpt lat="45.90969" lon="4.6791">
        <ele>370</ele>
        <time>2017-03-25T10:30:15Z</time>
      </trkpt>
      <trkpt lat="45.90972" lon="4.67911">
        <ele>370</ele>
        <time>2017-03-25T10:30:16Z</time>
      </trkpt>
      <trkpt lat="45.90979" lon="4.67914">
        <ele>370</ele>
        <time>2017-03-25T10:30:18Z</time>
      </trkpt>
      <trkpt lat="45.90982" lon="4.67915">
        <ele>371</ele>
        <time>2017-03-25T10:30:19Z</time>
      </trkpt>
      <trkpt lat="45.90989" lon="4.67919">
        <ele>372</ele>
        <time>2017-03-25T10:30:21Z</time>
      </trkpt>
      <trkpt lat="45.90992" lon="4.67921">
        <ele>372</ele>
        <time>2017-03-25T10:30:22Z</time>
      </trkpt>
      <trkpt lat="45.90999" lon="4.67924">
        <ele>372</ele>
        <time>2017-03-25T10:30:24Z</time>
      </trkpt>
      <trkpt lat="45.91002" lon="4.67926">
        <ele>373</ele>
        <time>2017-03-25T10:30:25Z</time>
      </trkpt>
      <trkpt lat="45.91009" lon="4.6793">
        <ele>373</ele>
        <time>2017-03-25T10:30:27Z</time>
      </trkpt>
      <trkpt lat="45.91013" lon="4.67931">
        <ele>373</ele>
        <time>2017-03-25T10:30:28Z</time>
      </trkpt>
      <trkpt lat="45.91019" lon="4.67935">
        <ele>374</ele>
        <time>2017-03-25T10:30:30Z</time>
      </trkpt>
      <trkpt lat="45.91022" lon="4.67936">
        <ele>374</ele>
        <time>2017-03-25T10:30:31Z</time>
      </trkpt>
      <trkpt lat="45.91029" lon="4.67939">
        <ele>374</ele>
        <time>2017-03-25T10:30:33Z</time>
      </trkpt>
      <trkpt lat="45.91033" lon="4.67941">
        <ele>374</ele>
        <time>2017-03-25T10:30:34Z</time>
      </trkpt>
      <trkpt lat="45.9104" lon="4.67944">
        <ele>374</ele>
        <time>2017-03-25T10:30:36Z</time>
      </trkpt>
      <trkpt lat="45.91043" lon="4.67945">
        <ele>374</ele>
        <time>2017-03-25T10:30:37Z</time>
      </trkpt>
      <trkpt lat="45.9105" lon="4.67948">
        <ele>375</ele>
        <time>2017-03-25T10:30:39Z</time>
      </trkpt>
      <trkpt lat="45.91054" lon="4.67949">
        <ele>375</ele>
        <time>2017-03-25T10:30:40Z</time>
      </trkpt>
      <trkpt lat="45.91061" lon="4.67951">
        <ele>375</ele>
        <time>2017-03-25T10:30:42Z</time>
      </trkpt>
      <trkpt lat="45.91065" lon="4.67951">
        <ele>375</ele>
        <time>2017-03-25T10:30:43Z</time>
      </trkpt>
      <trkpt lat="45.9107" lon="4.67953">
        <ele>375</ele>
        <time>2017-03-25T10:30:45Z</time>
      </trkpt>
      <trkpt lat="45.91074" lon="4.67954">
        <ele>375</ele>
        <time>2017-03-25T10:30:46Z</time>
      </trkpt>
      <trkpt lat="45.9108" lon="4.67956">
        <ele>375</ele>
        <time>2017-03-25T10:30:48Z</time>
      </trkpt>
      <trkpt lat="45.91084" lon="4.67957">
        <ele>376</ele>
        <time>2017-03-25T10:30:49Z</time>
      </trkpt>
      <trkpt lat="45.9109" lon="4.67959">
        <ele>377</ele>
        <time>2017-03-25T10:30:51Z</time>
      </trkpt>
      <trkpt lat="45.91094" lon="4.6796">
        <ele>377</ele>
        <time>2017-03-25T10:30:52Z</time>
      </trkpt>
      <trkpt lat="45.91101" lon="4.67963">
        <ele>377</ele>
        <time>2017-03-25T10:30:54Z</time>
      </trkpt>
      <trkpt lat="45.91105" lon="4.67964">
        <ele>377</ele>
        <time>2017-03-25T10:30:55Z</time>
      </trkpt>
      <trkpt lat="45.91112" lon="4.67966">
        <ele>377</ele>
        <time>2017-03-25T10:30:57Z</time>
      </trkpt>
      <trkpt lat="45.91115" lon="4.67967">
        <ele>377</ele>
        <time>2017-03-25T10:30:58Z</time>
      </trkpt>
      <trkpt lat="45.91122" lon="4.67969">
        <ele>377</ele>
        <time>2017-03-25T10:31:00Z</time>
      </trkpt>
      <trkpt lat="45.91125" lon="4.6797">
        <ele>377</ele>
        <time>2017-03-25T10:31:01Z</time>
      </trkpt>
      <trkpt lat="45.91132" lon="4.67972">
        <ele>377</ele>
        <time>2017-03-25T10:31:03Z</time>
      </trkpt>
      <trkpt lat="45.91135" lon="4.67973">
        <ele>377</ele>
        <time>2017-03-25T10:31:04Z</time>
      </trkpt>
      <trkpt lat="45.91142" lon="4.67976">
        <ele>378</ele>
        <time>2017-03-25T10:31:06Z</time>
      </trkpt>
      <trkpt lat="45.91145" lon="4.67977">
        <ele>378</ele>
        <time>2017-03-25T10:31:07Z</time>
      </trkpt>
      <trkpt lat="45.91151" lon="4.6798">
        <ele>378</ele>
        <time>2017-03-25T10:31:09Z</time>
      </trkpt>
      <trkpt lat="45.91155" lon="4.67982">
        <ele>378</ele>
        <time>2017-03-25T10:31:10Z</time>
      </trkpt>
      <trkpt lat="45.91162" lon="4.67986">
        <ele>379</ele>
        <time>2017-03-25T10:31:12Z</time>
      </trkpt>
      <trkpt lat="45.91165" lon="4.67987">
        <ele>379</ele>
        <time>2017-03-25T10:31:13Z</time>
      </trkpt>
      <trkpt lat="45.91171" lon="4.67992">
        <ele>380</ele>
        <time>2017-03-25T10:31:15Z</time>
      </trkpt>
      <trkpt lat="45.91174" lon="4.67994">
        <ele>380</ele>
        <time>2017-03-25T10:31:16Z</time>
      </trkpt>
      <trkpt lat="45.91181" lon="4.67998">
        <ele>380</ele>
        <time>2017-03-25T10:31:18Z</time>
      </trkpt>
      <trkpt lat="45.91184" lon="4.68">
        <ele>380</ele>
        <time>2017-03-25T10:31:19Z</time>
      </trkpt>
      <trkpt lat="45.9119" lon="4.68003">
        <ele>382</ele>
        <time>2017-03-25T10:31:21Z</time>
      </trkpt>
      <trkpt lat="45.91193" lon="4.68005">
        <ele>383</ele>
        <time>2017-03-25T10:31:22Z</time>
      </trkpt>
      <trkpt lat="45.912" lon="4.68009">
        <ele>383</ele>
        <time>2017-03-25T10:31:24Z</time>
      </trkpt>
      <trkpt lat="45.91203" lon="4.68011">
        <ele>383</ele>
        <time>2017-03-25T10:31:25Z</time>
      </trkpt>
      <trkpt lat="45.9121" lon="4.68014">
        <ele>383</ele>
        <time>2017-03-25T10:31:27Z</time>
      </trkpt>
      <trkpt lat="45.91213" lon="4.68016">
        <ele>383</ele>
        <time>2017-03-25T10:31:28Z</time>
      </trkpt>
      <trkpt lat="45.9122" lon="4.68018">
        <ele>384</ele>
        <time>2017-03-25T10:31:30Z</time>
      </trkpt>
      <trkpt lat="45.91223" lon="4.68019">
        <ele>384</ele>
        <time>2017-03-25T10:31:31Z</time>
      </trkpt>
      <trkpt lat="45.91229" lon="4.68022">
        <ele>384</ele>
        <time>2017-03-25T10:31:33Z</time>
      </trkpt>
      <trkpt lat="45.91232" lon="4.68023">
        <ele>384</ele>
        <time>2017-03-25T10:31:34Z</time>
      </trkpt>
      <trkpt lat="45.91238" lon="4.68026">
        <ele>384</ele>
        <time>2017-03-25T10:31:36Z</time>
      </trkpt>
      <trkpt lat="45.91241" lon="4.68027">
        <ele>384</ele>
        <time>2017-03-25T10:31:37Z</time>
      </trkpt>
      <trkpt lat="45.91248" lon="4.6803">
        <ele>384</ele>
        <time>2017-03-25T10:31:39Z</time>
      </trkpt>
      <trkpt lat="45.91251" lon="4.68033">
        <ele>385</ele>
        <time>2017-03-25T10:31:40Z</time>
      </trkpt>
      <trkpt lat="45.91259" lon="4.68036">
        <ele>385</ele>
        <time>2017-03-25T10:31:42Z</time>
      </trkpt>
      <trkpt lat="45.91263" lon="4.68038">
        <ele>385</ele>
        <time>2017-03-25T10:31:43Z</time>
      </trkpt>
      <trkpt lat="45.9127" lon="4.68042">
        <ele>385</ele>
        <time>2017-03-25T10:31:45Z</time>
      </trkpt>
      <trkpt lat="45.91274" lon="4.68043">
        <ele>385</ele>
        <time>2017-03-25T10:31:46Z</time>
      </trkpt>
      <trkpt lat="45.9128" lon="4.68046">
        <ele>385</ele>
        <time>2017-03-25T10:31:48Z</time>
      </trkpt>
      <trkpt lat="45.91283" lon="4.68047">
        <ele>385</ele>
        <time>2017-03-25T10:31:49Z</time>
      </trkpt>
      <trkpt lat="45.91289" lon="4.68051">
        <ele>385</ele>
        <time>2017-03-25T10:31:51Z</time>
      </trkpt>
      <trkpt lat="45.91293" lon="4.68052">
        <ele>385</ele>
        <time>2017-03-25T10:31:52Z</time>
      </trkpt>
      <trkpt lat="45.91299" lon="4.68055">
        <ele>385</ele>
        <time>2017-03-25T10:31:54Z</time>
      </trkpt>
      <trkpt lat="45.91303" lon="4.68057">
        <ele>385</ele>
        <time>2017-03-25T10:31:55Z</time>
      </trkpt>
      <trkpt lat="45.9131" lon="4.6806">
        <ele>385</ele>
        <time>2017-03-25T10:31:57Z</time>
      </trkpt>
      <trkpt lat="45.91313" lon="4.68061">
        <ele>385</ele>
        <time>2017-03-25T10:31:58Z</time>
      </trkpt>
      <trkpt lat="45.9132" lon="4.68064">
        <ele>385</ele>
        <time>2017-03-25T10:32:00Z</time>
      </trkpt>
      <trkpt lat="45.91324" lon="4.68066">
        <ele>385</ele>
        <time>2017-03-25T10:32:01Z</time>
      </trkpt>
      <trkpt lat="45.91331" lon="4.68069">
        <ele>385</ele>
        <time>2017-03-25T10:32:03Z</time>
      </trkpt>
      <trkpt lat="45.91335" lon="4.68071">
        <ele>385</ele>
        <time>2017-03-25T10:32:04Z</time>
      </trkpt>
      <trkpt lat="45.91343" lon="4.68075">
        <ele>385</ele>
        <time>2017-03-25T10:32:06Z</time>
      </trkpt>
      <trkpt lat="45.91346" lon="4.68076">
        <ele>385</ele>
        <time>2017-03-25T10:32:07Z</time>
      </trkpt>
      <trkpt lat="45.91353" lon="4.68079">
        <ele>385</ele>
        <time>2017-03-25T10:32:09Z</time>
      </trkpt>
      <trkpt lat="45.91356" lon="4.68081">
        <ele>385</ele>
        <time>2017-03-25T10:32:10Z</time>
      </trkpt>
      <trkpt lat="45.91363" lon="4.68083">
        <ele>385</ele>
        <time>2017-03-25T10:32:12Z</time>
      </trkpt>
      <trkpt lat="45.91367" lon="4.68084">
        <ele>386</ele>
        <time>2017-03-25T10:32:13Z</time>
      </trkpt>
      <trkpt lat="45.91372" lon="4.68085">
        <ele>386</ele>
        <time>2017-03-25T10:32:14Z</time>
      </trkpt>
      <trkpt lat="45.91377" lon="4.68086">
        <ele>386</ele>
        <time>2017-03-25T10:32:15Z</time>
      </trkpt>
      <trkpt lat="45.91382" lon="4.68086">
        <ele>386</ele>
        <time>2017-03-25T10:32:16Z</time>
      </trkpt>
      <trkpt lat="45.91386" lon="4.68085">
        <ele>386</ele>
        <time>2017-03-25T10:32:17Z</time>
      </trkpt>
      <trkpt lat="45.91391" lon="4.68085">
        <ele>386</ele>
        <time>2017-03-25T10:32:18Z</time>
      </trkpt>
      <trkpt lat="45.91396" lon="4.68085">
        <ele>386</ele>
        <time>2017-03-25T10:32:19Z</time>
      </trkpt>
      <trkpt lat="45.91401" lon="4.68084">
        <ele>386</ele>
        <time>2017-03-25T10:32:20Z</time>
      </trkpt>
      <trkpt lat="45.91406" lon="4.68083">
        <ele>385</ele>
        <time>2017-03-25T10:32:21Z</time>
      </trkpt>
      <trkpt lat="45.9141" lon="4.68082">
        <ele>386</ele>
        <time>2017-03-25T10:32:22Z</time>
      </trkpt>
      <trkpt lat="45.91415" lon="4.68081">
        <ele>386</ele>
        <time>2017-03-25T10:32:23Z</time>
      </trkpt>
      <trkpt lat="45.91419" lon="4.68081">
        <ele>386</ele>
        <time>2017-03-25T10:32:24Z</time>
      </trkpt>
      <trkpt lat="45.91424" lon="4.68081">
        <ele>385</ele>
        <time>2017-03-25T10:32:25Z</time>
      </trkpt>
      <trkpt lat="45.91429" lon="4.68082">
        <ele>385</ele>
        <time>2017-03-25T10:32:26Z</time>
      </trkpt>
      <trkpt lat="45.91434" lon="4.68083">
        <ele>385</ele>
        <time>2017-03-25T10:32:27Z</time>
      </trkpt>
      <trkpt lat="45.91442" lon="4.68085">
        <ele>385</ele>
        <time>2017-03-25T10:32:29Z</time>
      </trkpt>
      <trkpt lat="45.91447" lon="4.68086">
        <ele>384</ele>
        <time>2017-03-25T10:32:30Z</time>
      </trkpt>
      <trkpt lat="45.91452" lon="4.68088">
        <ele>384</ele>
        <time>2017-03-25T10:32:31Z</time>
      </trkpt>
      <trkpt lat="45.91457" lon="4.68091">
        <ele>384</ele>
        <time>2017-03-25T10:32:32Z</time>
      </trkpt>
      <trkpt lat="45.91462" lon="4.68093">
        <ele>384</ele>
        <time>2017-03-25T10:32:33Z</time>
      </trkpt>
      <trkpt lat="45.91468" lon="4.68096">
        <ele>384</ele>
        <time>2017-03-25T10:32:34Z</time>
      </trkpt>
      <trkpt lat="45.91473" lon="4.68099">
        <ele>384</ele>
        <time>2017-03-25T10:32:35Z</time>
      </trkpt>
      <trkpt lat="45.91478" lon="4.68102">
        <ele>383</ele>
        <time>2017-03-25T10:32:36Z</time>
      </trkpt>
      <trkpt lat="45.91484" lon="4.68106">
        <ele>383</ele>
        <time>2017-03-25T10:32:37Z</time>
      </trkpt>
      <trkpt lat="45.9149" lon="4.6811">
        <ele>383</ele>
        <time>2017-03-25T10:32:38Z</time>
      </trkpt>
      <trkpt lat="45.91495" lon="4.68114">
        <ele>383</ele>
        <time>2017-03-25T10:32:39Z</time>
      </trkpt>
      <trkpt lat="45.91502" lon="4.68117">
        <ele>380</ele>
        <time>2017-03-25T10:32:40Z</time>
      </trkpt>
      <trkpt lat="45.91508" lon="4.6812">
        <ele>380</ele>
        <time>2017-03-25T10:32:41Z</time>
      </trkpt>
      <trkpt lat="45.91514" lon="4.68124">
        <ele>380</ele>
        <time>2017-03-25T10:32:42Z</time>
      </trkpt>
      <trkpt lat="45.91521" lon="4.68127">
        <ele>380</ele>
        <time>2017-03-25T10:32:43Z</time>
      </trkpt>
      <trkpt lat="45.91528" lon="4.68131">
        <ele>379</ele>
        <time>2017-03-25T10:32:44Z</time>
      </trkpt>
      <trkpt lat="45.91534" lon="4.68135">
        <ele>379</ele>
        <time>2017-03-25T10:32:45Z</time>
      </trkpt>
      <trkpt lat="45.91541" lon="4.68139">
        <ele>379</ele>
        <time>2017-03-25T10:32:46Z</time>
      </trkpt>
      <trkpt lat="45.91548" lon="4.68143">
        <ele>379</ele>
        <time>2017-03-25T10:32:47Z</time>
      </trkpt>
      <trkpt lat="45.91556" lon="4.68146">
        <ele>379</ele>
        <time>2017-03-25T10:32:48Z</time>
      </trkpt>
      <trkpt lat="45.91563" lon="4.6815">
        <ele>378</ele>
        <time>2017-03-25T10:32:49Z</time>
      </trkpt>
      <trkpt lat="45.9157" lon="4.68154">
        <ele>378</ele>
        <time>2017-03-25T10:32:50Z</time>
      </trkpt>
      <trkpt lat="45.91578" lon="4.68158">
        <ele>378</ele>
        <time>2017-03-25T10:32:51Z</time>
      </trkpt>
      <trkpt lat="45.91585" lon="4.68163">
        <ele>377</ele>
        <time>2017-03-25T10:32:52Z</time>
      </trkpt>
      <trkpt lat="45.91592" lon="4.68168">
        <ele>377</ele>
        <time>2017-03-25T10:32:53Z</time>
      </trkpt>
      <trkpt lat="45.91599" lon="4.68174">
        <ele>376</ele>
        <time>2017-03-25T10:32:54Z</time>
      </trkpt>
      <trkpt lat="45.91606" lon="4.68179">
        <ele>376</ele>
        <time>2017-03-25T10:32:55Z</time>
      </trkpt>
      <trkpt lat="45.91613" lon="4.68185">
        <ele>375</ele>
        <time>2017-03-25T10:32:56Z</time>
      </trkpt>
      <trkpt lat="45.91621" lon="4.6819">
        <ele>375</ele>
        <time>2017-03-25T10:32:57Z</time>
      </trkpt>
      <trkpt lat="45.91628" lon="4.68196">
        <ele>375</ele>
        <time>2017-03-25T10:32:58Z</time>
      </trkpt>
      <trkpt lat="45.91636" lon="4.68202">
        <ele>374</ele>
        <time>2017-03-25T10:32:59Z</time>
      </trkpt>
      <trkpt lat="45.91644" lon="4.68207">
        <ele>374</ele>
        <time>2017-03-25T10:33:00Z</time>
      </trkpt>
      <trkpt lat="45.91652" lon="4.68213">
        <ele>374</ele>
        <time>2017-03-25T10:33:01Z</time>
      </trkpt>
      <trkpt lat="45.9166" lon="4.68218">
        <ele>374</ele>
        <time>2017-03-25T10:33:02Z</time>
      </trkpt>
      <trkpt lat="45.91667" lon="4.68224">
        <ele>371</ele>
        <time>2017-03-25T10:33:03Z</time>
      </trkpt>
      <trkpt lat="45.91675" lon="4.68229">
        <ele>371</ele>
        <time>2017-03-25T10:33:04Z</time>
      </trkpt>
      <trkpt lat="45.91683" lon="4.68234">
        <ele>371</ele>
        <time>2017-03-25T10:33:05Z</time>
      </trkpt>
      <trkpt lat="45.91691" lon="4.68239">
        <ele>371</ele>
        <time>2017-03-25T10:33:06Z</time>
      </trkpt>
      <trkpt lat="45.91699" lon="4.68243">
        <ele>370</ele>
        <time>2017-03-25T10:33:07Z</time>
      </trkpt>
      <trkpt lat="45.91706" lon="4.68247">
        <ele>370</ele>
        <time>2017-03-25T10:33:08Z</time>
      </trkpt>
      <trkpt lat="45.91714" lon="4.68251">
        <ele>373</ele>
        <time>2017-03-25T10:33:09Z</time>
      </trkpt>
      <trkpt lat="45.91722" lon="4.68253">
        <ele>372</ele>
        <time>2017-03-25T10:33:10Z</time>
      </trkpt>
      <trkpt lat="45.91729" lon="4.68255">
        <ele>372</ele>
        <time>2017-03-25T10:33:11Z</time>
      </trkpt>
      <trkpt lat="45.91736" lon="4.68257">
        <ele>372</ele>
        <time>2017-03-25T10:33:12Z</time>
      </trkpt>
      <trkpt lat="45.91743" lon="4.68259">
        <ele>371</ele>
        <time>2017-03-25T10:33:13Z</time>
      </trkpt>
      <trkpt lat="45.9175" lon="4.68261">
        <ele>371</ele>
        <time>2017-03-25T10:33:14Z</time>
      </trkpt>
      <trkpt lat="45.91756" lon="4.68263">
        <ele>371</ele>
        <time>2017-03-25T10:33:15Z</time>
      </trkpt>
      <trkpt lat="45.91761" lon="4.68265">
        <ele>372</ele>
        <time>2017-03-25T10:33:16Z</time>
      </trkpt>
      <trkpt lat="45.91767" lon="4.68267">
        <ele>372</ele>
        <time>2017-03-25T10:33:17Z</time>
      </trkpt>
      <trkpt lat="45.91772" lon="4.68268">
        <ele>372</ele>
        <time>2017-03-25T10:33:18Z</time>
      </trkpt>
      <trkpt lat="45.91777" lon="4.6827">
        <ele>372</ele>
        <time>2017-03-25T10:33:19Z</time>
      </trkpt>
      <trkpt lat="45.91782" lon="4.6827">
        <ele>372</ele>
        <time>2017-03-25T10:33:20Z</time>
      </trkpt>
      <trkpt lat="45.91787" lon="4.68271">
        <ele>372</ele>
        <time>2017-03-25T10:33:21Z</time>
      </trkpt>
      <trkpt lat="45.91791" lon="4.68272">
        <ele>372</ele>
        <time>2017-03-25T10:33:22Z</time>
      </trkpt>
      <trkpt lat="45.91796" lon="4.68273">
        <ele>372</ele>
        <time>2017-03-25T10:33:23Z</time>
      </trkpt>
      <trkpt lat="45.91801" lon="4.68274">
        <ele>372</ele>
        <time>2017-03-25T10:33:24Z</time>
      </trkpt>
      <trkpt lat="45.91806" lon="4.68275">
        <ele>372</ele>
        <time>2017-03-25T10:33:25Z</time>
      </trkpt>
      <trkpt lat="45.91811" lon="4.68276">
        <ele>372</ele>
        <time>2017-03-25T10:33:26Z</time>
      </trkpt>
      <trkpt lat="45.91816" lon="4.68277">
        <ele>372</ele>
        <time>2017-03-25T10:33:27Z</time>
      </trkpt>
      <trkpt lat="45.91821" lon="4.68278">
        <ele>372</ele>
        <time>2017-03-25T10:33:28Z</time>
      </trkpt>
      <trkpt lat="45.91826" lon="4.6828">
        <ele>372</ele>
        <time>2017-03-25T10:33:29Z</time>
      </trkpt>
      <trkpt lat="45.9183" lon="4.68281">
        <ele>373</ele>
        <time>2017-03-25T10:33:30Z</time>
      </trkpt>
      <trkpt lat="45.91835" lon="4.68282">
        <ele>374</ele>
        <time>2017-03-25T10:33:31Z</time>
      </trkpt>
      <trkpt lat="45.9184" lon="4.68284">
        <ele>374</ele>
        <time>2017-03-25T10:33:32Z</time>
      </trkpt>
      <trkpt lat="45.91845" lon="4.68285">
        <ele>375</ele>
        <time>2017-03-25T10:33:33Z</time>
      </trkpt>
      <trkpt lat="45.9185" lon="4.68286">
        <ele>375</ele>
        <time>2017-03-25T10:33:34Z</time>
      </trkpt>
      <trkpt lat="45.91854" lon="4.68287">
        <ele>375</ele>
        <time>2017-03-25T10:33:35Z</time>
      </trkpt>
      <trkpt lat="45.91859" lon="4.68288">
        <ele>375</ele>
        <time>2017-03-25T10:33:36Z</time>
      </trkpt>
      <trkpt lat="45.91864" lon="4.68288">
        <ele>375</ele>
        <time>2017-03-25T10:33:37Z</time>
      </trkpt>
      <trkpt lat="45.91869" lon="4.68288">
        <ele>375</ele>
        <time>2017-03-25T10:33:38Z</time>
      </trkpt>
      <trkpt lat="45.91874" lon="4.68289">
        <ele>376</ele>
        <time>2017-03-25T10:33:39Z</time>
      </trkpt>
      <trkpt lat="45.91879" lon="4.68288">
        <ele>376</ele>
        <time>2017-03-25T10:33:40Z</time>
      </trkpt>
      <trkpt lat="45.91884" lon="4.68288">
        <ele>376</ele>
        <time>2017-03-25T10:33:41Z</time>
      </trkpt>
      <trkpt lat="45.91888" lon="4.68288">
        <ele>376</ele>
        <time>2017-03-25T10:33:42Z</time>
      </trkpt>
      <trkpt lat="45.91897" lon="4.68289">
        <ele>376</ele>
        <time>2017-03-25T10:33:44Z</time>
      </trkpt>
      <trkpt lat="45.91902" lon="4.6829">
        <ele>376</ele>
        <time>2017-03-25T10:33:45Z</time>
      </trkpt>
      <trkpt lat="45.91907" lon="4.68291">
        <ele>376</ele>
        <time>2017-03-25T10:33:46Z</time>
      </trkpt>
      <trkpt lat="45.91912" lon="4.68291">
        <ele>377</ele>
        <time>2017-03-25T10:33:47Z</time>
      </trkpt>
      <trkpt lat="45.91917" lon="4.68293">
        <ele>377</ele>
        <time>2017-03-25T10:33:48Z</time>
      </trkpt>
      <trkpt lat="45.91921" lon="4.68294">
        <ele>379</ele>
        <time>2017-03-25T10:33:49Z</time>
      </trkpt>
      <trkpt lat="45.9193" lon="4.68295">
        <ele>379</ele>
        <time>2017-03-25T10:33:51Z</time>
      </trkpt>
      <trkpt lat="45.91935" lon="4.68296">
        <ele>379</ele>
        <time>2017-03-25T10:33:52Z</time>
      </trkpt>
      <trkpt lat="45.91943" lon="4.68297">
        <ele>379</ele>
        <time>2017-03-25T10:33:54Z</time>
      </trkpt>
      <trkpt lat="45.91947" lon="4.68298">
        <ele>379</ele>
        <time>2017-03-25T10:33:55Z</time>
      </trkpt>
      <trkpt lat="45.91955" lon="4.68299">
        <ele>379</ele>
        <time>2017-03-25T10:33:57Z</time>
      </trkpt>
      <trkpt lat="45.91959" lon="4.683">
        <ele>379</ele>
        <time>2017-03-25T10:33:58Z</time>
      </trkpt>
      <trkpt lat="45.91966" lon="4.68302">
        <ele>379</ele>
        <time>2017-03-25T10:34:00Z</time>
      </trkpt>
      <trkpt lat="45.9197" lon="4.68303">
        <ele>380</ele>
        <time>2017-03-25T10:34:01Z</time>
      </trkpt>
      <trkpt lat="45.91978" lon="4.68304">
        <ele>380</ele>
        <time>2017-03-25T10:34:03Z</time>
      </trkpt>
      <trkpt lat="45.91982" lon="4.68305">
        <ele>380</ele>
        <time>2017-03-25T10:34:04Z</time>
      </trkpt>
      <trkpt lat="45.91986" lon="4.68307">
        <ele>380</ele>
        <time>2017-03-25T10:34:05Z</time>
      </trkpt>
      <trkpt lat="45.91991" lon="4.68309">
        <ele>380</ele>
        <time>2017-03-25T10:34:06Z</time>
      </trkpt>
      <trkpt lat="45.91999" lon="4.68311">
        <ele>381</ele>
        <time>2017-03-25T10:34:08Z</time>
      </trkpt>
      <trkpt lat="45.92003" lon="4.68313">
        <ele>380</ele>
        <time>2017-03-25T10:34:09Z</time>
      </trkpt>
      <trkpt lat="45.9201" lon="4.68314">
        <ele>380</ele>
        <time>2017-03-25T10:34:11Z</time>
      </trkpt>
      <trkpt lat="45.92014" lon="4.68314">
        <ele>380</ele>
        <time>2017-03-25T10:34:12Z</time>
      </trkpt>
      <trkpt lat="45.92021" lon="4.68315">
        <ele>380</ele>
        <time>2017-03-25T10:34:14Z</time>
      </trkpt>
      <trkpt lat="45.92025" lon="4.68316">
        <ele>380</ele>
        <time>2017-03-25T10:34:15Z</time>
      </trkpt>
      <trkpt lat="45.92033" lon="4.68317">
        <ele>380</ele>
        <time>2017-03-25T10:34:17Z</time>
      </trkpt>
      <trkpt lat="45.92037" lon="4.68317">
        <ele>380</ele>
        <time>2017-03-25T10:34:18Z</time>
      </trkpt>
      <trkpt lat="45.92045" lon="4.68318">
        <ele>379</ele>
        <time>2017-03-25T10:34:20Z</time>
      </trkpt>
      <trkpt lat="45.92049" lon="4.68318">
        <ele>379</ele>
        <time>2017-03-25T10:34:21Z</time>
      </trkpt>
      <trkpt lat="45.92057" lon="4.68319">
        <ele>379</ele>
        <time>2017-03-25T10:34:23Z</time>
      </trkpt>
      <trkpt lat="45.92061" lon="4.6832">
        <ele>380</ele>
        <time>2017-03-25T10:34:24Z</time>
      </trkpt>
      <trkpt lat="45.92069" lon="4.68323">
        <ele>380</ele>
        <time>2017-03-25T10:34:26Z</time>
      </trkpt>
      <trkpt lat="45.92074" lon="4.68324">
        <ele>380</ele>
        <time>2017-03-25T10:34:27Z</time>
      </trkpt>
      <trkpt lat="45.92078" lon="4.68326">
        <ele>381</ele>
        <time>2017-03-25T10:34:28Z</time>
      </trkpt>
      <trkpt lat="45.92083" lon="4.68327">
        <ele>381</ele>
        <time>2017-03-25T10:34:29Z</time>
      </trkpt>
      <trkpt lat="45.9209" lon="4.68329">
        <ele>380</ele>
        <time>2017-03-25T10:34:31Z</time>
      </trkpt>
      <trkpt lat="45.92094" lon="4.6833">
        <ele>380</ele>
        <time>2017-03-25T10:34:32Z</time>
      </trkpt>
      <trkpt lat="45.92102" lon="4.68334">
        <ele>383</ele>
        <time>2017-03-25T10:34:34Z</time>
      </trkpt>
      <trkpt lat="45.92106" lon="4.68336">
        <ele>383</ele>
        <time>2017-03-25T10:34:35Z</time>
      </trkpt>
      <trkpt lat="45.92113" lon="4.68341">
        <ele>383</ele>
        <time>2017-03-25T10:34:37Z</time>
      </trkpt>
      <trkpt lat="45.92117" lon="4.68344">
        <ele>383</ele>
        <time>2017-03-25T10:34:38Z</time>
      </trkpt>
      <trkpt lat="45.92121" lon="4.68348">
        <ele>383</ele>
        <time>2017-03-25T10:34:39Z</time>
      </trkpt>
      <trkpt lat="45.92125" lon="4.68351">
        <ele>383</ele>
        <time>2017-03-25T10:34:40Z</time>
      </trkpt>
      <trkpt lat="45.92132" lon="4.68357">
        <ele>383</ele>
        <time>2017-03-25T10:34:42Z</time>
      </trkpt>
      <trkpt lat="45.92135" lon="4.6836">
        <ele>383</ele>
        <time>2017-03-25T10:34:43Z</time>
      </trkpt>
      <trkpt lat="45.92142" lon="4.68366">
        <ele>383</ele>
        <time>2017-03-25T10:34:45Z</time>
      </trkpt>
      <trkpt lat="45.92145" lon="4.6837">
        <ele>383</ele>
        <time>2017-03-25T10:34:46Z</time>
      </trkpt>
      <trkpt lat="45.92152" lon="4.68378">
        <ele>384</ele>
        <time>2017-03-25T10:34:48Z</time>
      </trkpt>
      <trkpt lat="45.92156" lon="4.68382">
        <ele>384</ele>
        <time>2017-03-25T10:34:49Z</time>
      </trkpt>
      <trkpt lat="45.92159" lon="4.68385">
        <ele>384</ele>
        <time>2017-03-25T10:34:50Z</time>
      </trkpt>
      <trkpt lat="45.92163" lon="4.68389">
        <ele>384</ele>
        <time>2017-03-25T10:34:51Z</time>
      </trkpt>
      <trkpt lat="45.92167" lon="4.68393">
        <ele>383</ele>
        <time>2017-03-25T10:34:52Z</time>
      </trkpt>
      <trkpt lat="45.92171" lon="4.68398">
        <ele>384</ele>
        <time>2017-03-25T10:34:53Z</time>
      </trkpt>
      <trkpt lat="45.92174" lon="4.68402">
        <ele>384</ele>
        <time>2017-03-25T10:34:54Z</time>
      </trkpt>
      <trkpt lat="45.92177" lon="4.68407">
        <ele>384</ele>
        <time>2017-03-25T10:34:55Z</time>
      </trkpt>
      <trkpt lat="45.92181" lon="4.68411">
        <ele>384</ele>
        <time>2017-03-25T10:34:56Z</time>
      </trkpt>
      <trkpt lat="45.92185" lon="4.68414">
        <ele>384</ele>
        <time>2017-03-25T10:34:57Z</time>
      </trkpt>
      <trkpt lat="45.92189" lon="4.68417">
        <ele>383</ele>
        <time>2017-03-25T10:34:58Z</time>
      </trkpt>
      <trkpt lat="45.92194" lon="4.68419">
        <ele>386</ele>
        <time>2017-03-25T10:34:59Z</time>
      </trkpt>
      <trkpt lat="45.92198" lon="4.68421">
        <ele>386</ele>
        <time>2017-03-25T10:35:00Z</time>
      </trkpt>
      <trkpt lat="45.92202" lon="4.68424">
        <ele>386</ele>
        <time>2017-03-25T10:35:01Z</time>
      </trkpt>
      <trkpt lat="45.92207" lon="4.68426">
        <ele>386</ele>
        <time>2017-03-25T10:35:02Z</time>
      </trkpt>
      <trkpt lat="45.92211" lon="4.68429">
        <ele>386</ele>
        <time>2017-03-25T10:35:03Z</time>
      </trkpt>
      <trkpt lat="45.92215" lon="4.68433">
        <ele>386</ele>
        <time>2017-03-25T10:35:04Z</time>
      </trkpt>
      <trkpt lat="45.92219" lon="4.68436">
        <ele>386</ele>
        <time>2017-03-25T10:35:05Z</time>
      </trkpt>
      <trkpt lat="45.92223" lon="4.6844">
        <ele>385</ele>
        <time>2017-03-25T10:35:06Z</time>
      </trkpt>
      <trkpt lat="45.92227" lon="4.68444">
        <ele>386</ele>
        <time>2017-03-25T10:35:07Z</time>
      </trkpt>
      <trkpt lat="45.92231" lon="4.68448">
        <ele>386</ele>
        <time>2017-03-25T10:35:08Z</time>
      </trkpt>
      <trkpt lat="45.92235" lon="4.68452">
        <ele>386</ele>
        <time>2017-03-25T10:35:09Z</time>
      </trkpt>
      <trkpt lat="45.92239" lon="4.68456">
        <ele>386</ele>
        <time>2017-03-25T10:35:10Z</time>
      </trkpt>
      <trkpt lat="45.92243" lon="4.6846">
        <ele>386</ele>
        <time>2017-03-25T10:35:11Z</time>
      </trkpt>
      <trkpt lat="45.92247" lon="4.68464">
        <ele>386</ele>
        <time>2017-03-25T10:35:12Z</time>
      </trkpt>
      <trkpt lat="45.92251" lon="4.68469">
        <ele>384</ele>
        <time>2017-03-25T10:35:13Z</time>
      </trkpt>
      <trkpt lat="45.92255" lon="4.68473">
        <ele>384</ele>
        <time>2017-03-25T10:35:14Z</time>
      </trkpt>
      <trkpt lat="45.9226" lon="4.68478">
        <ele>384</ele>
        <time>2017-03-25T10:35:15Z</time>
      </trkpt>
      <trkpt lat="45.92264" lon="4.68483">
        <ele>384</ele>
        <time>2017-03-25T10:35:16Z</time>
      </trkpt>
      <trkpt lat="45.92269" lon="4.68487">
        <ele>384</ele>
        <time>2017-03-25T10:35:17Z</time>
      </trkpt>
      <trkpt lat="45.92273" lon="4.68492">
        <ele>384</ele>
        <time>2017-03-25T10:35:18Z</time>
      </trkpt>
      <trkpt lat="45.92276" lon="4.68499">
        <ele>384</ele>
        <time>2017-03-25T10:35:19Z</time>
      </trkpt>
      <trkpt lat="45.9228" lon="4.68504">
        <ele>387</ele>
        <time>2017-03-25T10:35:20Z</time>
      </trkpt>
      <trkpt lat="45.92284" lon="4.68508">
        <ele>387</ele>
        <time>2017-03-25T10:35:21Z</time>
      </trkpt>
      <trkpt lat="45.92287" lon="4.68512">
        <ele>387</ele>
        <time>2017-03-25T10:35:22Z</time>
      </trkpt>
      <trkpt lat="45.92291" lon="4.68516">
        <ele>387</ele>
        <time>2017-03-25T10:35:23Z</time>
      </trkpt>
      <trkpt lat="45.92295" lon="4.68519">
        <ele>387</ele>
        <time>2017-03-25T10:35:24Z</time>
      </trkpt>
      <trkpt lat="45.92299" lon="4.68523">
        <ele>387</ele>
        <time>2017-03-25T10:35:25Z</time>
      </trkpt>
      <trkpt lat="45.92303" lon="4.68526">
        <ele>387</ele>
        <time>2017-03-25T10:35:26Z</time>
      </trkpt>
      <trkpt lat="45.92307" lon="4.6853">
        <ele>387</ele>
        <time>2017-03-25T10:35:27Z</time>
      </trkpt>
      <trkpt lat="45.92311" lon="4.68533">
        <ele>388</ele>
        <time>2017-03-25T10:35:28Z</time>
      </trkpt>
      <trkpt lat="45.92314" lon="4.68536">
        <ele>388</ele>
        <time>2017-03-25T10:35:29Z</time>
      </trkpt>
      <trkpt lat="45.92318" lon="4.6854">
        <ele>388</ele>
        <time>2017-03-25T10:35:30Z</time>
      </trkpt>
      <trkpt lat="45.92322" lon="4.68543">
        <ele>388</ele>
        <time>2017-03-25T10:35:31Z</time>
      </trkpt>
      <trkpt lat="45.92327" lon="4.68546">
        <ele>388</ele>
        <time>2017-03-25T10:35:32Z</time>
      </trkpt>
      <trkpt lat="45.92331" lon="4.68549">
        <ele>388</ele>
        <time>2017-03-25T10:35:33Z</time>
      </trkpt>
      <trkpt lat="45.92336" lon="4.68552">
        <ele>385</ele>
        <time>2017-03-25T10:35:34Z</time>
      </trkpt>
      <trkpt lat="45.9234" lon="4.68556">
        <ele>385</ele>
        <time>2017-03-25T10:35:35Z</time>
      </trkpt>
      <trkpt lat="45.92345" lon="4.68559">
        <ele>385</ele>
        <time>2017-03-25T10:35:36Z</time>
      </trkpt>
      <trkpt lat="45.92349" lon="4.68562">
        <ele>386</ele>
        <time>2017-03-25T10:35:37Z</time>
      </trkpt>
      <trkpt lat="45.92353" lon="4.68566">
        <ele>385</ele>
        <time>2017-03-25T10:35:38Z</time>
      </trkpt>
      <trkpt lat="45.92358" lon="4.68569">
        <ele>385</ele>
        <time>2017-03-25T10:35:39Z</time>
      </trkpt>
      <trkpt lat="45.92363" lon="4.68571">
        <ele>385</ele>
        <time>2017-03-25T10:35:40Z</time>
      </trkpt>
      <trkpt lat="45.92368" lon="4.68574">
        <ele>385</ele>
        <time>2017-03-25T10:35:41Z</time>
      </trkpt>
      <trkpt lat="45.92373" lon="4.68577">
        <ele>384</ele>
        <time>2017-03-25T10:35:42Z</time>
      </trkpt>
      <trkpt lat="45.92378" lon="4.6858">
        <ele>384</ele>
        <time>2017-03-25T10:35:43Z</time>
      </trkpt>
      <trkpt lat="45.92383" lon="4.68584">
        <ele>387</ele>
        <time>2017-03-25T10:35:44Z</time>
      </trkpt>
      <trkpt lat="45.92388" lon="4.68588">
        <ele>387</ele>
        <time>2017-03-25T10:35:45Z</time>
      </trkpt>
      <trkpt lat="45.92393" lon="4.68591">
        <ele>386</ele>
        <time>2017-03-25T10:35:46Z</time>
      </trkpt>
      <trkpt lat="45.92398" lon="4.68594">
        <ele>386</ele>
        <time>2017-03-25T10:35:47Z</time>
      </trkpt>
      <trkpt lat="45.92403" lon="4.68597">
        <ele>385</ele>
        <time>2017-03-25T10:35:48Z</time>
      </trkpt>
      <trkpt lat="45.92409" lon="4.686">
        <ele>385</ele>
        <time>2017-03-25T10:35:49Z</time>
      </trkpt>
      <trkpt lat="45.92415" lon="4.68603">
        <ele>385</ele>
        <time>2017-03-25T10:35:50Z</time>
      </trkpt>
      <trkpt lat="45.92421" lon="4.68606">
        <ele>381</ele>
        <time>2017-03-25T10:35:51Z</time>
      </trkpt>
      <trkpt lat="45.92428" lon="4.68609">
        <ele>381</ele>
        <time>2017-03-25T10:35:52Z</time>
      </trkpt>
      <trkpt lat="45.92434" lon="4.68613">
        <ele>381</ele>
        <time>2017-03-25T10:35:53Z</time>
      </trkpt>
      <trkpt lat="45.92441" lon="4.68617">
        <ele>381</ele>
        <time>2017-03-25T10:35:54Z</time>
      </trkpt>
      <trkpt lat="45.92448" lon="4.68621">
        <ele>380</ele>
        <time>2017-03-25T10:35:55Z</time>
      </trkpt>
      <trkpt lat="45.92454" lon="4.68624">
        <ele>380</ele>
        <time>2017-03-25T10:35:56Z</time>
      </trkpt>
      <trkpt lat="45.92462" lon="4.68627">
        <ele>380</ele>
        <time>2017-03-25T10:35:57Z</time>
      </trkpt>
      <trkpt lat="45.92469" lon="4.68631">
        <ele>380</ele>
        <time>2017-03-25T10:35:58Z</time>
      </trkpt>
      <trkpt lat="45.92477" lon="4.68634">
        <ele>379</ele>
        <time>2017-03-25T10:35:59Z</time>
      </trkpt>
      <trkpt lat="45.92484" lon="4.68637">
        <ele>379</ele>
        <time>2017-03-25T10:36:00Z</time>
      </trkpt>
      <trkpt lat="45.92492" lon="4.6864">
        <ele>379</ele>
        <time>2017-03-25T10:36:01Z</time>
      </trkpt>
      <trkpt lat="45.92499" lon="4.68642">
        <ele>379</ele>
        <time>2017-03-25T10:36:02Z</time>
      </trkpt>
      <trkpt lat="45.92507" lon="4.68644">
        <ele>376</ele>
        <time>2017-03-25T10:36:03Z</time>
      </trkpt>
      <trkpt lat="45.92514" lon="4.68646">
        <ele>375</ele>
        <time>2017-03-25T10:36:04Z</time>
      </trkpt>
      <trkpt lat="45.92522" lon="4.68648">
        <ele>375</ele>
        <time>2017-03-25T10:36:05Z</time>
      </trkpt>
      <trkpt lat="45.92529" lon="4.6865">
        <ele>375</ele>
        <time>2017-03-25T10:36:06Z</time>
      </trkpt>
      <trkpt lat="45.92536" lon="4.68651">
        <ele>375</ele>
        <time>2017-03-25T10:36:07Z</time>
      </trkpt>
      <trkpt lat="45.92543" lon="4.68652">
        <ele>374</ele>
        <time>2017-03-25T10:36:08Z</time>
      </trkpt>
      <trkpt lat="45.9255" lon="4.68652">
        <ele>374</ele>
        <time>2017-03-25T10:36:09Z</time>
      </trkpt>
      <trkpt lat="45.92556" lon="4.68652">
        <ele>374</ele>
        <time>2017-03-25T10:36:10Z</time>
      </trkpt>
      <trkpt lat="45.92561" lon="4.68651">
        <ele>374</ele>
        <time>2017-03-25T10:36:11Z</time>
      </trkpt>
      <trkpt lat="45.92567" lon="4.68647">
        <ele>374</ele>
        <time>2017-03-25T10:36:12Z</time>
      </trkpt>
      <trkpt lat="45.92572" lon="4.68643">
        <ele>374</ele>
        <time>2017-03-25T10:36:13Z</time>
      </trkpt>
      <trkpt lat="45.92577" lon="4.68639">
        <ele>373</ele>
        <time>2017-03-25T10:36:14Z</time>
      </trkpt>
      <trkpt lat="45.92581" lon="4.68638">
        <ele>373</ele>
        <time>2017-03-25T10:36:15Z</time>
      </trkpt>
      <trkpt lat="45.9259" lon="4.68635">
        <ele>370</ele>
        <time>2017-03-25T10:36:17Z</time>
      </trkpt>
      <trkpt lat="45.92594" lon="4.68633">
        <ele>370</ele>
        <time>2017-03-25T10:36:18Z</time>
      </trkpt>
      <trkpt lat="45.92602" lon="4.6863">
        <ele>369</ele>
        <time>2017-03-25T10:36:21Z</time>
      </trkpt>
      <trkpt lat="45.92605" lon="4.68631">
        <ele>369</ele>
        <time>2017-03-25T10:36:22Z</time>
      </trkpt>
      <trkpt lat="45.92614" lon="4.68627">
        <ele>369</ele>
        <time>2017-03-25T10:36:24Z</time>
      </trkpt>
      <trkpt lat="45.92618" lon="4.68625">
        <ele>369</ele>
        <time>2017-03-25T10:36:25Z</time>
      </trkpt>
      <trkpt lat="45.92623" lon="4.68622">
        <ele>368</ele>
        <time>2017-03-25T10:36:26Z</time>
      </trkpt>
      <trkpt lat="45.92628" lon="4.68619">
        <ele>368</ele>
        <time>2017-03-25T10:36:27Z</time>
      </trkpt>
      <trkpt lat="45.92633" lon="4.68616">
        <ele>368</ele>
        <time>2017-03-25T10:36:28Z</time>
      </trkpt>
      <trkpt lat="45.92638" lon="4.68615">
        <ele>368</ele>
        <time>2017-03-25T10:36:29Z</time>
      </trkpt>
      <trkpt lat="45.92643" lon="4.68613">
        <ele>367</ele>
        <time>2017-03-25T10:36:30Z</time>
      </trkpt>
      <trkpt lat="45.92649" lon="4.68611">
        <ele>367</ele>
        <time>2017-03-25T10:36:31Z</time>
      </trkpt>
      <trkpt lat="45.92654" lon="4.68609">
        <ele>367</ele>
        <time>2017-03-25T10:36:32Z</time>
      </trkpt>
      <trkpt lat="45.92659" lon="4.68607">
        <ele>367</ele>
        <time>2017-03-25T10:36:33Z</time>
      </trkpt>
      <trkpt lat="45.92664" lon="4.68605">
        <ele>367</ele>
        <time>2017-03-25T10:36:34Z</time>
      </trkpt>
      <trkpt lat="45.92669" lon="4.68603">
        <ele>364</ele>
        <time>2017-03-25T10:36:35Z</time>
      </trkpt>
      <trkpt lat="45.92674" lon="4.68602">
        <ele>364</ele>
        <time>2017-03-25T10:36:36Z</time>
      </trkpt>
      <trkpt lat="45.92679" lon="4.686">
        <ele>364</ele>
        <time>2017-03-25T10:36:37Z</time>
      </trkpt>
      <trkpt lat="45.92683" lon="4.68598">
        <ele>364</ele>
        <time>2017-03-25T10:36:38Z</time>
      </trkpt>
      <trkpt lat="45.92688" lon="4.68595">
        <ele>364</ele>
        <time>2017-03-25T10:36:39Z</time>
      </trkpt>
      <trkpt lat="45.92693" lon="4.68593">
        <ele>364</ele>
        <time>2017-03-25T10:36:40Z</time>
      </trkpt>
      <trkpt lat="45.92699" lon="4.68591">
        <ele>364</ele>
        <time>2017-03-25T10:36:41Z</time>
      </trkpt>
      <trkpt lat="45.92704" lon="4.68589">
        <ele>364</ele>
        <time>2017-03-25T10:36:42Z</time>
      </trkpt>
      <trkpt lat="45.9271" lon="4.68586">
        <ele>364</ele>
        <time>2017-03-25T10:36:43Z</time>
      </trkpt>
      <trkpt lat="45.92715" lon="4.68583">
        <ele>366</ele>
        <time>2017-03-25T10:36:44Z</time>
      </trkpt>
      <trkpt lat="45.92721" lon="4.68581">
        <ele>366</ele>
        <time>2017-03-25T10:36:45Z</time>
      </trkpt>
      <trkpt lat="45.92726" lon="4.68579">
        <ele>366</ele>
        <time>2017-03-25T10:36:46Z</time>
      </trkpt>
      <trkpt lat="45.92731" lon="4.68576">
        <ele>366</ele>
        <time>2017-03-25T10:36:47Z</time>
      </trkpt>
      <trkpt lat="45.92737" lon="4.68574">
        <ele>366</ele>
        <time>2017-03-25T10:36:48Z</time>
      </trkpt>
      <trkpt lat="45.92742" lon="4.68573">
        <ele>366</ele>
        <time>2017-03-25T10:36:49Z</time>
      </trkpt>
      <trkpt lat="45.92748" lon="4.68573">
        <ele>366</ele>
        <time>2017-03-25T10:36:50Z</time>
      </trkpt>
      <trkpt lat="45.92754" lon="4.68572">
        <ele>366</ele>
        <time>2017-03-25T10:36:51Z</time>
      </trkpt>
      <trkpt lat="45.92761" lon="4.68572">
        <ele>365</ele>
        <time>2017-03-25T10:36:52Z</time>
      </trkpt>
      <trkpt lat="45.92766" lon="4.68571">
        <ele>365</ele>
        <time>2017-03-25T10:36:53Z</time>
      </trkpt>
      <trkpt lat="45.92772" lon="4.68571">
        <ele>365</ele>
        <time>2017-03-25T10:36:54Z</time>
      </trkpt>
      <trkpt lat="45.92778" lon="4.68572">
        <ele>365</ele>
        <time>2017-03-25T10:36:55Z</time>
      </trkpt>
      <trkpt lat="45.92784" lon="4.68573">
        <ele>365</ele>
        <time>2017-03-25T10:36:56Z</time>
      </trkpt>
      <trkpt lat="45.92791" lon="4.68573">
        <ele>364</ele>
        <time>2017-03-25T10:36:57Z</time>
      </trkpt>
      <trkpt lat="45.92797" lon="4.68574">
        <ele>364</ele>
        <time>2017-03-25T10:36:58Z</time>
      </trkpt>
      <trkpt lat="45.92804" lon="4.68575">
        <ele>364</ele>
        <time>2017-03-25T10:36:59Z</time>
      </trkpt>
      <trkpt lat="45.9281" lon="4.68577">
        <ele>363</ele>
        <time>2017-03-25T10:37:00Z</time>
      </trkpt>
      <trkpt lat="45.92817" lon="4.68578">
        <ele>363</ele>
        <time>2017-03-25T10:37:01Z</time>
      </trkpt>
      <trkpt lat="45.92824" lon="4.68579">
        <ele>362</ele>
        <time>2017-03-25T10:37:02Z</time>
      </trkpt>
      <trkpt lat="45.9283" lon="4.6858">
        <ele>362</ele>
        <time>2017-03-25T10:37:03Z</time>
      </trkpt>
      <trkpt lat="45.92837" lon="4.68581">
        <ele>361</ele>
        <time>2017-03-25T10:37:04Z</time>
      </trkpt>
      <trkpt lat="45.92843" lon="4.68582">
        <ele>361</ele>
        <time>2017-03-25T10:37:05Z</time>
      </trkpt>
      <trkpt lat="45.9285" lon="4.68584">
        <ele>359</ele>
        <time>2017-03-25T10:37:06Z</time>
      </trkpt>
      <trkpt lat="45.92857" lon="4.68586">
        <ele>359</ele>
        <time>2017-03-25T10:37:07Z</time>
      </trkpt>
      <trkpt lat="45.92864" lon="4.68587">
        <ele>359</ele>
        <time>2017-03-25T10:37:08Z</time>
      </trkpt>
      <trkpt lat="45.92871" lon="4.68588">
        <ele>359</ele>
        <time>2017-03-25T10:37:09Z</time>
      </trkpt>
      <trkpt lat="45.92878" lon="4.68589">
        <ele>359</ele>
        <time>2017-03-25T10:37:10Z</time>
      </trkpt>
      <trkpt lat="45.92885" lon="4.68591">
        <ele>358</ele>
        <time>2017-03-25T10:37:11Z</time>
      </trkpt>
      <trkpt lat="45.92892" lon="4.68592">
        <ele>358</ele>
        <time>2017-03-25T10:37:12Z</time>
      </trkpt>
      <trkpt lat="45.92899" lon="4.68594">
        <ele>358</ele>
        <time>2017-03-25T10:37:13Z</time>
      </trkpt>
      <trkpt lat="45.92906" lon="4.68595">
        <ele>358</ele>
        <time>2017-03-25T10:37:14Z</time>
      </trkpt>
      <trkpt lat="45.92913" lon="4.68596">
        <ele>359</ele>
        <time>2017-03-25T10:37:15Z</time>
      </trkpt>
      <trkpt lat="45.9292" lon="4.68597">
        <ele>359</ele>
        <time>2017-03-25T10:37:16Z</time>
      </trkpt>
      <trkpt lat="45.92928" lon="4.68599">
        <ele>359</ele>
        <time>2017-03-25T10:37:17Z</time>
      </trkpt>
      <trkpt lat="45.92935" lon="4.686">
        <ele>358</ele>
        <time>2017-03-25T10:37:18Z</time>
      </trkpt>
      <trkpt lat="45.92942" lon="4.68602">
        <ele>358</ele>
        <time>2017-03-25T10:37:19Z</time>
      </trkpt>
      <trkpt lat="45.92949" lon="4.68604">
        <ele>358</ele>
        <time>2017-03-25T10:37:20Z</time>
      </trkpt>
      <trkpt lat="45.92957" lon="4.68605">
        <ele>358</ele>
        <time>2017-03-25T10:37:21Z</time>
      </trkpt>
      <trkpt lat="45.92964" lon="4.68607">
        <ele>358</ele>
        <time>2017-03-25T10:37:22Z</time>
      </trkpt>
      <trkpt lat="45.92972" lon="4.68608">
        <ele>358</ele>
        <time>2017-03-25T10:37:23Z</time>
      </trkpt>
      <trkpt lat="45.92979" lon="4.68609">
        <ele>358</ele>
        <time>2017-03-25T10:37:24Z</time>
      </trkpt>
      <trkpt lat="45.92986" lon="4.6861">
        <ele>358</ele>
        <time>2017-03-25T10:37:25Z</time>
      </trkpt>
      <trkpt lat="45.92994" lon="4.68612">
        <ele>358</ele>
        <time>2017-03-25T10:37:26Z</time>
      </trkpt>
      <trkpt lat="45.93001" lon="4.68613">
        <ele>356</ele>
        <time>2017-03-25T10:37:27Z</time>
      </trkpt>
      <trkpt lat="45.93008" lon="4.68614">
        <ele>356</ele>
        <time>2017-03-25T10:37:28Z</time>
      </trkpt>
      <trkpt lat="45.93013" lon="4.68615">
        <ele>356</ele>
        <time>2017-03-25T10:37:29Z</time>
      </trkpt>
      <trkpt lat="45.9302" lon="4.68616">
        <ele>356</ele>
        <time>2017-03-25T10:37:30Z</time>
      </trkpt>
      <trkpt lat="45.93026" lon="4.68617">
        <ele>356</ele>
        <time>2017-03-25T10:37:31Z</time>
      </trkpt>
      <trkpt lat="45.93032" lon="4.68619">
        <ele>355</ele>
        <time>2017-03-25T10:37:32Z</time>
      </trkpt>
      <trkpt lat="45.93039" lon="4.68621">
        <ele>355</ele>
        <time>2017-03-25T10:37:33Z</time>
      </trkpt>
      <trkpt lat="45.93046" lon="4.68622">
        <ele>355</ele>
        <time>2017-03-25T10:37:34Z</time>
      </trkpt>
      <trkpt lat="45.93054" lon="4.68624">
        <ele>354</ele>
        <time>2017-03-25T10:37:35Z</time>
      </trkpt>
      <trkpt lat="45.93061" lon="4.68626">
        <ele>354</ele>
        <time>2017-03-25T10:37:36Z</time>
      </trkpt>
      <trkpt lat="45.93069" lon="4.68627">
        <ele>354</ele>
        <time>2017-03-25T10:37:37Z</time>
      </trkpt>
      <trkpt lat="45.93077" lon="4.68629">
        <ele>354</ele>
        <time>2017-03-25T10:37:38Z</time>
      </trkpt>
      <trkpt lat="45.93084" lon="4.68631">
        <ele>349</ele>
        <time>2017-03-25T10:37:39Z</time>
      </trkpt>
      <trkpt lat="45.93092" lon="4.68633">
        <ele>349</ele>
        <time>2017-03-25T10:37:40Z</time>
      </trkpt>
      <trkpt lat="45.93099" lon="4.68635">
        <ele>349</ele>
        <time>2017-03-25T10:37:41Z</time>
      </trkpt>
      <trkpt lat="45.93107" lon="4.68636">
        <ele>349</ele>
        <time>2017-03-25T10:37:42Z</time>
      </trkpt>
      <trkpt lat="45.93116" lon="4.68638">
        <ele>348</ele>
        <time>2017-03-25T10:37:43Z</time>
      </trkpt>
      <trkpt lat="45.93124" lon="4.6864">
        <ele>348</ele>
        <time>2017-03-25T10:37:44Z</time>
      </trkpt>
      <trkpt lat="45.93132" lon="4.68642">
        <ele>348</ele>
        <time>2017-03-25T10:37:45Z</time>
      </trkpt>
      <trkpt lat="45.93141" lon="4.68644">
        <ele>347</ele>
        <time>2017-03-25T10:37:46Z</time>
      </trkpt>
      <trkpt lat="45.9315" lon="4.68647">
        <ele>347</ele>
        <time>2017-03-25T10:37:47Z</time>
      </trkpt>
      <trkpt lat="45.93159" lon="4.68649">
        <ele>347</ele>
        <time>2017-03-25T10:37:48Z</time>
      </trkpt>
      <trkpt lat="45.93168" lon="4.6865">
        <ele>345</ele>
        <time>2017-03-25T10:37:49Z</time>
      </trkpt>
      <trkpt lat="45.93177" lon="4.68652">
        <ele>345</ele>
        <time>2017-03-25T10:37:50Z</time>
      </trkpt>
      <trkpt lat="45.93186" lon="4.68655">
        <ele>345</ele>
        <time>2017-03-25T10:37:51Z</time>
      </trkpt>
      <trkpt lat="45.93194" lon="4.68657">
        <ele>345</ele>
        <time>2017-03-25T10:37:52Z</time>
      </trkpt>
      <trkpt lat="45.93203" lon="4.68659">
        <ele>344</ele>
        <time>2017-03-25T10:37:53Z</time>
      </trkpt>
      <trkpt lat="45.93212" lon="4.68661">
        <ele>344</ele>
        <time>2017-03-25T10:37:54Z</time>
      </trkpt>
      <trkpt lat="45.9322" lon="4.68664">
        <ele>344</ele>
        <time>2017-03-25T10:37:55Z</time>
      </trkpt>
      <trkpt lat="45.93228" lon="4.68666">
        <ele>344</ele>
        <time>2017-03-25T10:37:56Z</time>
      </trkpt>
      <trkpt lat="45.93237" lon="4.68668">
        <ele>345</ele>
        <time>2017-03-25T10:37:57Z</time>
      </trkpt>
      <trkpt lat="45.93244" lon="4.6867">
        <ele>344</ele>
        <time>2017-03-25T10:37:58Z</time>
      </trkpt>
      <trkpt lat="45.93252" lon="4.68672">
        <ele>344</ele>
        <time>2017-03-25T10:37:59Z</time>
      </trkpt>
      <trkpt lat="45.93259" lon="4.68674">
        <ele>344</ele>
        <time>2017-03-25T10:38:00Z</time>
      </trkpt>
      <trkpt lat="45.93266" lon="4.68675">
        <ele>344</ele>
        <time>2017-03-25T10:38:01Z</time>
      </trkpt>
      <trkpt lat="45.93273" lon="4.68677">
        <ele>344</ele>
        <time>2017-03-25T10:38:02Z</time>
      </trkpt>
      <trkpt lat="45.93281" lon="4.68678">
        <ele>344</ele>
        <time>2017-03-25T10:38:03Z</time>
      </trkpt>
      <trkpt lat="45.93288" lon="4.6868">
        <ele>344</ele>
        <time>2017-03-25T10:38:04Z</time>
      </trkpt>
      <trkpt lat="45.93295" lon="4.68681">
        <ele>344</ele>
        <time>2017-03-25T10:38:05Z</time>
      </trkpt>
      <trkpt lat="45.93302" lon="4.68683">
        <ele>344</ele>
        <time>2017-03-25T10:38:06Z</time>
      </trkpt>
      <trkpt lat="45.93308" lon="4.68685">
        <ele>344</ele>
        <time>2017-03-25T10:38:07Z</time>
      </trkpt>
      <trkpt lat="45.93315" lon="4.68687">
        <ele>344</ele>
        <time>2017-03-25T10:38:08Z</time>
      </trkpt>
      <trkpt lat="45.93321" lon="4.68688">
        <ele>344</ele>
        <time>2017-03-25T10:38:09Z</time>
      </trkpt>
      <trkpt lat="45.93327" lon="4.6869">
        <ele>344</ele>
        <time>2017-03-25T10:38:10Z</time>
      </trkpt>
      <trkpt lat="45.93333" lon="4.68691">
        <ele>344</ele>
        <time>2017-03-25T10:38:11Z</time>
      </trkpt>
      <trkpt lat="45.9334" lon="4.68693">
        <ele>344</ele>
        <time>2017-03-25T10:38:12Z</time>
      </trkpt>
      <trkpt lat="45.93347" lon="4.68695">
        <ele>344</ele>
        <time>2017-03-25T10:38:13Z</time>
      </trkpt>
      <trkpt lat="45.93354" lon="4.68696">
        <ele>344</ele>
        <time>2017-03-25T10:38:14Z</time>
      </trkpt>
      <trkpt lat="45.93361" lon="4.68698">
        <ele>344</ele>
        <time>2017-03-25T10:38:15Z</time>
      </trkpt>
      <trkpt lat="45.93368" lon="4.68699">
        <ele>344</ele>
        <time>2017-03-25T10:38:16Z</time>
      </trkpt>
      <trkpt lat="45.93374" lon="4.687">
        <ele>344</ele>
        <time>2017-03-25T10:38:17Z</time>
      </trkpt>
      <trkpt lat="45.93381" lon="4.68701">
        <ele>344</ele>
        <time>2017-03-25T10:38:18Z</time>
      </trkpt>
      <trkpt lat="45.93387" lon="4.68703">
        <ele>344</ele>
        <time>2017-03-25T10:38:19Z</time>
      </trkpt>
      <trkpt lat="45.93394" lon="4.68704">
        <ele>344</ele>
        <time>2017-03-25T10:38:20Z</time>
      </trkpt>
      <trkpt lat="45.934" lon="4.68705">
        <ele>344</ele>
        <time>2017-03-25T10:38:21Z</time>
      </trkpt>
      <trkpt lat="45.93407" lon="4.68707">
        <ele>344</ele>
        <time>2017-03-25T10:38:22Z</time>
      </trkpt>
      <trkpt lat="45.93413" lon="4.68709">
        <ele>343</ele>
        <time>2017-03-25T10:38:23Z</time>
      </trkpt>
      <trkpt lat="45.93419" lon="4.6871">
        <ele>343</ele>
        <time>2017-03-25T10:38:24Z</time>
      </trkpt>
      <trkpt lat="45.93425" lon="4.68711">
        <ele>343</ele>
        <time>2017-03-25T10:38:25Z</time>
      </trkpt>
      <trkpt lat="45.93431" lon="4.68713">
        <ele>343</ele>
        <time>2017-03-25T10:38:26Z</time>
      </trkpt>
      <trkpt lat="45.93437" lon="4.68714">
        <ele>343</ele>
        <time>2017-03-25T10:38:27Z</time>
      </trkpt>
      <trkpt lat="45.93443" lon="4.68716">
        <ele>343</ele>
        <time>2017-03-25T10:38:28Z</time>
      </trkpt>
      <trkpt lat="45.9345" lon="4.68717">
        <ele>343</ele>
        <time>2017-03-25T10:38:29Z</time>
      </trkpt>
      <trkpt lat="45.93456" lon="4.68719">
        <ele>342</ele>
        <time>2017-03-25T10:38:30Z</time>
      </trkpt>
      <trkpt lat="45.93462" lon="4.6872">
        <ele>342</ele>
        <time>2017-03-25T10:38:31Z</time>
      </trkpt>
      <trkpt lat="45.93469" lon="4.68721">
        <ele>342</ele>
        <time>2017-03-25T10:38:32Z</time>
      </trkpt>
      <trkpt lat="45.93476" lon="4.68723">
        <ele>342</ele>
        <time>2017-03-25T10:38:33Z</time>
      </trkpt>
      <trkpt lat="45.93483" lon="4.68725">
        <ele>342</ele>
        <time>2017-03-25T10:38:34Z</time>
      </trkpt>
      <trkpt lat="45.9349" lon="4.68726">
        <ele>342</ele>
        <time>2017-03-25T10:38:35Z</time>
      </trkpt>
      <trkpt lat="45.93496" lon="4.68728">
        <ele>342</ele>
        <time>2017-03-25T10:38:36Z</time>
      </trkpt>
      <trkpt lat="45.93502" lon="4.6873">
        <ele>342</ele>
        <time>2017-03-25T10:38:37Z</time>
      </trkpt>
      <trkpt lat="45.93508" lon="4.68731">
        <ele>342</ele>
        <time>2017-03-25T10:38:38Z</time>
      </trkpt>
      <trkpt lat="45.93514" lon="4.68732">
        <ele>342</ele>
        <time>2017-03-25T10:38:39Z</time>
      </trkpt>
      <trkpt lat="45.9352" lon="4.68733">
        <ele>342</ele>
        <time>2017-03-25T10:38:40Z</time>
      </trkpt>
      <trkpt lat="45.93526" lon="4.68735">
        <ele>342</ele>
        <time>2017-03-25T10:38:41Z</time>
      </trkpt>
      <trkpt lat="45.93531" lon="4.68736">
        <ele>342</ele>
        <time>2017-03-25T10:38:42Z</time>
      </trkpt>
      <trkpt lat="45.93536" lon="4.68738">
        <ele>342</ele>
        <time>2017-03-25T10:38:43Z</time>
      </trkpt>
      <trkpt lat="45.93542" lon="4.6874">
        <ele>342</ele>
        <time>2017-03-25T10:38:44Z</time>
      </trkpt>
      <trkpt lat="45.93547" lon="4.68742">
        <ele>342</ele>
        <time>2017-03-25T10:38:45Z</time>
      </trkpt>
      <trkpt lat="45.93552" lon="4.68743">
        <ele>342</ele>
        <time>2017-03-25T10:38:46Z</time>
      </trkpt>
      <trkpt lat="45.93557" lon="4.68745">
        <ele>342</ele>
        <time>2017-03-25T10:38:47Z</time>
      </trkpt>
      <trkpt lat="45.93563" lon="4.68746">
        <ele>343</ele>
        <time>2017-03-25T10:38:48Z</time>
      </trkpt>
      <trkpt lat="45.93568" lon="4.68748">
        <ele>343</ele>
        <time>2017-03-25T10:38:49Z</time>
      </trkpt>
      <trkpt lat="45.93574" lon="4.68749">
        <ele>343</ele>
        <time>2017-03-25T10:38:50Z</time>
      </trkpt>
      <trkpt lat="45.93581" lon="4.68751">
        <ele>344</ele>
        <time>2017-03-25T10:38:51Z</time>
      </trkpt>
      <trkpt lat="45.93586" lon="4.68752">
        <ele>344</ele>
        <time>2017-03-25T10:38:52Z</time>
      </trkpt>
      <trkpt lat="45.93592" lon="4.68753">
        <ele>344</ele>
        <time>2017-03-25T10:38:53Z</time>
      </trkpt>
      <trkpt lat="45.93597" lon="4.68754">
        <ele>344</ele>
        <time>2017-03-25T10:38:54Z</time>
      </trkpt>
      <trkpt lat="45.93602" lon="4.68756">
        <ele>344</ele>
        <time>2017-03-25T10:38:55Z</time>
      </trkpt>
      <trkpt lat="45.93607" lon="4.68757">
        <ele>344</ele>
        <time>2017-03-25T10:38:56Z</time>
      </trkpt>
      <trkpt lat="45.93612" lon="4.68758">
        <ele>344</ele>
        <time>2017-03-25T10:38:57Z</time>
      </trkpt>
      <trkpt lat="45.93617" lon="4.68758">
        <ele>343</ele>
        <time>2017-03-25T10:38:58Z</time>
      </trkpt>
      <trkpt lat="45.93622" lon="4.68759">
        <ele>343</ele>
        <time>2017-03-25T10:38:59Z</time>
      </trkpt>
      <trkpt lat="45.93626" lon="4.68761">
        <ele>343</ele>
        <time>2017-03-25T10:39:00Z</time>
      </trkpt>
      <trkpt lat="45.93631" lon="4.68764">
        <ele>343</ele>
        <time>2017-03-25T10:39:01Z</time>
      </trkpt>
      <trkpt lat="45.93636" lon="4.68766">
        <ele>343</ele>
        <time>2017-03-25T10:39:02Z</time>
      </trkpt>
      <trkpt lat="45.93641" lon="4.68768">
        <ele>343</ele>
        <time>2017-03-25T10:39:03Z</time>
      </trkpt>
      <trkpt lat="45.93647" lon="4.6877">
        <ele>343</ele>
        <time>2017-03-25T10:39:04Z</time>
      </trkpt>
      <trkpt lat="45.93652" lon="4.68771">
        <ele>343</ele>
        <time>2017-03-25T10:39:05Z</time>
      </trkpt>
      <trkpt lat="45.93657" lon="4.68772">
        <ele>343</ele>
        <time>2017-03-25T10:39:06Z</time>
      </trkpt>
      <trkpt lat="45.93663" lon="4.68772">
        <ele>343</ele>
        <time>2017-03-25T10:39:07Z</time>
      </trkpt>
      <trkpt lat="45.93668" lon="4.68773">
        <ele>342</ele>
        <time>2017-03-25T10:39:08Z</time>
      </trkpt>
      <trkpt lat="45.93673" lon="4.68774">
        <ele>342</ele>
        <time>2017-03-25T10:39:09Z</time>
      </trkpt>
      <trkpt lat="45.93678" lon="4.68776">
        <ele>342</ele>
        <time>2017-03-25T10:39:10Z</time>
      </trkpt>
      <trkpt lat="45.93684" lon="4.68777">
        <ele>342</ele>
        <time>2017-03-25T10:39:11Z</time>
      </trkpt>
      <trkpt lat="45.93689" lon="4.68779">
        <ele>342</ele>
        <time>2017-03-25T10:39:12Z</time>
      </trkpt>
      <trkpt lat="45.93694" lon="4.6878">
        <ele>342</ele>
        <time>2017-03-25T10:39:13Z</time>
      </trkpt>
      <trkpt lat="45.93699" lon="4.68781">
        <ele>342</ele>
        <time>2017-03-25T10:39:14Z</time>
      </trkpt>
      <trkpt lat="45.93704" lon="4.68782">
        <ele>342</ele>
        <time>2017-03-25T10:39:15Z</time>
      </trkpt>
      <trkpt lat="45.93709" lon="4.68783">
        <ele>342</ele>
        <time>2017-03-25T10:39:16Z</time>
      </trkpt>
      <trkpt lat="45.93714" lon="4.68784">
        <ele>342</ele>
        <time>2017-03-25T10:39:17Z</time>
      </trkpt>
      <trkpt lat="45.93718" lon="4.68785">
        <ele>342</ele>
        <time>2017-03-25T10:39:18Z</time>
      </trkpt>
      <trkpt lat="45.93723" lon="4.68787">
        <ele>342</ele>
        <time>2017-03-25T10:39:19Z</time>
      </trkpt>
      <trkpt lat="45.93727" lon="4.68789">
        <ele>342</ele>
        <time>2017-03-25T10:39:20Z</time>
      </trkpt>
      <trkpt lat="45.93732" lon="4.68791">
        <ele>342</ele>
        <time>2017-03-25T10:39:21Z</time>
      </trkpt>
      <trkpt lat="45.93737" lon="4.68792">
        <ele>342</ele>
        <time>2017-03-25T10:39:22Z</time>
      </trkpt>
      <trkpt lat="45.93742" lon="4.68794">
        <ele>342</ele>
        <time>2017-03-25T10:39:23Z</time>
      </trkpt>
      <trkpt lat="45.93747" lon="4.68795">
        <ele>342</ele>
        <time>2017-03-25T10:39:24Z</time>
      </trkpt>
      <trkpt lat="45.93752" lon="4.68797">
        <ele>341</ele>
        <time>2017-03-25T10:39:25Z</time>
      </trkpt>
      <trkpt lat="45.93758" lon="4.68798">
        <ele>341</ele>
        <time>2017-03-25T10:39:26Z</time>
      </trkpt>
      <trkpt lat="45.93763" lon="4.688">
        <ele>341</ele>
        <time>2017-03-25T10:39:27Z</time>
      </trkpt>
      <trkpt lat="45.93768" lon="4.68803">
        <ele>341</ele>
        <time>2017-03-25T10:39:28Z</time>
      </trkpt>
      <trkpt lat="45.93774" lon="4.68806">
        <ele>341</ele>
        <time>2017-03-25T10:39:29Z</time>
      </trkpt>
      <trkpt lat="45.93779" lon="4.68808">
        <ele>341</ele>
        <time>2017-03-25T10:39:30Z</time>
      </trkpt>
      <trkpt lat="45.93784" lon="4.68811">
        <ele>341</ele>
        <time>2017-03-25T10:39:31Z</time>
      </trkpt>
      <trkpt lat="45.9379" lon="4.68813">
        <ele>341</ele>
        <time>2017-03-25T10:39:32Z</time>
      </trkpt>
      <trkpt lat="45.93794" lon="4.68815">
        <ele>341</ele>
        <time>2017-03-25T10:39:33Z</time>
      </trkpt>
      <trkpt lat="45.938" lon="4.68818">
        <ele>341</ele>
        <time>2017-03-25T10:39:34Z</time>
      </trkpt>
      <trkpt lat="45.93805" lon="4.68822">
        <ele>341</ele>
        <time>2017-03-25T10:39:35Z</time>
      </trkpt>
      <trkpt lat="45.9381" lon="4.68825">
        <ele>341</ele>
        <time>2017-03-25T10:39:36Z</time>
      </trkpt>
      <trkpt lat="45.93816" lon="4.68828">
        <ele>341</ele>
        <time>2017-03-25T10:39:37Z</time>
      </trkpt>
      <trkpt lat="45.93821" lon="4.68832">
        <ele>342</ele>
        <time>2017-03-25T10:39:38Z</time>
      </trkpt>
      <trkpt lat="45.93826" lon="4.68835">
        <ele>342</ele>
        <time>2017-03-25T10:39:39Z</time>
      </trkpt>
      <trkpt lat="45.93832" lon="4.68839">
        <ele>342</ele>
        <time>2017-03-25T10:39:40Z</time>
      </trkpt>
      <trkpt lat="45.93837" lon="4.68843">
        <ele>342</ele>
        <time>2017-03-25T10:39:41Z</time>
      </trkpt>
      <trkpt lat="45.93842" lon="4.68847">
        <ele>342</ele>
        <time>2017-03-25T10:39:42Z</time>
      </trkpt>
      <trkpt lat="45.93848" lon="4.6885">
        <ele>342</ele>
        <time>2017-03-25T10:39:43Z</time>
      </trkpt>
      <trkpt lat="45.93854" lon="4.68854">
        <ele>342</ele>
        <time>2017-03-25T10:39:44Z</time>
      </trkpt>
      <trkpt lat="45.93859" lon="4.68858">
        <ele>342</ele>
        <time>2017-03-25T10:39:45Z</time>
      </trkpt>
      <trkpt lat="45.93865" lon="4.68862">
        <ele>342</ele>
        <time>2017-03-25T10:39:46Z</time>
      </trkpt>
      <trkpt lat="45.9387" lon="4.68866">
        <ele>342</ele>
        <time>2017-03-25T10:39:47Z</time>
      </trkpt>
      <trkpt lat="45.93876" lon="4.6887">
        <ele>343</ele>
        <time>2017-03-25T10:39:48Z</time>
      </trkpt>
      <trkpt lat="45.93882" lon="4.68874">
        <ele>343</ele>
        <time>2017-03-25T10:39:49Z</time>
      </trkpt>
      <trkpt lat="45.93888" lon="4.68877">
        <ele>342</ele>
        <time>2017-03-25T10:39:50Z</time>
      </trkpt>
      <trkpt lat="45.93893" lon="4.6888">
        <ele>342</ele>
        <time>2017-03-25T10:39:51Z</time>
      </trkpt>
      <trkpt lat="45.93899" lon="4.68883">
        <ele>342</ele>
        <time>2017-03-25T10:39:52Z</time>
      </trkpt>
      <trkpt lat="45.93905" lon="4.68886">
        <ele>342</ele>
        <time>2017-03-25T10:39:53Z</time>
      </trkpt>
      <trkpt lat="45.93911" lon="4.68887">
        <ele>342</ele>
        <time>2017-03-25T10:39:54Z</time>
      </trkpt>
      <trkpt lat="45.93917" lon="4.68889">
        <ele>342</ele>
        <time>2017-03-25T10:39:55Z</time>
      </trkpt>
      <trkpt lat="45.93924" lon="4.6889">
        <ele>342</ele>
        <time>2017-03-25T10:39:56Z</time>
      </trkpt>
      <trkpt lat="45.93929" lon="4.6889">
        <ele>342</ele>
        <time>2017-03-25T10:39:57Z</time>
      </trkpt>
      <trkpt lat="45.93935" lon="4.68892">
        <ele>342</ele>
        <time>2017-03-25T10:39:58Z</time>
      </trkpt>
      <trkpt lat="45.9394" lon="4.68894">
        <ele>342</ele>
        <time>2017-03-25T10:39:59Z</time>
      </trkpt>
      <trkpt lat="45.93945" lon="4.68895">
        <ele>342</ele>
        <time>2017-03-25T10:40:00Z</time>
      </trkpt>
      <trkpt lat="45.9395" lon="4.68897">
        <ele>342</ele>
        <time>2017-03-25T10:40:01Z</time>
      </trkpt>
      <trkpt lat="45.93954" lon="4.68899">
        <ele>342</ele>
        <time>2017-03-25T10:40:02Z</time>
      </trkpt>
      <trkpt lat="45.93959" lon="4.68901">
        <ele>342</ele>
        <time>2017-03-25T10:40:03Z</time>
      </trkpt>
      <trkpt lat="45.93963" lon="4.68902">
        <ele>342</ele>
        <time>2017-03-25T10:40:04Z</time>
      </trkpt>
      <trkpt lat="45.93968" lon="4.68903">
        <ele>342</ele>
        <time>2017-03-25T10:40:05Z</time>
      </trkpt>
      <trkpt lat="45.93972" lon="4.68905">
        <ele>342</ele>
        <time>2017-03-25T10:40:06Z</time>
      </trkpt>
      <trkpt lat="45.93977" lon="4.68907">
        <ele>342</ele>
        <time>2017-03-25T10:40:07Z</time>
      </trkpt>
      <trkpt lat="45.93981" lon="4.68909">
        <ele>342</ele>
        <time>2017-03-25T10:40:08Z</time>
      </trkpt>
      <trkpt lat="45.93986" lon="4.6891">
        <ele>342</ele>
        <time>2017-03-25T10:40:09Z</time>
      </trkpt>
      <trkpt lat="45.9399" lon="4.68912">
        <ele>342</ele>
        <time>2017-03-25T10:40:10Z</time>
      </trkpt>
      <trkpt lat="45.93995" lon="4.68914">
        <ele>342</ele>
        <time>2017-03-25T10:40:11Z</time>
      </trkpt>
      <trkpt lat="45.94" lon="4.68915">
        <ele>342</ele>
        <time>2017-03-25T10:40:12Z</time>
      </trkpt>
      <trkpt lat="45.94005" lon="4.68917">
        <ele>342</ele>
        <time>2017-03-25T10:40:13Z</time>
      </trkpt>
      <trkpt lat="45.94009" lon="4.68919">
        <ele>342</ele>
        <time>2017-03-25T10:40:14Z</time>
      </trkpt>
      <trkpt lat="45.94014" lon="4.68921">
        <ele>342</ele>
        <time>2017-03-25T10:40:15Z</time>
      </trkpt>
      <trkpt lat="45.94019" lon="4.68923">
        <ele>341</ele>
        <time>2017-03-25T10:40:16Z</time>
      </trkpt>
      <trkpt lat="45.94024" lon="4.68925">
        <ele>341</ele>
        <time>2017-03-25T10:40:17Z</time>
      </trkpt>
      <trkpt lat="45.94029" lon="4.68926">
        <ele>341</ele>
        <time>2017-03-25T10:40:18Z</time>
      </trkpt>
      <trkpt lat="45.94034" lon="4.68928">
        <ele>341</ele>
        <time>2017-03-25T10:40:19Z</time>
      </trkpt>
      <trkpt lat="45.94039" lon="4.6893">
        <ele>341</ele>
        <time>2017-03-25T10:40:20Z</time>
      </trkpt>
      <trkpt lat="45.94045" lon="4.68933">
        <ele>341</ele>
        <time>2017-03-25T10:40:21Z</time>
      </trkpt>
      <trkpt lat="45.9405" lon="4.68937">
        <ele>341</ele>
        <time>2017-03-25T10:40:22Z</time>
      </trkpt>
      <trkpt lat="45.94055" lon="4.68941">
        <ele>341</ele>
        <time>2017-03-25T10:40:23Z</time>
      </trkpt>
      <trkpt lat="45.94061" lon="4.68944">
        <ele>341</ele>
        <time>2017-03-25T10:40:24Z</time>
      </trkpt>
      <trkpt lat="45.94067" lon="4.68947">
        <ele>341</ele>
        <time>2017-03-25T10:40:25Z</time>
      </trkpt>
      <trkpt lat="45.94073" lon="4.68949">
        <ele>341</ele>
        <time>2017-03-25T10:40:26Z</time>
      </trkpt>
      <trkpt lat="45.94079" lon="4.6895">
        <ele>341</ele>
        <time>2017-03-25T10:40:27Z</time>
      </trkpt>
      <trkpt lat="45.94084" lon="4.6895">
        <ele>340</ele>
        <time>2017-03-25T10:40:28Z</time>
      </trkpt>
      <trkpt lat="45.9409" lon="4.68951">
        <ele>340</ele>
        <time>2017-03-25T10:40:29Z</time>
      </trkpt>
      <trkpt lat="45.94095" lon="4.68952">
        <ele>340</ele>
        <time>2017-03-25T10:40:30Z</time>
      </trkpt>
      <trkpt lat="45.94101" lon="4.68954">
        <ele>340</ele>
        <time>2017-03-25T10:40:31Z</time>
      </trkpt>
      <trkpt lat="45.94106" lon="4.68956">
        <ele>340</ele>
        <time>2017-03-25T10:40:32Z</time>
      </trkpt>
      <trkpt lat="45.94111" lon="4.68958">
        <ele>340</ele>
        <time>2017-03-25T10:40:33Z</time>
      </trkpt>
      <trkpt lat="45.94116" lon="4.68959">
        <ele>340</ele>
        <time>2017-03-25T10:40:34Z</time>
      </trkpt>
      <trkpt lat="45.94122" lon="4.68962">
        <ele>340</ele>
        <time>2017-03-25T10:40:35Z</time>
      </trkpt>
      <trkpt lat="45.94127" lon="4.68964">
        <ele>340</ele>
        <time>2017-03-25T10:40:36Z</time>
      </trkpt>
      <trkpt lat="45.94133" lon="4.68966">
        <ele>340</ele>
        <time>2017-03-25T10:40:37Z</time>
      </trkpt>
      <trkpt lat="45.94138" lon="4.68968">
        <ele>340</ele>
        <time>2017-03-25T10:40:38Z</time>
      </trkpt>
      <trkpt lat="45.94144" lon="4.68969">
        <ele>340</ele>
        <time>2017-03-25T10:40:39Z</time>
      </trkpt>
      <trkpt lat="45.9415" lon="4.68971">
        <ele>340</ele>
        <time>2017-03-25T10:40:40Z</time>
      </trkpt>
      <trkpt lat="45.94156" lon="4.68973">
        <ele>340</ele>
        <time>2017-03-25T10:40:41Z</time>
      </trkpt>
      <trkpt lat="45.94161" lon="4.68974">
        <ele>340</ele>
        <time>2017-03-25T10:40:42Z</time>
      </trkpt>
      <trkpt lat="45.94166" lon="4.68975">
        <ele>340</ele>
        <time>2017-03-25T10:40:43Z</time>
      </trkpt>
      <trkpt lat="45.94172" lon="4.68977">
        <ele>339</ele>
        <time>2017-03-25T10:40:44Z</time>
      </trkpt>
      <trkpt lat="45.94177" lon="4.68978">
        <ele>339</ele>
        <time>2017-03-25T10:40:45Z</time>
      </trkpt>
      <trkpt lat="45.94182" lon="4.6898">
        <ele>339</ele>
        <time>2017-03-25T10:40:46Z</time>
      </trkpt>
      <trkpt lat="45.94187" lon="4.68981">
        <ele>338</ele>
        <time>2017-03-25T10:40:47Z</time>
      </trkpt>
      <trkpt lat="45.94192" lon="4.68982">
        <ele>338</ele>
        <time>2017-03-25T10:40:48Z</time>
      </trkpt>
      <trkpt lat="45.94197" lon="4.68984">
        <ele>338</ele>
        <time>2017-03-25T10:40:49Z</time>
      </trkpt>
      <trkpt lat="45.94203" lon="4.68985">
        <ele>338</ele>
        <time>2017-03-25T10:40:50Z</time>
      </trkpt>
      <trkpt lat="45.94208" lon="4.68987">
        <ele>338</ele>
        <time>2017-03-25T10:40:51Z</time>
      </trkpt>
      <trkpt lat="45.94214" lon="4.68988">
        <ele>338</ele>
        <time>2017-03-25T10:40:52Z</time>
      </trkpt>
      <trkpt lat="45.94219" lon="4.68989">
        <ele>338</ele>
        <time>2017-03-25T10:40:53Z</time>
      </trkpt>
      <trkpt lat="45.94225" lon="4.6899">
        <ele>338</ele>
        <time>2017-03-25T10:40:54Z</time>
      </trkpt>
      <trkpt lat="45.94231" lon="4.68991">
        <ele>338</ele>
        <time>2017-03-25T10:40:55Z</time>
      </trkpt>
      <trkpt lat="45.94238" lon="4.68992">
        <ele>338</ele>
        <time>2017-03-25T10:40:56Z</time>
      </trkpt>
      <trkpt lat="45.94244" lon="4.68993">
        <ele>338</ele>
        <time>2017-03-25T10:40:57Z</time>
      </trkpt>
      <trkpt lat="45.9425" lon="4.68995">
        <ele>338</ele>
        <time>2017-03-25T10:40:58Z</time>
      </trkpt>
      <trkpt lat="45.94256" lon="4.68997">
        <ele>337</ele>
        <time>2017-03-25T10:40:59Z</time>
      </trkpt>
      <trkpt lat="45.94263" lon="4.68999">
        <ele>337</ele>
        <time>2017-03-25T10:41:00Z</time>
      </trkpt>
      <trkpt lat="45.94269" lon="4.69">
        <ele>337</ele>
        <time>2017-03-25T10:41:01Z</time>
      </trkpt>
      <trkpt lat="45.94275" lon="4.69001">
        <ele>337</ele>
        <time>2017-03-25T10:41:02Z</time>
      </trkpt>
      <trkpt lat="45.94281" lon="4.69002">
        <ele>337</ele>
        <time>2017-03-25T10:41:03Z</time>
      </trkpt>
      <trkpt lat="45.94287" lon="4.69003">
        <ele>337</ele>
        <time>2017-03-25T10:41:04Z</time>
      </trkpt>
      <trkpt lat="45.94293" lon="4.69004">
        <ele>337</ele>
        <time>2017-03-25T10:41:05Z</time>
      </trkpt>
      <trkpt lat="45.94298" lon="4.69005">
        <ele>337</ele>
        <time>2017-03-25T10:41:06Z</time>
      </trkpt>
      <trkpt lat="45.94303" lon="4.69005">
        <ele>337</ele>
        <time>2017-03-25T10:41:07Z</time>
      </trkpt>
      <trkpt lat="45.94308" lon="4.69006">
        <ele>337</ele>
        <time>2017-03-25T10:41:08Z</time>
      </trkpt>
      <trkpt lat="45.94313" lon="4.69007">
        <ele>337</ele>
        <time>2017-03-25T10:41:09Z</time>
      </trkpt>
      <trkpt lat="45.94318" lon="4.69007">
        <ele>337</ele>
        <time>2017-03-25T10:41:10Z</time>
      </trkpt>
      <trkpt lat="45.94322" lon="4.69007">
        <ele>337</ele>
        <time>2017-03-25T10:41:11Z</time>
      </trkpt>
      <trkpt lat="45.94328" lon="4.69007">
        <ele>337</ele>
        <time>2017-03-25T10:41:12Z</time>
      </trkpt>
      <trkpt lat="45.94333" lon="4.69007">
        <ele>337</ele>
        <time>2017-03-25T10:41:13Z</time>
      </trkpt>
      <trkpt lat="45.94338" lon="4.69007">
        <ele>337</ele>
        <time>2017-03-25T10:41:14Z</time>
      </trkpt>
      <trkpt lat="45.94343" lon="4.69007">
        <ele>337</ele>
        <time>2017-03-25T10:41:15Z</time>
      </trkpt>
      <trkpt lat="45.94348" lon="4.69008">
        <ele>338</ele>
        <time>2017-03-25T10:41:16Z</time>
      </trkpt>
      <trkpt lat="45.94353" lon="4.69008">
        <ele>338</ele>
        <time>2017-03-25T10:41:17Z</time>
      </trkpt>
      <trkpt lat="45.94358" lon="4.69009">
        <ele>338</ele>
        <time>2017-03-25T10:41:18Z</time>
      </trkpt>
      <trkpt lat="45.94363" lon="4.69009">
        <ele>338</ele>
        <time>2017-03-25T10:41:19Z</time>
      </trkpt>
      <trkpt lat="45.94368" lon="4.69009">
        <ele>338</ele>
        <time>2017-03-25T10:41:20Z</time>
      </trkpt>
      <trkpt lat="45.94373" lon="4.69009">
        <ele>338</ele>
        <time>2017-03-25T10:41:21Z</time>
      </trkpt>
      <trkpt lat="45.94378" lon="4.69009">
        <ele>338</ele>
        <time>2017-03-25T10:41:22Z</time>
      </trkpt>
      <trkpt lat="45.94382" lon="4.69009">
        <ele>338</ele>
        <time>2017-03-25T10:41:23Z</time>
      </trkpt>
      <trkpt lat="45.94388" lon="4.69009">
        <ele>338</ele>
        <time>2017-03-25T10:41:24Z</time>
      </trkpt>
      <trkpt lat="45.94393" lon="4.69009">
        <ele>338</ele>
        <time>2017-03-25T10:41:25Z</time>
      </trkpt>
      <trkpt lat="45.94398" lon="4.69009">
        <ele>339</ele>
        <time>2017-03-25T10:41:26Z</time>
      </trkpt>
      <trkpt lat="45.94403" lon="4.69009">
        <ele>339</ele>
        <time>2017-03-25T10:41:27Z</time>
      </trkpt>
      <trkpt lat="45.94412" lon="4.69009">
        <ele>339</ele>
        <time>2017-03-25T10:41:29Z</time>
      </trkpt>
      <trkpt lat="45.94416" lon="4.69009">
        <ele>339</ele>
        <time>2017-03-25T10:41:30Z</time>
      </trkpt>
      <trkpt lat="45.94424" lon="4.6901">
        <ele>340</ele>
        <time>2017-03-25T10:41:32Z</time>
      </trkpt>
      <trkpt lat="45.94428" lon="4.69009">
        <ele>340</ele>
        <time>2017-03-25T10:41:33Z</time>
      </trkpt>
      <trkpt lat="45.94437" lon="4.69009">
        <ele>340</ele>
        <time>2017-03-25T10:41:35Z</time>
      </trkpt>
      <trkpt lat="45.94441" lon="4.69009">
        <ele>340</ele>
        <time>2017-03-25T10:41:36Z</time>
      </trkpt>
      <trkpt lat="45.94447" lon="4.69009">
        <ele>340</ele>
        <time>2017-03-25T10:41:37Z</time>
      </trkpt>
      <trkpt lat="45.94452" lon="4.6901">
        <ele>340</ele>
        <time>2017-03-25T10:41:38Z</time>
      </trkpt>
      <trkpt lat="45.94457" lon="4.6901">
        <ele>340</ele>
        <time>2017-03-25T10:41:39Z</time>
      </trkpt>
      <trkpt lat="45.94462" lon="4.69011">
        <ele>341</ele>
        <time>2017-03-25T10:41:40Z</time>
      </trkpt>
      <trkpt lat="45.94467" lon="4.69011">
        <ele>341</ele>
        <time>2017-03-25T10:41:41Z</time>
      </trkpt>
      <trkpt lat="45.94473" lon="4.69012">
        <ele>341</ele>
        <time>2017-03-25T10:41:42Z</time>
      </trkpt>
      <trkpt lat="45.94477" lon="4.69013">
        <ele>341</ele>
        <time>2017-03-25T10:41:43Z</time>
      </trkpt>
      <trkpt lat="45.94482" lon="4.69013">
        <ele>341</ele>
        <time>2017-03-25T10:41:44Z</time>
      </trkpt>
      <trkpt lat="45.94487" lon="4.69014">
        <ele>341</ele>
        <time>2017-03-25T10:41:45Z</time>
      </trkpt>
      <trkpt lat="45.94492" lon="4.69015">
        <ele>341</ele>
        <time>2017-03-25T10:41:46Z</time>
      </trkpt>
      <trkpt lat="45.94501" lon="4.69018">
        <ele>342</ele>
        <time>2017-03-25T10:41:48Z</time>
      </trkpt>
      <trkpt lat="45.94505" lon="4.69019">
        <ele>342</ele>
        <time>2017-03-25T10:41:49Z</time>
      </trkpt>
      <trkpt lat="45.94513" lon="4.69021">
        <ele>342</ele>
        <time>2017-03-25T10:41:51Z</time>
      </trkpt>
      <trkpt lat="45.94518" lon="4.69022">
        <ele>342</ele>
        <time>2017-03-25T10:41:52Z</time>
      </trkpt>
      <trkpt lat="45.94526" lon="4.69025">
        <ele>342</ele>
        <time>2017-03-25T10:41:54Z</time>
      </trkpt>
      <trkpt lat="45.94531" lon="4.69026">
        <ele>342</ele>
        <time>2017-03-25T10:41:55Z</time>
      </trkpt>
      <trkpt lat="45.94536" lon="4.69027">
        <ele>342</ele>
        <time>2017-03-25T10:41:56Z</time>
      </trkpt>
      <trkpt lat="45.9454" lon="4.69028">
        <ele>342</ele>
        <time>2017-03-25T10:41:57Z</time>
      </trkpt>
      <trkpt lat="45.94544" lon="4.69029">
        <ele>342</ele>
        <time>2017-03-25T10:41:58Z</time>
      </trkpt>
      <trkpt lat="45.94549" lon="4.69031">
        <ele>342</ele>
        <time>2017-03-25T10:41:59Z</time>
      </trkpt>
      <trkpt lat="45.94554" lon="4.69032">
        <ele>342</ele>
        <time>2017-03-25T10:42:00Z</time>
      </trkpt>
      <trkpt lat="45.94558" lon="4.69034">
        <ele>342</ele>
        <time>2017-03-25T10:42:01Z</time>
      </trkpt>
      <trkpt lat="45.94563" lon="4.69035">
        <ele>342</ele>
        <time>2017-03-25T10:42:02Z</time>
      </trkpt>
      <trkpt lat="45.94567" lon="4.69036">
        <ele>342</ele>
        <time>2017-03-25T10:42:03Z</time>
      </trkpt>
      <trkpt lat="45.94575" lon="4.69039">
        <ele>342</ele>
        <time>2017-03-25T10:42:05Z</time>
      </trkpt>
      <trkpt lat="45.9458" lon="4.6904">
        <ele>342</ele>
        <time>2017-03-25T10:42:06Z</time>
      </trkpt>
      <trkpt lat="45.94588" lon="4.69042">
        <ele>342</ele>
        <time>2017-03-25T10:42:08Z</time>
      </trkpt>
      <trkpt lat="45.94592" lon="4.69043">
        <ele>342</ele>
        <time>2017-03-25T10:42:09Z</time>
      </trkpt>
      <trkpt lat="45.94597" lon="4.69045">
        <ele>342</ele>
        <time>2017-03-25T10:42:10Z</time>
      </trkpt>
      <trkpt lat="45.94602" lon="4.69046">
        <ele>342</ele>
        <time>2017-03-25T10:42:11Z</time>
      </trkpt>
      <trkpt lat="45.94606" lon="4.69048">
        <ele>342</ele>
        <time>2017-03-25T10:42:12Z</time>
      </trkpt>
      <trkpt lat="45.9461" lon="4.6905">
        <ele>342</ele>
        <time>2017-03-25T10:42:13Z</time>
      </trkpt>
      <trkpt lat="45.94615" lon="4.69052">
        <ele>342</ele>
        <time>2017-03-25T10:42:14Z</time>
      </trkpt>
      <trkpt lat="45.94619" lon="4.69053">
        <ele>342</ele>
        <time>2017-03-25T10:42:15Z</time>
      </trkpt>
      <trkpt lat="45.94624" lon="4.69055">
        <ele>342</ele>
        <time>2017-03-25T10:42:16Z</time>
      </trkpt>
      <trkpt lat="45.94629" lon="4.69057">
        <ele>342</ele>
        <time>2017-03-25T10:42:17Z</time>
      </trkpt>
      <trkpt lat="45.94633" lon="4.69058">
        <ele>342</ele>
        <time>2017-03-25T10:42:18Z</time>
      </trkpt>
      <trkpt lat="45.94639" lon="4.6906">
        <ele>342</ele>
        <time>2017-03-25T10:42:19Z</time>
      </trkpt>
      <trkpt lat="45.94643" lon="4.69061">
        <ele>342</ele>
        <time>2017-03-25T10:42:20Z</time>
      </trkpt>
      <trkpt lat="45.94648" lon="4.69062">
        <ele>342</ele>
        <time>2017-03-25T10:42:21Z</time>
      </trkpt>
      <trkpt lat="45.94652" lon="4.69063">
        <ele>342</ele>
        <time>2017-03-25T10:42:22Z</time>
      </trkpt>
      <trkpt lat="45.94657" lon="4.69064">
        <ele>342</ele>
        <time>2017-03-25T10:42:23Z</time>
      </trkpt>
      <trkpt lat="45.94666" lon="4.69067">
        <ele>342</ele>
        <time>2017-03-25T10:42:25Z</time>
      </trkpt>
      <trkpt lat="45.9467" lon="4.69069">
        <ele>342</ele>
        <time>2017-03-25T10:42:26Z</time>
      </trkpt>
      <trkpt lat="45.94675" lon="4.69071">
        <ele>342</ele>
        <time>2017-03-25T10:42:27Z</time>
      </trkpt>
      <trkpt lat="45.9468" lon="4.69072">
        <ele>342</ele>
        <time>2017-03-25T10:42:28Z</time>
      </trkpt>
      <trkpt lat="45.94686" lon="4.69074">
        <ele>342</ele>
        <time>2017-03-25T10:42:29Z</time>
      </trkpt>
      <trkpt lat="45.94691" lon="4.69076">
        <ele>342</ele>
        <time>2017-03-25T10:42:30Z</time>
      </trkpt>
      <trkpt lat="45.94696" lon="4.69077">
        <ele>342</ele>
        <time>2017-03-25T10:42:31Z</time>
      </trkpt>
      <trkpt lat="45.94701" lon="4.69079">
        <ele>342</ele>
        <time>2017-03-25T10:42:32Z</time>
      </trkpt>
      <trkpt lat="45.94706" lon="4.6908">
        <ele>342</ele>
        <time>2017-03-25T10:42:33Z</time>
      </trkpt>
      <trkpt lat="45.9471" lon="4.69082">
        <ele>343</ele>
        <time>2017-03-25T10:42:34Z</time>
      </trkpt>
      <trkpt lat="45.94715" lon="4.69083">
        <ele>343</ele>
        <time>2017-03-25T10:42:35Z</time>
      </trkpt>
      <trkpt lat="45.9472" lon="4.69085">
        <ele>344</ele>
        <time>2017-03-25T10:42:36Z</time>
      </trkpt>
      <trkpt lat="45.94724" lon="4.69087">
        <ele>344</ele>
        <time>2017-03-25T10:42:37Z</time>
      </trkpt>
      <trkpt lat="45.94729" lon="4.69089">
        <ele>344</ele>
        <time>2017-03-25T10:42:38Z</time>
      </trkpt>
      <trkpt lat="45.94733" lon="4.69091">
        <ele>344</ele>
        <time>2017-03-25T10:42:39Z</time>
      </trkpt>
      <trkpt lat="45.94738" lon="4.69092">
        <ele>344</ele>
        <time>2017-03-25T10:42:40Z</time>
      </trkpt>
      <trkpt lat="45.94743" lon="4.69093">
        <ele>345</ele>
        <time>2017-03-25T10:42:41Z</time>
      </trkpt>
      <trkpt lat="45.94748" lon="4.69095">
        <ele>345</ele>
        <time>2017-03-25T10:42:42Z</time>
      </trkpt>
      <trkpt lat="45.94752" lon="4.69096">
        <ele>345</ele>
        <time>2017-03-25T10:42:43Z</time>
      </trkpt>
      <trkpt lat="45.94757" lon="4.69098">
        <ele>345</ele>
        <time>2017-03-25T10:42:44Z</time>
      </trkpt>
      <trkpt lat="45.94761" lon="4.69099">
        <ele>344</ele>
        <time>2017-03-25T10:42:45Z</time>
      </trkpt>
      <trkpt lat="45.94766" lon="4.69101">
        <ele>344</ele>
        <time>2017-03-25T10:42:46Z</time>
      </trkpt>
      <trkpt lat="45.9477" lon="4.69103">
        <ele>344</ele>
        <time>2017-03-25T10:42:47Z</time>
      </trkpt>
      <trkpt lat="45.94775" lon="4.69104">
        <ele>344</ele>
        <time>2017-03-25T10:42:48Z</time>
      </trkpt>
      <trkpt lat="45.9478" lon="4.69106">
        <ele>344</ele>
        <time>2017-03-25T10:42:49Z</time>
      </trkpt>
      <trkpt lat="45.94785" lon="4.69107">
        <ele>344</ele>
        <time>2017-03-25T10:42:50Z</time>
      </trkpt>
      <trkpt lat="45.9479" lon="4.69109">
        <ele>344</ele>
        <time>2017-03-25T10:42:51Z</time>
      </trkpt>
      <trkpt lat="45.94795" lon="4.6911">
        <ele>344</ele>
        <time>2017-03-25T10:42:52Z</time>
      </trkpt>
      <trkpt lat="45.94801" lon="4.69112">
        <ele>344</ele>
        <time>2017-03-25T10:42:53Z</time>
      </trkpt>
      <trkpt lat="45.94806" lon="4.69113">
        <ele>344</ele>
        <time>2017-03-25T10:42:54Z</time>
      </trkpt>
      <trkpt lat="45.94811" lon="4.69114">
        <ele>344</ele>
        <time>2017-03-25T10:42:55Z</time>
      </trkpt>
      <trkpt lat="45.94816" lon="4.69115">
        <ele>344</ele>
        <time>2017-03-25T10:42:56Z</time>
      </trkpt>
      <trkpt lat="45.9482" lon="4.69117">
        <ele>344</ele>
        <time>2017-03-25T10:42:57Z</time>
      </trkpt>
      <trkpt lat="45.94825" lon="4.69119">
        <ele>344</ele>
        <time>2017-03-25T10:42:58Z</time>
      </trkpt>
      <trkpt lat="45.9483" lon="4.69121">
        <ele>344</ele>
        <time>2017-03-25T10:42:59Z</time>
      </trkpt>
      <trkpt lat="45.94835" lon="4.69122">
        <ele>342</ele>
        <time>2017-03-25T10:43:00Z</time>
      </trkpt>
      <trkpt lat="45.94839" lon="4.69124">
        <ele>342</ele>
        <time>2017-03-25T10:43:01Z</time>
      </trkpt>
      <trkpt lat="45.94844" lon="4.69125">
        <ele>342</ele>
        <time>2017-03-25T10:43:02Z</time>
      </trkpt>
      <trkpt lat="45.94849" lon="4.69127">
        <ele>342</ele>
        <time>2017-03-25T10:43:03Z</time>
      </trkpt>
      <trkpt lat="45.94854" lon="4.69129">
        <ele>342</ele>
        <time>2017-03-25T10:43:04Z</time>
      </trkpt>
      <trkpt lat="45.94858" lon="4.69131">
        <ele>342</ele>
        <time>2017-03-25T10:43:05Z</time>
      </trkpt>
      <trkpt lat="45.94864" lon="4.69132">
        <ele>342</ele>
        <time>2017-03-25T10:43:06Z</time>
      </trkpt>
      <trkpt lat="45.94869" lon="4.69134">
        <ele>342</ele>
        <time>2017-03-25T10:43:07Z</time>
      </trkpt>
      <trkpt lat="45.94874" lon="4.69137">
        <ele>342</ele>
        <time>2017-03-25T10:43:08Z</time>
      </trkpt>
      <trkpt lat="45.9488" lon="4.69139">
        <ele>342</ele>
        <time>2017-03-25T10:43:09Z</time>
      </trkpt>
      <trkpt lat="45.94885" lon="4.69142">
        <ele>342</ele>
        <time>2017-03-25T10:43:10Z</time>
      </trkpt>
      <trkpt lat="45.9489" lon="4.69144">
        <ele>342</ele>
        <time>2017-03-25T10:43:11Z</time>
      </trkpt>
      <trkpt lat="45.94895" lon="4.69147">
        <ele>342</ele>
        <time>2017-03-25T10:43:12Z</time>
      </trkpt>
      <trkpt lat="45.94901" lon="4.6915">
        <ele>342</ele>
        <time>2017-03-25T10:43:13Z</time>
      </trkpt>
      <trkpt lat="45.94906" lon="4.69154">
        <ele>342</ele>
        <time>2017-03-25T10:43:14Z</time>
      </trkpt>
      <trkpt lat="45.94912" lon="4.69157">
        <ele>342</ele>
        <time>2017-03-25T10:43:15Z</time>
      </trkpt>
      <trkpt lat="45.94918" lon="4.6916">
        <ele>341</ele>
        <time>2017-03-25T10:43:16Z</time>
      </trkpt>
      <trkpt lat="45.94924" lon="4.69164">
        <ele>341</ele>
        <time>2017-03-25T10:43:17Z</time>
      </trkpt>
      <trkpt lat="45.9493" lon="4.69168">
        <ele>341</ele>
        <time>2017-03-25T10:43:18Z</time>
      </trkpt>
      <trkpt lat="45.94936" lon="4.69171">
        <ele>341</ele>
        <time>2017-03-25T10:43:19Z</time>
      </trkpt>
      <trkpt lat="45.94942" lon="4.69175">
        <ele>341</ele>
        <time>2017-03-25T10:43:20Z</time>
      </trkpt>
      <trkpt lat="45.94948" lon="4.6918">
        <ele>340</ele>
        <time>2017-03-25T10:43:21Z</time>
      </trkpt>
      <trkpt lat="45.94954" lon="4.69185">
        <ele>340</ele>
        <time>2017-03-25T10:43:22Z</time>
      </trkpt>
      <trkpt lat="45.9496" lon="4.6919">
        <ele>340</ele>
        <time>2017-03-25T10:43:23Z</time>
      </trkpt>
      <trkpt lat="45.94966" lon="4.69196">
        <ele>340</ele>
        <time>2017-03-25T10:43:24Z</time>
      </trkpt>
      <trkpt lat="45.94973" lon="4.69202">
        <ele>340</ele>
        <time>2017-03-25T10:43:25Z</time>
      </trkpt>
      <trkpt lat="45.94979" lon="4.69208">
        <ele>340</ele>
        <time>2017-03-25T10:43:26Z</time>
      </trkpt>
      <trkpt lat="45.94986" lon="4.69212">
        <ele>340</ele>
        <time>2017-03-25T10:43:27Z</time>
      </trkpt>
      <trkpt lat="45.94993" lon="4.69214">
        <ele>340</ele>
        <time>2017-03-25T10:43:28Z</time>
      </trkpt>
      <trkpt lat="45.95001" lon="4.69216">
        <ele>337</ele>
        <time>2017-03-25T10:43:29Z</time>
      </trkpt>
      <trkpt lat="45.95009" lon="4.6922">
        <ele>337</ele>
        <time>2017-03-25T10:43:30Z</time>
      </trkpt>
      <trkpt lat="45.95016" lon="4.69225">
        <ele>337</ele>
        <time>2017-03-25T10:43:31Z</time>
      </trkpt>
      <trkpt lat="45.95023" lon="4.69231">
        <ele>337</ele>
        <time>2017-03-25T10:43:32Z</time>
      </trkpt>
      <trkpt lat="45.9503" lon="4.69237">
        <ele>337</ele>
        <time>2017-03-25T10:43:33Z</time>
      </trkpt>
      <trkpt lat="45.95037" lon="4.69244">
        <ele>336</ele>
        <time>2017-03-25T10:43:34Z</time>
      </trkpt>
      <trkpt lat="45.95044" lon="4.69251">
        <ele>337</ele>
        <time>2017-03-25T10:43:35Z</time>
      </trkpt>
      <trkpt lat="45.95051" lon="4.69258">
        <ele>337</ele>
        <time>2017-03-25T10:43:36Z</time>
      </trkpt>
      <trkpt lat="45.95058" lon="4.69264">
        <ele>336</ele>
        <time>2017-03-25T10:43:37Z</time>
      </trkpt>
      <trkpt lat="45.95065" lon="4.69271">
        <ele>336</ele>
        <time>2017-03-25T10:43:38Z</time>
      </trkpt>
      <trkpt lat="45.95072" lon="4.69278">
        <ele>336</ele>
        <time>2017-03-25T10:43:39Z</time>
      </trkpt>
      <trkpt lat="45.95079" lon="4.69286">
        <ele>336</ele>
        <time>2017-03-25T10:43:40Z</time>
      </trkpt>
      <trkpt lat="45.95085" lon="4.69293">
        <ele>334</ele>
        <time>2017-03-25T10:43:41Z</time>
      </trkpt>
      <trkpt lat="45.95092" lon="4.693">
        <ele>334</ele>
        <time>2017-03-25T10:43:42Z</time>
      </trkpt>
      <trkpt lat="45.95098" lon="4.69308">
        <ele>334</ele>
        <time>2017-03-25T10:43:43Z</time>
      </trkpt>
      <trkpt lat="45.95104" lon="4.69314">
        <ele>334</ele>
        <time>2017-03-25T10:43:44Z</time>
      </trkpt>
      <trkpt lat="45.9511" lon="4.69321">
        <ele>334</ele>
        <time>2017-03-25T10:43:45Z</time>
      </trkpt>
      <trkpt lat="45.95116" lon="4.69328">
        <ele>334</ele>
        <time>2017-03-25T10:43:46Z</time>
      </trkpt>
      <trkpt lat="45.95121" lon="4.69334">
        <ele>336</ele>
        <time>2017-03-25T10:43:47Z</time>
      </trkpt>
      <trkpt lat="45.95127" lon="4.6934">
        <ele>336</ele>
        <time>2017-03-25T10:43:48Z</time>
      </trkpt>
      <trkpt lat="45.95132" lon="4.69346">
        <ele>337</ele>
        <time>2017-03-25T10:43:49Z</time>
      </trkpt>
      <trkpt lat="45.95138" lon="4.69351">
        <ele>337</ele>
        <time>2017-03-25T10:43:50Z</time>
      </trkpt>
      <trkpt lat="45.95143" lon="4.69357">
        <ele>337</ele>
        <time>2017-03-25T10:43:51Z</time>
      </trkpt>
      <trkpt lat="45.95148" lon="4.69362">
        <ele>337</ele>
        <time>2017-03-25T10:43:52Z</time>
      </trkpt>
      <trkpt lat="45.95154" lon="4.69366">
        <ele>337</ele>
        <time>2017-03-25T10:43:53Z</time>
      </trkpt>
      <trkpt lat="45.95159" lon="4.69371">
        <ele>337</ele>
        <time>2017-03-25T10:43:54Z</time>
      </trkpt>
      <trkpt lat="45.95165" lon="4.69376">
        <ele>337</ele>
        <time>2017-03-25T10:43:55Z</time>
      </trkpt>
      <trkpt lat="45.9517" lon="4.69382">
        <ele>337</ele>
        <time>2017-03-25T10:43:56Z</time>
      </trkpt>
      <trkpt lat="45.95175" lon="4.69386">
        <ele>337</ele>
        <time>2017-03-25T10:43:57Z</time>
      </trkpt>
      <trkpt lat="45.95181" lon="4.69391">
        <ele>337</ele>
        <time>2017-03-25T10:43:58Z</time>
      </trkpt>
      <trkpt lat="45.95186" lon="4.69395">
        <ele>337</ele>
        <time>2017-03-25T10:43:59Z</time>
      </trkpt>
      <trkpt lat="45.95192" lon="4.694">
        <ele>337</ele>
        <time>2017-03-25T10:44:00Z</time>
      </trkpt>
      <trkpt lat="45.95198" lon="4.69404">
        <ele>337</ele>
        <time>2017-03-25T10:44:01Z</time>
      </trkpt>
      <trkpt lat="45.95204" lon="4.69407">
        <ele>337</ele>
        <time>2017-03-25T10:44:02Z</time>
      </trkpt>
      <trkpt lat="45.9521" lon="4.6941">
        <ele>337</ele>
        <time>2017-03-25T10:44:03Z</time>
      </trkpt>
      <trkpt lat="45.95216" lon="4.69413">
        <ele>337</ele>
        <time>2017-03-25T10:44:04Z</time>
      </trkpt>
      <trkpt lat="45.95223" lon="4.69416">
        <ele>337</ele>
        <time>2017-03-25T10:44:05Z</time>
      </trkpt>
      <trkpt lat="45.95229" lon="4.69419">
        <ele>340</ele>
        <time>2017-03-25T10:44:06Z</time>
      </trkpt>
      <trkpt lat="45.95235" lon="4.69421">
        <ele>339</ele>
        <time>2017-03-25T10:44:07Z</time>
      </trkpt>
      <trkpt lat="45.95241" lon="4.69424">
        <ele>339</ele>
        <time>2017-03-25T10:44:08Z</time>
      </trkpt>
      <trkpt lat="45.95247" lon="4.69426">
        <ele>339</ele>
        <time>2017-03-25T10:44:09Z</time>
      </trkpt>
      <trkpt lat="45.95252" lon="4.69429">
        <ele>338</ele>
        <time>2017-03-25T10:44:10Z</time>
      </trkpt>
      <trkpt lat="45.95257" lon="4.69432">
        <ele>338</ele>
        <time>2017-03-25T10:44:11Z</time>
      </trkpt>
      <trkpt lat="45.95263" lon="4.69434">
        <ele>338</ele>
        <time>2017-03-25T10:44:12Z</time>
      </trkpt>
      <trkpt lat="45.95268" lon="4.69436">
        <ele>338</ele>
        <time>2017-03-25T10:44:13Z</time>
      </trkpt>
      <trkpt lat="45.95273" lon="4.69438">
        <ele>338</ele>
        <time>2017-03-25T10:44:14Z</time>
      </trkpt>
      <trkpt lat="45.95278" lon="4.69441">
        <ele>338</ele>
        <time>2017-03-25T10:44:15Z</time>
      </trkpt>
      <trkpt lat="45.95283" lon="4.69444">
        <ele>338</ele>
        <time>2017-03-25T10:44:16Z</time>
      </trkpt>
      <trkpt lat="45.95288" lon="4.69447">
        <ele>338</ele>
        <time>2017-03-25T10:44:17Z</time>
      </trkpt>
      <trkpt lat="45.95293" lon="4.69449">
        <ele>338</ele>
        <time>2017-03-25T10:44:18Z</time>
      </trkpt>
      <trkpt lat="45.95298" lon="4.69452">
        <ele>338</ele>
        <time>2017-03-25T10:44:19Z</time>
      </trkpt>
      <trkpt lat="45.95303" lon="4.69455">
        <ele>338</ele>
        <time>2017-03-25T10:44:20Z</time>
      </trkpt>
      <trkpt lat="45.95308" lon="4.69457">
        <ele>338</ele>
        <time>2017-03-25T10:44:21Z</time>
      </trkpt>
      <trkpt lat="45.95313" lon="4.69459">
        <ele>338</ele>
        <time>2017-03-25T10:44:22Z</time>
      </trkpt>
      <trkpt lat="45.95319" lon="4.69461">
        <ele>338</ele>
        <time>2017-03-25T10:44:23Z</time>
      </trkpt>
      <trkpt lat="45.95324" lon="4.69464">
        <ele>339</ele>
        <time>2017-03-25T10:44:24Z</time>
      </trkpt>
      <trkpt lat="45.9533" lon="4.69467">
        <ele>339</ele>
        <time>2017-03-25T10:44:25Z</time>
      </trkpt>
      <trkpt lat="45.95336" lon="4.6947">
        <ele>337</ele>
        <time>2017-03-25T10:44:26Z</time>
      </trkpt>
      <trkpt lat="45.95341" lon="4.69474">
        <ele>337</ele>
        <time>2017-03-25T10:44:27Z</time>
      </trkpt>
      <trkpt lat="45.95347" lon="4.69477">
        <ele>337</ele>
        <time>2017-03-25T10:44:28Z</time>
      </trkpt>
      <trkpt lat="45.95353" lon="4.69481">
        <ele>337</ele>
        <time>2017-03-25T10:44:29Z</time>
      </trkpt>
      <trkpt lat="45.95358" lon="4.69485">
        <ele>337</ele>
        <time>2017-03-25T10:44:30Z</time>
      </trkpt>
      <trkpt lat="45.95363" lon="4.69489">
        <ele>337</ele>
        <time>2017-03-25T10:44:31Z</time>
      </trkpt>
      <trkpt lat="45.95369" lon="4.69492">
        <ele>337</ele>
        <time>2017-03-25T10:44:32Z</time>
      </trkpt>
      <trkpt lat="45.95374" lon="4.69495">
        <ele>337</ele>
        <time>2017-03-25T10:44:33Z</time>
      </trkpt>
      <trkpt lat="45.95379" lon="4.69499">
        <ele>337</ele>
        <time>2017-03-25T10:44:34Z</time>
      </trkpt>
      <trkpt lat="45.95384" lon="4.69503">
        <ele>340</ele>
        <time>2017-03-25T10:44:35Z</time>
      </trkpt>
      <trkpt lat="45.95389" lon="4.69507">
        <ele>340</ele>
        <time>2017-03-25T10:44:36Z</time>
      </trkpt>
      <trkpt lat="45.95394" lon="4.6951">
        <ele>339</ele>
        <time>2017-03-25T10:44:37Z</time>
      </trkpt>
      <trkpt lat="45.95399" lon="4.69514">
        <ele>339</ele>
        <time>2017-03-25T10:44:38Z</time>
      </trkpt>
      <trkpt lat="45.95404" lon="4.69517">
        <ele>339</ele>
        <time>2017-03-25T10:44:39Z</time>
      </trkpt>
      <trkpt lat="45.95409" lon="4.69521">
        <ele>339</ele>
        <time>2017-03-25T10:44:40Z</time>
      </trkpt>
      <trkpt lat="45.95414" lon="4.69523">
        <ele>339</ele>
        <time>2017-03-25T10:44:41Z</time>
      </trkpt>
      <trkpt lat="45.95419" lon="4.69527">
        <ele>337</ele>
        <time>2017-03-25T10:44:42Z</time>
      </trkpt>
      <trkpt lat="45.95424" lon="4.69529">
        <ele>337</ele>
        <time>2017-03-25T10:44:43Z</time>
      </trkpt>
      <trkpt lat="45.95429" lon="4.69532">
        <ele>337</ele>
        <time>2017-03-25T10:44:44Z</time>
      </trkpt>
      <trkpt lat="45.95435" lon="4.69534">
        <ele>337</ele>
        <time>2017-03-25T10:44:45Z</time>
      </trkpt>
      <trkpt lat="45.9544" lon="4.69536">
        <ele>337</ele>
        <time>2017-03-25T10:44:46Z</time>
      </trkpt>
      <trkpt lat="45.95445" lon="4.69539">
        <ele>337</ele>
        <time>2017-03-25T10:44:47Z</time>
      </trkpt>
      <trkpt lat="45.9545" lon="4.69541">
        <ele>337</ele>
        <time>2017-03-25T10:44:48Z</time>
      </trkpt>
      <trkpt lat="45.95456" lon="4.69544">
        <ele>337</ele>
        <time>2017-03-25T10:44:49Z</time>
      </trkpt>
      <trkpt lat="45.95461" lon="4.69546">
        <ele>337</ele>
        <time>2017-03-25T10:44:50Z</time>
      </trkpt>
      <trkpt lat="45.95466" lon="4.69549">
        <ele>336</ele>
        <time>2017-03-25T10:44:51Z</time>
      </trkpt>
      <trkpt lat="45.95472" lon="4.69551">
        <ele>336</ele>
        <time>2017-03-25T10:44:52Z</time>
      </trkpt>
      <trkpt lat="45.95477" lon="4.69554">
        <ele>336</ele>
        <time>2017-03-25T10:44:53Z</time>
      </trkpt>
      <trkpt lat="45.95483" lon="4.69556">
        <ele>336</ele>
        <time>2017-03-25T10:44:54Z</time>
      </trkpt>
      <trkpt lat="45.95489" lon="4.69559">
        <ele>336</ele>
        <time>2017-03-25T10:44:55Z</time>
      </trkpt>
      <trkpt lat="45.95496" lon="4.69561">
        <ele>336</ele>
        <time>2017-03-25T10:44:56Z</time>
      </trkpt>
      <trkpt lat="45.95502" lon="4.69564">
        <ele>334</ele>
        <time>2017-03-25T10:44:57Z</time>
      </trkpt>
      <trkpt lat="45.95508" lon="4.69566">
        <ele>334</ele>
        <time>2017-03-25T10:44:58Z</time>
      </trkpt>
      <trkpt lat="45.95514" lon="4.69569">
        <ele>334</ele>
        <time>2017-03-25T10:44:59Z</time>
      </trkpt>
      <trkpt lat="45.9552" lon="4.69571">
        <ele>333</ele>
        <time>2017-03-25T10:45:00Z</time>
      </trkpt>
      <trkpt lat="45.95526" lon="4.69574">
        <ele>333</ele>
        <time>2017-03-25T10:45:01Z</time>
      </trkpt>
      <trkpt lat="45.95533" lon="4.69576">
        <ele>332</ele>
        <time>2017-03-25T10:45:02Z</time>
      </trkpt>
      <trkpt lat="45.9554" lon="4.6958">
        <ele>332</ele>
        <time>2017-03-25T10:45:03Z</time>
      </trkpt>
      <trkpt lat="45.95547" lon="4.69583">
        <ele>331</ele>
        <time>2017-03-25T10:45:04Z</time>
      </trkpt>
      <trkpt lat="45.95554" lon="4.69586">
        <ele>331</ele>
        <time>2017-03-25T10:45:05Z</time>
      </trkpt>
      <trkpt lat="45.95561" lon="4.69588">
        <ele>330</ele>
        <time>2017-03-25T10:45:06Z</time>
      </trkpt>
      <trkpt lat="45.95568" lon="4.69592">
        <ele>330</ele>
        <time>2017-03-25T10:45:07Z</time>
      </trkpt>
      <trkpt lat="45.95575" lon="4.69595">
        <ele>329</ele>
        <time>2017-03-25T10:45:08Z</time>
      </trkpt>
      <trkpt lat="45.95582" lon="4.69598">
        <ele>329</ele>
        <time>2017-03-25T10:45:09Z</time>
      </trkpt>
      <trkpt lat="45.95589" lon="4.69602">
        <ele>328</ele>
        <time>2017-03-25T10:45:10Z</time>
      </trkpt>
      <trkpt lat="45.95597" lon="4.69605">
        <ele>328</ele>
        <time>2017-03-25T10:45:11Z</time>
      </trkpt>
      <trkpt lat="45.95604" lon="4.69608">
        <ele>328</ele>
        <time>2017-03-25T10:45:12Z</time>
      </trkpt>
      <trkpt lat="45.95612" lon="4.69611">
        <ele>328</ele>
        <time>2017-03-25T10:45:13Z</time>
      </trkpt>
      <trkpt lat="45.95619" lon="4.69614">
        <ele>328</ele>
        <time>2017-03-25T10:45:14Z</time>
      </trkpt>
      <trkpt lat="45.95627" lon="4.69618">
        <ele>328</ele>
        <time>2017-03-25T10:45:15Z</time>
      </trkpt>
      <trkpt lat="45.95634" lon="4.69621">
        <ele>328</ele>
        <time>2017-03-25T10:45:16Z</time>
      </trkpt>
      <trkpt lat="45.95642" lon="4.69625">
        <ele>328</ele>
        <time>2017-03-25T10:45:17Z</time>
      </trkpt>
      <trkpt lat="45.95649" lon="4.69629">
        <ele>328</ele>
        <time>2017-03-25T10:45:18Z</time>
      </trkpt>
      <trkpt lat="45.95657" lon="4.69632">
        <ele>328</ele>
        <time>2017-03-25T10:45:19Z</time>
      </trkpt>
      <trkpt lat="45.95665" lon="4.69635">
        <ele>327</ele>
        <time>2017-03-25T10:45:20Z</time>
      </trkpt>
      <trkpt lat="45.95672" lon="4.69638">
        <ele>326</ele>
        <time>2017-03-25T10:45:21Z</time>
      </trkpt>
      <trkpt lat="45.9568" lon="4.69641">
        <ele>326</ele>
        <time>2017-03-25T10:45:22Z</time>
      </trkpt>
      <trkpt lat="45.95687" lon="4.69644">
        <ele>326</ele>
        <time>2017-03-25T10:45:23Z</time>
      </trkpt>
      <trkpt lat="45.95695" lon="4.69647">
        <ele>326</ele>
        <time>2017-03-25T10:45:24Z</time>
      </trkpt>
      <trkpt lat="45.95702" lon="4.6965">
        <ele>326</ele>
        <time>2017-03-25T10:45:25Z</time>
      </trkpt>
      <trkpt lat="45.95709" lon="4.69653">
        <ele>326</ele>
        <time>2017-03-25T10:45:26Z</time>
      </trkpt>
      <trkpt lat="45.95716" lon="4.69656">
        <ele>326</ele>
        <time>2017-03-25T10:45:27Z</time>
      </trkpt>
      <trkpt lat="45.95722" lon="4.69659">
        <ele>326</ele>
        <time>2017-03-25T10:45:28Z</time>
      </trkpt>
      <trkpt lat="45.95729" lon="4.69662">
        <ele>326</ele>
        <time>2017-03-25T10:45:29Z</time>
      </trkpt>
      <trkpt lat="45.95735" lon="4.69664">
        <ele>326</ele>
        <time>2017-03-25T10:45:30Z</time>
      </trkpt>
      <trkpt lat="45.95742" lon="4.69667">
        <ele>326</ele>
        <time>2017-03-25T10:45:31Z</time>
      </trkpt>
      <trkpt lat="45.95748" lon="4.69671">
        <ele>326</ele>
        <time>2017-03-25T10:45:32Z</time>
      </trkpt>
      <trkpt lat="45.95754" lon="4.69674">
        <ele>326</ele>
        <time>2017-03-25T10:45:33Z</time>
      </trkpt>
      <trkpt lat="45.95759" lon="4.69677">
        <ele>326</ele>
        <time>2017-03-25T10:45:34Z</time>
      </trkpt>
      <trkpt lat="45.95765" lon="4.6968">
        <ele>326</ele>
        <time>2017-03-25T10:45:35Z</time>
      </trkpt>
      <trkpt lat="45.9577" lon="4.69683">
        <ele>326</ele>
        <time>2017-03-25T10:45:36Z</time>
      </trkpt>
      <trkpt lat="45.95775" lon="4.69686">
        <ele>326</ele>
        <time>2017-03-25T10:45:37Z</time>
      </trkpt>
      <trkpt lat="45.9578" lon="4.69689">
        <ele>326</ele>
        <time>2017-03-25T10:45:38Z</time>
      </trkpt>
      <trkpt lat="45.95784" lon="4.69694">
        <ele>326</ele>
        <time>2017-03-25T10:45:39Z</time>
      </trkpt>
      <trkpt lat="45.95788" lon="4.69699">
        <ele>326</ele>
        <time>2017-03-25T10:45:40Z</time>
      </trkpt>
      <trkpt lat="45.95792" lon="4.69705">
        <ele>326</ele>
        <time>2017-03-25T10:45:41Z</time>
      </trkpt>
      <trkpt lat="45.95796" lon="4.6971">
        <ele>326</ele>
        <time>2017-03-25T10:45:42Z</time>
      </trkpt>
      <trkpt lat="45.958" lon="4.69716">
        <ele>326</ele>
        <time>2017-03-25T10:45:43Z</time>
      </trkpt>
      <trkpt lat="45.95805" lon="4.69722">
        <ele>326</ele>
        <time>2017-03-25T10:45:44Z</time>
      </trkpt>
      <trkpt lat="45.95809" lon="4.69728">
        <ele>326</ele>
        <time>2017-03-25T10:45:45Z</time>
      </trkpt>
      <trkpt lat="45.95812" lon="4.69734">
        <ele>326</ele>
        <time>2017-03-25T10:45:46Z</time>
      </trkpt>
      <trkpt lat="45.95816" lon="4.6974">
        <ele>327</ele>
        <time>2017-03-25T10:45:47Z</time>
      </trkpt>
      <trkpt lat="45.95819" lon="4.69746">
        <ele>327</ele>
        <time>2017-03-25T10:45:48Z</time>
      </trkpt>
      <trkpt lat="45.95823" lon="4.69753">
        <ele>328</ele>
        <time>2017-03-25T10:45:49Z</time>
      </trkpt>
      <trkpt lat="45.95826" lon="4.6976">
        <ele>328</ele>
        <time>2017-03-25T10:45:50Z</time>
      </trkpt>
      <trkpt lat="45.9583" lon="4.69766">
        <ele>328</ele>
        <time>2017-03-25T10:45:51Z</time>
      </trkpt>
      <trkpt lat="45.95833" lon="4.69773">
        <ele>328</ele>
        <time>2017-03-25T10:45:52Z</time>
      </trkpt>
      <trkpt lat="45.95836" lon="4.69779">
        <ele>327</ele>
        <time>2017-03-25T10:45:53Z</time>
      </trkpt>
      <trkpt lat="45.9584" lon="4.69785">
        <ele>327</ele>
        <time>2017-03-25T10:45:54Z</time>
      </trkpt>
      <trkpt lat="45.95843" lon="4.69792">
        <ele>327</ele>
        <time>2017-03-25T10:45:55Z</time>
      </trkpt>
      <trkpt lat="45.95846" lon="4.69798">
        <ele>327</ele>
        <time>2017-03-25T10:45:56Z</time>
      </trkpt>
      <trkpt lat="45.95849" lon="4.69805">
        <ele>327</ele>
        <time>2017-03-25T10:45:57Z</time>
      </trkpt>
      <trkpt lat="45.95853" lon="4.69812">
        <ele>328</ele>
        <time>2017-03-25T10:45:58Z</time>
      </trkpt>
      <trkpt lat="45.95856" lon="4.69818">
        <ele>328</ele>
        <time>2017-03-25T10:45:59Z</time>
      </trkpt>
      <trkpt lat="45.95859" lon="4.69825">
        <ele>328</ele>
        <time>2017-03-25T10:46:00Z</time>
      </trkpt>
      <trkpt lat="45.95861" lon="4.69832">
        <ele>328</ele>
        <time>2017-03-25T10:46:01Z</time>
      </trkpt>
      <trkpt lat="45.95864" lon="4.69839">
        <ele>329</ele>
        <time>2017-03-25T10:46:02Z</time>
      </trkpt>
      <trkpt lat="45.95866" lon="4.69845">
        <ele>329</ele>
        <time>2017-03-25T10:46:03Z</time>
      </trkpt>
      <trkpt lat="45.95868" lon="4.69852">
        <ele>329</ele>
        <time>2017-03-25T10:46:04Z</time>
      </trkpt>
      <trkpt lat="45.9587" lon="4.69858">
        <ele>329</ele>
        <time>2017-03-25T10:46:05Z</time>
      </trkpt>
      <trkpt lat="45.95871" lon="4.69865">
        <ele>329</ele>
        <time>2017-03-25T10:46:06Z</time>
      </trkpt>
      <trkpt lat="45.95874" lon="4.69877">
        <ele>329</ele>
        <time>2017-03-25T10:46:08Z</time>
      </trkpt>
      <trkpt lat="45.95876" lon="4.69883">
        <ele>329</ele>
        <time>2017-03-25T10:46:09Z</time>
      </trkpt>
      <trkpt lat="45.95877" lon="4.69889">
        <ele>329</ele>
        <time>2017-03-25T10:46:10Z</time>
      </trkpt>
      <trkpt lat="45.95879" lon="4.69895">
        <ele>329</ele>
        <time>2017-03-25T10:46:11Z</time>
      </trkpt>
      <trkpt lat="45.9588" lon="4.69902">
        <ele>329</ele>
        <time>2017-03-25T10:46:12Z</time>
      </trkpt>
      <trkpt lat="45.95882" lon="4.69908">
        <ele>329</ele>
        <time>2017-03-25T10:46:13Z</time>
      </trkpt>
      <trkpt lat="45.95883" lon="4.69914">
        <ele>329</ele>
        <time>2017-03-25T10:46:14Z</time>
      </trkpt>
      <trkpt lat="45.95885" lon="4.69921">
        <ele>328</ele>
        <time>2017-03-25T10:46:15Z</time>
      </trkpt>
      <trkpt lat="45.95886" lon="4.69928">
        <ele>328</ele>
        <time>2017-03-25T10:46:16Z</time>
      </trkpt>
      <trkpt lat="45.95888" lon="4.69934">
        <ele>328</ele>
        <time>2017-03-25T10:46:17Z</time>
      </trkpt>
      <trkpt lat="45.95891" lon="4.69946">
        <ele>328</ele>
        <time>2017-03-25T10:46:19Z</time>
      </trkpt>
      <trkpt lat="45.95892" lon="4.69952">
        <ele>328</ele>
        <time>2017-03-25T10:46:20Z</time>
      </trkpt>
      <trkpt lat="45.95893" lon="4.69958">
        <ele>328</ele>
        <time>2017-03-25T10:46:21Z</time>
      </trkpt>
      <trkpt lat="45.95895" lon="4.69964">
        <ele>328</ele>
        <time>2017-03-25T10:46:22Z</time>
      </trkpt>
      <trkpt lat="45.95896" lon="4.69972">
        <ele>328</ele>
        <time>2017-03-25T10:46:23Z</time>
      </trkpt>
      <trkpt lat="45.95898" lon="4.69979">
        <ele>328</ele>
        <time>2017-03-25T10:46:24Z</time>
      </trkpt>
      <trkpt lat="45.95901" lon="4.69986">
        <ele>328</ele>
        <time>2017-03-25T10:46:25Z</time>
      </trkpt>
      <trkpt lat="45.95903" lon="4.69993">
        <ele>328</ele>
        <time>2017-03-25T10:46:26Z</time>
      </trkpt>
      <trkpt lat="45.95905" lon="4.7">
        <ele>328</ele>
        <time>2017-03-25T10:46:27Z</time>
      </trkpt>
      <trkpt lat="45.95908" lon="4.70007">
        <ele>328</ele>
        <time>2017-03-25T10:46:28Z</time>
      </trkpt>
      <trkpt lat="45.9591" lon="4.70013">
        <ele>328</ele>
        <time>2017-03-25T10:46:29Z</time>
      </trkpt>
      <trkpt lat="45.95913" lon="4.70019">
        <ele>328</ele>
        <time>2017-03-25T10:46:30Z</time>
      </trkpt>
      <trkpt lat="45.95916" lon="4.70025">
        <ele>328</ele>
        <time>2017-03-25T10:46:31Z</time>
      </trkpt>
      <trkpt lat="45.95919" lon="4.70031">
        <ele>328</ele>
        <time>2017-03-25T10:46:32Z</time>
      </trkpt>
      <trkpt lat="45.95921" lon="4.70036">
        <ele>328</ele>
        <time>2017-03-25T10:46:33Z</time>
      </trkpt>
      <trkpt lat="45.95924" lon="4.70042">
        <ele>328</ele>
        <time>2017-03-25T10:46:34Z</time>
      </trkpt>
      <trkpt lat="45.95928" lon="4.70047">
        <ele>328</ele>
        <time>2017-03-25T10:46:35Z</time>
      </trkpt>
      <trkpt lat="45.95931" lon="4.70052">
        <ele>328</ele>
        <time>2017-03-25T10:46:36Z</time>
      </trkpt>
      <trkpt lat="45.95935" lon="4.70057">
        <ele>328</ele>
        <time>2017-03-25T10:46:37Z</time>
      </trkpt>
      <trkpt lat="45.95939" lon="4.70062">
        <ele>328</ele>
        <time>2017-03-25T10:46:38Z</time>
      </trkpt>
      <trkpt lat="45.95942" lon="4.70068">
        <ele>328</ele>
        <time>2017-03-25T10:46:39Z</time>
      </trkpt>
      <trkpt lat="45.95946" lon="4.70073">
        <ele>328</ele>
        <time>2017-03-25T10:46:40Z</time>
      </trkpt>
      <trkpt lat="45.95951" lon="4.70078">
        <ele>328</ele>
        <time>2017-03-25T10:46:41Z</time>
      </trkpt>
      <trkpt lat="45.95955" lon="4.70082">
        <ele>328</ele>
        <time>2017-03-25T10:46:42Z</time>
      </trkpt>
      <trkpt lat="45.95959" lon="4.70087">
        <ele>328</ele>
        <time>2017-03-25T10:46:43Z</time>
      </trkpt>
      <trkpt lat="45.95963" lon="4.70091">
        <ele>328</ele>
        <time>2017-03-25T10:46:44Z</time>
      </trkpt>
      <trkpt lat="45.95967" lon="4.70095">
        <ele>328</ele>
        <time>2017-03-25T10:46:45Z</time>
      </trkpt>
      <trkpt lat="45.95971" lon="4.70099">
        <ele>328</ele>
        <time>2017-03-25T10:46:46Z</time>
      </trkpt>
      <trkpt lat="45.95975" lon="4.70103">
        <ele>328</ele>
        <time>2017-03-25T10:46:47Z</time>
      </trkpt>
      <trkpt lat="45.95979" lon="4.70107">
        <ele>328</ele>
        <time>2017-03-25T10:46:48Z</time>
      </trkpt>
      <trkpt lat="45.95986" lon="4.70114">
        <ele>328</ele>
        <time>2017-03-25T10:46:50Z</time>
      </trkpt>
      <trkpt lat="45.9599" lon="4.70118">
        <ele>328</ele>
        <time>2017-03-25T10:46:51Z</time>
      </trkpt>
      <trkpt lat="45.95994" lon="4.70121">
        <ele>328</ele>
        <time>2017-03-25T10:46:52Z</time>
      </trkpt>
      <trkpt lat="45.95998" lon="4.70125">
        <ele>328</ele>
        <time>2017-03-25T10:46:53Z</time>
      </trkpt>
      <trkpt lat="45.96002" lon="4.70129">
        <ele>328</ele>
        <time>2017-03-25T10:46:54Z</time>
      </trkpt>
      <trkpt lat="45.96006" lon="4.70133">
        <ele>328</ele>
        <time>2017-03-25T10:46:55Z</time>
      </trkpt>
      <trkpt lat="45.96011" lon="4.70137">
        <ele>328</ele>
        <time>2017-03-25T10:46:56Z</time>
      </trkpt>
      <trkpt lat="45.96015" lon="4.70141">
        <ele>329</ele>
        <time>2017-03-25T10:46:57Z</time>
      </trkpt>
      <trkpt lat="45.9602" lon="4.70145">
        <ele>329</ele>
        <time>2017-03-25T10:46:58Z</time>
      </trkpt>
      <trkpt lat="45.96024" lon="4.70149">
        <ele>329</ele>
        <time>2017-03-25T10:46:59Z</time>
      </trkpt>
      <trkpt lat="45.96028" lon="4.70153">
        <ele>329</ele>
        <time>2017-03-25T10:47:00Z</time>
      </trkpt>
      <trkpt lat="45.96033" lon="4.70157">
        <ele>329</ele>
        <time>2017-03-25T10:47:01Z</time>
      </trkpt>
      <trkpt lat="45.96037" lon="4.70162">
        <ele>329</ele>
        <time>2017-03-25T10:47:02Z</time>
      </trkpt>
      <trkpt lat="45.96042" lon="4.70166">
        <ele>328</ele>
        <time>2017-03-25T10:47:03Z</time>
      </trkpt>
      <trkpt lat="45.96047" lon="4.7017">
        <ele>327</ele>
        <time>2017-03-25T10:47:04Z</time>
      </trkpt>
      <trkpt lat="45.96052" lon="4.70174">
        <ele>327</ele>
        <time>2017-03-25T10:47:05Z</time>
      </trkpt>
      <trkpt lat="45.96056" lon="4.70178">
        <ele>327</ele>
        <time>2017-03-25T10:47:06Z</time>
      </trkpt>
      <trkpt lat="45.96061" lon="4.70183">
        <ele>327</ele>
        <time>2017-03-25T10:47:07Z</time>
      </trkpt>
      <trkpt lat="45.96066" lon="4.70187">
        <ele>327</ele>
        <time>2017-03-25T10:47:08Z</time>
      </trkpt>
      <trkpt lat="45.96071" lon="4.70191">
        <ele>327</ele>
        <time>2017-03-25T10:47:09Z</time>
      </trkpt>
      <trkpt lat="45.96076" lon="4.70195">
        <ele>327</ele>
        <time>2017-03-25T10:47:10Z</time>
      </trkpt>
      <trkpt lat="45.96081" lon="4.70199">
        <ele>327</ele>
        <time>2017-03-25T10:47:11Z</time>
      </trkpt>
      <trkpt lat="45.96086" lon="4.70204">
        <ele>327</ele>
        <time>2017-03-25T10:47:12Z</time>
      </trkpt>
      <trkpt lat="45.96091" lon="4.70209">
        <ele>327</ele>
        <time>2017-03-25T10:47:13Z</time>
      </trkpt>
      <trkpt lat="45.96096" lon="4.70214">
        <ele>327</ele>
        <time>2017-03-25T10:47:14Z</time>
      </trkpt>
      <trkpt lat="45.96102" lon="4.70218">
        <ele>327</ele>
        <time>2017-03-25T10:47:15Z</time>
      </trkpt>
      <trkpt lat="45.96108" lon="4.70222">
        <ele>327</ele>
        <time>2017-03-25T10:47:16Z</time>
      </trkpt>
      <trkpt lat="45.96113" lon="4.70227">
        <ele>327</ele>
        <time>2017-03-25T10:47:17Z</time>
      </trkpt>
      <trkpt lat="45.96119" lon="4.70232">
        <ele>327</ele>
        <time>2017-03-25T10:47:18Z</time>
      </trkpt>
      <trkpt lat="45.96125" lon="4.70237">
        <ele>327</ele>
        <time>2017-03-25T10:47:19Z</time>
      </trkpt>
      <trkpt lat="45.96131" lon="4.70242">
        <ele>327</ele>
        <time>2017-03-25T10:47:20Z</time>
      </trkpt>
      <trkpt lat="45.96136" lon="4.70248">
        <ele>327</ele>
        <time>2017-03-25T10:47:21Z</time>
      </trkpt>
      <trkpt lat="45.96142" lon="4.70254">
        <ele>324</ele>
        <time>2017-03-25T10:47:22Z</time>
      </trkpt>
      <trkpt lat="45.96147" lon="4.7026">
        <ele>324</ele>
        <time>2017-03-25T10:47:23Z</time>
      </trkpt>
      <trkpt lat="45.96152" lon="4.70266">
        <ele>324</ele>
        <time>2017-03-25T10:47:24Z</time>
      </trkpt>
      <trkpt lat="45.96158" lon="4.70271">
        <ele>324</ele>
        <time>2017-03-25T10:47:25Z</time>
      </trkpt>
      <trkpt lat="45.96163" lon="4.70277">
        <ele>324</ele>
        <time>2017-03-25T10:47:26Z</time>
      </trkpt>
      <trkpt lat="45.96168" lon="4.70283">
        <ele>326</ele>
        <time>2017-03-25T10:47:27Z</time>
      </trkpt>
      <trkpt lat="45.96173" lon="4.70289">
        <ele>326</ele>
        <time>2017-03-25T10:47:28Z</time>
      </trkpt>
      <trkpt lat="45.96178" lon="4.70295">
        <ele>326</ele>
        <time>2017-03-25T10:47:29Z</time>
      </trkpt>
      <trkpt lat="45.96183" lon="4.70301">
        <ele>326</ele>
        <time>2017-03-25T10:47:30Z</time>
      </trkpt>
      <trkpt lat="45.96187" lon="4.70308">
        <ele>325</ele>
        <time>2017-03-25T10:47:31Z</time>
      </trkpt>
      <trkpt lat="45.96192" lon="4.70315">
        <ele>325</ele>
        <time>2017-03-25T10:47:32Z</time>
      </trkpt>
      <trkpt lat="45.96196" lon="4.70322">
        <ele>325</ele>
        <time>2017-03-25T10:47:33Z</time>
      </trkpt>
      <trkpt lat="45.962" lon="4.70329">
        <ele>325</ele>
        <time>2017-03-25T10:47:34Z</time>
      </trkpt>
      <trkpt lat="45.96205" lon="4.70336">
        <ele>320</ele>
        <time>2017-03-25T10:47:35Z</time>
      </trkpt>
      <trkpt lat="45.96209" lon="4.70342">
        <ele>321</ele>
        <time>2017-03-25T10:47:36Z</time>
      </trkpt>
      <trkpt lat="45.96214" lon="4.70349">
        <ele>321</ele>
        <time>2017-03-25T10:47:37Z</time>
      </trkpt>
      <trkpt lat="45.96218" lon="4.70357">
        <ele>321</ele>
        <time>2017-03-25T10:47:38Z</time>
      </trkpt>
      <trkpt lat="45.96223" lon="4.70364">
        <ele>321</ele>
        <time>2017-03-25T10:47:39Z</time>
      </trkpt>
      <trkpt lat="45.96227" lon="4.70371">
        <ele>321</ele>
        <time>2017-03-25T10:47:40Z</time>
      </trkpt>
      <trkpt lat="45.96232" lon="4.70378">
        <ele>320</ele>
        <time>2017-03-25T10:47:41Z</time>
      </trkpt>
      <trkpt lat="45.96237" lon="4.70385">
        <ele>320</ele>
        <time>2017-03-25T10:47:42Z</time>
      </trkpt>
      <trkpt lat="45.96242" lon="4.70392">
        <ele>320</ele>
        <time>2017-03-25T10:47:43Z</time>
      </trkpt>
      <trkpt lat="45.96247" lon="4.704">
        <ele>320</ele>
        <time>2017-03-25T10:47:44Z</time>
      </trkpt>
      <trkpt lat="45.96251" lon="4.70407">
        <ele>323</ele>
        <time>2017-03-25T10:47:45Z</time>
      </trkpt>
      <trkpt lat="45.96256" lon="4.70415">
        <ele>322</ele>
        <time>2017-03-25T10:47:46Z</time>
      </trkpt>
      <trkpt lat="45.96261" lon="4.70422">
        <ele>320</ele>
        <time>2017-03-25T10:47:47Z</time>
      </trkpt>
      <trkpt lat="45.96266" lon="4.7043">
        <ele>321</ele>
        <time>2017-03-25T10:47:48Z</time>
      </trkpt>
      <trkpt lat="45.96271" lon="4.70438">
        <ele>321</ele>
        <time>2017-03-25T10:47:49Z</time>
      </trkpt>
      <trkpt lat="45.96276" lon="4.70445">
        <ele>321</ele>
        <time>2017-03-25T10:47:50Z</time>
      </trkpt>
      <trkpt lat="45.96282" lon="4.70453">
        <ele>321</ele>
        <time>2017-03-25T10:47:51Z</time>
      </trkpt>
      <trkpt lat="45.96287" lon="4.7046">
        <ele>320</ele>
        <time>2017-03-25T10:47:52Z</time>
      </trkpt>
      <trkpt lat="45.96292" lon="4.70468">
        <ele>320</ele>
        <time>2017-03-25T10:47:53Z</time>
      </trkpt>
      <trkpt lat="45.96297" lon="4.70476">
        <ele>320</ele>
        <time>2017-03-25T10:47:54Z</time>
      </trkpt>
      <trkpt lat="45.96303" lon="4.70483">
        <ele>320</ele>
        <time>2017-03-25T10:47:55Z</time>
      </trkpt>
      <trkpt lat="45.96308" lon="4.70491">
        <ele>320</ele>
        <time>2017-03-25T10:47:56Z</time>
      </trkpt>
      <trkpt lat="45.96314" lon="4.70498">
        <ele>320</ele>
        <time>2017-03-25T10:47:57Z</time>
      </trkpt>
      <trkpt lat="45.9632" lon="4.70505">
        <ele>317</ele>
        <time>2017-03-25T10:47:58Z</time>
      </trkpt>
      <trkpt lat="45.96325" lon="4.70512">
        <ele>317</ele>
        <time>2017-03-25T10:47:59Z</time>
      </trkpt>
      <trkpt lat="45.96331" lon="4.7052">
        <ele>316</ele>
        <time>2017-03-25T10:48:00Z</time>
      </trkpt>
      <trkpt lat="45.96337" lon="4.70527">
        <ele>319</ele>
        <time>2017-03-25T10:48:01Z</time>
      </trkpt>
      <trkpt lat="45.96343" lon="4.70535">
        <ele>319</ele>
        <time>2017-03-25T10:48:02Z</time>
      </trkpt>
      <trkpt lat="45.96349" lon="4.70543">
        <ele>318</ele>
        <time>2017-03-25T10:48:03Z</time>
      </trkpt>
      <trkpt lat="45.96355" lon="4.7055">
        <ele>318</ele>
        <time>2017-03-25T10:48:04Z</time>
      </trkpt>
      <trkpt lat="45.96361" lon="4.70558">
        <ele>318</ele>
        <time>2017-03-25T10:48:05Z</time>
      </trkpt>
      <trkpt lat="45.96367" lon="4.70566">
        <ele>318</ele>
        <time>2017-03-25T10:48:06Z</time>
      </trkpt>
      <trkpt lat="45.96374" lon="4.70574">
        <ele>318</ele>
        <time>2017-03-25T10:48:07Z</time>
      </trkpt>
      <trkpt lat="45.9638" lon="4.70582">
        <ele>318</ele>
        <time>2017-03-25T10:48:08Z</time>
      </trkpt>
      <trkpt lat="45.96387" lon="4.7059">
        <ele>312</ele>
        <time>2017-03-25T10:48:09Z</time>
      </trkpt>
      <trkpt lat="45.96394" lon="4.70598">
        <ele>312</ele>
        <time>2017-03-25T10:48:10Z</time>
      </trkpt>
      <trkpt lat="45.964" lon="4.70607">
        <ele>312</ele>
        <time>2017-03-25T10:48:11Z</time>
      </trkpt>
      <trkpt lat="45.96407" lon="4.70615">
        <ele>312</ele>
        <time>2017-03-25T10:48:12Z</time>
      </trkpt>
      <trkpt lat="45.96414" lon="4.70623">
        <ele>311</ele>
        <time>2017-03-25T10:48:13Z</time>
      </trkpt>
      <trkpt lat="45.96421" lon="4.70632">
        <ele>313</ele>
        <time>2017-03-25T10:48:14Z</time>
      </trkpt>
      <trkpt lat="45.96429" lon="4.7064">
        <ele>313</ele>
        <time>2017-03-25T10:48:15Z</time>
      </trkpt>
      <trkpt lat="45.96436" lon="4.70647">
        <ele>312</ele>
        <time>2017-03-25T10:48:16Z</time>
      </trkpt>
      <trkpt lat="45.96444" lon="4.70655">
        <ele>312</ele>
        <time>2017-03-25T10:48:17Z</time>
      </trkpt>
      <trkpt lat="45.96451" lon="4.70663">
        <ele>312</ele>
        <time>2017-03-25T10:48:18Z</time>
      </trkpt>
      <trkpt lat="45.96459" lon="4.70671">
        <ele>305</ele>
        <time>2017-03-25T10:48:19Z</time>
      </trkpt>
      <trkpt lat="45.96467" lon="4.70679">
        <ele>305</ele>
        <time>2017-03-25T10:48:20Z</time>
      </trkpt>
      <trkpt lat="45.96475" lon="4.70687">
        <ele>305</ele>
        <time>2017-03-25T10:48:21Z</time>
      </trkpt>
      <trkpt lat="45.96484" lon="4.70694">
        <ele>305</ele>
        <time>2017-03-25T10:48:22Z</time>
      </trkpt>
      <trkpt lat="45.96493" lon="4.70702">
        <ele>305</ele>
        <time>2017-03-25T10:48:23Z</time>
      </trkpt>
      <trkpt lat="45.96502" lon="4.70709">
        <ele>306</ele>
        <time>2017-03-25T10:48:24Z</time>
      </trkpt>
      <trkpt lat="45.96511" lon="4.70717">
        <ele>305</ele>
        <time>2017-03-25T10:48:25Z</time>
      </trkpt>
      <trkpt lat="45.9652" lon="4.70724">
        <ele>305</ele>
        <time>2017-03-25T10:48:26Z</time>
      </trkpt>
      <trkpt lat="45.9653" lon="4.70732">
        <ele>305</ele>
        <time>2017-03-25T10:48:27Z</time>
      </trkpt>
      <trkpt lat="45.96539" lon="4.7074">
        <ele>305</ele>
        <time>2017-03-25T10:48:28Z</time>
      </trkpt>
      <trkpt lat="45.96549" lon="4.70747">
        <ele>305</ele>
        <time>2017-03-25T10:48:29Z</time>
      </trkpt>
      <trkpt lat="45.96558" lon="4.70755">
        <ele>299</ele>
        <time>2017-03-25T10:48:30Z</time>
      </trkpt>
      <trkpt lat="45.96568" lon="4.70762">
        <ele>299</ele>
        <time>2017-03-25T10:48:31Z</time>
      </trkpt>
      <trkpt lat="45.96578" lon="4.70769">
        <ele>299</ele>
        <time>2017-03-25T10:48:32Z</time>
      </trkpt>
      <trkpt lat="45.96588" lon="4.70777">
        <ele>300</ele>
        <time>2017-03-25T10:48:33Z</time>
      </trkpt>
      <trkpt lat="45.96598" lon="4.70784">
        <ele>299</ele>
        <time>2017-03-25T10:48:34Z</time>
      </trkpt>
      <trkpt lat="45.96608" lon="4.70791">
        <ele>298</ele>
        <time>2017-03-25T10:48:35Z</time>
      </trkpt>
      <trkpt lat="45.96618" lon="4.70798">
        <ele>298</ele>
        <time>2017-03-25T10:48:36Z</time>
      </trkpt>
      <trkpt lat="45.96629" lon="4.70805">
        <ele>298</ele>
        <time>2017-03-25T10:48:37Z</time>
      </trkpt>
      <trkpt lat="45.96639" lon="4.70812">
        <ele>297</ele>
        <time>2017-03-25T10:48:38Z</time>
      </trkpt>
      <trkpt lat="45.9665" lon="4.70818">
        <ele>297</ele>
        <time>2017-03-25T10:48:39Z</time>
      </trkpt>
      <trkpt lat="45.9666" lon="4.70825">
        <ele>296</ele>
        <time>2017-03-25T10:48:40Z</time>
      </trkpt>
      <trkpt lat="45.96671" lon="4.70832">
        <ele>296</ele>
        <time>2017-03-25T10:48:41Z</time>
      </trkpt>
      <trkpt lat="45.96681" lon="4.70839">
        <ele>292</ele>
        <time>2017-03-25T10:48:42Z</time>
      </trkpt>
      <trkpt lat="45.96691" lon="4.70846">
        <ele>291</ele>
        <time>2017-03-25T10:48:43Z</time>
      </trkpt>
      <trkpt lat="45.96702" lon="4.70852">
        <ele>290</ele>
        <time>2017-03-25T10:48:44Z</time>
      </trkpt>
      <trkpt lat="45.96712" lon="4.70859">
        <ele>289</ele>
        <time>2017-03-25T10:48:45Z</time>
      </trkpt>
      <trkpt lat="45.96722" lon="4.70866">
        <ele>289</ele>
        <time>2017-03-25T10:48:46Z</time>
      </trkpt>
      <trkpt lat="45.96732" lon="4.70872">
        <ele>289</ele>
        <time>2017-03-25T10:48:47Z</time>
      </trkpt>
      <trkpt lat="45.96742" lon="4.70878">
        <ele>288</ele>
        <time>2017-03-25T10:48:48Z</time>
      </trkpt>
      <trkpt lat="45.96751" lon="4.70885">
        <ele>288</ele>
        <time>2017-03-25T10:48:49Z</time>
      </trkpt>
      <trkpt lat="45.96761" lon="4.70891">
        <ele>288</ele>
        <time>2017-03-25T10:48:50Z</time>
      </trkpt>
      <trkpt lat="45.96771" lon="4.70897">
        <ele>288</ele>
        <time>2017-03-25T10:48:51Z</time>
      </trkpt>
      <trkpt lat="45.96781" lon="4.70903">
        <ele>288</ele>
        <time>2017-03-25T10:48:52Z</time>
      </trkpt>
      <trkpt lat="45.9679" lon="4.70909">
        <ele>288</ele>
        <time>2017-03-25T10:48:53Z</time>
      </trkpt>
      <trkpt lat="45.968" lon="4.70916">
        <ele>288</ele>
        <time>2017-03-25T10:48:54Z</time>
      </trkpt>
      <trkpt lat="45.96809" lon="4.70922">
        <ele>281</ele>
        <time>2017-03-25T10:48:55Z</time>
      </trkpt>
      <trkpt lat="45.96819" lon="4.70927">
        <ele>282</ele>
        <time>2017-03-25T10:48:56Z</time>
      </trkpt>
      <trkpt lat="45.96829" lon="4.70933">
        <ele>282</ele>
        <time>2017-03-25T10:48:57Z</time>
      </trkpt>
      <trkpt lat="45.96838" lon="4.70939">
        <ele>282</ele>
        <time>2017-03-25T10:48:58Z</time>
      </trkpt>
      <trkpt lat="45.96847" lon="4.70946">
        <ele>281</ele>
        <time>2017-03-25T10:48:59Z</time>
      </trkpt>
      <trkpt lat="45.96857" lon="4.70953">
        <ele>280</ele>
        <time>2017-03-25T10:49:00Z</time>
      </trkpt>
      <trkpt lat="45.96866" lon="4.7096">
        <ele>279</ele>
        <time>2017-03-25T10:49:01Z</time>
      </trkpt>
      <trkpt lat="45.96875" lon="4.70965">
        <ele>279</ele>
        <time>2017-03-25T10:49:02Z</time>
      </trkpt>
      <trkpt lat="45.96885" lon="4.70969">
        <ele>278</ele>
        <time>2017-03-25T10:49:03Z</time>
      </trkpt>
      <trkpt lat="45.96895" lon="4.70972">
        <ele>278</ele>
        <time>2017-03-25T10:49:04Z</time>
      </trkpt>
      <trkpt lat="45.96905" lon="4.70975">
        <ele>278</ele>
        <time>2017-03-25T10:49:05Z</time>
      </trkpt>
      <trkpt lat="45.96915" lon="4.70977">
        <ele>277</ele>
        <time>2017-03-25T10:49:06Z</time>
      </trkpt>
      <trkpt lat="45.96926" lon="4.7098">
        <ele>275</ele>
        <time>2017-03-25T10:49:07Z</time>
      </trkpt>
      <trkpt lat="45.96936" lon="4.70982">
        <ele>275</ele>
        <time>2017-03-25T10:49:08Z</time>
      </trkpt>
      <trkpt lat="45.96946" lon="4.70984">
        <ele>275</ele>
        <time>2017-03-25T10:49:09Z</time>
      </trkpt>
      <trkpt lat="45.96956" lon="4.70986">
        <ele>275</ele>
        <time>2017-03-25T10:49:10Z</time>
      </trkpt>
      <trkpt lat="45.96966" lon="4.70988">
        <ele>274</ele>
        <time>2017-03-25T10:49:11Z</time>
      </trkpt>
      <trkpt lat="45.96976" lon="4.70989">
        <ele>273</ele>
        <time>2017-03-25T10:49:12Z</time>
      </trkpt>
      <trkpt lat="45.96986" lon="4.70989">
        <ele>272</ele>
        <time>2017-03-25T10:49:13Z</time>
      </trkpt>
      <trkpt lat="45.96996" lon="4.70989">
        <ele>271</ele>
        <time>2017-03-25T10:49:14Z</time>
      </trkpt>
      <trkpt lat="45.97007" lon="4.70989">
        <ele>269</ele>
        <time>2017-03-25T10:49:15Z</time>
      </trkpt>
      <trkpt lat="45.97016" lon="4.70988">
        <ele>269</ele>
        <time>2017-03-25T10:49:16Z</time>
      </trkpt>
      <trkpt lat="45.97026" lon="4.70987">
        <ele>269</ele>
        <time>2017-03-25T10:49:17Z</time>
      </trkpt>
      <trkpt lat="45.97037" lon="4.70986">
        <ele>269</ele>
        <time>2017-03-25T10:49:18Z</time>
      </trkpt>
      <trkpt lat="45.97047" lon="4.70985">
        <ele>269</ele>
        <time>2017-03-25T10:49:19Z</time>
      </trkpt>
      <trkpt lat="45.97057" lon="4.70984">
        <ele>269</ele>
        <time>2017-03-25T10:49:20Z</time>
      </trkpt>
      <trkpt lat="45.97067" lon="4.70982">
        <ele>268</ele>
        <time>2017-03-25T10:49:21Z</time>
      </trkpt>
      <trkpt lat="45.97077" lon="4.7098">
        <ele>268</ele>
        <time>2017-03-25T10:49:22Z</time>
      </trkpt>
      <trkpt lat="45.97087" lon="4.70978">
        <ele>264</ele>
        <time>2017-03-25T10:49:23Z</time>
      </trkpt>
      <trkpt lat="45.97097" lon="4.70974">
        <ele>264</ele>
        <time>2017-03-25T10:49:24Z</time>
      </trkpt>
      <trkpt lat="45.97107" lon="4.7097">
        <ele>264</ele>
        <time>2017-03-25T10:49:25Z</time>
      </trkpt>
      <trkpt lat="45.97117" lon="4.70966">
        <ele>264</ele>
        <time>2017-03-25T10:49:26Z</time>
      </trkpt>
      <trkpt lat="45.97127" lon="4.70961">
        <ele>264</ele>
        <time>2017-03-25T10:49:27Z</time>
      </trkpt>
      <trkpt lat="45.97137" lon="4.70957">
        <ele>263</ele>
        <time>2017-03-25T10:49:28Z</time>
      </trkpt>
      <trkpt lat="45.97147" lon="4.70953">
        <ele>263</ele>
        <time>2017-03-25T10:49:29Z</time>
      </trkpt>
      <trkpt lat="45.97157" lon="4.70949">
        <ele>263</ele>
        <time>2017-03-25T10:49:30Z</time>
      </trkpt>
      <trkpt lat="45.97166" lon="4.70944">
        <ele>263</ele>
        <time>2017-03-25T10:49:31Z</time>
      </trkpt>
      <trkpt lat="45.97174" lon="4.70938">
        <ele>259</ele>
        <time>2017-03-25T10:49:32Z</time>
      </trkpt>
      <trkpt lat="45.97183" lon="4.70933">
        <ele>258</ele>
        <time>2017-03-25T10:49:33Z</time>
      </trkpt>
      <trkpt lat="45.97191" lon="4.70927">
        <ele>258</ele>
        <time>2017-03-25T10:49:34Z</time>
      </trkpt>
      <trkpt lat="45.97199" lon="4.7092">
        <ele>257</ele>
        <time>2017-03-25T10:49:35Z</time>
      </trkpt>
      <trkpt lat="45.97207" lon="4.70913">
        <ele>260</ele>
        <time>2017-03-25T10:49:36Z</time>
      </trkpt>
      <trkpt lat="45.97215" lon="4.70905">
        <ele>260</ele>
        <time>2017-03-25T10:49:37Z</time>
      </trkpt>
      <trkpt lat="45.97222" lon="4.70896">
        <ele>259</ele>
        <time>2017-03-25T10:49:38Z</time>
      </trkpt>
      <trkpt lat="45.9723" lon="4.70887">
        <ele>259</ele>
        <time>2017-03-25T10:49:39Z</time>
      </trkpt>
      <trkpt lat="45.97238" lon="4.70876">
        <ele>259</ele>
        <time>2017-03-25T10:49:40Z</time>
      </trkpt>
      <trkpt lat="45.97245" lon="4.70866">
        <ele>259</ele>
        <time>2017-03-25T10:49:41Z</time>
      </trkpt>
      <trkpt lat="45.97252" lon="4.70855">
        <ele>253</ele>
        <time>2017-03-25T10:49:42Z</time>
      </trkpt>
      <trkpt lat="45.9726" lon="4.70844">
        <ele>254</ele>
        <time>2017-03-25T10:49:43Z</time>
      </trkpt>
      <trkpt lat="45.97267" lon="4.70833">
        <ele>256</ele>
        <time>2017-03-25T10:49:44Z</time>
      </trkpt>
      <trkpt lat="45.97274" lon="4.70823">
        <ele>255</ele>
        <time>2017-03-25T10:49:45Z</time>
      </trkpt>
      <trkpt lat="45.97282" lon="4.70814">
        <ele>254</ele>
        <time>2017-03-25T10:49:46Z</time>
      </trkpt>
      <trkpt lat="45.97289" lon="4.70805">
        <ele>254</ele>
        <time>2017-03-25T10:49:47Z</time>
      </trkpt>
      <trkpt lat="45.97296" lon="4.70797">
        <ele>253</ele>
        <time>2017-03-25T10:49:48Z</time>
      </trkpt>
      <trkpt lat="45.97302" lon="4.7079">
        <ele>253</ele>
        <time>2017-03-25T10:49:49Z</time>
      </trkpt>
      <trkpt lat="45.97308" lon="4.70784">
        <ele>253</ele>
        <time>2017-03-25T10:49:50Z</time>
      </trkpt>
      <trkpt lat="45.97313" lon="4.70778">
        <ele>252</ele>
        <time>2017-03-25T10:49:51Z</time>
      </trkpt>
      <trkpt lat="45.9732" lon="4.70773">
        <ele>252</ele>
        <time>2017-03-25T10:49:52Z</time>
      </trkpt>
      <trkpt lat="45.97327" lon="4.70768">
        <ele>251</ele>
        <time>2017-03-25T10:49:53Z</time>
      </trkpt>
      <trkpt lat="45.97334" lon="4.70764">
        <ele>247</ele>
        <time>2017-03-25T10:49:54Z</time>
      </trkpt>
      <trkpt lat="45.97343" lon="4.7076">
        <ele>247</ele>
        <time>2017-03-25T10:49:55Z</time>
      </trkpt>
      <trkpt lat="45.97351" lon="4.70757">
        <ele>246</ele>
        <time>2017-03-25T10:49:56Z</time>
      </trkpt>
      <trkpt lat="45.9736" lon="4.70753">
        <ele>245</ele>
        <time>2017-03-25T10:49:57Z</time>
      </trkpt>
      <trkpt lat="45.97369" lon="4.7075">
        <ele>245</ele>
        <time>2017-03-25T10:49:58Z</time>
      </trkpt>
      <trkpt lat="45.97378" lon="4.70748">
        <ele>244</ele>
        <time>2017-03-25T10:49:59Z</time>
      </trkpt>
      <trkpt lat="45.97386" lon="4.70747">
        <ele>243</ele>
        <time>2017-03-25T10:50:00Z</time>
      </trkpt>
      <trkpt lat="45.97394" lon="4.70746">
        <ele>243</ele>
        <time>2017-03-25T10:50:01Z</time>
      </trkpt>
      <trkpt lat="45.97402" lon="4.70747">
        <ele>242</ele>
        <time>2017-03-25T10:50:02Z</time>
      </trkpt>
      <trkpt lat="45.9741" lon="4.70747">
        <ele>241</ele>
        <time>2017-03-25T10:50:03Z</time>
      </trkpt>
      <trkpt lat="45.97418" lon="4.70748">
        <ele>240</ele>
        <time>2017-03-25T10:50:04Z</time>
      </trkpt>
      <trkpt lat="45.97425" lon="4.70749">
        <ele>239</ele>
        <time>2017-03-25T10:50:05Z</time>
      </trkpt>
      <trkpt lat="45.97431" lon="4.70751">
        <ele>239</ele>
        <time>2017-03-25T10:50:06Z</time>
      </trkpt>
      <trkpt lat="45.97437" lon="4.70751">
        <ele>238</ele>
        <time>2017-03-25T10:50:07Z</time>
      </trkpt>
      <trkpt lat="45.97444" lon="4.70751">
        <ele>238</ele>
        <time>2017-03-25T10:50:08Z</time>
      </trkpt>
      <trkpt lat="45.9745" lon="4.70751">
        <ele>238</ele>
        <time>2017-03-25T10:50:09Z</time>
      </trkpt>
      <trkpt lat="45.97457" lon="4.7075">
        <ele>238</ele>
        <time>2017-03-25T10:50:10Z</time>
      </trkpt>
      <trkpt lat="45.97463" lon="4.70749">
        <ele>238</ele>
        <time>2017-03-25T10:50:11Z</time>
      </trkpt>
      <trkpt lat="45.97469" lon="4.70749">
        <ele>238</ele>
        <time>2017-03-25T10:50:12Z</time>
      </trkpt>
      <trkpt lat="45.97474" lon="4.70748">
        <ele>237</ele>
        <time>2017-03-25T10:50:13Z</time>
      </trkpt>
      <trkpt lat="45.97479" lon="4.70747">
        <ele>237</ele>
        <time>2017-03-25T10:50:14Z</time>
      </trkpt>
      <trkpt lat="45.97483" lon="4.70745">
        <ele>237</ele>
        <time>2017-03-25T10:50:15Z</time>
      </trkpt>
      <trkpt lat="45.97488" lon="4.70743">
        <ele>237</ele>
        <time>2017-03-25T10:50:16Z</time>
      </trkpt>
      <trkpt lat="45.97494" lon="4.70741">
        <ele>237</ele>
        <time>2017-03-25T10:50:17Z</time>
      </trkpt>
      <trkpt lat="45.975" lon="4.7074">
        <ele>235</ele>
        <time>2017-03-25T10:50:18Z</time>
      </trkpt>
      <trkpt lat="45.97507" lon="4.70739">
        <ele>235</ele>
        <time>2017-03-25T10:50:19Z</time>
      </trkpt>
      <trkpt lat="45.97513" lon="4.70738">
        <ele>235</ele>
        <time>2017-03-25T10:50:20Z</time>
      </trkpt>
      <trkpt lat="45.97518" lon="4.70737">
        <ele>235</ele>
        <time>2017-03-25T10:50:21Z</time>
      </trkpt>
      <trkpt lat="45.97526" lon="4.70735">
        <ele>234</ele>
        <time>2017-03-25T10:50:23Z</time>
      </trkpt>
      <trkpt lat="45.97532" lon="4.70734">
        <ele>234</ele>
        <time>2017-03-25T10:50:24Z</time>
      </trkpt>
      <trkpt lat="45.97539" lon="4.70733">
        <ele>234</ele>
        <time>2017-03-25T10:50:25Z</time>
      </trkpt>
      <trkpt lat="45.97545" lon="4.70732">
        <ele>233</ele>
        <time>2017-03-25T10:50:26Z</time>
      </trkpt>
      <trkpt lat="45.97552" lon="4.70731">
        <ele>233</ele>
        <time>2017-03-25T10:50:27Z</time>
      </trkpt>
      <trkpt lat="45.97558" lon="4.70729">
        <ele>233</ele>
        <time>2017-03-25T10:50:28Z</time>
      </trkpt>
      <trkpt lat="45.97564" lon="4.70728">
        <ele>233</ele>
        <time>2017-03-25T10:50:29Z</time>
      </trkpt>
      <trkpt lat="45.97571" lon="4.70727">
        <ele>233</ele>
        <time>2017-03-25T10:50:30Z</time>
      </trkpt>
      <trkpt lat="45.97577" lon="4.70726">
        <ele>232</ele>
        <time>2017-03-25T10:50:31Z</time>
      </trkpt>
      <trkpt lat="45.97583" lon="4.70726">
        <ele>232</ele>
        <time>2017-03-25T10:50:32Z</time>
      </trkpt>
      <trkpt lat="45.97589" lon="4.70726">
        <ele>229</ele>
        <time>2017-03-25T10:50:33Z</time>
      </trkpt>
      <trkpt lat="45.97596" lon="4.70727">
        <ele>229</ele>
        <time>2017-03-25T10:50:34Z</time>
      </trkpt>
      <trkpt lat="45.97603" lon="4.70728">
        <ele>229</ele>
        <time>2017-03-25T10:50:35Z</time>
      </trkpt>
      <trkpt lat="45.97609" lon="4.7073">
        <ele>229</ele>
        <time>2017-03-25T10:50:36Z</time>
      </trkpt>
      <trkpt lat="45.97616" lon="4.70732">
        <ele>228</ele>
        <time>2017-03-25T10:50:37Z</time>
      </trkpt>
      <trkpt lat="45.97623" lon="4.70735">
        <ele>228</ele>
        <time>2017-03-25T10:50:38Z</time>
      </trkpt>
      <trkpt lat="45.9763" lon="4.70738">
        <ele>228</ele>
        <time>2017-03-25T10:50:39Z</time>
      </trkpt>
      <trkpt lat="45.97638" lon="4.70741">
        <ele>227</ele>
        <time>2017-03-25T10:50:40Z</time>
      </trkpt>
      <trkpt lat="45.97645" lon="4.70743">
        <ele>226</ele>
        <time>2017-03-25T10:50:41Z</time>
      </trkpt>
      <trkpt lat="45.97653" lon="4.70746">
        <ele>226</ele>
        <time>2017-03-25T10:50:42Z</time>
      </trkpt>
      <trkpt lat="45.97661" lon="4.70749">
        <ele>225</ele>
        <time>2017-03-25T10:50:43Z</time>
      </trkpt>
      <trkpt lat="45.97668" lon="4.70753">
        <ele>224</ele>
        <time>2017-03-25T10:50:44Z</time>
      </trkpt>
      <trkpt lat="45.97676" lon="4.70756">
        <ele>223</ele>
        <time>2017-03-25T10:50:45Z</time>
      </trkpt>
      <trkpt lat="45.97684" lon="4.70758">
        <ele>223</ele>
        <time>2017-03-25T10:50:46Z</time>
      </trkpt>
      <trkpt lat="45.97692" lon="4.70761">
        <ele>223</ele>
        <time>2017-03-25T10:50:47Z</time>
      </trkpt>
      <trkpt lat="45.977" lon="4.70764">
        <ele>223</ele>
        <time>2017-03-25T10:50:48Z</time>
      </trkpt>
      <trkpt lat="45.97707" lon="4.70767">
        <ele>223</ele>
        <time>2017-03-25T10:50:49Z</time>
      </trkpt>
      <trkpt lat="45.97715" lon="4.7077">
        <ele>223</ele>
        <time>2017-03-25T10:50:50Z</time>
      </trkpt>
      <trkpt lat="45.97723" lon="4.70773">
        <ele>222</ele>
        <time>2017-03-25T10:50:51Z</time>
      </trkpt>
      <trkpt lat="45.97731" lon="4.70776">
        <ele>222</ele>
        <time>2017-03-25T10:50:52Z</time>
      </trkpt>
      <trkpt lat="45.9774" lon="4.70779">
        <ele>222</ele>
        <time>2017-03-25T10:50:53Z</time>
      </trkpt>
      <trkpt lat="45.97748" lon="4.70782">
        <ele>222</ele>
        <time>2017-03-25T10:50:54Z</time>
      </trkpt>
      <trkpt lat="45.97756" lon="4.70784">
        <ele>221</ele>
        <time>2017-03-25T10:50:55Z</time>
      </trkpt>
      <trkpt lat="45.97763" lon="4.70784">
        <ele>221</ele>
        <time>2017-03-25T10:50:56Z</time>
      </trkpt>
      <trkpt lat="45.97768" lon="4.70784">
        <ele>221</ele>
        <time>2017-03-25T10:50:57Z</time>
      </trkpt>
      <trkpt lat="45.97772" lon="4.70786">
        <ele>221</ele>
        <time>2017-03-25T10:50:58Z</time>
      </trkpt>
      <trkpt lat="45.97776" lon="4.70789">
        <ele>221</ele>
        <time>2017-03-25T10:50:59Z</time>
      </trkpt>
      <trkpt lat="45.9778" lon="4.70793">
        <ele>221</ele>
        <time>2017-03-25T10:51:00Z</time>
      </trkpt>
      <trkpt lat="45.97784" lon="4.70798">
        <ele>221</ele>
        <time>2017-03-25T10:51:01Z</time>
      </trkpt>
      <trkpt lat="45.97789" lon="4.70801">
        <ele>221</ele>
        <time>2017-03-25T10:51:02Z</time>
      </trkpt>
      <trkpt lat="45.97794" lon="4.70804">
        <ele>221</ele>
        <time>2017-03-25T10:51:03Z</time>
      </trkpt>
      <trkpt lat="45.97799" lon="4.70809">
        <ele>221</ele>
        <time>2017-03-25T10:51:04Z</time>
      </trkpt>
      <trkpt lat="45.97804" lon="4.70815">
        <ele>221</ele>
        <time>2017-03-25T10:51:05Z</time>
      </trkpt>
      <trkpt lat="45.97808" lon="4.70821">
        <ele>221</ele>
        <time>2017-03-25T10:51:06Z</time>
      </trkpt>
      <trkpt lat="45.9781" lon="4.7083">
        <ele>221</ele>
        <time>2017-03-25T10:51:07Z</time>
      </trkpt>
      <trkpt lat="45.97813" lon="4.70838">
        <ele>220</ele>
        <time>2017-03-25T10:51:08Z</time>
      </trkpt>
      <trkpt lat="45.97815" lon="4.70847">
        <ele>220</ele>
        <time>2017-03-25T10:51:09Z</time>
      </trkpt>
      <trkpt lat="45.97816" lon="4.70856">
        <ele>220</ele>
        <time>2017-03-25T10:51:10Z</time>
      </trkpt>
      <trkpt lat="45.97817" lon="4.70866">
        <ele>220</ele>
        <time>2017-03-25T10:51:11Z</time>
      </trkpt>
      <trkpt lat="45.97817" lon="4.70876">
        <ele>220</ele>
        <time>2017-03-25T10:51:12Z</time>
      </trkpt>
      <trkpt lat="45.97818" lon="4.70886">
        <ele>220</ele>
        <time>2017-03-25T10:51:13Z</time>
      </trkpt>
      <trkpt lat="45.97818" lon="4.70896">
        <ele>220</ele>
        <time>2017-03-25T10:51:14Z</time>
      </trkpt>
      <trkpt lat="45.97818" lon="4.70906">
        <ele>220</ele>
        <time>2017-03-25T10:51:15Z</time>
      </trkpt>
      <trkpt lat="45.97817" lon="4.70916">
        <ele>219</ele>
        <time>2017-03-25T10:51:16Z</time>
      </trkpt>
      <trkpt lat="45.97816" lon="4.70927">
        <ele>219</ele>
        <time>2017-03-25T10:51:17Z</time>
      </trkpt>
      <trkpt lat="45.97819" lon="4.70936">
        <ele>218</ele>
        <time>2017-03-25T10:51:18Z</time>
      </trkpt>
      <trkpt lat="45.97823" lon="4.70946">
        <ele>218</ele>
        <time>2017-03-25T10:51:19Z</time>
      </trkpt>
      <trkpt lat="45.97827" lon="4.70956">
        <ele>218</ele>
        <time>2017-03-25T10:51:20Z</time>
      </trkpt>
      <trkpt lat="45.97829" lon="4.70966">
        <ele>218</ele>
        <time>2017-03-25T10:51:21Z</time>
      </trkpt>
      <trkpt lat="45.9783" lon="4.70977">
        <ele>217</ele>
        <time>2017-03-25T10:51:22Z</time>
      </trkpt>
      <trkpt lat="45.97831" lon="4.70988">
        <ele>217</ele>
        <time>2017-03-25T10:51:23Z</time>
      </trkpt>
      <trkpt lat="45.97833" lon="4.70999">
        <ele>216</ele>
        <time>2017-03-25T10:51:24Z</time>
      </trkpt>
      <trkpt lat="45.97833" lon="4.7101">
        <ele>216</ele>
        <time>2017-03-25T10:51:25Z</time>
      </trkpt>
      <trkpt lat="45.97835" lon="4.71021">
        <ele>216</ele>
        <time>2017-03-25T10:51:26Z</time>
      </trkpt>
      <trkpt lat="45.97836" lon="4.71032">
        <ele>216</ele>
        <time>2017-03-25T10:51:27Z</time>
      </trkpt>
      <trkpt lat="45.97837" lon="4.71043">
        <ele>215</ele>
        <time>2017-03-25T10:51:28Z</time>
      </trkpt>
      <trkpt lat="45.97838" lon="4.71054">
        <ele>215</ele>
        <time>2017-03-25T10:51:29Z</time>
      </trkpt>
      <trkpt lat="45.97839" lon="4.71064">
        <ele>215</ele>
        <time>2017-03-25T10:51:30Z</time>
      </trkpt>
      <trkpt lat="45.9784" lon="4.71074">
        <ele>215</ele>
        <time>2017-03-25T10:51:31Z</time>
      </trkpt>
      <trkpt lat="45.97842" lon="4.71084">
        <ele>214</ele>
        <time>2017-03-25T10:51:32Z</time>
      </trkpt>
      <trkpt lat="45.97843" lon="4.71093">
        <ele>213</ele>
        <time>2017-03-25T10:51:33Z</time>
      </trkpt>
      <trkpt lat="45.97844" lon="4.71102">
        <ele>213</ele>
        <time>2017-03-25T10:51:34Z</time>
      </trkpt>
      <trkpt lat="45.97845" lon="4.7111">
        <ele>213</ele>
        <time>2017-03-25T10:51:35Z</time>
      </trkpt>
      <trkpt lat="45.97846" lon="4.71119">
        <ele>213</ele>
        <time>2017-03-25T10:51:36Z</time>
      </trkpt>
      <trkpt lat="45.97847" lon="4.71128">
        <ele>212</ele>
        <time>2017-03-25T10:51:37Z</time>
      </trkpt>
      <trkpt lat="45.97848" lon="4.71136">
        <ele>212</ele>
        <time>2017-03-25T10:51:38Z</time>
      </trkpt>
      <trkpt lat="45.97849" lon="4.71144">
        <ele>212</ele>
        <time>2017-03-25T10:51:39Z</time>
      </trkpt>
      <trkpt lat="45.9785" lon="4.71153">
        <ele>212</ele>
        <time>2017-03-25T10:51:40Z</time>
      </trkpt>
      <trkpt lat="45.9785" lon="4.71162">
        <ele>212</ele>
        <time>2017-03-25T10:51:41Z</time>
      </trkpt>
      <trkpt lat="45.9785" lon="4.71171">
        <ele>210</ele>
        <time>2017-03-25T10:51:42Z</time>
      </trkpt>
      <trkpt lat="45.9785" lon="4.7118">
        <ele>209</ele>
        <time>2017-03-25T10:51:43Z</time>
      </trkpt>
      <trkpt lat="45.9785" lon="4.7119">
        <ele>209</ele>
        <time>2017-03-25T10:51:44Z</time>
      </trkpt>
      <trkpt lat="45.9785" lon="4.712">
        <ele>209</ele>
        <time>2017-03-25T10:51:45Z</time>
      </trkpt>
      <trkpt lat="45.9785" lon="4.7121">
        <ele>209</ele>
        <time>2017-03-25T10:51:46Z</time>
      </trkpt>
      <trkpt lat="45.9785" lon="4.71221">
        <ele>208</ele>
        <time>2017-03-25T10:51:47Z</time>
      </trkpt>
      <trkpt lat="45.9785" lon="4.71232">
        <ele>208</ele>
        <time>2017-03-25T10:51:48Z</time>
      </trkpt>
      <trkpt lat="45.9785" lon="4.71243">
        <ele>208</ele>
        <time>2017-03-25T10:51:49Z</time>
      </trkpt>
      <trkpt lat="45.97849" lon="4.71254">
        <ele>207</ele>
        <time>2017-03-25T10:51:50Z</time>
      </trkpt>
      <trkpt lat="45.97849" lon="4.71266">
        <ele>206</ele>
        <time>2017-03-25T10:51:51Z</time>
      </trkpt>
      <trkpt lat="45.97849" lon="4.71278">
        <ele>206</ele>
        <time>2017-03-25T10:51:52Z</time>
      </trkpt>
      <trkpt lat="45.97849" lon="4.7129">
        <ele>206</ele>
        <time>2017-03-25T10:51:53Z</time>
      </trkpt>
      <trkpt lat="45.97849" lon="4.71301">
        <ele>206</ele>
        <time>2017-03-25T10:51:54Z</time>
      </trkpt>
      <trkpt lat="45.97848" lon="4.71312">
        <ele>205</ele>
        <time>2017-03-25T10:51:55Z</time>
      </trkpt>
      <trkpt lat="45.97848" lon="4.71323">
        <ele>205</ele>
        <time>2017-03-25T10:51:56Z</time>
      </trkpt>
      <trkpt lat="45.97847" lon="4.71333">
        <ele>205</ele>
        <time>2017-03-25T10:51:57Z</time>
      </trkpt>
      <trkpt lat="45.97848" lon="4.71341">
        <ele>204</ele>
        <time>2017-03-25T10:51:58Z</time>
      </trkpt>
      <trkpt lat="45.97848" lon="4.71349">
        <ele>204</ele>
        <time>2017-03-25T10:51:59Z</time>
      </trkpt>
      <trkpt lat="45.97848" lon="4.71356">
        <ele>204</ele>
        <time>2017-03-25T10:52:00Z</time>
      </trkpt>
      <trkpt lat="45.97848" lon="4.71363">
        <ele>204</ele>
        <time>2017-03-25T10:52:01Z</time>
      </trkpt>
      <trkpt lat="45.97847" lon="4.71371">
        <ele>203</ele>
        <time>2017-03-25T10:52:02Z</time>
      </trkpt>
      <trkpt lat="45.97847" lon="4.71378">
        <ele>203</ele>
        <time>2017-03-25T10:52:03Z</time>
      </trkpt>
      <trkpt lat="45.97847" lon="4.71386">
        <ele>203</ele>
        <time>2017-03-25T10:52:04Z</time>
      </trkpt>
      <trkpt lat="45.97848" lon="4.71394">
        <ele>203</ele>
        <time>2017-03-25T10:52:05Z</time>
      </trkpt>
      <trkpt lat="45.97848" lon="4.71402">
        <ele>203</ele>
        <time>2017-03-25T10:52:06Z</time>
      </trkpt>
      <trkpt lat="45.9785" lon="4.7141">
        <ele>203</ele>
        <time>2017-03-25T10:52:07Z</time>
      </trkpt>
      <trkpt lat="45.97851" lon="4.71418">
        <ele>202</ele>
        <time>2017-03-25T10:52:08Z</time>
      </trkpt>
      <trkpt lat="45.97852" lon="4.71427">
        <ele>202</ele>
        <time>2017-03-25T10:52:09Z</time>
      </trkpt>
      <trkpt lat="45.97854" lon="4.71435">
        <ele>201</ele>
        <time>2017-03-25T10:52:10Z</time>
      </trkpt>
      <trkpt lat="45.97855" lon="4.71444">
        <ele>201</ele>
        <time>2017-03-25T10:52:11Z</time>
      </trkpt>
      <trkpt lat="45.97856" lon="4.71453">
        <ele>201</ele>
        <time>2017-03-25T10:52:12Z</time>
      </trkpt>
      <trkpt lat="45.97858" lon="4.71461">
        <ele>201</ele>
        <time>2017-03-25T10:52:13Z</time>
      </trkpt>
      <trkpt lat="45.97859" lon="4.71468">
        <ele>201</ele>
        <time>2017-03-25T10:52:14Z</time>
      </trkpt>
      <trkpt lat="45.97862" lon="4.71476">
        <ele>201</ele>
        <time>2017-03-25T10:52:16Z</time>
      </trkpt>
      <trkpt lat="45.97863" lon="4.71481">
        <ele>201</ele>
        <time>2017-03-25T10:52:17Z</time>
      </trkpt>
      <trkpt lat="45.97865" lon="4.71493">
        <ele>201</ele>
        <time>2017-03-25T10:52:20Z</time>
      </trkpt>
      <trkpt lat="45.97865" lon="4.71496">
        <ele>201</ele>
        <time>2017-03-25T10:52:21Z</time>
      </trkpt>
      <trkpt lat="45.97865" lon="4.71504">
        <ele>200</ele>
        <time>2017-03-25T10:52:23Z</time>
      </trkpt>
      <trkpt lat="45.97865" lon="4.7151">
        <ele>200</ele>
        <time>2017-03-25T10:52:24Z</time>
      </trkpt>
      <trkpt lat="45.97866" lon="4.71517">
        <ele>199</ele>
        <time>2017-03-25T10:52:25Z</time>
      </trkpt>
      <trkpt lat="45.97867" lon="4.71524">
        <ele>199</ele>
        <time>2017-03-25T10:52:26Z</time>
      </trkpt>
      <trkpt lat="45.97869" lon="4.71532">
        <ele>199</ele>
        <time>2017-03-25T10:52:27Z</time>
      </trkpt>
      <trkpt lat="45.9787" lon="4.7154">
        <ele>199</ele>
        <time>2017-03-25T10:52:28Z</time>
      </trkpt>
      <trkpt lat="45.97871" lon="4.71549">
        <ele>199</ele>
        <time>2017-03-25T10:52:29Z</time>
      </trkpt>
      <trkpt lat="45.97872" lon="4.71558">
        <ele>199</ele>
        <time>2017-03-25T10:52:30Z</time>
      </trkpt>
      <trkpt lat="45.97874" lon="4.71567">
        <ele>198</ele>
        <time>2017-03-25T10:52:31Z</time>
      </trkpt>
      <trkpt lat="45.97875" lon="4.71576">
        <ele>198</ele>
        <time>2017-03-25T10:52:32Z</time>
      </trkpt>
      <trkpt lat="45.97876" lon="4.71585">
        <ele>197</ele>
        <time>2017-03-25T10:52:33Z</time>
      </trkpt>
      <trkpt lat="45.97876" lon="4.71593">
        <ele>197</ele>
        <time>2017-03-25T10:52:34Z</time>
      </trkpt>
      <trkpt lat="45.97876" lon="4.71602">
        <ele>197</ele>
        <time>2017-03-25T10:52:35Z</time>
      </trkpt>
      <trkpt lat="45.97876" lon="4.71611">
        <ele>197</ele>
        <time>2017-03-25T10:52:36Z</time>
      </trkpt>
      <trkpt lat="45.97877" lon="4.7162">
        <ele>197</ele>
        <time>2017-03-25T10:52:37Z</time>
      </trkpt>
      <trkpt lat="45.97877" lon="4.71629">
        <ele>197</ele>
        <time>2017-03-25T10:52:38Z</time>
      </trkpt>
      <trkpt lat="45.97877" lon="4.71639">
        <ele>197</ele>
        <time>2017-03-25T10:52:39Z</time>
      </trkpt>
      <trkpt lat="45.97877" lon="4.71648">
        <ele>197</ele>
        <time>2017-03-25T10:52:40Z</time>
      </trkpt>
      <trkpt lat="45.97876" lon="4.71657">
        <ele>197</ele>
        <time>2017-03-25T10:52:41Z</time>
      </trkpt>
      <trkpt lat="45.97873" lon="4.71666">
        <ele>197</ele>
        <time>2017-03-25T10:52:42Z</time>
      </trkpt>
      <trkpt lat="45.97871" lon="4.71675">
        <ele>196</ele>
        <time>2017-03-25T10:52:43Z</time>
      </trkpt>
      <trkpt lat="45.97868" lon="4.71685">
        <ele>196</ele>
        <time>2017-03-25T10:52:44Z</time>
      </trkpt>
      <trkpt lat="45.97866" lon="4.71694">
        <ele>196</ele>
        <time>2017-03-25T10:52:45Z</time>
      </trkpt>
      <trkpt lat="45.97865" lon="4.71703">
        <ele>196</ele>
        <time>2017-03-25T10:52:46Z</time>
      </trkpt>
      <trkpt lat="45.97863" lon="4.71711">
        <ele>196</ele>
        <time>2017-03-25T10:52:47Z</time>
      </trkpt>
      <trkpt lat="45.9786" lon="4.71718">
        <ele>196</ele>
        <time>2017-03-25T10:52:48Z</time>
      </trkpt>
      <trkpt lat="45.97856" lon="4.71724">
        <ele>196</ele>
        <time>2017-03-25T10:52:49Z</time>
      </trkpt>
      <trkpt lat="45.97852" lon="4.71731">
        <ele>196</ele>
        <time>2017-03-25T10:52:50Z</time>
      </trkpt>
      <trkpt lat="45.97848" lon="4.71736">
        <ele>196</ele>
        <time>2017-03-25T10:52:51Z</time>
      </trkpt>
      <trkpt lat="45.97843" lon="4.71742">
        <ele>195</ele>
        <time>2017-03-25T10:52:52Z</time>
      </trkpt>
      <trkpt lat="45.97838" lon="4.71745">
        <ele>195</ele>
        <time>2017-03-25T10:52:53Z</time>
      </trkpt>
      <trkpt lat="45.97833" lon="4.71747">
        <ele>195</ele>
        <time>2017-03-25T10:52:54Z</time>
      </trkpt>
      <trkpt lat="45.97827" lon="4.71746">
        <ele>195</ele>
        <time>2017-03-25T10:52:55Z</time>
      </trkpt>
      <trkpt lat="45.97822" lon="4.71746">
        <ele>196</ele>
        <time>2017-03-25T10:52:56Z</time>
      </trkpt>
      <trkpt lat="45.97817" lon="4.71745">
        <ele>196</ele>
        <time>2017-03-25T10:52:57Z</time>
      </trkpt>
      <trkpt lat="45.97811" lon="4.71743">
        <ele>196</ele>
        <time>2017-03-25T10:52:58Z</time>
      </trkpt>
      <trkpt lat="45.97806" lon="4.71742">
        <ele>196</ele>
        <time>2017-03-25T10:52:59Z</time>
      </trkpt>
      <trkpt lat="45.978" lon="4.71741">
        <ele>196</ele>
        <time>2017-03-25T10:53:00Z</time>
      </trkpt>
      <trkpt lat="45.97795" lon="4.71741">
        <ele>196</ele>
        <time>2017-03-25T10:53:01Z</time>
      </trkpt>
      <trkpt lat="45.9779" lon="4.7174">
        <ele>196</ele>
        <time>2017-03-25T10:53:02Z</time>
      </trkpt>
      <trkpt lat="45.97785" lon="4.7174">
        <ele>196</ele>
        <time>2017-03-25T10:53:03Z</time>
      </trkpt>
      <trkpt lat="45.97779" lon="4.7174">
        <ele>196</ele>
        <time>2017-03-25T10:53:04Z</time>
      </trkpt>
      <trkpt lat="45.97774" lon="4.71739">
        <ele>196</ele>
        <time>2017-03-25T10:53:05Z</time>
      </trkpt>
      <trkpt lat="45.97769" lon="4.71738">
        <ele>196</ele>
        <time>2017-03-25T10:53:06Z</time>
      </trkpt>
      <trkpt lat="45.97763" lon="4.71737">
        <ele>196</ele>
        <time>2017-03-25T10:53:07Z</time>
      </trkpt>
      <trkpt lat="45.97757" lon="4.71736">
        <ele>196</ele>
        <time>2017-03-25T10:53:08Z</time>
      </trkpt>
      <trkpt lat="45.9775" lon="4.71735">
        <ele>196</ele>
        <time>2017-03-25T10:53:09Z</time>
      </trkpt>
      <trkpt lat="45.97744" lon="4.71735">
        <ele>196</ele>
        <time>2017-03-25T10:53:10Z</time>
      </trkpt>
      <trkpt lat="45.97738" lon="4.71734">
        <ele>196</ele>
        <time>2017-03-25T10:53:11Z</time>
      </trkpt>
      <trkpt lat="45.97732" lon="4.71734">
        <ele>196</ele>
        <time>2017-03-25T10:53:12Z</time>
      </trkpt>
      <trkpt lat="45.97727" lon="4.71733">
        <ele>196</ele>
        <time>2017-03-25T10:53:13Z</time>
      </trkpt>
      <trkpt lat="45.97721" lon="4.71733">
        <ele>196</ele>
        <time>2017-03-25T10:53:14Z</time>
      </trkpt>
      <trkpt lat="45.97715" lon="4.71733">
        <ele>196</ele>
        <time>2017-03-25T10:53:15Z</time>
      </trkpt>
      <trkpt lat="45.9771" lon="4.71732">
        <ele>196</ele>
        <time>2017-03-25T10:53:16Z</time>
      </trkpt>
      <trkpt lat="45.97704" lon="4.71732">
        <ele>196</ele>
        <time>2017-03-25T10:53:17Z</time>
      </trkpt>
      <trkpt lat="45.97699" lon="4.71731">
        <ele>196</ele>
        <time>2017-03-25T10:53:18Z</time>
      </trkpt>
      <trkpt lat="45.97694" lon="4.7173">
        <ele>196</ele>
        <time>2017-03-25T10:53:19Z</time>
      </trkpt>
      <trkpt lat="45.97689" lon="4.7173">
        <ele>196</ele>
        <time>2017-03-25T10:53:20Z</time>
      </trkpt>
      <trkpt lat="45.97684" lon="4.71729">
        <ele>196</ele>
        <time>2017-03-25T10:53:21Z</time>
      </trkpt>
      <trkpt lat="45.97678" lon="4.71728">
        <ele>196</ele>
        <time>2017-03-25T10:53:22Z</time>
      </trkpt>
      <trkpt lat="45.97672" lon="4.71728">
        <ele>196</ele>
        <time>2017-03-25T10:53:23Z</time>
      </trkpt>
      <trkpt lat="45.97666" lon="4.71728">
        <ele>196</ele>
        <time>2017-03-25T10:53:24Z</time>
      </trkpt>
      <trkpt lat="45.9766" lon="4.71727">
        <ele>196</ele>
        <time>2017-03-25T10:53:25Z</time>
      </trkpt>
      <trkpt lat="45.97654" lon="4.71726">
        <ele>196</ele>
        <time>2017-03-25T10:53:26Z</time>
      </trkpt>
      <trkpt lat="45.97648" lon="4.71726">
        <ele>196</ele>
        <time>2017-03-25T10:53:27Z</time>
      </trkpt>
      <trkpt lat="45.97643" lon="4.71726">
        <ele>196</ele>
        <time>2017-03-25T10:53:28Z</time>
      </trkpt>
      <trkpt lat="45.97638" lon="4.71726">
        <ele>196</ele>
        <time>2017-03-25T10:53:29Z</time>
      </trkpt>
      <trkpt lat="45.97634" lon="4.71723">
        <ele>196</ele>
        <time>2017-03-25T10:53:30Z</time>
      </trkpt>
      <trkpt lat="45.9763" lon="4.71719">
        <ele>197</ele>
        <time>2017-03-25T10:53:31Z</time>
      </trkpt>
      <trkpt lat="45.97627" lon="4.71714">
        <ele>197</ele>
        <time>2017-03-25T10:53:32Z</time>
      </trkpt>
      <trkpt lat="45.97622" lon="4.7171">
        <ele>197</ele>
        <time>2017-03-25T10:53:33Z</time>
      </trkpt>
      <trkpt lat="45.97617" lon="4.71708">
        <ele>197</ele>
        <time>2017-03-25T10:53:34Z</time>
      </trkpt>
      <trkpt lat="45.97612" lon="4.71708">
        <ele>197</ele>
        <time>2017-03-25T10:53:35Z</time>
      </trkpt>
      <trkpt lat="45.97606" lon="4.71711">
        <ele>197</ele>
        <time>2017-03-25T10:53:36Z</time>
      </trkpt>
      <trkpt lat="45.976" lon="4.71714">
        <ele>197</ele>
        <time>2017-03-25T10:53:37Z</time>
      </trkpt>
      <trkpt lat="45.97595" lon="4.71717">
        <ele>197</ele>
        <time>2017-03-25T10:53:38Z</time>
      </trkpt>
      <trkpt lat="45.97589" lon="4.71719">
        <ele>197</ele>
        <time>2017-03-25T10:53:39Z</time>
      </trkpt>
      <trkpt lat="45.97583" lon="4.71721">
        <ele>197</ele>
        <time>2017-03-25T10:53:40Z</time>
      </trkpt>
      <trkpt lat="45.97577" lon="4.71721">
        <ele>198</ele>
        <time>2017-03-25T10:53:41Z</time>
      </trkpt>
      <trkpt lat="45.97572" lon="4.7172">
        <ele>198</ele>
        <time>2017-03-25T10:53:42Z</time>
      </trkpt>
      <trkpt lat="45.97566" lon="4.71719">
        <ele>198</ele>
        <time>2017-03-25T10:53:43Z</time>
      </trkpt>
      <trkpt lat="45.97561" lon="4.71719">
        <ele>198</ele>
        <time>2017-03-25T10:53:44Z</time>
      </trkpt>
      <trkpt lat="45.97556" lon="4.71719">
        <ele>198</ele>
        <time>2017-03-25T10:53:45Z</time>
      </trkpt>
      <trkpt lat="45.97551" lon="4.71718">
        <ele>198</ele>
        <time>2017-03-25T10:53:46Z</time>
      </trkpt>
      <trkpt lat="45.97546" lon="4.71717">
        <ele>198</ele>
        <time>2017-03-25T10:53:47Z</time>
      </trkpt>
      <trkpt lat="45.97541" lon="4.71717">
        <ele>198</ele>
        <time>2017-03-25T10:53:48Z</time>
      </trkpt>
      <trkpt lat="45.97535" lon="4.71717">
        <ele>198</ele>
        <time>2017-03-25T10:53:49Z</time>
      </trkpt>
      <trkpt lat="45.9753" lon="4.71716">
        <ele>198</ele>
        <time>2017-03-25T10:53:50Z</time>
      </trkpt>
      <trkpt lat="45.97524" lon="4.71715">
        <ele>198</ele>
        <time>2017-03-25T10:53:51Z</time>
      </trkpt>
      <trkpt lat="45.97519" lon="4.71715">
        <ele>198</ele>
        <time>2017-03-25T10:53:52Z</time>
      </trkpt>
      <trkpt lat="45.97513" lon="4.71714">
        <ele>198</ele>
        <time>2017-03-25T10:53:53Z</time>
      </trkpt>
      <trkpt lat="45.97507" lon="4.71715">
        <ele>198</ele>
        <time>2017-03-25T10:53:54Z</time>
      </trkpt>
      <trkpt lat="45.97501" lon="4.71716">
        <ele>198</ele>
        <time>2017-03-25T10:53:55Z</time>
      </trkpt>
      <trkpt lat="45.97495" lon="4.71716">
        <ele>198</ele>
        <time>2017-03-25T10:53:56Z</time>
      </trkpt>
      <trkpt lat="45.97489" lon="4.71716">
        <ele>198</ele>
        <time>2017-03-25T10:53:57Z</time>
      </trkpt>
      <trkpt lat="45.97483" lon="4.71716">
        <ele>197</ele>
        <time>2017-03-25T10:53:58Z</time>
      </trkpt>
      <trkpt lat="45.97477" lon="4.71716">
        <ele>197</ele>
        <time>2017-03-25T10:53:59Z</time>
      </trkpt>
      <trkpt lat="45.97471" lon="4.71716">
        <ele>197</ele>
        <time>2017-03-25T10:54:00Z</time>
      </trkpt>
      <trkpt lat="45.97466" lon="4.71715">
        <ele>197</ele>
        <time>2017-03-25T10:54:01Z</time>
      </trkpt>
      <trkpt lat="45.97461" lon="4.71715">
        <ele>197</ele>
        <time>2017-03-25T10:54:02Z</time>
      </trkpt>
      <trkpt lat="45.97456" lon="4.71714">
        <ele>197</ele>
        <time>2017-03-25T10:54:03Z</time>
      </trkpt>
      <trkpt lat="45.97451" lon="4.71713">
        <ele>197</ele>
        <time>2017-03-25T10:54:04Z</time>
      </trkpt>
      <trkpt lat="45.97446" lon="4.71713">
        <ele>197</ele>
        <time>2017-03-25T10:54:05Z</time>
      </trkpt>
      <trkpt lat="45.97442" lon="4.71712">
        <ele>197</ele>
        <time>2017-03-25T10:54:06Z</time>
      </trkpt>
      <trkpt lat="45.97436" lon="4.71712">
        <ele>197</ele>
        <time>2017-03-25T10:54:07Z</time>
      </trkpt>
      <trkpt lat="45.97431" lon="4.71711">
        <ele>196</ele>
        <time>2017-03-25T10:54:08Z</time>
      </trkpt>
      <trkpt lat="45.97426" lon="4.7171">
        <ele>196</ele>
        <time>2017-03-25T10:54:09Z</time>
      </trkpt>
      <trkpt lat="45.97421" lon="4.71709">
        <ele>196</ele>
        <time>2017-03-25T10:54:10Z</time>
      </trkpt>
      <trkpt lat="45.97415" lon="4.71709">
        <ele>195</ele>
        <time>2017-03-25T10:54:11Z</time>
      </trkpt>
      <trkpt lat="45.9741" lon="4.71708">
        <ele>195</ele>
        <time>2017-03-25T10:54:12Z</time>
      </trkpt>
      <trkpt lat="45.97404" lon="4.71708">
        <ele>195</ele>
        <time>2017-03-25T10:54:13Z</time>
      </trkpt>
      <trkpt lat="45.97399" lon="4.71708">
        <ele>195</ele>
        <time>2017-03-25T10:54:14Z</time>
      </trkpt>
      <trkpt lat="45.97393" lon="4.71707">
        <ele>195</ele>
        <time>2017-03-25T10:54:15Z</time>
      </trkpt>
      <trkpt lat="45.97388" lon="4.71707">
        <ele>195</ele>
        <time>2017-03-25T10:54:16Z</time>
      </trkpt>
      <trkpt lat="45.97383" lon="4.71707">
        <ele>195</ele>
        <time>2017-03-25T10:54:17Z</time>
      </trkpt>
      <trkpt lat="45.97378" lon="4.71707">
        <ele>195</ele>
        <time>2017-03-25T10:54:18Z</time>
      </trkpt>
      <trkpt lat="45.97373" lon="4.71706">
        <ele>195</ele>
        <time>2017-03-25T10:54:19Z</time>
      </trkpt>
      <trkpt lat="45.97367" lon="4.71706">
        <ele>195</ele>
        <time>2017-03-25T10:54:20Z</time>
      </trkpt>
      <trkpt lat="45.97362" lon="4.71705">
        <ele>195</ele>
        <time>2017-03-25T10:54:21Z</time>
      </trkpt>
      <trkpt lat="45.97356" lon="4.71705">
        <ele>195</ele>
        <time>2017-03-25T10:54:22Z</time>
      </trkpt>
      <trkpt lat="45.97351" lon="4.71705">
        <ele>195</ele>
        <time>2017-03-25T10:54:23Z</time>
      </trkpt>
      <trkpt lat="45.97345" lon="4.71705">
        <ele>195</ele>
        <time>2017-03-25T10:54:24Z</time>
      </trkpt>
      <trkpt lat="45.9734" lon="4.71705">
        <ele>195</ele>
        <time>2017-03-25T10:54:25Z</time>
      </trkpt>
      <trkpt lat="45.97334" lon="4.71704">
        <ele>195</ele>
        <time>2017-03-25T10:54:26Z</time>
      </trkpt>
      <trkpt lat="45.97329" lon="4.71704">
        <ele>196</ele>
        <time>2017-03-25T10:54:27Z</time>
      </trkpt>
      <trkpt lat="45.97324" lon="4.71703">
        <ele>196</ele>
        <time>2017-03-25T10:54:28Z</time>
      </trkpt>
      <trkpt lat="45.97317" lon="4.71699">
        <ele>196</ele>
        <time>2017-03-25T10:54:30Z</time>
      </trkpt>
      <trkpt lat="45.97313" lon="4.71695">
        <ele>196</ele>
        <time>2017-03-25T10:54:31Z</time>
      </trkpt>
      <trkpt lat="45.97309" lon="4.71692">
        <ele>196</ele>
        <time>2017-03-25T10:54:32Z</time>
      </trkpt>
      <trkpt lat="45.97304" lon="4.71691">
        <ele>196</ele>
        <time>2017-03-25T10:54:33Z</time>
      </trkpt>
      <trkpt lat="45.97298" lon="4.71692">
        <ele>197</ele>
        <time>2017-03-25T10:54:34Z</time>
      </trkpt>
      <trkpt lat="45.97292" lon="4.71694">
        <ele>197</ele>
        <time>2017-03-25T10:54:35Z</time>
      </trkpt>
      <trkpt lat="45.97286" lon="4.71697">
        <ele>197</ele>
        <time>2017-03-25T10:54:36Z</time>
      </trkpt>
      <trkpt lat="45.9728" lon="4.71699">
        <ele>197</ele>
        <time>2017-03-25T10:54:37Z</time>
      </trkpt>
      <trkpt lat="45.97275" lon="4.717">
        <ele>197</ele>
        <time>2017-03-25T10:54:38Z</time>
      </trkpt>
      <trkpt lat="45.97269" lon="4.71699">
        <ele>197</ele>
        <time>2017-03-25T10:54:39Z</time>
      </trkpt>
      <trkpt lat="45.97263" lon="4.71699">
        <ele>197</ele>
        <time>2017-03-25T10:54:40Z</time>
      </trkpt>
      <trkpt lat="45.97258" lon="4.71697">
        <ele>197</ele>
        <time>2017-03-25T10:54:41Z</time>
      </trkpt>
      <trkpt lat="45.97253" lon="4.71696">
        <ele>197</ele>
        <time>2017-03-25T10:54:42Z</time>
      </trkpt>
      <trkpt lat="45.97248" lon="4.71694">
        <ele>197</ele>
        <time>2017-03-25T10:54:43Z</time>
      </trkpt>
      <trkpt lat="45.97243" lon="4.71694">
        <ele>197</ele>
        <time>2017-03-25T10:54:44Z</time>
      </trkpt>
      <trkpt lat="45.97237" lon="4.71693">
        <ele>197</ele>
        <time>2017-03-25T10:54:45Z</time>
      </trkpt>
      <trkpt lat="45.97232" lon="4.71692">
        <ele>197</ele>
        <time>2017-03-25T10:54:46Z</time>
      </trkpt>
      <trkpt lat="45.97226" lon="4.71692">
        <ele>197</ele>
        <time>2017-03-25T10:54:47Z</time>
      </trkpt>
      <trkpt lat="45.97221" lon="4.71692">
        <ele>197</ele>
        <time>2017-03-25T10:54:48Z</time>
      </trkpt>
      <trkpt lat="45.97216" lon="4.71691">
        <ele>197</ele>
        <time>2017-03-25T10:54:49Z</time>
      </trkpt>
      <trkpt lat="45.97211" lon="4.71691">
        <ele>197</ele>
        <time>2017-03-25T10:54:50Z</time>
      </trkpt>
      <trkpt lat="45.97206" lon="4.7169">
        <ele>197</ele>
        <time>2017-03-25T10:54:51Z</time>
      </trkpt>
      <trkpt lat="45.97199" lon="4.71689">
        <ele>197</ele>
        <time>2017-03-25T10:54:52Z</time>
      </trkpt>
      <trkpt lat="45.97193" lon="4.71688">
        <ele>197</ele>
        <time>2017-03-25T10:54:53Z</time>
      </trkpt>
      <trkpt lat="45.97187" lon="4.71687">
        <ele>197</ele>
        <time>2017-03-25T10:54:54Z</time>
      </trkpt>
      <trkpt lat="45.97181" lon="4.71687">
        <ele>197</ele>
        <time>2017-03-25T10:54:55Z</time>
      </trkpt>
      <trkpt lat="45.97175" lon="4.71687">
        <ele>197</ele>
        <time>2017-03-25T10:54:56Z</time>
      </trkpt>
      <trkpt lat="45.97169" lon="4.71686">
        <ele>197</ele>
        <time>2017-03-25T10:54:57Z</time>
      </trkpt>
      <trkpt lat="45.97163" lon="4.71686">
        <ele>196</ele>
        <time>2017-03-25T10:54:58Z</time>
      </trkpt>
      <trkpt lat="45.97157" lon="4.71685">
        <ele>196</ele>
        <time>2017-03-25T10:54:59Z</time>
      </trkpt>
      <trkpt lat="45.97151" lon="4.71684">
        <ele>196</ele>
        <time>2017-03-25T10:55:00Z</time>
      </trkpt>
      <trkpt lat="45.97145" lon="4.71684">
        <ele>195</ele>
        <time>2017-03-25T10:55:01Z</time>
      </trkpt>
      <trkpt lat="45.97139" lon="4.71683">
        <ele>195</ele>
        <time>2017-03-25T10:55:02Z</time>
      </trkpt>
      <trkpt lat="45.97132" lon="4.71683">
        <ele>195</ele>
        <time>2017-03-25T10:55:03Z</time>
      </trkpt>
      <trkpt lat="45.97127" lon="4.71682">
        <ele>195</ele>
        <time>2017-03-25T10:55:04Z</time>
      </trkpt>
      <trkpt lat="45.97122" lon="4.71682">
        <ele>195</ele>
        <time>2017-03-25T10:55:05Z</time>
      </trkpt>
      <trkpt lat="45.97116" lon="4.71682">
        <ele>195</ele>
        <time>2017-03-25T10:55:06Z</time>
      </trkpt>
      <trkpt lat="45.97111" lon="4.71682">
        <ele>194</ele>
        <time>2017-03-25T10:55:07Z</time>
      </trkpt>
      <trkpt lat="45.97105" lon="4.71681">
        <ele>194</ele>
        <time>2017-03-25T10:55:08Z</time>
      </trkpt>
      <trkpt lat="45.97099" lon="4.71681">
        <ele>194</ele>
        <time>2017-03-25T10:55:09Z</time>
      </trkpt>
      <trkpt lat="45.97093" lon="4.71681">
        <ele>194</ele>
        <time>2017-03-25T10:55:10Z</time>
      </trkpt>
      <trkpt lat="45.97087" lon="4.7168">
        <ele>195</ele>
        <time>2017-03-25T10:55:11Z</time>
      </trkpt>
      <trkpt lat="45.9708" lon="4.71679">
        <ele>194</ele>
        <time>2017-03-25T10:55:12Z</time>
      </trkpt>
      <trkpt lat="45.97074" lon="4.71677">
        <ele>194</ele>
        <time>2017-03-25T10:55:13Z</time>
      </trkpt>
      <trkpt lat="45.97067" lon="4.71676">
        <ele>193</ele>
        <time>2017-03-25T10:55:14Z</time>
      </trkpt>
      <trkpt lat="45.97061" lon="4.71675">
        <ele>193</ele>
        <time>2017-03-25T10:55:15Z</time>
      </trkpt>
      <trkpt lat="45.97054" lon="4.71674">
        <ele>193</ele>
        <time>2017-03-25T10:55:16Z</time>
      </trkpt>
      <trkpt lat="45.97046" lon="4.71673">
        <ele>193</ele>
        <time>2017-03-25T10:55:17Z</time>
      </trkpt>
      <trkpt lat="45.97039" lon="4.71672">
        <ele>193</ele>
        <time>2017-03-25T10:55:18Z</time>
      </trkpt>
      <trkpt lat="45.97032" lon="4.71672">
        <ele>193</ele>
        <time>2017-03-25T10:55:19Z</time>
      </trkpt>
      <trkpt lat="45.97025" lon="4.71671">
        <ele>193</ele>
        <time>2017-03-25T10:55:20Z</time>
      </trkpt>
      <trkpt lat="45.97019" lon="4.71671">
        <ele>193</ele>
        <time>2017-03-25T10:55:21Z</time>
      </trkpt>
      <trkpt lat="45.97012" lon="4.71671">
        <ele>193</ele>
        <time>2017-03-25T10:55:22Z</time>
      </trkpt>
      <trkpt lat="45.97006" lon="4.71671">
        <ele>194</ele>
        <time>2017-03-25T10:55:23Z</time>
      </trkpt>
      <trkpt lat="45.96999" lon="4.71671">
        <ele>193</ele>
        <time>2017-03-25T10:55:24Z</time>
      </trkpt>
      <trkpt lat="45.96993" lon="4.71671">
        <ele>193</ele>
        <time>2017-03-25T10:55:25Z</time>
      </trkpt>
      <trkpt lat="45.96986" lon="4.71671">
        <ele>193</ele>
        <time>2017-03-25T10:55:26Z</time>
      </trkpt>
      <trkpt lat="45.96979" lon="4.71671">
        <ele>192</ele>
        <time>2017-03-25T10:55:27Z</time>
      </trkpt>
      <trkpt lat="45.96972" lon="4.71671">
        <ele>192</ele>
        <time>2017-03-25T10:55:28Z</time>
      </trkpt>
      <trkpt lat="45.96966" lon="4.71671">
        <ele>192</ele>
        <time>2017-03-25T10:55:29Z</time>
      </trkpt>
      <trkpt lat="45.9696" lon="4.7167">
        <ele>192</ele>
        <time>2017-03-25T10:55:30Z</time>
      </trkpt>
      <trkpt lat="45.96953" lon="4.7167">
        <ele>192</ele>
        <time>2017-03-25T10:55:31Z</time>
      </trkpt>
      <trkpt lat="45.96946" lon="4.71669">
        <ele>192</ele>
        <time>2017-03-25T10:55:32Z</time>
      </trkpt>
      <trkpt lat="45.9694" lon="4.71668">
        <ele>192</ele>
        <time>2017-03-25T10:55:33Z</time>
      </trkpt>
      <trkpt lat="45.96932" lon="4.71668">
        <ele>193</ele>
        <time>2017-03-25T10:55:34Z</time>
      </trkpt>
      <trkpt lat="45.96926" lon="4.71667">
        <ele>194</ele>
        <time>2017-03-25T10:55:35Z</time>
      </trkpt>
      <trkpt lat="45.96919" lon="4.71667">
        <ele>195</ele>
        <time>2017-03-25T10:55:36Z</time>
      </trkpt>
      <trkpt lat="45.96912" lon="4.71666">
        <ele>195</ele>
        <time>2017-03-25T10:55:37Z</time>
      </trkpt>
      <trkpt lat="45.96906" lon="4.71666">
        <ele>195</ele>
        <time>2017-03-25T10:55:38Z</time>
      </trkpt>
      <trkpt lat="45.969" lon="4.71665">
        <ele>195</ele>
        <time>2017-03-25T10:55:39Z</time>
      </trkpt>
      <trkpt lat="45.96893" lon="4.71664">
        <ele>195</ele>
        <time>2017-03-25T10:55:40Z</time>
      </trkpt>
      <trkpt lat="45.96887" lon="4.71664">
        <ele>195</ele>
        <time>2017-03-25T10:55:41Z</time>
      </trkpt>
      <trkpt lat="45.96881" lon="4.71663">
        <ele>195</ele>
        <time>2017-03-25T10:55:42Z</time>
      </trkpt>
      <trkpt lat="45.96875" lon="4.71663">
        <ele>195</ele>
        <time>2017-03-25T10:55:43Z</time>
      </trkpt>
      <trkpt lat="45.96869" lon="4.71662">
        <ele>195</ele>
        <time>2017-03-25T10:55:44Z</time>
      </trkpt>
      <trkpt lat="45.96862" lon="4.71661">
        <ele>195</ele>
        <time>2017-03-25T10:55:45Z</time>
      </trkpt>
      <trkpt lat="45.96856" lon="4.7166">
        <ele>194</ele>
        <time>2017-03-25T10:55:46Z</time>
      </trkpt>
      <trkpt lat="45.9685" lon="4.71659">
        <ele>194</ele>
        <time>2017-03-25T10:55:47Z</time>
      </trkpt>
      <trkpt lat="45.96843" lon="4.71658">
        <ele>194</ele>
        <time>2017-03-25T10:55:48Z</time>
      </trkpt>
      <trkpt lat="45.96837" lon="4.71657">
        <ele>193</ele>
        <time>2017-03-25T10:55:49Z</time>
      </trkpt>
      <trkpt lat="45.9683" lon="4.71656">
        <ele>193</ele>
        <time>2017-03-25T10:55:50Z</time>
      </trkpt>
      <trkpt lat="45.96823" lon="4.71655">
        <ele>193</ele>
        <time>2017-03-25T10:55:51Z</time>
      </trkpt>
      <trkpt lat="45.96816" lon="4.71654">
        <ele>193</ele>
        <time>2017-03-25T10:55:52Z</time>
      </trkpt>
      <trkpt lat="45.96809" lon="4.71653">
        <ele>193</ele>
        <time>2017-03-25T10:55:53Z</time>
      </trkpt>
      <trkpt lat="45.96802" lon="4.71652">
        <ele>193</ele>
        <time>2017-03-25T10:55:54Z</time>
      </trkpt>
      <trkpt lat="45.96795" lon="4.71651">
        <ele>193</ele>
        <time>2017-03-25T10:55:55Z</time>
      </trkpt>
      <trkpt lat="45.96788" lon="4.7165">
        <ele>192</ele>
        <time>2017-03-25T10:55:56Z</time>
      </trkpt>
      <trkpt lat="45.96781" lon="4.71648">
        <ele>192</ele>
        <time>2017-03-25T10:55:57Z</time>
      </trkpt>
      <trkpt lat="45.96774" lon="4.71648">
        <ele>192</ele>
        <time>2017-03-25T10:55:58Z</time>
      </trkpt>
      <trkpt lat="45.96767" lon="4.71647">
        <ele>192</ele>
        <time>2017-03-25T10:55:59Z</time>
      </trkpt>
      <trkpt lat="45.96759" lon="4.71646">
        <ele>192</ele>
        <time>2017-03-25T10:56:00Z</time>
      </trkpt>
      <trkpt lat="45.96752" lon="4.71645">
        <ele>191</ele>
        <time>2017-03-25T10:56:01Z</time>
      </trkpt>
      <trkpt lat="45.96745" lon="4.71644">
        <ele>190</ele>
        <time>2017-03-25T10:56:02Z</time>
      </trkpt>
      <trkpt lat="45.96738" lon="4.71643">
        <ele>190</ele>
        <time>2017-03-25T10:56:03Z</time>
      </trkpt>
      <trkpt lat="45.96731" lon="4.71643">
        <ele>190</ele>
        <time>2017-03-25T10:56:04Z</time>
      </trkpt>
      <trkpt lat="45.96724" lon="4.71642">
        <ele>190</ele>
        <time>2017-03-25T10:56:05Z</time>
      </trkpt>
      <trkpt lat="45.96717" lon="4.71641">
        <ele>190</ele>
        <time>2017-03-25T10:56:06Z</time>
      </trkpt>
      <trkpt lat="45.9671" lon="4.71639">
        <ele>190</ele>
        <time>2017-03-25T10:56:07Z</time>
      </trkpt>
      <trkpt lat="45.96703" lon="4.71639">
        <ele>190</ele>
        <time>2017-03-25T10:56:08Z</time>
      </trkpt>
      <trkpt lat="45.96697" lon="4.71637">
        <ele>190</ele>
        <time>2017-03-25T10:56:09Z</time>
      </trkpt>
      <trkpt lat="45.9669" lon="4.71636">
        <ele>190</ele>
        <time>2017-03-25T10:56:10Z</time>
      </trkpt>
      <trkpt lat="45.96684" lon="4.71635">
        <ele>190</ele>
        <time>2017-03-25T10:56:11Z</time>
      </trkpt>
      <trkpt lat="45.96677" lon="4.71634">
        <ele>190</ele>
        <time>2017-03-25T10:56:12Z</time>
      </trkpt>
      <trkpt lat="45.96671" lon="4.71634">
        <ele>190</ele>
        <time>2017-03-25T10:56:13Z</time>
      </trkpt>
      <trkpt lat="45.96664" lon="4.71633">
        <ele>188</ele>
        <time>2017-03-25T10:56:14Z</time>
      </trkpt>
      <trkpt lat="45.96658" lon="4.71631">
        <ele>188</ele>
        <time>2017-03-25T10:56:15Z</time>
      </trkpt>
      <trkpt lat="45.96652" lon="4.7163">
        <ele>188</ele>
        <time>2017-03-25T10:56:16Z</time>
      </trkpt>
      <trkpt lat="45.96646" lon="4.71629">
        <ele>188</ele>
        <time>2017-03-25T10:56:17Z</time>
      </trkpt>
      <trkpt lat="45.96639" lon="4.71628">
        <ele>188</ele>
        <time>2017-03-25T10:56:18Z</time>
      </trkpt>
      <trkpt lat="45.96633" lon="4.71627">
        <ele>188</ele>
        <time>2017-03-25T10:56:19Z</time>
      </trkpt>
      <trkpt lat="45.96626" lon="4.71626">
        <ele>188</ele>
        <time>2017-03-25T10:56:20Z</time>
      </trkpt>
      <trkpt lat="45.9662" lon="4.71625">
        <ele>188</ele>
        <time>2017-03-25T10:56:21Z</time>
      </trkpt>
      <trkpt lat="45.96613" lon="4.71624">
        <ele>188</ele>
        <time>2017-03-25T10:56:22Z</time>
      </trkpt>
      <trkpt lat="45.96606" lon="4.71622">
        <ele>187</ele>
        <time>2017-03-25T10:56:23Z</time>
      </trkpt>
      <trkpt lat="45.96598" lon="4.71621">
        <ele>187</ele>
        <time>2017-03-25T10:56:24Z</time>
      </trkpt>
      <trkpt lat="45.96591" lon="4.7162">
        <ele>187</ele>
        <time>2017-03-25T10:56:25Z</time>
      </trkpt>
      <trkpt lat="45.96584" lon="4.71619">
        <ele>187</ele>
        <time>2017-03-25T10:56:26Z</time>
      </trkpt>
      <trkpt lat="45.96577" lon="4.71618">
        <ele>185</ele>
        <time>2017-03-25T10:56:27Z</time>
      </trkpt>
      <trkpt lat="45.9657" lon="4.71617">
        <ele>185</ele>
        <time>2017-03-25T10:56:28Z</time>
      </trkpt>
      <trkpt lat="45.96563" lon="4.71615">
        <ele>185</ele>
        <time>2017-03-25T10:56:29Z</time>
      </trkpt>
      <trkpt lat="45.96556" lon="4.71614">
        <ele>185</ele>
        <time>2017-03-25T10:56:30Z</time>
      </trkpt>
      <trkpt lat="45.9655" lon="4.71613">
        <ele>185</ele>
        <time>2017-03-25T10:56:31Z</time>
      </trkpt>
      <trkpt lat="45.96544" lon="4.71609">
        <ele>185</ele>
        <time>2017-03-25T10:56:32Z</time>
      </trkpt>
      <trkpt lat="45.96538" lon="4.71605">
        <ele>185</ele>
        <time>2017-03-25T10:56:33Z</time>
      </trkpt>
      <trkpt lat="45.96533" lon="4.71601">
        <ele>185</ele>
        <time>2017-03-25T10:56:34Z</time>
      </trkpt>
      <trkpt lat="45.96527" lon="4.71598">
        <ele>185</ele>
        <time>2017-03-25T10:56:35Z</time>
      </trkpt>
      <trkpt lat="45.96521" lon="4.71598">
        <ele>185</ele>
        <time>2017-03-25T10:56:36Z</time>
      </trkpt>
      <trkpt lat="45.96515" lon="4.716">
        <ele>185</ele>
        <time>2017-03-25T10:56:37Z</time>
      </trkpt>
      <trkpt lat="45.96509" lon="4.71603">
        <ele>184</ele>
        <time>2017-03-25T10:56:38Z</time>
      </trkpt>
      <trkpt lat="45.96503" lon="4.71604">
        <ele>184</ele>
        <time>2017-03-25T10:56:39Z</time>
      </trkpt>
      <trkpt lat="45.96497" lon="4.71604">
        <ele>183</ele>
        <time>2017-03-25T10:56:40Z</time>
      </trkpt>
      <trkpt lat="45.9649" lon="4.71604">
        <ele>183</ele>
        <time>2017-03-25T10:56:41Z</time>
      </trkpt>
      <trkpt lat="45.96484" lon="4.71604">
        <ele>183</ele>
        <time>2017-03-25T10:56:42Z</time>
      </trkpt>
      <trkpt lat="45.96477" lon="4.71603">
        <ele>183</ele>
        <time>2017-03-25T10:56:43Z</time>
      </trkpt>
      <trkpt lat="45.9647" lon="4.71602">
        <ele>183</ele>
        <time>2017-03-25T10:56:44Z</time>
      </trkpt>
      <trkpt lat="45.96463" lon="4.71601">
        <ele>183</ele>
        <time>2017-03-25T10:56:45Z</time>
      </trkpt>
      <trkpt lat="45.96456" lon="4.716">
        <ele>183</ele>
        <time>2017-03-25T10:56:46Z</time>
      </trkpt>
      <trkpt lat="45.96448" lon="4.71599">
        <ele>183</ele>
        <time>2017-03-25T10:56:47Z</time>
      </trkpt>
      <trkpt lat="45.9644" lon="4.71598">
        <ele>183</ele>
        <time>2017-03-25T10:56:48Z</time>
      </trkpt>
      <trkpt lat="45.96433" lon="4.71597">
        <ele>184</ele>
        <time>2017-03-25T10:56:49Z</time>
      </trkpt>
      <trkpt lat="45.96425" lon="4.71596">
        <ele>184</ele>
        <time>2017-03-25T10:56:50Z</time>
      </trkpt>
      <trkpt lat="45.96418" lon="4.71594">
        <ele>184</ele>
        <time>2017-03-25T10:56:51Z</time>
      </trkpt>
      <trkpt lat="45.96411" lon="4.71592">
        <ele>184</ele>
        <time>2017-03-25T10:56:52Z</time>
      </trkpt>
      <trkpt lat="45.96404" lon="4.71591">
        <ele>183</ele>
        <time>2017-03-25T10:56:53Z</time>
      </trkpt>
      <trkpt lat="45.96397" lon="4.7159">
        <ele>183</ele>
        <time>2017-03-25T10:56:54Z</time>
      </trkpt>
      <trkpt lat="45.96391" lon="4.7159">
        <ele>183</ele>
        <time>2017-03-25T10:56:55Z</time>
      </trkpt>
      <trkpt lat="45.96384" lon="4.71589">
        <ele>183</ele>
        <time>2017-03-25T10:56:56Z</time>
      </trkpt>
      <trkpt lat="45.96378" lon="4.71588">
        <ele>182</ele>
        <time>2017-03-25T10:56:57Z</time>
      </trkpt>
      <trkpt lat="45.96372" lon="4.71587">
        <ele>182</ele>
        <time>2017-03-25T10:56:58Z</time>
      </trkpt>
      <trkpt lat="45.96365" lon="4.71586">
        <ele>182</ele>
        <time>2017-03-25T10:56:59Z</time>
      </trkpt>
      <trkpt lat="45.96359" lon="4.71585">
        <ele>182</ele>
        <time>2017-03-25T10:57:00Z</time>
      </trkpt>
      <trkpt lat="45.96353" lon="4.71584">
        <ele>182</ele>
        <time>2017-03-25T10:57:01Z</time>
      </trkpt>
      <trkpt lat="45.96347" lon="4.71583">
        <ele>185</ele>
        <time>2017-03-25T10:57:02Z</time>
      </trkpt>
      <trkpt lat="45.96341" lon="4.71582">
        <ele>184</ele>
        <time>2017-03-25T10:57:03Z</time>
      </trkpt>
      <trkpt lat="45.96335" lon="4.71582">
        <ele>183</ele>
        <time>2017-03-25T10:57:04Z</time>
      </trkpt>
      <trkpt lat="45.96328" lon="4.71581">
        <ele>183</ele>
        <time>2017-03-25T10:57:05Z</time>
      </trkpt>
      <trkpt lat="45.96321" lon="4.7158">
        <ele>184</ele>
        <time>2017-03-25T10:57:06Z</time>
      </trkpt>
      <trkpt lat="45.96315" lon="4.71578">
        <ele>184</ele>
        <time>2017-03-25T10:57:07Z</time>
      </trkpt>
      <trkpt lat="45.96308" lon="4.71577">
        <ele>184</ele>
        <time>2017-03-25T10:57:08Z</time>
      </trkpt>
      <trkpt lat="45.96301" lon="4.71576">
        <ele>184</ele>
        <time>2017-03-25T10:57:09Z</time>
      </trkpt>
      <trkpt lat="45.96294" lon="4.71575">
        <ele>184</ele>
        <time>2017-03-25T10:57:10Z</time>
      </trkpt>
      <trkpt lat="45.96287" lon="4.71574">
        <ele>184</ele>
        <time>2017-03-25T10:57:11Z</time>
      </trkpt>
      <trkpt lat="45.96279" lon="4.71572">
        <ele>184</ele>
        <time>2017-03-25T10:57:12Z</time>
      </trkpt>
      <trkpt lat="45.96271" lon="4.7157">
        <ele>184</ele>
        <time>2017-03-25T10:57:13Z</time>
      </trkpt>
      <trkpt lat="45.96264" lon="4.71569">
        <ele>183</ele>
        <time>2017-03-25T10:57:14Z</time>
      </trkpt>
      <trkpt lat="45.96257" lon="4.71568">
        <ele>183</ele>
        <time>2017-03-25T10:57:15Z</time>
      </trkpt>
      <trkpt lat="45.9625" lon="4.71567">
        <ele>183</ele>
        <time>2017-03-25T10:57:16Z</time>
      </trkpt>
      <trkpt lat="45.96243" lon="4.71565">
        <ele>183</ele>
        <time>2017-03-25T10:57:17Z</time>
      </trkpt>
      <trkpt lat="45.96237" lon="4.71564">
        <ele>183</ele>
        <time>2017-03-25T10:57:18Z</time>
      </trkpt>
      <trkpt lat="45.9623" lon="4.71563">
        <ele>183</ele>
        <time>2017-03-25T10:57:19Z</time>
      </trkpt>
      <trkpt lat="45.96224" lon="4.71562">
        <ele>183</ele>
        <time>2017-03-25T10:57:20Z</time>
      </trkpt>
      <trkpt lat="45.96217" lon="4.71561">
        <ele>183</ele>
        <time>2017-03-25T10:57:21Z</time>
      </trkpt>
      <trkpt lat="45.96211" lon="4.71559">
        <ele>184</ele>
        <time>2017-03-25T10:57:22Z</time>
      </trkpt>
      <trkpt lat="45.96206" lon="4.71558">
        <ele>184</ele>
        <time>2017-03-25T10:57:23Z</time>
      </trkpt>
      <trkpt lat="45.962" lon="4.71556">
        <ele>184</ele>
        <time>2017-03-25T10:57:24Z</time>
      </trkpt>
      <trkpt lat="45.96194" lon="4.71556">
        <ele>184</ele>
        <time>2017-03-25T10:57:25Z</time>
      </trkpt>
      <trkpt lat="45.96188" lon="4.71555">
        <ele>183</ele>
        <time>2017-03-25T10:57:26Z</time>
      </trkpt>
      <trkpt lat="45.96182" lon="4.71553">
        <ele>183</ele>
        <time>2017-03-25T10:57:27Z</time>
      </trkpt>
      <trkpt lat="45.96176" lon="4.71553">
        <ele>183</ele>
        <time>2017-03-25T10:57:28Z</time>
      </trkpt>
      <trkpt lat="45.9617" lon="4.71551">
        <ele>183</ele>
        <time>2017-03-25T10:57:29Z</time>
      </trkpt>
      <trkpt lat="45.96164" lon="4.7155">
        <ele>184</ele>
        <time>2017-03-25T10:57:30Z</time>
      </trkpt>
      <trkpt lat="45.96157" lon="4.71549">
        <ele>184</ele>
        <time>2017-03-25T10:57:31Z</time>
      </trkpt>
      <trkpt lat="45.9615" lon="4.71547">
        <ele>184</ele>
        <time>2017-03-25T10:57:32Z</time>
      </trkpt>
      <trkpt lat="45.96144" lon="4.71546">
        <ele>184</ele>
        <time>2017-03-25T10:57:33Z</time>
      </trkpt>
      <trkpt lat="45.96137" lon="4.71545">
        <ele>185</ele>
        <time>2017-03-25T10:57:34Z</time>
      </trkpt>
      <trkpt lat="45.96131" lon="4.71544">
        <ele>185</ele>
        <time>2017-03-25T10:57:35Z</time>
      </trkpt>
      <trkpt lat="45.96125" lon="4.71543">
        <ele>185</ele>
        <time>2017-03-25T10:57:36Z</time>
      </trkpt>
      <trkpt lat="45.96119" lon="4.71541">
        <ele>185</ele>
        <time>2017-03-25T10:57:37Z</time>
      </trkpt>
      <trkpt lat="45.96113" lon="4.7154">
        <ele>185</ele>
        <time>2017-03-25T10:57:38Z</time>
      </trkpt>
      <trkpt lat="45.96108" lon="4.71539">
        <ele>185</ele>
        <time>2017-03-25T10:57:39Z</time>
      </trkpt>
      <trkpt lat="45.96102" lon="4.71538">
        <ele>185</ele>
        <time>2017-03-25T10:57:40Z</time>
      </trkpt>
      <trkpt lat="45.96097" lon="4.71538">
        <ele>185</ele>
        <time>2017-03-25T10:57:41Z</time>
      </trkpt>
      <trkpt lat="45.96092" lon="4.71537">
        <ele>185</ele>
        <time>2017-03-25T10:57:42Z</time>
      </trkpt>
      <trkpt lat="45.96087" lon="4.71537">
        <ele>185</ele>
        <time>2017-03-25T10:57:43Z</time>
      </trkpt>
      <trkpt lat="45.96082" lon="4.71536">
        <ele>186</ele>
        <time>2017-03-25T10:57:44Z</time>
      </trkpt>
      <trkpt lat="45.96077" lon="4.71535">
        <ele>186</ele>
        <time>2017-03-25T10:57:45Z</time>
      </trkpt>
      <trkpt lat="45.96071" lon="4.71534">
        <ele>186</ele>
        <time>2017-03-25T10:57:46Z</time>
      </trkpt>
      <trkpt lat="45.96065" lon="4.71533">
        <ele>186</ele>
        <time>2017-03-25T10:57:47Z</time>
      </trkpt>
      <trkpt lat="45.96059" lon="4.71532">
        <ele>186</ele>
        <time>2017-03-25T10:57:48Z</time>
      </trkpt>
      <trkpt lat="45.96053" lon="4.71531">
        <ele>186</ele>
        <time>2017-03-25T10:57:49Z</time>
      </trkpt>
      <trkpt lat="45.96048" lon="4.7153">
        <ele>186</ele>
        <time>2017-03-25T10:57:50Z</time>
      </trkpt>
      <trkpt lat="45.96042" lon="4.71529">
        <ele>186</ele>
        <time>2017-03-25T10:57:51Z</time>
      </trkpt>
      <trkpt lat="45.96036" lon="4.71527">
        <ele>186</ele>
        <time>2017-03-25T10:57:52Z</time>
      </trkpt>
      <trkpt lat="45.9603" lon="4.71527">
        <ele>186</ele>
        <time>2017-03-25T10:57:53Z</time>
      </trkpt>
      <trkpt lat="45.96025" lon="4.71526">
        <ele>186</ele>
        <time>2017-03-25T10:57:54Z</time>
      </trkpt>
      <trkpt lat="45.96019" lon="4.71525">
        <ele>186</ele>
        <time>2017-03-25T10:57:55Z</time>
      </trkpt>
      <trkpt lat="45.96014" lon="4.71524">
        <ele>186</ele>
        <time>2017-03-25T10:57:56Z</time>
      </trkpt>
      <trkpt lat="45.96009" lon="4.71523">
        <ele>186</ele>
        <time>2017-03-25T10:57:57Z</time>
      </trkpt>
      <trkpt lat="45.96004" lon="4.71522">
        <ele>186</ele>
        <time>2017-03-25T10:57:58Z</time>
      </trkpt>
      <trkpt lat="45.95999" lon="4.7152">
        <ele>185</ele>
        <time>2017-03-25T10:57:59Z</time>
      </trkpt>
      <trkpt lat="45.95994" lon="4.71517">
        <ele>186</ele>
        <time>2017-03-25T10:58:00Z</time>
      </trkpt>
      <trkpt lat="45.95989" lon="4.71514">
        <ele>186</ele>
        <time>2017-03-25T10:58:01Z</time>
      </trkpt>
      <trkpt lat="45.95984" lon="4.71512">
        <ele>185</ele>
        <time>2017-03-25T10:58:02Z</time>
      </trkpt>
      <trkpt lat="45.95979" lon="4.71511">
        <ele>185</ele>
        <time>2017-03-25T10:58:03Z</time>
      </trkpt>
      <trkpt lat="45.95974" lon="4.71512">
        <ele>185</ele>
        <time>2017-03-25T10:58:04Z</time>
      </trkpt>
      <trkpt lat="45.95969" lon="4.71515">
        <ele>185</ele>
        <time>2017-03-25T10:58:05Z</time>
      </trkpt>
      <trkpt lat="45.95964" lon="4.71517">
        <ele>184</ele>
        <time>2017-03-25T10:58:06Z</time>
      </trkpt>
      <trkpt lat="45.95958" lon="4.71519">
        <ele>184</ele>
        <time>2017-03-25T10:58:07Z</time>
      </trkpt>
      <trkpt lat="45.95953" lon="4.7152">
        <ele>184</ele>
        <time>2017-03-25T10:58:08Z</time>
      </trkpt>
      <trkpt lat="45.95947" lon="4.71521">
        <ele>184</ele>
        <time>2017-03-25T10:58:09Z</time>
      </trkpt>
      <trkpt lat="45.95941" lon="4.71521">
        <ele>184</ele>
        <time>2017-03-25T10:58:10Z</time>
      </trkpt>
      <trkpt lat="45.95934" lon="4.71522">
        <ele>184</ele>
        <time>2017-03-25T10:58:11Z</time>
      </trkpt>
      <trkpt lat="45.95928" lon="4.71522">
        <ele>184</ele>
        <time>2017-03-25T10:58:12Z</time>
      </trkpt>
      <trkpt lat="45.95921" lon="4.71522">
        <ele>184</ele>
        <time>2017-03-25T10:58:13Z</time>
      </trkpt>
      <trkpt lat="45.95915" lon="4.71522">
        <ele>183</ele>
        <time>2017-03-25T10:58:14Z</time>
      </trkpt>
      <trkpt lat="45.95908" lon="4.71522">
        <ele>183</ele>
        <time>2017-03-25T10:58:15Z</time>
      </trkpt>
      <trkpt lat="45.95901" lon="4.71522">
        <ele>182</ele>
        <time>2017-03-25T10:58:16Z</time>
      </trkpt>
      <trkpt lat="45.95894" lon="4.71522">
        <ele>182</ele>
        <time>2017-03-25T10:58:17Z</time>
      </trkpt>
      <trkpt lat="45.95888" lon="4.71522">
        <ele>182</ele>
        <time>2017-03-25T10:58:18Z</time>
      </trkpt>
      <trkpt lat="45.95881" lon="4.71522">
        <ele>182</ele>
        <time>2017-03-25T10:58:19Z</time>
      </trkpt>
      <trkpt lat="45.95875" lon="4.71521">
        <ele>182</ele>
        <time>2017-03-25T10:58:20Z</time>
      </trkpt>
      <trkpt lat="45.95868" lon="4.71521">
        <ele>182</ele>
        <time>2017-03-25T10:58:21Z</time>
      </trkpt>
      <trkpt lat="45.95861" lon="4.71521">
        <ele>182</ele>
        <time>2017-03-25T10:58:22Z</time>
      </trkpt>
      <trkpt lat="45.95855" lon="4.71521">
        <ele>182</ele>
        <time>2017-03-25T10:58:23Z</time>
      </trkpt>
      <trkpt lat="45.95848" lon="4.7152">
        <ele>182</ele>
        <time>2017-03-25T10:58:24Z</time>
      </trkpt>
      <trkpt lat="45.95841" lon="4.7152">
        <ele>182</ele>
        <time>2017-03-25T10:58:25Z</time>
      </trkpt>
      <trkpt lat="45.95835" lon="4.7152">
        <ele>182</ele>
        <time>2017-03-25T10:58:26Z</time>
      </trkpt>
      <trkpt lat="45.95828" lon="4.71519">
        <ele>182</ele>
        <time>2017-03-25T10:58:27Z</time>
      </trkpt>
      <trkpt lat="45.95821" lon="4.71519">
        <ele>182</ele>
        <time>2017-03-25T10:58:28Z</time>
      </trkpt>
      <trkpt lat="45.95815" lon="4.71518">
        <ele>182</ele>
        <time>2017-03-25T10:58:29Z</time>
      </trkpt>
      <trkpt lat="45.95808" lon="4.71518">
        <ele>181</ele>
        <time>2017-03-25T10:58:30Z</time>
      </trkpt>
      <trkpt lat="45.95802" lon="4.71518">
        <ele>181</ele>
        <time>2017-03-25T10:58:31Z</time>
      </trkpt>
      <trkpt lat="45.95796" lon="4.71517">
        <ele>181</ele>
        <time>2017-03-25T10:58:32Z</time>
      </trkpt>
      <trkpt lat="45.95789" lon="4.71517">
        <ele>181</ele>
        <time>2017-03-25T10:58:33Z</time>
      </trkpt>
      <trkpt lat="45.95782" lon="4.71516">
        <ele>181</ele>
        <time>2017-03-25T10:58:34Z</time>
      </trkpt>
      <trkpt lat="45.95775" lon="4.71516">
        <ele>181</ele>
        <time>2017-03-25T10:58:35Z</time>
      </trkpt>
      <trkpt lat="45.95767" lon="4.71515">
        <ele>181</ele>
        <time>2017-03-25T10:58:36Z</time>
      </trkpt>
      <trkpt lat="45.95759" lon="4.71515">
        <ele>181</ele>
        <time>2017-03-25T10:58:37Z</time>
      </trkpt>
      <trkpt lat="45.95751" lon="4.71515">
        <ele>181</ele>
        <time>2017-03-25T10:58:38Z</time>
      </trkpt>
      <trkpt lat="45.95743" lon="4.71515">
        <ele>181</ele>
        <time>2017-03-25T10:58:39Z</time>
      </trkpt>
      <trkpt lat="45.95735" lon="4.71514">
        <ele>181</ele>
        <time>2017-03-25T10:58:40Z</time>
      </trkpt>
      <trkpt lat="45.95727" lon="4.71514">
        <ele>180</ele>
        <time>2017-03-25T10:58:41Z</time>
      </trkpt>
      <trkpt lat="45.95718" lon="4.71512">
        <ele>180</ele>
        <time>2017-03-25T10:58:42Z</time>
      </trkpt>
      <trkpt lat="45.9571" lon="4.71511">
        <ele>180</ele>
        <time>2017-03-25T10:58:43Z</time>
      </trkpt>
      <trkpt lat="45.95702" lon="4.7151">
        <ele>180</ele>
        <time>2017-03-25T10:58:44Z</time>
      </trkpt>
      <trkpt lat="45.95695" lon="4.71507">
        <ele>180</ele>
        <time>2017-03-25T10:58:45Z</time>
      </trkpt>
      <trkpt lat="45.95687" lon="4.71506">
        <ele>181</ele>
        <time>2017-03-25T10:58:46Z</time>
      </trkpt>
      <trkpt lat="45.95679" lon="4.71505">
        <ele>181</ele>
        <time>2017-03-25T10:58:47Z</time>
      </trkpt>
      <trkpt lat="45.95671" lon="4.71504">
        <ele>181</ele>
        <time>2017-03-25T10:58:48Z</time>
      </trkpt>
      <trkpt lat="45.95663" lon="4.71504">
        <ele>181</ele>
        <time>2017-03-25T10:58:49Z</time>
      </trkpt>
      <trkpt lat="45.95655" lon="4.71503">
        <ele>181</ele>
        <time>2017-03-25T10:58:50Z</time>
      </trkpt>
      <trkpt lat="45.95648" lon="4.71503">
        <ele>180</ele>
        <time>2017-03-25T10:58:51Z</time>
      </trkpt>
      <trkpt lat="45.9564" lon="4.71503">
        <ele>180</ele>
        <time>2017-03-25T10:58:52Z</time>
      </trkpt>
      <trkpt lat="45.95633" lon="4.71502">
        <ele>180</ele>
        <time>2017-03-25T10:58:53Z</time>
      </trkpt>
      <trkpt lat="45.95625" lon="4.71501">
        <ele>180</ele>
        <time>2017-03-25T10:58:54Z</time>
      </trkpt>
      <trkpt lat="45.95618" lon="4.71501">
        <ele>180</ele>
        <time>2017-03-25T10:58:55Z</time>
      </trkpt>
      <trkpt lat="45.9561" lon="4.71501">
        <ele>179</ele>
        <time>2017-03-25T10:58:56Z</time>
      </trkpt>
      <trkpt lat="45.95603" lon="4.715">
        <ele>181</ele>
        <time>2017-03-25T10:58:57Z</time>
      </trkpt>
      <trkpt lat="45.95596" lon="4.715">
        <ele>181</ele>
        <time>2017-03-25T10:58:58Z</time>
      </trkpt>
      <trkpt lat="45.95589" lon="4.71499">
        <ele>180</ele>
        <time>2017-03-25T10:58:59Z</time>
      </trkpt>
      <trkpt lat="45.95582" lon="4.71499">
        <ele>180</ele>
        <time>2017-03-25T10:59:00Z</time>
      </trkpt>
      <trkpt lat="45.95575" lon="4.71499">
        <ele>180</ele>
        <time>2017-03-25T10:59:01Z</time>
      </trkpt>
      <trkpt lat="45.95568" lon="4.71498">
        <ele>180</ele>
        <time>2017-03-25T10:59:02Z</time>
      </trkpt>
      <trkpt lat="45.95561" lon="4.71497">
        <ele>179</ele>
        <time>2017-03-25T10:59:03Z</time>
      </trkpt>
      <trkpt lat="45.95554" lon="4.71497">
        <ele>179</ele>
        <time>2017-03-25T10:59:04Z</time>
      </trkpt>
      <trkpt lat="45.95547" lon="4.71496">
        <ele>179</ele>
        <time>2017-03-25T10:59:05Z</time>
      </trkpt>
      <trkpt lat="45.9554" lon="4.71496">
        <ele>179</ele>
        <time>2017-03-25T10:59:06Z</time>
      </trkpt>
      <trkpt lat="45.95533" lon="4.71496">
        <ele>179</ele>
        <time>2017-03-25T10:59:07Z</time>
      </trkpt>
      <trkpt lat="45.95526" lon="4.71495">
        <ele>178</ele>
        <time>2017-03-25T10:59:08Z</time>
      </trkpt>
      <trkpt lat="45.95519" lon="4.71495">
        <ele>178</ele>
        <time>2017-03-25T10:59:09Z</time>
      </trkpt>
      <trkpt lat="45.95512" lon="4.71494">
        <ele>178</ele>
        <time>2017-03-25T10:59:10Z</time>
      </trkpt>
      <trkpt lat="45.95505" lon="4.71494">
        <ele>178</ele>
        <time>2017-03-25T10:59:11Z</time>
      </trkpt>
      <trkpt lat="45.95498" lon="4.71494">
        <ele>177</ele>
        <time>2017-03-25T10:59:12Z</time>
      </trkpt>
      <trkpt lat="45.95491" lon="4.71493">
        <ele>177</ele>
        <time>2017-03-25T10:59:13Z</time>
      </trkpt>
      <trkpt lat="45.95484" lon="4.71493">
        <ele>177</ele>
        <time>2017-03-25T10:59:14Z</time>
      </trkpt>
      <trkpt lat="45.95478" lon="4.71493">
        <ele>176</ele>
        <time>2017-03-25T10:59:15Z</time>
      </trkpt>
      <trkpt lat="45.95471" lon="4.71492">
        <ele>176</ele>
        <time>2017-03-25T10:59:16Z</time>
      </trkpt>
      <trkpt lat="45.95464" lon="4.71492">
        <ele>176</ele>
        <time>2017-03-25T10:59:17Z</time>
      </trkpt>
      <trkpt lat="45.95458" lon="4.71492">
        <ele>176</ele>
        <time>2017-03-25T10:59:18Z</time>
      </trkpt>
      <trkpt lat="45.95452" lon="4.71491">
        <ele>176</ele>
        <time>2017-03-25T10:59:19Z</time>
      </trkpt>
      <trkpt lat="45.95445" lon="4.71491">
        <ele>176</ele>
        <time>2017-03-25T10:59:20Z</time>
      </trkpt>
      <trkpt lat="45.95438" lon="4.7149">
        <ele>175</ele>
        <time>2017-03-25T10:59:21Z</time>
      </trkpt>
      <trkpt lat="45.95431" lon="4.7149">
        <ele>175</ele>
        <time>2017-03-25T10:59:22Z</time>
      </trkpt>
      <trkpt lat="45.95424" lon="4.71489">
        <ele>175</ele>
        <time>2017-03-25T10:59:23Z</time>
      </trkpt>
      <trkpt lat="45.95418" lon="4.71488">
        <ele>175</ele>
        <time>2017-03-25T10:59:24Z</time>
      </trkpt>
      <trkpt lat="45.95411" lon="4.71488">
        <ele>175</ele>
        <time>2017-03-25T10:59:25Z</time>
      </trkpt>
      <trkpt lat="45.95404" lon="4.71488">
        <ele>175</ele>
        <time>2017-03-25T10:59:26Z</time>
      </trkpt>
      <trkpt lat="45.95397" lon="4.71487">
        <ele>175</ele>
        <time>2017-03-25T10:59:27Z</time>
      </trkpt>
      <trkpt lat="45.95389" lon="4.71487">
        <ele>175</ele>
        <time>2017-03-25T10:59:28Z</time>
      </trkpt>
      <trkpt lat="45.95382" lon="4.71486">
        <ele>175</ele>
        <time>2017-03-25T10:59:29Z</time>
      </trkpt>
      <trkpt lat="45.95375" lon="4.71485">
        <ele>175</ele>
        <time>2017-03-25T10:59:30Z</time>
      </trkpt>
      <trkpt lat="45.95368" lon="4.71485">
        <ele>175</ele>
        <time>2017-03-25T10:59:31Z</time>
      </trkpt>
      <trkpt lat="45.95361" lon="4.71484">
        <ele>175</ele>
        <time>2017-03-25T10:59:32Z</time>
      </trkpt>
      <trkpt lat="45.95355" lon="4.71483">
        <ele>175</ele>
        <time>2017-03-25T10:59:33Z</time>
      </trkpt>
      <trkpt lat="45.95348" lon="4.71483">
        <ele>175</ele>
        <time>2017-03-25T10:59:34Z</time>
      </trkpt>
      <trkpt lat="45.95342" lon="4.71482">
        <ele>175</ele>
        <time>2017-03-25T10:59:35Z</time>
      </trkpt>
      <trkpt lat="45.95335" lon="4.71481">
        <ele>175</ele>
        <time>2017-03-25T10:59:36Z</time>
      </trkpt>
      <trkpt lat="45.95329" lon="4.7148">
        <ele>175</ele>
        <time>2017-03-25T10:59:37Z</time>
      </trkpt>
      <trkpt lat="45.95323" lon="4.7148">
        <ele>175</ele>
        <time>2017-03-25T10:59:38Z</time>
      </trkpt>
      <trkpt lat="45.95317" lon="4.7148">
        <ele>175</ele>
        <time>2017-03-25T10:59:39Z</time>
      </trkpt>
      <trkpt lat="45.9531" lon="4.71479">
        <ele>175</ele>
        <time>2017-03-25T10:59:40Z</time>
      </trkpt>
      <trkpt lat="45.95304" lon="4.71479">
        <ele>175</ele>
        <time>2017-03-25T10:59:41Z</time>
      </trkpt>
      <trkpt lat="45.95298" lon="4.71479">
        <ele>176</ele>
        <time>2017-03-25T10:59:42Z</time>
      </trkpt>
      <trkpt lat="45.95292" lon="4.71479">
        <ele>176</ele>
        <time>2017-03-25T10:59:43Z</time>
      </trkpt>
      <trkpt lat="45.95286" lon="4.71479">
        <ele>176</ele>
        <time>2017-03-25T10:59:44Z</time>
      </trkpt>
      <trkpt lat="45.95279" lon="4.71479">
        <ele>176</ele>
        <time>2017-03-25T10:59:45Z</time>
      </trkpt>
      <trkpt lat="45.95273" lon="4.71479">
        <ele>176</ele>
        <time>2017-03-25T10:59:46Z</time>
      </trkpt>
      <trkpt lat="45.95267" lon="4.71479">
        <ele>176</ele>
        <time>2017-03-25T10:59:47Z</time>
      </trkpt>
      <trkpt lat="45.9526" lon="4.71479">
        <ele>176</ele>
        <time>2017-03-25T10:59:48Z</time>
      </trkpt>
      <trkpt lat="45.95254" lon="4.71479">
        <ele>176</ele>
        <time>2017-03-25T10:59:49Z</time>
      </trkpt>
      <trkpt lat="45.95247" lon="4.71478">
        <ele>177</ele>
        <time>2017-03-25T10:59:50Z</time>
      </trkpt>
      <trkpt lat="45.95241" lon="4.71478">
        <ele>177</ele>
        <time>2017-03-25T10:59:51Z</time>
      </trkpt>
      <trkpt lat="45.95235" lon="4.71477">
        <ele>177</ele>
        <time>2017-03-25T10:59:52Z</time>
      </trkpt>
      <trkpt lat="45.95228" lon="4.71477">
        <ele>177</ele>
        <time>2017-03-25T10:59:53Z</time>
      </trkpt>
      <trkpt lat="45.95222" lon="4.71477">
        <ele>177</ele>
        <time>2017-03-25T10:59:54Z</time>
      </trkpt>
      <trkpt lat="45.95216" lon="4.71477">
        <ele>177</ele>
        <time>2017-03-25T10:59:55Z</time>
      </trkpt>
      <trkpt lat="45.9521" lon="4.71476">
        <ele>177</ele>
        <time>2017-03-25T10:59:56Z</time>
      </trkpt>
      <trkpt lat="45.95204" lon="4.71476">
        <ele>177</ele>
        <time>2017-03-25T10:59:57Z</time>
      </trkpt>
      <trkpt lat="45.95198" lon="4.71475">
        <ele>177</ele>
        <time>2017-03-25T10:59:58Z</time>
      </trkpt>
      <trkpt lat="45.95192" lon="4.71475">
        <ele>177</ele>
        <time>2017-03-25T10:59:59Z</time>
      </trkpt>
      <trkpt lat="45.95187" lon="4.71474">
        <ele>177</ele>
        <time>2017-03-25T11:00:00Z</time>
      </trkpt>
      <trkpt lat="45.95181" lon="4.71474">
        <ele>177</ele>
        <time>2017-03-25T11:00:01Z</time>
      </trkpt>
      <trkpt lat="45.95176" lon="4.71474">
        <ele>177</ele>
        <time>2017-03-25T11:00:02Z</time>
      </trkpt>
      <trkpt lat="45.9517" lon="4.71474">
        <ele>177</ele>
        <time>2017-03-25T11:00:03Z</time>
      </trkpt>
      <trkpt lat="45.95165" lon="4.71474">
        <ele>178</ele>
        <time>2017-03-25T11:00:04Z</time>
      </trkpt>
      <trkpt lat="45.9516" lon="4.71473">
        <ele>178</ele>
        <time>2017-03-25T11:00:05Z</time>
      </trkpt>
      <trkpt lat="45.95155" lon="4.71473">
        <ele>178</ele>
        <time>2017-03-25T11:00:06Z</time>
      </trkpt>
      <trkpt lat="45.9515" lon="4.71472">
        <ele>178</ele>
        <time>2017-03-25T11:00:07Z</time>
      </trkpt>
      <trkpt lat="45.95145" lon="4.71472">
        <ele>178</ele>
        <time>2017-03-25T11:00:08Z</time>
      </trkpt>
      <trkpt lat="45.9514" lon="4.71471">
        <ele>178</ele>
        <time>2017-03-25T11:00:09Z</time>
      </trkpt>
      <trkpt lat="45.95135" lon="4.71471">
        <ele>178</ele>
        <time>2017-03-25T11:00:10Z</time>
      </trkpt>
      <trkpt lat="45.9513" lon="4.7147">
        <ele>178</ele>
        <time>2017-03-25T11:00:11Z</time>
      </trkpt>
      <trkpt lat="45.95125" lon="4.71469">
        <ele>178</ele>
        <time>2017-03-25T11:00:12Z</time>
      </trkpt>
      <trkpt lat="45.9512" lon="4.71469">
        <ele>179</ele>
        <time>2017-03-25T11:00:13Z</time>
      </trkpt>
      <trkpt lat="45.95115" lon="4.71468">
        <ele>179</ele>
        <time>2017-03-25T11:00:14Z</time>
      </trkpt>
      <trkpt lat="45.9511" lon="4.71468">
        <ele>179</ele>
        <time>2017-03-25T11:00:15Z</time>
      </trkpt>
      <trkpt lat="45.95105" lon="4.71467">
        <ele>179</ele>
        <time>2017-03-25T11:00:16Z</time>
      </trkpt>
      <trkpt lat="45.951" lon="4.71467">
        <ele>179</ele>
        <time>2017-03-25T11:00:17Z</time>
      </trkpt>
      <trkpt lat="45.95095" lon="4.71466">
        <ele>179</ele>
        <time>2017-03-25T11:00:18Z</time>
      </trkpt>
      <trkpt lat="45.9509" lon="4.71466">
        <ele>179</ele>
        <time>2017-03-25T11:00:19Z</time>
      </trkpt>
      <trkpt lat="45.95085" lon="4.71465">
        <ele>179</ele>
        <time>2017-03-25T11:00:20Z</time>
      </trkpt>
      <trkpt lat="45.9508" lon="4.71464">
        <ele>181</ele>
        <time>2017-03-25T11:00:21Z</time>
      </trkpt>
      <trkpt lat="45.95076" lon="4.71464">
        <ele>181</ele>
        <time>2017-03-25T11:00:22Z</time>
      </trkpt>
      <trkpt lat="45.95071" lon="4.71463">
        <ele>181</ele>
        <time>2017-03-25T11:00:23Z</time>
      </trkpt>
      <trkpt lat="45.95066" lon="4.71462">
        <ele>181</ele>
        <time>2017-03-25T11:00:24Z</time>
      </trkpt>
      <trkpt lat="45.95061" lon="4.71462">
        <ele>181</ele>
        <time>2017-03-25T11:00:25Z</time>
      </trkpt>
      <trkpt lat="45.95053" lon="4.71461">
        <ele>181</ele>
        <time>2017-03-25T11:00:27Z</time>
      </trkpt>
      <trkpt lat="45.95049" lon="4.7146">
        <ele>182</ele>
        <time>2017-03-25T11:00:28Z</time>
      </trkpt>
      <trkpt lat="45.9504" lon="4.71459">
        <ele>182</ele>
        <time>2017-03-25T11:00:30Z</time>
      </trkpt>
      <trkpt lat="45.95036" lon="4.71459">
        <ele>182</ele>
        <time>2017-03-25T11:00:31Z</time>
      </trkpt>
      <trkpt lat="45.95027" lon="4.71459">
        <ele>182</ele>
        <time>2017-03-25T11:00:33Z</time>
      </trkpt>
      <trkpt lat="45.95022" lon="4.71459">
        <ele>182</ele>
        <time>2017-03-25T11:00:34Z</time>
      </trkpt>
      <trkpt lat="45.95018" lon="4.71459">
        <ele>182</ele>
        <time>2017-03-25T11:00:35Z</time>
      </trkpt>
      <trkpt lat="45.95013" lon="4.71459">
        <ele>182</ele>
        <time>2017-03-25T11:00:36Z</time>
      </trkpt>
      <trkpt lat="45.95004" lon="4.71458">
        <ele>182</ele>
        <time>2017-03-25T11:00:38Z</time>
      </trkpt>
      <trkpt lat="45.95" lon="4.71457">
        <ele>184</ele>
        <time>2017-03-25T11:00:39Z</time>
      </trkpt>
      <trkpt lat="45.94992" lon="4.71453">
        <ele>184</ele>
        <time>2017-03-25T11:00:41Z</time>
      </trkpt>
      <trkpt lat="45.94989" lon="4.71449">
        <ele>184</ele>
        <time>2017-03-25T11:00:42Z</time>
      </trkpt>
      <trkpt lat="45.94983" lon="4.7144">
        <ele>185</ele>
        <time>2017-03-25T11:00:44Z</time>
      </trkpt>
      <trkpt lat="45.9498" lon="4.71437">
        <ele>185</ele>
        <time>2017-03-25T11:00:45Z</time>
      </trkpt>
      <trkpt lat="45.94972" lon="4.71432">
        <ele>185</ele>
        <time>2017-03-25T11:00:47Z</time>
      </trkpt>
      <trkpt lat="45.94968" lon="4.7143">
        <ele>185</ele>
        <time>2017-03-25T11:00:48Z</time>
      </trkpt>
      <trkpt lat="45.9496" lon="4.71429">
        <ele>185</ele>
        <time>2017-03-25T11:00:50Z</time>
      </trkpt>
      <trkpt lat="45.94956" lon="4.71431">
        <ele>185</ele>
        <time>2017-03-25T11:00:51Z</time>
      </trkpt>
      <trkpt lat="45.94952" lon="4.71435">
        <ele>184</ele>
        <time>2017-03-25T11:00:52Z</time>
      </trkpt>
      <trkpt lat="45.94949" lon="4.7144">
        <ele>184</ele>
        <time>2017-03-25T11:00:53Z</time>
      </trkpt>
      <trkpt lat="45.94943" lon="4.71449">
        <ele>184</ele>
        <time>2017-03-25T11:00:55Z</time>
      </trkpt>
      <trkpt lat="45.94939" lon="4.71452">
        <ele>184</ele>
        <time>2017-03-25T11:00:56Z</time>
      </trkpt>
      <trkpt lat="45.9493" lon="4.71454">
        <ele>184</ele>
        <time>2017-03-25T11:00:58Z</time>
      </trkpt>
      <trkpt lat="45.94926" lon="4.71454">
        <ele>184</ele>
        <time>2017-03-25T11:00:59Z</time>
      </trkpt>
      <trkpt lat="45.94921" lon="4.71455">
        <ele>184</ele>
        <time>2017-03-25T11:01:00Z</time>
      </trkpt>
      <trkpt lat="45.94915" lon="4.71455">
        <ele>184</ele>
        <time>2017-03-25T11:01:01Z</time>
      </trkpt>
      <trkpt lat="45.9491" lon="4.71455">
        <ele>184</ele>
        <time>2017-03-25T11:01:02Z</time>
      </trkpt>
      <trkpt lat="45.94906" lon="4.71454">
        <ele>184</ele>
        <time>2017-03-25T11:01:03Z</time>
      </trkpt>
      <trkpt lat="45.949" lon="4.71454">
        <ele>184</ele>
        <time>2017-03-25T11:01:04Z</time>
      </trkpt>
      <trkpt lat="45.94896" lon="4.71454">
        <ele>184</ele>
        <time>2017-03-25T11:01:05Z</time>
      </trkpt>
      <trkpt lat="45.94887" lon="4.71453">
        <ele>184</ele>
        <time>2017-03-25T11:01:07Z</time>
      </trkpt>
      <trkpt lat="45.94882" lon="4.71453">
        <ele>184</ele>
        <time>2017-03-25T11:01:08Z</time>
      </trkpt>
      <trkpt lat="45.94878" lon="4.71452">
        <ele>184</ele>
        <time>2017-03-25T11:01:09Z</time>
      </trkpt>
      <trkpt lat="45.94873" lon="4.71452">
        <ele>184</ele>
        <time>2017-03-25T11:01:10Z</time>
      </trkpt>
      <trkpt lat="45.94868" lon="4.71452">
        <ele>184</ele>
        <time>2017-03-25T11:01:11Z</time>
      </trkpt>
      <trkpt lat="45.94862" lon="4.71451">
        <ele>184</ele>
        <time>2017-03-25T11:01:12Z</time>
      </trkpt>
      <trkpt lat="45.94857" lon="4.71451">
        <ele>184</ele>
        <time>2017-03-25T11:01:13Z</time>
      </trkpt>
      <trkpt lat="45.94851" lon="4.7145">
        <ele>184</ele>
        <time>2017-03-25T11:01:14Z</time>
      </trkpt>
      <trkpt lat="45.94846" lon="4.71449">
        <ele>184</ele>
        <time>2017-03-25T11:01:15Z</time>
      </trkpt>
      <trkpt lat="45.9484" lon="4.71449">
        <ele>184</ele>
        <time>2017-03-25T11:01:16Z</time>
      </trkpt>
      <trkpt lat="45.94834" lon="4.71449">
        <ele>184</ele>
        <time>2017-03-25T11:01:17Z</time>
      </trkpt>
      <trkpt lat="45.94828" lon="4.71448">
        <ele>184</ele>
        <time>2017-03-25T11:01:18Z</time>
      </trkpt>
      <trkpt lat="45.94822" lon="4.71447">
        <ele>184</ele>
        <time>2017-03-25T11:01:19Z</time>
      </trkpt>
      <trkpt lat="45.94816" lon="4.71447">
        <ele>184</ele>
        <time>2017-03-25T11:01:20Z</time>
      </trkpt>
      <trkpt lat="45.9481" lon="4.71447">
        <ele>184</ele>
        <time>2017-03-25T11:01:21Z</time>
      </trkpt>
      <trkpt lat="45.94805" lon="4.71447">
        <ele>183</ele>
        <time>2017-03-25T11:01:22Z</time>
      </trkpt>
      <trkpt lat="45.94799" lon="4.71446">
        <ele>183</ele>
        <time>2017-03-25T11:01:23Z</time>
      </trkpt>
      <trkpt lat="45.94794" lon="4.71445">
        <ele>183</ele>
        <time>2017-03-25T11:01:24Z</time>
      </trkpt>
      <trkpt lat="45.94789" lon="4.71445">
        <ele>183</ele>
        <time>2017-03-25T11:01:25Z</time>
      </trkpt>
      <trkpt lat="45.94784" lon="4.71445">
        <ele>183</ele>
        <time>2017-03-25T11:01:26Z</time>
      </trkpt>
      <trkpt lat="45.94779" lon="4.71445">
        <ele>183</ele>
        <time>2017-03-25T11:01:27Z</time>
      </trkpt>
      <trkpt lat="45.94774" lon="4.71444">
        <ele>184</ele>
        <time>2017-03-25T11:01:28Z</time>
      </trkpt>
      <trkpt lat="45.94769" lon="4.71444">
        <ele>184</ele>
        <time>2017-03-25T11:01:29Z</time>
      </trkpt>
      <trkpt lat="45.94764" lon="4.71443">
        <ele>184</ele>
        <time>2017-03-25T11:01:30Z</time>
      </trkpt>
      <trkpt lat="45.94759" lon="4.71443">
        <ele>184</ele>
        <time>2017-03-25T11:01:31Z</time>
      </trkpt>
      <trkpt lat="45.94753" lon="4.71442">
        <ele>184</ele>
        <time>2017-03-25T11:01:32Z</time>
      </trkpt>
      <trkpt lat="45.94748" lon="4.71442">
        <ele>183</ele>
        <time>2017-03-25T11:01:33Z</time>
      </trkpt>
      <trkpt lat="45.94742" lon="4.71442">
        <ele>183</ele>
        <time>2017-03-25T11:01:34Z</time>
      </trkpt>
      <trkpt lat="45.94737" lon="4.71441">
        <ele>183</ele>
        <time>2017-03-25T11:01:35Z</time>
      </trkpt>
      <trkpt lat="45.94731" lon="4.71441">
        <ele>183</ele>
        <time>2017-03-25T11:01:36Z</time>
      </trkpt>
      <trkpt lat="45.94725" lon="4.7144">
        <ele>183</ele>
        <time>2017-03-25T11:01:37Z</time>
      </trkpt>
      <trkpt lat="45.94719" lon="4.7144">
        <ele>182</ele>
        <time>2017-03-25T11:01:38Z</time>
      </trkpt>
      <trkpt lat="45.94713" lon="4.71439">
        <ele>182</ele>
        <time>2017-03-25T11:01:39Z</time>
      </trkpt>
      <trkpt lat="45.94708" lon="4.71438">
        <ele>182</ele>
        <time>2017-03-25T11:01:40Z</time>
      </trkpt>
      <trkpt lat="45.94702" lon="4.71438">
        <ele>182</ele>
        <time>2017-03-25T11:01:41Z</time>
      </trkpt>
      <trkpt lat="45.94696" lon="4.71437">
        <ele>182</ele>
        <time>2017-03-25T11:01:42Z</time>
      </trkpt>
      <trkpt lat="45.94691" lon="4.71437">
        <ele>182</ele>
        <time>2017-03-25T11:01:43Z</time>
      </trkpt>
      <trkpt lat="45.94685" lon="4.71437">
        <ele>182</ele>
        <time>2017-03-25T11:01:44Z</time>
      </trkpt>
      <trkpt lat="45.9468" lon="4.71437">
        <ele>182</ele>
        <time>2017-03-25T11:01:45Z</time>
      </trkpt>
      <trkpt lat="45.94675" lon="4.71436">
        <ele>182</ele>
        <time>2017-03-25T11:01:46Z</time>
      </trkpt>
      <trkpt lat="45.9467" lon="4.71437">
        <ele>182</ele>
        <time>2017-03-25T11:01:47Z</time>
      </trkpt>
      <trkpt lat="45.94664" lon="4.71437">
        <ele>182</ele>
        <time>2017-03-25T11:01:48Z</time>
      </trkpt>
      <trkpt lat="45.94659" lon="4.71436">
        <ele>182</ele>
        <time>2017-03-25T11:01:49Z</time>
      </trkpt>
      <trkpt lat="45.94654" lon="4.71436">
        <ele>182</ele>
        <time>2017-03-25T11:01:50Z</time>
      </trkpt>
      <trkpt lat="45.94649" lon="4.71436">
        <ele>182</ele>
        <time>2017-03-25T11:01:51Z</time>
      </trkpt>
      <trkpt lat="45.94644" lon="4.71436">
        <ele>182</ele>
        <time>2017-03-25T11:01:52Z</time>
      </trkpt>
      <trkpt lat="45.94639" lon="4.71436">
        <ele>182</ele>
        <time>2017-03-25T11:01:53Z</time>
      </trkpt>
      <trkpt lat="45.94633" lon="4.71436">
        <ele>182</ele>
        <time>2017-03-25T11:01:54Z</time>
      </trkpt>
      <trkpt lat="45.94626" lon="4.71435">
        <ele>182</ele>
        <time>2017-03-25T11:01:55Z</time>
      </trkpt>
      <trkpt lat="45.9462" lon="4.71434">
        <ele>182</ele>
        <time>2017-03-25T11:01:56Z</time>
      </trkpt>
      <trkpt lat="45.94613" lon="4.71434">
        <ele>182</ele>
        <time>2017-03-25T11:01:57Z</time>
      </trkpt>
      <trkpt lat="45.94606" lon="4.71434">
        <ele>182</ele>
        <time>2017-03-25T11:01:58Z</time>
      </trkpt>
      <trkpt lat="45.946" lon="4.71434">
        <ele>182</ele>
        <time>2017-03-25T11:01:59Z</time>
      </trkpt>
      <trkpt lat="45.94593" lon="4.71434">
        <ele>182</ele>
        <time>2017-03-25T11:02:00Z</time>
      </trkpt>
      <trkpt lat="45.94587" lon="4.71434">
        <ele>183</ele>
        <time>2017-03-25T11:02:01Z</time>
      </trkpt>
      <trkpt lat="45.94581" lon="4.71435">
        <ele>182</ele>
        <time>2017-03-25T11:02:02Z</time>
      </trkpt>
      <trkpt lat="45.94574" lon="4.71435">
        <ele>182</ele>
        <time>2017-03-25T11:02:03Z</time>
      </trkpt>
      <trkpt lat="45.94568" lon="4.71435">
        <ele>182</ele>
        <time>2017-03-25T11:02:04Z</time>
      </trkpt>
      <trkpt lat="45.94561" lon="4.71436">
        <ele>181</ele>
        <time>2017-03-25T11:02:05Z</time>
      </trkpt>
      <trkpt lat="45.94555" lon="4.71438">
        <ele>181</ele>
        <time>2017-03-25T11:02:06Z</time>
      </trkpt>
      <trkpt lat="45.94548" lon="4.7144">
        <ele>181</ele>
        <time>2017-03-25T11:02:07Z</time>
      </trkpt>
      <trkpt lat="45.94542" lon="4.71442">
        <ele>181</ele>
        <time>2017-03-25T11:02:08Z</time>
      </trkpt>
      <trkpt lat="45.94535" lon="4.71444">
        <ele>181</ele>
        <time>2017-03-25T11:02:09Z</time>
      </trkpt>
      <trkpt lat="45.94529" lon="4.71447">
        <ele>180</ele>
        <time>2017-03-25T11:02:10Z</time>
      </trkpt>
      <trkpt lat="45.94522" lon="4.7145">
        <ele>180</ele>
        <time>2017-03-25T11:02:11Z</time>
      </trkpt>
      <trkpt lat="45.94516" lon="4.71452">
        <ele>180</ele>
        <time>2017-03-25T11:02:12Z</time>
      </trkpt>
      <trkpt lat="45.94509" lon="4.71455">
        <ele>180</ele>
        <time>2017-03-25T11:02:13Z</time>
      </trkpt>
      <trkpt lat="45.94502" lon="4.71458">
        <ele>180</ele>
        <time>2017-03-25T11:02:14Z</time>
      </trkpt>
      <trkpt lat="45.94495" lon="4.7146">
        <ele>179</ele>
        <time>2017-03-25T11:02:15Z</time>
      </trkpt>
      <trkpt lat="45.94488" lon="4.71463">
        <ele>179</ele>
        <time>2017-03-25T11:02:16Z</time>
      </trkpt>
      <trkpt lat="45.94481" lon="4.71466">
        <ele>179</ele>
        <time>2017-03-25T11:02:17Z</time>
      </trkpt>
      <trkpt lat="45.94473" lon="4.7147">
        <ele>179</ele>
        <time>2017-03-25T11:02:18Z</time>
      </trkpt>
      <trkpt lat="45.94466" lon="4.71472">
        <ele>179</ele>
        <time>2017-03-25T11:02:19Z</time>
      </trkpt>
      <trkpt lat="45.94458" lon="4.71475">
        <ele>179</ele>
        <time>2017-03-25T11:02:20Z</time>
      </trkpt>
      <trkpt lat="45.94451" lon="4.71478">
        <ele>179</ele>
        <time>2017-03-25T11:02:21Z</time>
      </trkpt>
      <trkpt lat="45.94443" lon="4.7148">
        <ele>179</ele>
        <time>2017-03-25T11:02:22Z</time>
      </trkpt>
      <trkpt lat="45.94436" lon="4.71483">
        <ele>179</ele>
        <time>2017-03-25T11:02:23Z</time>
      </trkpt>
      <trkpt lat="45.94429" lon="4.71486">
        <ele>178</ele>
        <time>2017-03-25T11:02:24Z</time>
      </trkpt>
      <trkpt lat="45.94421" lon="4.71489">
        <ele>178</ele>
        <time>2017-03-25T11:02:25Z</time>
      </trkpt>
      <trkpt lat="45.94414" lon="4.71491">
        <ele>178</ele>
        <time>2017-03-25T11:02:26Z</time>
      </trkpt>
      <trkpt lat="45.94406" lon="4.71493">
        <ele>178</ele>
        <time>2017-03-25T11:02:27Z</time>
      </trkpt>
      <trkpt lat="45.94399" lon="4.71496">
        <ele>178</ele>
        <time>2017-03-25T11:02:28Z</time>
      </trkpt>
      <trkpt lat="45.94392" lon="4.71499">
        <ele>177</ele>
        <time>2017-03-25T11:02:29Z</time>
      </trkpt>
      <trkpt lat="45.94385" lon="4.71502">
        <ele>177</ele>
        <time>2017-03-25T11:02:30Z</time>
      </trkpt>
      <trkpt lat="45.94378" lon="4.71505">
        <ele>177</ele>
        <time>2017-03-25T11:02:31Z</time>
      </trkpt>
      <trkpt lat="45.94371" lon="4.71508">
        <ele>176</ele>
        <time>2017-03-25T11:02:32Z</time>
      </trkpt>
      <trkpt lat="45.94363" lon="4.71512">
        <ele>176</ele>
        <time>2017-03-25T11:02:33Z</time>
      </trkpt>
      <trkpt lat="45.94356" lon="4.71515">
        <ele>176</ele>
        <time>2017-03-25T11:02:34Z</time>
      </trkpt>
      <trkpt lat="45.94349" lon="4.71518">
        <ele>176</ele>
        <time>2017-03-25T11:02:35Z</time>
      </trkpt>
      <trkpt lat="45.94342" lon="4.7152">
        <ele>176</ele>
        <time>2017-03-25T11:02:36Z</time>
      </trkpt>
      <trkpt lat="45.94335" lon="4.71523">
        <ele>176</ele>
        <time>2017-03-25T11:02:37Z</time>
      </trkpt>
      <trkpt lat="45.94328" lon="4.71526">
        <ele>176</ele>
        <time>2017-03-25T11:02:38Z</time>
      </trkpt>
      <trkpt lat="45.94321" lon="4.71529">
        <ele>176</ele>
        <time>2017-03-25T11:02:39Z</time>
      </trkpt>
      <trkpt lat="45.94314" lon="4.71532">
        <ele>175</ele>
        <time>2017-03-25T11:02:40Z</time>
      </trkpt>
      <trkpt lat="45.94307" lon="4.71534">
        <ele>175</ele>
        <time>2017-03-25T11:02:41Z</time>
      </trkpt>
      <trkpt lat="45.943" lon="4.71536">
        <ele>175</ele>
        <time>2017-03-25T11:02:42Z</time>
      </trkpt>
      <trkpt lat="45.94294" lon="4.71539">
        <ele>175</ele>
        <time>2017-03-25T11:02:43Z</time>
      </trkpt>
      <trkpt lat="45.94287" lon="4.71541">
        <ele>175</ele>
        <time>2017-03-25T11:02:44Z</time>
      </trkpt>
      <trkpt lat="45.9428" lon="4.71544">
        <ele>175</ele>
        <time>2017-03-25T11:02:45Z</time>
      </trkpt>
      <trkpt lat="45.94274" lon="4.71546">
        <ele>175</ele>
        <time>2017-03-25T11:02:46Z</time>
      </trkpt>
      <trkpt lat="45.94267" lon="4.71549">
        <ele>175</ele>
        <time>2017-03-25T11:02:47Z</time>
      </trkpt>
      <trkpt lat="45.94261" lon="4.71551">
        <ele>175</ele>
        <time>2017-03-25T11:02:48Z</time>
      </trkpt>
      <trkpt lat="45.94255" lon="4.71554">
        <ele>175</ele>
        <time>2017-03-25T11:02:49Z</time>
      </trkpt>
      <trkpt lat="45.94249" lon="4.71556">
        <ele>174</ele>
        <time>2017-03-25T11:02:50Z</time>
      </trkpt>
      <trkpt lat="45.94243" lon="4.71559">
        <ele>174</ele>
        <time>2017-03-25T11:02:51Z</time>
      </trkpt>
      <trkpt lat="45.94237" lon="4.71561">
        <ele>174</ele>
        <time>2017-03-25T11:02:52Z</time>
      </trkpt>
      <trkpt lat="45.94231" lon="4.71563">
        <ele>174</ele>
        <time>2017-03-25T11:02:53Z</time>
      </trkpt>
      <trkpt lat="45.94225" lon="4.71566">
        <ele>174</ele>
        <time>2017-03-25T11:02:54Z</time>
      </trkpt>
      <trkpt lat="45.9422" lon="4.71569">
        <ele>174</ele>
        <time>2017-03-25T11:02:55Z</time>
      </trkpt>
      <trkpt lat="45.94214" lon="4.71571">
        <ele>174</ele>
        <time>2017-03-25T11:02:56Z</time>
      </trkpt>
      <trkpt lat="45.94209" lon="4.71572">
        <ele>174</ele>
        <time>2017-03-25T11:02:57Z</time>
      </trkpt>
      <trkpt lat="45.94204" lon="4.71574">
        <ele>174</ele>
        <time>2017-03-25T11:02:58Z</time>
      </trkpt>
      <trkpt lat="45.94198" lon="4.71577">
        <ele>174</ele>
        <time>2017-03-25T11:02:59Z</time>
      </trkpt>
      <trkpt lat="45.94192" lon="4.71579">
        <ele>174</ele>
        <time>2017-03-25T11:03:00Z</time>
      </trkpt>
      <trkpt lat="45.94186" lon="4.71582">
        <ele>174</ele>
        <time>2017-03-25T11:03:01Z</time>
      </trkpt>
      <trkpt lat="45.94181" lon="4.71584">
        <ele>173</ele>
        <time>2017-03-25T11:03:02Z</time>
      </trkpt>
      <trkpt lat="45.94174" lon="4.71586">
        <ele>174</ele>
        <time>2017-03-25T11:03:03Z</time>
      </trkpt>
      <trkpt lat="45.94167" lon="4.71589">
        <ele>174</ele>
        <time>2017-03-25T11:03:04Z</time>
      </trkpt>
      <trkpt lat="45.94161" lon="4.71591">
        <ele>174</ele>
        <time>2017-03-25T11:03:05Z</time>
      </trkpt>
      <trkpt lat="45.94154" lon="4.71594">
        <ele>173</ele>
        <time>2017-03-25T11:03:06Z</time>
      </trkpt>
      <trkpt lat="45.94147" lon="4.71596">
        <ele>173</ele>
        <time>2017-03-25T11:03:07Z</time>
      </trkpt>
      <trkpt lat="45.9414" lon="4.71599">
        <ele>173</ele>
        <time>2017-03-25T11:03:08Z</time>
      </trkpt>
      <trkpt lat="45.94134" lon="4.71601">
        <ele>173</ele>
        <time>2017-03-25T11:03:09Z</time>
      </trkpt>
      <trkpt lat="45.94128" lon="4.71604">
        <ele>173</ele>
        <time>2017-03-25T11:03:10Z</time>
      </trkpt>
      <trkpt lat="45.94122" lon="4.71606">
        <ele>173</ele>
        <time>2017-03-25T11:03:11Z</time>
      </trkpt>
      <trkpt lat="45.94116" lon="4.71609">
        <ele>173</ele>
        <time>2017-03-25T11:03:12Z</time>
      </trkpt>
      <trkpt lat="45.9411" lon="4.71611">
        <ele>173</ele>
        <time>2017-03-25T11:03:13Z</time>
      </trkpt>
      <trkpt lat="45.94104" lon="4.71614">
        <ele>173</ele>
        <time>2017-03-25T11:03:14Z</time>
      </trkpt>
      <trkpt lat="45.94098" lon="4.71616">
        <ele>173</ele>
        <time>2017-03-25T11:03:15Z</time>
      </trkpt>
      <trkpt lat="45.94092" lon="4.71618">
        <ele>173</ele>
        <time>2017-03-25T11:03:16Z</time>
      </trkpt>
      <trkpt lat="45.94086" lon="4.7162">
        <ele>173</ele>
        <time>2017-03-25T11:03:17Z</time>
      </trkpt>
      <trkpt lat="45.94081" lon="4.71622">
        <ele>174</ele>
        <time>2017-03-25T11:03:18Z</time>
      </trkpt>
      <trkpt lat="45.94075" lon="4.71624">
        <ele>174</ele>
        <time>2017-03-25T11:03:19Z</time>
      </trkpt>
      <trkpt lat="45.9407" lon="4.71626">
        <ele>174</ele>
        <time>2017-03-25T11:03:20Z</time>
      </trkpt>
      <trkpt lat="45.94064" lon="4.71628">
        <ele>174</ele>
        <time>2017-03-25T11:03:21Z</time>
      </trkpt>
      <trkpt lat="45.94059" lon="4.7163">
        <ele>174</ele>
        <time>2017-03-25T11:03:22Z</time>
      </trkpt>
      <trkpt lat="45.94053" lon="4.71632">
        <ele>175</ele>
        <time>2017-03-25T11:03:23Z</time>
      </trkpt>
      <trkpt lat="45.94047" lon="4.71634">
        <ele>175</ele>
        <time>2017-03-25T11:03:24Z</time>
      </trkpt>
      <trkpt lat="45.94042" lon="4.71637">
        <ele>175</ele>
        <time>2017-03-25T11:03:25Z</time>
      </trkpt>
      <trkpt lat="45.94036" lon="4.71639">
        <ele>175</ele>
        <time>2017-03-25T11:03:26Z</time>
      </trkpt>
      <trkpt lat="45.94031" lon="4.71641">
        <ele>175</ele>
        <time>2017-03-25T11:03:27Z</time>
      </trkpt>
      <trkpt lat="45.94026" lon="4.71643">
        <ele>175</ele>
        <time>2017-03-25T11:03:28Z</time>
      </trkpt>
      <trkpt lat="45.94021" lon="4.71646">
        <ele>175</ele>
        <time>2017-03-25T11:03:29Z</time>
      </trkpt>
      <trkpt lat="45.94017" lon="4.71648">
        <ele>176</ele>
        <time>2017-03-25T11:03:30Z</time>
      </trkpt>
      <trkpt lat="45.9401" lon="4.71654">
        <ele>176</ele>
        <time>2017-03-25T11:03:32Z</time>
      </trkpt>
      <trkpt lat="45.94006" lon="4.71656">
        <ele>176</ele>
        <time>2017-03-25T11:03:33Z</time>
      </trkpt>
      <trkpt lat="45.94" lon="4.71658">
        <ele>177</ele>
        <time>2017-03-25T11:03:34Z</time>
      </trkpt>
      <trkpt lat="45.93994" lon="4.71658">
        <ele>177</ele>
        <time>2017-03-25T11:03:35Z</time>
      </trkpt>
      <trkpt lat="45.93989" lon="4.71659">
        <ele>177</ele>
        <time>2017-03-25T11:03:36Z</time>
      </trkpt>
      <trkpt lat="45.93983" lon="4.7166">
        <ele>177</ele>
        <time>2017-03-25T11:03:37Z</time>
      </trkpt>
      <trkpt lat="45.93978" lon="4.71662">
        <ele>177</ele>
        <time>2017-03-25T11:03:38Z</time>
      </trkpt>
      <trkpt lat="45.93972" lon="4.71664">
        <ele>177</ele>
        <time>2017-03-25T11:03:39Z</time>
      </trkpt>
      <trkpt lat="45.93967" lon="4.71666">
        <ele>177</ele>
        <time>2017-03-25T11:03:40Z</time>
      </trkpt>
      <trkpt lat="45.93961" lon="4.71668">
        <ele>175</ele>
        <time>2017-03-25T11:03:41Z</time>
      </trkpt>
      <trkpt lat="45.93956" lon="4.7167">
        <ele>175</ele>
        <time>2017-03-25T11:03:42Z</time>
      </trkpt>
      <trkpt lat="45.9395" lon="4.71672">
        <ele>175</ele>
        <time>2017-03-25T11:03:43Z</time>
      </trkpt>
      <trkpt lat="45.93944" lon="4.71674">
        <ele>175</ele>
        <time>2017-03-25T11:03:44Z</time>
      </trkpt>
      <trkpt lat="45.93938" lon="4.71677">
        <ele>175</ele>
        <time>2017-03-25T11:03:45Z</time>
      </trkpt>
      <trkpt lat="45.93932" lon="4.71679">
        <ele>175</ele>
        <time>2017-03-25T11:03:46Z</time>
      </trkpt>
      <trkpt lat="45.93927" lon="4.71681">
        <ele>175</ele>
        <time>2017-03-25T11:03:47Z</time>
      </trkpt>
      <trkpt lat="45.93922" lon="4.71683">
        <ele>175</ele>
        <time>2017-03-25T11:03:48Z</time>
      </trkpt>
      <trkpt lat="45.93917" lon="4.71685">
        <ele>174</ele>
        <time>2017-03-25T11:03:49Z</time>
      </trkpt>
      <trkpt lat="45.93911" lon="4.71687">
        <ele>174</ele>
        <time>2017-03-25T11:03:50Z</time>
      </trkpt>
      <trkpt lat="45.93906" lon="4.71689">
        <ele>174</ele>
        <time>2017-03-25T11:03:51Z</time>
      </trkpt>
      <trkpt lat="45.939" lon="4.71691">
        <ele>174</ele>
        <time>2017-03-25T11:03:52Z</time>
      </trkpt>
      <trkpt lat="45.93895" lon="4.71693">
        <ele>174</ele>
        <time>2017-03-25T11:03:53Z</time>
      </trkpt>
      <trkpt lat="45.93889" lon="4.71695">
        <ele>174</ele>
        <time>2017-03-25T11:03:54Z</time>
      </trkpt>
      <trkpt lat="45.93883" lon="4.71697">
        <ele>174</ele>
        <time>2017-03-25T11:03:55Z</time>
      </trkpt>
      <trkpt lat="45.93878" lon="4.71699">
        <ele>174</ele>
        <time>2017-03-25T11:03:56Z</time>
      </trkpt>
      <trkpt lat="45.93872" lon="4.71701">
        <ele>174</ele>
        <time>2017-03-25T11:03:57Z</time>
      </trkpt>
      <trkpt lat="45.93867" lon="4.71703">
        <ele>174</ele>
        <time>2017-03-25T11:03:58Z</time>
      </trkpt>
      <trkpt lat="45.93861" lon="4.71706">
        <ele>174</ele>
        <time>2017-03-25T11:03:59Z</time>
      </trkpt>
      <trkpt lat="45.93856" lon="4.71708">
        <ele>174</ele>
        <time>2017-03-25T11:04:00Z</time>
      </trkpt>
      <trkpt lat="45.93851" lon="4.71711">
        <ele>174</ele>
        <time>2017-03-25T11:04:01Z</time>
      </trkpt>
      <trkpt lat="45.93845" lon="4.71713">
        <ele>174</ele>
        <time>2017-03-25T11:04:02Z</time>
      </trkpt>
      <trkpt lat="45.9384" lon="4.71715">
        <ele>175</ele>
        <time>2017-03-25T11:04:03Z</time>
      </trkpt>
      <trkpt lat="45.93835" lon="4.71717">
        <ele>175</ele>
        <time>2017-03-25T11:04:04Z</time>
      </trkpt>
      <trkpt lat="45.93831" lon="4.71719">
        <ele>175</ele>
        <time>2017-03-25T11:04:05Z</time>
      </trkpt>
      <trkpt lat="45.93826" lon="4.71721">
        <ele>175</ele>
        <time>2017-03-25T11:04:06Z</time>
      </trkpt>
      <trkpt lat="45.9382" lon="4.71722">
        <ele>175</ele>
        <time>2017-03-25T11:04:07Z</time>
      </trkpt>
      <trkpt lat="45.93815" lon="4.71723">
        <ele>175</ele>
        <time>2017-03-25T11:04:08Z</time>
      </trkpt>
      <trkpt lat="45.9381" lon="4.71725">
        <ele>175</ele>
        <time>2017-03-25T11:04:09Z</time>
      </trkpt>
      <trkpt lat="45.93804" lon="4.71728">
        <ele>175</ele>
        <time>2017-03-25T11:04:10Z</time>
      </trkpt>
      <trkpt lat="45.93799" lon="4.7173">
        <ele>175</ele>
        <time>2017-03-25T11:04:11Z</time>
      </trkpt>
      <trkpt lat="45.93794" lon="4.71732">
        <ele>175</ele>
        <time>2017-03-25T11:04:12Z</time>
      </trkpt>
      <trkpt lat="45.93788" lon="4.71734">
        <ele>175</ele>
        <time>2017-03-25T11:04:13Z</time>
      </trkpt>
      <trkpt lat="45.93783" lon="4.71736">
        <ele>175</ele>
        <time>2017-03-25T11:04:14Z</time>
      </trkpt>
      <trkpt lat="45.93778" lon="4.71739">
        <ele>175</ele>
        <time>2017-03-25T11:04:15Z</time>
      </trkpt>
      <trkpt lat="45.93772" lon="4.71741">
        <ele>175</ele>
        <time>2017-03-25T11:04:16Z</time>
      </trkpt>
      <trkpt lat="45.93767" lon="4.71743">
        <ele>175</ele>
        <time>2017-03-25T11:04:17Z</time>
      </trkpt>
      <trkpt lat="45.93762" lon="4.71746">
        <ele>175</ele>
        <time>2017-03-25T11:04:18Z</time>
      </trkpt>
      <trkpt lat="45.93756" lon="4.71749">
        <ele>175</ele>
        <time>2017-03-25T11:04:19Z</time>
      </trkpt>
      <trkpt lat="45.93751" lon="4.71751">
        <ele>175</ele>
        <time>2017-03-25T11:04:20Z</time>
      </trkpt>
      <trkpt lat="45.93744" lon="4.71753">
        <ele>175</ele>
        <time>2017-03-25T11:04:21Z</time>
      </trkpt>
      <trkpt lat="45.93736" lon="4.71754">
        <ele>176</ele>
        <time>2017-03-25T11:04:22Z</time>
      </trkpt>
      <trkpt lat="45.93729" lon="4.71758">
        <ele>176</ele>
        <time>2017-03-25T11:04:23Z</time>
      </trkpt>
      <trkpt lat="45.93722" lon="4.71764">
        <ele>176</ele>
        <time>2017-03-25T11:04:24Z</time>
      </trkpt>
      <trkpt lat="45.93717" lon="4.71771">
        <ele>176</ele>
        <time>2017-03-25T11:04:25Z</time>
      </trkpt>
      <trkpt lat="45.93713" lon="4.7178">
        <ele>176</ele>
        <time>2017-03-25T11:04:26Z</time>
      </trkpt>
      <trkpt lat="45.9371" lon="4.7179">
        <ele>176</ele>
        <time>2017-03-25T11:04:27Z</time>
      </trkpt>
      <trkpt lat="45.93707" lon="4.718">
        <ele>176</ele>
        <time>2017-03-25T11:04:28Z</time>
      </trkpt>
      <trkpt lat="45.93704" lon="4.7181">
        <ele>176</ele>
        <time>2017-03-25T11:04:29Z</time>
      </trkpt>
      <trkpt lat="45.937" lon="4.71819">
        <ele>176</ele>
        <time>2017-03-25T11:04:30Z</time>
      </trkpt>
      <trkpt lat="45.93697" lon="4.71829">
        <ele>176</ele>
        <time>2017-03-25T11:04:31Z</time>
      </trkpt>
      <trkpt lat="45.93693" lon="4.71838">
        <ele>175</ele>
        <time>2017-03-25T11:04:32Z</time>
      </trkpt>
      <trkpt lat="45.9369" lon="4.71847">
        <ele>175</ele>
        <time>2017-03-25T11:04:33Z</time>
      </trkpt>
      <trkpt lat="45.93686" lon="4.71856">
        <ele>175</ele>
        <time>2017-03-25T11:04:34Z</time>
      </trkpt>
      <trkpt lat="45.93683" lon="4.71864">
        <ele>175</ele>
        <time>2017-03-25T11:04:35Z</time>
      </trkpt>
      <trkpt lat="45.9368" lon="4.71873">
        <ele>175</ele>
        <time>2017-03-25T11:04:36Z</time>
      </trkpt>
      <trkpt lat="45.93677" lon="4.71881">
        <ele>175</ele>
        <time>2017-03-25T11:04:37Z</time>
      </trkpt>
      <trkpt lat="45.93673" lon="4.71889">
        <ele>175</ele>
        <time>2017-03-25T11:04:38Z</time>
      </trkpt>
      <trkpt lat="45.93671" lon="4.71896">
        <ele>175</ele>
        <time>2017-03-25T11:04:39Z</time>
      </trkpt>
      <trkpt lat="45.93668" lon="4.71902">
        <ele>175</ele>
        <time>2017-03-25T11:04:40Z</time>
      </trkpt>
      <trkpt lat="45.93666" lon="4.71908">
        <ele>176</ele>
        <time>2017-03-25T11:04:41Z</time>
      </trkpt>
      <trkpt lat="45.93663" lon="4.71919">
        <ele>175</ele>
        <time>2017-03-25T11:04:43Z</time>
      </trkpt>
      <trkpt lat="45.93663" lon="4.71922">
        <ele>175</ele>
        <time>2017-03-25T11:04:44Z</time>
      </trkpt>
      <trkpt lat="45.93663" lon="4.71924">
        <ele>175</ele>
        <time>2017-03-25T11:04:45Z</time>
      </trkpt>
      <trkpt lat="45.93663" lon="4.71926">
        <ele>175</ele>
        <time>2017-03-25T11:04:46Z</time>
      </trkpt>
      <trkpt lat="45.93664" lon="4.71926">
        <ele>175</ele>
        <time>2017-03-25T11:04:59Z</time>
      </trkpt>
      <trkpt lat="45.93664" lon="4.71927">
        <ele>175</ele>
        <time>2017-03-25T11:05:00Z</time>
      </trkpt>
      <trkpt lat="45.93661" lon="4.71938">
        <ele>175</ele>
        <time>2017-03-25T11:05:04Z</time>
      </trkpt>
      <trkpt lat="45.93661" lon="4.71942">
        <ele>175</ele>
        <time>2017-03-25T11:05:05Z</time>
      </trkpt>
      <trkpt lat="45.93658" lon="4.71952">
        <ele>175</ele>
        <time>2017-03-25T11:05:07Z</time>
      </trkpt>
      <trkpt lat="45.93657" lon="4.71958">
        <ele>175</ele>
        <time>2017-03-25T11:05:08Z</time>
      </trkpt>
      <trkpt lat="45.93654" lon="4.71965">
        <ele>175</ele>
        <time>2017-03-25T11:05:09Z</time>
      </trkpt>
      <trkpt lat="45.93652" lon="4.71971">
        <ele>175</ele>
        <time>2017-03-25T11:05:10Z</time>
      </trkpt>
      <trkpt lat="45.93649" lon="4.71978">
        <ele>175</ele>
        <time>2017-03-25T11:05:11Z</time>
      </trkpt>
      <trkpt lat="45.93647" lon="4.71985">
        <ele>175</ele>
        <time>2017-03-25T11:05:12Z</time>
      </trkpt>
      <trkpt lat="45.93644" lon="4.71992">
        <ele>175</ele>
        <time>2017-03-25T11:05:13Z</time>
      </trkpt>
      <trkpt lat="45.93642" lon="4.71999">
        <ele>175</ele>
        <time>2017-03-25T11:05:14Z</time>
      </trkpt>
      <trkpt lat="45.93639" lon="4.72007">
        <ele>174</ele>
        <time>2017-03-25T11:05:15Z</time>
      </trkpt>
      <trkpt lat="45.93636" lon="4.72014">
        <ele>174</ele>
        <time>2017-03-25T11:05:16Z</time>
      </trkpt>
      <trkpt lat="45.93633" lon="4.7202">
        <ele>174</ele>
        <time>2017-03-25T11:05:17Z</time>
      </trkpt>
      <trkpt lat="45.93629" lon="4.72027">
        <ele>174</ele>
        <time>2017-03-25T11:05:18Z</time>
      </trkpt>
      <trkpt lat="45.93627" lon="4.72035">
        <ele>175</ele>
        <time>2017-03-25T11:05:19Z</time>
      </trkpt>
      <trkpt lat="45.93624" lon="4.72042">
        <ele>175</ele>
        <time>2017-03-25T11:05:20Z</time>
      </trkpt>
      <trkpt lat="45.93622" lon="4.72048">
        <ele>175</ele>
        <time>2017-03-25T11:05:21Z</time>
      </trkpt>
      <trkpt lat="45.93619" lon="4.72056">
        <ele>175</ele>
        <time>2017-03-25T11:05:22Z</time>
      </trkpt>
      <trkpt lat="45.93617" lon="4.72063">
        <ele>175</ele>
        <time>2017-03-25T11:05:23Z</time>
      </trkpt>
      <trkpt lat="45.93615" lon="4.72069">
        <ele>175</ele>
        <time>2017-03-25T11:05:24Z</time>
      </trkpt>
      <trkpt lat="45.93612" lon="4.72076">
        <ele>175</ele>
        <time>2017-03-25T11:05:25Z</time>
      </trkpt>
      <trkpt lat="45.9361" lon="4.72083">
        <ele>175</ele>
        <time>2017-03-25T11:05:26Z</time>
      </trkpt>
      <trkpt lat="45.93607" lon="4.7209">
        <ele>174</ele>
        <time>2017-03-25T11:05:27Z</time>
      </trkpt>
      <trkpt lat="45.93604" lon="4.72096">
        <ele>174</ele>
        <time>2017-03-25T11:05:28Z</time>
      </trkpt>
      <trkpt lat="45.93601" lon="4.72102">
        <ele>174</ele>
        <time>2017-03-25T11:05:29Z</time>
      </trkpt>
      <trkpt lat="45.93599" lon="4.72109">
        <ele>174</ele>
        <time>2017-03-25T11:05:30Z</time>
      </trkpt>
      <trkpt lat="45.93596" lon="4.72115">
        <ele>174</ele>
        <time>2017-03-25T11:05:31Z</time>
      </trkpt>
      <trkpt lat="45.93593" lon="4.72121">
        <ele>174</ele>
        <time>2017-03-25T11:05:32Z</time>
      </trkpt>
      <trkpt lat="45.93591" lon="4.72128">
        <ele>174</ele>
        <time>2017-03-25T11:05:33Z</time>
      </trkpt>
      <trkpt lat="45.93588" lon="4.72137">
        <ele>173</ele>
        <time>2017-03-25T11:05:34Z</time>
      </trkpt>
      <trkpt lat="45.93585" lon="4.72145">
        <ele>173</ele>
        <time>2017-03-25T11:05:35Z</time>
      </trkpt>
      <trkpt lat="45.93583" lon="4.72153">
        <ele>174</ele>
        <time>2017-03-25T11:05:36Z</time>
      </trkpt>
      <trkpt lat="45.93577" lon="4.72161">
        <ele>173</ele>
        <time>2017-03-25T11:05:37Z</time>
      </trkpt>
      <trkpt lat="45.93573" lon="4.72167">
        <ele>173</ele>
        <time>2017-03-25T11:05:38Z</time>
      </trkpt>
      <trkpt lat="45.93569" lon="4.72173">
        <ele>173</ele>
        <time>2017-03-25T11:05:39Z</time>
      </trkpt>
      <trkpt lat="45.93566" lon="4.72179">
        <ele>173</ele>
        <time>2017-03-25T11:05:40Z</time>
      </trkpt>
      <trkpt lat="45.93564" lon="4.72186">
        <ele>173</ele>
        <time>2017-03-25T11:05:41Z</time>
      </trkpt>
      <trkpt lat="45.93559" lon="4.72193">
        <ele>173</ele>
        <time>2017-03-25T11:05:42Z</time>
      </trkpt>
      <trkpt lat="45.93555" lon="4.72199">
        <ele>173</ele>
        <time>2017-03-25T11:05:43Z</time>
      </trkpt>
      <trkpt lat="45.93551" lon="4.72205">
        <ele>173</ele>
        <time>2017-03-25T11:05:44Z</time>
      </trkpt>
      <trkpt lat="45.93548" lon="4.72211">
        <ele>173</ele>
        <time>2017-03-25T11:05:45Z</time>
      </trkpt>
      <trkpt lat="45.93545" lon="4.72217">
        <ele>172</ele>
        <time>2017-03-25T11:05:46Z</time>
      </trkpt>
      <trkpt lat="45.93542" lon="4.72223">
        <ele>172</ele>
        <time>2017-03-25T11:05:47Z</time>
      </trkpt>
      <trkpt lat="45.9354" lon="4.72229">
        <ele>172</ele>
        <time>2017-03-25T11:05:48Z</time>
      </trkpt>
      <trkpt lat="45.93537" lon="4.72234">
        <ele>172</ele>
        <time>2017-03-25T11:05:49Z</time>
      </trkpt>
      <trkpt lat="45.93534" lon="4.7224">
        <ele>172</ele>
        <time>2017-03-25T11:05:50Z</time>
      </trkpt>
      <trkpt lat="45.93532" lon="4.72246">
        <ele>172</ele>
        <time>2017-03-25T11:05:51Z</time>
      </trkpt>
      <trkpt lat="45.9353" lon="4.72252">
        <ele>172</ele>
        <time>2017-03-25T11:05:52Z</time>
      </trkpt>
      <trkpt lat="45.93528" lon="4.72258">
        <ele>172</ele>
        <time>2017-03-25T11:05:53Z</time>
      </trkpt>
      <trkpt lat="45.93526" lon="4.72264">
        <ele>172</ele>
        <time>2017-03-25T11:05:54Z</time>
      </trkpt>
      <trkpt lat="45.93524" lon="4.7227">
        <ele>172</ele>
        <time>2017-03-25T11:05:55Z</time>
      </trkpt>
      <trkpt lat="45.93522" lon="4.72276">
        <ele>172</ele>
        <time>2017-03-25T11:05:56Z</time>
      </trkpt>
      <trkpt lat="45.9352" lon="4.72282">
        <ele>172</ele>
        <time>2017-03-25T11:05:57Z</time>
      </trkpt>
      <trkpt lat="45.93518" lon="4.72287">
        <ele>172</ele>
        <time>2017-03-25T11:05:58Z</time>
      </trkpt>
      <trkpt lat="45.93515" lon="4.72293">
        <ele>172</ele>
        <time>2017-03-25T11:05:59Z</time>
      </trkpt>
      <trkpt lat="45.93512" lon="4.72299">
        <ele>172</ele>
        <time>2017-03-25T11:06:00Z</time>
      </trkpt>
      <trkpt lat="45.93509" lon="4.72304">
        <ele>173</ele>
        <time>2017-03-25T11:06:01Z</time>
      </trkpt>
      <trkpt lat="45.93506" lon="4.72309">
        <ele>173</ele>
        <time>2017-03-25T11:06:02Z</time>
      </trkpt>
      <trkpt lat="45.93502" lon="4.72315">
        <ele>173</ele>
        <time>2017-03-25T11:06:03Z</time>
      </trkpt>
      <trkpt lat="45.93498" lon="4.72321">
        <ele>173</ele>
        <time>2017-03-25T11:06:04Z</time>
      </trkpt>
      <trkpt lat="45.93495" lon="4.72326">
        <ele>173</ele>
        <time>2017-03-25T11:06:05Z</time>
      </trkpt>
      <trkpt lat="45.93492" lon="4.72332">
        <ele>173</ele>
        <time>2017-03-25T11:06:06Z</time>
      </trkpt>
      <trkpt lat="45.93488" lon="4.72337">
        <ele>173</ele>
        <time>2017-03-25T11:06:07Z</time>
      </trkpt>
      <trkpt lat="45.93485" lon="4.72342">
        <ele>173</ele>
        <time>2017-03-25T11:06:08Z</time>
      </trkpt>
      <trkpt lat="45.93482" lon="4.72347">
        <ele>173</ele>
        <time>2017-03-25T11:06:09Z</time>
      </trkpt>
      <trkpt lat="45.93477" lon="4.72352">
        <ele>173</ele>
        <time>2017-03-25T11:06:10Z</time>
      </trkpt>
      <trkpt lat="45.93473" lon="4.72357">
        <ele>173</ele>
        <time>2017-03-25T11:06:11Z</time>
      </trkpt>
      <trkpt lat="45.93469" lon="4.72363">
        <ele>173</ele>
        <time>2017-03-25T11:06:12Z</time>
      </trkpt>
      <trkpt lat="45.93466" lon="4.72368">
        <ele>173</ele>
        <time>2017-03-25T11:06:13Z</time>
      </trkpt>
      <trkpt lat="45.93462" lon="4.72374">
        <ele>173</ele>
        <time>2017-03-25T11:06:14Z</time>
      </trkpt>
      <trkpt lat="45.93458" lon="4.72379">
        <ele>173</ele>
        <time>2017-03-25T11:06:15Z</time>
      </trkpt>
      <trkpt lat="45.93453" lon="4.72385">
        <ele>173</ele>
        <time>2017-03-25T11:06:16Z</time>
      </trkpt>
      <trkpt lat="45.93447" lon="4.72389">
        <ele>173</ele>
        <time>2017-03-25T11:06:17Z</time>
      </trkpt>
      <trkpt lat="45.93441" lon="4.72393">
        <ele>173</ele>
        <time>2017-03-25T11:06:18Z</time>
      </trkpt>
      <trkpt lat="45.93435" lon="4.72397">
        <ele>173</ele>
        <time>2017-03-25T11:06:19Z</time>
      </trkpt>
      <trkpt lat="45.9343" lon="4.724">
        <ele>174</ele>
        <time>2017-03-25T11:06:20Z</time>
      </trkpt>
      <trkpt lat="45.93424" lon="4.72402">
        <ele>174</ele>
        <time>2017-03-25T11:06:21Z</time>
      </trkpt>
      <trkpt lat="45.93418" lon="4.72404">
        <ele>174</ele>
        <time>2017-03-25T11:06:22Z</time>
      </trkpt>
      <trkpt lat="45.93413" lon="4.72406">
        <ele>174</ele>
        <time>2017-03-25T11:06:23Z</time>
      </trkpt>
      <trkpt lat="45.93407" lon="4.72407">
        <ele>174</ele>
        <time>2017-03-25T11:06:24Z</time>
      </trkpt>
      <trkpt lat="45.93402" lon="4.72408">
        <ele>174</ele>
        <time>2017-03-25T11:06:25Z</time>
      </trkpt>
      <trkpt lat="45.93396" lon="4.72406">
        <ele>174</ele>
        <time>2017-03-25T11:06:26Z</time>
      </trkpt>
      <trkpt lat="45.93391" lon="4.72405">
        <ele>174</ele>
        <time>2017-03-25T11:06:27Z</time>
      </trkpt>
      <trkpt lat="45.93386" lon="4.72407">
        <ele>174</ele>
        <time>2017-03-25T11:06:28Z</time>
      </trkpt>
      <trkpt lat="45.93383" lon="4.72412">
        <ele>174</ele>
        <time>2017-03-25T11:06:29Z</time>
      </trkpt>
      <trkpt lat="45.93381" lon="4.72419">
        <ele>173</ele>
        <time>2017-03-25T11:06:30Z</time>
      </trkpt>
      <trkpt lat="45.93381" lon="4.72426">
        <ele>173</ele>
        <time>2017-03-25T11:06:31Z</time>
      </trkpt>
      <trkpt lat="45.93383" lon="4.72433">
        <ele>173</ele>
        <time>2017-03-25T11:06:32Z</time>
      </trkpt>
      <trkpt lat="45.93385" lon="4.7244">
        <ele>173</ele>
        <time>2017-03-25T11:06:33Z</time>
      </trkpt>
      <trkpt lat="45.93387" lon="4.72447">
        <ele>173</ele>
        <time>2017-03-25T11:06:34Z</time>
      </trkpt>
      <trkpt lat="45.93388" lon="4.72455">
        <ele>173</ele>
        <time>2017-03-25T11:06:35Z</time>
      </trkpt>
      <trkpt lat="45.93387" lon="4.72463">
        <ele>173</ele>
        <time>2017-03-25T11:06:36Z</time>
      </trkpt>
      <trkpt lat="45.93385" lon="4.72469">
        <ele>173</ele>
        <time>2017-03-25T11:06:37Z</time>
      </trkpt>
      <trkpt lat="45.93381" lon="4.72473">
        <ele>173</ele>
        <time>2017-03-25T11:06:38Z</time>
      </trkpt>
      <trkpt lat="45.93377" lon="4.72478">
        <ele>173</ele>
        <time>2017-03-25T11:06:39Z</time>
      </trkpt>
      <trkpt lat="45.93373" lon="4.72482">
        <ele>173</ele>
        <time>2017-03-25T11:06:40Z</time>
      </trkpt>
      <trkpt lat="45.93369" lon="4.72487">
        <ele>173</ele>
        <time>2017-03-25T11:06:41Z</time>
      </trkpt>
      <trkpt lat="45.93365" lon="4.72491">
        <ele>173</ele>
        <time>2017-03-25T11:06:42Z</time>
      </trkpt>
      <trkpt lat="45.93362" lon="4.72496">
        <ele>173</ele>
        <time>2017-03-25T11:06:43Z</time>
      </trkpt>
      <trkpt lat="45.93357" lon="4.72501">
        <ele>172</ele>
        <time>2017-03-25T11:06:44Z</time>
      </trkpt>
      <trkpt lat="45.93353" lon="4.72506">
        <ele>172</ele>
        <time>2017-03-25T11:06:45Z</time>
      </trkpt>
      <trkpt lat="45.93349" lon="4.72511">
        <ele>172</ele>
        <time>2017-03-25T11:06:46Z</time>
      </trkpt>
      <trkpt lat="45.93344" lon="4.72516">
        <ele>172</ele>
        <time>2017-03-25T11:06:47Z</time>
      </trkpt>
      <trkpt lat="45.9334" lon="4.72521">
        <ele>172</ele>
        <time>2017-03-25T11:06:48Z</time>
      </trkpt>
      <trkpt lat="45.93335" lon="4.72526">
        <ele>172</ele>
        <time>2017-03-25T11:06:49Z</time>
      </trkpt>
      <trkpt lat="45.93331" lon="4.72531">
        <ele>172</ele>
        <time>2017-03-25T11:06:50Z</time>
      </trkpt>
      <trkpt lat="45.93327" lon="4.72535">
        <ele>172</ele>
        <time>2017-03-25T11:06:51Z</time>
      </trkpt>
      <trkpt lat="45.93323" lon="4.7254">
        <ele>172</ele>
        <time>2017-03-25T11:06:52Z</time>
      </trkpt>
      <trkpt lat="45.9332" lon="4.72544">
        <ele>172</ele>
        <time>2017-03-25T11:06:53Z</time>
      </trkpt>
      <trkpt lat="45.93316" lon="4.72548">
        <ele>172</ele>
        <time>2017-03-25T11:06:54Z</time>
      </trkpt>
      <trkpt lat="45.93312" lon="4.72553">
        <ele>172</ele>
        <time>2017-03-25T11:06:55Z</time>
      </trkpt>
      <trkpt lat="45.93307" lon="4.72557">
        <ele>172</ele>
        <time>2017-03-25T11:06:56Z</time>
      </trkpt>
      <trkpt lat="45.93303" lon="4.72562">
        <ele>172</ele>
        <time>2017-03-25T11:06:57Z</time>
      </trkpt>
      <trkpt lat="45.93298" lon="4.72567">
        <ele>172</ele>
        <time>2017-03-25T11:06:58Z</time>
      </trkpt>
      <trkpt lat="45.93293" lon="4.72573">
        <ele>172</ele>
        <time>2017-03-25T11:06:59Z</time>
      </trkpt>
      <trkpt lat="45.93288" lon="4.72579">
        <ele>171</ele>
        <time>2017-03-25T11:07:00Z</time>
      </trkpt>
      <trkpt lat="45.93283" lon="4.72584">
        <ele>170</ele>
        <time>2017-03-25T11:07:01Z</time>
      </trkpt>
      <trkpt lat="45.93279" lon="4.7259">
        <ele>170</ele>
        <time>2017-03-25T11:07:02Z</time>
      </trkpt>
      <trkpt lat="45.93274" lon="4.72595">
        <ele>170</ele>
        <time>2017-03-25T11:07:03Z</time>
      </trkpt>
      <trkpt lat="45.9327" lon="4.72601">
        <ele>170</ele>
        <time>2017-03-25T11:07:04Z</time>
      </trkpt>
      <trkpt lat="45.93265" lon="4.72606">
        <ele>170</ele>
        <time>2017-03-25T11:07:05Z</time>
      </trkpt>
      <trkpt lat="45.93261" lon="4.72611">
        <ele>170</ele>
        <time>2017-03-25T11:07:06Z</time>
      </trkpt>
      <trkpt lat="45.93257" lon="4.72616">
        <ele>170</ele>
        <time>2017-03-25T11:07:07Z</time>
      </trkpt>
      <trkpt lat="45.93253" lon="4.7262">
        <ele>170</ele>
        <time>2017-03-25T11:07:08Z</time>
      </trkpt>
      <trkpt lat="45.93249" lon="4.72626">
        <ele>170</ele>
        <time>2017-03-25T11:07:09Z</time>
      </trkpt>
      <trkpt lat="45.93244" lon="4.72631">
        <ele>170</ele>
        <time>2017-03-25T11:07:10Z</time>
      </trkpt>
      <trkpt lat="45.9324" lon="4.72637">
        <ele>170</ele>
        <time>2017-03-25T11:07:11Z</time>
      </trkpt>
      <trkpt lat="45.93236" lon="4.72642">
        <ele>170</ele>
        <time>2017-03-25T11:07:12Z</time>
      </trkpt>
      <trkpt lat="45.93231" lon="4.72647">
        <ele>170</ele>
        <time>2017-03-25T11:07:13Z</time>
      </trkpt>
      <trkpt lat="45.93227" lon="4.72652">
        <ele>170</ele>
        <time>2017-03-25T11:07:14Z</time>
      </trkpt>
      <trkpt lat="45.93223" lon="4.72657">
        <ele>170</ele>
        <time>2017-03-25T11:07:15Z</time>
      </trkpt>
      <trkpt lat="45.93219" lon="4.72662">
        <ele>170</ele>
        <time>2017-03-25T11:07:16Z</time>
      </trkpt>
      <trkpt lat="45.93215" lon="4.72666">
        <ele>170</ele>
        <time>2017-03-25T11:07:17Z</time>
      </trkpt>
      <trkpt lat="45.93211" lon="4.72671">
        <ele>169</ele>
        <time>2017-03-25T11:07:18Z</time>
      </trkpt>
      <trkpt lat="45.93207" lon="4.72675">
        <ele>169</ele>
        <time>2017-03-25T11:07:19Z</time>
      </trkpt>
      <trkpt lat="45.93203" lon="4.72679">
        <ele>169</ele>
        <time>2017-03-25T11:07:20Z</time>
      </trkpt>
      <trkpt lat="45.93199" lon="4.72683">
        <ele>169</ele>
        <time>2017-03-25T11:07:21Z</time>
      </trkpt>
      <trkpt lat="45.93195" lon="4.72688">
        <ele>169</ele>
        <time>2017-03-25T11:07:22Z</time>
      </trkpt>
      <trkpt lat="45.93191" lon="4.72693">
        <ele>169</ele>
        <time>2017-03-25T11:07:23Z</time>
      </trkpt>
      <trkpt lat="45.93187" lon="4.72698">
        <ele>169</ele>
        <time>2017-03-25T11:07:24Z</time>
      </trkpt>
      <trkpt lat="45.93183" lon="4.72704">
        <ele>169</ele>
        <time>2017-03-25T11:07:25Z</time>
      </trkpt>
      <trkpt lat="45.93178" lon="4.72709">
        <ele>169</ele>
        <time>2017-03-25T11:07:26Z</time>
      </trkpt>
      <trkpt lat="45.93174" lon="4.72714">
        <ele>170</ele>
        <time>2017-03-25T11:07:27Z</time>
      </trkpt>
      <trkpt lat="45.9317" lon="4.7272">
        <ele>170</ele>
        <time>2017-03-25T11:07:28Z</time>
      </trkpt>
      <trkpt lat="45.93166" lon="4.72725">
        <ele>170</ele>
        <time>2017-03-25T11:07:29Z</time>
      </trkpt>
      <trkpt lat="45.93161" lon="4.7273">
        <ele>170</ele>
        <time>2017-03-25T11:07:30Z</time>
      </trkpt>
      <trkpt lat="45.93157" lon="4.72735">
        <ele>170</ele>
        <time>2017-03-25T11:07:31Z</time>
      </trkpt>
      <trkpt lat="45.93152" lon="4.7274">
        <ele>170</ele>
        <time>2017-03-25T11:07:32Z</time>
      </trkpt>
      <trkpt lat="45.93147" lon="4.72745">
        <ele>170</ele>
        <time>2017-03-25T11:07:33Z</time>
      </trkpt>
      <trkpt lat="45.93143" lon="4.7275">
        <ele>170</ele>
        <time>2017-03-25T11:07:34Z</time>
      </trkpt>
      <trkpt lat="45.93139" lon="4.72755">
        <ele>171</ele>
        <time>2017-03-25T11:07:35Z</time>
      </trkpt>
      <trkpt lat="45.93134" lon="4.72761">
        <ele>171</ele>
        <time>2017-03-25T11:07:36Z</time>
      </trkpt>
      <trkpt lat="45.9313" lon="4.72766">
        <ele>171</ele>
        <time>2017-03-25T11:07:37Z</time>
      </trkpt>
      <trkpt lat="45.93125" lon="4.72771">
        <ele>171</ele>
        <time>2017-03-25T11:07:38Z</time>
      </trkpt>
      <trkpt lat="45.93121" lon="4.72776">
        <ele>171</ele>
        <time>2017-03-25T11:07:39Z</time>
      </trkpt>
      <trkpt lat="45.93117" lon="4.72781">
        <ele>171</ele>
        <time>2017-03-25T11:07:40Z</time>
      </trkpt>
      <trkpt lat="45.93113" lon="4.72786">
        <ele>171</ele>
        <time>2017-03-25T11:07:41Z</time>
      </trkpt>
      <trkpt lat="45.93109" lon="4.72791">
        <ele>171</ele>
        <time>2017-03-25T11:07:42Z</time>
      </trkpt>
      <trkpt lat="45.93105" lon="4.72795">
        <ele>171</ele>
        <time>2017-03-25T11:07:43Z</time>
      </trkpt>
      <trkpt lat="45.93101" lon="4.728">
        <ele>171</ele>
        <time>2017-03-25T11:07:44Z</time>
      </trkpt>
      <trkpt lat="45.93097" lon="4.72805">
        <ele>171</ele>
        <time>2017-03-25T11:07:45Z</time>
      </trkpt>
      <trkpt lat="45.93092" lon="4.7281">
        <ele>172</ele>
        <time>2017-03-25T11:07:46Z</time>
      </trkpt>
      <trkpt lat="45.93088" lon="4.72815">
        <ele>172</ele>
        <time>2017-03-25T11:07:47Z</time>
      </trkpt>
      <trkpt lat="45.93083" lon="4.7282">
        <ele>173</ele>
        <time>2017-03-25T11:07:48Z</time>
      </trkpt>
      <trkpt lat="45.93079" lon="4.72825">
        <ele>173</ele>
        <time>2017-03-25T11:07:49Z</time>
      </trkpt>
      <trkpt lat="45.93075" lon="4.72829">
        <ele>173</ele>
        <time>2017-03-25T11:07:50Z</time>
      </trkpt>
      <trkpt lat="45.93072" lon="4.72834">
        <ele>173</ele>
        <time>2017-03-25T11:07:51Z</time>
      </trkpt>
      <trkpt lat="45.93068" lon="4.72839">
        <ele>173</ele>
        <time>2017-03-25T11:07:52Z</time>
      </trkpt>
      <trkpt lat="45.93064" lon="4.72843">
        <ele>172</ele>
        <time>2017-03-25T11:07:53Z</time>
      </trkpt>
      <trkpt lat="45.93059" lon="4.7285">
        <ele>172</ele>
        <time>2017-03-25T11:07:54Z</time>
      </trkpt>
      <trkpt lat="45.93054" lon="4.72855">
        <ele>172</ele>
        <time>2017-03-25T11:07:55Z</time>
      </trkpt>
      <trkpt lat="45.93048" lon="4.72858">
        <ele>172</ele>
        <time>2017-03-25T11:07:56Z</time>
      </trkpt>
      <trkpt lat="45.93044" lon="4.72862">
        <ele>172</ele>
        <time>2017-03-25T11:07:57Z</time>
      </trkpt>
      <trkpt lat="45.93039" lon="4.72866">
        <ele>172</ele>
        <time>2017-03-25T11:07:58Z</time>
      </trkpt>
      <trkpt lat="45.93035" lon="4.72872">
        <ele>172</ele>
        <time>2017-03-25T11:07:59Z</time>
      </trkpt>
      <trkpt lat="45.93031" lon="4.72877">
        <ele>172</ele>
        <time>2017-03-25T11:08:00Z</time>
      </trkpt>
      <trkpt lat="45.93027" lon="4.72882">
        <ele>172</ele>
        <time>2017-03-25T11:08:01Z</time>
      </trkpt>
      <trkpt lat="45.93023" lon="4.72888">
        <ele>172</ele>
        <time>2017-03-25T11:08:02Z</time>
      </trkpt>
      <trkpt lat="45.93018" lon="4.72893">
        <ele>172</ele>
        <time>2017-03-25T11:08:03Z</time>
      </trkpt>
      <trkpt lat="45.93014" lon="4.72898">
        <ele>172</ele>
        <time>2017-03-25T11:08:04Z</time>
      </trkpt>
      <trkpt lat="45.9301" lon="4.72904">
        <ele>171</ele>
        <time>2017-03-25T11:08:05Z</time>
      </trkpt>
      <trkpt lat="45.93005" lon="4.72909">
        <ele>171</ele>
        <time>2017-03-25T11:08:06Z</time>
      </trkpt>
      <trkpt lat="45.93001" lon="4.72915">
        <ele>171</ele>
        <time>2017-03-25T11:08:07Z</time>
      </trkpt>
      <trkpt lat="45.92996" lon="4.72921">
        <ele>171</ele>
        <time>2017-03-25T11:08:08Z</time>
      </trkpt>
      <trkpt lat="45.92991" lon="4.72927">
        <ele>171</ele>
        <time>2017-03-25T11:08:09Z</time>
      </trkpt>
      <trkpt lat="45.92987" lon="4.72932">
        <ele>171</ele>
        <time>2017-03-25T11:08:10Z</time>
      </trkpt>
      <trkpt lat="45.92982" lon="4.72938">
        <ele>171</ele>
        <time>2017-03-25T11:08:11Z</time>
      </trkpt>
      <trkpt lat="45.92978" lon="4.72943">
        <ele>171</ele>
        <time>2017-03-25T11:08:12Z</time>
      </trkpt>
      <trkpt lat="45.92973" lon="4.72948">
        <ele>171</ele>
        <time>2017-03-25T11:08:13Z</time>
      </trkpt>
      <trkpt lat="45.92968" lon="4.72953">
        <ele>171</ele>
        <time>2017-03-25T11:08:14Z</time>
      </trkpt>
      <trkpt lat="45.92964" lon="4.72958">
        <ele>171</ele>
        <time>2017-03-25T11:08:15Z</time>
      </trkpt>
      <trkpt lat="45.9296" lon="4.72964">
        <ele>171</ele>
        <time>2017-03-25T11:08:16Z</time>
      </trkpt>
      <trkpt lat="45.92955" lon="4.72969">
        <ele>171</ele>
        <time>2017-03-25T11:08:17Z</time>
      </trkpt>
      <trkpt lat="45.92951" lon="4.72975">
        <ele>171</ele>
        <time>2017-03-25T11:08:18Z</time>
      </trkpt>
      <trkpt lat="45.92946" lon="4.7298">
        <ele>171</ele>
        <time>2017-03-25T11:08:19Z</time>
      </trkpt>
      <trkpt lat="45.92942" lon="4.72986">
        <ele>171</ele>
        <time>2017-03-25T11:08:20Z</time>
      </trkpt>
      <trkpt lat="45.92937" lon="4.72992">
        <ele>171</ele>
        <time>2017-03-25T11:08:21Z</time>
      </trkpt>
      <trkpt lat="45.92932" lon="4.72998">
        <ele>172</ele>
        <time>2017-03-25T11:08:22Z</time>
      </trkpt>
      <trkpt lat="45.92928" lon="4.73003">
        <ele>172</ele>
        <time>2017-03-25T11:08:23Z</time>
      </trkpt>
      <trkpt lat="45.92923" lon="4.73009">
        <ele>172</ele>
        <time>2017-03-25T11:08:24Z</time>
      </trkpt>
      <trkpt lat="45.92919" lon="4.73014">
        <ele>172</ele>
        <time>2017-03-25T11:08:25Z</time>
      </trkpt>
      <trkpt lat="45.92915" lon="4.73019">
        <ele>172</ele>
        <time>2017-03-25T11:08:26Z</time>
      </trkpt>
      <trkpt lat="45.9291" lon="4.73024">
        <ele>172</ele>
        <time>2017-03-25T11:08:27Z</time>
      </trkpt>
      <trkpt lat="45.92907" lon="4.73029">
        <ele>172</ele>
        <time>2017-03-25T11:08:28Z</time>
      </trkpt>
      <trkpt lat="45.92903" lon="4.73035">
        <ele>172</ele>
        <time>2017-03-25T11:08:29Z</time>
      </trkpt>
      <trkpt lat="45.92899" lon="4.7304">
        <ele>172</ele>
        <time>2017-03-25T11:08:30Z</time>
      </trkpt>
      <trkpt lat="45.92896" lon="4.73046">
        <ele>172</ele>
        <time>2017-03-25T11:08:31Z</time>
      </trkpt>
      <trkpt lat="45.92892" lon="4.73051">
        <ele>172</ele>
        <time>2017-03-25T11:08:32Z</time>
      </trkpt>
      <trkpt lat="45.92889" lon="4.73057">
        <ele>172</ele>
        <time>2017-03-25T11:08:33Z</time>
      </trkpt>
      <trkpt lat="45.92885" lon="4.73064">
        <ele>172</ele>
        <time>2017-03-25T11:08:34Z</time>
      </trkpt>
      <trkpt lat="45.92882" lon="4.7307">
        <ele>172</ele>
        <time>2017-03-25T11:08:35Z</time>
      </trkpt>
      <trkpt lat="45.92879" lon="4.73076">
        <ele>172</ele>
        <time>2017-03-25T11:08:36Z</time>
      </trkpt>
      <trkpt lat="45.92876" lon="4.73083">
        <ele>172</ele>
        <time>2017-03-25T11:08:37Z</time>
      </trkpt>
      <trkpt lat="45.92874" lon="4.73089">
        <ele>172</ele>
        <time>2017-03-25T11:08:38Z</time>
      </trkpt>
      <trkpt lat="45.92871" lon="4.73096">
        <ele>172</ele>
        <time>2017-03-25T11:08:39Z</time>
      </trkpt>
      <trkpt lat="45.92869" lon="4.73103">
        <ele>172</ele>
        <time>2017-03-25T11:08:40Z</time>
      </trkpt>
      <trkpt lat="45.92867" lon="4.73109">
        <ele>171</ele>
        <time>2017-03-25T11:08:41Z</time>
      </trkpt>
      <trkpt lat="45.92866" lon="4.73116">
        <ele>171</ele>
        <time>2017-03-25T11:08:42Z</time>
      </trkpt>
      <trkpt lat="45.92864" lon="4.73123">
        <ele>171</ele>
        <time>2017-03-25T11:08:43Z</time>
      </trkpt>
      <trkpt lat="45.92863" lon="4.73131">
        <ele>171</ele>
        <time>2017-03-25T11:08:44Z</time>
      </trkpt>
      <trkpt lat="45.92862" lon="4.73139">
        <ele>171</ele>
        <time>2017-03-25T11:08:45Z</time>
      </trkpt>
      <trkpt lat="45.92861" lon="4.73147">
        <ele>171</ele>
        <time>2017-03-25T11:08:46Z</time>
      </trkpt>
      <trkpt lat="45.9286" lon="4.73155">
        <ele>171</ele>
        <time>2017-03-25T11:08:47Z</time>
      </trkpt>
      <trkpt lat="45.92859" lon="4.73164">
        <ele>171</ele>
        <time>2017-03-25T11:08:48Z</time>
      </trkpt>
      <trkpt lat="45.92858" lon="4.73172">
        <ele>171</ele>
        <time>2017-03-25T11:08:49Z</time>
      </trkpt>
      <trkpt lat="45.92857" lon="4.7318">
        <ele>171</ele>
        <time>2017-03-25T11:08:50Z</time>
      </trkpt>
      <trkpt lat="45.92856" lon="4.73189">
        <ele>171</ele>
        <time>2017-03-25T11:08:51Z</time>
      </trkpt>
      <trkpt lat="45.92855" lon="4.73197">
        <ele>171</ele>
        <time>2017-03-25T11:08:52Z</time>
      </trkpt>
      <trkpt lat="45.92855" lon="4.73205">
        <ele>171</ele>
        <time>2017-03-25T11:08:53Z</time>
      </trkpt>
      <trkpt lat="45.92854" lon="4.73212">
        <ele>171</ele>
        <time>2017-03-25T11:08:54Z</time>
      </trkpt>
      <trkpt lat="45.92853" lon="4.7322">
        <ele>171</ele>
        <time>2017-03-25T11:08:55Z</time>
      </trkpt>
      <trkpt lat="45.92852" lon="4.73227">
        <ele>171</ele>
        <time>2017-03-25T11:08:56Z</time>
      </trkpt>
      <trkpt lat="45.92852" lon="4.73235">
        <ele>171</ele>
        <time>2017-03-25T11:08:57Z</time>
      </trkpt>
      <trkpt lat="45.92851" lon="4.73242">
        <ele>171</ele>
        <time>2017-03-25T11:08:58Z</time>
      </trkpt>
      <trkpt lat="45.9285" lon="4.73249">
        <ele>170</ele>
        <time>2017-03-25T11:08:59Z</time>
      </trkpt>
      <trkpt lat="45.92849" lon="4.73257">
        <ele>171</ele>
        <time>2017-03-25T11:09:00Z</time>
      </trkpt>
      <trkpt lat="45.92848" lon="4.73264">
        <ele>171</ele>
        <time>2017-03-25T11:09:01Z</time>
      </trkpt>
      <trkpt lat="45.92847" lon="4.73272">
        <ele>171</ele>
        <time>2017-03-25T11:09:02Z</time>
      </trkpt>
      <trkpt lat="45.92845" lon="4.7328">
        <ele>171</ele>
        <time>2017-03-25T11:09:03Z</time>
      </trkpt>
      <trkpt lat="45.92845" lon="4.73288">
        <ele>171</ele>
        <time>2017-03-25T11:09:04Z</time>
      </trkpt>
      <trkpt lat="45.92844" lon="4.73296">
        <ele>171</ele>
        <time>2017-03-25T11:09:05Z</time>
      </trkpt>
      <trkpt lat="45.92842" lon="4.73305">
        <ele>171</ele>
        <time>2017-03-25T11:09:06Z</time>
      </trkpt>
      <trkpt lat="45.92841" lon="4.73314">
        <ele>171</ele>
        <time>2017-03-25T11:09:07Z</time>
      </trkpt>
      <trkpt lat="45.9284" lon="4.73323">
        <ele>171</ele>
        <time>2017-03-25T11:09:08Z</time>
      </trkpt>
      <trkpt lat="45.92839" lon="4.73331">
        <ele>171</ele>
        <time>2017-03-25T11:09:09Z</time>
      </trkpt>
      <trkpt lat="45.92838" lon="4.73339">
        <ele>171</ele>
        <time>2017-03-25T11:09:10Z</time>
      </trkpt>
      <trkpt lat="45.92837" lon="4.73347">
        <ele>171</ele>
        <time>2017-03-25T11:09:11Z</time>
      </trkpt>
      <trkpt lat="45.92836" lon="4.73355">
        <ele>171</ele>
        <time>2017-03-25T11:09:12Z</time>
      </trkpt>
      <trkpt lat="45.92835" lon="4.73363">
        <ele>171</ele>
        <time>2017-03-25T11:09:13Z</time>
      </trkpt>
      <trkpt lat="45.92834" lon="4.7337">
        <ele>171</ele>
        <time>2017-03-25T11:09:14Z</time>
      </trkpt>
      <trkpt lat="45.92834" lon="4.73378">
        <ele>172</ele>
        <time>2017-03-25T11:09:15Z</time>
      </trkpt>
      <trkpt lat="45.92833" lon="4.73385">
        <ele>171</ele>
        <time>2017-03-25T11:09:16Z</time>
      </trkpt>
      <trkpt lat="45.92832" lon="4.73392">
        <ele>172</ele>
        <time>2017-03-25T11:09:17Z</time>
      </trkpt>
      <trkpt lat="45.92831" lon="4.73399">
        <ele>172</ele>
        <time>2017-03-25T11:09:18Z</time>
      </trkpt>
      <trkpt lat="45.9283" lon="4.73406">
        <ele>172</ele>
        <time>2017-03-25T11:09:19Z</time>
      </trkpt>
      <trkpt lat="45.92829" lon="4.73414">
        <ele>172</ele>
        <time>2017-03-25T11:09:20Z</time>
      </trkpt>
      <trkpt lat="45.92828" lon="4.73422">
        <ele>172</ele>
        <time>2017-03-25T11:09:21Z</time>
      </trkpt>
      <trkpt lat="45.92827" lon="4.73429">
        <ele>172</ele>
        <time>2017-03-25T11:09:22Z</time>
      </trkpt>
      <trkpt lat="45.92826" lon="4.73438">
        <ele>172</ele>
        <time>2017-03-25T11:09:23Z</time>
      </trkpt>
      <trkpt lat="45.92826" lon="4.73445">
        <ele>172</ele>
        <time>2017-03-25T11:09:24Z</time>
      </trkpt>
      <trkpt lat="45.92826" lon="4.73453">
        <ele>172</ele>
        <time>2017-03-25T11:09:25Z</time>
      </trkpt>
      <trkpt lat="45.92824" lon="4.73462">
        <ele>171</ele>
        <time>2017-03-25T11:09:26Z</time>
      </trkpt>
      <trkpt lat="45.92823" lon="4.73471">
        <ele>172</ele>
        <time>2017-03-25T11:09:27Z</time>
      </trkpt>
      <trkpt lat="45.92822" lon="4.73479">
        <ele>172</ele>
        <time>2017-03-25T11:09:28Z</time>
      </trkpt>
      <trkpt lat="45.92821" lon="4.73487">
        <ele>172</ele>
        <time>2017-03-25T11:09:29Z</time>
      </trkpt>
      <trkpt lat="45.9282" lon="4.73495">
        <ele>172</ele>
        <time>2017-03-25T11:09:30Z</time>
      </trkpt>
      <trkpt lat="45.92819" lon="4.73503">
        <ele>172</ele>
        <time>2017-03-25T11:09:31Z</time>
      </trkpt>
      <trkpt lat="45.92818" lon="4.73511">
        <ele>172</ele>
        <time>2017-03-25T11:09:32Z</time>
      </trkpt>
      <trkpt lat="45.92817" lon="4.73518">
        <ele>172</ele>
        <time>2017-03-25T11:09:33Z</time>
      </trkpt>
      <trkpt lat="45.92816" lon="4.73526">
        <ele>172</ele>
        <time>2017-03-25T11:09:34Z</time>
      </trkpt>
      <trkpt lat="45.92816" lon="4.73533">
        <ele>172</ele>
        <time>2017-03-25T11:09:35Z</time>
      </trkpt>
      <trkpt lat="45.92815" lon="4.73541">
        <ele>172</ele>
        <time>2017-03-25T11:09:36Z</time>
      </trkpt>
      <trkpt lat="45.92815" lon="4.73548">
        <ele>171</ele>
        <time>2017-03-25T11:09:37Z</time>
      </trkpt>
      <trkpt lat="45.92814" lon="4.73556">
        <ele>171</ele>
        <time>2017-03-25T11:09:38Z</time>
      </trkpt>
      <trkpt lat="45.92814" lon="4.73564">
        <ele>171</ele>
        <time>2017-03-25T11:09:39Z</time>
      </trkpt>
      <trkpt lat="45.92813" lon="4.73572">
        <ele>171</ele>
        <time>2017-03-25T11:09:40Z</time>
      </trkpt>
      <trkpt lat="45.92812" lon="4.7358">
        <ele>171</ele>
        <time>2017-03-25T11:09:41Z</time>
      </trkpt>
      <trkpt lat="45.92812" lon="4.73589">
        <ele>172</ele>
        <time>2017-03-25T11:09:42Z</time>
      </trkpt>
      <trkpt lat="45.92811" lon="4.73597">
        <ele>172</ele>
        <time>2017-03-25T11:09:43Z</time>
      </trkpt>
      <trkpt lat="45.92811" lon="4.73606">
        <ele>172</ele>
        <time>2017-03-25T11:09:44Z</time>
      </trkpt>
      <trkpt lat="45.92811" lon="4.73614">
        <ele>172</ele>
        <time>2017-03-25T11:09:45Z</time>
      </trkpt>
      <trkpt lat="45.92811" lon="4.73622">
        <ele>172</ele>
        <time>2017-03-25T11:09:46Z</time>
      </trkpt>
      <trkpt lat="45.92807" lon="4.73634">
        <ele>172</ele>
        <time>2017-03-25T11:09:48Z</time>
      </trkpt>
      <trkpt lat="45.92804" lon="4.73639">
        <ele>172</ele>
        <time>2017-03-25T11:09:49Z</time>
      </trkpt>
      <trkpt lat="45.92801" lon="4.73645">
        <ele>172</ele>
        <time>2017-03-25T11:09:50Z</time>
      </trkpt>
      <trkpt lat="45.92799" lon="4.73652">
        <ele>172</ele>
        <time>2017-03-25T11:09:51Z</time>
      </trkpt>
      <trkpt lat="45.92797" lon="4.73659">
        <ele>172</ele>
        <time>2017-03-25T11:09:52Z</time>
      </trkpt>
      <trkpt lat="45.92795" lon="4.73666">
        <ele>172</ele>
        <time>2017-03-25T11:09:53Z</time>
      </trkpt>
      <trkpt lat="45.92794" lon="4.73674">
        <ele>172</ele>
        <time>2017-03-25T11:09:54Z</time>
      </trkpt>
      <trkpt lat="45.92792" lon="4.7368">
        <ele>172</ele>
        <time>2017-03-25T11:09:55Z</time>
      </trkpt>
      <trkpt lat="45.9279" lon="4.73686">
        <ele>172</ele>
        <time>2017-03-25T11:09:56Z</time>
      </trkpt>
      <trkpt lat="45.92789" lon="4.73692">
        <ele>172</ele>
        <time>2017-03-25T11:09:57Z</time>
      </trkpt>
      <trkpt lat="45.92786" lon="4.73704">
        <ele>172</ele>
        <time>2017-03-25T11:09:59Z</time>
      </trkpt>
      <trkpt lat="45.92785" lon="4.7371">
        <ele>172</ele>
        <time>2017-03-25T11:10:00Z</time>
      </trkpt>
      <trkpt lat="45.92783" lon="4.7372">
        <ele>172</ele>
        <time>2017-03-25T11:10:02Z</time>
      </trkpt>
      <trkpt lat="45.92782" lon="4.73725">
        <ele>172</ele>
        <time>2017-03-25T11:10:03Z</time>
      </trkpt>
      <trkpt lat="45.92776" lon="4.73732">
        <ele>172</ele>
        <time>2017-03-25T11:10:05Z</time>
      </trkpt>
      <trkpt lat="45.92773" lon="4.73734">
        <ele>172</ele>
        <time>2017-03-25T11:10:06Z</time>
      </trkpt>
      <trkpt lat="45.92767" lon="4.73731">
        <ele>172</ele>
        <time>2017-03-25T11:10:08Z</time>
      </trkpt>
      <trkpt lat="45.92763" lon="4.73729">
        <ele>172</ele>
        <time>2017-03-25T11:10:09Z</time>
      </trkpt>
      <trkpt lat="45.92758" lon="4.73726">
        <ele>172</ele>
        <time>2017-03-25T11:10:10Z</time>
      </trkpt>
      <trkpt lat="45.92753" lon="4.73724">
        <ele>172</ele>
        <time>2017-03-25T11:10:11Z</time>
      </trkpt>
      <trkpt lat="45.92748" lon="4.73723">
        <ele>173</ele>
        <time>2017-03-25T11:10:12Z</time>
      </trkpt>
      <trkpt lat="45.92743" lon="4.7372">
        <ele>173</ele>
        <time>2017-03-25T11:10:13Z</time>
      </trkpt>
      <trkpt lat="45.92738" lon="4.73719">
        <ele>173</ele>
        <time>2017-03-25T11:10:14Z</time>
      </trkpt>
      <trkpt lat="45.92733" lon="4.73717">
        <ele>173</ele>
        <time>2017-03-25T11:10:15Z</time>
      </trkpt>
      <trkpt lat="45.92728" lon="4.73716">
        <ele>173</ele>
        <time>2017-03-25T11:10:16Z</time>
      </trkpt>
      <trkpt lat="45.92723" lon="4.73715">
        <ele>173</ele>
        <time>2017-03-25T11:10:17Z</time>
      </trkpt>
      <trkpt lat="45.92718" lon="4.73712">
        <ele>173</ele>
        <time>2017-03-25T11:10:18Z</time>
      </trkpt>
      <trkpt lat="45.92713" lon="4.7371">
        <ele>173</ele>
        <time>2017-03-25T11:10:19Z</time>
      </trkpt>
      <trkpt lat="45.92709" lon="4.73709">
        <ele>173</ele>
        <time>2017-03-25T11:10:20Z</time>
      </trkpt>
      <trkpt lat="45.92704" lon="4.73709">
        <ele>173</ele>
        <time>2017-03-25T11:10:21Z</time>
      </trkpt>
      <trkpt lat="45.92699" lon="4.73708">
        <ele>173</ele>
        <time>2017-03-25T11:10:22Z</time>
      </trkpt>
      <trkpt lat="45.92695" lon="4.73707">
        <ele>173</ele>
        <time>2017-03-25T11:10:23Z</time>
      </trkpt>
      <trkpt lat="45.9269" lon="4.73705">
        <ele>173</ele>
        <time>2017-03-25T11:10:24Z</time>
      </trkpt>
      <trkpt lat="45.92686" lon="4.73704">
        <ele>173</ele>
        <time>2017-03-25T11:10:25Z</time>
      </trkpt>
      <trkpt lat="45.92678" lon="4.73701">
        <ele>173</ele>
        <time>2017-03-25T11:10:27Z</time>
      </trkpt>
      <trkpt lat="45.92673" lon="4.73699">
        <ele>174</ele>
        <time>2017-03-25T11:10:28Z</time>
      </trkpt>
      <trkpt lat="45.92668" lon="4.73696">
        <ele>174</ele>
        <time>2017-03-25T11:10:29Z</time>
      </trkpt>
      <trkpt lat="45.92663" lon="4.73693">
        <ele>173</ele>
        <time>2017-03-25T11:10:30Z</time>
      </trkpt>
      <trkpt lat="45.92658" lon="4.7369">
        <ele>173</ele>
        <time>2017-03-25T11:10:31Z</time>
      </trkpt>
      <trkpt lat="45.92654" lon="4.73686">
        <ele>173</ele>
        <time>2017-03-25T11:10:32Z</time>
      </trkpt>
      <trkpt lat="45.9265" lon="4.73682">
        <ele>173</ele>
        <time>2017-03-25T11:10:33Z</time>
      </trkpt>
      <trkpt lat="45.92646" lon="4.73678">
        <ele>173</ele>
        <time>2017-03-25T11:10:34Z</time>
      </trkpt>
      <trkpt lat="45.9264" lon="4.73668">
        <ele>173</ele>
        <time>2017-03-25T11:10:36Z</time>
      </trkpt>
      <trkpt lat="45.92638" lon="4.73663">
        <ele>173</ele>
        <time>2017-03-25T11:10:37Z</time>
      </trkpt>
      <trkpt lat="45.92635" lon="4.73657">
        <ele>173</ele>
        <time>2017-03-25T11:10:38Z</time>
      </trkpt>
      <trkpt lat="45.92633" lon="4.73651">
        <ele>173</ele>
        <time>2017-03-25T11:10:39Z</time>
      </trkpt>
      <trkpt lat="45.92631" lon="4.73645">
        <ele>173</ele>
        <time>2017-03-25T11:10:40Z</time>
      </trkpt>
      <trkpt lat="45.92628" lon="4.7364">
        <ele>173</ele>
        <time>2017-03-25T11:10:41Z</time>
      </trkpt>
      <trkpt lat="45.92626" lon="4.73634">
        <ele>173</ele>
        <time>2017-03-25T11:10:42Z</time>
      </trkpt>
      <trkpt lat="45.92622" lon="4.73628">
        <ele>173</ele>
        <time>2017-03-25T11:10:43Z</time>
      </trkpt>
      <trkpt lat="45.92618" lon="4.73625">
        <ele>173</ele>
        <time>2017-03-25T11:10:44Z</time>
      </trkpt>
      <trkpt lat="45.92613" lon="4.73622">
        <ele>173</ele>
        <time>2017-03-25T11:10:45Z</time>
      </trkpt>
      <trkpt lat="45.92608" lon="4.7362">
        <ele>173</ele>
        <time>2017-03-25T11:10:46Z</time>
      </trkpt>
      <trkpt lat="45.92603" lon="4.7362">
        <ele>173</ele>
        <time>2017-03-25T11:10:47Z</time>
      </trkpt>
      <trkpt lat="45.92598" lon="4.7362">
        <ele>173</ele>
        <time>2017-03-25T11:10:48Z</time>
      </trkpt>
      <trkpt lat="45.92593" lon="4.7362">
        <ele>173</ele>
        <time>2017-03-25T11:10:49Z</time>
      </trkpt>
      <trkpt lat="45.92587" lon="4.7362">
        <ele>173</ele>
        <time>2017-03-25T11:10:50Z</time>
      </trkpt>
      <trkpt lat="45.92582" lon="4.73622">
        <ele>173</ele>
        <time>2017-03-25T11:10:51Z</time>
      </trkpt>
      <trkpt lat="45.92577" lon="4.73623">
        <ele>173</ele>
        <time>2017-03-25T11:10:52Z</time>
      </trkpt>
      <trkpt lat="45.92572" lon="4.73624">
        <ele>173</ele>
        <time>2017-03-25T11:10:53Z</time>
      </trkpt>
      <trkpt lat="45.92567" lon="4.73626">
        <ele>173</ele>
        <time>2017-03-25T11:10:54Z</time>
      </trkpt>
      <trkpt lat="45.92562" lon="4.73627">
        <ele>173</ele>
        <time>2017-03-25T11:10:55Z</time>
      </trkpt>
      <trkpt lat="45.92556" lon="4.73628">
        <ele>173</ele>
        <time>2017-03-25T11:10:56Z</time>
      </trkpt>
      <trkpt lat="45.92551" lon="4.73629">
        <ele>173</ele>
        <time>2017-03-25T11:10:57Z</time>
      </trkpt>
      <trkpt lat="45.92545" lon="4.7363">
        <ele>173</ele>
        <time>2017-03-25T11:10:58Z</time>
      </trkpt>
      <trkpt lat="45.92539" lon="4.73632">
        <ele>173</ele>
        <time>2017-03-25T11:10:59Z</time>
      </trkpt>
      <trkpt lat="45.92534" lon="4.73634">
        <ele>173</ele>
        <time>2017-03-25T11:11:00Z</time>
      </trkpt>
      <trkpt lat="45.92529" lon="4.73635">
        <ele>173</ele>
        <time>2017-03-25T11:11:01Z</time>
      </trkpt>
      <trkpt lat="45.92524" lon="4.73636">
        <ele>173</ele>
        <time>2017-03-25T11:11:02Z</time>
      </trkpt>
      <trkpt lat="45.92519" lon="4.73636">
        <ele>173</ele>
        <time>2017-03-25T11:11:03Z</time>
      </trkpt>
      <trkpt lat="45.92514" lon="4.73636">
        <ele>173</ele>
        <time>2017-03-25T11:11:04Z</time>
      </trkpt>
      <trkpt lat="45.9251" lon="4.73637">
        <ele>174</ele>
        <time>2017-03-25T11:11:05Z</time>
      </trkpt>
      <trkpt lat="45.92501" lon="4.73637">
        <ele>174</ele>
        <time>2017-03-25T11:11:07Z</time>
      </trkpt>
      <trkpt lat="45.92497" lon="4.73637">
        <ele>174</ele>
        <time>2017-03-25T11:11:08Z</time>
      </trkpt>
      <trkpt lat="45.92488" lon="4.73639">
        <ele>174</ele>
        <time>2017-03-25T11:11:10Z</time>
      </trkpt>
      <trkpt lat="45.92484" lon="4.7364">
        <ele>174</ele>
        <time>2017-03-25T11:11:11Z</time>
      </trkpt>
      <trkpt lat="45.92475" lon="4.73641">
        <ele>174</ele>
        <time>2017-03-25T11:11:13Z</time>
      </trkpt>
      <trkpt lat="45.92472" lon="4.73645">
        <ele>174</ele>
        <time>2017-03-25T11:11:14Z</time>
      </trkpt>
      <trkpt lat="45.92468" lon="4.73652">
        <ele>174</ele>
        <time>2017-03-25T11:11:15Z</time>
      </trkpt>
      <trkpt lat="45.92467" lon="4.73658">
        <ele>174</ele>
        <time>2017-03-25T11:11:16Z</time>
      </trkpt>
      <trkpt lat="45.92467" lon="4.7367">
        <ele>174</ele>
        <time>2017-03-25T11:11:18Z</time>
      </trkpt>
      <trkpt lat="45.92467" lon="4.73675">
        <ele>174</ele>
        <time>2017-03-25T11:11:19Z</time>
      </trkpt>
      <trkpt lat="45.92466" lon="4.73685">
        <ele>174</ele>
        <time>2017-03-25T11:11:21Z</time>
      </trkpt>
      <trkpt lat="45.92465" lon="4.73689">
        <ele>174</ele>
        <time>2017-03-25T11:11:22Z</time>
      </trkpt>
      <trkpt lat="45.92463" lon="4.73698">
        <ele>174</ele>
        <time>2017-03-25T11:11:24Z</time>
      </trkpt>
      <trkpt lat="45.92462" lon="4.73703">
        <ele>174</ele>
        <time>2017-03-25T11:11:25Z</time>
      </trkpt>
      <trkpt lat="45.92458" lon="4.73712">
        <ele>174</ele>
        <time>2017-03-25T11:11:50.997Z</time>
      </trkpt>
    </trkseg>
  </trk>
</gpx>